<?xml version='1.0' encoding='UTF-8'?><gpx version="1.1" creator="JPX - https://github.com/jenetics/jpx" xmlns="http://www.topografix.com/GPX/1/1"><trk><trkseg><trkpt lat="41.5498676" lon="2.0125349"><ele>245.83333333333334</ele><time>2026-04-19T07:20:07.027Z</time></trkpt><trkpt lat="41.549754" lon="2.0124809"><ele>245.66666666666669</ele><time>2026-04-19T07:20:15.026Z</time></trkpt><trkpt lat="41.5497023" lon="2.0124181"><ele>245.5</ele><time>2026-04-19T07:20:16.026Z</time></trkpt><trkpt lat="41.5496526" lon="2.0123359"><ele>245.33333333333334</ele><time>2026-04-19T07:20:17.027Z</time></trkpt><trkpt lat="41.5496131" lon="2.0122453"><ele>245.16666666666669</ele><time>2026-04-19T07:20:18.027Z</time></trkpt><trkpt lat="41.5495823" lon="2.0121452"><ele>245.0</ele><time>2026-04-19T07:20:19.027Z</time></trkpt><trkpt lat="41.5495584" lon="2.0120363"><ele>245.0</ele><time>2026-04-19T07:20:20.026Z</time></trkpt><trkpt lat="41.5495459" lon="2.0119206"><ele>245.0</ele><time>2026-04-19T07:20:21.027Z</time></trkpt><trkpt lat="41.5495501" lon="2.0118007"><ele>245.0</ele><time>2026-04-19T07:20:22.027Z</time></trkpt><trkpt lat="41.549563" lon="2.0116775"><ele>245.0</ele><time>2026-04-19T07:20:23.027Z</time></trkpt><trkpt lat="41.5495807" lon="2.011547"><ele>245.0</ele><time>2026-04-19T07:20:24.026Z</time></trkpt><trkpt lat="41.5495986" lon="2.0114172"><ele>245.0</ele><time>2026-04-19T07:20:25.026Z</time></trkpt><trkpt lat="41.5496194" lon="2.0112803"><ele>245.0</ele><time>2026-04-19T07:20:26.026Z</time></trkpt><trkpt lat="41.549641" lon="2.0111382"><ele>245.0</ele><time>2026-04-19T07:20:27.027Z</time></trkpt><trkpt lat="41.5496645" lon="2.0109849"><ele>245.0</ele><time>2026-04-19T07:20:28.027Z</time></trkpt><trkpt lat="41.5496921" lon="2.0108283"><ele>245.0</ele><time>2026-04-19T07:20:29.027Z</time></trkpt><trkpt lat="41.5497191" lon="2.0106663"><ele>245.0</ele><time>2026-04-19T07:20:30.026Z</time></trkpt><trkpt lat="41.5497439" lon="2.0105082"><ele>245.0</ele><time>2026-04-19T07:20:31.027Z</time></trkpt><trkpt lat="41.5497728" lon="2.0103457"><ele>245.0</ele><time>2026-04-19T07:20:32.026Z</time></trkpt><trkpt lat="41.5498025" lon="2.0101718"><ele>245.0</ele><time>2026-04-19T07:20:33.026Z</time></trkpt><trkpt lat="41.5498281" lon="2.009995"><ele>245.0</ele><time>2026-04-19T07:20:34.026Z</time></trkpt><trkpt lat="41.5498503" lon="2.0098116"><ele>245.0</ele><time>2026-04-19T07:20:35.027Z</time></trkpt><trkpt lat="41.5498713" lon="2.0096221"><ele>245.0</ele><time>2026-04-19T07:20:36.026Z</time></trkpt><trkpt lat="41.5498872" lon="2.009431"><ele>245.75</ele><time>2026-04-19T07:20:37.026Z</time></trkpt><trkpt lat="41.5499034" lon="2.0092339"><ele>246.5</ele><time>2026-04-19T07:20:38.026Z</time></trkpt><trkpt lat="41.549916" lon="2.009032"><ele>247.25</ele><time>2026-04-19T07:20:39.027Z</time></trkpt><trkpt lat="41.5499256" lon="2.0088335"><ele>248.0</ele><time>2026-04-19T07:20:40.027Z</time></trkpt><trkpt lat="41.5499315" lon="2.0086315"><ele>249.66666666666669</ele><time>2026-04-19T07:20:41.027Z</time></trkpt><trkpt lat="41.5499267" lon="2.0084259"><ele>251.33333333333331</ele><time>2026-04-19T07:20:42.027Z</time></trkpt><trkpt lat="41.5499165" lon="2.0082239"><ele>253.0</ele><time>2026-04-19T07:20:43.026Z</time></trkpt><trkpt lat="41.549902" lon="2.0080238"><ele>253.5</ele><time>2026-04-19T07:20:44.026Z</time></trkpt><trkpt lat="41.5498869" lon="2.0078238"><ele>254.0</ele><time>2026-04-19T07:20:45.027Z</time></trkpt><trkpt lat="41.5498686" lon="2.007635"><ele>254.5</ele><time>2026-04-19T07:20:46.026Z</time></trkpt><trkpt lat="41.5498441" lon="2.0074483"><ele>255.0</ele><time>2026-04-19T07:20:47.026Z</time></trkpt><trkpt lat="41.5498255" lon="2.0072602"><ele>256.5</ele><time>2026-04-19T07:20:48.027Z</time></trkpt><trkpt lat="41.5498208" lon="2.0070767"><ele>258.0</ele><time>2026-04-19T07:20:49.027Z</time></trkpt><trkpt lat="41.54984" lon="2.0068991"><ele>259.5</ele><time>2026-04-19T07:20:50.026Z</time></trkpt><trkpt lat="41.549877" lon="2.0067272"><ele>261.0</ele><time>2026-04-19T07:20:51.027Z</time></trkpt><trkpt lat="41.5499377" lon="2.0065602"><ele>262.25</ele><time>2026-04-19T07:20:52.027Z</time></trkpt><trkpt lat="41.550016" lon="2.0064016"><ele>263.5</ele><time>2026-04-19T07:20:53.027Z</time></trkpt><trkpt lat="41.5501014" lon="2.0062387"><ele>264.75</ele><time>2026-04-19T07:20:54.027Z</time></trkpt><trkpt lat="41.550188" lon="2.0060709"><ele>266.0</ele><time>2026-04-19T07:20:55.026Z</time></trkpt><trkpt lat="41.5502751" lon="2.0059017"><ele>267.6666666666667</ele><time>2026-04-19T07:20:56.027Z</time></trkpt><trkpt lat="41.5503604" lon="2.0057331"><ele>269.3333333333333</ele><time>2026-04-19T07:20:57.027Z</time></trkpt><trkpt lat="41.550443" lon="2.0055609"><ele>271.0</ele><time>2026-04-19T07:20:58.027Z</time></trkpt><trkpt lat="41.550525" lon="2.0053789"><ele>271.0</ele><time>2026-04-19T07:20:59.027Z</time></trkpt><trkpt lat="41.5506037" lon="2.0051969"><ele>271.0</ele><time>2026-04-19T07:21:00.027Z</time></trkpt><trkpt lat="41.5506792" lon="2.0050086"><ele>271.0</ele><time>2026-04-19T07:21:01.026Z</time></trkpt><trkpt lat="41.5507527" lon="2.0048161"><ele>274.3333333333333</ele><time>2026-04-19T07:21:02.027Z</time></trkpt><trkpt lat="41.5508216" lon="2.0046193"><ele>277.6666666666667</ele><time>2026-04-19T07:21:03.026Z</time></trkpt><trkpt lat="41.5508824" lon="2.0044154"><ele>281.0</ele><time>2026-04-19T07:21:04.026Z</time></trkpt><trkpt lat="41.5509372" lon="2.0042073"><ele>283.0</ele><time>2026-04-19T07:21:05.027Z</time></trkpt><trkpt lat="41.5509917" lon="2.0039906"><ele>285.0</ele><time>2026-04-19T07:21:06.026Z</time></trkpt><trkpt lat="41.5510457" lon="2.0037697"><ele>287.0</ele><time>2026-04-19T07:21:07.026Z</time></trkpt><trkpt lat="41.5510981" lon="2.0035386"><ele>288.33333333333337</ele><time>2026-04-19T07:21:08.027Z</time></trkpt><trkpt lat="41.5511481" lon="2.0032926"><ele>289.6666666666667</ele><time>2026-04-19T07:21:09.026Z</time></trkpt><trkpt lat="41.5511932" lon="2.0030451"><ele>291.0</ele><time>2026-04-19T07:21:10.027Z</time></trkpt><trkpt lat="41.5512412" lon="2.0027937"><ele>289.3333333333333</ele><time>2026-04-19T07:21:11.026Z</time></trkpt><trkpt lat="41.5512916" lon="2.0025364"><ele>287.66666666666663</ele><time>2026-04-19T07:21:12.026Z</time></trkpt><trkpt lat="41.5513469" lon="2.0022736"><ele>286.0</ele><time>2026-04-19T07:21:13.027Z</time></trkpt><trkpt lat="41.5514113" lon="2.0020148"><ele>286.0</ele><time>2026-04-19T07:21:14.027Z</time></trkpt><trkpt lat="41.5514825" lon="2.0017604"><ele>286.0</ele><time>2026-04-19T07:21:15.026Z</time></trkpt><trkpt lat="41.5515627" lon="2.0015097"><ele>286.0</ele><time>2026-04-19T07:21:16.027Z</time></trkpt><trkpt lat="41.5516507" lon="2.0012618"><ele>286.3333333333333</ele><time>2026-04-19T07:21:17.027Z</time></trkpt><trkpt lat="41.5517507" lon="2.0010224"><ele>286.6666666666667</ele><time>2026-04-19T07:21:18.026Z</time></trkpt><trkpt lat="41.5518631" lon="2.0007883"><ele>287.0</ele><time>2026-04-19T07:21:19.027Z</time></trkpt><trkpt lat="41.551984" lon="2.0005634"><ele>285.33333333333337</ele><time>2026-04-19T07:21:20.026Z</time></trkpt><trkpt lat="41.5521177" lon="2.0003433"><ele>283.6666666666667</ele><time>2026-04-19T07:21:21.026Z</time></trkpt><trkpt lat="41.552258" lon="2.0001262"><ele>282.0</ele><time>2026-04-19T07:21:22.026Z</time></trkpt><trkpt lat="41.55241" lon="1.9999189"><ele>282.0</ele><time>2026-04-19T07:21:23.026Z</time></trkpt><trkpt lat="41.5525696" lon="1.999715"><ele>282.0</ele><time>2026-04-19T07:21:24.026Z</time></trkpt><trkpt lat="41.552739" lon="1.9995236"><ele>282.0</ele><time>2026-04-19T07:21:25.026Z</time></trkpt><trkpt lat="41.5529193" lon="1.9993373"><ele>277.5</ele><time>2026-04-19T07:21:26.027Z</time></trkpt><trkpt lat="41.5531032" lon="1.9991593"><ele>273.0</ele><time>2026-04-19T07:21:27.027Z</time></trkpt><trkpt lat="41.5532906" lon="1.9989828"><ele>273.0</ele><time>2026-04-19T07:21:28.027Z</time></trkpt><trkpt lat="41.5534784" lon="1.9988033"><ele>273.0</ele><time>2026-04-19T07:21:29.026Z</time></trkpt><trkpt lat="41.5536592" lon="1.9986204"><ele>272.0</ele><time>2026-04-19T07:21:30.027Z</time></trkpt><trkpt lat="41.5538291" lon="1.9984271"><ele>271.0</ele><time>2026-04-19T07:21:31.027Z</time></trkpt><trkpt lat="41.5539882" lon="1.9982259"><ele>270.0</ele><time>2026-04-19T07:21:32.026Z</time></trkpt><trkpt lat="41.554138" lon="1.998012"><ele>270.0</ele><time>2026-04-19T07:21:33.026Z</time></trkpt><trkpt lat="41.5542786" lon="1.9977871"><ele>270.0</ele><time>2026-04-19T07:21:34.026Z</time></trkpt><trkpt lat="41.5544132" lon="1.9975583"><ele>270.0</ele><time>2026-04-19T07:21:35.026Z</time></trkpt><trkpt lat="41.5545403" lon="1.9973177"><ele>269.6666666666667</ele><time>2026-04-19T07:21:36.027Z</time></trkpt><trkpt lat="41.5546524" lon="1.9970718"><ele>269.33333333333337</ele><time>2026-04-19T07:21:37.026Z</time></trkpt><trkpt lat="41.554749" lon="1.9968142"><ele>269.0</ele><time>2026-04-19T07:21:38.027Z</time></trkpt><trkpt lat="41.5548335" lon="1.9965446"><ele>270.0</ele><time>2026-04-19T07:21:39.026Z</time></trkpt><trkpt lat="41.5549143" lon="1.9962713"><ele>271.0</ele><time>2026-04-19T07:21:40.027Z</time></trkpt><trkpt lat="41.5549841" lon="1.9959985"><ele>272.0</ele><time>2026-04-19T07:21:41.027Z</time></trkpt><trkpt lat="41.5550452" lon="1.99573"><ele>273.6666666666667</ele><time>2026-04-19T07:21:42.026Z</time></trkpt><trkpt lat="41.5550979" lon="1.9954605"><ele>275.3333333333333</ele><time>2026-04-19T07:21:43.027Z</time></trkpt><trkpt lat="41.5551439" lon="1.9951852"><ele>277.0</ele><time>2026-04-19T07:21:44.026Z</time></trkpt><trkpt lat="41.555186" lon="1.9949144"><ele>278.3333333333333</ele><time>2026-04-19T07:21:45.027Z</time></trkpt><trkpt lat="41.5552303" lon="1.994643"><ele>279.6666666666667</ele><time>2026-04-19T07:21:46.027Z</time></trkpt><trkpt lat="41.5552755" lon="1.9943669"><ele>281.0</ele><time>2026-04-19T07:21:47.027Z</time></trkpt><trkpt lat="41.5553207" lon="1.9940918"><ele>281.0</ele><time>2026-04-19T07:21:48.027Z</time></trkpt><trkpt lat="41.555369" lon="1.9938122"><ele>281.0</ele><time>2026-04-19T07:21:49.027Z</time></trkpt><trkpt lat="41.5554172" lon="1.993526"><ele>281.0</ele><time>2026-04-19T07:21:50.026Z</time></trkpt><trkpt lat="41.5554657" lon="1.9932378"><ele>281.0</ele><time>2026-04-19T07:21:51.027Z</time></trkpt><trkpt lat="41.5555164" lon="1.9929525"><ele>281.0</ele><time>2026-04-19T07:21:52.027Z</time></trkpt><trkpt lat="41.5555645" lon="1.9926596"><ele>281.0</ele><time>2026-04-19T07:21:53.026Z</time></trkpt><trkpt lat="41.555613" lon="1.9923678"><ele>281.0</ele><time>2026-04-19T07:21:54.027Z</time></trkpt><trkpt lat="41.5556564" lon="1.9920769"><ele>281.0</ele><time>2026-04-19T07:21:55.027Z</time></trkpt><trkpt lat="41.5557076" lon="1.9917941"><ele>281.0</ele><time>2026-04-19T07:21:56.026Z</time></trkpt><trkpt lat="41.5557533" lon="1.9915039"><ele>281.6666666666667</ele><time>2026-04-19T07:21:57.027Z</time></trkpt><trkpt lat="41.5558023" lon="1.991216"><ele>282.3333333333333</ele><time>2026-04-19T07:21:58.027Z</time></trkpt><trkpt lat="41.5558429" lon="1.9909307"><ele>283.0</ele><time>2026-04-19T07:21:59.027Z</time></trkpt><trkpt lat="41.5558869" lon="1.9906397"><ele>284.66666666666663</ele><time>2026-04-19T07:22:00.027Z</time></trkpt><trkpt lat="41.5559289" lon="1.9903474"><ele>286.3333333333333</ele><time>2026-04-19T07:22:01.027Z</time></trkpt><trkpt lat="41.555963" lon="1.9900508"><ele>288.0</ele><time>2026-04-19T07:22:02.026Z</time></trkpt><trkpt lat="41.5559925" lon="1.9897488"><ele>289.0</ele><time>2026-04-19T07:22:03.027Z</time></trkpt><trkpt lat="41.5560099" lon="1.9894524"><ele>290.0</ele><time>2026-04-19T07:22:04.027Z</time></trkpt><trkpt lat="41.5560122" lon="1.9891479"><ele>290.5</ele><time>2026-04-19T07:22:05.026Z</time></trkpt><trkpt lat="41.5560034" lon="1.9888418"><ele>291.0</ele><time>2026-04-19T07:22:06.026Z</time></trkpt><trkpt lat="41.5559828" lon="1.988533"><ele>291.0</ele><time>2026-04-19T07:22:07.027Z</time></trkpt><trkpt lat="41.5559573" lon="1.9882245"><ele>291.0</ele><time>2026-04-19T07:22:08.027Z</time></trkpt><trkpt lat="41.5559183" lon="1.9879202"><ele>291.0</ele><time>2026-04-19T07:22:09.026Z</time></trkpt><trkpt lat="41.5558696" lon="1.9876219"><ele>291.0</ele><time>2026-04-19T07:22:10.027Z</time></trkpt><trkpt lat="41.5558099" lon="1.9873239"><ele>293.0</ele><time>2026-04-19T07:22:11.027Z</time></trkpt><trkpt lat="41.5557414" lon="1.9870241"><ele>295.0</ele><time>2026-04-19T07:22:12.027Z</time></trkpt><trkpt lat="41.5556669" lon="1.9867287"><ele>294.5</ele><time>2026-04-19T07:22:13.027Z</time></trkpt><trkpt lat="41.5555942" lon="1.9864233"><ele>294.0</ele><time>2026-04-19T07:22:14.027Z</time></trkpt><trkpt lat="41.5555211" lon="1.9861179"><ele>293.0</ele><time>2026-04-19T07:22:15.027Z</time></trkpt><trkpt lat="41.5554557" lon="1.9858102"><ele>292.0</ele><time>2026-04-19T07:22:16.026Z</time></trkpt><trkpt lat="41.5553908" lon="1.9854953"><ele>290.5</ele><time>2026-04-19T07:22:17.027Z</time></trkpt><trkpt lat="41.5553315" lon="1.9851867"><ele>289.0</ele><time>2026-04-19T07:22:18.027Z</time></trkpt><trkpt lat="41.5552718" lon="1.9848805"><ele>287.0</ele><time>2026-04-19T07:22:19.027Z</time></trkpt><trkpt lat="41.5552182" lon="1.9845723"><ele>285.0</ele><time>2026-04-19T07:22:20.027Z</time></trkpt><trkpt lat="41.555171" lon="1.9842575"><ele>284.0</ele><time>2026-04-19T07:22:21.027Z</time></trkpt><trkpt lat="41.5551278" lon="1.9839421"><ele>283.0</ele><time>2026-04-19T07:22:22.027Z</time></trkpt><trkpt lat="41.555092" lon="1.9836251"><ele>281.5</ele><time>2026-04-19T07:22:23.027Z</time></trkpt><trkpt lat="41.5550628" lon="1.9833054"><ele>280.0</ele><time>2026-04-19T07:22:24.027Z</time></trkpt><trkpt lat="41.5550414" lon="1.9829935"><ele>280.0</ele><time>2026-04-19T07:22:25.026Z</time></trkpt><trkpt lat="41.5550145" lon="1.9826803"><ele>280.0</ele><time>2026-04-19T07:22:26.027Z</time></trkpt><trkpt lat="41.5549857" lon="1.9823727"><ele>278.5</ele><time>2026-04-19T07:22:27.026Z</time></trkpt><trkpt lat="41.5549692" lon="1.9820653"><ele>277.0</ele><time>2026-04-19T07:22:28.027Z</time></trkpt><trkpt lat="41.5549622" lon="1.9817599"><ele>278.0</ele><time>2026-04-19T07:22:29.027Z</time></trkpt><trkpt lat="41.5549635" lon="1.9814533"><ele>279.0</ele><time>2026-04-19T07:22:30.026Z</time></trkpt><trkpt lat="41.5549711" lon="1.9811477"><ele>279.5</ele><time>2026-04-19T07:22:31.026Z</time></trkpt><trkpt lat="41.554983" lon="1.9808393"><ele>280.0</ele><time>2026-04-19T07:22:32.026Z</time></trkpt><trkpt lat="41.5550002" lon="1.9805328"><ele>280.0</ele><time>2026-04-19T07:22:33.026Z</time></trkpt><trkpt lat="41.5550217" lon="1.9802189"><ele>280.0</ele><time>2026-04-19T07:22:34.026Z</time></trkpt><trkpt lat="41.55505" lon="1.9799131"><ele>278.0</ele><time>2026-04-19T07:22:35.027Z</time></trkpt><trkpt lat="41.5550816" lon="1.9796088"><ele>276.0</ele><time>2026-04-19T07:22:36.027Z</time></trkpt><trkpt lat="41.5551163" lon="1.9793058"><ele>273.5</ele><time>2026-04-19T07:22:37.027Z</time></trkpt><trkpt lat="41.5551605" lon="1.9790054"><ele>271.0</ele><time>2026-04-19T07:22:38.027Z</time></trkpt><trkpt lat="41.5552106" lon="1.978704"><ele>271.0</ele><time>2026-04-19T07:22:39.027Z</time></trkpt><trkpt lat="41.5552708" lon="1.9784038"><ele>271.0</ele><time>2026-04-19T07:22:40.026Z</time></trkpt><trkpt lat="41.5553415" lon="1.9781078"><ele>267.5</ele><time>2026-04-19T07:22:41.027Z</time></trkpt><trkpt lat="41.5554224" lon="1.9778156"><ele>264.0</ele><time>2026-04-19T07:22:42.027Z</time></trkpt><trkpt lat="41.5555058" lon="1.9775254"><ele>261.5</ele><time>2026-04-19T07:22:43.026Z</time></trkpt><trkpt lat="41.5555948" lon="1.9772401"><ele>259.0</ele><time>2026-04-19T07:22:44.026Z</time></trkpt><trkpt lat="41.5556905" lon="1.9769647"><ele>259.0</ele><time>2026-04-19T07:22:45.027Z</time></trkpt><trkpt lat="41.5557927" lon="1.9766944"><ele>259.0</ele><time>2026-04-19T07:22:46.026Z</time></trkpt><trkpt lat="41.555904" lon="1.9764284"><ele>254.5</ele><time>2026-04-19T07:22:47.027Z</time></trkpt><trkpt lat="41.5560267" lon="1.9761683"><ele>250.0</ele><time>2026-04-19T07:22:48.027Z</time></trkpt><trkpt lat="41.5561595" lon="1.9759102"><ele>252.5</ele><time>2026-04-19T07:22:49.026Z</time></trkpt><trkpt lat="41.5562965" lon="1.9756575"><ele>255.0</ele><time>2026-04-19T07:22:50.027Z</time></trkpt><trkpt lat="41.5564398" lon="1.9754089"><ele>255.0</ele><time>2026-04-19T07:22:51.027Z</time></trkpt><trkpt lat="41.5565927" lon="1.9751772"><ele>255.0</ele><time>2026-04-19T07:22:52.027Z</time></trkpt><trkpt lat="41.5567534" lon="1.9749573"><ele>257.0</ele><time>2026-04-19T07:22:53.027Z</time></trkpt><trkpt lat="41.5569226" lon="1.9747409"><ele>259.0</ele><time>2026-04-19T07:22:54.027Z</time></trkpt><trkpt lat="41.5570855" lon="1.9745288"><ele>259.5</ele><time>2026-04-19T07:22:55.027Z</time></trkpt><trkpt lat="41.5572548" lon="1.9743166"><ele>260.0</ele><time>2026-04-19T07:22:56.027Z</time></trkpt><trkpt lat="41.5574251" lon="1.9741141"><ele>255.66666666666669</ele><time>2026-04-19T07:22:57.027Z</time></trkpt><trkpt lat="41.5575917" lon="1.9739136"><ele>251.33333333333331</ele><time>2026-04-19T07:22:58.027Z</time></trkpt><trkpt lat="41.5577574" lon="1.973715"><ele>247.0</ele><time>2026-04-19T07:22:59.027Z</time></trkpt><trkpt lat="41.5579199" lon="1.9735083"><ele>245.0</ele><time>2026-04-19T07:23:00.027Z</time></trkpt><trkpt lat="41.5580802" lon="1.9733005"><ele>243.0</ele><time>2026-04-19T07:23:01.027Z</time></trkpt><trkpt lat="41.558239" lon="1.9730874"><ele>241.0</ele><time>2026-04-19T07:23:02.027Z</time></trkpt><trkpt lat="41.5583984" lon="1.9728639"><ele>241.0</ele><time>2026-04-19T07:23:03.027Z</time></trkpt><trkpt lat="41.5585557" lon="1.9726354"><ele>241.0</ele><time>2026-04-19T07:23:04.027Z</time></trkpt><trkpt lat="41.5587109" lon="1.9724035"><ele>244.5</ele><time>2026-04-19T07:23:05.026Z</time></trkpt><trkpt lat="41.5588646" lon="1.9721713"><ele>248.0</ele><time>2026-04-19T07:23:06.026Z</time></trkpt><trkpt lat="41.5590119" lon="1.9719369"><ele>248.0</ele><time>2026-04-19T07:23:07.027Z</time></trkpt><trkpt lat="41.5591571" lon="1.971706"><ele>248.0</ele><time>2026-04-19T07:23:08.027Z</time></trkpt><trkpt lat="41.5593028" lon="1.9714706"><ele>251.0</ele><time>2026-04-19T07:23:09.026Z</time></trkpt><trkpt lat="41.5594456" lon="1.9712373"><ele>254.0</ele><time>2026-04-19T07:23:10.026Z</time></trkpt><trkpt lat="41.5595863" lon="1.971003"><ele>258.0</ele><time>2026-04-19T07:23:11.027Z</time></trkpt><trkpt lat="41.5597251" lon="1.9707619"><ele>262.0</ele><time>2026-04-19T07:23:12.026Z</time></trkpt><trkpt lat="41.5598607" lon="1.9705151"><ele>262.0</ele><time>2026-04-19T07:23:13.027Z</time></trkpt><trkpt lat="41.5599925" lon="1.9702716"><ele>262.0</ele><time>2026-04-19T07:23:14.027Z</time></trkpt><trkpt lat="41.5601213" lon="1.9700308"><ele>262.0</ele><time>2026-04-19T07:23:15.027Z</time></trkpt><trkpt lat="41.5602496" lon="1.9697895"><ele>266.5</ele><time>2026-04-19T07:23:16.026Z</time></trkpt><trkpt lat="41.5603781" lon="1.969544"><ele>271.0</ele><time>2026-04-19T07:23:17.027Z</time></trkpt><trkpt lat="41.5605104" lon="1.9692939"><ele>271.0</ele><time>2026-04-19T07:23:18.027Z</time></trkpt><trkpt lat="41.560642" lon="1.9690451"><ele>271.0</ele><time>2026-04-19T07:23:19.027Z</time></trkpt><trkpt lat="41.5607706" lon="1.9687993"><ele>271.0</ele><time>2026-04-19T07:23:20.027Z</time></trkpt><trkpt lat="41.560897" lon="1.9685569"><ele>271.0</ele><time>2026-04-19T07:23:21.026Z</time></trkpt><trkpt lat="41.5610242" lon="1.9683165"><ele>271.0</ele><time>2026-04-19T07:23:22.027Z</time></trkpt><trkpt lat="41.5611574" lon="1.9680791"><ele>273.3333333333333</ele><time>2026-04-19T07:23:23.027Z</time></trkpt><trkpt lat="41.5612973" lon="1.9678485"><ele>275.6666666666667</ele><time>2026-04-19T07:23:24.027Z</time></trkpt><trkpt lat="41.561445" lon="1.9676309"><ele>278.0</ele><time>2026-04-19T07:23:25.027Z</time></trkpt><trkpt lat="41.5616057" lon="1.9674141"><ele>278.0</ele><time>2026-04-19T07:23:26.027Z</time></trkpt><trkpt lat="41.5617736" lon="1.9672015"><ele>278.0</ele><time>2026-04-19T07:23:27.026Z</time></trkpt><trkpt lat="41.5619471" lon="1.9670009"><ele>280.33333333333337</ele><time>2026-04-19T07:23:28.027Z</time></trkpt><trkpt lat="41.5621206" lon="1.9668113"><ele>282.6666666666667</ele><time>2026-04-19T07:23:29.027Z</time></trkpt><trkpt lat="41.5622987" lon="1.9666313"><ele>285.0</ele><time>2026-04-19T07:23:30.027Z</time></trkpt><trkpt lat="41.5624767" lon="1.9664639"><ele>285.0</ele><time>2026-04-19T07:23:31.026Z</time></trkpt><trkpt lat="41.5626609" lon="1.9663063"><ele>285.0</ele><time>2026-04-19T07:23:32.027Z</time></trkpt><trkpt lat="41.5628467" lon="1.9661561"><ele>285.0</ele><time>2026-04-19T07:23:33.027Z</time></trkpt><trkpt lat="41.5630361" lon="1.9660173"><ele>287.0</ele><time>2026-04-19T07:23:34.026Z</time></trkpt><trkpt lat="41.5632362" lon="1.9658906"><ele>289.0</ele><time>2026-04-19T07:23:35.026Z</time></trkpt><trkpt lat="41.5634341" lon="1.9657655"><ele>291.0</ele><time>2026-04-19T07:23:36.027Z</time></trkpt><trkpt lat="41.5636378" lon="1.965649"><ele>292.6666666666667</ele><time>2026-04-19T07:23:37.027Z</time></trkpt><trkpt lat="41.5638388" lon="1.965534"><ele>294.33333333333337</ele><time>2026-04-19T07:23:38.027Z</time></trkpt><trkpt lat="41.5640454" lon="1.9654179"><ele>296.0</ele><time>2026-04-19T07:23:39.027Z</time></trkpt><trkpt lat="41.5642495" lon="1.9653027"><ele>296.0</ele><time>2026-04-19T07:23:40.027Z</time></trkpt><trkpt lat="41.5644521" lon="1.9651872"><ele>296.0</ele><time>2026-04-19T07:23:41.027Z</time></trkpt><trkpt lat="41.5646625" lon="1.9650732"><ele>296.0</ele><time>2026-04-19T07:23:42.027Z</time></trkpt><trkpt lat="41.5648633" lon="1.9649666"><ele>296.33333333333337</ele><time>2026-04-19T07:23:43.026Z</time></trkpt><trkpt lat="41.5650682" lon="1.9648506"><ele>296.6666666666667</ele><time>2026-04-19T07:23:44.026Z</time></trkpt><trkpt lat="41.5652754" lon="1.9647353"><ele>297.0</ele><time>2026-04-19T07:23:45.027Z</time></trkpt><trkpt lat="41.5654773" lon="1.964632"><ele>297.0</ele><time>2026-04-19T07:23:46.027Z</time></trkpt><trkpt lat="41.5656813" lon="1.9645264"><ele>297.0</ele><time>2026-04-19T07:23:47.026Z</time></trkpt><trkpt lat="41.5658831" lon="1.9644187"><ele>297.0</ele><time>2026-04-19T07:23:48.026Z</time></trkpt><trkpt lat="41.566086" lon="1.9643063"><ele>296.3333333333333</ele><time>2026-04-19T07:23:49.026Z</time></trkpt><trkpt lat="41.5662811" lon="1.9641936"><ele>295.66666666666663</ele><time>2026-04-19T07:23:50.027Z</time></trkpt><trkpt lat="41.5664793" lon="1.9640824"><ele>295.0</ele><time>2026-04-19T07:23:51.027Z</time></trkpt><trkpt lat="41.5666703" lon="1.9639819"><ele>295.0</ele><time>2026-04-19T07:23:52.027Z</time></trkpt><trkpt lat="41.5668632" lon="1.9638836"><ele>295.0</ele><time>2026-04-19T07:23:53.026Z</time></trkpt><trkpt lat="41.5670613" lon="1.9637889"><ele>295.0</ele><time>2026-04-19T07:23:54.027Z</time></trkpt><trkpt lat="41.5672573" lon="1.9636944"><ele>298.0</ele><time>2026-04-19T07:23:55.027Z</time></trkpt><trkpt lat="41.5674546" lon="1.9635964"><ele>301.0</ele><time>2026-04-19T07:23:56.027Z</time></trkpt><trkpt lat="41.5676505" lon="1.9634937"><ele>304.0</ele><time>2026-04-19T07:23:57.026Z</time></trkpt><trkpt lat="41.5678469" lon="1.9633896"><ele>308.0</ele><time>2026-04-19T07:23:58.027Z</time></trkpt><trkpt lat="41.5680472" lon="1.9632839"><ele>312.0</ele><time>2026-04-19T07:23:59.026Z</time></trkpt><trkpt lat="41.5682513" lon="1.9631819"><ele>316.0</ele><time>2026-04-19T07:24:00.026Z</time></trkpt><trkpt lat="41.5684582" lon="1.9630747"><ele>316.0</ele><time>2026-04-19T07:24:01.026Z</time></trkpt><trkpt lat="41.5686618" lon="1.9629758"><ele>316.0</ele><time>2026-04-19T07:24:02.027Z</time></trkpt><trkpt lat="41.5688725" lon="1.9629021"><ele>316.0</ele><time>2026-04-19T07:24:03.027Z</time></trkpt><trkpt lat="41.5690846" lon="1.9628476"><ele>316.0</ele><time>2026-04-19T07:24:04.026Z</time></trkpt><trkpt lat="41.5693036" lon="1.9628101"><ele>316.0</ele><time>2026-04-19T07:24:05.027Z</time></trkpt><trkpt lat="41.5695231" lon="1.9627887"><ele>316.0</ele><time>2026-04-19T07:24:06.027Z</time></trkpt><trkpt lat="41.5697463" lon="1.962787"><ele>316.66666666666663</ele><time>2026-04-19T07:24:07.027Z</time></trkpt><trkpt lat="41.5699675" lon="1.9628031"><ele>317.3333333333333</ele><time>2026-04-19T07:24:08.027Z</time></trkpt><trkpt lat="41.5701904" lon="1.96283"><ele>318.0</ele><time>2026-04-19T07:24:09.026Z</time></trkpt><trkpt lat="41.5704147" lon="1.9628638"><ele>321.0</ele><time>2026-04-19T07:24:10.027Z</time></trkpt><trkpt lat="41.5706373" lon="1.9629004"><ele>324.0</ele><time>2026-04-19T07:24:11.027Z</time></trkpt><trkpt lat="41.5708572" lon="1.9629379"><ele>327.0</ele><time>2026-04-19T07:24:12.027Z</time></trkpt><trkpt lat="41.5710796" lon="1.9629712"><ele>328.0</ele><time>2026-04-19T07:24:13.027Z</time></trkpt><trkpt lat="41.571304" lon="1.9630063"><ele>329.0</ele><time>2026-04-19T07:24:14.026Z</time></trkpt><trkpt lat="41.5715336" lon="1.9630432"><ele>329.0</ele><time>2026-04-19T07:24:15.026Z</time></trkpt><trkpt lat="41.5717597" lon="1.9630828"><ele>329.0</ele><time>2026-04-19T07:24:16.026Z</time></trkpt><trkpt lat="41.571987" lon="1.9631157"><ele>332.0</ele><time>2026-04-19T07:24:17.026Z</time></trkpt><trkpt lat="41.5722122" lon="1.9631528"><ele>335.0</ele><time>2026-04-19T07:24:18.027Z</time></trkpt><trkpt lat="41.5724372" lon="1.9631911"><ele>335.0</ele><time>2026-04-19T07:24:19.027Z</time></trkpt><trkpt lat="41.5726588" lon="1.9632223"><ele>335.0</ele><time>2026-04-19T07:24:20.027Z</time></trkpt><trkpt lat="41.5728786" lon="1.9632526"><ele>335.0</ele><time>2026-04-19T07:24:21.026Z</time></trkpt><trkpt lat="41.5730989" lon="1.9632759"><ele>336.0</ele><time>2026-04-19T07:24:22.027Z</time></trkpt><trkpt lat="41.5733288" lon="1.9632856"><ele>337.0</ele><time>2026-04-19T07:24:23.026Z</time></trkpt><trkpt lat="41.5735478" lon="1.9632678"><ele>338.0</ele><time>2026-04-19T07:24:24.026Z</time></trkpt><trkpt lat="41.5737649" lon="1.963223"><ele>338.0</ele><time>2026-04-19T07:24:25.027Z</time></trkpt><trkpt lat="41.573986" lon="1.9631498"><ele>338.0</ele><time>2026-04-19T07:24:26.026Z</time></trkpt><trkpt lat="41.5741947" lon="1.963035"><ele>338.0</ele><time>2026-04-19T07:24:27.026Z</time></trkpt><trkpt lat="41.5743946" lon="1.9628962"><ele>338.0</ele><time>2026-04-19T07:24:28.027Z</time></trkpt><trkpt lat="41.574585" lon="1.9627332"><ele>341.5</ele><time>2026-04-19T07:24:29.027Z</time></trkpt><trkpt lat="41.574765" lon="1.9625432"><ele>345.0</ele><time>2026-04-19T07:24:30.027Z</time></trkpt><trkpt lat="41.5749318" lon="1.962332"><ele>345.0</ele><time>2026-04-19T07:24:31.027Z</time></trkpt><trkpt lat="41.5750808" lon="1.9621049"><ele>345.0</ele><time>2026-04-19T07:24:32.027Z</time></trkpt><trkpt lat="41.5752241" lon="1.9618557"><ele>344.0</ele><time>2026-04-19T07:24:33.027Z</time></trkpt><trkpt lat="41.5753609" lon="1.9616046"><ele>343.0</ele><time>2026-04-19T07:24:34.027Z</time></trkpt><trkpt lat="41.5755175" lon="1.9613714"><ele>343.0</ele><time>2026-04-19T07:24:35.027Z</time></trkpt><trkpt lat="41.5756793" lon="1.9611458"><ele>343.0</ele><time>2026-04-19T07:24:36.026Z</time></trkpt><trkpt lat="41.5758549" lon="1.9609617"><ele>346.0</ele><time>2026-04-19T07:24:37.027Z</time></trkpt><trkpt lat="41.576054" lon="1.960807"><ele>349.0</ele><time>2026-04-19T07:24:38.027Z</time></trkpt><trkpt lat="41.5762595" lon="1.9606648"><ele>349.0</ele><time>2026-04-19T07:24:39.027Z</time></trkpt><trkpt lat="41.5764754" lon="1.9605529"><ele>349.0</ele><time>2026-04-19T07:24:40.027Z</time></trkpt><trkpt lat="41.5767005" lon="1.9604757"><ele>349.0</ele><time>2026-04-19T07:24:41.027Z</time></trkpt><trkpt lat="41.5769305" lon="1.9604256"><ele>349.0</ele><time>2026-04-19T07:24:42.026Z</time></trkpt><trkpt lat="41.5771581" lon="1.9604159"><ele>348.3333333333333</ele><time>2026-04-19T07:24:43.027Z</time></trkpt><trkpt lat="41.5773827" lon="1.9604146"><ele>347.6666666666667</ele><time>2026-04-19T07:24:44.027Z</time></trkpt><trkpt lat="41.577607" lon="1.9603979"><ele>347.0</ele><time>2026-04-19T07:24:45.027Z</time></trkpt><trkpt lat="41.5778357" lon="1.9603741"><ele>344.5</ele><time>2026-04-19T07:24:46.026Z</time></trkpt><trkpt lat="41.5780647" lon="1.9603195"><ele>342.0</ele><time>2026-04-19T07:24:47.027Z</time></trkpt><trkpt lat="41.5782726" lon="1.9601989"><ele>342.0</ele><time>2026-04-19T07:24:48.027Z</time></trkpt><trkpt lat="41.5784823" lon="1.9600753"><ele>342.0</ele><time>2026-04-19T07:24:49.026Z</time></trkpt><trkpt lat="41.5786797" lon="1.9599265"><ele>348.0</ele><time>2026-04-19T07:24:50.026Z</time></trkpt><trkpt lat="41.5788602" lon="1.959748"><ele>354.0</ele><time>2026-04-19T07:24:51.027Z</time></trkpt><trkpt lat="41.57903" lon="1.9595466"><ele>354.0</ele><time>2026-04-19T07:24:52.027Z</time></trkpt><trkpt lat="41.5791871" lon="1.9593219"><ele>354.0</ele><time>2026-04-19T07:24:53.026Z</time></trkpt><trkpt lat="41.5793268" lon="1.9590783"><ele>352.5</ele><time>2026-04-19T07:24:54.026Z</time></trkpt><trkpt lat="41.579452" lon="1.958826"><ele>351.0</ele><time>2026-04-19T07:24:55.027Z</time></trkpt><trkpt lat="41.5795716" lon="1.9585613"><ele>359.5</ele><time>2026-04-19T07:24:56.027Z</time></trkpt><trkpt lat="41.579691" lon="1.9582966"><ele>368.0</ele><time>2026-04-19T07:24:57.026Z</time></trkpt><trkpt lat="41.5798082" lon="1.9580328"><ele>368.0</ele><time>2026-04-19T07:24:58.027Z</time></trkpt><trkpt lat="41.5799216" lon="1.9577771"><ele>368.0</ele><time>2026-04-19T07:24:59.027Z</time></trkpt><trkpt lat="41.5800343" lon="1.9575162"><ele>368.0</ele><time>2026-04-19T07:25:00.027Z</time></trkpt><trkpt lat="41.5801582" lon="1.9572506"><ele>370.5</ele><time>2026-04-19T07:25:01.027Z</time></trkpt><trkpt lat="41.5802761" lon="1.9569799"><ele>373.0</ele><time>2026-04-19T07:25:02.026Z</time></trkpt><trkpt lat="41.5803944" lon="1.9567102"><ele>380.5</ele><time>2026-04-19T07:25:03.026Z</time></trkpt><trkpt lat="41.5805129" lon="1.9564433"><ele>388.0</ele><time>2026-04-19T07:25:04.027Z</time></trkpt><trkpt lat="41.5806304" lon="1.956175"><ele>388.0</ele><time>2026-04-19T07:25:05.026Z</time></trkpt><trkpt lat="41.5807453" lon="1.9559099"><ele>388.0</ele><time>2026-04-19T07:25:06.026Z</time></trkpt><trkpt lat="41.5808626" lon="1.9556418"><ele>391.0</ele><time>2026-04-19T07:25:07.027Z</time></trkpt><trkpt lat="41.5809825" lon="1.9553723"><ele>394.0</ele><time>2026-04-19T07:25:08.027Z</time></trkpt><trkpt lat="41.5811024" lon="1.9551052"><ele>387.5</ele><time>2026-04-19T07:25:09.027Z</time></trkpt><trkpt lat="41.5812265" lon="1.954834"><ele>381.0</ele><time>2026-04-19T07:25:10.027Z</time></trkpt><trkpt lat="41.581343" lon="1.9545628"><ele>381.0</ele><time>2026-04-19T07:25:11.027Z</time></trkpt><trkpt lat="41.581466" lon="1.9543026"><ele>381.0</ele><time>2026-04-19T07:25:12.027Z</time></trkpt><trkpt lat="41.5815957" lon="1.9540439"><ele>387.5</ele><time>2026-04-19T07:25:13.026Z</time></trkpt><trkpt lat="41.5817314" lon="1.9537895"><ele>394.0</ele><time>2026-04-19T07:25:14.027Z</time></trkpt><trkpt lat="41.5818691" lon="1.9535393"><ele>394.5</ele><time>2026-04-19T07:25:15.026Z</time></trkpt><trkpt lat="41.5820106" lon="1.9532952"><ele>395.0</ele><time>2026-04-19T07:25:16.027Z</time></trkpt><trkpt lat="41.5821473" lon="1.9530672"><ele>395.0</ele><time>2026-04-19T07:25:17.026Z</time></trkpt><trkpt lat="41.5822735" lon="1.9528553"><ele>395.0</ele><time>2026-04-19T07:25:18.026Z</time></trkpt><trkpt lat="41.5823982" lon="1.9526571"><ele>395.0</ele><time>2026-04-19T07:25:19.027Z</time></trkpt><trkpt lat="41.5825168" lon="1.9524661"><ele>399.66666666666663</ele><time>2026-04-19T07:25:20.027Z</time></trkpt><trkpt lat="41.582634" lon="1.9522839"><ele>404.33333333333337</ele><time>2026-04-19T07:25:21.026Z</time></trkpt><trkpt lat="41.5827554" lon="1.9520999"><ele>409.0</ele><time>2026-04-19T07:25:22.026Z</time></trkpt><trkpt lat="41.5828867" lon="1.9519204"><ele>405.6666666666667</ele><time>2026-04-19T07:25:23.026Z</time></trkpt><trkpt lat="41.5830175" lon="1.9517449"><ele>402.33333333333337</ele><time>2026-04-19T07:25:24.027Z</time></trkpt><trkpt lat="41.5831468" lon="1.9515711"><ele>399.0</ele><time>2026-04-19T07:25:25.026Z</time></trkpt><trkpt lat="41.5832769" lon="1.9513898"><ele>399.0</ele><time>2026-04-19T07:25:26.027Z</time></trkpt><trkpt lat="41.5834067" lon="1.9512078"><ele>399.0</ele><time>2026-04-19T07:25:27.027Z</time></trkpt><trkpt lat="41.5835337" lon="1.9510238"><ele>399.0</ele><time>2026-04-19T07:25:28.026Z</time></trkpt><trkpt lat="41.5836457" lon="1.9508336"><ele>395.0</ele><time>2026-04-19T07:25:29.027Z</time></trkpt><trkpt lat="41.5837515" lon="1.9506257"><ele>391.0</ele><time>2026-04-19T07:25:30.026Z</time></trkpt><trkpt lat="41.5838491" lon="1.9504055"><ele>387.0</ele><time>2026-04-19T07:25:31.026Z</time></trkpt><trkpt lat="41.583933" lon="1.9501794"><ele>391.66666666666663</ele><time>2026-04-19T07:25:32.027Z</time></trkpt><trkpt lat="41.5840011" lon="1.9499432"><ele>396.3333333333333</ele><time>2026-04-19T07:25:33.027Z</time></trkpt><trkpt lat="41.5840564" lon="1.949704"><ele>401.0</ele><time>2026-04-19T07:25:34.027Z</time></trkpt><trkpt lat="41.5841017" lon="1.949456"><ele>403.66666666666663</ele><time>2026-04-19T07:25:35.027Z</time></trkpt><trkpt lat="41.5841373" lon="1.9492042"><ele>406.33333333333337</ele><time>2026-04-19T07:25:36.026Z</time></trkpt><trkpt lat="41.5841607" lon="1.9489484"><ele>409.0</ele><time>2026-04-19T07:25:37.027Z</time></trkpt><trkpt lat="41.5841676" lon="1.9486935"><ele>409.0</ele><time>2026-04-19T07:25:38.027Z</time></trkpt><trkpt lat="41.5841639" lon="1.948436"><ele>409.0</ele><time>2026-04-19T07:25:39.027Z</time></trkpt><trkpt lat="41.5841455" lon="1.948186"><ele>409.0</ele><time>2026-04-19T07:25:40.026Z</time></trkpt><trkpt lat="41.5841201" lon="1.9479541"><ele>410.33333333333337</ele><time>2026-04-19T07:25:41.027Z</time></trkpt><trkpt lat="41.5840848" lon="1.9477395"><ele>411.66666666666663</ele><time>2026-04-19T07:25:42.027Z</time></trkpt><trkpt lat="41.5840385" lon="1.9475423"><ele>413.0</ele><time>2026-04-19T07:25:43.026Z</time></trkpt><trkpt lat="41.5839882" lon="1.9473497"><ele>415.3333333333333</ele><time>2026-04-19T07:25:44.027Z</time></trkpt><trkpt lat="41.5839288" lon="1.9471641"><ele>417.66666666666663</ele><time>2026-04-19T07:25:45.027Z</time></trkpt><trkpt lat="41.5838613" lon="1.9469697"><ele>420.0</ele><time>2026-04-19T07:25:46.027Z</time></trkpt><trkpt lat="41.5837878" lon="1.9467673"><ele>421.66666666666663</ele><time>2026-04-19T07:25:47.027Z</time></trkpt><trkpt lat="41.5837091" lon="1.9465608"><ele>423.3333333333333</ele><time>2026-04-19T07:25:48.027Z</time></trkpt><trkpt lat="41.5836313" lon="1.9463488"><ele>425.0</ele><time>2026-04-19T07:25:49.026Z</time></trkpt><trkpt lat="41.5835524" lon="1.9461289"><ele>426.66666666666663</ele><time>2026-04-19T07:25:50.027Z</time></trkpt><trkpt lat="41.5834773" lon="1.9459127"><ele>428.33333333333337</ele><time>2026-04-19T07:25:51.027Z</time></trkpt><trkpt lat="41.5834065" lon="1.9456907"><ele>430.0</ele><time>2026-04-19T07:25:52.026Z</time></trkpt><trkpt lat="41.5833546" lon="1.9454598"><ele>430.6666666666667</ele><time>2026-04-19T07:25:53.027Z</time></trkpt><trkpt lat="41.5833205" lon="1.9452246"><ele>431.33333333333337</ele><time>2026-04-19T07:25:54.026Z</time></trkpt><trkpt lat="41.5832988" lon="1.9449871"><ele>432.0</ele><time>2026-04-19T07:25:55.027Z</time></trkpt><trkpt lat="41.5832966" lon="1.944748"><ele>432.66666666666663</ele><time>2026-04-19T07:25:56.027Z</time></trkpt><trkpt lat="41.5833029" lon="1.9445065"><ele>433.3333333333333</ele><time>2026-04-19T07:25:57.026Z</time></trkpt><trkpt lat="41.5833184" lon="1.9442733"><ele>434.0</ele><time>2026-04-19T07:25:58.027Z</time></trkpt><trkpt lat="41.5833353" lon="1.9440334"><ele>439.0</ele><time>2026-04-19T07:25:59.027Z</time></trkpt><trkpt lat="41.5833544" lon="1.943794"><ele>444.0</ele><time>2026-04-19T07:26:00.027Z</time></trkpt><trkpt lat="41.5834814" lon="1.942811"><ele>444.0</ele><time>2026-04-19T07:26:04.027Z</time></trkpt><trkpt lat="41.58352" lon="1.942556"><ele>444.0</ele><time>2026-04-19T07:26:05.027Z</time></trkpt><trkpt lat="41.5835531" lon="1.9423167"><ele>444.0</ele><time>2026-04-19T07:26:06.027Z</time></trkpt><trkpt lat="41.5835838" lon="1.9420742"><ele>444.0</ele><time>2026-04-19T07:26:07.026Z</time></trkpt><trkpt lat="41.5836209" lon="1.9418284"><ele>444.0</ele><time>2026-04-19T07:26:08.026Z</time></trkpt><trkpt lat="41.5836493" lon="1.9415811"><ele>444.0</ele><time>2026-04-19T07:26:09.027Z</time></trkpt><trkpt lat="41.5836766" lon="1.9413273"><ele>443.0</ele><time>2026-04-19T07:26:10.026Z</time></trkpt><trkpt lat="41.5837037" lon="1.9410741"><ele>442.0</ele><time>2026-04-19T07:26:11.026Z</time></trkpt><trkpt lat="41.5837298" lon="1.9408208"><ele>441.0</ele><time>2026-04-19T07:26:12.026Z</time></trkpt><trkpt lat="41.5837521" lon="1.9405617"><ele>439.33333333333337</ele><time>2026-04-19T07:26:13.027Z</time></trkpt><trkpt lat="41.5837701" lon="1.9403014"><ele>437.6666666666667</ele><time>2026-04-19T07:26:14.027Z</time></trkpt><trkpt lat="41.583786" lon="1.9400421"><ele>436.0</ele><time>2026-04-19T07:26:15.026Z</time></trkpt><trkpt lat="41.5838001" lon="1.9397862"><ele>435.0</ele><time>2026-04-19T07:26:16.027Z</time></trkpt><trkpt lat="41.5838087" lon="1.939534"><ele>434.0</ele><time>2026-04-19T07:26:17.027Z</time></trkpt><trkpt lat="41.5838146" lon="1.9392798"><ele>433.0</ele><time>2026-04-19T07:26:18.027Z</time></trkpt><trkpt lat="41.5838205" lon="1.9390228"><ele>430.6666666666667</ele><time>2026-04-19T07:26:19.026Z</time></trkpt><trkpt lat="41.5838222" lon="1.93877"><ele>428.33333333333337</ele><time>2026-04-19T07:26:20.027Z</time></trkpt><trkpt lat="41.5838249" lon="1.9385152"><ele>426.0</ele><time>2026-04-19T07:26:21.027Z</time></trkpt><trkpt lat="41.5838378" lon="1.9382572"><ele>423.0</ele><time>2026-04-19T07:26:22.027Z</time></trkpt><trkpt lat="41.5838544" lon="1.9379985"><ele>420.0</ele><time>2026-04-19T07:26:23.026Z</time></trkpt><trkpt lat="41.5838753" lon="1.9377422"><ele>417.0</ele><time>2026-04-19T07:26:24.027Z</time></trkpt><trkpt lat="41.5838982" lon="1.9374949"><ele>416.0</ele><time>2026-04-19T07:26:25.027Z</time></trkpt><trkpt lat="41.5839224" lon="1.9372469"><ele>415.0</ele><time>2026-04-19T07:26:26.027Z</time></trkpt><trkpt lat="41.5839542" lon="1.9370003"><ele>414.0</ele><time>2026-04-19T07:26:27.027Z</time></trkpt><trkpt lat="41.583994" lon="1.9367525"><ele>411.66666666666663</ele><time>2026-04-19T07:26:28.027Z</time></trkpt><trkpt lat="41.584041" lon="1.936505"><ele>409.3333333333333</ele><time>2026-04-19T07:26:29.027Z</time></trkpt><trkpt lat="41.5840924" lon="1.9362559"><ele>407.0</ele><time>2026-04-19T07:26:30.026Z</time></trkpt><trkpt lat="41.5841471" lon="1.9360086"><ele>404.66666666666663</ele><time>2026-04-19T07:26:31.027Z</time></trkpt><trkpt lat="41.5842042" lon="1.9357658"><ele>402.33333333333337</ele><time>2026-04-19T07:26:32.027Z</time></trkpt><trkpt lat="41.5842597" lon="1.9355297"><ele>400.0</ele><time>2026-04-19T07:26:33.027Z</time></trkpt><trkpt lat="41.5843146" lon="1.9352981"><ele>400.0</ele><time>2026-04-19T07:26:34.026Z</time></trkpt><trkpt lat="41.5843722" lon="1.9350589"><ele>400.0</ele><time>2026-04-19T07:26:35.026Z</time></trkpt><trkpt lat="41.5844282" lon="1.9348195"><ele>400.0</ele><time>2026-04-19T07:26:36.027Z</time></trkpt><trkpt lat="41.5844828" lon="1.9345828"><ele>400.0</ele><time>2026-04-19T07:26:37.026Z</time></trkpt><trkpt lat="41.5845383" lon="1.934355"><ele>400.0</ele><time>2026-04-19T07:26:38.026Z</time></trkpt><trkpt lat="41.5845939" lon="1.9341298"><ele>400.0</ele><time>2026-04-19T07:26:39.026Z</time></trkpt><trkpt lat="41.5846462" lon="1.9339039"><ele>400.0</ele><time>2026-04-19T07:26:40.027Z</time></trkpt><trkpt lat="41.5846942" lon="1.9336677"><ele>400.0</ele><time>2026-04-19T07:26:41.027Z</time></trkpt><trkpt lat="41.5847267" lon="1.9334185"><ele>400.0</ele><time>2026-04-19T07:26:42.027Z</time></trkpt><trkpt lat="41.5847433" lon="1.9331663"><ele>396.6666666666667</ele><time>2026-04-19T07:26:43.027Z</time></trkpt><trkpt lat="41.5847475" lon="1.9329088"><ele>393.33333333333337</ele><time>2026-04-19T07:26:44.026Z</time></trkpt><trkpt lat="41.5847361" lon="1.9326495"><ele>390.0</ele><time>2026-04-19T07:26:45.027Z</time></trkpt><trkpt lat="41.5847104" lon="1.9323884"><ele>389.0</ele><time>2026-04-19T07:26:46.027Z</time></trkpt><trkpt lat="41.5846695" lon="1.9321365"><ele>388.0</ele><time>2026-04-19T07:26:47.027Z</time></trkpt><trkpt lat="41.5846151" lon="1.9318854"><ele>387.0</ele><time>2026-04-19T07:26:48.026Z</time></trkpt><trkpt lat="41.584558" lon="1.9316295"><ele>380.6666666666667</ele><time>2026-04-19T07:26:49.026Z</time></trkpt><trkpt lat="41.5845021" lon="1.9313726"><ele>374.33333333333337</ele><time>2026-04-19T07:26:50.026Z</time></trkpt><trkpt lat="41.5844542" lon="1.9311172"><ele>368.0</ele><time>2026-04-19T07:26:51.027Z</time></trkpt><trkpt lat="41.5844245" lon="1.9308607"><ele>367.0</ele><time>2026-04-19T07:26:52.027Z</time></trkpt><trkpt lat="41.5844194" lon="1.9306078"><ele>366.0</ele><time>2026-04-19T07:26:53.027Z</time></trkpt><trkpt lat="41.5844275" lon="1.9303521"><ele>365.0</ele><time>2026-04-19T07:26:54.026Z</time></trkpt><trkpt lat="41.5844496" lon="1.9300931"><ele>362.6666666666667</ele><time>2026-04-19T07:26:55.027Z</time></trkpt><trkpt lat="41.58449" lon="1.9298387"><ele>360.3333333333333</ele><time>2026-04-19T07:26:56.026Z</time></trkpt><trkpt lat="41.5845379" lon="1.9295911"><ele>358.0</ele><time>2026-04-19T07:26:57.027Z</time></trkpt><trkpt lat="41.5845933" lon="1.9293491"><ele>362.3333333333333</ele><time>2026-04-19T07:26:58.027Z</time></trkpt><trkpt lat="41.5846485" lon="1.929107"><ele>366.6666666666667</ele><time>2026-04-19T07:26:59.027Z</time></trkpt><trkpt lat="41.5847029" lon="1.9288673"><ele>371.0</ele><time>2026-04-19T07:27:00.027Z</time></trkpt><trkpt lat="41.5847557" lon="1.9286239"><ele>366.0</ele><time>2026-04-19T07:27:01.027Z</time></trkpt><trkpt lat="41.5848108" lon="1.9283818"><ele>361.0</ele><time>2026-04-19T07:27:02.027Z</time></trkpt><trkpt lat="41.5848637" lon="1.9281454"><ele>356.0</ele><time>2026-04-19T07:27:03.027Z</time></trkpt><trkpt lat="41.5849156" lon="1.9279071"><ele>356.0</ele><time>2026-04-19T07:27:04.026Z</time></trkpt><trkpt lat="41.5849678" lon="1.9276646"><ele>356.0</ele><time>2026-04-19T07:27:05.026Z</time></trkpt><trkpt lat="41.5850214" lon="1.9274217"><ele>356.0</ele><time>2026-04-19T07:27:06.027Z</time></trkpt><trkpt lat="41.5850688" lon="1.9271723"><ele>354.0</ele><time>2026-04-19T07:27:07.027Z</time></trkpt><trkpt lat="41.5851184" lon="1.9269263"><ele>352.0</ele><time>2026-04-19T07:27:08.027Z</time></trkpt><trkpt lat="41.5851638" lon="1.9266838"><ele>350.0</ele><time>2026-04-19T07:27:09.027Z</time></trkpt><trkpt lat="41.5852095" lon="1.9264383"><ele>348.0</ele><time>2026-04-19T07:27:10.027Z</time></trkpt><trkpt lat="41.5852548" lon="1.9261934"><ele>346.0</ele><time>2026-04-19T07:27:11.027Z</time></trkpt><trkpt lat="41.5853003" lon="1.9259501"><ele>344.0</ele><time>2026-04-19T07:27:12.027Z</time></trkpt><trkpt lat="41.5853475" lon="1.925706"><ele>347.0</ele><time>2026-04-19T07:27:13.027Z</time></trkpt><trkpt lat="41.5853962" lon="1.9254608"><ele>350.0</ele><time>2026-04-19T07:27:14.026Z</time></trkpt><trkpt lat="41.5854434" lon="1.925216"><ele>353.0</ele><time>2026-04-19T07:27:15.026Z</time></trkpt><trkpt lat="41.5854887" lon="1.9249682"><ele>353.0</ele><time>2026-04-19T07:27:16.027Z</time></trkpt><trkpt lat="41.5855333" lon="1.9247192"><ele>353.0</ele><time>2026-04-19T07:27:17.027Z</time></trkpt><trkpt lat="41.5855789" lon="1.9244715"><ele>353.0</ele><time>2026-04-19T07:27:18.027Z</time></trkpt><trkpt lat="41.5856242" lon="1.9242264"><ele>346.6666666666667</ele><time>2026-04-19T07:27:19.027Z</time></trkpt><trkpt lat="41.5856682" lon="1.9239851"><ele>340.3333333333333</ele><time>2026-04-19T07:27:20.026Z</time></trkpt><trkpt lat="41.58571" lon="1.9237385"><ele>334.0</ele><time>2026-04-19T07:27:21.027Z</time></trkpt><trkpt lat="41.5857545" lon="1.9234928"><ele>328.0</ele><time>2026-04-19T07:27:22.026Z</time></trkpt><trkpt lat="41.585798" lon="1.923246"><ele>322.0</ele><time>2026-04-19T07:27:23.027Z</time></trkpt><trkpt lat="41.5858416" lon="1.923012"><ele>316.0</ele><time>2026-04-19T07:27:24.027Z</time></trkpt><trkpt lat="41.5858833" lon="1.9227821"><ele>314.66666666666663</ele><time>2026-04-19T07:27:25.026Z</time></trkpt><trkpt lat="41.5859261" lon="1.9225621"><ele>313.3333333333333</ele><time>2026-04-19T07:27:26.026Z</time></trkpt><trkpt lat="41.5859653" lon="1.9223462"><ele>312.0</ele><time>2026-04-19T07:27:27.027Z</time></trkpt><trkpt lat="41.5860046" lon="1.9221396"><ele>312.0</ele><time>2026-04-19T07:27:28.026Z</time></trkpt><trkpt lat="41.5860384" lon="1.9219387"><ele>312.0</ele><time>2026-04-19T07:27:29.027Z</time></trkpt><trkpt lat="41.5860691" lon="1.9217592"><ele>312.0</ele><time>2026-04-19T07:27:30.026Z</time></trkpt><trkpt lat="41.5860972" lon="1.9215952"><ele>312.0</ele><time>2026-04-19T07:27:31.027Z</time></trkpt><trkpt lat="41.5861206" lon="1.9214503"><ele>313.1666666666667</ele><time>2026-04-19T07:27:32.027Z</time></trkpt><trkpt lat="41.5861414" lon="1.921315"><ele>314.3333333333333</ele><time>2026-04-19T07:27:33.027Z</time></trkpt><trkpt lat="41.5861579" lon="1.9211921"><ele>315.5</ele><time>2026-04-19T07:27:34.027Z</time></trkpt><trkpt lat="41.586173" lon="1.9211056"><ele>316.66666666666663</ele><time>2026-04-19T07:27:35.027Z</time></trkpt><trkpt lat="41.5861879" lon="1.921003"><ele>317.8333333333333</ele><time>2026-04-19T07:27:37.027Z</time></trkpt><trkpt lat="41.5861679" lon="1.9208893"><ele>319.0</ele><time>2026-04-19T07:27:52.026Z</time></trkpt><trkpt lat="41.5860526" lon="1.9208452"><ele>319.0</ele><time>2026-04-19T07:27:54.027Z</time></trkpt><trkpt lat="41.5859755" lon="1.9208567"><ele>319.0</ele><time>2026-04-19T07:27:55.027Z</time></trkpt><trkpt lat="41.5858933" lon="1.9208655"><ele>319.0</ele><time>2026-04-19T07:27:56.027Z</time></trkpt><trkpt lat="41.5858064" lon="1.9208648"><ele>319.0</ele><time>2026-04-19T07:27:57.027Z</time></trkpt><trkpt lat="41.5857169" lon="1.9208623"><ele>319.0</ele><time>2026-04-19T07:27:58.027Z</time></trkpt><trkpt lat="41.5856239" lon="1.920878"><ele>319.0</ele><time>2026-04-19T07:27:59.027Z</time></trkpt><trkpt lat="41.5855332" lon="1.920912"><ele>319.0</ele><time>2026-04-19T07:28:00.027Z</time></trkpt><trkpt lat="41.5854509" lon="1.9209774"><ele>319.0</ele><time>2026-04-19T07:28:01.027Z</time></trkpt><trkpt lat="41.5853921" lon="1.9210715"><ele>319.0</ele><time>2026-04-19T07:28:02.026Z</time></trkpt><trkpt lat="41.5853413" lon="1.9211746"><ele>319.0</ele><time>2026-04-19T07:28:03.026Z</time></trkpt><trkpt lat="41.5853108" lon="1.9212914"><ele>319.0</ele><time>2026-04-19T07:28:04.027Z</time></trkpt><trkpt lat="41.5852845" lon="1.9214143"><ele>318.3333333333333</ele><time>2026-04-19T07:28:05.027Z</time></trkpt><trkpt lat="41.5852621" lon="1.9215254"><ele>317.66666666666663</ele><time>2026-04-19T07:28:06.027Z</time></trkpt><trkpt lat="41.5852454" lon="1.9216175"><ele>317.0</ele><time>2026-04-19T07:28:07.026Z</time></trkpt><trkpt lat="41.5852286" lon="1.9217262"><ele>316.3333333333333</ele><time>2026-04-19T07:28:09.026Z</time></trkpt><trkpt lat="41.5852125" lon="1.9218152"><ele>315.6666666666667</ele><time>2026-04-19T07:28:14.026Z</time></trkpt><trkpt lat="41.5853049" lon="1.9218973"><ele>315.0</ele><time>2026-04-19T07:28:16.027Z</time></trkpt><trkpt lat="41.5854537" lon="1.921963"><ele>314.4</ele><time>2026-04-19T07:28:18.027Z</time></trkpt><trkpt lat="41.5855349" lon="1.9219977"><ele>313.8</ele><time>2026-04-19T07:28:19.027Z</time></trkpt><trkpt lat="41.5856133" lon="1.9220313"><ele>313.2</ele><time>2026-04-19T07:28:20.026Z</time></trkpt><trkpt lat="41.5857048" lon="1.922073"><ele>312.6</ele><time>2026-04-19T07:28:21.026Z</time></trkpt><trkpt lat="41.5857999" lon="1.9221167"><ele>312.0</ele><time>2026-04-19T07:28:22.026Z</time></trkpt><trkpt lat="41.5858927" lon="1.9221632"><ele>312.0</ele><time>2026-04-19T07:28:23.026Z</time></trkpt><trkpt lat="41.5859903" lon="1.9222146"><ele>312.0</ele><time>2026-04-19T07:28:24.026Z</time></trkpt><trkpt lat="41.5860883" lon="1.922271"><ele>312.0</ele><time>2026-04-19T07:28:25.026Z</time></trkpt><trkpt lat="41.586197" lon="1.9223462"><ele>312.0</ele><time>2026-04-19T07:28:26.026Z</time></trkpt><trkpt lat="41.5863164" lon="1.9224082"><ele>315.25</ele><time>2026-04-19T07:28:27.026Z</time></trkpt><trkpt lat="41.5864513" lon="1.9224592"><ele>318.5</ele><time>2026-04-19T07:28:28.026Z</time></trkpt><trkpt lat="41.586583" lon="1.9224838"><ele>321.75</ele><time>2026-04-19T07:28:29.026Z</time></trkpt><trkpt lat="41.58673" lon="1.9225068"><ele>325.0</ele><time>2026-04-19T07:28:30.026Z</time></trkpt><trkpt lat="41.5868764" lon="1.9225256"><ele>324.0</ele><time>2026-04-19T07:28:31.026Z</time></trkpt><trkpt lat="41.5870253" lon="1.9225443"><ele>323.0</ele><time>2026-04-19T07:28:32.026Z</time></trkpt><trkpt lat="41.5871656" lon="1.9225596"><ele>322.0</ele><time>2026-04-19T07:28:33.027Z</time></trkpt><trkpt lat="41.5873074" lon="1.9225764"><ele>321.0</ele><time>2026-04-19T07:28:34.027Z</time></trkpt><trkpt lat="41.5874458" lon="1.9226163"><ele>321.0</ele><time>2026-04-19T07:28:35.027Z</time></trkpt><trkpt lat="41.5875686" lon="1.9226746"><ele>321.0</ele><time>2026-04-19T07:28:36.027Z</time></trkpt><trkpt lat="41.5876837" lon="1.9227216"><ele>321.0</ele><time>2026-04-19T07:28:37.027Z</time></trkpt><trkpt lat="41.5877917" lon="1.9227675"><ele>321.0</ele><time>2026-04-19T07:28:38.026Z</time></trkpt><trkpt lat="41.5878988" lon="1.9228171"><ele>322.75</ele><time>2026-04-19T07:28:39.027Z</time></trkpt><trkpt lat="41.5880061" lon="1.9228532"><ele>324.5</ele><time>2026-04-19T07:28:40.026Z</time></trkpt><trkpt lat="41.5881154" lon="1.9228848"><ele>326.25</ele><time>2026-04-19T07:28:41.027Z</time></trkpt><trkpt lat="41.5882212" lon="1.9229259"><ele>328.0</ele><time>2026-04-19T07:28:42.027Z</time></trkpt><trkpt lat="41.5883291" lon="1.9229876"><ele>328.0</ele><time>2026-04-19T07:28:43.026Z</time></trkpt><trkpt lat="41.5884206" lon="1.9230588"><ele>328.0</ele><time>2026-04-19T07:28:44.027Z</time></trkpt><trkpt lat="41.5885258" lon="1.9231258"><ele>328.0</ele><time>2026-04-19T07:28:45.027Z</time></trkpt><trkpt lat="41.5886256" lon="1.9231856"><ele>328.0</ele><time>2026-04-19T07:28:46.027Z</time></trkpt><trkpt lat="41.5887333" lon="1.9232189"><ele>328.0</ele><time>2026-04-19T07:28:47.027Z</time></trkpt><trkpt lat="41.5888387" lon="1.9232262"><ele>329.25</ele><time>2026-04-19T07:28:48.027Z</time></trkpt><trkpt lat="41.5889524" lon="1.9232057"><ele>330.5</ele><time>2026-04-19T07:28:49.026Z</time></trkpt><trkpt lat="41.5890591" lon="1.9231586"><ele>331.75</ele><time>2026-04-19T07:28:50.027Z</time></trkpt><trkpt lat="41.5891586" lon="1.9231002"><ele>333.0</ele><time>2026-04-19T07:28:51.026Z</time></trkpt><trkpt lat="41.5892596" lon="1.9230262"><ele>333.0</ele><time>2026-04-19T07:28:52.026Z</time></trkpt><trkpt lat="41.5893587" lon="1.9229493"><ele>333.0</ele><time>2026-04-19T07:28:53.027Z</time></trkpt><trkpt lat="41.5894566" lon="1.9228823"><ele>333.0</ele><time>2026-04-19T07:28:54.027Z</time></trkpt><trkpt lat="41.5895581" lon="1.9228415"><ele>333.0</ele><time>2026-04-19T07:28:55.027Z</time></trkpt><trkpt lat="41.5896617" lon="1.9228204"><ele>333.0</ele><time>2026-04-19T07:28:56.027Z</time></trkpt><trkpt lat="41.5897711" lon="1.9228134"><ele>333.0</ele><time>2026-04-19T07:28:57.026Z</time></trkpt><trkpt lat="41.5898779" lon="1.9228093"><ele>333.0</ele><time>2026-04-19T07:28:58.026Z</time></trkpt><trkpt lat="41.5899872" lon="1.9227994"><ele>333.0</ele><time>2026-04-19T07:28:59.027Z</time></trkpt><trkpt lat="41.5901004" lon="1.9227882"><ele>333.0</ele><time>2026-04-19T07:29:00.026Z</time></trkpt><trkpt lat="41.5902127" lon="1.9227789"><ele>333.0</ele><time>2026-04-19T07:29:01.027Z</time></trkpt><trkpt lat="41.5903233" lon="1.9227647"><ele>333.79999999999995</ele><time>2026-04-19T07:29:02.026Z</time></trkpt><trkpt lat="41.5904337" lon="1.9227583"><ele>334.6</ele><time>2026-04-19T07:29:03.027Z</time></trkpt><trkpt lat="41.5905428" lon="1.9227562"><ele>335.4</ele><time>2026-04-19T07:29:04.026Z</time></trkpt><trkpt lat="41.5906514" lon="1.9227644"><ele>336.20000000000005</ele><time>2026-04-19T07:29:05.027Z</time></trkpt><trkpt lat="41.590766" lon="1.9227956"><ele>337.0</ele><time>2026-04-19T07:29:06.027Z</time></trkpt><trkpt lat="41.5908821" lon="1.9228237"><ele>337.0</ele><time>2026-04-19T07:29:07.026Z</time></trkpt><trkpt lat="41.5910019" lon="1.9228413"><ele>337.0</ele><time>2026-04-19T07:29:08.027Z</time></trkpt><trkpt lat="41.59113" lon="1.9228524"><ele>337.0</ele><time>2026-04-19T07:29:09.027Z</time></trkpt><trkpt lat="41.591257" lon="1.9228411"><ele>337.0</ele><time>2026-04-19T07:29:10.027Z</time></trkpt><trkpt lat="41.5913816" lon="1.9228201"><ele>338.25</ele><time>2026-04-19T07:29:11.026Z</time></trkpt><trkpt lat="41.5915045" lon="1.9227979"><ele>339.5</ele><time>2026-04-19T07:29:12.026Z</time></trkpt><trkpt lat="41.5916276" lon="1.9227833"><ele>340.75</ele><time>2026-04-19T07:29:13.027Z</time></trkpt><trkpt lat="41.5917463" lon="1.9227802"><ele>342.0</ele><time>2026-04-19T07:29:14.026Z</time></trkpt><trkpt lat="41.5918657" lon="1.9227792"><ele>342.0</ele><time>2026-04-19T07:29:15.027Z</time></trkpt><trkpt lat="41.5919804" lon="1.9227904"><ele>342.0</ele><time>2026-04-19T07:29:16.027Z</time></trkpt><trkpt lat="41.5920996" lon="1.922827"><ele>342.0</ele><time>2026-04-19T07:29:17.026Z</time></trkpt><trkpt lat="41.5922086" lon="1.9228772"><ele>342.0</ele><time>2026-04-19T07:29:18.027Z</time></trkpt><trkpt lat="41.5923242" lon="1.9229118"><ele>345.25</ele><time>2026-04-19T07:29:19.027Z</time></trkpt><trkpt lat="41.5924438" lon="1.922911"><ele>348.5</ele><time>2026-04-19T07:29:20.027Z</time></trkpt><trkpt lat="41.5925674" lon="1.9228922"><ele>351.75</ele><time>2026-04-19T07:29:21.027Z</time></trkpt><trkpt lat="41.5926915" lon="1.9228692"><ele>355.0</ele><time>2026-04-19T07:29:22.027Z</time></trkpt><trkpt lat="41.5928155" lon="1.922838"><ele>357.0</ele><time>2026-04-19T07:29:23.027Z</time></trkpt><trkpt lat="41.5929375" lon="1.9228075"><ele>359.0</ele><time>2026-04-19T07:29:24.026Z</time></trkpt><trkpt lat="41.5930537" lon="1.9227825"><ele>361.0</ele><time>2026-04-19T07:29:25.027Z</time></trkpt><trkpt lat="41.5931735" lon="1.9227657"><ele>363.0</ele><time>2026-04-19T07:29:26.027Z</time></trkpt><trkpt lat="41.5932856" lon="1.9227322"><ele>363.0</ele><time>2026-04-19T07:29:27.027Z</time></trkpt><trkpt lat="41.5934001" lon="1.9227043"><ele>363.0</ele><time>2026-04-19T07:29:28.026Z</time></trkpt><trkpt lat="41.5935164" lon="1.9226757"><ele>363.0</ele><time>2026-04-19T07:29:29.027Z</time></trkpt><trkpt lat="41.593632" lon="1.9226546"><ele>363.0</ele><time>2026-04-19T07:29:30.026Z</time></trkpt><trkpt lat="41.593745" lon="1.9226345"><ele>364.59999999999997</ele><time>2026-04-19T07:29:31.027Z</time></trkpt><trkpt lat="41.5938554" lon="1.9226109"><ele>366.2</ele><time>2026-04-19T07:29:32.027Z</time></trkpt><trkpt lat="41.5939583" lon="1.9226073"><ele>367.8</ele><time>2026-04-19T07:29:33.027Z</time></trkpt><trkpt lat="41.5940677" lon="1.9226508"><ele>369.4</ele><time>2026-04-19T07:29:34.026Z</time></trkpt><trkpt lat="41.5941615" lon="1.9227279"><ele>371.0</ele><time>2026-04-19T07:29:35.027Z</time></trkpt><trkpt lat="41.5942472" lon="1.9228404"><ele>371.0</ele><time>2026-04-19T07:29:36.027Z</time></trkpt><trkpt lat="41.5943336" lon="1.9229394"><ele>371.0</ele><time>2026-04-19T07:29:37.027Z</time></trkpt><trkpt lat="41.5944406" lon="1.9230202"><ele>371.0</ele><time>2026-04-19T07:29:38.026Z</time></trkpt><trkpt lat="41.5945567" lon="1.923081"><ele>371.0</ele><time>2026-04-19T07:29:39.026Z</time></trkpt><trkpt lat="41.5946776" lon="1.9231447"><ele>371.4</ele><time>2026-04-19T07:29:40.027Z</time></trkpt><trkpt lat="41.594782" lon="1.9232284"><ele>371.8</ele><time>2026-04-19T07:29:41.027Z</time></trkpt><trkpt lat="41.5948582" lon="1.9233434"><ele>372.2</ele><time>2026-04-19T07:29:42.027Z</time></trkpt><trkpt lat="41.5949241" lon="1.9234413"><ele>372.59999999999997</ele><time>2026-04-19T07:29:43.027Z</time></trkpt><trkpt lat="41.5949752" lon="1.9235244"><ele>373.0</ele><time>2026-04-19T07:29:44.027Z</time></trkpt><trkpt lat="41.5950233" lon="1.9235874"><ele>373.0</ele><time>2026-04-19T07:29:45.027Z</time></trkpt><trkpt lat="41.5950802" lon="1.9236265"><ele>373.0</ele><time>2026-04-19T07:29:46.026Z</time></trkpt><trkpt lat="41.5951474" lon="1.9236434"><ele>373.0</ele><time>2026-04-19T07:29:47.027Z</time></trkpt><trkpt lat="41.595221" lon="1.9236235"><ele>373.0</ele><time>2026-04-19T07:29:48.026Z</time></trkpt><trkpt lat="41.5952935" lon="1.9235839"><ele>373.0</ele><time>2026-04-19T07:29:49.026Z</time></trkpt><trkpt lat="41.595367" lon="1.9235392"><ele>373.0</ele><time>2026-04-19T07:29:50.027Z</time></trkpt><trkpt lat="41.5954469" lon="1.923484"><ele>372.66666666666663</ele><time>2026-04-19T07:29:51.027Z</time></trkpt><trkpt lat="41.5955222" lon="1.9234365"><ele>372.3333333333333</ele><time>2026-04-19T07:29:52.027Z</time></trkpt><trkpt lat="41.5955996" lon="1.923389"><ele>372.0</ele><time>2026-04-19T07:29:53.026Z</time></trkpt><trkpt lat="41.5956833" lon="1.9233392"><ele>371.6666666666667</ele><time>2026-04-19T07:29:54.027Z</time></trkpt><trkpt lat="41.5957623" lon="1.9232926"><ele>371.33333333333337</ele><time>2026-04-19T07:29:55.027Z</time></trkpt><trkpt lat="41.5958387" lon="1.9232496"><ele>371.0</ele><time>2026-04-19T07:29:56.027Z</time></trkpt><trkpt lat="41.5959042" lon="1.9232174"><ele>374.6666666666667</ele><time>2026-04-19T07:29:57.027Z</time></trkpt><trkpt lat="41.595967" lon="1.9232017"><ele>378.33333333333337</ele><time>2026-04-19T07:29:58.027Z</time></trkpt><trkpt lat="41.5960356" lon="1.9232094"><ele>382.0</ele><time>2026-04-19T07:29:59.027Z</time></trkpt><trkpt lat="41.5961026" lon="1.9232569"><ele>385.6666666666667</ele><time>2026-04-19T07:30:00.027Z</time></trkpt><trkpt lat="41.5961716" lon="1.9233169"><ele>389.3333333333333</ele><time>2026-04-19T07:30:01.026Z</time></trkpt><trkpt lat="41.5962309" lon="1.9233744"><ele>393.0</ele><time>2026-04-19T07:30:02.026Z</time></trkpt><trkpt lat="41.596331" lon="1.9233716"><ele>394.4</ele><time>2026-04-19T07:30:03.026Z</time></trkpt><trkpt lat="41.5964213" lon="1.9233442"><ele>395.79999999999995</ele><time>2026-04-19T07:30:04.026Z</time></trkpt><trkpt lat="41.596507" lon="1.9233004"><ele>397.2</ele><time>2026-04-19T07:30:05.027Z</time></trkpt><trkpt lat="41.5965937" lon="1.9232681"><ele>398.6</ele><time>2026-04-19T07:30:06.027Z</time></trkpt><trkpt lat="41.5966916" lon="1.9232626"><ele>400.0</ele><time>2026-04-19T07:30:07.027Z</time></trkpt><trkpt lat="41.596788" lon="1.9232765"><ele>400.0</ele><time>2026-04-19T07:30:08.027Z</time></trkpt><trkpt lat="41.5968788" lon="1.9233154"><ele>400.0</ele><time>2026-04-19T07:30:09.026Z</time></trkpt><trkpt lat="41.5969783" lon="1.9233423"><ele>400.0</ele><time>2026-04-19T07:30:10.027Z</time></trkpt><trkpt lat="41.5970927" lon="1.9233461"><ele>400.0</ele><time>2026-04-19T07:30:11.027Z</time></trkpt><trkpt lat="41.5972054" lon="1.9233148"><ele>400.0</ele><time>2026-04-19T07:30:12.027Z</time></trkpt><trkpt lat="41.5973089" lon="1.9232689"><ele>401.0</ele><time>2026-04-19T07:30:13.027Z</time></trkpt><trkpt lat="41.5974094" lon="1.9232092"><ele>402.0</ele><time>2026-04-19T07:30:14.027Z</time></trkpt><trkpt lat="41.5975133" lon="1.9231504"><ele>403.0</ele><time>2026-04-19T07:30:15.027Z</time></trkpt><trkpt lat="41.5976224" lon="1.9230959"><ele>404.0</ele><time>2026-04-19T07:30:16.027Z</time></trkpt><trkpt lat="41.5977338" lon="1.9230387"><ele>401.75</ele><time>2026-04-19T07:30:17.027Z</time></trkpt><trkpt lat="41.5978437" lon="1.9229879"><ele>399.5</ele><time>2026-04-19T07:30:18.027Z</time></trkpt><trkpt lat="41.5979496" lon="1.9229312"><ele>397.25</ele><time>2026-04-19T07:30:19.027Z</time></trkpt><trkpt lat="41.5980498" lon="1.9228744"><ele>395.0</ele><time>2026-04-19T07:30:20.027Z</time></trkpt><trkpt lat="41.5981467" lon="1.9227986"><ele>395.0</ele><time>2026-04-19T07:30:21.027Z</time></trkpt><trkpt lat="41.5982199" lon="1.9226977"><ele>395.0</ele><time>2026-04-19T07:30:22.026Z</time></trkpt><trkpt lat="41.5982866" lon="1.9225799"><ele>395.0</ele><time>2026-04-19T07:30:23.027Z</time></trkpt><trkpt lat="41.5983548" lon="1.9224631"><ele>395.0</ele><time>2026-04-19T07:30:24.027Z</time></trkpt><trkpt lat="41.5984239" lon="1.9223478"><ele>395.0</ele><time>2026-04-19T07:30:25.026Z</time></trkpt><trkpt lat="41.5984912" lon="1.9222404"><ele>398.0</ele><time>2026-04-19T07:30:26.026Z</time></trkpt><trkpt lat="41.5985628" lon="1.9221413"><ele>401.0</ele><time>2026-04-19T07:30:27.026Z</time></trkpt><trkpt lat="41.5986394" lon="1.9220543"><ele>404.0</ele><time>2026-04-19T07:30:28.027Z</time></trkpt><trkpt lat="41.5987186" lon="1.9219822"><ele>407.0</ele><time>2026-04-19T07:30:29.027Z</time></trkpt><trkpt lat="41.5988039" lon="1.9219138"><ele>410.0</ele><time>2026-04-19T07:30:30.027Z</time></trkpt><trkpt lat="41.5988943" lon="1.9218521"><ele>410.0</ele><time>2026-04-19T07:30:31.027Z</time></trkpt><trkpt lat="41.5989849" lon="1.9218024"><ele>410.0</ele><time>2026-04-19T07:30:32.026Z</time></trkpt><trkpt lat="41.5990744" lon="1.9217576"><ele>410.0</ele><time>2026-04-19T07:30:33.027Z</time></trkpt><trkpt lat="41.5991552" lon="1.9217245"><ele>410.0</ele><time>2026-04-19T07:30:34.027Z</time></trkpt><trkpt lat="41.5992187" lon="1.9216862"><ele>410.0</ele><time>2026-04-19T07:30:35.026Z</time></trkpt><trkpt lat="41.5993135" lon="1.9216007"><ele>410.8571428571429</ele><time>2026-04-19T07:30:37.026Z</time></trkpt><trkpt lat="41.5993641" lon="1.9215473"><ele>411.71428571428567</ele><time>2026-04-19T07:30:38.027Z</time></trkpt><trkpt lat="41.5994168" lon="1.9214864"><ele>412.57142857142856</ele><time>2026-04-19T07:30:39.027Z</time></trkpt><trkpt lat="41.5994563" lon="1.9214125"><ele>413.42857142857144</ele><time>2026-04-19T07:30:40.026Z</time></trkpt><trkpt lat="41.5994784" lon="1.9213217"><ele>414.28571428571433</ele><time>2026-04-19T07:30:41.027Z</time></trkpt><trkpt lat="41.5994869" lon="1.9212217"><ele>415.1428571428571</ele><time>2026-04-19T07:30:42.026Z</time></trkpt><trkpt lat="41.5994817" lon="1.9211195"><ele>416.0</ele><time>2026-04-19T07:30:43.027Z</time></trkpt><trkpt lat="41.5994845" lon="1.9210219"><ele>416.99999999999994</ele><time>2026-04-19T07:30:44.027Z</time></trkpt><trkpt lat="41.5995116" lon="1.9209343"><ele>418.0</ele><time>2026-04-19T07:30:45.027Z</time></trkpt><trkpt lat="41.5995625" lon="1.9208769"><ele>419.0</ele><time>2026-04-19T07:30:46.027Z</time></trkpt><trkpt lat="41.5996937" lon="1.9208874"><ele>420.0</ele><time>2026-04-19T07:30:48.027Z</time></trkpt><trkpt lat="41.5997655" lon="1.9209241"><ele>420.99999999999994</ele><time>2026-04-19T07:30:49.027Z</time></trkpt><trkpt lat="41.5998425" lon="1.9209532"><ele>422.0</ele><time>2026-04-19T07:30:50.027Z</time></trkpt><trkpt lat="41.5999281" lon="1.9209644"><ele>422.0</ele><time>2026-04-19T07:30:51.027Z</time></trkpt><trkpt lat="41.6000144" lon="1.9209438"><ele>422.0</ele><time>2026-04-19T07:30:52.027Z</time></trkpt><trkpt lat="41.6001097" lon="1.9209155"><ele>422.0</ele><time>2026-04-19T07:30:53.027Z</time></trkpt><trkpt lat="41.60021" lon="1.9208747"><ele>422.0</ele><time>2026-04-19T07:30:54.027Z</time></trkpt><trkpt lat="41.6003133" lon="1.9208338"><ele>422.0</ele><time>2026-04-19T07:30:55.027Z</time></trkpt><trkpt lat="41.600415" lon="1.9207856"><ele>423.0</ele><time>2026-04-19T07:30:56.027Z</time></trkpt><trkpt lat="41.6005159" lon="1.9207364"><ele>424.0</ele><time>2026-04-19T07:30:57.027Z</time></trkpt><trkpt lat="41.6006126" lon="1.9206813"><ele>425.00000000000006</ele><time>2026-04-19T07:30:58.026Z</time></trkpt><trkpt lat="41.6007112" lon="1.9206109"><ele>426.0</ele><time>2026-04-19T07:30:59.027Z</time></trkpt><trkpt lat="41.6008068" lon="1.9205238"><ele>427.0</ele><time>2026-04-19T07:31:00.027Z</time></trkpt><trkpt lat="41.6008984" lon="1.9204288"><ele>427.0</ele><time>2026-04-19T07:31:01.026Z</time></trkpt><trkpt lat="41.6009867" lon="1.9203215"><ele>427.0</ele><time>2026-04-19T07:31:02.027Z</time></trkpt><trkpt lat="41.6010733" lon="1.9202108"><ele>427.0</ele><time>2026-04-19T07:31:03.026Z</time></trkpt><trkpt lat="41.6011541" lon="1.9200974"><ele>427.0</ele><time>2026-04-19T07:31:04.027Z</time></trkpt><trkpt lat="41.6012356" lon="1.9199841"><ele>427.0</ele><time>2026-04-19T07:31:05.027Z</time></trkpt><trkpt lat="41.6013187" lon="1.9198733"><ele>427.00000000000006</ele><time>2026-04-19T07:31:06.026Z</time></trkpt><trkpt lat="41.6013943" lon="1.9197726"><ele>427.00000000000006</ele><time>2026-04-19T07:31:07.026Z</time></trkpt><trkpt lat="41.6014652" lon="1.9196797"><ele>427.0</ele><time>2026-04-19T07:31:08.027Z</time></trkpt><trkpt lat="41.6015283" lon="1.9195795"><ele>427.0</ele><time>2026-04-19T07:31:09.027Z</time></trkpt><trkpt lat="41.601582" lon="1.919487"><ele>427.00000000000006</ele><time>2026-04-19T07:31:10.027Z</time></trkpt><trkpt lat="41.6016146" lon="1.9193927"><ele>427.0</ele><time>2026-04-19T07:31:11.027Z</time></trkpt><trkpt lat="41.6016368" lon="1.9192932"><ele>427.0</ele><time>2026-04-19T07:31:12.027Z</time></trkpt><trkpt lat="41.601645" lon="1.919205"><ele>427.0</ele><time>2026-04-19T07:31:13.026Z</time></trkpt><trkpt lat="41.6016611" lon="1.9190331"><ele>427.00000000000006</ele><time>2026-04-19T07:31:15.026Z</time></trkpt><trkpt lat="41.6016503" lon="1.9189321"><ele>427.0</ele><time>2026-04-19T07:31:16.026Z</time></trkpt><trkpt lat="41.6016262" lon="1.918829"><ele>426.33333333333337</ele><time>2026-04-19T07:31:17.027Z</time></trkpt><trkpt lat="41.6016065" lon="1.9187246"><ele>425.6666666666667</ele><time>2026-04-19T07:31:18.026Z</time></trkpt><trkpt lat="41.601611" lon="1.918612"><ele>425.0</ele><time>2026-04-19T07:31:19.026Z</time></trkpt><trkpt lat="41.6016425" lon="1.9185226"><ele>424.33333333333337</ele><time>2026-04-19T07:31:20.026Z</time></trkpt><trkpt lat="41.601704" lon="1.9184549"><ele>423.6666666666667</ele><time>2026-04-19T07:31:21.026Z</time></trkpt><trkpt lat="41.6017814" lon="1.9184097"><ele>423.0</ele><time>2026-04-19T07:31:22.027Z</time></trkpt><trkpt lat="41.6018687" lon="1.9183636"><ele>422.4</ele><time>2026-04-19T07:31:23.027Z</time></trkpt><trkpt lat="41.60196" lon="1.9183003"><ele>421.79999999999995</ele><time>2026-04-19T07:31:24.026Z</time></trkpt><trkpt lat="41.6020356" lon="1.9182191"><ele>421.2</ele><time>2026-04-19T07:31:25.026Z</time></trkpt><trkpt lat="41.602109" lon="1.9181195"><ele>420.6</ele><time>2026-04-19T07:31:26.027Z</time></trkpt><trkpt lat="41.602175" lon="1.9180051"><ele>420.0</ele><time>2026-04-19T07:31:27.027Z</time></trkpt><trkpt lat="41.6022425" lon="1.9178745"><ele>420.0</ele><time>2026-04-19T07:31:28.027Z</time></trkpt><trkpt lat="41.6023098" lon="1.917741"><ele>420.0</ele><time>2026-04-19T07:31:29.027Z</time></trkpt><trkpt lat="41.6023731" lon="1.9176142"><ele>420.0</ele><time>2026-04-19T07:31:30.026Z</time></trkpt><trkpt lat="41.6024348" lon="1.9174974"><ele>420.0</ele><time>2026-04-19T07:31:31.027Z</time></trkpt><trkpt lat="41.6025031" lon="1.9173962"><ele>420.0</ele><time>2026-04-19T07:31:32.027Z</time></trkpt><trkpt lat="41.6025846" lon="1.9173338"><ele>418.0</ele><time>2026-04-19T07:31:33.027Z</time></trkpt><trkpt lat="41.6026729" lon="1.9173216"><ele>416.0</ele><time>2026-04-19T07:31:34.027Z</time></trkpt><trkpt lat="41.6027582" lon="1.9173661"><ele>414.0</ele><time>2026-04-19T07:31:35.027Z</time></trkpt><trkpt lat="41.6028395" lon="1.9174458"><ele>412.0</ele><time>2026-04-19T07:31:36.026Z</time></trkpt><trkpt lat="41.6029005" lon="1.9175449"><ele>410.0</ele><time>2026-04-19T07:31:37.027Z</time></trkpt><trkpt lat="41.602948" lon="1.9176576"><ele>409.4</ele><time>2026-04-19T07:31:38.027Z</time></trkpt><trkpt lat="41.6029736" lon="1.917788"><ele>408.8</ele><time>2026-04-19T07:31:39.027Z</time></trkpt><trkpt lat="41.6029843" lon="1.9179215"><ele>408.20000000000005</ele><time>2026-04-19T07:31:40.026Z</time></trkpt><trkpt lat="41.6030059" lon="1.9180481"><ele>407.6</ele><time>2026-04-19T07:31:41.027Z</time></trkpt><trkpt lat="41.6030393" lon="1.9181611"><ele>407.0</ele><time>2026-04-19T07:31:42.027Z</time></trkpt><trkpt lat="41.6030947" lon="1.9182621"><ele>407.0</ele><time>2026-04-19T07:31:43.027Z</time></trkpt><trkpt lat="41.6031879" lon="1.9183522"><ele>407.0</ele><time>2026-04-19T07:31:44.026Z</time></trkpt><trkpt lat="41.6032926" lon="1.9184303"><ele>407.0</ele><time>2026-04-19T07:31:45.027Z</time></trkpt><trkpt lat="41.6033958" lon="1.9184984"><ele>407.0</ele><time>2026-04-19T07:31:46.026Z</time></trkpt><trkpt lat="41.6035056" lon="1.918549"><ele>407.25</ele><time>2026-04-19T07:31:47.026Z</time></trkpt><trkpt lat="41.6036202" lon="1.9185741"><ele>407.5</ele><time>2026-04-19T07:31:48.027Z</time></trkpt><trkpt lat="41.6037428" lon="1.9185685"><ele>407.75</ele><time>2026-04-19T07:31:49.027Z</time></trkpt><trkpt lat="41.6038636" lon="1.9185472"><ele>408.0</ele><time>2026-04-19T07:31:50.027Z</time></trkpt><trkpt lat="41.6039802" lon="1.91854"><ele>408.0</ele><time>2026-04-19T07:31:51.026Z</time></trkpt><trkpt lat="41.6040853" lon="1.918552"><ele>408.0</ele><time>2026-04-19T07:31:52.027Z</time></trkpt><trkpt lat="41.60418" lon="1.918606"><ele>408.0</ele><time>2026-04-19T07:31:53.026Z</time></trkpt><trkpt lat="41.6042737" lon="1.9186609"><ele>408.0</ele><time>2026-04-19T07:31:54.026Z</time></trkpt><trkpt lat="41.6043651" lon="1.918684"><ele>408.0</ele><time>2026-04-19T07:31:55.027Z</time></trkpt><trkpt lat="41.6044494" lon="1.9186747"><ele>408.5</ele><time>2026-04-19T07:31:56.027Z</time></trkpt><trkpt lat="41.6045336" lon="1.918635"><ele>409.0</ele><time>2026-04-19T07:31:57.026Z</time></trkpt><trkpt lat="41.6046037" lon="1.9185523"><ele>409.5</ele><time>2026-04-19T07:31:58.027Z</time></trkpt><trkpt lat="41.6046482" lon="1.9184448"><ele>410.0</ele><time>2026-04-19T07:31:59.026Z</time></trkpt><trkpt lat="41.6046744" lon="1.9183355"><ele>410.5</ele><time>2026-04-19T07:32:00.027Z</time></trkpt><trkpt lat="41.604699" lon="1.9182438"><ele>411.0</ele><time>2026-04-19T07:32:01.026Z</time></trkpt><trkpt lat="41.6047405" lon="1.9181776"><ele>410.0</ele><time>2026-04-19T07:32:02.027Z</time></trkpt><trkpt lat="41.604807" lon="1.9181473"><ele>409.0</ele><time>2026-04-19T07:32:03.027Z</time></trkpt><trkpt lat="41.6048938" lon="1.9181472"><ele>408.0</ele><time>2026-04-19T07:32:04.027Z</time></trkpt><trkpt lat="41.6049972" lon="1.9181598"><ele>407.0</ele><time>2026-04-19T07:32:05.027Z</time></trkpt><trkpt lat="41.6050908" lon="1.9181833"><ele>406.0</ele><time>2026-04-19T07:32:06.027Z</time></trkpt><trkpt lat="41.6051764" lon="1.9182325"><ele>405.0</ele><time>2026-04-19T07:32:07.027Z</time></trkpt><trkpt lat="41.6052566" lon="1.9183037"><ele>405.6</ele><time>2026-04-19T07:32:08.027Z</time></trkpt><trkpt lat="41.6053325" lon="1.9183693"><ele>406.2</ele><time>2026-04-19T07:32:09.027Z</time></trkpt><trkpt lat="41.6054089" lon="1.9184294"><ele>406.79999999999995</ele><time>2026-04-19T07:32:10.026Z</time></trkpt><trkpt lat="41.6054947" lon="1.9184726"><ele>407.4</ele><time>2026-04-19T07:32:11.027Z</time></trkpt><trkpt lat="41.6055841" lon="1.9185002"><ele>408.0</ele><time>2026-04-19T07:32:12.027Z</time></trkpt><trkpt lat="41.6056861" lon="1.9185182"><ele>408.0</ele><time>2026-04-19T07:32:13.026Z</time></trkpt><trkpt lat="41.6057918" lon="1.9185289"><ele>408.0</ele><time>2026-04-19T07:32:14.027Z</time></trkpt><trkpt lat="41.6059077" lon="1.9185491"><ele>408.0</ele><time>2026-04-19T07:32:15.027Z</time></trkpt><trkpt lat="41.6060228" lon="1.9185682"><ele>408.0</ele><time>2026-04-19T07:32:16.027Z</time></trkpt><trkpt lat="41.606128" lon="1.9185848"><ele>408.0</ele><time>2026-04-19T07:32:17.027Z</time></trkpt><trkpt lat="41.6062326" lon="1.9186043"><ele>407.59999999999997</ele><time>2026-04-19T07:32:18.027Z</time></trkpt><trkpt lat="41.606324" lon="1.9186187"><ele>407.2</ele><time>2026-04-19T07:32:19.027Z</time></trkpt><trkpt lat="41.6064159" lon="1.9186199"><ele>406.8</ele><time>2026-04-19T07:32:20.027Z</time></trkpt><trkpt lat="41.6065062" lon="1.9186072"><ele>406.4</ele><time>2026-04-19T07:32:21.027Z</time></trkpt><trkpt lat="41.6065861" lon="1.9185543"><ele>406.0</ele><time>2026-04-19T07:32:22.027Z</time></trkpt><trkpt lat="41.6066488" lon="1.9184588"><ele>403.8</ele><time>2026-04-19T07:32:23.027Z</time></trkpt><trkpt lat="41.6067119" lon="1.9183683"><ele>401.6</ele><time>2026-04-19T07:32:24.026Z</time></trkpt><trkpt lat="41.6067751" lon="1.9182782"><ele>399.4</ele><time>2026-04-19T07:32:25.026Z</time></trkpt><trkpt lat="41.6068316" lon="1.9181816"><ele>397.2</ele><time>2026-04-19T07:32:26.027Z</time></trkpt><trkpt lat="41.6068754" lon="1.9180732"><ele>395.0</ele><time>2026-04-19T07:32:27.027Z</time></trkpt><trkpt lat="41.6068934" lon="1.917955"><ele>395.0</ele><time>2026-04-19T07:32:28.027Z</time></trkpt><trkpt lat="41.6068784" lon="1.9178179"><ele>395.0</ele><time>2026-04-19T07:32:29.027Z</time></trkpt><trkpt lat="41.6068441" lon="1.9176819"><ele>395.0</ele><time>2026-04-19T07:32:30.027Z</time></trkpt><trkpt lat="41.6068055" lon="1.9175417"><ele>395.0</ele><time>2026-04-19T07:32:31.027Z</time></trkpt><trkpt lat="41.6067685" lon="1.9173965"><ele>395.0</ele><time>2026-04-19T07:32:32.026Z</time></trkpt><trkpt lat="41.6067317" lon="1.9172571"><ele>393.8333333333333</ele><time>2026-04-19T07:32:33.026Z</time></trkpt><trkpt lat="41.6066971" lon="1.917121"><ele>392.66666666666663</ele><time>2026-04-19T07:32:34.027Z</time></trkpt><trkpt lat="41.6066762" lon="1.9169881"><ele>391.5</ele><time>2026-04-19T07:32:35.027Z</time></trkpt><trkpt lat="41.6066777" lon="1.9168684"><ele>390.33333333333337</ele><time>2026-04-19T07:32:36.026Z</time></trkpt><trkpt lat="41.606706" lon="1.9167725"><ele>389.1666666666667</ele><time>2026-04-19T07:32:37.026Z</time></trkpt><trkpt lat="41.6067705" lon="1.9167265"><ele>388.0</ele><time>2026-04-19T07:32:38.026Z</time></trkpt><trkpt lat="41.6068557" lon="1.9167236"><ele>388.0</ele><time>2026-04-19T07:32:39.027Z</time></trkpt><trkpt lat="41.6069441" lon="1.9167612"><ele>388.0</ele><time>2026-04-19T07:32:40.027Z</time></trkpt><trkpt lat="41.6070348" lon="1.9168254"><ele>388.0</ele><time>2026-04-19T07:32:41.026Z</time></trkpt><trkpt lat="41.6071388" lon="1.9168967"><ele>388.0</ele><time>2026-04-19T07:32:42.027Z</time></trkpt><trkpt lat="41.6072414" lon="1.9169616"><ele>388.0</ele><time>2026-04-19T07:32:43.027Z</time></trkpt><trkpt lat="41.6073399" lon="1.9170173"><ele>388.79999999999995</ele><time>2026-04-19T07:32:44.027Z</time></trkpt><trkpt lat="41.6074445" lon="1.9170435"><ele>389.6</ele><time>2026-04-19T07:32:45.026Z</time></trkpt><trkpt lat="41.6075489" lon="1.9170463"><ele>390.4</ele><time>2026-04-19T07:32:46.027Z</time></trkpt><trkpt lat="41.6076509" lon="1.9169756"><ele>391.20000000000005</ele><time>2026-04-19T07:32:47.027Z</time></trkpt><trkpt lat="41.6077306" lon="1.9168924"><ele>392.0</ele><time>2026-04-19T07:32:48.027Z</time></trkpt><trkpt lat="41.6077787" lon="1.91678"><ele>389.40000000000003</ele><time>2026-04-19T07:32:49.027Z</time></trkpt><trkpt lat="41.6077914" lon="1.9166512"><ele>386.8</ele><time>2026-04-19T07:32:50.027Z</time></trkpt><trkpt lat="41.6077733" lon="1.9165237"><ele>384.2</ele><time>2026-04-19T07:32:51.026Z</time></trkpt><trkpt lat="41.6077445" lon="1.9163975"><ele>381.6</ele><time>2026-04-19T07:32:52.026Z</time></trkpt><trkpt lat="41.6077168" lon="1.9162766"><ele>379.0</ele><time>2026-04-19T07:32:53.027Z</time></trkpt><trkpt lat="41.6077069" lon="1.9161586"><ele>379.0</ele><time>2026-04-19T07:32:54.027Z</time></trkpt><trkpt lat="41.6077302" lon="1.9160561"><ele>379.0</ele><time>2026-04-19T07:32:55.027Z</time></trkpt><trkpt lat="41.6077762" lon="1.9159728"><ele>379.0</ele><time>2026-04-19T07:32:56.026Z</time></trkpt><trkpt lat="41.6078335" lon="1.9158915"><ele>379.0</ele><time>2026-04-19T07:32:57.026Z</time></trkpt><trkpt lat="41.6078974" lon="1.915797"><ele>379.0</ele><time>2026-04-19T07:32:58.027Z</time></trkpt><trkpt lat="41.6079642" lon="1.9156978"><ele>379.0</ele><time>2026-04-19T07:32:59.026Z</time></trkpt><trkpt lat="41.6080364" lon="1.915593"><ele>379.0</ele><time>2026-04-19T07:33:00.026Z</time></trkpt><trkpt lat="41.6081068" lon="1.9154938"><ele>379.0</ele><time>2026-04-19T07:33:01.027Z</time></trkpt><trkpt lat="41.6081825" lon="1.9154211"><ele>379.0</ele><time>2026-04-19T07:33:02.027Z</time></trkpt><trkpt lat="41.6082702" lon="1.9153926"><ele>379.0</ele><time>2026-04-19T07:33:03.026Z</time></trkpt><trkpt lat="41.6083647" lon="1.9154016"><ele>379.0</ele><time>2026-04-19T07:33:04.027Z</time></trkpt><trkpt lat="41.6084681" lon="1.915429"><ele>379.0</ele><time>2026-04-19T07:33:05.026Z</time></trkpt><trkpt lat="41.6085687" lon="1.9154553"><ele>379.0</ele><time>2026-04-19T07:33:06.026Z</time></trkpt><trkpt lat="41.6086693" lon="1.9154848"><ele>379.0</ele><time>2026-04-19T07:33:07.027Z</time></trkpt><trkpt lat="41.6087731" lon="1.9155167"><ele>379.0</ele><time>2026-04-19T07:33:08.027Z</time></trkpt><trkpt lat="41.6088682" lon="1.915545"><ele>379.0</ele><time>2026-04-19T07:33:09.027Z</time></trkpt><trkpt lat="41.6089528" lon="1.9155705"><ele>379.16666666666663</ele><time>2026-04-19T07:33:10.026Z</time></trkpt><trkpt lat="41.6090353" lon="1.9155983"><ele>379.3333333333333</ele><time>2026-04-19T07:33:11.026Z</time></trkpt><trkpt lat="41.6091126" lon="1.9156162"><ele>379.5</ele><time>2026-04-19T07:33:12.027Z</time></trkpt><trkpt lat="41.6091846" lon="1.9156075"><ele>379.6666666666667</ele><time>2026-04-19T07:33:13.026Z</time></trkpt><trkpt lat="41.6092518" lon="1.915561"><ele>379.83333333333337</ele><time>2026-04-19T07:33:14.026Z</time></trkpt><trkpt lat="41.6092968" lon="1.9154808"><ele>380.0</ele><time>2026-04-19T07:33:15.027Z</time></trkpt><trkpt lat="41.6093095" lon="1.9153785"><ele>380.0</ele><time>2026-04-19T07:33:16.027Z</time></trkpt><trkpt lat="41.6092968" lon="1.9152683"><ele>380.0</ele><time>2026-04-19T07:33:17.027Z</time></trkpt><trkpt lat="41.6092568" lon="1.9151462"><ele>380.0</ele><time>2026-04-19T07:33:18.027Z</time></trkpt><trkpt lat="41.6092325" lon="1.9150102"><ele>380.0</ele><time>2026-04-19T07:33:19.026Z</time></trkpt><trkpt lat="41.6092111" lon="1.914849"><ele>380.0</ele><time>2026-04-19T07:33:20.027Z</time></trkpt><trkpt lat="41.6091797" lon="1.9146883"><ele>378.5</ele><time>2026-04-19T07:33:21.026Z</time></trkpt><trkpt lat="41.6091279" lon="1.9145439"><ele>377.0</ele><time>2026-04-19T07:33:22.026Z</time></trkpt><trkpt lat="41.6090532" lon="1.9144158"><ele>375.5</ele><time>2026-04-19T07:33:23.027Z</time></trkpt><trkpt lat="41.6089578" lon="1.9142997"><ele>374.0</ele><time>2026-04-19T07:33:24.026Z</time></trkpt><trkpt lat="41.6088539" lon="1.9141824"><ele>374.0</ele><time>2026-04-19T07:33:25.026Z</time></trkpt><trkpt lat="41.6087591" lon="1.9140685"><ele>374.0</ele><time>2026-04-19T07:33:26.027Z</time></trkpt><trkpt lat="41.6086778" lon="1.9139448"><ele>374.0</ele><time>2026-04-19T07:33:27.027Z</time></trkpt><trkpt lat="41.6086371" lon="1.9137944"><ele>374.0</ele><time>2026-04-19T07:33:28.027Z</time></trkpt><trkpt lat="41.6085999" lon="1.9136268"><ele>372.5</ele><time>2026-04-19T07:33:29.027Z</time></trkpt><trkpt lat="41.6085632" lon="1.9134631"><ele>371.0</ele><time>2026-04-19T07:33:30.026Z</time></trkpt><trkpt lat="41.6085246" lon="1.9133007"><ele>369.5</ele><time>2026-04-19T07:33:31.027Z</time></trkpt><trkpt lat="41.6084845" lon="1.9131325"><ele>368.0</ele><time>2026-04-19T07:33:32.027Z</time></trkpt><trkpt lat="41.6084465" lon="1.9129699"><ele>368.0</ele><time>2026-04-19T07:33:33.026Z</time></trkpt><trkpt lat="41.6084165" lon="1.9128067"><ele>368.0</ele><time>2026-04-19T07:33:34.027Z</time></trkpt><trkpt lat="41.6084038" lon="1.9126413"><ele>368.0</ele><time>2026-04-19T07:33:35.027Z</time></trkpt><trkpt lat="41.6084104" lon="1.9124824"><ele>368.0</ele><time>2026-04-19T07:33:36.027Z</time></trkpt><trkpt lat="41.6084554" lon="1.9123447"><ele>367.59999999999997</ele><time>2026-04-19T07:33:37.026Z</time></trkpt><trkpt lat="41.6085323" lon="1.9122504"><ele>367.2</ele><time>2026-04-19T07:33:38.026Z</time></trkpt><trkpt lat="41.6086257" lon="1.9122103"><ele>366.8</ele><time>2026-04-19T07:33:39.027Z</time></trkpt><trkpt lat="41.6087337" lon="1.9122165"><ele>366.4</ele><time>2026-04-19T07:33:40.026Z</time></trkpt><trkpt lat="41.6088658" lon="1.9122519"><ele>366.0</ele><time>2026-04-19T07:33:41.027Z</time></trkpt><trkpt lat="41.6089918" lon="1.9122963"><ele>366.0</ele><time>2026-04-19T07:33:42.026Z</time></trkpt><trkpt lat="41.6091055" lon="1.9123718"><ele>366.0</ele><time>2026-04-19T07:33:43.027Z</time></trkpt><trkpt lat="41.6092106" lon="1.9124921"><ele>366.0</ele><time>2026-04-19T07:33:44.027Z</time></trkpt><trkpt lat="41.6093062" lon="1.9126172"><ele>366.0</ele><time>2026-04-19T07:33:45.026Z</time></trkpt><trkpt lat="41.6093977" lon="1.9127287"><ele>366.5</ele><time>2026-04-19T07:33:46.027Z</time></trkpt><trkpt lat="41.6094807" lon="1.9128079"><ele>367.0</ele><time>2026-04-19T07:33:47.027Z</time></trkpt><trkpt lat="41.6095564" lon="1.9128552"><ele>367.5</ele><time>2026-04-19T07:33:48.027Z</time></trkpt><trkpt lat="41.6096367" lon="1.9128576"><ele>368.0</ele><time>2026-04-19T07:33:49.027Z</time></trkpt><trkpt lat="41.6097095" lon="1.9128087"><ele>368.5</ele><time>2026-04-19T07:33:50.026Z</time></trkpt><trkpt lat="41.60976" lon="1.9127204"><ele>369.0</ele><time>2026-04-19T07:33:51.026Z</time></trkpt><trkpt lat="41.6097727" lon="1.9126099"><ele>368.6</ele><time>2026-04-19T07:33:52.027Z</time></trkpt><trkpt lat="41.6097461" lon="1.9125011"><ele>368.2</ele><time>2026-04-19T07:33:53.027Z</time></trkpt><trkpt lat="41.6096901" lon="1.9124045"><ele>367.8</ele><time>2026-04-19T07:33:54.027Z</time></trkpt><trkpt lat="41.6096218" lon="1.9123029"><ele>367.40000000000003</ele><time>2026-04-19T07:33:55.027Z</time></trkpt><trkpt lat="41.6095598" lon="1.9121929"><ele>367.0</ele><time>2026-04-19T07:33:56.026Z</time></trkpt><trkpt lat="41.6095096" lon="1.9120528"><ele>366.75</ele><time>2026-04-19T07:33:57.026Z</time></trkpt><trkpt lat="41.6094732" lon="1.9118853"><ele>366.5</ele><time>2026-04-19T07:33:58.026Z</time></trkpt><trkpt lat="41.6094414" lon="1.9117221"><ele>366.25</ele><time>2026-04-19T07:33:59.026Z</time></trkpt><trkpt lat="41.6094086" lon="1.9115587"><ele>366.0</ele><time>2026-04-19T07:34:00.027Z</time></trkpt><trkpt lat="41.60938" lon="1.9114051"><ele>363.8</ele><time>2026-04-19T07:34:01.027Z</time></trkpt><trkpt lat="41.6093491" lon="1.9112576"><ele>361.6</ele><time>2026-04-19T07:34:02.026Z</time></trkpt><trkpt lat="41.6093161" lon="1.9111124"><ele>359.4</ele><time>2026-04-19T07:34:03.026Z</time></trkpt><trkpt lat="41.6092833" lon="1.9109774"><ele>357.2</ele><time>2026-04-19T07:34:04.026Z</time></trkpt><trkpt lat="41.6092355" lon="1.9108524"><ele>355.0</ele><time>2026-04-19T07:34:05.027Z</time></trkpt><trkpt lat="41.6091753" lon="1.9107447"><ele>354.75</ele><time>2026-04-19T07:34:06.026Z</time></trkpt><trkpt lat="41.6091025" lon="1.9106541"><ele>354.5</ele><time>2026-04-19T07:34:07.027Z</time></trkpt><trkpt lat="41.6090131" lon="1.9105683"><ele>354.25</ele><time>2026-04-19T07:34:08.027Z</time></trkpt><trkpt lat="41.6088974" lon="1.9105131"><ele>354.0</ele><time>2026-04-19T07:34:09.027Z</time></trkpt><trkpt lat="41.6087562" lon="1.9104944"><ele>352.25</ele><time>2026-04-19T07:34:10.027Z</time></trkpt><trkpt lat="41.6086108" lon="1.9104835"><ele>350.5</ele><time>2026-04-19T07:34:11.027Z</time></trkpt><trkpt lat="41.6084723" lon="1.9104759"><ele>348.75</ele><time>2026-04-19T07:34:12.027Z</time></trkpt><trkpt lat="41.6083432" lon="1.9104524"><ele>347.0</ele><time>2026-04-19T07:34:13.026Z</time></trkpt><trkpt lat="41.608233" lon="1.910386"><ele>347.0</ele><time>2026-04-19T07:34:14.027Z</time></trkpt><trkpt lat="41.6081198" lon="1.9102657"><ele>347.0</ele><time>2026-04-19T07:34:15.027Z</time></trkpt><trkpt lat="41.6080207" lon="1.9101273"><ele>347.0</ele><time>2026-04-19T07:34:16.027Z</time></trkpt><trkpt lat="41.6079215" lon="1.9099941"><ele>347.0</ele><time>2026-04-19T07:34:17.027Z</time></trkpt><trkpt lat="41.607836" lon="1.9098683"><ele>347.40000000000003</ele><time>2026-04-19T07:34:18.026Z</time></trkpt><trkpt lat="41.6077838" lon="1.9097436"><ele>347.8</ele><time>2026-04-19T07:34:19.026Z</time></trkpt><trkpt lat="41.6077703" lon="1.9096166"><ele>348.2</ele><time>2026-04-19T07:34:20.027Z</time></trkpt><trkpt lat="41.6077978" lon="1.9094796"><ele>348.6</ele><time>2026-04-19T07:34:21.026Z</time></trkpt><trkpt lat="41.6078616" lon="1.9093345"><ele>349.0</ele><time>2026-04-19T07:34:22.027Z</time></trkpt><trkpt lat="41.6079191" lon="1.9091906"><ele>349.5</ele><time>2026-04-19T07:34:23.026Z</time></trkpt><trkpt lat="41.6079595" lon="1.9090402"><ele>350.0</ele><time>2026-04-19T07:34:24.026Z</time></trkpt><trkpt lat="41.6079643" lon="1.9088586"><ele>350.5</ele><time>2026-04-19T07:34:25.027Z</time></trkpt><trkpt lat="41.6079422" lon="1.9086662"><ele>351.0</ele><time>2026-04-19T07:34:26.027Z</time></trkpt><trkpt lat="41.6079097" lon="1.9084842"><ele>351.25</ele><time>2026-04-19T07:34:27.026Z</time></trkpt><trkpt lat="41.607873" lon="1.9083182"><ele>351.5</ele><time>2026-04-19T07:34:28.026Z</time></trkpt><trkpt lat="41.607808" lon="1.908175"><ele>351.75</ele><time>2026-04-19T07:34:29.026Z</time></trkpt><trkpt lat="41.6077102" lon="1.90808"><ele>352.0</ele><time>2026-04-19T07:34:30.027Z</time></trkpt><trkpt lat="41.6076006" lon="1.9080333"><ele>347.75</ele><time>2026-04-19T07:34:31.026Z</time></trkpt><trkpt lat="41.6074926" lon="1.9079914"><ele>343.5</ele><time>2026-04-19T07:34:32.027Z</time></trkpt><trkpt lat="41.6074003" lon="1.9079102"><ele>339.25</ele><time>2026-04-19T07:34:33.027Z</time></trkpt><trkpt lat="41.6073225" lon="1.9078065"><ele>335.0</ele><time>2026-04-19T07:34:34.026Z</time></trkpt><trkpt lat="41.6072682" lon="1.9076272"><ele>335.5</ele><time>2026-04-19T07:34:35.026Z</time></trkpt><trkpt lat="41.6072041" lon="1.9074642"><ele>336.0</ele><time>2026-04-19T07:34:36.026Z</time></trkpt><trkpt lat="41.607162" lon="1.907313"><ele>336.5</ele><time>2026-04-19T07:34:37.027Z</time></trkpt><trkpt lat="41.6071572" lon="1.9071661"><ele>337.0</ele><time>2026-04-19T07:34:38.026Z</time></trkpt><trkpt lat="41.6071652" lon="1.9070337"><ele>337.0</ele><time>2026-04-19T07:34:39.026Z</time></trkpt><trkpt lat="41.6072464" lon="1.9068491"><ele>337.0</ele><time>2026-04-19T07:34:40.026Z</time></trkpt><trkpt lat="41.6073311" lon="1.9066797"><ele>337.0</ele><time>2026-04-19T07:34:41.026Z</time></trkpt><trkpt lat="41.6074029" lon="1.9065102"><ele>336.0</ele><time>2026-04-19T07:34:42.027Z</time></trkpt><trkpt lat="41.6074656" lon="1.906344"><ele>335.0</ele><time>2026-04-19T07:34:43.026Z</time></trkpt><trkpt lat="41.6075029" lon="1.9061725"><ele>334.0</ele><time>2026-04-19T07:34:44.027Z</time></trkpt><trkpt lat="41.6075031" lon="1.9059888"><ele>333.0</ele><time>2026-04-19T07:34:45.027Z</time></trkpt><trkpt lat="41.6074832" lon="1.9057891"><ele>332.25</ele><time>2026-04-19T07:34:46.027Z</time></trkpt><trkpt lat="41.6074545" lon="1.9056112"><ele>331.5</ele><time>2026-04-19T07:34:47.026Z</time></trkpt><trkpt lat="41.6073987" lon="1.9054644"><ele>330.75</ele><time>2026-04-19T07:34:48.026Z</time></trkpt><trkpt lat="41.6073146" lon="1.905342"><ele>330.0</ele><time>2026-04-19T07:34:49.026Z</time></trkpt><trkpt lat="41.60719" lon="1.9052279"><ele>330.0</ele><time>2026-04-19T07:34:50.026Z</time></trkpt><trkpt lat="41.6070644" lon="1.905111"><ele>330.0</ele><time>2026-04-19T07:34:51.026Z</time></trkpt><trkpt lat="41.6069597" lon="1.9049643"><ele>330.0</ele><time>2026-04-19T07:34:52.027Z</time></trkpt><trkpt lat="41.6068945" lon="1.9048093"><ele>330.0</ele><time>2026-04-19T07:34:53.026Z</time></trkpt><trkpt lat="41.6068466" lon="1.9046622"><ele>327.0</ele><time>2026-04-19T07:34:54.027Z</time></trkpt><trkpt lat="41.6068392" lon="1.9045144"><ele>324.0</ele><time>2026-04-19T07:34:55.026Z</time></trkpt><trkpt lat="41.6068724" lon="1.9043577"><ele>321.0</ele><time>2026-04-19T07:34:56.027Z</time></trkpt><trkpt lat="41.6069296" lon="1.9041984"><ele>318.0</ele><time>2026-04-19T07:34:57.027Z</time></trkpt><trkpt lat="41.6069769" lon="1.9040188"><ele>320.3333333333333</ele><time>2026-04-19T07:34:58.027Z</time></trkpt><trkpt lat="41.6070045" lon="1.9038175"><ele>322.66666666666663</ele><time>2026-04-19T07:34:59.027Z</time></trkpt><trkpt lat="41.6070214" lon="1.9036053"><ele>325.0</ele><time>2026-04-19T07:35:00.026Z</time></trkpt><trkpt lat="41.6070334" lon="1.9033837"><ele>325.0</ele><time>2026-04-19T07:35:01.027Z</time></trkpt><trkpt lat="41.6070316" lon="1.9031746"><ele>325.0</ele><time>2026-04-19T07:35:02.026Z</time></trkpt><trkpt lat="41.6070073" lon="1.9029547"><ele>325.0</ele><time>2026-04-19T07:35:03.027Z</time></trkpt><trkpt lat="41.6069479" lon="1.9027265"><ele>321.66666666666663</ele><time>2026-04-19T07:35:04.027Z</time></trkpt><trkpt lat="41.6068753" lon="1.9024951"><ele>318.3333333333333</ele><time>2026-04-19T07:35:05.027Z</time></trkpt><trkpt lat="41.6068066" lon="1.9022813"><ele>315.0</ele><time>2026-04-19T07:35:06.027Z</time></trkpt><trkpt lat="41.6067453" lon="1.9020756"><ele>315.0</ele><time>2026-04-19T07:35:07.027Z</time></trkpt><trkpt lat="41.6066894" lon="1.90189"><ele>315.0</ele><time>2026-04-19T07:35:08.026Z</time></trkpt><trkpt lat="41.60664" lon="1.9017274"><ele>315.0</ele><time>2026-04-19T07:35:09.027Z</time></trkpt><trkpt lat="41.6066129" lon="1.9015757"><ele>315.0</ele><time>2026-04-19T07:35:10.027Z</time></trkpt><trkpt lat="41.606621" lon="1.9014274"><ele>314.5</ele><time>2026-04-19T07:35:11.026Z</time></trkpt><trkpt lat="41.6066625" lon="1.9012915"><ele>314.0</ele><time>2026-04-19T07:35:12.027Z</time></trkpt><trkpt lat="41.6067278" lon="1.901168"><ele>313.5</ele><time>2026-04-19T07:35:13.027Z</time></trkpt><trkpt lat="41.606804" lon="1.9010493"><ele>313.0</ele><time>2026-04-19T07:35:14.027Z</time></trkpt><trkpt lat="41.6068731" lon="1.9009351"><ele>312.6</ele><time>2026-04-19T07:35:15.027Z</time></trkpt><trkpt lat="41.6069414" lon="1.9008278"><ele>312.20000000000005</ele><time>2026-04-19T07:35:16.027Z</time></trkpt><trkpt lat="41.6070045" lon="1.9007304"><ele>311.8</ele><time>2026-04-19T07:35:17.027Z</time></trkpt><trkpt lat="41.6070848" lon="1.9006601"><ele>311.40000000000003</ele><time>2026-04-19T07:35:18.027Z</time></trkpt><trkpt lat="41.6071779" lon="1.9006376"><ele>311.0</ele><time>2026-04-19T07:35:19.027Z</time></trkpt><trkpt lat="41.6072706" lon="1.9006444"><ele>311.0</ele><time>2026-04-19T07:35:20.027Z</time></trkpt><trkpt lat="41.6073695" lon="1.9006678"><ele>311.0</ele><time>2026-04-19T07:35:21.027Z</time></trkpt><trkpt lat="41.6074707" lon="1.9006905"><ele>311.0</ele><time>2026-04-19T07:35:22.026Z</time></trkpt><trkpt lat="41.6075705" lon="1.9007157"><ele>311.0</ele><time>2026-04-19T07:35:23.027Z</time></trkpt><trkpt lat="41.6076701" lon="1.9007365"><ele>311.0</ele><time>2026-04-19T07:35:24.026Z</time></trkpt><trkpt lat="41.60777" lon="1.9007405"><ele>310.8</ele><time>2026-04-19T07:35:25.027Z</time></trkpt><trkpt lat="41.6078667" lon="1.9007286"><ele>310.6</ele><time>2026-04-19T07:35:26.027Z</time></trkpt><trkpt lat="41.6079638" lon="1.9007117"><ele>310.4</ele><time>2026-04-19T07:35:27.027Z</time></trkpt><trkpt lat="41.60807" lon="1.9006914"><ele>310.2</ele><time>2026-04-19T07:35:28.027Z</time></trkpt><trkpt lat="41.6081763" lon="1.9006662"><ele>310.0</ele><time>2026-04-19T07:35:29.027Z</time></trkpt><trkpt lat="41.60827" lon="1.9006148"><ele>310.0</ele><time>2026-04-19T07:35:30.027Z</time></trkpt><trkpt lat="41.6083361" lon="1.9005286"><ele>310.0</ele><time>2026-04-19T07:35:31.027Z</time></trkpt><trkpt lat="41.6083661" lon="1.9004183"><ele>310.0</ele><time>2026-04-19T07:35:32.027Z</time></trkpt><trkpt lat="41.6083614" lon="1.900299"><ele>310.0</ele><time>2026-04-19T07:35:33.027Z</time></trkpt><trkpt lat="41.6083301" lon="1.9001598"><ele>310.0</ele><time>2026-04-19T07:35:34.027Z</time></trkpt><trkpt lat="41.6082765" lon="1.9000252"><ele>309.0</ele><time>2026-04-19T07:35:35.026Z</time></trkpt><trkpt lat="41.6082158" lon="1.8998893"><ele>308.0</ele><time>2026-04-19T07:35:36.027Z</time></trkpt><trkpt lat="41.608162" lon="1.8997513"><ele>307.0</ele><time>2026-04-19T07:35:37.027Z</time></trkpt><trkpt lat="41.608128" lon="1.8995939"><ele>306.0</ele><time>2026-04-19T07:35:38.027Z</time></trkpt><trkpt lat="41.608118" lon="1.8994003"><ele>306.3333333333333</ele><time>2026-04-19T07:35:39.027Z</time></trkpt><trkpt lat="41.6081275" lon="1.8991964"><ele>306.66666666666663</ele><time>2026-04-19T07:35:40.026Z</time></trkpt><trkpt lat="41.6081359" lon="1.8989738"><ele>307.0</ele><time>2026-04-19T07:35:41.027Z</time></trkpt><trkpt lat="41.6081397" lon="1.8987465"><ele>307.0</ele><time>2026-04-19T07:35:42.027Z</time></trkpt><trkpt lat="41.6081251" lon="1.8985243"><ele>307.0</ele><time>2026-04-19T07:35:43.027Z</time></trkpt><trkpt lat="41.6081051" lon="1.8983117"><ele>307.0</ele><time>2026-04-19T07:35:44.026Z</time></trkpt><trkpt lat="41.6081124" lon="1.8981078"><ele>306.66666666666663</ele><time>2026-04-19T07:35:45.026Z</time></trkpt><trkpt lat="41.6081548" lon="1.8979016"><ele>306.3333333333333</ele><time>2026-04-19T07:35:46.026Z</time></trkpt><trkpt lat="41.6082289" lon="1.897692"><ele>306.0</ele><time>2026-04-19T07:35:47.027Z</time></trkpt><trkpt lat="41.6083107" lon="1.8974803"><ele>304.6666666666667</ele><time>2026-04-19T07:35:48.026Z</time></trkpt><trkpt lat="41.6083887" lon="1.8972762"><ele>303.33333333333337</ele><time>2026-04-19T07:35:49.027Z</time></trkpt><trkpt lat="41.6084607" lon="1.8970804"><ele>302.0</ele><time>2026-04-19T07:35:50.027Z</time></trkpt><trkpt lat="41.608534" lon="1.8968894"><ele>300.5</ele><time>2026-04-19T07:35:51.027Z</time></trkpt><trkpt lat="41.6085966" lon="1.8967218"><ele>299.0</ele><time>2026-04-19T07:35:52.027Z</time></trkpt><trkpt lat="41.6086569" lon="1.8965802"><ele>297.5</ele><time>2026-04-19T07:35:53.027Z</time></trkpt><trkpt lat="41.6087386" lon="1.8964717"><ele>296.0</ele><time>2026-04-19T07:35:54.026Z</time></trkpt><trkpt lat="41.6088339" lon="1.8963913"><ele>295.75</ele><time>2026-04-19T07:35:55.026Z</time></trkpt><trkpt lat="41.608944" lon="1.8963372"><ele>295.5</ele><time>2026-04-19T07:35:56.027Z</time></trkpt><trkpt lat="41.6091145" lon="1.8963454"><ele>295.25</ele><time>2026-04-19T07:35:57.027Z</time></trkpt><trkpt lat="41.6092639" lon="1.8963285"><ele>295.0</ele><time>2026-04-19T07:35:58.026Z</time></trkpt><trkpt lat="41.6094255" lon="1.896303"><ele>290.66666666666663</ele><time>2026-04-19T07:35:59.027Z</time></trkpt><trkpt lat="41.6096057" lon="1.8962662"><ele>286.3333333333333</ele><time>2026-04-19T07:36:00.027Z</time></trkpt><trkpt lat="41.6097977" lon="1.896223"><ele>282.0</ele><time>2026-04-19T07:36:01.027Z</time></trkpt><trkpt lat="41.6099911" lon="1.896167"><ele>282.0</ele><time>2026-04-19T07:36:02.026Z</time></trkpt><trkpt lat="41.6101842" lon="1.8961041"><ele>282.0</ele><time>2026-04-19T07:36:03.027Z</time></trkpt><trkpt lat="41.6103696" lon="1.8960524"><ele>282.0</ele><time>2026-04-19T07:36:04.026Z</time></trkpt><trkpt lat="41.6105481" lon="1.896009"><ele>279.3333333333333</ele><time>2026-04-19T07:36:05.027Z</time></trkpt><trkpt lat="41.6107193" lon="1.8959594"><ele>276.66666666666663</ele><time>2026-04-19T07:36:06.026Z</time></trkpt><trkpt lat="41.6108844" lon="1.8959141"><ele>274.0</ele><time>2026-04-19T07:36:07.026Z</time></trkpt><trkpt lat="41.6110354" lon="1.8958734"><ele>273.0</ele><time>2026-04-19T07:36:08.026Z</time></trkpt><trkpt lat="41.6111732" lon="1.8958313"><ele>272.0</ele><time>2026-04-19T07:36:09.026Z</time></trkpt><trkpt lat="41.6112804" lon="1.8957723"><ele>271.0</ele><time>2026-04-19T07:36:10.027Z</time></trkpt><trkpt lat="41.6113747" lon="1.8957018"><ele>270.0</ele><time>2026-04-19T07:36:11.027Z</time></trkpt><trkpt lat="41.6114426" lon="1.8956076"><ele>270.0</ele><time>2026-04-19T07:36:12.027Z</time></trkpt><trkpt lat="41.6114902" lon="1.895494"><ele>270.0</ele><time>2026-04-19T07:36:13.026Z</time></trkpt><trkpt lat="41.6115367" lon="1.8953844"><ele>270.0</ele><time>2026-04-19T07:36:14.027Z</time></trkpt><trkpt lat="41.6116017" lon="1.8952871"><ele>270.0</ele><time>2026-04-19T07:36:15.027Z</time></trkpt><trkpt lat="41.6116869" lon="1.8951943"><ele>270.0</ele><time>2026-04-19T07:36:16.027Z</time></trkpt><trkpt lat="41.6117941" lon="1.8951105"><ele>269.5</ele><time>2026-04-19T07:36:17.026Z</time></trkpt><trkpt lat="41.6119037" lon="1.8950337"><ele>269.0</ele><time>2026-04-19T07:36:18.026Z</time></trkpt><trkpt lat="41.6120094" lon="1.8949492"><ele>268.5</ele><time>2026-04-19T07:36:19.027Z</time></trkpt><trkpt lat="41.6121073" lon="1.8948704"><ele>268.0</ele><time>2026-04-19T07:36:20.027Z</time></trkpt><trkpt lat="41.6122045" lon="1.8947976"><ele>268.0</ele><time>2026-04-19T07:36:21.026Z</time></trkpt><trkpt lat="41.6123203" lon="1.8947516"><ele>268.0</ele><time>2026-04-19T07:36:22.026Z</time></trkpt><trkpt lat="41.6124359" lon="1.8947227"><ele>268.0</ele><time>2026-04-19T07:36:23.026Z</time></trkpt><trkpt lat="41.6125742" lon="1.8947319"><ele>268.0</ele><time>2026-04-19T07:36:24.027Z</time></trkpt><trkpt lat="41.6127381" lon="1.8947487"><ele>264.66666666666663</ele><time>2026-04-19T07:36:25.026Z</time></trkpt><trkpt lat="41.6128972" lon="1.89476"><ele>261.3333333333333</ele><time>2026-04-19T07:36:26.027Z</time></trkpt><trkpt lat="41.6130468" lon="1.8947734"><ele>258.0</ele><time>2026-04-19T07:36:27.026Z</time></trkpt><trkpt lat="41.6131997" lon="1.894777"><ele>258.0</ele><time>2026-04-19T07:36:28.026Z</time></trkpt><trkpt lat="41.6133405" lon="1.8947693"><ele>258.0</ele><time>2026-04-19T07:36:29.026Z</time></trkpt><trkpt lat="41.613479" lon="1.8947195"><ele>258.0</ele><time>2026-04-19T07:36:30.027Z</time></trkpt><trkpt lat="41.6136029" lon="1.8946438"><ele>258.0</ele><time>2026-04-19T07:36:31.027Z</time></trkpt><trkpt lat="41.6137219" lon="1.8945582"><ele>256.2</ele><time>2026-04-19T07:36:32.027Z</time></trkpt><trkpt lat="41.6138298" lon="1.8945135"><ele>254.4</ele><time>2026-04-19T07:36:33.026Z</time></trkpt><trkpt lat="41.6139176" lon="1.8945078"><ele>252.59999999999997</ele><time>2026-04-19T07:36:34.026Z</time></trkpt><trkpt lat="41.6139962" lon="1.8945629"><ele>250.79999999999998</ele><time>2026-04-19T07:36:35.026Z</time></trkpt><trkpt lat="41.6140596" lon="1.894659"><ele>249.0</ele><time>2026-04-19T07:36:36.026Z</time></trkpt><trkpt lat="41.6140863" lon="1.8947947"><ele>249.0</ele><time>2026-04-19T07:36:37.027Z</time></trkpt><trkpt lat="41.6140693" lon="1.8949323"><ele>248.99999999999997</ele><time>2026-04-19T07:36:38.026Z</time></trkpt><trkpt lat="41.6140267" lon="1.8950705"><ele>248.99999999999997</ele><time>2026-04-19T07:36:39.027Z</time></trkpt><trkpt lat="41.6139818" lon="1.8951985"><ele>249.0</ele><time>2026-04-19T07:36:40.027Z</time></trkpt><trkpt lat="41.6139522" lon="1.8953154"><ele>249.0</ele><time>2026-04-19T07:36:41.027Z</time></trkpt><trkpt lat="41.613951" lon="1.8954247"><ele>250.33333333333334</ele><time>2026-04-19T07:36:42.026Z</time></trkpt><trkpt lat="41.6139838" lon="1.8955194"><ele>251.66666666666669</ele><time>2026-04-19T07:36:43.027Z</time></trkpt><trkpt lat="41.6140445" lon="1.8955896"><ele>253.0</ele><time>2026-04-19T07:36:44.027Z</time></trkpt><trkpt lat="41.6141202" lon="1.8956269"><ele>254.33333333333334</ele><time>2026-04-19T07:36:45.026Z</time></trkpt><trkpt lat="41.6141999" lon="1.8956124"><ele>255.66666666666669</ele><time>2026-04-19T07:36:46.026Z</time></trkpt><trkpt lat="41.61428" lon="1.8955484"><ele>257.0</ele><time>2026-04-19T07:36:47.027Z</time></trkpt><trkpt lat="41.6143669" lon="1.8954441"><ele>257.0</ele><time>2026-04-19T07:36:48.027Z</time></trkpt><trkpt lat="41.6144713" lon="1.895334"><ele>257.0</ele><time>2026-04-19T07:36:49.027Z</time></trkpt><trkpt lat="41.614581" lon="1.8952397"><ele>257.0</ele><time>2026-04-19T07:36:50.027Z</time></trkpt><trkpt lat="41.6146965" lon="1.8951511"><ele>257.0</ele><time>2026-04-19T07:36:51.026Z</time></trkpt><trkpt lat="41.6148104" lon="1.8950814"><ele>255.0</ele><time>2026-04-19T07:36:52.027Z</time></trkpt><trkpt lat="41.6149337" lon="1.8950405"><ele>253.0</ele><time>2026-04-19T07:36:53.026Z</time></trkpt><trkpt lat="41.6150514" lon="1.8950083"><ele>251.0</ele><time>2026-04-19T07:36:54.027Z</time></trkpt><trkpt lat="41.6151588" lon="1.8949572"><ele>249.0</ele><time>2026-04-19T07:36:55.027Z</time></trkpt><trkpt lat="41.6152357" lon="1.8948654"><ele>249.0</ele><time>2026-04-19T07:36:56.027Z</time></trkpt><trkpt lat="41.6152833" lon="1.8947356"><ele>249.0</ele><time>2026-04-19T07:36:57.026Z</time></trkpt><trkpt lat="41.6152968" lon="1.894569"><ele>249.0</ele><time>2026-04-19T07:36:58.027Z</time></trkpt><trkpt lat="41.6153006" lon="1.8943826"><ele>249.0</ele><time>2026-04-19T07:36:59.027Z</time></trkpt><trkpt lat="41.6152952" lon="1.8941967"><ele>247.66666666666669</ele><time>2026-04-19T07:37:00.027Z</time></trkpt><trkpt lat="41.6152728" lon="1.8940049"><ele>246.33333333333334</ele><time>2026-04-19T07:37:01.026Z</time></trkpt><trkpt lat="41.6152266" lon="1.8938127"><ele>245.0</ele><time>2026-04-19T07:37:02.026Z</time></trkpt><trkpt lat="41.6151643" lon="1.8936138"><ele>245.33333333333334</ele><time>2026-04-19T07:37:03.027Z</time></trkpt><trkpt lat="41.6150928" lon="1.8934191"><ele>245.66666666666669</ele><time>2026-04-19T07:37:04.027Z</time></trkpt><trkpt lat="41.6150236" lon="1.8932365"><ele>246.0</ele><time>2026-04-19T07:37:05.027Z</time></trkpt><trkpt lat="41.6149679" lon="1.893059"><ele>246.0</ele><time>2026-04-19T07:37:06.027Z</time></trkpt><trkpt lat="41.614931" lon="1.8928658"><ele>246.0</ele><time>2026-04-19T07:37:07.027Z</time></trkpt><trkpt lat="41.6149121" lon="1.8926527"><ele>246.0</ele><time>2026-04-19T07:37:08.027Z</time></trkpt><trkpt lat="41.6148956" lon="1.8924433"><ele>245.75</ele><time>2026-04-19T07:37:09.027Z</time></trkpt><trkpt lat="41.6148758" lon="1.8922418"><ele>245.5</ele><time>2026-04-19T07:37:10.027Z</time></trkpt><trkpt lat="41.6148566" lon="1.8920448"><ele>245.25</ele><time>2026-04-19T07:37:11.027Z</time></trkpt><trkpt lat="41.6148411" lon="1.8918547"><ele>245.0</ele><time>2026-04-19T07:37:12.027Z</time></trkpt><trkpt lat="41.6148404" lon="1.8916749"><ele>244.25</ele><time>2026-04-19T07:37:13.027Z</time></trkpt><trkpt lat="41.6148688" lon="1.8915139"><ele>243.5</ele><time>2026-04-19T07:37:14.027Z</time></trkpt><trkpt lat="41.6149273" lon="1.8913644"><ele>242.75</ele><time>2026-04-19T07:37:15.027Z</time></trkpt><trkpt lat="41.6149966" lon="1.8912248"><ele>242.0</ele><time>2026-04-19T07:37:16.027Z</time></trkpt><trkpt lat="41.6150825" lon="1.8911188"><ele>242.0</ele><time>2026-04-19T07:37:17.027Z</time></trkpt><trkpt lat="41.6151758" lon="1.891052"><ele>242.0</ele><time>2026-04-19T07:37:18.027Z</time></trkpt><trkpt lat="41.6152829" lon="1.8910414"><ele>242.0</ele><time>2026-04-19T07:37:19.027Z</time></trkpt><trkpt lat="41.6154085" lon="1.8910946"><ele>242.0</ele><time>2026-04-19T07:37:20.027Z</time></trkpt><trkpt lat="41.6155342" lon="1.8911919"><ele>240.0</ele><time>2026-04-19T07:37:21.027Z</time></trkpt><trkpt lat="41.6156642" lon="1.8913008"><ele>238.0</ele><time>2026-04-19T07:37:22.027Z</time></trkpt><trkpt lat="41.6157981" lon="1.8914186"><ele>236.0</ele><time>2026-04-19T07:37:23.027Z</time></trkpt><trkpt lat="41.6159215" lon="1.8915714"><ele>236.0</ele><time>2026-04-19T07:37:24.027Z</time></trkpt><trkpt lat="41.6160334" lon="1.8917526"><ele>236.0</ele><time>2026-04-19T07:37:25.027Z</time></trkpt><trkpt lat="41.6161282" lon="1.8919369"><ele>236.0</ele><time>2026-04-19T07:37:26.026Z</time></trkpt><trkpt lat="41.616217" lon="1.8921076"><ele>235.20000000000002</ele><time>2026-04-19T07:37:27.027Z</time></trkpt><trkpt lat="41.6162958" lon="1.892251"><ele>234.40000000000003</ele><time>2026-04-19T07:37:28.026Z</time></trkpt><trkpt lat="41.6163698" lon="1.8923598"><ele>233.6</ele><time>2026-04-19T07:37:29.026Z</time></trkpt><trkpt lat="41.6164488" lon="1.8924415"><ele>232.8</ele><time>2026-04-19T07:37:30.027Z</time></trkpt><trkpt lat="41.6165291" lon="1.8924857"><ele>232.0</ele><time>2026-04-19T07:37:31.027Z</time></trkpt><trkpt lat="41.6166144" lon="1.8924906"><ele>231.99999999999997</ele><time>2026-04-19T07:37:32.027Z</time></trkpt><trkpt lat="41.6167023" lon="1.8924414"><ele>232.0</ele><time>2026-04-19T07:37:33.026Z</time></trkpt><trkpt lat="41.6167732" lon="1.8923654"><ele>232.0</ele><time>2026-04-19T07:37:34.027Z</time></trkpt><trkpt lat="41.6168136" lon="1.8922628"><ele>232.0</ele><time>2026-04-19T07:37:35.027Z</time></trkpt><trkpt lat="41.616813" lon="1.8921556"><ele>231.99999999999997</ele><time>2026-04-19T07:37:36.026Z</time></trkpt><trkpt lat="41.6167794" lon="1.8920496"><ele>232.0</ele><time>2026-04-19T07:37:37.027Z</time></trkpt><trkpt lat="41.6167203" lon="1.8919277"><ele>232.0</ele><time>2026-04-19T07:37:38.026Z</time></trkpt><trkpt lat="41.6166454" lon="1.8917873"><ele>232.0</ele><time>2026-04-19T07:37:39.027Z</time></trkpt><trkpt lat="41.616566" lon="1.8916264"><ele>232.0</ele><time>2026-04-19T07:37:40.027Z</time></trkpt><trkpt lat="41.6164817" lon="1.8914657"><ele>232.0</ele><time>2026-04-19T07:37:41.027Z</time></trkpt><trkpt lat="41.6163997" lon="1.8913033"><ele>231.75</ele><time>2026-04-19T07:37:42.026Z</time></trkpt><trkpt lat="41.6163189" lon="1.8911424"><ele>231.5</ele><time>2026-04-19T07:37:43.027Z</time></trkpt><trkpt lat="41.6162429" lon="1.8909913"><ele>231.25</ele><time>2026-04-19T07:37:44.027Z</time></trkpt><trkpt lat="41.6161721" lon="1.8908474"><ele>231.0</ele><time>2026-04-19T07:37:45.027Z</time></trkpt><trkpt lat="41.6161052" lon="1.8906988"><ele>230.0</ele><time>2026-04-19T07:37:46.027Z</time></trkpt><trkpt lat="41.6160579" lon="1.8905401"><ele>229.0</ele><time>2026-04-19T07:37:47.026Z</time></trkpt><trkpt lat="41.6160453" lon="1.8903705"><ele>228.0</ele><time>2026-04-19T07:37:48.026Z</time></trkpt><trkpt lat="41.6160344" lon="1.8901981"><ele>227.0</ele><time>2026-04-19T07:37:49.027Z</time></trkpt><trkpt lat="41.615999" lon="1.8900365"><ele>227.0</ele><time>2026-04-19T07:37:50.026Z</time></trkpt><trkpt lat="41.6159352" lon="1.8898863"><ele>227.0</ele><time>2026-04-19T07:37:51.027Z</time></trkpt><trkpt lat="41.6158503" lon="1.8897369"><ele>227.0</ele><time>2026-04-19T07:37:52.027Z</time></trkpt><trkpt lat="41.6157589" lon="1.8895822"><ele>227.0</ele><time>2026-04-19T07:37:53.027Z</time></trkpt><trkpt lat="41.6156659" lon="1.8894237"><ele>227.0</ele><time>2026-04-19T07:37:54.027Z</time></trkpt><trkpt lat="41.615567" lon="1.8892615"><ele>227.0</ele><time>2026-04-19T07:37:55.027Z</time></trkpt><trkpt lat="41.615472" lon="1.8890956"><ele>227.0</ele><time>2026-04-19T07:37:56.027Z</time></trkpt><trkpt lat="41.6153811" lon="1.8889248"><ele>226.0</ele><time>2026-04-19T07:37:57.026Z</time></trkpt><trkpt lat="41.6152918" lon="1.8887566"><ele>225.0</ele><time>2026-04-19T07:37:58.027Z</time></trkpt><trkpt lat="41.6152047" lon="1.8885928"><ele>224.0</ele><time>2026-04-19T07:37:59.026Z</time></trkpt><trkpt lat="41.6151178" lon="1.8884364"><ele>225.0</ele><time>2026-04-19T07:38:00.026Z</time></trkpt><trkpt lat="41.6150394" lon="1.8882794"><ele>226.0</ele><time>2026-04-19T07:38:01.027Z</time></trkpt><trkpt lat="41.6149886" lon="1.8881162"><ele>227.0</ele><time>2026-04-19T07:38:02.026Z</time></trkpt><trkpt lat="41.6149561" lon="1.8879322"><ele>228.0</ele><time>2026-04-19T07:38:03.026Z</time></trkpt><trkpt lat="41.614949" lon="1.8877468"><ele>227.0</ele><time>2026-04-19T07:38:04.026Z</time></trkpt><trkpt lat="41.6149808" lon="1.8875801"><ele>226.0</ele><time>2026-04-19T07:38:05.027Z</time></trkpt><trkpt lat="41.615049" lon="1.8874449"><ele>225.0</ele><time>2026-04-19T07:38:06.027Z</time></trkpt><trkpt lat="41.6151425" lon="1.8873294"><ele>224.0</ele><time>2026-04-19T07:38:07.027Z</time></trkpt><trkpt lat="41.6152547" lon="1.887221"><ele>225.75</ele><time>2026-04-19T07:38:08.026Z</time></trkpt><trkpt lat="41.6153714" lon="1.887111"><ele>227.5</ele><time>2026-04-19T07:38:09.027Z</time></trkpt><trkpt lat="41.6154866" lon="1.8870122"><ele>229.25</ele><time>2026-04-19T07:38:10.027Z</time></trkpt><trkpt lat="41.6156001" lon="1.8869125"><ele>231.0</ele><time>2026-04-19T07:38:11.027Z</time></trkpt><trkpt lat="41.6157127" lon="1.8868032"><ele>229.75</ele><time>2026-04-19T07:38:12.027Z</time></trkpt><trkpt lat="41.6157925" lon="1.8866828"><ele>228.5</ele><time>2026-04-19T07:38:13.026Z</time></trkpt><trkpt lat="41.6158452" lon="1.8865461"><ele>227.25</ele><time>2026-04-19T07:38:14.026Z</time></trkpt><trkpt lat="41.6158689" lon="1.8863926"><ele>226.0</ele><time>2026-04-19T07:38:15.027Z</time></trkpt><trkpt lat="41.6158664" lon="1.8862357"><ele>226.0</ele><time>2026-04-19T07:38:16.026Z</time></trkpt><trkpt lat="41.6158356" lon="1.8860856"><ele>226.0</ele><time>2026-04-19T07:38:17.026Z</time></trkpt><trkpt lat="41.6157762" lon="1.8859538"><ele>226.0</ele><time>2026-04-19T07:38:18.027Z</time></trkpt><trkpt lat="41.6156944" lon="1.8858421"><ele>226.0</ele><time>2026-04-19T07:38:19.026Z</time></trkpt><trkpt lat="41.6155987" lon="1.8857321"><ele>225.25</ele><time>2026-04-19T07:38:20.027Z</time></trkpt><trkpt lat="41.6155063" lon="1.8856186"><ele>224.5</ele><time>2026-04-19T07:38:21.027Z</time></trkpt><trkpt lat="41.6154155" lon="1.8855039"><ele>223.75</ele><time>2026-04-19T07:38:22.026Z</time></trkpt><trkpt lat="41.6153414" lon="1.885381"><ele>223.0</ele><time>2026-04-19T07:38:23.027Z</time></trkpt><trkpt lat="41.6152879" lon="1.8852375"><ele>223.0</ele><time>2026-04-19T07:38:24.027Z</time></trkpt><trkpt lat="41.6152796" lon="1.8850799"><ele>223.0</ele><time>2026-04-19T07:38:25.027Z</time></trkpt><trkpt lat="41.6153" lon="1.8849194"><ele>223.0</ele><time>2026-04-19T07:38:26.026Z</time></trkpt><trkpt lat="41.6153531" lon="1.8847669"><ele>223.0</ele><time>2026-04-19T07:38:27.026Z</time></trkpt><trkpt lat="41.6154391" lon="1.8846272"><ele>223.0</ele><time>2026-04-19T07:38:28.027Z</time></trkpt><trkpt lat="41.6155457" lon="1.8845011"><ele>223.0</ele><time>2026-04-19T07:38:29.026Z</time></trkpt><trkpt lat="41.6156569" lon="1.884386"><ele>223.0</ele><time>2026-04-19T07:38:30.027Z</time></trkpt><trkpt lat="41.6157728" lon="1.8842897"><ele>223.0</ele><time>2026-04-19T07:38:31.026Z</time></trkpt><trkpt lat="41.6158919" lon="1.8842122"><ele>221.60000000000002</ele><time>2026-04-19T07:38:32.026Z</time></trkpt><trkpt lat="41.6159949" lon="1.8841324"><ele>220.20000000000002</ele><time>2026-04-19T07:38:33.027Z</time></trkpt><trkpt lat="41.61607" lon="1.8840471"><ele>218.8</ele><time>2026-04-19T07:38:34.027Z</time></trkpt><trkpt lat="41.6161284" lon="1.8839562"><ele>217.4</ele><time>2026-04-19T07:38:35.026Z</time></trkpt><trkpt lat="41.616116" lon="1.8837864"><ele>216.0</ele><time>2026-04-19T07:38:36.027Z</time></trkpt><trkpt lat="41.6161183" lon="1.8836299"><ele>216.5</ele><time>2026-04-19T07:38:37.026Z</time></trkpt><trkpt lat="41.6161538" lon="1.8834913"><ele>217.0</ele><time>2026-04-19T07:38:38.027Z</time></trkpt><trkpt lat="41.616231" lon="1.8833738"><ele>217.5</ele><time>2026-04-19T07:38:39.027Z</time></trkpt><trkpt lat="41.6163382" lon="1.8832842"><ele>218.0</ele><time>2026-04-19T07:38:40.026Z</time></trkpt><trkpt lat="41.6164544" lon="1.8832419"><ele>218.0</ele><time>2026-04-19T07:38:41.027Z</time></trkpt><trkpt lat="41.6165774" lon="1.883252"><ele>218.0</ele><time>2026-04-19T07:38:42.026Z</time></trkpt><trkpt lat="41.6166871" lon="1.8832772"><ele>218.0</ele><time>2026-04-19T07:38:43.026Z</time></trkpt><trkpt lat="41.6168106" lon="1.8832563"><ele>218.0</ele><time>2026-04-19T07:38:44.026Z</time></trkpt><trkpt lat="41.616927" lon="1.8832018"><ele>219.0</ele><time>2026-04-19T07:38:45.026Z</time></trkpt><trkpt lat="41.6170295" lon="1.8831394"><ele>220.0</ele><time>2026-04-19T07:38:46.026Z</time></trkpt><trkpt lat="41.6171089" lon="1.8830524"><ele>221.0</ele><time>2026-04-19T07:38:47.027Z</time></trkpt><trkpt lat="41.6171596" lon="1.8829354"><ele>222.0</ele><time>2026-04-19T07:38:48.027Z</time></trkpt><trkpt lat="41.6171672" lon="1.8828084"><ele>223.0</ele><time>2026-04-19T07:38:49.026Z</time></trkpt><trkpt lat="41.6171411" lon="1.8826866"><ele>222.25</ele><time>2026-04-19T07:38:50.027Z</time></trkpt><trkpt lat="41.6170686" lon="1.8825826"><ele>221.5</ele><time>2026-04-19T07:38:51.026Z</time></trkpt><trkpt lat="41.6169571" lon="1.8824971"><ele>220.75</ele><time>2026-04-19T07:38:52.026Z</time></trkpt><trkpt lat="41.6168326" lon="1.8824123"><ele>220.0</ele><time>2026-04-19T07:38:53.027Z</time></trkpt><trkpt lat="41.6166985" lon="1.8823271"><ele>218.0</ele><time>2026-04-19T07:38:54.026Z</time></trkpt><trkpt lat="41.6165724" lon="1.8822121"><ele>216.0</ele><time>2026-04-19T07:38:55.026Z</time></trkpt><trkpt lat="41.6164607" lon="1.8820852"><ele>214.0</ele><time>2026-04-19T07:38:56.027Z</time></trkpt><trkpt lat="41.6163699" lon="1.8819484"><ele>212.0</ele><time>2026-04-19T07:38:57.027Z</time></trkpt><trkpt lat="41.6162934" lon="1.8818052"><ele>212.8</ele><time>2026-04-19T07:38:58.027Z</time></trkpt><trkpt lat="41.6162399" lon="1.8816697"><ele>213.6</ele><time>2026-04-19T07:38:59.026Z</time></trkpt><trkpt lat="41.6162115" lon="1.8815441"><ele>214.40000000000003</ele><time>2026-04-19T07:39:00.027Z</time></trkpt><trkpt lat="41.6162216" lon="1.8814226"><ele>215.20000000000002</ele><time>2026-04-19T07:39:01.027Z</time></trkpt><trkpt lat="41.6162541" lon="1.8813035"><ele>216.0</ele><time>2026-04-19T07:39:02.027Z</time></trkpt><trkpt lat="41.6163108" lon="1.8811876"><ele>216.0</ele><time>2026-04-19T07:39:03.026Z</time></trkpt><trkpt lat="41.6163794" lon="1.8810729"><ele>216.00000000000003</ele><time>2026-04-19T07:39:04.027Z</time></trkpt><trkpt lat="41.6164514" lon="1.8809618"><ele>216.00000000000003</ele><time>2026-04-19T07:39:05.027Z</time></trkpt><trkpt lat="41.6165238" lon="1.8808495"><ele>216.0</ele><time>2026-04-19T07:39:06.026Z</time></trkpt><trkpt lat="41.6165912" lon="1.8807349"><ele>216.0</ele><time>2026-04-19T07:39:07.026Z</time></trkpt><trkpt lat="41.6166587" lon="1.8806201"><ele>216.20000000000002</ele><time>2026-04-19T07:39:08.027Z</time></trkpt><trkpt lat="41.6167136" lon="1.8804964"><ele>216.40000000000003</ele><time>2026-04-19T07:39:09.027Z</time></trkpt><trkpt lat="41.616746" lon="1.8803598"><ele>216.6</ele><time>2026-04-19T07:39:10.027Z</time></trkpt><trkpt lat="41.6167585" lon="1.8802165"><ele>216.8</ele><time>2026-04-19T07:39:11.026Z</time></trkpt><trkpt lat="41.6167587" lon="1.8800644"><ele>217.0</ele><time>2026-04-19T07:39:12.026Z</time></trkpt><trkpt lat="41.6167771" lon="1.8799082"><ele>216.25</ele><time>2026-04-19T07:39:13.026Z</time></trkpt><trkpt lat="41.6168218" lon="1.8797602"><ele>215.5</ele><time>2026-04-19T07:39:14.026Z</time></trkpt><trkpt lat="41.6168961" lon="1.8796334"><ele>214.75</ele><time>2026-04-19T07:39:15.027Z</time></trkpt><trkpt lat="41.6169934" lon="1.8795352"><ele>214.0</ele><time>2026-04-19T07:39:16.027Z</time></trkpt><trkpt lat="41.6170937" lon="1.8794481"><ele>215.2</ele><time>2026-04-19T07:39:17.027Z</time></trkpt><trkpt lat="41.6171749" lon="1.8793439"><ele>216.39999999999998</ele><time>2026-04-19T07:39:18.026Z</time></trkpt><trkpt lat="41.6172245" lon="1.8792213"><ele>217.6</ele><time>2026-04-19T07:39:19.026Z</time></trkpt><trkpt lat="41.6172383" lon="1.8790776"><ele>218.8</ele><time>2026-04-19T07:39:20.026Z</time></trkpt><trkpt lat="41.6172117" lon="1.8789276"><ele>220.0</ele><time>2026-04-19T07:39:21.027Z</time></trkpt><trkpt lat="41.6171567" lon="1.8787747"><ele>220.0</ele><time>2026-04-19T07:39:22.027Z</time></trkpt><trkpt lat="41.6170929" lon="1.8786229"><ele>220.0</ele><time>2026-04-19T07:39:23.027Z</time></trkpt><trkpt lat="41.6170382" lon="1.878477"><ele>220.0</ele><time>2026-04-19T07:39:24.027Z</time></trkpt><trkpt lat="41.6169912" lon="1.8783345"><ele>220.0</ele><time>2026-04-19T07:39:25.027Z</time></trkpt><trkpt lat="41.6169769" lon="1.8782071"><ele>219.4</ele><time>2026-04-19T07:39:26.026Z</time></trkpt><trkpt lat="41.6169984" lon="1.8780838"><ele>218.8</ele><time>2026-04-19T07:39:27.027Z</time></trkpt><trkpt lat="41.617046" lon="1.877974"><ele>218.2</ele><time>2026-04-19T07:39:28.027Z</time></trkpt><trkpt lat="41.617113" lon="1.8778818"><ele>217.6</ele><time>2026-04-19T07:39:29.027Z</time></trkpt><trkpt lat="41.617211" lon="1.8778162"><ele>217.0</ele><time>2026-04-19T07:39:30.027Z</time></trkpt><trkpt lat="41.6173722" lon="1.8778146"><ele>217.0</ele><time>2026-04-19T07:39:31.026Z</time></trkpt><trkpt lat="41.6174705" lon="1.8778401"><ele>217.0</ele><time>2026-04-19T07:39:32.026Z</time></trkpt><trkpt lat="41.6175589" lon="1.8779219"><ele>217.0</ele><time>2026-04-19T07:39:33.027Z</time></trkpt><trkpt lat="41.6176282" lon="1.8780272"><ele>217.0</ele><time>2026-04-19T07:39:34.026Z</time></trkpt><trkpt lat="41.617716" lon="1.8780922"><ele>217.0</ele><time>2026-04-19T07:39:35.027Z</time></trkpt><trkpt lat="41.6178414" lon="1.8781101"><ele>217.5</ele><time>2026-04-19T07:39:36.027Z</time></trkpt><trkpt lat="41.6179653" lon="1.8780724"><ele>218.0</ele><time>2026-04-19T07:39:37.027Z</time></trkpt><trkpt lat="41.6180632" lon="1.8779733"><ele>218.5</ele><time>2026-04-19T07:39:38.027Z</time></trkpt><trkpt lat="41.6181594" lon="1.8778571"><ele>219.0</ele><time>2026-04-19T07:39:39.026Z</time></trkpt><trkpt lat="41.6182262" lon="1.8777037"><ele>216.79999999999998</ele><time>2026-04-19T07:39:40.027Z</time></trkpt><trkpt lat="41.6182708" lon="1.8775625"><ele>214.59999999999997</ele><time>2026-04-19T07:39:41.027Z</time></trkpt><trkpt lat="41.6183232" lon="1.8774519"><ele>212.4</ele><time>2026-04-19T07:39:42.026Z</time></trkpt><trkpt lat="41.618405" lon="1.8773743"><ele>210.2</ele><time>2026-04-19T07:39:43.026Z</time></trkpt><trkpt lat="41.6184938" lon="1.8773092"><ele>208.0</ele><time>2026-04-19T07:39:44.026Z</time></trkpt><trkpt lat="41.6186053" lon="1.877323"><ele>208.49999999999997</ele><time>2026-04-19T07:39:45.026Z</time></trkpt><trkpt lat="41.6186998" lon="1.8772852"><ele>209.0</ele><time>2026-04-19T07:39:46.027Z</time></trkpt><trkpt lat="41.6187705" lon="1.8772073"><ele>209.5</ele><time>2026-04-19T07:39:47.027Z</time></trkpt><trkpt lat="41.6188051" lon="1.8771099"><ele>210.0</ele><time>2026-04-19T07:39:48.027Z</time></trkpt><trkpt lat="41.6187951" lon="1.8770079"><ele>210.49999999999997</ele><time>2026-04-19T07:39:49.026Z</time></trkpt><trkpt lat="41.6187427" lon="1.8769069"><ele>211.0</ele><time>2026-04-19T07:39:50.026Z</time></trkpt><trkpt lat="41.6186643" lon="1.8768233"><ele>209.0</ele><time>2026-04-19T07:39:51.027Z</time></trkpt><trkpt lat="41.6185294" lon="1.8767328"><ele>207.0</ele><time>2026-04-19T07:39:52.027Z</time></trkpt><trkpt lat="41.6184113" lon="1.8766623"><ele>205.0</ele><time>2026-04-19T07:39:53.027Z</time></trkpt><trkpt lat="41.6183036" lon="1.8765861"><ele>203.0</ele><time>2026-04-19T07:39:54.027Z</time></trkpt><trkpt lat="41.6182057" lon="1.8764978"><ele>203.0</ele><time>2026-04-19T07:39:55.026Z</time></trkpt><trkpt lat="41.6181121" lon="1.8764026"><ele>203.0</ele><time>2026-04-19T07:39:56.026Z</time></trkpt><trkpt lat="41.618025" lon="1.8763174"><ele>203.0</ele><time>2026-04-19T07:39:57.027Z</time></trkpt><trkpt lat="41.6179439" lon="1.8762317"><ele>203.0</ele><time>2026-04-19T07:39:58.027Z</time></trkpt><trkpt lat="41.617883" lon="1.8761273"><ele>203.0</ele><time>2026-04-19T07:39:59.027Z</time></trkpt><trkpt lat="41.6178483" lon="1.8760033"><ele>202.8</ele><time>2026-04-19T07:40:00.027Z</time></trkpt><trkpt lat="41.6178243" lon="1.8758692"><ele>202.60000000000002</ele><time>2026-04-19T07:40:01.026Z</time></trkpt><trkpt lat="41.617789" lon="1.8757364"><ele>202.39999999999998</ele><time>2026-04-19T07:40:02.027Z</time></trkpt><trkpt lat="41.617723" lon="1.8756175"><ele>202.2</ele><time>2026-04-19T07:40:03.027Z</time></trkpt><trkpt lat="41.6176274" lon="1.8755239"><ele>202.0</ele><time>2026-04-19T07:40:04.027Z</time></trkpt><trkpt lat="41.6175166" lon="1.8754415"><ele>201.5</ele><time>2026-04-19T07:40:05.026Z</time></trkpt><trkpt lat="41.6174132" lon="1.8753313"><ele>201.0</ele><time>2026-04-19T07:40:06.026Z</time></trkpt><trkpt lat="41.6173282" lon="1.8751958"><ele>200.5</ele><time>2026-04-19T07:40:07.027Z</time></trkpt><trkpt lat="41.6172562" lon="1.8750665"><ele>200.0</ele><time>2026-04-19T07:40:08.026Z</time></trkpt><trkpt lat="41.6171945" lon="1.8749328"><ele>200.0</ele><time>2026-04-19T07:40:09.027Z</time></trkpt><trkpt lat="41.6171679" lon="1.8747919"><ele>200.0</ele><time>2026-04-19T07:40:10.026Z</time></trkpt><trkpt lat="41.6171728" lon="1.8746485"><ele>200.0</ele><time>2026-04-19T07:40:11.027Z</time></trkpt><trkpt lat="41.6172179" lon="1.8745223"><ele>200.0</ele><time>2026-04-19T07:40:12.026Z</time></trkpt><trkpt lat="41.6172372" lon="1.8743906"><ele>200.0</ele><time>2026-04-19T07:40:13.027Z</time></trkpt><trkpt lat="41.6172152" lon="1.8742594"><ele>199.2</ele><time>2026-04-19T07:40:14.027Z</time></trkpt><trkpt lat="41.6171561" lon="1.8741391"><ele>198.4</ele><time>2026-04-19T07:40:15.026Z</time></trkpt><trkpt lat="41.6170804" lon="1.8740323"><ele>197.60000000000002</ele><time>2026-04-19T07:40:16.027Z</time></trkpt><trkpt lat="41.6170253" lon="1.8739254"><ele>196.8</ele><time>2026-04-19T07:40:17.027Z</time></trkpt><trkpt lat="41.6169988" lon="1.873792"><ele>196.0</ele><time>2026-04-19T07:40:18.026Z</time></trkpt><trkpt lat="41.6170032" lon="1.8736448"><ele>196.0</ele><time>2026-04-19T07:40:19.027Z</time></trkpt><trkpt lat="41.6170323" lon="1.8734791"><ele>196.0</ele><time>2026-04-19T07:40:20.027Z</time></trkpt><trkpt lat="41.6170486" lon="1.8733141"><ele>196.0</ele><time>2026-04-19T07:40:21.027Z</time></trkpt><trkpt lat="41.6170478" lon="1.8731475"><ele>196.0</ele><time>2026-04-19T07:40:22.027Z</time></trkpt><trkpt lat="41.6170299" lon="1.872981"><ele>196.0</ele><time>2026-04-19T07:40:23.027Z</time></trkpt><trkpt lat="41.6170216" lon="1.8728116"><ele>196.0</ele><time>2026-04-19T07:40:24.026Z</time></trkpt><trkpt lat="41.6170183" lon="1.8726369"><ele>196.0</ele><time>2026-04-19T07:40:25.026Z</time></trkpt><trkpt lat="41.6170282" lon="1.8724661"><ele>196.0</ele><time>2026-04-19T07:40:26.026Z</time></trkpt><trkpt lat="41.6170534" lon="1.8723038"><ele>196.0</ele><time>2026-04-19T07:40:27.026Z</time></trkpt><trkpt lat="41.6170802" lon="1.872136"><ele>196.0</ele><time>2026-04-19T07:40:28.027Z</time></trkpt><trkpt lat="41.6171038" lon="1.8719652"><ele>196.0</ele><time>2026-04-19T07:40:29.026Z</time></trkpt><trkpt lat="41.6171286" lon="1.8718017"><ele>196.0</ele><time>2026-04-19T07:40:30.026Z</time></trkpt><trkpt lat="41.6171462" lon="1.8716389"><ele>193.75</ele><time>2026-04-19T07:40:31.027Z</time></trkpt><trkpt lat="41.6171402" lon="1.871475"><ele>191.5</ele><time>2026-04-19T07:40:32.027Z</time></trkpt><trkpt lat="41.6171153" lon="1.8713154"><ele>189.25</ele><time>2026-04-19T07:40:33.027Z</time></trkpt><trkpt lat="41.6170833" lon="1.8711575"><ele>187.0</ele><time>2026-04-19T07:40:34.026Z</time></trkpt><trkpt lat="41.6170605" lon="1.8710068"><ele>186.25</ele><time>2026-04-19T07:40:35.026Z</time></trkpt><trkpt lat="41.6170338" lon="1.8708591"><ele>185.5</ele><time>2026-04-19T07:40:36.026Z</time></trkpt><trkpt lat="41.617007" lon="1.8707115"><ele>184.75</ele><time>2026-04-19T07:40:37.026Z</time></trkpt><trkpt lat="41.6169747" lon="1.8705614"><ele>184.0</ele><time>2026-04-19T07:40:38.027Z</time></trkpt><trkpt lat="41.6169417" lon="1.8704145"><ele>183.2</ele><time>2026-04-19T07:40:39.026Z</time></trkpt><trkpt lat="41.6169177" lon="1.8702717"><ele>182.39999999999998</ele><time>2026-04-19T07:40:40.026Z</time></trkpt><trkpt lat="41.6169357" lon="1.8701403"><ele>181.6</ele><time>2026-04-19T07:40:41.027Z</time></trkpt><trkpt lat="41.6169921" lon="1.8700274"><ele>180.8</ele><time>2026-04-19T07:40:42.027Z</time></trkpt><trkpt lat="41.6170617" lon="1.8699162"><ele>180.0</ele><time>2026-04-19T07:40:43.027Z</time></trkpt><trkpt lat="41.6171211" lon="1.8697814"><ele>180.0</ele><time>2026-04-19T07:40:44.026Z</time></trkpt><trkpt lat="41.6171638" lon="1.8696296"><ele>180.0</ele><time>2026-04-19T07:40:45.027Z</time></trkpt><trkpt lat="41.617195" lon="1.8694776"><ele>180.0</ele><time>2026-04-19T07:40:46.027Z</time></trkpt><trkpt lat="41.6172181" lon="1.8693255"><ele>180.0</ele><time>2026-04-19T07:40:47.027Z</time></trkpt><trkpt lat="41.6172386" lon="1.8691717"><ele>179.0</ele><time>2026-04-19T07:40:48.027Z</time></trkpt><trkpt lat="41.6172461" lon="1.8690172"><ele>178.0</ele><time>2026-04-19T07:40:49.026Z</time></trkpt><trkpt lat="41.6172525" lon="1.8688621"><ele>177.0</ele><time>2026-04-19T07:40:50.027Z</time></trkpt><trkpt lat="41.617263" lon="1.8687109"><ele>176.0</ele><time>2026-04-19T07:40:51.027Z</time></trkpt><trkpt lat="41.6172838" lon="1.8685683"><ele>174.8</ele><time>2026-04-19T07:40:52.027Z</time></trkpt><trkpt lat="41.6173014" lon="1.8684332"><ele>173.60000000000002</ele><time>2026-04-19T07:40:53.027Z</time></trkpt><trkpt lat="41.6173143" lon="1.8682951"><ele>172.4</ele><time>2026-04-19T07:40:54.027Z</time></trkpt><trkpt lat="41.6173277" lon="1.8681536"><ele>171.2</ele><time>2026-04-19T07:40:55.027Z</time></trkpt><trkpt lat="41.6173486" lon="1.8680212"><ele>170.0</ele><time>2026-04-19T07:40:56.027Z</time></trkpt><trkpt lat="41.6173795" lon="1.8678958"><ele>170.0</ele><time>2026-04-19T07:40:57.026Z</time></trkpt><trkpt lat="41.6174256" lon="1.8677759"><ele>170.0</ele><time>2026-04-19T07:40:58.026Z</time></trkpt><trkpt lat="41.6174951" lon="1.8676658"><ele>170.0</ele><time>2026-04-19T07:40:59.027Z</time></trkpt><trkpt lat="41.6175757" lon="1.8675579"><ele>170.0</ele><time>2026-04-19T07:41:00.027Z</time></trkpt><trkpt lat="41.6176566" lon="1.8674578"><ele>170.0</ele><time>2026-04-19T07:41:01.026Z</time></trkpt><trkpt lat="41.6177355" lon="1.8673637"><ele>169.4</ele><time>2026-04-19T07:41:02.026Z</time></trkpt><trkpt lat="41.6178094" lon="1.8672794"><ele>168.8</ele><time>2026-04-19T07:41:03.027Z</time></trkpt><trkpt lat="41.617892" lon="1.8671937"><ele>168.2</ele><time>2026-04-19T07:41:04.027Z</time></trkpt><trkpt lat="41.6179849" lon="1.8671194"><ele>167.6</ele><time>2026-04-19T07:41:05.027Z</time></trkpt><trkpt lat="41.618078" lon="1.8670593"><ele>167.0</ele><time>2026-04-19T07:41:06.027Z</time></trkpt><trkpt lat="41.6181736" lon="1.8670196"><ele>167.0</ele><time>2026-04-19T07:41:07.026Z</time></trkpt><trkpt lat="41.618269" lon="1.8669955"><ele>167.0</ele><time>2026-04-19T07:41:08.027Z</time></trkpt><trkpt lat="41.6183556" lon="1.86698"><ele>167.0</ele><time>2026-04-19T07:41:09.027Z</time></trkpt><trkpt lat="41.6184424" lon="1.8669645"><ele>167.0</ele><time>2026-04-19T07:41:10.027Z</time></trkpt><trkpt lat="41.6185175" lon="1.8669496"><ele>167.0</ele><time>2026-04-19T07:41:11.026Z</time></trkpt><trkpt lat="41.6185856" lon="1.866936"><ele>167.0</ele><time>2026-04-19T07:41:12.027Z</time></trkpt><trkpt lat="41.6186591" lon="1.8669261"><ele>164.6</ele><time>2026-04-19T07:41:13.026Z</time></trkpt><trkpt lat="41.6187244" lon="1.8669172"><ele>162.2</ele><time>2026-04-19T07:41:14.027Z</time></trkpt><trkpt lat="41.6188419" lon="1.8668922"><ele>159.8</ele><time>2026-04-19T07:41:16.027Z</time></trkpt><trkpt lat="41.6189489" lon="1.8668785"><ele>157.4</ele><time>2026-04-19T07:41:18.026Z</time></trkpt><trkpt lat="41.6190329" lon="1.8668624"><ele>155.0</ele><time>2026-04-19T07:41:20.027Z</time></trkpt><trkpt lat="41.6191078" lon="1.8668417"><ele>155.0</ele><time>2026-04-19T07:41:21.027Z</time></trkpt><trkpt lat="41.6191799" lon="1.8668176"><ele>155.0</ele><time>2026-04-19T07:41:22.027Z</time></trkpt><trkpt lat="41.6192949" lon="1.8667846"><ele>155.0</ele><time>2026-04-19T07:41:23.027Z</time></trkpt><trkpt lat="41.6193917" lon="1.8667574"><ele>155.0</ele><time>2026-04-19T07:41:24.027Z</time></trkpt><trkpt lat="41.6195037" lon="1.8667205"><ele>155.0</ele><time>2026-04-19T07:41:25.026Z</time></trkpt><trkpt lat="41.619616" lon="1.8666748"><ele>152.8</ele><time>2026-04-19T07:41:26.026Z</time></trkpt><trkpt lat="41.6197222" lon="1.866621"><ele>150.6</ele><time>2026-04-19T07:41:27.027Z</time></trkpt><trkpt lat="41.6198274" lon="1.8665575"><ele>148.4</ele><time>2026-04-19T07:41:28.027Z</time></trkpt><trkpt lat="41.6199212" lon="1.8664876"><ele>146.2</ele><time>2026-04-19T07:41:29.027Z</time></trkpt><trkpt lat="41.6200016" lon="1.8664173"><ele>144.0</ele><time>2026-04-19T07:41:30.027Z</time></trkpt><trkpt lat="41.6200767" lon="1.8663359"><ele>144.0</ele><time>2026-04-19T07:41:31.026Z</time></trkpt><trkpt lat="41.620145" lon="1.8662565"><ele>144.0</ele><time>2026-04-19T07:41:32.027Z</time></trkpt><trkpt lat="41.6202126" lon="1.8661742"><ele>144.0</ele><time>2026-04-19T07:41:33.027Z</time></trkpt><trkpt lat="41.6202815" lon="1.8660833"><ele>144.0</ele><time>2026-04-19T07:41:34.027Z</time></trkpt><trkpt lat="41.6203522" lon="1.8659713"><ele>144.0</ele><time>2026-04-19T07:41:35.027Z</time></trkpt><trkpt lat="41.6204306" lon="1.8658269"><ele>142.66666666666666</ele><time>2026-04-19T07:41:36.027Z</time></trkpt><trkpt lat="41.6205083" lon="1.8656606"><ele>141.33333333333331</ele><time>2026-04-19T07:41:37.026Z</time></trkpt><trkpt lat="41.6205762" lon="1.8654858"><ele>140.0</ele><time>2026-04-19T07:41:38.027Z</time></trkpt><trkpt lat="41.620648" lon="1.8652955"><ele>141.0</ele><time>2026-04-19T07:41:39.027Z</time></trkpt><trkpt lat="41.6207183" lon="1.8650914"><ele>142.0</ele><time>2026-04-19T07:41:40.026Z</time></trkpt><trkpt lat="41.6207823" lon="1.864881"><ele>143.0</ele><time>2026-04-19T07:41:41.027Z</time></trkpt><trkpt lat="41.62084" lon="1.8646599"><ele>143.0</ele><time>2026-04-19T07:41:42.027Z</time></trkpt><trkpt lat="41.6208933" lon="1.8644328"><ele>143.0</ele><time>2026-04-19T07:41:43.027Z</time></trkpt><trkpt lat="41.620946" lon="1.8642008"><ele>143.0</ele><time>2026-04-19T07:41:44.027Z</time></trkpt><trkpt lat="41.6209985" lon="1.8639735"><ele>142.33333333333331</ele><time>2026-04-19T07:41:45.027Z</time></trkpt><trkpt lat="41.6210505" lon="1.8637512"><ele>141.66666666666666</ele><time>2026-04-19T07:41:46.026Z</time></trkpt><trkpt lat="41.621103" lon="1.8635322"><ele>141.0</ele><time>2026-04-19T07:41:47.027Z</time></trkpt><trkpt lat="41.6211571" lon="1.8633143"><ele>141.0</ele><time>2026-04-19T07:41:48.026Z</time></trkpt><trkpt lat="41.6212101" lon="1.8630927"><ele>141.0</ele><time>2026-04-19T07:41:49.026Z</time></trkpt><trkpt lat="41.6212641" lon="1.8628659"><ele>141.0</ele><time>2026-04-19T07:41:50.027Z</time></trkpt><trkpt lat="41.6213198" lon="1.8626348"><ele>149.33333333333334</ele><time>2026-04-19T07:41:51.026Z</time></trkpt><trkpt lat="41.6213721" lon="1.8624168"><ele>157.66666666666669</ele><time>2026-04-19T07:41:52.026Z</time></trkpt><trkpt lat="41.6214227" lon="1.8622038"><ele>166.0</ele><time>2026-04-19T07:41:53.027Z</time></trkpt><trkpt lat="41.6218348" lon="1.8605163"><ele>167.0</ele><time>2026-04-19T07:42:00.026Z</time></trkpt><trkpt lat="41.621904" lon="1.8602608"><ele>168.0</ele><time>2026-04-19T07:42:01.027Z</time></trkpt><trkpt lat="41.6219602" lon="1.8600281"><ele>169.0</ele><time>2026-04-19T07:42:02.027Z</time></trkpt><trkpt lat="41.6220164" lon="1.8598028"><ele>162.33333333333334</ele><time>2026-04-19T07:42:03.027Z</time></trkpt><trkpt lat="41.6220636" lon="1.8595786"><ele>155.66666666666666</ele><time>2026-04-19T07:42:04.027Z</time></trkpt><trkpt lat="41.6221182" lon="1.8593631"><ele>149.0</ele><time>2026-04-19T07:42:05.026Z</time></trkpt><trkpt lat="41.6221659" lon="1.8591505"><ele>148.66666666666666</ele><time>2026-04-19T07:42:06.027Z</time></trkpt><trkpt lat="41.6222124" lon="1.8589368"><ele>148.33333333333334</ele><time>2026-04-19T07:42:07.027Z</time></trkpt><trkpt lat="41.6222676" lon="1.85873"><ele>148.0</ele><time>2026-04-19T07:42:08.026Z</time></trkpt><trkpt lat="41.6223164" lon="1.8585151"><ele>149.33333333333334</ele><time>2026-04-19T07:42:09.027Z</time></trkpt><trkpt lat="41.6223677" lon="1.8582997"><ele>150.66666666666666</ele><time>2026-04-19T07:42:10.026Z</time></trkpt><trkpt lat="41.6224246" lon="1.8580848"><ele>152.0</ele><time>2026-04-19T07:42:11.027Z</time></trkpt><trkpt lat="41.6224752" lon="1.8578635"><ele>152.0</ele><time>2026-04-19T07:42:12.027Z</time></trkpt><trkpt lat="41.622531" lon="1.8576386"><ele>152.0</ele><time>2026-04-19T07:42:13.027Z</time></trkpt><trkpt lat="41.6225834" lon="1.8574143"><ele>152.0</ele><time>2026-04-19T07:42:14.027Z</time></trkpt><trkpt lat="41.6226391" lon="1.8571818"><ele>152.33333333333331</ele><time>2026-04-19T07:42:15.026Z</time></trkpt><trkpt lat="41.6226952" lon="1.8569524"><ele>152.66666666666666</ele><time>2026-04-19T07:42:16.026Z</time></trkpt><trkpt lat="41.62275" lon="1.8567207"><ele>153.0</ele><time>2026-04-19T07:42:17.027Z</time></trkpt><trkpt lat="41.6228041" lon="1.8564806"><ele>149.66666666666666</ele><time>2026-04-19T07:42:18.027Z</time></trkpt><trkpt lat="41.622849" lon="1.8562585"><ele>146.33333333333331</ele><time>2026-04-19T07:42:19.026Z</time></trkpt><trkpt lat="41.6229034" lon="1.8560292"><ele>143.0</ele><time>2026-04-19T07:42:20.026Z</time></trkpt><trkpt lat="41.6229563" lon="1.8558013"><ele>141.66666666666666</ele><time>2026-04-19T07:42:21.027Z</time></trkpt><trkpt lat="41.623002" lon="1.8555744"><ele>140.33333333333334</ele><time>2026-04-19T07:42:22.027Z</time></trkpt><trkpt lat="41.6230542" lon="1.8553496"><ele>139.0</ele><time>2026-04-19T07:42:23.027Z</time></trkpt><trkpt lat="41.623107" lon="1.8551355"><ele>137.66666666666669</ele><time>2026-04-19T07:42:24.026Z</time></trkpt><trkpt lat="41.623158" lon="1.8549262"><ele>136.33333333333334</ele><time>2026-04-19T07:42:25.027Z</time></trkpt><trkpt lat="41.6232079" lon="1.8547171"><ele>135.0</ele><time>2026-04-19T07:42:26.027Z</time></trkpt><trkpt lat="41.6232578" lon="1.8545066"><ele>135.0</ele><time>2026-04-19T07:42:27.026Z</time></trkpt><trkpt lat="41.6233114" lon="1.8542906"><ele>135.0</ele><time>2026-04-19T07:42:28.027Z</time></trkpt><trkpt lat="41.6233673" lon="1.8540603"><ele>135.0</ele><time>2026-04-19T07:42:29.026Z</time></trkpt><trkpt lat="41.6234243" lon="1.8538314"><ele>134.66666666666666</ele><time>2026-04-19T07:42:30.026Z</time></trkpt><trkpt lat="41.6234767" lon="1.8536055"><ele>134.33333333333331</ele><time>2026-04-19T07:42:31.027Z</time></trkpt><trkpt lat="41.6235297" lon="1.8533764"><ele>134.0</ele><time>2026-04-19T07:42:32.026Z</time></trkpt><trkpt lat="41.6235835" lon="1.8531354"><ele>138.33333333333331</ele><time>2026-04-19T07:42:33.027Z</time></trkpt><trkpt lat="41.623636" lon="1.8528879"><ele>142.66666666666666</ele><time>2026-04-19T07:42:34.026Z</time></trkpt><trkpt lat="41.62368" lon="1.8526408"><ele>147.0</ele><time>2026-04-19T07:42:35.027Z</time></trkpt><trkpt lat="41.6237121" lon="1.8523974"><ele>157.66666666666666</ele><time>2026-04-19T07:42:36.026Z</time></trkpt><trkpt lat="41.6237403" lon="1.8521539"><ele>168.33333333333331</ele><time>2026-04-19T07:42:37.026Z</time></trkpt><trkpt lat="41.6237584" lon="1.851915"><ele>179.0</ele><time>2026-04-19T07:42:38.027Z</time></trkpt><trkpt lat="41.6237722" lon="1.851672"><ele>183.33333333333331</ele><time>2026-04-19T07:42:39.026Z</time></trkpt><trkpt lat="41.6237879" lon="1.8514322"><ele>187.66666666666666</ele><time>2026-04-19T07:42:40.027Z</time></trkpt><trkpt lat="41.6237997" lon="1.8511904"><ele>192.0</ele><time>2026-04-19T07:42:41.027Z</time></trkpt><trkpt lat="41.6238103" lon="1.8509445"><ele>192.33333333333331</ele><time>2026-04-19T07:42:42.027Z</time></trkpt><trkpt lat="41.6238188" lon="1.8507017"><ele>192.66666666666666</ele><time>2026-04-19T07:42:43.026Z</time></trkpt><trkpt lat="41.6238234" lon="1.8504554"><ele>193.0</ele><time>2026-04-19T07:42:44.027Z</time></trkpt><trkpt lat="41.623821" lon="1.8502159"><ele>190.33333333333331</ele><time>2026-04-19T07:42:45.026Z</time></trkpt><trkpt lat="41.6238187" lon="1.8499877"><ele>187.66666666666666</ele><time>2026-04-19T07:42:46.026Z</time></trkpt><trkpt lat="41.6238224" lon="1.8497686"><ele>185.0</ele><time>2026-04-19T07:42:47.026Z</time></trkpt><trkpt lat="41.623834" lon="1.8495474"><ele>185.0</ele><time>2026-04-19T07:42:48.027Z</time></trkpt><trkpt lat="41.6238613" lon="1.8493254"><ele>185.0</ele><time>2026-04-19T07:42:49.027Z</time></trkpt><trkpt lat="41.623902" lon="1.8491095"><ele>185.0</ele><time>2026-04-19T07:42:50.026Z</time></trkpt><trkpt lat="41.6239624" lon="1.848903"><ele>183.66666666666666</ele><time>2026-04-19T07:42:51.027Z</time></trkpt><trkpt lat="41.6240384" lon="1.8487143"><ele>182.33333333333334</ele><time>2026-04-19T07:42:52.027Z</time></trkpt><trkpt lat="41.6241278" lon="1.8485462"><ele>181.0</ele><time>2026-04-19T07:42:53.027Z</time></trkpt><trkpt lat="41.6242254" lon="1.8484023"><ele>184.25</ele><time>2026-04-19T07:42:54.027Z</time></trkpt><trkpt lat="41.6243289" lon="1.8482907"><ele>187.5</ele><time>2026-04-19T07:42:55.027Z</time></trkpt><trkpt lat="41.6244453" lon="1.8481887"><ele>190.75</ele><time>2026-04-19T07:42:56.027Z</time></trkpt><trkpt lat="41.6245885" lon="1.8481033"><ele>194.0</ele><time>2026-04-19T07:42:57.027Z</time></trkpt><trkpt lat="41.6247467" lon="1.8480364"><ele>196.0</ele><time>2026-04-19T07:42:58.027Z</time></trkpt><trkpt lat="41.6249074" lon="1.8479883"><ele>198.0</ele><time>2026-04-19T07:42:59.026Z</time></trkpt><trkpt lat="41.6250654" lon="1.8479664"><ele>200.0</ele><time>2026-04-19T07:43:00.026Z</time></trkpt><trkpt lat="41.6252368" lon="1.847948"><ele>205.66666666666669</ele><time>2026-04-19T07:43:01.027Z</time></trkpt><trkpt lat="41.6254157" lon="1.8479333"><ele>211.33333333333331</ele><time>2026-04-19T07:43:02.027Z</time></trkpt><trkpt lat="41.6255946" lon="1.8479235"><ele>217.0</ele><time>2026-04-19T07:43:03.027Z</time></trkpt><trkpt lat="41.6257745" lon="1.8479132"><ele>217.0</ele><time>2026-04-19T07:43:04.026Z</time></trkpt><trkpt lat="41.6259513" lon="1.8479031"><ele>217.0</ele><time>2026-04-19T07:43:05.027Z</time></trkpt><trkpt lat="41.6261342" lon="1.8478993"><ele>217.0</ele><time>2026-04-19T07:43:06.027Z</time></trkpt><trkpt lat="41.6263168" lon="1.8478981"><ele>219.0</ele><time>2026-04-19T07:43:07.027Z</time></trkpt><trkpt lat="41.6265023" lon="1.8479029"><ele>221.0</ele><time>2026-04-19T07:43:08.027Z</time></trkpt><trkpt lat="41.6266787" lon="1.8479108"><ele>223.0</ele><time>2026-04-19T07:43:09.027Z</time></trkpt><trkpt lat="41.6268473" lon="1.8479206"><ele>225.66666666666666</ele><time>2026-04-19T07:43:10.026Z</time></trkpt><trkpt lat="41.6270065" lon="1.8479365"><ele>228.33333333333331</ele><time>2026-04-19T07:43:11.027Z</time></trkpt><trkpt lat="41.6271617" lon="1.84795"><ele>231.0</ele><time>2026-04-19T07:43:12.026Z</time></trkpt><trkpt lat="41.6273119" lon="1.8479627"><ele>231.0</ele><time>2026-04-19T07:43:13.027Z</time></trkpt><trkpt lat="41.6274537" lon="1.8479768"><ele>231.0</ele><time>2026-04-19T07:43:14.027Z</time></trkpt><trkpt lat="41.6275931" lon="1.847993"><ele>231.0</ele><time>2026-04-19T07:43:15.027Z</time></trkpt><trkpt lat="41.6277309" lon="1.8480105"><ele>231.0</ele><time>2026-04-19T07:43:16.027Z</time></trkpt><trkpt lat="41.6319345" lon="1.848511"><ele>203.0</ele><time>2026-04-19T07:43:46.027Z</time></trkpt><trkpt lat="41.632286" lon="1.8485199"><ele>175.0</ele><time>2026-04-19T07:43:48.027Z</time></trkpt><trkpt lat="41.6324608" lon="1.8485553"><ele>175.0</ele><time>2026-04-19T07:43:49.027Z</time></trkpt><trkpt lat="41.6326031" lon="1.8485984"><ele>175.0</ele><time>2026-04-19T07:43:50.027Z</time></trkpt><trkpt lat="41.6327704" lon="1.8486305"><ele>175.0</ele><time>2026-04-19T07:43:51.026Z</time></trkpt><trkpt lat="41.6329225" lon="1.8486696"><ele>175.0</ele><time>2026-04-19T07:43:52.026Z</time></trkpt><trkpt lat="41.6330864" lon="1.8487275"><ele>175.0</ele><time>2026-04-19T07:43:53.027Z</time></trkpt><trkpt lat="41.6332405" lon="1.8487877"><ele>175.0</ele><time>2026-04-19T07:43:54.027Z</time></trkpt><trkpt lat="41.6334028" lon="1.848866"><ele>175.0</ele><time>2026-04-19T07:43:55.027Z</time></trkpt><trkpt lat="41.6335635" lon="1.8489392"><ele>175.0</ele><time>2026-04-19T07:43:56.026Z</time></trkpt><trkpt lat="41.6337216" lon="1.8490091"><ele>175.0</ele><time>2026-04-19T07:43:57.027Z</time></trkpt><trkpt lat="41.6338719" lon="1.8490754"><ele>180.33333333333334</ele><time>2026-04-19T07:43:58.026Z</time></trkpt><trkpt lat="41.6340223" lon="1.8491443"><ele>185.66666666666666</ele><time>2026-04-19T07:43:59.027Z</time></trkpt><trkpt lat="41.6341761" lon="1.8492096"><ele>191.0</ele><time>2026-04-19T07:44:00.026Z</time></trkpt><trkpt lat="41.6343293" lon="1.849278"><ele>186.0</ele><time>2026-04-19T07:44:01.026Z</time></trkpt><trkpt lat="41.6344778" lon="1.8493451"><ele>181.0</ele><time>2026-04-19T07:44:02.026Z</time></trkpt><trkpt lat="41.6346212" lon="1.8494113"><ele>176.0</ele><time>2026-04-19T07:44:03.027Z</time></trkpt><trkpt lat="41.634768" lon="1.8494797"><ele>176.0</ele><time>2026-04-19T07:44:04.027Z</time></trkpt><trkpt lat="41.6349302" lon="1.8495502"><ele>176.0</ele><time>2026-04-19T07:44:05.027Z</time></trkpt><trkpt lat="41.6350853" lon="1.8496226"><ele>176.0</ele><time>2026-04-19T07:44:06.027Z</time></trkpt><trkpt lat="41.635238" lon="1.8496904"><ele>179.0</ele><time>2026-04-19T07:44:07.027Z</time></trkpt><trkpt lat="41.6353863" lon="1.8497552"><ele>182.0</ele><time>2026-04-19T07:44:08.026Z</time></trkpt><trkpt lat="41.6355331" lon="1.8498248"><ele>185.0</ele><time>2026-04-19T07:44:09.026Z</time></trkpt><trkpt lat="41.6356806" lon="1.8498959"><ele>185.0</ele><time>2026-04-19T07:44:10.026Z</time></trkpt><trkpt lat="41.6358263" lon="1.8499641"><ele>185.0</ele><time>2026-04-19T07:44:11.027Z</time></trkpt><trkpt lat="41.6359605" lon="1.8500272"><ele>185.0</ele><time>2026-04-19T07:44:12.026Z</time></trkpt><trkpt lat="41.6360927" lon="1.8500884"><ele>185.0</ele><time>2026-04-19T07:44:13.027Z</time></trkpt><trkpt lat="41.6362215" lon="1.8501537"><ele>181.5</ele><time>2026-04-19T07:44:14.027Z</time></trkpt><trkpt lat="41.6363346" lon="1.8502241"><ele>178.0</ele><time>2026-04-19T07:44:15.026Z</time></trkpt><trkpt lat="41.6364498" lon="1.850295"><ele>174.5</ele><time>2026-04-19T07:44:16.027Z</time></trkpt><trkpt lat="41.6365734" lon="1.8503755"><ele>171.0</ele><time>2026-04-19T07:44:17.027Z</time></trkpt><trkpt lat="41.6367005" lon="1.8504617"><ele>171.0</ele><time>2026-04-19T07:44:18.027Z</time></trkpt><trkpt lat="41.6368233" lon="1.8505537"><ele>171.0</ele><time>2026-04-19T07:44:19.027Z</time></trkpt><trkpt lat="41.6369418" lon="1.8506585"><ele>171.0</ele><time>2026-04-19T07:44:20.026Z</time></trkpt><trkpt lat="41.6370599" lon="1.8507654"><ele>171.0</ele><time>2026-04-19T07:44:21.026Z</time></trkpt><trkpt lat="41.6371788" lon="1.8508752"><ele>167.75</ele><time>2026-04-19T07:44:22.027Z</time></trkpt><trkpt lat="41.6372964" lon="1.850986"><ele>164.5</ele><time>2026-04-19T07:44:23.026Z</time></trkpt><trkpt lat="41.6374146" lon="1.8511027"><ele>161.25</ele><time>2026-04-19T07:44:24.027Z</time></trkpt><trkpt lat="41.6375279" lon="1.8512118"><ele>158.0</ele><time>2026-04-19T07:44:25.027Z</time></trkpt><trkpt lat="41.6376393" lon="1.8513178"><ele>158.0</ele><time>2026-04-19T07:44:26.026Z</time></trkpt><trkpt lat="41.6377516" lon="1.8514238"><ele>158.0</ele><time>2026-04-19T07:44:27.027Z</time></trkpt><trkpt lat="41.6378664" lon="1.8515281"><ele>158.0</ele><time>2026-04-19T07:44:28.027Z</time></trkpt><trkpt lat="41.6379825" lon="1.8516399"><ele>158.0</ele><time>2026-04-19T07:44:29.026Z</time></trkpt><trkpt lat="41.6380977" lon="1.8517574"><ele>158.0</ele><time>2026-04-19T07:44:30.027Z</time></trkpt><trkpt lat="41.6382096" lon="1.8518631"><ele>158.0</ele><time>2026-04-19T07:44:31.026Z</time></trkpt><trkpt lat="41.6383158" lon="1.8519657"><ele>158.0</ele><time>2026-04-19T07:44:32.027Z</time></trkpt><trkpt lat="41.6384169" lon="1.8520619"><ele>158.0</ele><time>2026-04-19T07:44:33.026Z</time></trkpt><trkpt lat="41.638516" lon="1.8521595"><ele>158.0</ele><time>2026-04-19T07:44:34.027Z</time></trkpt><trkpt lat="41.6386149" lon="1.8522534"><ele>158.0</ele><time>2026-04-19T07:44:35.026Z</time></trkpt><trkpt lat="41.6387131" lon="1.8523506"><ele>158.0</ele><time>2026-04-19T07:44:36.026Z</time></trkpt><trkpt lat="41.6388117" lon="1.852449"><ele>158.0</ele><time>2026-04-19T07:44:37.027Z</time></trkpt><trkpt lat="41.6389114" lon="1.8525468"><ele>158.5</ele><time>2026-04-19T07:44:38.027Z</time></trkpt><trkpt lat="41.6390147" lon="1.8526461"><ele>159.0</ele><time>2026-04-19T07:44:39.026Z</time></trkpt><trkpt lat="41.6391183" lon="1.8527489"><ele>159.5</ele><time>2026-04-19T07:44:40.027Z</time></trkpt><trkpt lat="41.6392243" lon="1.8528558"><ele>160.0</ele><time>2026-04-19T07:44:41.027Z</time></trkpt><trkpt lat="41.6393342" lon="1.852963"><ele>160.0</ele><time>2026-04-19T07:44:42.026Z</time></trkpt><trkpt lat="41.6394432" lon="1.8530696"><ele>160.0</ele><time>2026-04-19T07:44:43.026Z</time></trkpt><trkpt lat="41.6395487" lon="1.8531773"><ele>160.0</ele><time>2026-04-19T07:44:44.027Z</time></trkpt><trkpt lat="41.6396602" lon="1.8532877"><ele>160.0</ele><time>2026-04-19T07:44:45.027Z</time></trkpt><trkpt lat="41.6397758" lon="1.8534007"><ele>160.25</ele><time>2026-04-19T07:44:46.027Z</time></trkpt><trkpt lat="41.639889" lon="1.8535144"><ele>160.5</ele><time>2026-04-19T07:44:47.026Z</time></trkpt><trkpt lat="41.64" lon="1.8536223"><ele>160.75</ele><time>2026-04-19T07:44:48.027Z</time></trkpt><trkpt lat="41.6401101" lon="1.8537289"><ele>161.0</ele><time>2026-04-19T07:44:49.026Z</time></trkpt><trkpt lat="41.6402186" lon="1.853839"><ele>167.5</ele><time>2026-04-19T07:44:50.027Z</time></trkpt><trkpt lat="41.6403302" lon="1.8539475"><ele>174.0</ele><time>2026-04-19T07:44:51.027Z</time></trkpt><trkpt lat="41.6404416" lon="1.8540565"><ele>180.5</ele><time>2026-04-19T07:44:52.027Z</time></trkpt><trkpt lat="41.6405546" lon="1.8541678"><ele>187.0</ele><time>2026-04-19T07:44:53.026Z</time></trkpt><trkpt lat="41.6406768" lon="1.8542845"><ele>180.66666666666669</ele><time>2026-04-19T07:44:54.026Z</time></trkpt><trkpt lat="41.6408068" lon="1.8544127"><ele>174.33333333333334</ele><time>2026-04-19T07:44:55.026Z</time></trkpt><trkpt lat="41.6409388" lon="1.854543"><ele>168.0</ele><time>2026-04-19T07:44:56.027Z</time></trkpt><trkpt lat="41.6410693" lon="1.8546701"><ele>171.33333333333334</ele><time>2026-04-19T07:44:57.026Z</time></trkpt><trkpt lat="41.641199" lon="1.8548"><ele>174.66666666666669</ele><time>2026-04-19T07:44:58.026Z</time></trkpt><trkpt lat="41.641328" lon="1.8549261"><ele>178.0</ele><time>2026-04-19T07:44:59.027Z</time></trkpt><trkpt lat="41.6414563" lon="1.8550515"><ele>174.0</ele><time>2026-04-19T07:45:00.026Z</time></trkpt><trkpt lat="41.6415906" lon="1.8551727"><ele>170.0</ele><time>2026-04-19T07:45:01.026Z</time></trkpt><trkpt lat="41.641722" lon="1.8553013"><ele>166.0</ele><time>2026-04-19T07:45:02.026Z</time></trkpt><trkpt lat="41.6418686" lon="1.8554474"><ele>163.66666666666669</ele><time>2026-04-19T07:45:03.027Z</time></trkpt><trkpt lat="41.6420212" lon="1.8555951"><ele>161.33333333333334</ele><time>2026-04-19T07:45:04.027Z</time></trkpt><trkpt lat="41.6421675" lon="1.8557398"><ele>159.0</ele><time>2026-04-19T07:45:05.027Z</time></trkpt><trkpt lat="41.64231" lon="1.8558829"><ele>162.66666666666666</ele><time>2026-04-19T07:45:06.027Z</time></trkpt><trkpt lat="41.6424523" lon="1.8560206"><ele>166.33333333333331</ele><time>2026-04-19T07:45:07.027Z</time></trkpt><trkpt lat="41.6425921" lon="1.8561511"><ele>170.0</ele><time>2026-04-19T07:45:08.027Z</time></trkpt><trkpt lat="41.6427304" lon="1.8562716"><ele>173.75</ele><time>2026-04-19T07:45:09.027Z</time></trkpt><trkpt lat="41.6428668" lon="1.856375"><ele>177.5</ele><time>2026-04-19T07:45:10.027Z</time></trkpt><trkpt lat="41.6429965" lon="1.8564621"><ele>181.25</ele><time>2026-04-19T07:45:11.027Z</time></trkpt><trkpt lat="41.6431288" lon="1.8565347"><ele>185.0</ele><time>2026-04-19T07:45:12.027Z</time></trkpt><trkpt lat="41.6432516" lon="1.8565908"><ele>185.0</ele><time>2026-04-19T07:45:13.027Z</time></trkpt><trkpt lat="41.6433664" lon="1.8566314"><ele>185.0</ele><time>2026-04-19T07:45:14.027Z</time></trkpt><trkpt lat="41.6434667" lon="1.8566837"><ele>185.0</ele><time>2026-04-19T07:45:15.027Z</time></trkpt><trkpt lat="41.6435415" lon="1.8567653"><ele>185.0</ele><time>2026-04-19T07:45:16.027Z</time></trkpt><trkpt lat="41.6435918" lon="1.8568717"><ele>185.0</ele><time>2026-04-19T07:45:17.027Z</time></trkpt><trkpt lat="41.6436002" lon="1.8569908"><ele>183.75</ele><time>2026-04-19T07:45:18.026Z</time></trkpt><trkpt lat="41.6435636" lon="1.8571053"><ele>182.5</ele><time>2026-04-19T07:45:19.027Z</time></trkpt><trkpt lat="41.6434906" lon="1.8571966"><ele>181.25</ele><time>2026-04-19T07:45:20.026Z</time></trkpt><trkpt lat="41.6433855" lon="1.8572577"><ele>180.0</ele><time>2026-04-19T07:45:21.027Z</time></trkpt><trkpt lat="41.6432473" lon="1.8573033"><ele>180.0</ele><time>2026-04-19T07:45:22.027Z</time></trkpt><trkpt lat="41.6431062" lon="1.8573152"><ele>180.0</ele><time>2026-04-19T07:45:23.027Z</time></trkpt><trkpt lat="41.6429765" lon="1.8572954"><ele>180.0</ele><time>2026-04-19T07:45:24.027Z</time></trkpt><trkpt lat="41.6428557" lon="1.8572477"><ele>180.0</ele><time>2026-04-19T07:45:25.027Z</time></trkpt><trkpt lat="41.6427539" lon="1.8571611"><ele>180.75</ele><time>2026-04-19T07:45:26.027Z</time></trkpt><trkpt lat="41.6426747" lon="1.8570404"><ele>181.5</ele><time>2026-04-19T07:45:27.026Z</time></trkpt><trkpt lat="41.6426187" lon="1.8568989"><ele>182.25</ele><time>2026-04-19T07:45:28.027Z</time></trkpt><trkpt lat="41.642595" lon="1.8567403"><ele>183.0</ele><time>2026-04-19T07:45:29.027Z</time></trkpt><trkpt lat="41.6426028" lon="1.8565779"><ele>181.60000000000002</ele><time>2026-04-19T07:45:30.027Z</time></trkpt><trkpt lat="41.6426318" lon="1.8564196"><ele>180.20000000000002</ele><time>2026-04-19T07:45:31.027Z</time></trkpt><trkpt lat="41.6426707" lon="1.8562667"><ele>178.8</ele><time>2026-04-19T07:45:32.026Z</time></trkpt><trkpt lat="41.642703" lon="1.8561211"><ele>177.4</ele><time>2026-04-19T07:45:33.027Z</time></trkpt><trkpt lat="41.6427493" lon="1.8560235"><ele>176.0</ele><time>2026-04-19T07:45:34.027Z</time></trkpt><trkpt lat="41.6428188" lon="1.8559406"><ele>176.0</ele><time>2026-04-19T07:45:35.027Z</time></trkpt><trkpt lat="41.6428829" lon="1.8558821"><ele>176.0</ele><time>2026-04-19T07:45:36.026Z</time></trkpt><trkpt lat="41.6429411" lon="1.8558185"><ele>176.0</ele><time>2026-04-19T07:45:37.027Z</time></trkpt><trkpt lat="41.6429865" lon="1.8557554"><ele>176.0</ele><time>2026-04-19T07:45:38.027Z</time></trkpt><trkpt lat="41.6430538" lon="1.8556401"><ele>176.0</ele><time>2026-04-19T07:45:40.026Z</time></trkpt><trkpt lat="41.6431372" lon="1.8554953"><ele>176.0</ele><time>2026-04-19T07:45:42.027Z</time></trkpt><trkpt lat="41.6431985" lon="1.8554058"><ele>176.0</ele><time>2026-04-19T07:45:43.026Z</time></trkpt><trkpt lat="41.6432723" lon="1.8553086"><ele>176.0</ele><time>2026-04-19T07:45:44.027Z</time></trkpt><trkpt lat="41.6433539" lon="1.8552027"><ele>176.0</ele><time>2026-04-19T07:45:45.027Z</time></trkpt><trkpt lat="41.6434368" lon="1.8550932"><ele>176.0</ele><time>2026-04-19T07:45:46.026Z</time></trkpt><trkpt lat="41.6435319" lon="1.8549632"><ele>173.5</ele><time>2026-04-19T07:45:47.026Z</time></trkpt><trkpt lat="41.6436253" lon="1.8548348"><ele>171.0</ele><time>2026-04-19T07:45:48.027Z</time></trkpt><trkpt lat="41.6437279" lon="1.8547132"><ele>168.5</ele><time>2026-04-19T07:45:49.026Z</time></trkpt><trkpt lat="41.6438452" lon="1.8545945"><ele>166.0</ele><time>2026-04-19T07:45:50.027Z</time></trkpt><trkpt lat="41.6439732" lon="1.8544878"><ele>167.25</ele><time>2026-04-19T07:45:51.026Z</time></trkpt><trkpt lat="41.6441045" lon="1.854398"><ele>168.5</ele><time>2026-04-19T07:45:52.026Z</time></trkpt><trkpt lat="41.6442289" lon="1.8543117"><ele>169.75</ele><time>2026-04-19T07:45:53.027Z</time></trkpt><trkpt lat="41.6443502" lon="1.8542254"><ele>171.0</ele><time>2026-04-19T07:45:54.026Z</time></trkpt><trkpt lat="41.6444818" lon="1.8541343"><ele>177.66666666666666</ele><time>2026-04-19T07:45:55.027Z</time></trkpt><trkpt lat="41.6446203" lon="1.8540373"><ele>184.33333333333331</ele><time>2026-04-19T07:45:56.027Z</time></trkpt><trkpt lat="41.6447509" lon="1.8539341"><ele>191.0</ele><time>2026-04-19T07:45:57.027Z</time></trkpt><trkpt lat="41.6448724" lon="1.8538336"><ele>191.0</ele><time>2026-04-19T07:45:58.027Z</time></trkpt><trkpt lat="41.6449825" lon="1.8537341"><ele>191.0</ele><time>2026-04-19T07:45:59.026Z</time></trkpt><trkpt lat="41.645093" lon="1.8536515"><ele>191.0</ele><time>2026-04-19T07:46:00.026Z</time></trkpt><trkpt lat="41.6452051" lon="1.8535911"><ele>191.0</ele><time>2026-04-19T07:46:01.027Z</time></trkpt><trkpt lat="41.6453133" lon="1.8535066"><ele>190.25</ele><time>2026-04-19T07:46:02.027Z</time></trkpt><trkpt lat="41.6454135" lon="1.8533938"><ele>189.5</ele><time>2026-04-19T07:46:03.027Z</time></trkpt><trkpt lat="41.6455072" lon="1.8532805"><ele>188.75</ele><time>2026-04-19T07:46:04.026Z</time></trkpt><trkpt lat="41.6455825" lon="1.8531667"><ele>188.0</ele><time>2026-04-19T07:46:05.027Z</time></trkpt><trkpt lat="41.6456359" lon="1.8530708"><ele>188.0</ele><time>2026-04-19T07:46:06.027Z</time></trkpt><trkpt lat="41.645676" lon="1.8529638"><ele>188.0</ele><time>2026-04-19T07:46:07.027Z</time></trkpt><trkpt lat="41.6457196" lon="1.8528455"><ele>188.0</ele><time>2026-04-19T07:46:08.027Z</time></trkpt><trkpt lat="41.6457707" lon="1.8527164"><ele>188.0</ele><time>2026-04-19T07:46:09.026Z</time></trkpt><trkpt lat="41.6458231" lon="1.8525788"><ele>188.0</ele><time>2026-04-19T07:46:10.027Z</time></trkpt><trkpt lat="41.6458763" lon="1.8524342"><ele>186.5</ele><time>2026-04-19T07:46:11.026Z</time></trkpt><trkpt lat="41.6459338" lon="1.8522829"><ele>185.0</ele><time>2026-04-19T07:46:12.027Z</time></trkpt><trkpt lat="41.6459907" lon="1.8521292"><ele>183.5</ele><time>2026-04-19T07:46:13.027Z</time></trkpt><trkpt lat="41.64605" lon="1.8519672"><ele>182.0</ele><time>2026-04-19T07:46:14.026Z</time></trkpt><trkpt lat="41.6461098" lon="1.8518079"><ele>184.5</ele><time>2026-04-19T07:46:15.026Z</time></trkpt><trkpt lat="41.6461752" lon="1.8516591"><ele>187.0</ele><time>2026-04-19T07:46:16.026Z</time></trkpt><trkpt lat="41.6462528" lon="1.8515235"><ele>189.5</ele><time>2026-04-19T07:46:17.026Z</time></trkpt><trkpt lat="41.6463504" lon="1.8514229"><ele>192.0</ele><time>2026-04-19T07:46:18.026Z</time></trkpt><trkpt lat="41.6464759" lon="1.8513609"><ele>192.0</ele><time>2026-04-19T07:46:19.026Z</time></trkpt><trkpt lat="41.6466074" lon="1.851323"><ele>192.0</ele><time>2026-04-19T07:46:20.026Z</time></trkpt><trkpt lat="41.6467285" lon="1.8512901"><ele>192.0</ele><time>2026-04-19T07:46:21.027Z</time></trkpt><trkpt lat="41.6468383" lon="1.8512561"><ele>192.0</ele><time>2026-04-19T07:46:22.026Z</time></trkpt><trkpt lat="41.6469217" lon="1.8511957"><ele>193.6</ele><time>2026-04-19T07:46:23.027Z</time></trkpt><trkpt lat="41.6469745" lon="1.8511016"><ele>195.2</ele><time>2026-04-19T07:46:24.026Z</time></trkpt><trkpt lat="41.6469951" lon="1.8509786"><ele>196.8</ele><time>2026-04-19T07:46:25.027Z</time></trkpt><trkpt lat="41.6469755" lon="1.8508553"><ele>198.4</ele><time>2026-04-19T07:46:26.026Z</time></trkpt><trkpt lat="41.6469271" lon="1.8507361"><ele>200.0</ele><time>2026-04-19T07:46:27.027Z</time></trkpt><trkpt lat="41.6468708" lon="1.8505973"><ele>195.25</ele><time>2026-04-19T07:46:28.026Z</time></trkpt><trkpt lat="41.6468345" lon="1.85045"><ele>190.5</ele><time>2026-04-19T07:46:29.027Z</time></trkpt><trkpt lat="41.6468228" lon="1.8503025"><ele>185.75</ele><time>2026-04-19T07:46:30.027Z</time></trkpt><trkpt lat="41.6468327" lon="1.8501503"><ele>181.0</ele><time>2026-04-19T07:46:31.027Z</time></trkpt><trkpt lat="41.6468531" lon="1.8499957"><ele>180.75</ele><time>2026-04-19T07:46:32.027Z</time></trkpt><trkpt lat="41.6468748" lon="1.8498336"><ele>180.5</ele><time>2026-04-19T07:46:33.027Z</time></trkpt><trkpt lat="41.6468978" lon="1.8496703"><ele>180.25</ele><time>2026-04-19T07:46:34.027Z</time></trkpt><trkpt lat="41.6469238" lon="1.8494989"><ele>180.0</ele><time>2026-04-19T07:46:35.026Z</time></trkpt><trkpt lat="41.646948" lon="1.8493341"><ele>188.5</ele><time>2026-04-19T07:46:36.027Z</time></trkpt><trkpt lat="41.6469702" lon="1.8491706"><ele>197.0</ele><time>2026-04-19T07:46:37.027Z</time></trkpt><trkpt lat="41.6469975" lon="1.8490021"><ele>205.5</ele><time>2026-04-19T07:46:38.026Z</time></trkpt><trkpt lat="41.6470457" lon="1.8488291"><ele>214.0</ele><time>2026-04-19T07:46:39.027Z</time></trkpt><trkpt lat="41.6471089" lon="1.8486639"><ele>214.0</ele><time>2026-04-19T07:46:40.027Z</time></trkpt><trkpt lat="41.6471712" lon="1.8485158"><ele>214.0</ele><time>2026-04-19T07:46:41.027Z</time></trkpt><trkpt lat="41.6472165" lon="1.8483685"><ele>214.0</ele><time>2026-04-19T07:46:42.026Z</time></trkpt><trkpt lat="41.6472359" lon="1.8482211"><ele>214.0</ele><time>2026-04-19T07:46:43.026Z</time></trkpt><trkpt lat="41.6472412" lon="1.8480803"><ele>210.75</ele><time>2026-04-19T07:46:44.026Z</time></trkpt><trkpt lat="41.6471577" lon="1.8479541"><ele>207.5</ele><time>2026-04-19T07:46:45.026Z</time></trkpt><trkpt lat="41.6470737" lon="1.8478478"><ele>204.25</ele><time>2026-04-19T07:46:46.026Z</time></trkpt><trkpt lat="41.6469864" lon="1.847734"><ele>201.0</ele><time>2026-04-19T07:46:47.026Z</time></trkpt><trkpt lat="41.6469113" lon="1.8475969"><ele>197.60000000000002</ele><time>2026-04-19T07:46:48.027Z</time></trkpt><trkpt lat="41.646861" lon="1.847449"><ele>194.2</ele><time>2026-04-19T07:46:49.026Z</time></trkpt><trkpt lat="41.6468268" lon="1.8473085"><ele>190.8</ele><time>2026-04-19T07:46:50.026Z</time></trkpt><trkpt lat="41.6467962" lon="1.8471753"><ele>187.39999999999998</ele><time>2026-04-19T07:46:51.027Z</time></trkpt><trkpt lat="41.6467691" lon="1.8470378"><ele>184.0</ele><time>2026-04-19T07:46:52.026Z</time></trkpt><trkpt lat="41.6467369" lon="1.8469015"><ele>185.79999999999998</ele><time>2026-04-19T07:46:53.026Z</time></trkpt><trkpt lat="41.6467014" lon="1.8467665"><ele>187.6</ele><time>2026-04-19T07:46:54.027Z</time></trkpt><trkpt lat="41.6466664" lon="1.8466268"><ele>189.4</ele><time>2026-04-19T07:46:55.027Z</time></trkpt><trkpt lat="41.6466341" lon="1.8464897"><ele>191.2</ele><time>2026-04-19T07:46:56.027Z</time></trkpt><trkpt lat="41.646603" lon="1.8463599"><ele>193.0</ele><time>2026-04-19T07:46:57.026Z</time></trkpt><trkpt lat="41.6465708" lon="1.8462311"><ele>193.0</ele><time>2026-04-19T07:46:58.027Z</time></trkpt><trkpt lat="41.6465316" lon="1.8461065"><ele>193.0</ele><time>2026-04-19T07:46:59.027Z</time></trkpt><trkpt lat="41.6464715" lon="1.8459909"><ele>193.0</ele><time>2026-04-19T07:47:00.027Z</time></trkpt><trkpt lat="41.6464115" lon="1.845881"><ele>193.0</ele><time>2026-04-19T07:47:01.026Z</time></trkpt><trkpt lat="41.6463562" lon="1.8457637"><ele>193.0</ele><time>2026-04-19T07:47:02.026Z</time></trkpt><trkpt lat="41.6463368" lon="1.8456548"><ele>194.4</ele><time>2026-04-19T07:47:03.027Z</time></trkpt><trkpt lat="41.6463099" lon="1.8455496"><ele>195.8</ele><time>2026-04-19T07:47:04.026Z</time></trkpt><trkpt lat="41.6463018" lon="1.8454107"><ele>197.2</ele><time>2026-04-19T07:47:05.027Z</time></trkpt><trkpt lat="41.6463091" lon="1.8452748"><ele>198.6</ele><time>2026-04-19T07:47:06.026Z</time></trkpt><trkpt lat="41.6463205" lon="1.8451346"><ele>200.0</ele><time>2026-04-19T07:47:07.027Z</time></trkpt><trkpt lat="41.6463352" lon="1.8449913"><ele>200.4</ele><time>2026-04-19T07:47:08.026Z</time></trkpt><trkpt lat="41.6463538" lon="1.8448493"><ele>200.8</ele><time>2026-04-19T07:47:09.027Z</time></trkpt><trkpt lat="41.6463824" lon="1.8447148"><ele>201.2</ele><time>2026-04-19T07:47:10.026Z</time></trkpt><trkpt lat="41.6464196" lon="1.8445829"><ele>201.6</ele><time>2026-04-19T07:47:11.026Z</time></trkpt><trkpt lat="41.6464686" lon="1.8444531"><ele>202.0</ele><time>2026-04-19T07:47:12.026Z</time></trkpt><trkpt lat="41.6465223" lon="1.8443218"><ele>199.75</ele><time>2026-04-19T07:47:13.026Z</time></trkpt><trkpt lat="41.6465768" lon="1.8441878"><ele>197.5</ele><time>2026-04-19T07:47:14.027Z</time></trkpt><trkpt lat="41.6466299" lon="1.8440455"><ele>195.25</ele><time>2026-04-19T07:47:15.026Z</time></trkpt><trkpt lat="41.6466872" lon="1.8439"><ele>193.0</ele><time>2026-04-19T07:47:16.026Z</time></trkpt><trkpt lat="41.6467475" lon="1.8437516"><ele>193.0</ele><time>2026-04-19T07:47:17.027Z</time></trkpt><trkpt lat="41.646808" lon="1.843597"><ele>193.0</ele><time>2026-04-19T07:47:18.026Z</time></trkpt><trkpt lat="41.6468695" lon="1.8434383"><ele>193.0</ele><time>2026-04-19T07:47:19.027Z</time></trkpt><trkpt lat="41.6469304" lon="1.8432827"><ele>193.0</ele><time>2026-04-19T07:47:20.027Z</time></trkpt><trkpt lat="41.6469881" lon="1.8431279"><ele>193.25</ele><time>2026-04-19T07:47:21.027Z</time></trkpt><trkpt lat="41.6470458" lon="1.8429709"><ele>193.5</ele><time>2026-04-19T07:47:22.027Z</time></trkpt><trkpt lat="41.6470982" lon="1.8428172"><ele>193.75</ele><time>2026-04-19T07:47:23.027Z</time></trkpt><trkpt lat="41.6471398" lon="1.8426633"><ele>194.0</ele><time>2026-04-19T07:47:24.027Z</time></trkpt><trkpt lat="41.6471609" lon="1.8425004"><ele>194.0</ele><time>2026-04-19T07:47:25.026Z</time></trkpt><trkpt lat="41.6471653" lon="1.8423344"><ele>194.0</ele><time>2026-04-19T07:47:26.026Z</time></trkpt><trkpt lat="41.6471495" lon="1.8421715"><ele>194.0</ele><time>2026-04-19T07:47:27.027Z</time></trkpt><trkpt lat="41.6471141" lon="1.8420171"><ele>194.0</ele><time>2026-04-19T07:47:28.026Z</time></trkpt><trkpt lat="41.6470732" lon="1.8418614"><ele>193.66666666666669</ele><time>2026-04-19T07:47:29.027Z</time></trkpt><trkpt lat="41.6470154" lon="1.8416963"><ele>193.33333333333331</ele><time>2026-04-19T07:47:30.027Z</time></trkpt><trkpt lat="41.646949" lon="1.8415021"><ele>193.0</ele><time>2026-04-19T07:47:31.027Z</time></trkpt><trkpt lat="41.6468809" lon="1.8412751"><ele>191.33333333333331</ele><time>2026-04-19T07:47:32.026Z</time></trkpt><trkpt lat="41.6468085" lon="1.8410191"><ele>189.66666666666666</ele><time>2026-04-19T07:47:33.026Z</time></trkpt><trkpt lat="41.6467428" lon="1.8407428"><ele>188.0</ele><time>2026-04-19T07:47:34.026Z</time></trkpt><trkpt lat="41.6466768" lon="1.8404828"><ele>188.0</ele><time>2026-04-19T07:47:35.027Z</time></trkpt><trkpt lat="41.646613" lon="1.8402478"><ele>188.0</ele><time>2026-04-19T07:47:36.027Z</time></trkpt><trkpt lat="41.6465546" lon="1.8400275"><ele>188.0</ele><time>2026-04-19T07:47:37.027Z</time></trkpt><trkpt lat="41.6464956" lon="1.8398163"><ele>190.66666666666666</ele><time>2026-04-19T07:47:38.027Z</time></trkpt><trkpt lat="41.646437" lon="1.8396041"><ele>193.33333333333331</ele><time>2026-04-19T07:47:39.027Z</time></trkpt><trkpt lat="41.6463724" lon="1.8393851"><ele>196.0</ele><time>2026-04-19T07:47:40.026Z</time></trkpt><trkpt lat="41.6463084" lon="1.8391718"><ele>198.33333333333331</ele><time>2026-04-19T07:47:41.026Z</time></trkpt><trkpt lat="41.6462567" lon="1.8389611"><ele>200.66666666666669</ele><time>2026-04-19T07:47:42.027Z</time></trkpt><trkpt lat="41.6462231" lon="1.8387309"><ele>203.0</ele><time>2026-04-19T07:47:43.026Z</time></trkpt><trkpt lat="41.6462129" lon="1.8384938"><ele>204.0</ele><time>2026-04-19T07:47:44.027Z</time></trkpt><trkpt lat="41.6462307" lon="1.838246"><ele>205.0</ele><time>2026-04-19T07:47:45.027Z</time></trkpt><trkpt lat="41.6462642" lon="1.8379874"><ele>206.0</ele><time>2026-04-19T07:47:46.027Z</time></trkpt><trkpt lat="41.6463082" lon="1.8377296"><ele>206.66666666666669</ele><time>2026-04-19T07:47:47.026Z</time></trkpt><trkpt lat="41.6463436" lon="1.8374623"><ele>207.33333333333331</ele><time>2026-04-19T07:47:48.027Z</time></trkpt><trkpt lat="41.6463861" lon="1.8372013"><ele>208.0</ele><time>2026-04-19T07:47:49.027Z</time></trkpt><trkpt lat="41.6464228" lon="1.8369568"><ele>208.66666666666666</ele><time>2026-04-19T07:47:50.026Z</time></trkpt><trkpt lat="41.6464521" lon="1.8367321"><ele>209.33333333333331</ele><time>2026-04-19T07:47:51.027Z</time></trkpt><trkpt lat="41.6464818" lon="1.8365244"><ele>210.0</ele><time>2026-04-19T07:47:52.027Z</time></trkpt><trkpt lat="41.6465168" lon="1.8363239"><ele>210.0</ele><time>2026-04-19T07:47:53.026Z</time></trkpt><trkpt lat="41.6465622" lon="1.83613"><ele>210.0</ele><time>2026-04-19T07:47:54.027Z</time></trkpt><trkpt lat="41.6466253" lon="1.8359364"><ele>210.0</ele><time>2026-04-19T07:47:55.027Z</time></trkpt><trkpt lat="41.6466891" lon="1.8357402"><ele>209.0</ele><time>2026-04-19T07:47:56.027Z</time></trkpt><trkpt lat="41.6467605" lon="1.8355394"><ele>208.0</ele><time>2026-04-19T07:47:57.027Z</time></trkpt><trkpt lat="41.6468417" lon="1.8353427"><ele>207.0</ele><time>2026-04-19T07:47:58.026Z</time></trkpt><trkpt lat="41.6469284" lon="1.8351433"><ele>214.0</ele><time>2026-04-19T07:47:59.027Z</time></trkpt><trkpt lat="41.6470118" lon="1.8349397"><ele>221.0</ele><time>2026-04-19T07:48:00.026Z</time></trkpt><trkpt lat="41.647091" lon="1.8347417"><ele>228.0</ele><time>2026-04-19T07:48:01.027Z</time></trkpt><trkpt lat="41.6471449" lon="1.8345362"><ele>228.0</ele><time>2026-04-19T07:48:02.027Z</time></trkpt><trkpt lat="41.647181" lon="1.8343149"><ele>228.0</ele><time>2026-04-19T07:48:03.026Z</time></trkpt><trkpt lat="41.647206" lon="1.8340805"><ele>228.0</ele><time>2026-04-19T07:48:04.026Z</time></trkpt><trkpt lat="41.6472305" lon="1.8338492"><ele>225.0</ele><time>2026-04-19T07:48:05.027Z</time></trkpt><trkpt lat="41.6472503" lon="1.8336194"><ele>222.0</ele><time>2026-04-19T07:48:06.026Z</time></trkpt><trkpt lat="41.6472623" lon="1.8334056"><ele>219.0</ele><time>2026-04-19T07:48:07.027Z</time></trkpt><trkpt lat="41.647257" lon="1.8332034"><ele>218.5</ele><time>2026-04-19T07:48:08.026Z</time></trkpt><trkpt lat="41.6472203" lon="1.8330093"><ele>218.0</ele><time>2026-04-19T07:48:09.026Z</time></trkpt><trkpt lat="41.6471695" lon="1.8328299"><ele>217.5</ele><time>2026-04-19T07:48:10.027Z</time></trkpt><trkpt lat="41.6471313" lon="1.8326583"><ele>217.0</ele><time>2026-04-19T07:48:11.026Z</time></trkpt><trkpt lat="41.6471163" lon="1.8324871"><ele>217.0</ele><time>2026-04-19T07:48:12.027Z</time></trkpt><trkpt lat="41.647121" lon="1.8323059"><ele>217.0</ele><time>2026-04-19T07:48:13.027Z</time></trkpt><trkpt lat="41.647133" lon="1.8321284"><ele>217.0</ele><time>2026-04-19T07:48:14.027Z</time></trkpt><trkpt lat="41.6471442" lon="1.8319565"><ele>217.0</ele><time>2026-04-19T07:48:15.026Z</time></trkpt><trkpt lat="41.6471544" lon="1.8317953"><ele>216.75</ele><time>2026-04-19T07:48:16.026Z</time></trkpt><trkpt lat="41.6471679" lon="1.831639"><ele>216.5</ele><time>2026-04-19T07:48:17.027Z</time></trkpt><trkpt lat="41.6471777" lon="1.8314845"><ele>216.25</ele><time>2026-04-19T07:48:18.027Z</time></trkpt><trkpt lat="41.6471873" lon="1.8313346"><ele>216.0</ele><time>2026-04-19T07:48:19.026Z</time></trkpt><trkpt lat="41.6471952" lon="1.8311923"><ele>216.0</ele><time>2026-04-19T07:48:20.027Z</time></trkpt><trkpt lat="41.6472023" lon="1.8310446"><ele>216.00000000000003</ele><time>2026-04-19T07:48:21.027Z</time></trkpt><trkpt lat="41.6472123" lon="1.83091"><ele>216.00000000000003</ele><time>2026-04-19T07:48:22.027Z</time></trkpt><trkpt lat="41.6472235" lon="1.8307788"><ele>216.0</ele><time>2026-04-19T07:48:23.027Z</time></trkpt><trkpt lat="41.6472353" lon="1.8306459"><ele>216.0</ele><time>2026-04-19T07:48:24.027Z</time></trkpt><trkpt lat="41.6472486" lon="1.8305159"><ele>215.4</ele><time>2026-04-19T07:48:25.027Z</time></trkpt><trkpt lat="41.6472576" lon="1.830396"><ele>214.8</ele><time>2026-04-19T07:48:26.026Z</time></trkpt><trkpt lat="41.6472658" lon="1.8302724"><ele>214.20000000000002</ele><time>2026-04-19T07:48:27.026Z</time></trkpt><trkpt lat="41.6472762" lon="1.8301459"><ele>213.60000000000002</ele><time>2026-04-19T07:48:28.026Z</time></trkpt><trkpt lat="41.6472937" lon="1.8300228"><ele>213.0</ele><time>2026-04-19T07:48:29.027Z</time></trkpt><trkpt lat="41.6473311" lon="1.8299058"><ele>212.60000000000002</ele><time>2026-04-19T07:48:30.027Z</time></trkpt><trkpt lat="41.6473812" lon="1.8297965"><ele>212.20000000000002</ele><time>2026-04-19T07:48:31.027Z</time></trkpt><trkpt lat="41.6474469" lon="1.8296988"><ele>211.8</ele><time>2026-04-19T07:48:32.027Z</time></trkpt><trkpt lat="41.6475259" lon="1.8296111"><ele>211.4</ele><time>2026-04-19T07:48:33.027Z</time></trkpt><trkpt lat="41.6476072" lon="1.8295218"><ele>211.0</ele><time>2026-04-19T07:48:34.026Z</time></trkpt><trkpt lat="41.6476889" lon="1.8294323"><ele>211.0</ele><time>2026-04-19T07:48:35.026Z</time></trkpt><trkpt lat="41.6477684" lon="1.8293435"><ele>211.0</ele><time>2026-04-19T07:48:36.027Z</time></trkpt><trkpt lat="41.647844" lon="1.829262"><ele>211.0</ele><time>2026-04-19T07:48:37.027Z</time></trkpt><trkpt lat="41.6479114" lon="1.8291894"><ele>211.0</ele><time>2026-04-19T07:48:38.026Z</time></trkpt><trkpt lat="41.6479668" lon="1.8291258"><ele>211.0</ele><time>2026-04-19T07:48:39.027Z</time></trkpt><trkpt lat="41.6480477" lon="1.8290264"><ele>213.0</ele><time>2026-04-19T07:48:41.027Z</time></trkpt><trkpt lat="41.6481079" lon="1.8289587"><ele>215.0</ele><time>2026-04-19T07:48:43.027Z</time></trkpt><trkpt lat="41.6481534" lon="1.8288669"><ele>217.0</ele><time>2026-04-19T07:50:11.026Z</time></trkpt><trkpt lat="41.6482135" lon="1.828612"><ele>219.0</ele><time>2026-04-19T07:50:13.027Z</time></trkpt><trkpt lat="41.648237" lon="1.828483"><ele>219.33333333333334</ele><time>2026-04-19T07:50:14.027Z</time></trkpt><trkpt lat="41.6482587" lon="1.8283877"><ele>219.66666666666669</ele><time>2026-04-19T07:50:15.027Z</time></trkpt><trkpt lat="41.648278" lon="1.8283069"><ele>220.0</ele><time>2026-04-19T07:50:16.026Z</time></trkpt><trkpt lat="41.6483052" lon="1.8281524"><ele>220.33333333333334</ele><time>2026-04-19T07:50:18.027Z</time></trkpt><trkpt lat="41.648324" lon="1.8280717"><ele>220.66666666666669</ele><time>2026-04-19T07:50:19.027Z</time></trkpt><trkpt lat="41.6483458" lon="1.8279818"><ele>221.0</ele><time>2026-04-19T07:50:20.027Z</time></trkpt><trkpt lat="41.6483634" lon="1.8278905"><ele>221.00000000000003</ele><time>2026-04-19T07:50:21.027Z</time></trkpt><trkpt lat="41.6483867" lon="1.8277921"><ele>221.0</ele><time>2026-04-19T07:50:22.027Z</time></trkpt><trkpt lat="41.6484079" lon="1.8276867"><ele>221.0</ele><time>2026-04-19T07:50:23.027Z</time></trkpt><trkpt lat="41.6484368" lon="1.8275824"><ele>221.0</ele><time>2026-04-19T07:50:24.027Z</time></trkpt><trkpt lat="41.6484702" lon="1.8274658"><ele>221.00000000000003</ele><time>2026-04-19T07:50:25.026Z</time></trkpt><trkpt lat="41.6485068" lon="1.8273359"><ele>221.0</ele><time>2026-04-19T07:50:26.027Z</time></trkpt><trkpt lat="41.6485448" lon="1.8271972"><ele>221.25</ele><time>2026-04-19T07:50:27.027Z</time></trkpt><trkpt lat="41.6485893" lon="1.8270568"><ele>221.5</ele><time>2026-04-19T07:50:28.027Z</time></trkpt><trkpt lat="41.6486485" lon="1.8269264"><ele>221.75</ele><time>2026-04-19T07:50:29.027Z</time></trkpt><trkpt lat="41.6487184" lon="1.826808"><ele>222.0</ele><time>2026-04-19T07:50:30.026Z</time></trkpt><trkpt lat="41.6487927" lon="1.8266854"><ele>222.0</ele><time>2026-04-19T07:50:31.026Z</time></trkpt><trkpt lat="41.6488737" lon="1.8265578"><ele>222.0</ele><time>2026-04-19T07:50:32.027Z</time></trkpt><trkpt lat="41.6489622" lon="1.8264266"><ele>222.0</ele><time>2026-04-19T07:50:33.026Z</time></trkpt><trkpt lat="41.6490554" lon="1.8262952"><ele>222.0</ele><time>2026-04-19T07:50:34.027Z</time></trkpt><trkpt lat="41.6491503" lon="1.8261517"><ele>222.0</ele><time>2026-04-19T07:50:35.027Z</time></trkpt><trkpt lat="41.6492468" lon="1.8260042"><ele>222.0</ele><time>2026-04-19T07:50:36.027Z</time></trkpt><trkpt lat="41.6493442" lon="1.8258538"><ele>222.0</ele><time>2026-04-19T07:50:37.027Z</time></trkpt><trkpt lat="41.6494431" lon="1.8257091"><ele>222.0</ele><time>2026-04-19T07:50:38.027Z</time></trkpt><trkpt lat="41.6495397" lon="1.8255575"><ele>222.25</ele><time>2026-04-19T07:50:39.027Z</time></trkpt><trkpt lat="41.649635" lon="1.8254063"><ele>222.5</ele><time>2026-04-19T07:50:40.027Z</time></trkpt><trkpt lat="41.6497238" lon="1.8252662"><ele>222.75</ele><time>2026-04-19T07:50:41.027Z</time></trkpt><trkpt lat="41.649812" lon="1.8251315"><ele>223.0</ele><time>2026-04-19T07:50:42.026Z</time></trkpt><trkpt lat="41.6499099" lon="1.8250047"><ele>223.0</ele><time>2026-04-19T07:50:43.026Z</time></trkpt><trkpt lat="41.6500217" lon="1.8248982"><ele>223.0</ele><time>2026-04-19T07:50:44.027Z</time></trkpt><trkpt lat="41.650146" lon="1.8248028"><ele>223.0</ele><time>2026-04-19T07:50:45.026Z</time></trkpt><trkpt lat="41.650269" lon="1.8247118"><ele>223.0</ele><time>2026-04-19T07:50:46.026Z</time></trkpt><trkpt lat="41.6503882" lon="1.8246255"><ele>223.5</ele><time>2026-04-19T07:50:47.026Z</time></trkpt><trkpt lat="41.6504867" lon="1.8245286"><ele>224.0</ele><time>2026-04-19T07:50:48.026Z</time></trkpt><trkpt lat="41.6505695" lon="1.8244129"><ele>224.5</ele><time>2026-04-19T07:50:49.027Z</time></trkpt><trkpt lat="41.6506278" lon="1.8242624"><ele>225.0</ele><time>2026-04-19T07:50:50.026Z</time></trkpt><trkpt lat="41.6506586" lon="1.8240905"><ele>225.0</ele><time>2026-04-19T07:50:51.026Z</time></trkpt><trkpt lat="41.6506638" lon="1.8238914"><ele>225.0</ele><time>2026-04-19T07:50:52.026Z</time></trkpt><trkpt lat="41.6506585" lon="1.8236744"><ele>225.0</ele><time>2026-04-19T07:50:53.027Z</time></trkpt><trkpt lat="41.6506472" lon="1.8234564"><ele>225.75</ele><time>2026-04-19T07:50:54.026Z</time></trkpt><trkpt lat="41.6506388" lon="1.8232465"><ele>226.5</ele><time>2026-04-19T07:50:55.027Z</time></trkpt><trkpt lat="41.6506296" lon="1.8230573"><ele>227.25</ele><time>2026-04-19T07:50:56.026Z</time></trkpt><trkpt lat="41.6506084" lon="1.8228807"><ele>228.0</ele><time>2026-04-19T07:50:57.027Z</time></trkpt><trkpt lat="41.6505644" lon="1.8227069"><ele>229.0</ele><time>2026-04-19T07:50:58.026Z</time></trkpt><trkpt lat="41.6504965" lon="1.8225298"><ele>230.0</ele><time>2026-04-19T07:50:59.027Z</time></trkpt><trkpt lat="41.650415" lon="1.82234"><ele>231.0</ele><time>2026-04-19T07:51:00.027Z</time></trkpt><trkpt lat="41.6503261" lon="1.822148"><ele>228.0</ele><time>2026-04-19T07:51:01.026Z</time></trkpt><trkpt lat="41.6502377" lon="1.8219574"><ele>225.0</ele><time>2026-04-19T07:51:02.026Z</time></trkpt><trkpt lat="41.650151" lon="1.8217714"><ele>222.0</ele><time>2026-04-19T07:51:03.026Z</time></trkpt><trkpt lat="41.650071" lon="1.8215936"><ele>221.75</ele><time>2026-04-19T07:51:04.027Z</time></trkpt><trkpt lat="41.6499932" lon="1.8214251"><ele>221.5</ele><time>2026-04-19T07:51:05.026Z</time></trkpt><trkpt lat="41.6499143" lon="1.8212675"><ele>221.25</ele><time>2026-04-19T07:51:06.026Z</time></trkpt><trkpt lat="41.6498444" lon="1.821117"><ele>221.0</ele><time>2026-04-19T07:51:07.027Z</time></trkpt><trkpt lat="41.6497991" lon="1.8209618"><ele>221.75</ele><time>2026-04-19T07:51:08.027Z</time></trkpt><trkpt lat="41.6497918" lon="1.8208006"><ele>222.5</ele><time>2026-04-19T07:51:09.027Z</time></trkpt><trkpt lat="41.6498233" lon="1.820643"><ele>223.25</ele><time>2026-04-19T07:51:10.027Z</time></trkpt><trkpt lat="41.649895" lon="1.8205098"><ele>224.0</ele><time>2026-04-19T07:51:11.027Z</time></trkpt><trkpt lat="41.6500048" lon="1.8203894"><ele>224.0</ele><time>2026-04-19T07:51:12.026Z</time></trkpt><trkpt lat="41.6501287" lon="1.8202647"><ele>224.0</ele><time>2026-04-19T07:51:13.026Z</time></trkpt><trkpt lat="41.6502587" lon="1.8201328"><ele>224.0</ele><time>2026-04-19T07:51:14.026Z</time></trkpt><trkpt lat="41.6503843" lon="1.8200115"><ele>228.0</ele><time>2026-04-19T07:51:15.026Z</time></trkpt><trkpt lat="41.6505017" lon="1.8198889"><ele>232.0</ele><time>2026-04-19T07:51:16.027Z</time></trkpt><trkpt lat="41.6506004" lon="1.819739"><ele>236.0</ele><time>2026-04-19T07:51:17.026Z</time></trkpt><trkpt lat="41.6506878" lon="1.819552"><ele>236.0</ele><time>2026-04-19T07:51:18.027Z</time></trkpt><trkpt lat="41.6507587" lon="1.8193424"><ele>236.0</ele><time>2026-04-19T07:51:19.027Z</time></trkpt><trkpt lat="41.650816" lon="1.8191206"><ele>236.0</ele><time>2026-04-19T07:51:20.027Z</time></trkpt><trkpt lat="41.6508546" lon="1.818896"><ele>236.0</ele><time>2026-04-19T07:51:21.026Z</time></trkpt><trkpt lat="41.6508712" lon="1.8186771"><ele>236.0</ele><time>2026-04-19T07:51:22.026Z</time></trkpt><trkpt lat="41.6508767" lon="1.8184609"><ele>236.0</ele><time>2026-04-19T07:51:23.027Z</time></trkpt><trkpt lat="41.650875" lon="1.818256"><ele>236.0</ele><time>2026-04-19T07:51:24.027Z</time></trkpt><trkpt lat="41.6508654" lon="1.8180625"><ele>236.0</ele><time>2026-04-19T07:51:25.026Z</time></trkpt><trkpt lat="41.6508287" lon="1.817891"><ele>236.0</ele><time>2026-04-19T07:51:26.027Z</time></trkpt><trkpt lat="41.6507651" lon="1.8177396"><ele>236.0</ele><time>2026-04-19T07:51:27.027Z</time></trkpt><trkpt lat="41.6506776" lon="1.8176018"><ele>236.0</ele><time>2026-04-19T07:51:28.026Z</time></trkpt><trkpt lat="41.650584" lon="1.817474"><ele>236.0</ele><time>2026-04-19T07:51:29.027Z</time></trkpt><trkpt lat="41.6504968" lon="1.8173603"><ele>236.0</ele><time>2026-04-19T07:51:30.027Z</time></trkpt><trkpt lat="41.6504206" lon="1.8172546"><ele>236.0</ele><time>2026-04-19T07:51:31.027Z</time></trkpt><trkpt lat="41.6503547" lon="1.8171581"><ele>235.20000000000002</ele><time>2026-04-19T07:51:32.027Z</time></trkpt><trkpt lat="41.6502898" lon="1.8170505"><ele>234.40000000000003</ele><time>2026-04-19T07:51:33.027Z</time></trkpt><trkpt lat="41.6502393" lon="1.8169184"><ele>233.6</ele><time>2026-04-19T07:51:34.027Z</time></trkpt><trkpt lat="41.6502014" lon="1.8167798"><ele>232.8</ele><time>2026-04-19T07:51:35.027Z</time></trkpt><trkpt lat="41.6501796" lon="1.8166512"><ele>232.0</ele><time>2026-04-19T07:51:36.027Z</time></trkpt><trkpt lat="41.6501614" lon="1.8165216"><ele>231.5</ele><time>2026-04-19T07:51:37.027Z</time></trkpt><trkpt lat="41.650139" lon="1.8163747"><ele>231.0</ele><time>2026-04-19T07:51:38.027Z</time></trkpt><trkpt lat="41.6501131" lon="1.8162218"><ele>230.5</ele><time>2026-04-19T07:51:39.027Z</time></trkpt><trkpt lat="41.6500896" lon="1.8160625"><ele>230.0</ele><time>2026-04-19T07:51:40.027Z</time></trkpt><trkpt lat="41.6500696" lon="1.8158999"><ele>230.0</ele><time>2026-04-19T07:51:41.027Z</time></trkpt><trkpt lat="41.6500642" lon="1.8157334"><ele>230.0</ele><time>2026-04-19T07:51:42.027Z</time></trkpt><trkpt lat="41.6500875" lon="1.8155456"><ele>230.0</ele><time>2026-04-19T07:51:43.026Z</time></trkpt><trkpt lat="41.6501309" lon="1.8153634"><ele>230.0</ele><time>2026-04-19T07:51:44.026Z</time></trkpt><trkpt lat="41.6501755" lon="1.8151793"><ele>230.33333333333334</ele><time>2026-04-19T07:51:45.027Z</time></trkpt><trkpt lat="41.6502269" lon="1.8149917"><ele>230.66666666666669</ele><time>2026-04-19T07:51:46.026Z</time></trkpt><trkpt lat="41.6502944" lon="1.8147916"><ele>231.0</ele><time>2026-04-19T07:51:47.027Z</time></trkpt><trkpt lat="41.6503722" lon="1.8145953"><ele>231.0</ele><time>2026-04-19T07:51:48.026Z</time></trkpt><trkpt lat="41.6504539" lon="1.8144053"><ele>231.0</ele><time>2026-04-19T07:51:49.027Z</time></trkpt><trkpt lat="41.6505382" lon="1.8142065"><ele>231.0</ele><time>2026-04-19T07:51:50.027Z</time></trkpt><trkpt lat="41.6506267" lon="1.8139987"><ele>231.66666666666669</ele><time>2026-04-19T07:51:51.027Z</time></trkpt><trkpt lat="41.6507189" lon="1.8137864"><ele>232.33333333333334</ele><time>2026-04-19T07:51:52.026Z</time></trkpt><trkpt lat="41.6508114" lon="1.8135736"><ele>233.0</ele><time>2026-04-19T07:51:53.027Z</time></trkpt><trkpt lat="41.6509002" lon="1.8133654"><ele>233.33333333333334</ele><time>2026-04-19T07:51:54.026Z</time></trkpt><trkpt lat="41.6509861" lon="1.8131636"><ele>233.66666666666669</ele><time>2026-04-19T07:51:55.027Z</time></trkpt><trkpt lat="41.6510693" lon="1.8129667"><ele>234.0</ele><time>2026-04-19T07:51:56.026Z</time></trkpt><trkpt lat="41.6511348" lon="1.8127631"><ele>233.33333333333331</ele><time>2026-04-19T07:51:57.026Z</time></trkpt><trkpt lat="41.6511885" lon="1.8125382"><ele>232.66666666666666</ele><time>2026-04-19T07:51:58.027Z</time></trkpt><trkpt lat="41.6512333" lon="1.8123013"><ele>232.0</ele><time>2026-04-19T07:51:59.026Z</time></trkpt><trkpt lat="41.6512629" lon="1.8120529"><ele>234.0</ele><time>2026-04-19T07:52:00.027Z</time></trkpt><trkpt lat="41.6512772" lon="1.8118025"><ele>236.0</ele><time>2026-04-19T07:52:01.027Z</time></trkpt><trkpt lat="41.6512851" lon="1.8115546"><ele>238.0</ele><time>2026-04-19T07:52:02.026Z</time></trkpt><trkpt lat="41.6512855" lon="1.8113158"><ele>238.0</ele><time>2026-04-19T07:52:03.027Z</time></trkpt><trkpt lat="41.6512754" lon="1.8110836"><ele>238.0</ele><time>2026-04-19T07:52:04.026Z</time></trkpt><trkpt lat="41.6512547" lon="1.8108487"><ele>238.0</ele><time>2026-04-19T07:52:05.027Z</time></trkpt><trkpt lat="41.651237" lon="1.8106308"><ele>240.66666666666666</ele><time>2026-04-19T07:52:06.026Z</time></trkpt><trkpt lat="41.6512069" lon="1.8103744"><ele>243.33333333333331</ele><time>2026-04-19T07:52:07.027Z</time></trkpt><trkpt lat="41.6511743" lon="1.8101342"><ele>246.0</ele><time>2026-04-19T07:52:08.027Z</time></trkpt><trkpt lat="41.6511366" lon="1.8098971"><ele>246.0</ele><time>2026-04-19T07:52:09.027Z</time></trkpt><trkpt lat="41.6510927" lon="1.809661"><ele>246.0</ele><time>2026-04-19T07:52:10.026Z</time></trkpt><trkpt lat="41.6510287" lon="1.809426"><ele>246.0</ele><time>2026-04-19T07:52:11.027Z</time></trkpt><trkpt lat="41.6509465" lon="1.8091894"><ele>246.0</ele><time>2026-04-19T07:52:12.027Z</time></trkpt><trkpt lat="41.6508566" lon="1.8089633"><ele>246.0</ele><time>2026-04-19T07:52:13.027Z</time></trkpt><trkpt lat="41.6507643" lon="1.8087354"><ele>246.0</ele><time>2026-04-19T07:52:14.026Z</time></trkpt><trkpt lat="41.6506698" lon="1.8084993"><ele>248.0</ele><time>2026-04-19T07:52:15.026Z</time></trkpt><trkpt lat="41.650577" lon="1.8082693"><ele>250.0</ele><time>2026-04-19T07:52:16.027Z</time></trkpt><trkpt lat="41.6504854" lon="1.8080516"><ele>252.0</ele><time>2026-04-19T07:52:17.026Z</time></trkpt><trkpt lat="41.6503978" lon="1.8078458"><ele>253.0</ele><time>2026-04-19T07:52:18.027Z</time></trkpt><trkpt lat="41.6503136" lon="1.807648"><ele>254.0</ele><time>2026-04-19T07:52:19.026Z</time></trkpt><trkpt lat="41.6502412" lon="1.80746"><ele>255.0</ele><time>2026-04-19T07:52:20.027Z</time></trkpt><trkpt lat="41.6501827" lon="1.8072833"><ele>253.0</ele><time>2026-04-19T07:52:21.027Z</time></trkpt><trkpt lat="41.6501468" lon="1.8070997"><ele>251.0</ele><time>2026-04-19T07:52:22.027Z</time></trkpt><trkpt lat="41.650138" lon="1.8069081"><ele>249.0</ele><time>2026-04-19T07:52:23.027Z</time></trkpt><trkpt lat="41.6501573" lon="1.8067219"><ele>247.0</ele><time>2026-04-19T07:52:24.027Z</time></trkpt><trkpt lat="41.6502032" lon="1.8065597"><ele>247.0</ele><time>2026-04-19T07:52:25.026Z</time></trkpt><trkpt lat="41.6502755" lon="1.8064284"><ele>247.0</ele><time>2026-04-19T07:52:26.027Z</time></trkpt><trkpt lat="41.6503729" lon="1.8063304"><ele>247.0</ele><time>2026-04-19T07:52:27.027Z</time></trkpt><trkpt lat="41.6504942" lon="1.8062597"><ele>247.0</ele><time>2026-04-19T07:52:28.027Z</time></trkpt><trkpt lat="41.6506082" lon="1.8061963"><ele>248.0</ele><time>2026-04-19T07:52:29.027Z</time></trkpt><trkpt lat="41.6507015" lon="1.8061243"><ele>249.0</ele><time>2026-04-19T07:52:30.027Z</time></trkpt><trkpt lat="41.6507757" lon="1.8060352"><ele>250.0</ele><time>2026-04-19T07:52:31.027Z</time></trkpt><trkpt lat="41.6507987" lon="1.8059008"><ele>251.0</ele><time>2026-04-19T07:52:32.027Z</time></trkpt><trkpt lat="41.650797" lon="1.8057576"><ele>252.0</ele><time>2026-04-19T07:52:33.026Z</time></trkpt><trkpt lat="41.6507638" lon="1.8056034"><ele>252.0</ele><time>2026-04-19T07:52:34.026Z</time></trkpt><trkpt lat="41.6507025" lon="1.8054503"><ele>252.0</ele><time>2026-04-19T07:52:35.027Z</time></trkpt><trkpt lat="41.6506193" lon="1.8053183"><ele>252.0</ele><time>2026-04-19T07:52:36.027Z</time></trkpt><trkpt lat="41.6505201" lon="1.8052124"><ele>252.0</ele><time>2026-04-19T07:52:37.027Z</time></trkpt><trkpt lat="41.6504025" lon="1.8051273"><ele>252.25</ele><time>2026-04-19T07:52:38.027Z</time></trkpt><trkpt lat="41.6502813" lon="1.8050649"><ele>252.5</ele><time>2026-04-19T07:52:39.026Z</time></trkpt><trkpt lat="41.6501419" lon="1.8050173"><ele>252.75</ele><time>2026-04-19T07:52:40.027Z</time></trkpt><trkpt lat="41.6499957" lon="1.8049699"><ele>253.0</ele><time>2026-04-19T07:52:41.027Z</time></trkpt><trkpt lat="41.6498365" lon="1.804919"><ele>253.0</ele><time>2026-04-19T07:52:42.027Z</time></trkpt><trkpt lat="41.6496808" lon="1.8048656"><ele>253.0</ele><time>2026-04-19T07:52:43.027Z</time></trkpt><trkpt lat="41.6495203" lon="1.8048104"><ele>253.0</ele><time>2026-04-19T07:52:44.027Z</time></trkpt><trkpt lat="41.6493582" lon="1.8047496"><ele>254.0</ele><time>2026-04-19T07:52:45.026Z</time></trkpt><trkpt lat="41.6491845" lon="1.8046906"><ele>255.0</ele><time>2026-04-19T07:52:46.026Z</time></trkpt><trkpt lat="41.6490227" lon="1.8046335"><ele>256.0</ele><time>2026-04-19T07:52:47.027Z</time></trkpt><trkpt lat="41.6488636" lon="1.8045811"><ele>256.0</ele><time>2026-04-19T07:52:48.027Z</time></trkpt><trkpt lat="41.6487111" lon="1.8045293"><ele>256.0</ele><time>2026-04-19T07:52:49.027Z</time></trkpt><trkpt lat="41.6485545" lon="1.8044734"><ele>256.0</ele><time>2026-04-19T07:52:50.027Z</time></trkpt><trkpt lat="41.6483968" lon="1.8044241"><ele>255.33333333333331</ele><time>2026-04-19T07:52:51.026Z</time></trkpt><trkpt lat="41.6482419" lon="1.8043765"><ele>254.66666666666669</ele><time>2026-04-19T07:52:52.026Z</time></trkpt><trkpt lat="41.6480949" lon="1.8043314"><ele>254.0</ele><time>2026-04-19T07:52:53.027Z</time></trkpt><trkpt lat="41.6479469" lon="1.8042731"><ele>257.33333333333337</ele><time>2026-04-19T07:52:54.027Z</time></trkpt><trkpt lat="41.647795" lon="1.8041991"><ele>260.6666666666667</ele><time>2026-04-19T07:52:55.027Z</time></trkpt><trkpt lat="41.647651" lon="1.8041112"><ele>264.0</ele><time>2026-04-19T07:52:56.027Z</time></trkpt><trkpt lat="41.6475104" lon="1.8040115"><ele>264.3333333333333</ele><time>2026-04-19T07:52:57.026Z</time></trkpt><trkpt lat="41.6473753" lon="1.8039022"><ele>264.66666666666663</ele><time>2026-04-19T07:52:58.027Z</time></trkpt><trkpt lat="41.6472479" lon="1.8037874"><ele>265.0</ele><time>2026-04-19T07:52:59.026Z</time></trkpt><trkpt lat="41.6471246" lon="1.8036851"><ele>265.0</ele><time>2026-04-19T07:53:00.026Z</time></trkpt><trkpt lat="41.6470101" lon="1.803585"><ele>265.0</ele><time>2026-04-19T07:53:01.027Z</time></trkpt><trkpt lat="41.6469079" lon="1.8034855"><ele>265.0</ele><time>2026-04-19T07:53:02.027Z</time></trkpt><trkpt lat="41.6468094" lon="1.8033975"><ele>265.0</ele><time>2026-04-19T07:53:03.027Z</time></trkpt><trkpt lat="41.6467162" lon="1.8033151"><ele>264.16666666666663</ele><time>2026-04-19T07:53:04.027Z</time></trkpt><trkpt lat="41.6466288" lon="1.8032468"><ele>263.3333333333333</ele><time>2026-04-19T07:53:05.027Z</time></trkpt><trkpt lat="41.6465586" lon="1.8031885"><ele>262.5</ele><time>2026-04-19T07:53:06.027Z</time></trkpt><trkpt lat="41.6465012" lon="1.8031371"><ele>261.6666666666667</ele><time>2026-04-19T07:53:07.027Z</time></trkpt><trkpt lat="41.6464452" lon="1.8030945"><ele>260.83333333333337</ele><time>2026-04-19T07:53:08.027Z</time></trkpt><trkpt lat="41.646334" lon="1.8031044"><ele>260.0</ele><time>2026-04-19T07:53:10.027Z</time></trkpt><trkpt lat="41.6462775" lon="1.8031619"><ele>260.00000000000006</ele><time>2026-04-19T07:53:11.027Z</time></trkpt><trkpt lat="41.6462373" lon="1.8032398"><ele>260.0</ele><time>2026-04-19T07:53:12.027Z</time></trkpt><trkpt lat="41.6461996" lon="1.8033244"><ele>260.0</ele><time>2026-04-19T07:53:13.027Z</time></trkpt><trkpt lat="41.646162" lon="1.8034066"><ele>260.0</ele><time>2026-04-19T07:53:14.027Z</time></trkpt><trkpt lat="41.6461257" lon="1.8034833"><ele>260.0</ele><time>2026-04-19T07:53:15.027Z</time></trkpt><trkpt lat="41.646092" lon="1.8035553"><ele>260.00000000000006</ele><time>2026-04-19T07:53:16.027Z</time></trkpt><trkpt lat="41.6460397" lon="1.803664"><ele>260.0</ele><time>2026-04-19T07:53:18.027Z</time></trkpt><trkpt lat="41.6459763" lon="1.8037836"><ele>262.2</ele><time>2026-04-19T07:53:43.026Z</time></trkpt><trkpt lat="41.6458594" lon="1.8038658"><ele>264.4</ele><time>2026-04-19T07:53:45.026Z</time></trkpt><trkpt lat="41.6457699" lon="1.8038602"><ele>266.6</ele><time>2026-04-19T07:53:46.027Z</time></trkpt><trkpt lat="41.6456856" lon="1.8038371"><ele>268.8</ele><time>2026-04-19T07:53:47.026Z</time></trkpt><trkpt lat="41.6455942" lon="1.8038007"><ele>271.0</ele><time>2026-04-19T07:53:48.027Z</time></trkpt><trkpt lat="41.6455031" lon="1.8037433"><ele>271.0</ele><time>2026-04-19T07:53:49.027Z</time></trkpt><trkpt lat="41.6454358" lon="1.8036505"><ele>271.0</ele><time>2026-04-19T07:53:50.027Z</time></trkpt><trkpt lat="41.6453748" lon="1.8035432"><ele>271.0</ele><time>2026-04-19T07:53:51.026Z</time></trkpt><trkpt lat="41.6453198" lon="1.8034442"><ele>271.0</ele><time>2026-04-19T07:53:52.027Z</time></trkpt><trkpt lat="41.6452539" lon="1.8033576"><ele>271.0</ele><time>2026-04-19T07:53:53.027Z</time></trkpt><trkpt lat="41.6451754" lon="1.8032852"><ele>270.40000000000003</ele><time>2026-04-19T07:53:54.027Z</time></trkpt><trkpt lat="41.6450859" lon="1.8032232"><ele>269.8</ele><time>2026-04-19T07:53:55.027Z</time></trkpt><trkpt lat="41.6449963" lon="1.803162"><ele>269.20000000000005</ele><time>2026-04-19T07:53:56.027Z</time></trkpt><trkpt lat="41.6449216" lon="1.8030724"><ele>268.6</ele><time>2026-04-19T07:53:57.027Z</time></trkpt><trkpt lat="41.6448433" lon="1.8029953"><ele>268.0</ele><time>2026-04-19T07:53:58.027Z</time></trkpt><trkpt lat="41.6447495" lon="1.8029443"><ele>268.0</ele><time>2026-04-19T07:53:59.026Z</time></trkpt><trkpt lat="41.6446596" lon="1.8029206"><ele>268.0</ele><time>2026-04-19T07:54:00.026Z</time></trkpt><trkpt lat="41.644563" lon="1.8029278"><ele>268.0</ele><time>2026-04-19T07:54:01.026Z</time></trkpt><trkpt lat="41.6444667" lon="1.8029324"><ele>268.0</ele><time>2026-04-19T07:54:02.026Z</time></trkpt><trkpt lat="41.6443729" lon="1.802923"><ele>268.0</ele><time>2026-04-19T07:54:03.026Z</time></trkpt><trkpt lat="41.6442803" lon="1.8028953"><ele>269.2</ele><time>2026-04-19T07:54:04.027Z</time></trkpt><trkpt lat="41.6441894" lon="1.8028365"><ele>270.4</ele><time>2026-04-19T07:54:05.026Z</time></trkpt><trkpt lat="41.6441017" lon="1.8027667"><ele>271.59999999999997</ele><time>2026-04-19T07:54:06.027Z</time></trkpt><trkpt lat="41.6440322" lon="1.8026763"><ele>272.8</ele><time>2026-04-19T07:54:07.026Z</time></trkpt><trkpt lat="41.6439494" lon="1.8026164"><ele>274.0</ele><time>2026-04-19T07:54:08.026Z</time></trkpt><trkpt lat="41.6438536" lon="1.8025802"><ele>274.0</ele><time>2026-04-19T07:54:09.027Z</time></trkpt><trkpt lat="41.6437563" lon="1.8025611"><ele>274.0</ele><time>2026-04-19T07:54:10.027Z</time></trkpt><trkpt lat="41.6436462" lon="1.8025593"><ele>274.0</ele><time>2026-04-19T07:54:11.027Z</time></trkpt><trkpt lat="41.6435376" lon="1.8025624"><ele>274.0</ele><time>2026-04-19T07:54:12.027Z</time></trkpt><trkpt lat="41.6434366" lon="1.8025524"><ele>274.0</ele><time>2026-04-19T07:54:13.026Z</time></trkpt><trkpt lat="41.6433363" lon="1.8025329"><ele>276.2</ele><time>2026-04-19T07:54:14.026Z</time></trkpt><trkpt lat="41.6432373" lon="1.8025143"><ele>278.4</ele><time>2026-04-19T07:54:15.026Z</time></trkpt><trkpt lat="41.6431455" lon="1.802487"><ele>280.6</ele><time>2026-04-19T07:54:16.027Z</time></trkpt><trkpt lat="41.6430597" lon="1.8024591"><ele>282.8</ele><time>2026-04-19T07:54:17.027Z</time></trkpt><trkpt lat="41.6429706" lon="1.802431"><ele>285.0</ele><time>2026-04-19T07:54:18.026Z</time></trkpt><trkpt lat="41.6428826" lon="1.8024042"><ele>286.8</ele><time>2026-04-19T07:54:19.027Z</time></trkpt><trkpt lat="41.6427917" lon="1.8023748"><ele>288.6</ele><time>2026-04-19T07:54:20.026Z</time></trkpt><trkpt lat="41.6426996" lon="1.8023414"><ele>290.4</ele><time>2026-04-19T07:54:21.026Z</time></trkpt><trkpt lat="41.6426041" lon="1.8023018"><ele>292.2</ele><time>2026-04-19T07:54:22.026Z</time></trkpt><trkpt lat="41.642508" lon="1.8022635"><ele>294.0</ele><time>2026-04-19T07:54:23.027Z</time></trkpt><trkpt lat="41.642409" lon="1.8022267"><ele>294.0</ele><time>2026-04-19T07:54:24.027Z</time></trkpt><trkpt lat="41.642308" lon="1.8021948"><ele>294.0</ele><time>2026-04-19T07:54:25.027Z</time></trkpt><trkpt lat="41.642211" lon="1.8021659"><ele>294.0</ele><time>2026-04-19T07:54:26.026Z</time></trkpt><trkpt lat="41.6421137" lon="1.8021464"><ele>294.0</ele><time>2026-04-19T07:54:27.026Z</time></trkpt><trkpt lat="41.6420214" lon="1.8021258"><ele>294.0</ele><time>2026-04-19T07:54:28.027Z</time></trkpt><trkpt lat="41.641931" lon="1.8021117"><ele>297.8</ele><time>2026-04-19T07:54:29.027Z</time></trkpt><trkpt lat="41.641839" lon="1.8021063"><ele>301.59999999999997</ele><time>2026-04-19T07:54:30.027Z</time></trkpt><trkpt lat="41.6417495" lon="1.8021032"><ele>305.4</ele><time>2026-04-19T07:54:31.026Z</time></trkpt><trkpt lat="41.6416626" lon="1.8020983"><ele>309.2</ele><time>2026-04-19T07:54:32.027Z</time></trkpt><trkpt lat="41.6415695" lon="1.8020882"><ele>313.0</ele><time>2026-04-19T07:54:33.027Z</time></trkpt><trkpt lat="41.6414789" lon="1.8020686"><ele>313.0</ele><time>2026-04-19T07:54:34.026Z</time></trkpt><trkpt lat="41.6413908" lon="1.8020446"><ele>313.0</ele><time>2026-04-19T07:54:35.026Z</time></trkpt><trkpt lat="41.6413163" lon="1.8020395"><ele>313.0</ele><time>2026-04-19T07:54:36.026Z</time></trkpt><trkpt lat="41.6412232" lon="1.8020978"><ele>313.0</ele><time>2026-04-19T07:54:38.027Z</time></trkpt><trkpt lat="41.6412507" lon="1.8022394"><ele>313.0</ele><time>2026-04-19T07:54:40.026Z</time></trkpt><trkpt lat="41.6413058" lon="1.8023149"><ele>313.0</ele><time>2026-04-19T07:54:41.027Z</time></trkpt><trkpt lat="41.6413637" lon="1.8024037"><ele>313.0</ele><time>2026-04-19T07:54:42.027Z</time></trkpt><trkpt lat="41.6414318" lon="1.802494"><ele>313.0</ele><time>2026-04-19T07:54:43.026Z</time></trkpt><trkpt lat="41.6414958" lon="1.802583"><ele>313.0</ele><time>2026-04-19T07:54:44.026Z</time></trkpt><trkpt lat="41.6415487" lon="1.8026602"><ele>313.0</ele><time>2026-04-19T07:54:45.027Z</time></trkpt><trkpt lat="41.6415766" lon="1.8027402"><ele>313.0</ele><time>2026-04-19T07:54:46.027Z</time></trkpt><trkpt lat="41.641544" lon="1.8028908"><ele>313.3333333333333</ele><time>2026-04-19T07:54:48.026Z</time></trkpt><trkpt lat="41.6414902" lon="1.8029511"><ele>313.66666666666663</ele><time>2026-04-19T07:54:49.027Z</time></trkpt><trkpt lat="41.6414208" lon="1.8030134"><ele>314.0</ele><time>2026-04-19T07:54:50.026Z</time></trkpt><trkpt lat="41.6413431" lon="1.8030809"><ele>314.3333333333333</ele><time>2026-04-19T07:54:51.027Z</time></trkpt><trkpt lat="41.6412595" lon="1.8031508"><ele>314.6666666666667</ele><time>2026-04-19T07:54:52.027Z</time></trkpt><trkpt lat="41.6411791" lon="1.8032278"><ele>315.0</ele><time>2026-04-19T07:54:53.027Z</time></trkpt><trkpt lat="41.641105" lon="1.8033114"><ele>314.2</ele><time>2026-04-19T07:54:54.027Z</time></trkpt><trkpt lat="41.6410366" lon="1.8033881"><ele>313.4</ele><time>2026-04-19T07:54:55.027Z</time></trkpt><trkpt lat="41.6409667" lon="1.803463"><ele>312.6</ele><time>2026-04-19T07:54:56.027Z</time></trkpt><trkpt lat="41.640889" lon="1.803528"><ele>311.8</ele><time>2026-04-19T07:54:57.027Z</time></trkpt><trkpt lat="41.6407962" lon="1.8035628"><ele>311.0</ele><time>2026-04-19T07:54:58.026Z</time></trkpt><trkpt lat="41.6406996" lon="1.8035684"><ele>311.0</ele><time>2026-04-19T07:54:59.026Z</time></trkpt><trkpt lat="41.6406092" lon="1.8035537"><ele>311.0</ele><time>2026-04-19T07:55:00.026Z</time></trkpt><trkpt lat="41.6405235" lon="1.8035158"><ele>311.0</ele><time>2026-04-19T07:55:01.027Z</time></trkpt><trkpt lat="41.6404474" lon="1.8034666"><ele>311.0</ele><time>2026-04-19T07:55:02.026Z</time></trkpt><trkpt lat="41.6403737" lon="1.8034132"><ele>311.0</ele><time>2026-04-19T07:55:03.026Z</time></trkpt><trkpt lat="41.6403031" lon="1.8033783"><ele>311.0</ele><time>2026-04-19T07:55:04.027Z</time></trkpt><trkpt lat="41.6402187" lon="1.8033548"><ele>314.20000000000005</ele><time>2026-04-19T07:55:05.027Z</time></trkpt><trkpt lat="41.6401258" lon="1.8033365"><ele>317.40000000000003</ele><time>2026-04-19T07:55:06.027Z</time></trkpt><trkpt lat="41.6400337" lon="1.8033228"><ele>320.6</ele><time>2026-04-19T07:55:07.027Z</time></trkpt><trkpt lat="41.6399453" lon="1.8033101"><ele>323.8</ele><time>2026-04-19T07:55:08.026Z</time></trkpt><trkpt lat="41.6398573" lon="1.8032903"><ele>327.0</ele><time>2026-04-19T07:55:09.026Z</time></trkpt><trkpt lat="41.6397725" lon="1.8032549"><ele>327.0</ele><time>2026-04-19T07:55:10.027Z</time></trkpt><trkpt lat="41.6396934" lon="1.8032018"><ele>327.0</ele><time>2026-04-19T07:55:11.027Z</time></trkpt><trkpt lat="41.6396181" lon="1.8031279"><ele>327.0</ele><time>2026-04-19T07:55:12.027Z</time></trkpt><trkpt lat="41.6395386" lon="1.8030511"><ele>327.0</ele><time>2026-04-19T07:55:13.027Z</time></trkpt><trkpt lat="41.6394633" lon="1.8029663"><ele>327.0</ele><time>2026-04-19T07:55:14.026Z</time></trkpt><trkpt lat="41.6394067" lon="1.8028608"><ele>328.0</ele><time>2026-04-19T07:55:15.026Z</time></trkpt><trkpt lat="41.6393532" lon="1.8027383"><ele>329.0</ele><time>2026-04-19T07:55:16.027Z</time></trkpt><trkpt lat="41.639301" lon="1.8026101"><ele>330.0</ele><time>2026-04-19T07:55:17.027Z</time></trkpt><trkpt lat="41.6392491" lon="1.8024843"><ele>331.0</ele><time>2026-04-19T07:55:18.027Z</time></trkpt><trkpt lat="41.6391982" lon="1.8023613"><ele>332.0</ele><time>2026-04-19T07:55:19.027Z</time></trkpt><trkpt lat="41.639144" lon="1.8022455"><ele>333.6</ele><time>2026-04-19T07:55:20.026Z</time></trkpt><trkpt lat="41.6390905" lon="1.8021369"><ele>335.20000000000005</ele><time>2026-04-19T07:55:21.027Z</time></trkpt><trkpt lat="41.639032" lon="1.8020344"><ele>336.8</ele><time>2026-04-19T07:55:22.026Z</time></trkpt><trkpt lat="41.6389716" lon="1.8019376"><ele>338.4</ele><time>2026-04-19T07:55:23.027Z</time></trkpt><trkpt lat="41.6389122" lon="1.8018433"><ele>340.0</ele><time>2026-04-19T07:55:24.027Z</time></trkpt><trkpt lat="41.6388554" lon="1.8017445"><ele>340.8</ele><time>2026-04-19T07:55:25.026Z</time></trkpt><trkpt lat="41.6388119" lon="1.8016368"><ele>341.6</ele><time>2026-04-19T07:55:26.026Z</time></trkpt><trkpt lat="41.6387951" lon="1.8015278"><ele>342.4</ele><time>2026-04-19T07:55:27.026Z</time></trkpt><trkpt lat="41.6387908" lon="1.8014176"><ele>343.2</ele><time>2026-04-19T07:55:28.026Z</time></trkpt><trkpt lat="41.6387742" lon="1.8012886"><ele>344.0</ele><time>2026-04-19T07:55:29.026Z</time></trkpt><trkpt lat="41.6387469" lon="1.8011477"><ele>344.0</ele><time>2026-04-19T07:55:30.027Z</time></trkpt><trkpt lat="41.6387363" lon="1.8010035"><ele>344.0</ele><time>2026-04-19T07:55:31.027Z</time></trkpt><trkpt lat="41.6387606" lon="1.8008639"><ele>344.0</ele><time>2026-04-19T07:55:32.026Z</time></trkpt><trkpt lat="41.6387947" lon="1.8007325"><ele>344.0</ele><time>2026-04-19T07:55:33.027Z</time></trkpt><trkpt lat="41.638809" lon="1.8006143"><ele>344.0</ele><time>2026-04-19T07:55:34.026Z</time></trkpt><trkpt lat="41.6387928" lon="1.8005006"><ele>345.2</ele><time>2026-04-19T07:55:35.026Z</time></trkpt><trkpt lat="41.6387518" lon="1.8003755"><ele>346.4</ele><time>2026-04-19T07:55:36.027Z</time></trkpt><trkpt lat="41.6387141" lon="1.8002384"><ele>347.6</ele><time>2026-04-19T07:55:37.027Z</time></trkpt><trkpt lat="41.638683" lon="1.8000952"><ele>348.8</ele><time>2026-04-19T07:55:38.027Z</time></trkpt><trkpt lat="41.6386503" lon="1.7999519"><ele>350.0</ele><time>2026-04-19T07:55:39.027Z</time></trkpt><trkpt lat="41.6386048" lon="1.7998303"><ele>355.2</ele><time>2026-04-19T07:55:40.026Z</time></trkpt><trkpt lat="41.63855" lon="1.7997232"><ele>360.4</ele><time>2026-04-19T07:55:41.027Z</time></trkpt><trkpt lat="41.6384744" lon="1.7996327"><ele>365.6</ele><time>2026-04-19T07:55:42.027Z</time></trkpt><trkpt lat="41.6383907" lon="1.7995485"><ele>370.8</ele><time>2026-04-19T07:55:43.027Z</time></trkpt><trkpt lat="41.6383057" lon="1.7994651"><ele>376.0</ele><time>2026-04-19T07:55:44.027Z</time></trkpt><trkpt lat="41.6382208" lon="1.7993765"><ele>376.4</ele><time>2026-04-19T07:55:45.026Z</time></trkpt><trkpt lat="41.6381392" lon="1.7992884"><ele>376.8</ele><time>2026-04-19T07:55:46.027Z</time></trkpt><trkpt lat="41.6380612" lon="1.799207"><ele>377.2</ele><time>2026-04-19T07:55:47.026Z</time></trkpt><trkpt lat="41.6379772" lon="1.7991405"><ele>377.59999999999997</ele><time>2026-04-19T07:55:48.026Z</time></trkpt><trkpt lat="41.6378836" lon="1.7990977"><ele>378.0</ele><time>2026-04-19T07:55:49.027Z</time></trkpt><trkpt lat="41.6377733" lon="1.7990754"><ele>378.0</ele><time>2026-04-19T07:55:50.026Z</time></trkpt><trkpt lat="41.6376578" lon="1.7990653"><ele>378.0</ele><time>2026-04-19T07:55:51.026Z</time></trkpt><trkpt lat="41.6375415" lon="1.7990534"><ele>378.0</ele><time>2026-04-19T07:55:52.027Z</time></trkpt><trkpt lat="41.6374296" lon="1.79902"><ele>378.0</ele><time>2026-04-19T07:55:53.027Z</time></trkpt><trkpt lat="41.6373196" lon="1.7989745"><ele>378.0</ele><time>2026-04-19T07:55:54.027Z</time></trkpt><trkpt lat="41.6372212" lon="1.7989135"><ele>378.0</ele><time>2026-04-19T07:55:55.027Z</time></trkpt><trkpt lat="41.6371321" lon="1.7988416"><ele>378.0</ele><time>2026-04-19T07:55:56.027Z</time></trkpt><trkpt lat="41.6370425" lon="1.7987736"><ele>378.0</ele><time>2026-04-19T07:55:57.026Z</time></trkpt><trkpt lat="41.6369475" lon="1.798725"><ele>378.0</ele><time>2026-04-19T07:55:58.026Z</time></trkpt><trkpt lat="41.6368501" lon="1.7986862"><ele>376.4</ele><time>2026-04-19T07:55:59.026Z</time></trkpt><trkpt lat="41.636748" lon="1.7986482"><ele>374.79999999999995</ele><time>2026-04-19T07:56:00.027Z</time></trkpt><trkpt lat="41.6366443" lon="1.7986094"><ele>373.2</ele><time>2026-04-19T07:56:01.026Z</time></trkpt><trkpt lat="41.6365403" lon="1.7985695"><ele>371.6</ele><time>2026-04-19T07:56:02.027Z</time></trkpt><trkpt lat="41.6364363" lon="1.7985326"><ele>370.0</ele><time>2026-04-19T07:56:03.027Z</time></trkpt><trkpt lat="41.6363379" lon="1.7984853"><ele>370.0</ele><time>2026-04-19T07:56:04.027Z</time></trkpt><trkpt lat="41.6362383" lon="1.7984471"><ele>370.0</ele><time>2026-04-19T07:56:05.027Z</time></trkpt><trkpt lat="41.6361385" lon="1.7984167"><ele>370.0</ele><time>2026-04-19T07:56:06.027Z</time></trkpt><trkpt lat="41.6360454" lon="1.7983891"><ele>370.0</ele><time>2026-04-19T07:56:07.027Z</time></trkpt><trkpt lat="41.6359531" lon="1.7983469"><ele>370.0</ele><time>2026-04-19T07:56:08.026Z</time></trkpt><trkpt lat="41.6358673" lon="1.7983012"><ele>372.4</ele><time>2026-04-19T07:56:09.027Z</time></trkpt><trkpt lat="41.6357814" lon="1.7982549"><ele>374.8</ele><time>2026-04-19T07:56:10.027Z</time></trkpt><trkpt lat="41.6356891" lon="1.7982231"><ele>377.20000000000005</ele><time>2026-04-19T07:56:11.026Z</time></trkpt><trkpt lat="41.6355957" lon="1.798196"><ele>379.6</ele><time>2026-04-19T07:56:12.026Z</time></trkpt><trkpt lat="41.6355097" lon="1.798175"><ele>382.0</ele><time>2026-04-19T07:56:13.027Z</time></trkpt><trkpt lat="41.6354237" lon="1.7981611"><ele>382.0</ele><time>2026-04-19T07:56:14.027Z</time></trkpt><trkpt lat="41.6353483" lon="1.7981544"><ele>382.0</ele><time>2026-04-19T07:56:15.027Z</time></trkpt><trkpt lat="41.6352814" lon="1.7981481"><ele>382.0</ele><time>2026-04-19T07:56:16.027Z</time></trkpt><trkpt lat="41.6351832" lon="1.7981292"><ele>382.0</ele><time>2026-04-19T07:56:18.027Z</time></trkpt><trkpt lat="41.6351119" lon="1.798105"><ele>382.0</ele><time>2026-04-19T07:56:21.027Z</time></trkpt><trkpt lat="41.635032" lon="1.7981706"><ele>382.0</ele><time>2026-04-19T07:58:15.027Z</time></trkpt><trkpt lat="41.6349265" lon="1.7982376"><ele>383.0</ele><time>2026-04-19T07:58:17.026Z</time></trkpt><trkpt lat="41.6348341" lon="1.7982859"><ele>384.0</ele><time>2026-04-19T07:58:19.027Z</time></trkpt><trkpt lat="41.6347717" lon="1.798313"><ele>385.0</ele><time>2026-04-19T07:58:21.026Z</time></trkpt><trkpt lat="41.6346853" lon="1.79838"><ele>386.0</ele><time>2026-04-19T07:58:23.027Z</time></trkpt><trkpt lat="41.6345853" lon="1.7984812"><ele>387.0</ele><time>2026-04-19T07:58:25.027Z</time></trkpt><trkpt lat="41.6345365" lon="1.7985377"><ele>391.5</ele><time>2026-04-19T07:58:26.027Z</time></trkpt><trkpt lat="41.6344837" lon="1.7985883"><ele>396.0</ele><time>2026-04-19T07:58:27.026Z</time></trkpt><trkpt lat="41.6344209" lon="1.7986366"><ele>400.5</ele><time>2026-04-19T07:58:28.026Z</time></trkpt><trkpt lat="41.6343497" lon="1.7986859"><ele>405.0</ele><time>2026-04-19T07:58:29.026Z</time></trkpt><trkpt lat="41.6342732" lon="1.7987377"><ele>409.5</ele><time>2026-04-19T07:58:30.027Z</time></trkpt><trkpt lat="41.634197" lon="1.798782"><ele>414.0</ele><time>2026-04-19T07:58:31.027Z</time></trkpt><trkpt lat="41.6341142" lon="1.7988075"><ele>414.0</ele><time>2026-04-19T07:58:32.027Z</time></trkpt><trkpt lat="41.6340371" lon="1.7988259"><ele>414.0</ele><time>2026-04-19T07:58:33.026Z</time></trkpt><trkpt lat="41.6339731" lon="1.7988533"><ele>414.0</ele><time>2026-04-19T07:58:34.026Z</time></trkpt><trkpt lat="41.6338817" lon="1.7988853"><ele>414.0</ele><time>2026-04-19T07:58:36.027Z</time></trkpt><trkpt lat="41.6337989" lon="1.7988525"><ele>414.0</ele><time>2026-04-19T07:58:38.026Z</time></trkpt><trkpt lat="41.6337204" lon="1.7987855"><ele>414.0</ele><time>2026-04-19T07:58:40.027Z</time></trkpt><trkpt lat="41.6336409" lon="1.7986997"><ele>414.79999999999995</ele><time>2026-04-19T07:58:42.027Z</time></trkpt><trkpt lat="41.6335563" lon="1.7986269"><ele>415.59999999999997</ele><time>2026-04-19T07:58:44.027Z</time></trkpt><trkpt lat="41.6334577" lon="1.7985738"><ele>416.4</ele><time>2026-04-19T07:58:46.027Z</time></trkpt><trkpt lat="41.6333408" lon="1.7985374"><ele>417.2</ele><time>2026-04-19T07:58:48.027Z</time></trkpt><trkpt lat="41.6332359" lon="1.7985125"><ele>418.0</ele><time>2026-04-19T07:58:50.026Z</time></trkpt><trkpt lat="41.6331172" lon="1.7985342"><ele>418.0</ele><time>2026-04-19T07:58:52.027Z</time></trkpt><trkpt lat="41.6330036" lon="1.798598"><ele>418.0</ele><time>2026-04-19T07:58:54.027Z</time></trkpt><trkpt lat="41.6329438" lon="1.7986297"><ele>418.0</ele><time>2026-04-19T07:58:55.027Z</time></trkpt><trkpt lat="41.6328835" lon="1.7986653"><ele>418.0</ele><time>2026-04-19T07:58:56.027Z</time></trkpt><trkpt lat="41.6328226" lon="1.7986995"><ele>418.0</ele><time>2026-04-19T07:58:57.027Z</time></trkpt><trkpt lat="41.6327645" lon="1.7987391"><ele>418.0</ele><time>2026-04-19T07:58:58.027Z</time></trkpt><trkpt lat="41.6327042" lon="1.7987691"><ele>418.0</ele><time>2026-04-19T07:58:59.026Z</time></trkpt><trkpt lat="41.6326391" lon="1.7987889"><ele>418.1666666666667</ele><time>2026-04-19T07:59:00.027Z</time></trkpt><trkpt lat="41.6325702" lon="1.7987915"><ele>418.33333333333337</ele><time>2026-04-19T07:59:01.027Z</time></trkpt><trkpt lat="41.6325012" lon="1.7987696"><ele>418.5</ele><time>2026-04-19T07:59:02.027Z</time></trkpt><trkpt lat="41.6324397" lon="1.7987317"><ele>418.66666666666663</ele><time>2026-04-19T07:59:03.027Z</time></trkpt><trkpt lat="41.6323768" lon="1.7986943"><ele>418.8333333333333</ele><time>2026-04-19T07:59:04.026Z</time></trkpt><trkpt lat="41.6322698" lon="1.7986356"><ele>419.0</ele><time>2026-04-19T07:59:06.027Z</time></trkpt><trkpt lat="41.6321707" lon="1.7986035"><ele>418.99999999999994</ele><time>2026-04-19T07:59:08.027Z</time></trkpt><trkpt lat="41.6321081" lon="1.7985913"><ele>419.0</ele><time>2026-04-19T07:59:09.027Z</time></trkpt><trkpt lat="41.6320423" lon="1.7985932"><ele>419.0</ele><time>2026-04-19T07:59:10.027Z</time></trkpt><trkpt lat="41.6319738" lon="1.7985984"><ele>419.0</ele><time>2026-04-19T07:59:11.026Z</time></trkpt><trkpt lat="41.6319034" lon="1.7986142"><ele>419.0</ele><time>2026-04-19T07:59:12.026Z</time></trkpt><trkpt lat="41.6318357" lon="1.7986348"><ele>418.99999999999994</ele><time>2026-04-19T07:59:13.026Z</time></trkpt><trkpt lat="41.6317697" lon="1.7986478"><ele>419.0</ele><time>2026-04-19T07:59:14.026Z</time></trkpt><trkpt lat="41.6316606" lon="1.7987013"><ele>419.0</ele><time>2026-04-19T07:59:16.026Z</time></trkpt><trkpt lat="41.6316053" lon="1.798821"><ele>419.0</ele><time>2026-04-19T07:59:18.027Z</time></trkpt><trkpt lat="41.6315495" lon="1.7989327"><ele>419.0</ele><time>2026-04-19T07:59:20.027Z</time></trkpt><trkpt lat="41.6314694" lon="1.7989867"><ele>419.0</ele><time>2026-04-19T07:59:22.027Z</time></trkpt><trkpt lat="41.6313641" lon="1.7989752"><ele>419.0</ele><time>2026-04-19T07:59:24.027Z</time></trkpt><trkpt lat="41.6312559" lon="1.7989421"><ele>419.0</ele><time>2026-04-19T07:59:26.026Z</time></trkpt><trkpt lat="41.6311663" lon="1.7989065"><ele>419.0</ele><time>2026-04-19T07:59:28.027Z</time></trkpt><trkpt lat="41.6310963" lon="1.7988855"><ele>419.0</ele><time>2026-04-19T07:59:30.027Z</time></trkpt><trkpt lat="41.6310162" lon="1.7988716"><ele>419.0</ele><time>2026-04-19T07:59:33.027Z</time></trkpt><trkpt lat="41.6309119" lon="1.7988543"><ele>419.0</ele><time>2026-04-19T07:59:39.027Z</time></trkpt><trkpt lat="41.6307986" lon="1.7988925"><ele>419.2</ele><time>2026-04-19T07:59:41.027Z</time></trkpt><trkpt lat="41.6307051" lon="1.7989684"><ele>419.4</ele><time>2026-04-19T07:59:43.027Z</time></trkpt><trkpt lat="41.630645" lon="1.799073"><ele>419.6</ele><time>2026-04-19T07:59:45.027Z</time></trkpt><trkpt lat="41.630563" lon="1.7991543"><ele>419.8</ele><time>2026-04-19T07:59:47.027Z</time></trkpt><trkpt lat="41.6304665" lon="1.7991572"><ele>420.0</ele><time>2026-04-19T07:59:49.027Z</time></trkpt><trkpt lat="41.6303793" lon="1.799062"><ele>419.0</ele><time>2026-04-19T07:59:51.026Z</time></trkpt><trkpt lat="41.6303077" lon="1.7989548"><ele>418.0</ele><time>2026-04-19T07:59:53.026Z</time></trkpt><trkpt lat="41.6302286" lon="1.7988815"><ele>417.0</ele><time>2026-04-19T07:59:55.026Z</time></trkpt><trkpt lat="41.6301401" lon="1.7988468"><ele>416.0</ele><time>2026-04-19T07:59:57.027Z</time></trkpt><trkpt lat="41.6300495" lon="1.7988358"><ele>415.0</ele><time>2026-04-19T07:59:59.026Z</time></trkpt><trkpt lat="41.6299713" lon="1.7988459"><ele>415.00000000000006</ele><time>2026-04-19T08:00:01.026Z</time></trkpt><trkpt lat="41.6299031" lon="1.7988561"><ele>415.0</ele><time>2026-04-19T08:00:03.027Z</time></trkpt><trkpt lat="41.6298125" lon="1.7989006"><ele>415.0</ele><time>2026-04-19T08:00:05.027Z</time></trkpt><trkpt lat="41.6297064" lon="1.7989988"><ele>415.0</ele><time>2026-04-19T08:00:07.026Z</time></trkpt><trkpt lat="41.6296514" lon="1.7990538"><ele>415.00000000000006</ele><time>2026-04-19T08:00:08.027Z</time></trkpt><trkpt lat="41.6295988" lon="1.7991152"><ele>415.0</ele><time>2026-04-19T08:00:09.026Z</time></trkpt><trkpt lat="41.629548" lon="1.7991868"><ele>415.00000000000006</ele><time>2026-04-19T08:00:10.027Z</time></trkpt><trkpt lat="41.6295024" lon="1.7992585"><ele>415.0</ele><time>2026-04-19T08:00:11.027Z</time></trkpt><trkpt lat="41.629429" lon="1.7993801"><ele>415.0</ele><time>2026-04-19T08:00:13.026Z</time></trkpt><trkpt lat="41.6293862" lon="1.7994483"><ele>415.0</ele><time>2026-04-19T08:00:14.026Z</time></trkpt><trkpt lat="41.6293366" lon="1.7995321"><ele>415.00000000000006</ele><time>2026-04-19T08:00:16.026Z</time></trkpt><trkpt lat="41.6292983" lon="1.7996338"><ele>415.0</ele><time>2026-04-19T08:00:18.026Z</time></trkpt><trkpt lat="41.6293077" lon="1.7997859"><ele>415.2857142857143</ele><time>2026-04-19T08:00:20.027Z</time></trkpt><trkpt lat="41.6293152" lon="1.7998703"><ele>415.57142857142856</ele><time>2026-04-19T08:00:21.027Z</time></trkpt><trkpt lat="41.6293212" lon="1.7999617"><ele>415.8571428571429</ele><time>2026-04-19T08:00:22.027Z</time></trkpt><trkpt lat="41.6293292" lon="1.8000487"><ele>416.1428571428571</ele><time>2026-04-19T08:00:23.026Z</time></trkpt><trkpt lat="41.6293336" lon="1.8001431"><ele>416.4285714285714</ele><time>2026-04-19T08:00:24.026Z</time></trkpt><trkpt lat="41.6293288" lon="1.8002433"><ele>416.7142857142857</ele><time>2026-04-19T08:00:25.027Z</time></trkpt><trkpt lat="41.6292921" lon="1.8003326"><ele>417.0</ele><time>2026-04-19T08:00:26.027Z</time></trkpt><trkpt lat="41.6292363" lon="1.8004126"><ele>419.8333333333333</ele><time>2026-04-19T08:00:27.026Z</time></trkpt><trkpt lat="41.6291755" lon="1.8004873"><ele>422.66666666666663</ele><time>2026-04-19T08:00:28.026Z</time></trkpt><trkpt lat="41.6291193" lon="1.8005804"><ele>425.5</ele><time>2026-04-19T08:00:29.026Z</time></trkpt><trkpt lat="41.6290769" lon="1.8006815"><ele>428.3333333333333</ele><time>2026-04-19T08:00:30.026Z</time></trkpt><trkpt lat="41.6290346" lon="1.8007772"><ele>431.16666666666663</ele><time>2026-04-19T08:00:31.026Z</time></trkpt><trkpt lat="41.6289897" lon="1.8008774"><ele>434.0</ele><time>2026-04-19T08:00:32.027Z</time></trkpt><trkpt lat="41.6289316" lon="1.8009508"><ele>433.99999999999994</ele><time>2026-04-19T08:00:33.026Z</time></trkpt><trkpt lat="41.6288685" lon="1.8009906"><ele>434.0</ele><time>2026-04-19T08:00:34.026Z</time></trkpt><trkpt lat="41.6287986" lon="1.8009958"><ele>434.0</ele><time>2026-04-19T08:00:35.027Z</time></trkpt><trkpt lat="41.6287178" lon="1.8009778"><ele>434.0</ele><time>2026-04-19T08:00:36.027Z</time></trkpt><trkpt lat="41.6286352" lon="1.8009515"><ele>433.99999999999994</ele><time>2026-04-19T08:00:37.027Z</time></trkpt><trkpt lat="41.6285527" lon="1.8009171"><ele>434.0</ele><time>2026-04-19T08:00:38.027Z</time></trkpt><trkpt lat="41.6284756" lon="1.8008744"><ele>435.16666666666663</ele><time>2026-04-19T08:00:39.026Z</time></trkpt><trkpt lat="41.6284048" lon="1.8008152"><ele>436.3333333333333</ele><time>2026-04-19T08:00:40.027Z</time></trkpt><trkpt lat="41.6283368" lon="1.8007427"><ele>437.5</ele><time>2026-04-19T08:00:41.027Z</time></trkpt><trkpt lat="41.6282699" lon="1.8006688"><ele>438.66666666666663</ele><time>2026-04-19T08:00:42.027Z</time></trkpt><trkpt lat="41.6282041" lon="1.8006066"><ele>439.8333333333333</ele><time>2026-04-19T08:00:43.027Z</time></trkpt><trkpt lat="41.6281353" lon="1.8005675"><ele>441.0</ele><time>2026-04-19T08:00:44.027Z</time></trkpt><trkpt lat="41.6280494" lon="1.8005366"><ele>441.0</ele><time>2026-04-19T08:00:45.027Z</time></trkpt><trkpt lat="41.6279584" lon="1.8005193"><ele>441.0</ele><time>2026-04-19T08:00:46.026Z</time></trkpt><trkpt lat="41.6278645" lon="1.8005152"><ele>441.0</ele><time>2026-04-19T08:00:47.027Z</time></trkpt><trkpt lat="41.6277806" lon="1.8005164"><ele>441.0</ele><time>2026-04-19T08:00:48.026Z</time></trkpt><trkpt lat="41.6276995" lon="1.80053"><ele>441.0</ele><time>2026-04-19T08:00:49.027Z</time></trkpt><trkpt lat="41.6276217" lon="1.8005537"><ele>441.0</ele><time>2026-04-19T08:00:50.027Z</time></trkpt><trkpt lat="41.6275545" lon="1.8005828"><ele>442.0</ele><time>2026-04-19T08:00:51.026Z</time></trkpt><trkpt lat="41.6274948" lon="1.8006229"><ele>443.0</ele><time>2026-04-19T08:00:52.027Z</time></trkpt><trkpt lat="41.6273994" lon="1.8006908"><ele>444.0</ele><time>2026-04-19T08:00:54.026Z</time></trkpt><trkpt lat="41.6273203" lon="1.8007731"><ele>445.0</ele><time>2026-04-19T08:00:56.027Z</time></trkpt><trkpt lat="41.6272328" lon="1.80087"><ele>446.0</ele><time>2026-04-19T08:00:58.026Z</time></trkpt><trkpt lat="41.6271454" lon="1.8009484"><ele>445.99999999999994</ele><time>2026-04-19T08:01:00.027Z</time></trkpt><trkpt lat="41.6270486" lon="1.800981"><ele>446.0</ele><time>2026-04-19T08:01:02.027Z</time></trkpt><trkpt lat="41.6269836" lon="1.8009764"><ele>446.0</ele><time>2026-04-19T08:01:03.027Z</time></trkpt><trkpt lat="41.626915" lon="1.8009535"><ele>446.0</ele><time>2026-04-19T08:01:04.026Z</time></trkpt><trkpt lat="41.6268436" lon="1.800934"><ele>445.99999999999994</ele><time>2026-04-19T08:01:05.027Z</time></trkpt><trkpt lat="41.6267714" lon="1.8009333"><ele>446.0</ele><time>2026-04-19T08:01:06.027Z</time></trkpt><trkpt lat="41.626703" lon="1.8009532"><ele>445.16666666666663</ele><time>2026-04-19T08:01:07.027Z</time></trkpt><trkpt lat="41.6266376" lon="1.8009845"><ele>444.3333333333333</ele><time>2026-04-19T08:01:08.027Z</time></trkpt><trkpt lat="41.6265776" lon="1.8010351"><ele>443.5</ele><time>2026-04-19T08:01:09.027Z</time></trkpt><trkpt lat="41.6265208" lon="1.801096"><ele>442.66666666666663</ele><time>2026-04-19T08:01:10.026Z</time></trkpt><trkpt lat="41.6264725" lon="1.8011609"><ele>441.8333333333333</ele><time>2026-04-19T08:01:11.027Z</time></trkpt><trkpt lat="41.626367" lon="1.8012298"><ele>441.0</ele><time>2026-04-19T08:01:13.027Z</time></trkpt><trkpt lat="41.6263016" lon="1.801235"><ele>445.42857142857144</ele><time>2026-04-19T08:01:14.027Z</time></trkpt><trkpt lat="41.6262304" lon="1.8012392"><ele>449.8571428571429</ele><time>2026-04-19T08:01:15.027Z</time></trkpt><trkpt lat="41.6261607" lon="1.801238"><ele>454.2857142857143</ele><time>2026-04-19T08:01:16.027Z</time></trkpt><trkpt lat="41.6260822" lon="1.801238"><ele>458.7142857142857</ele><time>2026-04-19T08:01:17.027Z</time></trkpt><trkpt lat="41.6260135" lon="1.8012346"><ele>463.14285714285717</ele><time>2026-04-19T08:01:18.027Z</time></trkpt><trkpt lat="41.625945" lon="1.8012275"><ele>467.57142857142856</ele><time>2026-04-19T08:01:19.027Z</time></trkpt><trkpt lat="41.6258686" lon="1.8012272"><ele>472.0</ele><time>2026-04-19T08:01:20.026Z</time></trkpt><trkpt lat="41.6258019" lon="1.8012204"><ele>472.00000000000006</ele><time>2026-04-19T08:01:21.027Z</time></trkpt><trkpt lat="41.6257337" lon="1.8012145"><ele>472.0</ele><time>2026-04-19T08:01:22.027Z</time></trkpt><trkpt lat="41.625635" lon="1.8011817"><ele>472.0</ele><time>2026-04-19T08:01:24.027Z</time></trkpt><trkpt lat="41.6255732" lon="1.8011617"><ele>472.0</ele><time>2026-04-19T08:01:27.026Z</time></trkpt><trkpt lat="41.6254944" lon="1.8011636"><ele>472.00000000000006</ele><time>2026-04-19T08:01:50.027Z</time></trkpt><trkpt lat="41.6254259" lon="1.8011193"><ele>472.0</ele><time>2026-04-19T08:01:51.027Z</time></trkpt><trkpt lat="41.6253657" lon="1.8010767"><ele>474.33333333333337</ele><time>2026-04-19T08:01:52.027Z</time></trkpt><trkpt lat="41.6253028" lon="1.8010359"><ele>476.6666666666667</ele><time>2026-04-19T08:01:53.027Z</time></trkpt><trkpt lat="41.6252444" lon="1.8009921"><ele>479.0</ele><time>2026-04-19T08:01:54.026Z</time></trkpt><trkpt lat="41.6251316" lon="1.8009514"><ele>481.33333333333337</ele><time>2026-04-19T08:01:56.026Z</time></trkpt><trkpt lat="41.6250665" lon="1.8009757"><ele>483.6666666666667</ele><time>2026-04-19T08:01:57.027Z</time></trkpt><trkpt lat="41.6250063" lon="1.8010277"><ele>486.0</ele><time>2026-04-19T08:01:58.026Z</time></trkpt><trkpt lat="41.6249504" lon="1.8010938"><ele>486.0</ele><time>2026-04-19T08:01:59.027Z</time></trkpt><trkpt lat="41.6249057" lon="1.8011561"><ele>486.0</ele><time>2026-04-19T08:02:00.027Z</time></trkpt><trkpt lat="41.6248119" lon="1.801241"><ele>486.0</ele><time>2026-04-19T08:02:02.027Z</time></trkpt><trkpt lat="41.6246922" lon="1.8012344"><ele>486.0</ele><time>2026-04-19T08:02:04.027Z</time></trkpt><trkpt lat="41.6246178" lon="1.8011789"><ele>486.0</ele><time>2026-04-19T08:02:05.026Z</time></trkpt><trkpt lat="41.6245288" lon="1.8011457"><ele>488.1666666666667</ele><time>2026-04-19T08:02:06.027Z</time></trkpt><trkpt lat="41.6244435" lon="1.8011132"><ele>490.33333333333337</ele><time>2026-04-19T08:02:07.027Z</time></trkpt><trkpt lat="41.6243632" lon="1.8010774"><ele>492.5</ele><time>2026-04-19T08:02:08.027Z</time></trkpt><trkpt lat="41.6242954" lon="1.8010249"><ele>494.6666666666667</ele><time>2026-04-19T08:02:09.026Z</time></trkpt><trkpt lat="41.6242345" lon="1.8009625"><ele>496.83333333333337</ele><time>2026-04-19T08:02:10.027Z</time></trkpt><trkpt lat="41.6241746" lon="1.8009136"><ele>499.0</ele><time>2026-04-19T08:02:11.026Z</time></trkpt><trkpt lat="41.6241118" lon="1.8008901"><ele>499.00000000000006</ele><time>2026-04-19T08:02:12.027Z</time></trkpt><trkpt lat="41.6240478" lon="1.8009"><ele>499.0</ele><time>2026-04-19T08:02:13.026Z</time></trkpt><trkpt lat="41.6239694" lon="1.8009441"><ele>499.0</ele><time>2026-04-19T08:02:14.027Z</time></trkpt><trkpt lat="41.6238871" lon="1.8009973"><ele>499.0</ele><time>2026-04-19T08:02:15.027Z</time></trkpt><trkpt lat="41.6238001" lon="1.8010364"><ele>499.00000000000006</ele><time>2026-04-19T08:02:16.026Z</time></trkpt><trkpt lat="41.623712" lon="1.8010504"><ele>499.0</ele><time>2026-04-19T08:02:17.027Z</time></trkpt><trkpt lat="41.6236218" lon="1.8010629"><ele>499.6</ele><time>2026-04-19T08:02:18.027Z</time></trkpt><trkpt lat="41.6235409" lon="1.801085"><ele>500.2</ele><time>2026-04-19T08:02:19.027Z</time></trkpt><trkpt lat="41.6234656" lon="1.8010977"><ele>500.80000000000007</ele><time>2026-04-19T08:02:20.027Z</time></trkpt><trkpt lat="41.6233524" lon="1.8010485"><ele>501.40000000000003</ele><time>2026-04-19T08:02:22.026Z</time></trkpt><trkpt lat="41.6232651" lon="1.8009102"><ele>502.0</ele><time>2026-04-19T08:02:24.027Z</time></trkpt><trkpt lat="41.6232198" lon="1.8008225"><ele>497.6666666666667</ele><time>2026-04-19T08:02:25.027Z</time></trkpt><trkpt lat="41.6231679" lon="1.8007303"><ele>493.33333333333337</ele><time>2026-04-19T08:02:26.027Z</time></trkpt><trkpt lat="41.6231067" lon="1.8006572"><ele>489.0</ele><time>2026-04-19T08:02:27.026Z</time></trkpt><trkpt lat="41.6230377" lon="1.8006018"><ele>484.66666666666663</ele><time>2026-04-19T08:02:28.027Z</time></trkpt><trkpt lat="41.622966" lon="1.8005749"><ele>480.3333333333333</ele><time>2026-04-19T08:02:29.027Z</time></trkpt><trkpt lat="41.6228933" lon="1.8005569"><ele>476.0</ele><time>2026-04-19T08:02:30.027Z</time></trkpt><trkpt lat="41.6228234" lon="1.800541"><ele>477.8333333333333</ele><time>2026-04-19T08:02:31.027Z</time></trkpt><trkpt lat="41.6227135" lon="1.8004676"><ele>479.66666666666663</ele><time>2026-04-19T08:02:33.027Z</time></trkpt><trkpt lat="41.6226751" lon="1.8003982"><ele>481.5</ele><time>2026-04-19T08:02:34.027Z</time></trkpt><trkpt lat="41.6226378" lon="1.8003087"><ele>483.33333333333337</ele><time>2026-04-19T08:02:35.027Z</time></trkpt><trkpt lat="41.6226143" lon="1.8002111"><ele>485.1666666666667</ele><time>2026-04-19T08:02:36.027Z</time></trkpt><trkpt lat="41.6225821" lon="1.8001182"><ele>487.0</ele><time>2026-04-19T08:02:37.027Z</time></trkpt><trkpt lat="41.6225385" lon="1.8000516"><ele>487.00000000000006</ele><time>2026-04-19T08:02:38.026Z</time></trkpt><trkpt lat="41.6224768" lon="1.8000028"><ele>487.0</ele><time>2026-04-19T08:02:39.026Z</time></trkpt><trkpt lat="41.6224059" lon="1.7999728"><ele>487.0</ele><time>2026-04-19T08:02:40.026Z</time></trkpt><trkpt lat="41.6223177" lon="1.799969"><ele>487.0</ele><time>2026-04-19T08:02:41.027Z</time></trkpt><trkpt lat="41.6222338" lon="1.7999909"><ele>487.00000000000006</ele><time>2026-04-19T08:02:42.027Z</time></trkpt><trkpt lat="41.6221572" lon="1.8000429"><ele>487.0</ele><time>2026-04-19T08:02:43.026Z</time></trkpt><trkpt lat="41.6220837" lon="1.8001162"><ele>489.83333333333337</ele><time>2026-04-19T08:02:44.027Z</time></trkpt><trkpt lat="41.6220212" lon="1.8002029"><ele>492.6666666666667</ele><time>2026-04-19T08:02:45.026Z</time></trkpt><trkpt lat="41.6219503" lon="1.8002809"><ele>495.5</ele><time>2026-04-19T08:02:46.027Z</time></trkpt><trkpt lat="41.6218749" lon="1.8003295"><ele>498.33333333333337</ele><time>2026-04-19T08:02:47.026Z</time></trkpt><trkpt lat="41.6218054" lon="1.8003505"><ele>501.1666666666667</ele><time>2026-04-19T08:02:48.026Z</time></trkpt><trkpt lat="41.621725" lon="1.8003084"><ele>504.0</ele><time>2026-04-19T08:02:49.027Z</time></trkpt><trkpt lat="41.6216466" lon="1.8002527"><ele>502.5</ele><time>2026-04-19T08:02:50.027Z</time></trkpt><trkpt lat="41.6215732" lon="1.8002016"><ele>501.0</ele><time>2026-04-19T08:02:51.026Z</time></trkpt><trkpt lat="41.6214948" lon="1.80015"><ele>499.5</ele><time>2026-04-19T08:02:52.027Z</time></trkpt><trkpt lat="41.6214129" lon="1.8001065"><ele>498.0</ele><time>2026-04-19T08:02:53.027Z</time></trkpt><trkpt lat="41.6213267" lon="1.800088"><ele>496.5</ele><time>2026-04-19T08:02:54.026Z</time></trkpt><trkpt lat="41.6212421" lon="1.8001015"><ele>495.0</ele><time>2026-04-19T08:02:55.027Z</time></trkpt><trkpt lat="41.6211499" lon="1.8001271"><ele>495.6</ele><time>2026-04-19T08:02:56.027Z</time></trkpt><trkpt lat="41.6210584" lon="1.8001452"><ele>496.2</ele><time>2026-04-19T08:02:57.027Z</time></trkpt><trkpt lat="41.6209614" lon="1.8001554"><ele>496.79999999999995</ele><time>2026-04-19T08:02:58.027Z</time></trkpt><trkpt lat="41.6208679" lon="1.8001553"><ele>497.4</ele><time>2026-04-19T08:02:59.027Z</time></trkpt><trkpt lat="41.6207813" lon="1.8001643"><ele>498.0</ele><time>2026-04-19T08:03:00.027Z</time></trkpt><trkpt lat="41.6207027" lon="1.8001958"><ele>503.0</ele><time>2026-04-19T08:03:01.027Z</time></trkpt><trkpt lat="41.6206317" lon="1.8002647"><ele>507.99999999999994</ele><time>2026-04-19T08:03:02.027Z</time></trkpt><trkpt lat="41.6205644" lon="1.8003562"><ele>513.0</ele><time>2026-04-19T08:03:03.027Z</time></trkpt><trkpt lat="41.6204978" lon="1.8004565"><ele>518.0</ele><time>2026-04-19T08:03:04.027Z</time></trkpt><trkpt lat="41.6204209" lon="1.8005476"><ele>523.0</ele><time>2026-04-19T08:03:05.027Z</time></trkpt><trkpt lat="41.6203415" lon="1.8006317"><ele>520.8</ele><time>2026-04-19T08:03:06.027Z</time></trkpt><trkpt lat="41.6202779" lon="1.8007272"><ele>518.5999999999999</ele><time>2026-04-19T08:03:07.027Z</time></trkpt><trkpt lat="41.6202091" lon="1.8007876"><ele>516.4000000000001</ele><time>2026-04-19T08:03:08.027Z</time></trkpt><trkpt lat="41.6201296" lon="1.8008089"><ele>514.2</ele><time>2026-04-19T08:03:09.026Z</time></trkpt><trkpt lat="41.6200368" lon="1.8008036"><ele>512.0</ele><time>2026-04-19T08:03:10.026Z</time></trkpt><trkpt lat="41.6199316" lon="1.8008074"><ele>512.0</ele><time>2026-04-19T08:03:11.026Z</time></trkpt><trkpt lat="41.6198213" lon="1.8008314"><ele>512.0</ele><time>2026-04-19T08:03:12.026Z</time></trkpt><trkpt lat="41.6197089" lon="1.8008577"><ele>512.0</ele><time>2026-04-19T08:03:13.027Z</time></trkpt><trkpt lat="41.6195936" lon="1.800872"><ele>512.0</ele><time>2026-04-19T08:03:14.026Z</time></trkpt><trkpt lat="41.6194805" lon="1.800872"><ele>513.75</ele><time>2026-04-19T08:03:15.026Z</time></trkpt><trkpt lat="41.6193689" lon="1.8008746"><ele>515.5</ele><time>2026-04-19T08:03:16.027Z</time></trkpt><trkpt lat="41.6192487" lon="1.8008876"><ele>517.25</ele><time>2026-04-19T08:03:17.027Z</time></trkpt><trkpt lat="41.6191253" lon="1.8009141"><ele>519.0</ele><time>2026-04-19T08:03:18.027Z</time></trkpt><trkpt lat="41.6190071" lon="1.8009524"><ele>519.0</ele><time>2026-04-19T08:03:19.026Z</time></trkpt><trkpt lat="41.6189075" lon="1.8009941"><ele>519.0</ele><time>2026-04-19T08:03:20.026Z</time></trkpt><trkpt lat="41.6188196" lon="1.8010173"><ele>519.0</ele><time>2026-04-19T08:03:21.027Z</time></trkpt><trkpt lat="41.6187396" lon="1.8010105"><ele>519.0</ele><time>2026-04-19T08:03:22.026Z</time></trkpt><trkpt lat="41.6186755" lon="1.8009607"><ele>519.0</ele><time>2026-04-19T08:03:23.027Z</time></trkpt><trkpt lat="41.6186148" lon="1.8008718"><ele>519.0</ele><time>2026-04-19T08:03:24.027Z</time></trkpt><trkpt lat="41.6185505" lon="1.8007706"><ele>521.5</ele><time>2026-04-19T08:03:25.027Z</time></trkpt><trkpt lat="41.6184823" lon="1.800682"><ele>524.0</ele><time>2026-04-19T08:03:26.027Z</time></trkpt><trkpt lat="41.6184239" lon="1.8006003"><ele>526.5</ele><time>2026-04-19T08:03:27.027Z</time></trkpt><trkpt lat="41.6183609" lon="1.8005351"><ele>529.0</ele><time>2026-04-19T08:03:28.027Z</time></trkpt><trkpt lat="41.6182933" lon="1.8004854"><ele>531.5</ele><time>2026-04-19T08:03:29.026Z</time></trkpt><trkpt lat="41.6182302" lon="1.8004326"><ele>534.0</ele><time>2026-04-19T08:03:30.027Z</time></trkpt><trkpt lat="41.618142" lon="1.8004126"><ele>534.0</ele><time>2026-04-19T08:03:32.026Z</time></trkpt><trkpt lat="41.6180758" lon="1.8004049"><ele>534.0</ele><time>2026-04-19T08:03:35.027Z</time></trkpt><trkpt lat="41.6181505" lon="1.8004137"><ele>534.0</ele><time>2026-04-19T08:05:43.027Z</time></trkpt><trkpt lat="41.6182563" lon="1.8004678"><ele>534.0</ele><time>2026-04-19T08:05:45.027Z</time></trkpt><trkpt lat="41.6183033" lon="1.8005533"><ele>534.0</ele><time>2026-04-19T08:05:47.026Z</time></trkpt><trkpt lat="41.618356" lon="1.800507"><ele>534.0</ele><time>2026-04-19T08:05:52.027Z</time></trkpt><trkpt lat="41.618312" lon="1.8004207"><ele>534.0</ele><time>2026-04-19T08:05:55.027Z</time></trkpt><trkpt lat="41.6182527" lon="1.8003823"><ele>534.0</ele><time>2026-04-19T08:05:57.027Z</time></trkpt><trkpt lat="41.6181479" lon="1.8004388"><ele>534.0</ele><time>2026-04-19T08:06:10.026Z</time></trkpt></trkseg><trkseg><trkpt lat="41.6180303" lon="1.8004209"><ele>534.0</ele><time>2026-04-19T08:25:13.031Z</time></trkpt><trkpt lat="41.6179748" lon="1.8004763"><ele>534.0</ele><time>2026-04-19T08:26:22.03Z</time></trkpt><trkpt lat="41.6179202" lon="1.8005199"><ele>534.0</ele><time>2026-04-19T08:26:24.031Z</time></trkpt><trkpt lat="41.6178554" lon="1.800591"><ele>534.0</ele><time>2026-04-19T08:26:26.031Z</time></trkpt><trkpt lat="41.6177579" lon="1.8006631"><ele>534.0</ele><time>2026-04-19T08:26:28.031Z</time></trkpt><trkpt lat="41.6176393" lon="1.8006717"><ele>534.0</ele><time>2026-04-19T08:26:30.03Z</time></trkpt><trkpt lat="41.6175756" lon="1.8006613"><ele>535.7142857142858</ele><time>2026-04-19T08:26:31.031Z</time></trkpt><trkpt lat="41.6175084" lon="1.8006515"><ele>537.4285714285714</ele><time>2026-04-19T08:26:32.031Z</time></trkpt><trkpt lat="41.6174412" lon="1.8006538"><ele>539.1428571428571</ele><time>2026-04-19T08:26:33.031Z</time></trkpt><trkpt lat="41.6173739" lon="1.8006666"><ele>540.8571428571429</ele><time>2026-04-19T08:26:34.031Z</time></trkpt><trkpt lat="41.6173049" lon="1.8006874"><ele>542.5714285714286</ele><time>2026-04-19T08:26:35.031Z</time></trkpt><trkpt lat="41.6172365" lon="1.8007189"><ele>544.2857142857143</ele><time>2026-04-19T08:26:36.031Z</time></trkpt><trkpt lat="41.6171708" lon="1.8007581"><ele>546.0</ele><time>2026-04-19T08:26:37.03Z</time></trkpt><trkpt lat="41.6170997" lon="1.800798"><ele>546.0</ele><time>2026-04-19T08:26:38.031Z</time></trkpt><trkpt lat="41.6170351" lon="1.8008434"><ele>546.0</ele><time>2026-04-19T08:26:39.031Z</time></trkpt><trkpt lat="41.6169666" lon="1.8008881"><ele>546.0</ele><time>2026-04-19T08:26:40.03Z</time></trkpt><trkpt lat="41.6168964" lon="1.8009306"><ele>546.0</ele><time>2026-04-19T08:26:41.031Z</time></trkpt><trkpt lat="41.6168265" lon="1.8009653"><ele>546.0</ele><time>2026-04-19T08:26:42.031Z</time></trkpt><trkpt lat="41.6167546" lon="1.800995"><ele>546.0</ele><time>2026-04-19T08:26:43.031Z</time></trkpt><trkpt lat="41.6166796" lon="1.8010098"><ele>546.8333333333334</ele><time>2026-04-19T08:26:44.031Z</time></trkpt><trkpt lat="41.6165998" lon="1.8010101"><ele>547.6666666666666</ele><time>2026-04-19T08:26:45.03Z</time></trkpt><trkpt lat="41.6165154" lon="1.8010112"><ele>548.5</ele><time>2026-04-19T08:26:46.031Z</time></trkpt><trkpt lat="41.6164299" lon="1.8010043"><ele>549.3333333333333</ele><time>2026-04-19T08:26:47.031Z</time></trkpt><trkpt lat="41.6163465" lon="1.8009945"><ele>550.1666666666666</ele><time>2026-04-19T08:26:48.03Z</time></trkpt><trkpt lat="41.6162688" lon="1.8009943"><ele>551.0</ele><time>2026-04-19T08:26:49.031Z</time></trkpt><trkpt lat="41.6161913" lon="1.8009901"><ele>554.1666666666666</ele><time>2026-04-19T08:26:50.031Z</time></trkpt><trkpt lat="41.616091" lon="1.800992"><ele>557.3333333333333</ele><time>2026-04-19T08:26:51.03Z</time></trkpt><trkpt lat="41.6159981" lon="1.8009961"><ele>560.5</ele><time>2026-04-19T08:26:52.03Z</time></trkpt><trkpt lat="41.6159106" lon="1.8009748"><ele>563.6666666666666</ele><time>2026-04-19T08:26:53.031Z</time></trkpt><trkpt lat="41.6158284" lon="1.8009535"><ele>566.8333333333334</ele><time>2026-04-19T08:26:54.031Z</time></trkpt><trkpt lat="41.6157541" lon="1.8009154"><ele>570.0</ele><time>2026-04-19T08:26:55.031Z</time></trkpt><trkpt lat="41.6156905" lon="1.8008593"><ele>570.0</ele><time>2026-04-19T08:26:56.031Z</time></trkpt><trkpt lat="41.6156341" lon="1.8007833"><ele>570.0</ele><time>2026-04-19T08:26:57.03Z</time></trkpt><trkpt lat="41.6155761" lon="1.8007008"><ele>570.0</ele><time>2026-04-19T08:26:58.031Z</time></trkpt><trkpt lat="41.615527" lon="1.8006246"><ele>570.0</ele><time>2026-04-19T08:26:59.031Z</time></trkpt><trkpt lat="41.6154733" lon="1.8005551"><ele>570.0</ele><time>2026-04-19T08:27:00.031Z</time></trkpt><trkpt lat="41.6154179" lon="1.800498"><ele>570.0</ele><time>2026-04-19T08:27:01.031Z</time></trkpt><trkpt lat="41.6153543" lon="1.8004606"><ele>572.6666666666666</ele><time>2026-04-19T08:27:02.031Z</time></trkpt><trkpt lat="41.615279" lon="1.8004519"><ele>575.3333333333334</ele><time>2026-04-19T08:27:03.031Z</time></trkpt><trkpt lat="41.6151984" lon="1.800456"><ele>578.0</ele><time>2026-04-19T08:27:04.03Z</time></trkpt><trkpt lat="41.6151083" lon="1.8004666"><ele>580.6666666666667</ele><time>2026-04-19T08:27:05.031Z</time></trkpt><trkpt lat="41.6150136" lon="1.8004706"><ele>583.3333333333334</ele><time>2026-04-19T08:27:06.031Z</time></trkpt><trkpt lat="41.6149174" lon="1.8004686"><ele>586.0</ele><time>2026-04-19T08:27:07.031Z</time></trkpt><trkpt lat="41.6148225" lon="1.8004618"><ele>586.0</ele><time>2026-04-19T08:27:08.03Z</time></trkpt><trkpt lat="41.6147295" lon="1.800449"><ele>586.0</ele><time>2026-04-19T08:27:09.031Z</time></trkpt><trkpt lat="41.6146387" lon="1.8004303"><ele>586.0</ele><time>2026-04-19T08:27:10.031Z</time></trkpt><trkpt lat="41.614548" lon="1.800422"><ele>586.0</ele><time>2026-04-19T08:27:11.031Z</time></trkpt><trkpt lat="41.6144566" lon="1.8004192"><ele>586.0</ele><time>2026-04-19T08:27:12.031Z</time></trkpt><trkpt lat="41.6143674" lon="1.8004142"><ele>589.8</ele><time>2026-04-19T08:27:13.031Z</time></trkpt><trkpt lat="41.6142808" lon="1.8003934"><ele>593.6</ele><time>2026-04-19T08:27:14.031Z</time></trkpt><trkpt lat="41.6141962" lon="1.8003653"><ele>597.4</ele><time>2026-04-19T08:27:15.031Z</time></trkpt><trkpt lat="41.614109" lon="1.8003477"><ele>601.2</ele><time>2026-04-19T08:27:16.031Z</time></trkpt><trkpt lat="41.6140163" lon="1.8003465"><ele>605.0</ele><time>2026-04-19T08:27:17.031Z</time></trkpt><trkpt lat="41.6139183" lon="1.8003489"><ele>605.0</ele><time>2026-04-19T08:27:18.031Z</time></trkpt><trkpt lat="41.6138184" lon="1.8003623"><ele>605.0</ele><time>2026-04-19T08:27:19.031Z</time></trkpt><trkpt lat="41.6137218" lon="1.8003751"><ele>605.0</ele><time>2026-04-19T08:27:20.031Z</time></trkpt><trkpt lat="41.6136287" lon="1.8003902"><ele>605.0</ele><time>2026-04-19T08:27:21.03Z</time></trkpt><trkpt lat="41.6135419" lon="1.8004078"><ele>605.0</ele><time>2026-04-19T08:27:22.03Z</time></trkpt><trkpt lat="41.6134492" lon="1.8004215"><ele>606.1666666666666</ele><time>2026-04-19T08:27:23.031Z</time></trkpt><trkpt lat="41.6133606" lon="1.8004274"><ele>607.3333333333333</ele><time>2026-04-19T08:27:24.031Z</time></trkpt><trkpt lat="41.6132686" lon="1.8004177"><ele>608.5</ele><time>2026-04-19T08:27:25.03Z</time></trkpt><trkpt lat="41.6131797" lon="1.8003955"><ele>609.6666666666666</ele><time>2026-04-19T08:27:26.031Z</time></trkpt><trkpt lat="41.6130918" lon="1.8003684"><ele>610.8333333333334</ele><time>2026-04-19T08:27:27.031Z</time></trkpt><trkpt lat="41.6130118" lon="1.8003372"><ele>612.0</ele><time>2026-04-19T08:27:28.03Z</time></trkpt><trkpt lat="41.612936" lon="1.8002874"><ele>612.0</ele><time>2026-04-19T08:27:29.031Z</time></trkpt><trkpt lat="41.6128657" lon="1.8002112"><ele>612.0</ele><time>2026-04-19T08:27:30.03Z</time></trkpt><trkpt lat="41.6128068" lon="1.8001202"><ele>612.0</ele><time>2026-04-19T08:27:31.031Z</time></trkpt><trkpt lat="41.6127566" lon="1.8000119"><ele>612.0</ele><time>2026-04-19T08:27:32.03Z</time></trkpt><trkpt lat="41.6127031" lon="1.7998929"><ele>612.0</ele><time>2026-04-19T08:27:33.03Z</time></trkpt><trkpt lat="41.6126484" lon="1.7997728"><ele>617.4</ele><time>2026-04-19T08:27:34.03Z</time></trkpt><trkpt lat="41.6125922" lon="1.7996565"><ele>622.8000000000001</ele><time>2026-04-19T08:27:35.031Z</time></trkpt><trkpt lat="41.6125436" lon="1.7995328"><ele>628.2</ele><time>2026-04-19T08:27:36.031Z</time></trkpt><trkpt lat="41.6125117" lon="1.7994078"><ele>633.6</ele><time>2026-04-19T08:27:37.031Z</time></trkpt><trkpt lat="41.6125096" lon="1.7992758"><ele>639.0</ele><time>2026-04-19T08:27:38.03Z</time></trkpt><trkpt lat="41.612534" lon="1.799147"><ele>639.6666666666666</ele><time>2026-04-19T08:27:39.031Z</time></trkpt><trkpt lat="41.6125699" lon="1.7990206"><ele>640.3333333333334</ele><time>2026-04-19T08:27:40.031Z</time></trkpt><trkpt lat="41.6125882" lon="1.798906"><ele>641.0</ele><time>2026-04-19T08:27:41.031Z</time></trkpt><trkpt lat="41.6125751" lon="1.7987918"><ele>641.6666666666667</ele><time>2026-04-19T08:27:42.031Z</time></trkpt><trkpt lat="41.6125475" lon="1.798683"><ele>642.3333333333334</ele><time>2026-04-19T08:27:43.031Z</time></trkpt><trkpt lat="41.6125203" lon="1.7985792"><ele>643.0</ele><time>2026-04-19T08:27:44.031Z</time></trkpt><trkpt lat="41.6125211" lon="1.7984904"><ele>644.1666666666667</ele><time>2026-04-19T08:27:45.03Z</time></trkpt><trkpt lat="41.6125854" lon="1.7983454"><ele>645.3333333333334</ele><time>2026-04-19T08:27:47.031Z</time></trkpt><trkpt lat="41.6126524" lon="1.7983007"><ele>646.5</ele><time>2026-04-19T08:27:48.031Z</time></trkpt><trkpt lat="41.6127329" lon="1.7982685"><ele>647.6666666666666</ele><time>2026-04-19T08:27:49.031Z</time></trkpt><trkpt lat="41.6128101" lon="1.7982423"><ele>648.8333333333333</ele><time>2026-04-19T08:27:50.03Z</time></trkpt><trkpt lat="41.612876" lon="1.798202"><ele>650.0</ele><time>2026-04-19T08:27:51.031Z</time></trkpt><trkpt lat="41.612931" lon="1.7980696"><ele>651.4</ele><time>2026-04-19T08:27:53.031Z</time></trkpt><trkpt lat="41.6128816" lon="1.7979031"><ele>652.8</ele><time>2026-04-19T08:27:55.031Z</time></trkpt><trkpt lat="41.6128527" lon="1.7977851"><ele>654.2</ele><time>2026-04-19T08:27:56.03Z</time></trkpt><trkpt lat="41.6128358" lon="1.7976493"><ele>655.6</ele><time>2026-04-19T08:27:57.03Z</time></trkpt><trkpt lat="41.6128286" lon="1.7975103"><ele>657.0</ele><time>2026-04-19T08:27:58.03Z</time></trkpt><trkpt lat="41.6128117" lon="1.7973837"><ele>657.0</ele><time>2026-04-19T08:27:59.03Z</time></trkpt><trkpt lat="41.6127995" lon="1.7972645"><ele>657.0</ele><time>2026-04-19T08:28:00.03Z</time></trkpt><trkpt lat="41.6127976" lon="1.7971538"><ele>657.0</ele><time>2026-04-19T08:28:01.03Z</time></trkpt><trkpt lat="41.6128086" lon="1.7970491"><ele>657.0</ele><time>2026-04-19T08:28:02.031Z</time></trkpt><trkpt lat="41.6128265" lon="1.7969451"><ele>657.0</ele><time>2026-04-19T08:28:03.031Z</time></trkpt><trkpt lat="41.6128597" lon="1.796855"><ele>657.0</ele><time>2026-04-19T08:28:04.03Z</time></trkpt><trkpt lat="41.6128992" lon="1.7967479"><ele>654.4285714285714</ele><time>2026-04-19T08:28:05.031Z</time></trkpt><trkpt lat="41.6129652" lon="1.7967075"><ele>651.8571428571429</ele><time>2026-04-19T08:28:06.031Z</time></trkpt><trkpt lat="41.6130395" lon="1.796682"><ele>649.2857142857143</ele><time>2026-04-19T08:28:07.031Z</time></trkpt><trkpt lat="41.6131149" lon="1.7966661"><ele>646.7142857142858</ele><time>2026-04-19T08:28:08.031Z</time></trkpt><trkpt lat="41.6131835" lon="1.7966366"><ele>644.1428571428571</ele><time>2026-04-19T08:28:09.031Z</time></trkpt><trkpt lat="41.6132409" lon="1.7965762"><ele>641.5714285714287</ele><time>2026-04-19T08:28:10.031Z</time></trkpt><trkpt lat="41.613291" lon="1.7964966"><ele>639.0</ele><time>2026-04-19T08:28:11.03Z</time></trkpt><trkpt lat="41.6133259" lon="1.796392"><ele>639.0</ele><time>2026-04-19T08:28:12.031Z</time></trkpt><trkpt lat="41.6133536" lon="1.7962793"><ele>639.0</ele><time>2026-04-19T08:28:13.031Z</time></trkpt><trkpt lat="41.6133784" lon="1.7961672"><ele>639.0</ele><time>2026-04-19T08:28:14.031Z</time></trkpt><trkpt lat="41.6134291" lon="1.7960904"><ele>639.0</ele><time>2026-04-19T08:28:15.031Z</time></trkpt><trkpt lat="41.6134852" lon="1.7960106"><ele>639.0</ele><time>2026-04-19T08:28:16.03Z</time></trkpt><trkpt lat="41.613555" lon="1.7959739"><ele>639.0</ele><time>2026-04-19T08:28:17.031Z</time></trkpt><trkpt lat="41.6136146" lon="1.7959196"><ele>637.3333333333334</ele><time>2026-04-19T08:28:18.031Z</time></trkpt><trkpt lat="41.6136658" lon="1.795842"><ele>635.6666666666666</ele><time>2026-04-19T08:28:19.031Z</time></trkpt><trkpt lat="41.6137027" lon="1.7957483"><ele>634.0</ele><time>2026-04-19T08:28:20.031Z</time></trkpt><trkpt lat="41.6137358" lon="1.7956491"><ele>632.3333333333333</ele><time>2026-04-19T08:28:21.031Z</time></trkpt><trkpt lat="41.6137792" lon="1.795574"><ele>630.6666666666666</ele><time>2026-04-19T08:28:22.031Z</time></trkpt><trkpt lat="41.6138418" lon="1.7955296"><ele>629.0</ele><time>2026-04-19T08:28:23.031Z</time></trkpt><trkpt lat="41.6139152" lon="1.7955214"><ele>629.0</ele><time>2026-04-19T08:28:24.03Z</time></trkpt><trkpt lat="41.6139862" lon="1.7955059"><ele>629.0</ele><time>2026-04-19T08:28:25.031Z</time></trkpt><trkpt lat="41.6140623" lon="1.7954639"><ele>629.0</ele><time>2026-04-19T08:28:26.03Z</time></trkpt><trkpt lat="41.6141272" lon="1.7954133"><ele>629.0</ele><time>2026-04-19T08:28:27.03Z</time></trkpt><trkpt lat="41.6141787" lon="1.7953183"><ele>629.0</ele><time>2026-04-19T08:28:28.031Z</time></trkpt><trkpt lat="41.6142338" lon="1.7952355"><ele>629.0</ele><time>2026-04-19T08:28:29.031Z</time></trkpt><trkpt lat="41.6143043" lon="1.79518"><ele>626.0</ele><time>2026-04-19T08:28:30.03Z</time></trkpt><trkpt lat="41.6143865" lon="1.7951507"><ele>623.0</ele><time>2026-04-19T08:28:31.03Z</time></trkpt><trkpt lat="41.6144722" lon="1.7951551"><ele>620.0</ele><time>2026-04-19T08:28:32.031Z</time></trkpt><trkpt lat="41.6145595" lon="1.7951767"><ele>617.0</ele><time>2026-04-19T08:28:33.031Z</time></trkpt><trkpt lat="41.6146451" lon="1.7951965"><ele>614.0</ele><time>2026-04-19T08:28:34.031Z</time></trkpt><trkpt lat="41.6147288" lon="1.7952146"><ele>611.0</ele><time>2026-04-19T08:28:35.03Z</time></trkpt><trkpt lat="41.6148084" lon="1.7952128"><ele>611.0</ele><time>2026-04-19T08:28:36.031Z</time></trkpt><trkpt lat="41.6148834" lon="1.795183"><ele>611.0</ele><time>2026-04-19T08:28:37.03Z</time></trkpt><trkpt lat="41.6149539" lon="1.7951231"><ele>611.0</ele><time>2026-04-19T08:28:38.03Z</time></trkpt><trkpt lat="41.6150181" lon="1.7950452"><ele>611.0</ele><time>2026-04-19T08:28:39.031Z</time></trkpt><trkpt lat="41.6150806" lon="1.7949528"><ele>611.0</ele><time>2026-04-19T08:28:40.03Z</time></trkpt><trkpt lat="41.6151349" lon="1.7948671"><ele>611.0</ele><time>2026-04-19T08:28:41.031Z</time></trkpt><trkpt lat="41.6151859" lon="1.7947809"><ele>611.3333333333333</ele><time>2026-04-19T08:28:42.03Z</time></trkpt><trkpt lat="41.6152456" lon="1.7947148"><ele>611.6666666666666</ele><time>2026-04-19T08:28:43.031Z</time></trkpt><trkpt lat="41.6153072" lon="1.794665"><ele>612.0</ele><time>2026-04-19T08:28:44.031Z</time></trkpt><trkpt lat="41.6153586" lon="1.7946079"><ele>612.3333333333334</ele><time>2026-04-19T08:28:45.031Z</time></trkpt><trkpt lat="41.6153826" lon="1.7944373"><ele>612.6666666666667</ele><time>2026-04-19T08:28:47.031Z</time></trkpt><trkpt lat="41.615368" lon="1.7943311"><ele>613.0</ele><time>2026-04-19T08:28:48.031Z</time></trkpt><trkpt lat="41.6153426" lon="1.7942251"><ele>620.1666666666667</ele><time>2026-04-19T08:28:49.031Z</time></trkpt><trkpt lat="41.6153045" lon="1.7941261"><ele>627.3333333333334</ele><time>2026-04-19T08:28:50.03Z</time></trkpt><trkpt lat="41.615261" lon="1.7940438"><ele>634.5</ele><time>2026-04-19T08:28:51.031Z</time></trkpt><trkpt lat="41.615215" lon="1.7939633"><ele>641.6666666666666</ele><time>2026-04-19T08:28:52.03Z</time></trkpt><trkpt lat="41.615173" lon="1.7938782"><ele>648.8333333333333</ele><time>2026-04-19T08:28:53.031Z</time></trkpt><trkpt lat="41.6151457" lon="1.7937896"><ele>656.0</ele><time>2026-04-19T08:28:54.03Z</time></trkpt><trkpt lat="41.6151246" lon="1.7936911"><ele>656.0</ele><time>2026-04-19T08:28:55.031Z</time></trkpt><trkpt lat="41.6151097" lon="1.7935914"><ele>656.0</ele><time>2026-04-19T08:28:56.031Z</time></trkpt><trkpt lat="41.6151045" lon="1.7934918"><ele>656.0</ele><time>2026-04-19T08:28:57.031Z</time></trkpt><trkpt lat="41.6151109" lon="1.7933927"><ele>656.0</ele><time>2026-04-19T08:28:58.031Z</time></trkpt><trkpt lat="41.6151222" lon="1.7932986"><ele>656.0</ele><time>2026-04-19T08:28:59.031Z</time></trkpt><trkpt lat="41.6151423" lon="1.7932133"><ele>656.0</ele><time>2026-04-19T08:29:00.031Z</time></trkpt><trkpt lat="41.6151857" lon="1.7930764"><ele>656.4</ele><time>2026-04-19T08:29:02.03Z</time></trkpt><trkpt lat="41.6152368" lon="1.7929889"><ele>656.8</ele><time>2026-04-19T08:29:04.031Z</time></trkpt><trkpt lat="41.6153215" lon="1.7928939"><ele>657.1999999999999</ele><time>2026-04-19T08:29:06.031Z</time></trkpt><trkpt lat="41.6154241" lon="1.79279"><ele>657.5999999999999</ele><time>2026-04-19T08:29:08.03Z</time></trkpt><trkpt lat="41.6154731" lon="1.7927315"><ele>658.0</ele><time>2026-04-19T08:29:09.031Z</time></trkpt><trkpt lat="41.6155148" lon="1.792663"><ele>654.5</ele><time>2026-04-19T08:29:10.031Z</time></trkpt><trkpt lat="41.6155483" lon="1.7925851"><ele>651.0</ele><time>2026-04-19T08:29:11.031Z</time></trkpt><trkpt lat="41.6155669" lon="1.7925003"><ele>647.5</ele><time>2026-04-19T08:29:12.031Z</time></trkpt><trkpt lat="41.6155674" lon="1.7923939"><ele>644.0</ele><time>2026-04-19T08:29:13.03Z</time></trkpt><trkpt lat="41.615544" lon="1.7922632"><ele>640.5</ele><time>2026-04-19T08:29:14.031Z</time></trkpt><trkpt lat="41.6155029" lon="1.7921253"><ele>637.0</ele><time>2026-04-19T08:29:15.031Z</time></trkpt><trkpt lat="41.6154437" lon="1.7919887"><ele>637.0</ele><time>2026-04-19T08:29:16.03Z</time></trkpt><trkpt lat="41.6153759" lon="1.7918533"><ele>637.0</ele><time>2026-04-19T08:29:17.03Z</time></trkpt><trkpt lat="41.6152997" lon="1.7917195"><ele>637.0</ele><time>2026-04-19T08:29:18.031Z</time></trkpt><trkpt lat="41.6152115" lon="1.791584"><ele>637.0</ele><time>2026-04-19T08:29:19.031Z</time></trkpt><trkpt lat="41.6151209" lon="1.7914475"><ele>636.25</ele><time>2026-04-19T08:29:20.03Z</time></trkpt><trkpt lat="41.615039" lon="1.7913095"><ele>635.5</ele><time>2026-04-19T08:29:21.031Z</time></trkpt><trkpt lat="41.6149817" lon="1.7911533"><ele>634.75</ele><time>2026-04-19T08:29:22.031Z</time></trkpt><trkpt lat="41.614962" lon="1.7909909"><ele>634.0</ele><time>2026-04-19T08:29:23.03Z</time></trkpt><trkpt lat="41.6149494" lon="1.7908313"><ele>634.0</ele><time>2026-04-19T08:29:24.031Z</time></trkpt><trkpt lat="41.6149106" lon="1.7906819"><ele>634.0</ele><time>2026-04-19T08:29:25.031Z</time></trkpt><trkpt lat="41.6148526" lon="1.7905321"><ele>634.0</ele><time>2026-04-19T08:29:26.031Z</time></trkpt><trkpt lat="41.6147779" lon="1.790384"><ele>634.0</ele><time>2026-04-19T08:29:27.031Z</time></trkpt><trkpt lat="41.6146962" lon="1.7902465"><ele>628.75</ele><time>2026-04-19T08:29:28.03Z</time></trkpt><trkpt lat="41.6146124" lon="1.7901176"><ele>623.5</ele><time>2026-04-19T08:29:29.031Z</time></trkpt><trkpt lat="41.6145324" lon="1.7899957"><ele>618.25</ele><time>2026-04-19T08:29:30.031Z</time></trkpt><trkpt lat="41.6144626" lon="1.7898623"><ele>613.0</ele><time>2026-04-19T08:29:31.03Z</time></trkpt><trkpt lat="41.614409" lon="1.7897004"><ele>624.0</ele><time>2026-04-19T08:29:32.031Z</time></trkpt><trkpt lat="41.6143665" lon="1.7895285"><ele>635.0</ele><time>2026-04-19T08:29:33.031Z</time></trkpt><trkpt lat="41.6143251" lon="1.789361"><ele>646.0</ele><time>2026-04-19T08:29:34.031Z</time></trkpt><trkpt lat="41.6142929" lon="1.7891916"><ele>657.0</ele><time>2026-04-19T08:29:35.03Z</time></trkpt><trkpt lat="41.6142978" lon="1.7890195"><ele>657.0</ele><time>2026-04-19T08:29:36.031Z</time></trkpt><trkpt lat="41.6143327" lon="1.7888443"><ele>657.0</ele><time>2026-04-19T08:29:37.031Z</time></trkpt><trkpt lat="41.6143976" lon="1.7886684"><ele>657.0</ele><time>2026-04-19T08:29:38.031Z</time></trkpt><trkpt lat="41.6144756" lon="1.7884958"><ele>657.0</ele><time>2026-04-19T08:29:39.031Z</time></trkpt><trkpt lat="41.6145773" lon="1.7883511"><ele>646.75</ele><time>2026-04-19T08:29:40.031Z</time></trkpt><trkpt lat="41.6146999" lon="1.7882421"><ele>636.5</ele><time>2026-04-19T08:29:41.03Z</time></trkpt><trkpt lat="41.6148298" lon="1.7881656"><ele>626.25</ele><time>2026-04-19T08:29:42.031Z</time></trkpt><trkpt lat="41.6149564" lon="1.7880883"><ele>616.0</ele><time>2026-04-19T08:29:43.031Z</time></trkpt><trkpt lat="41.6150762" lon="1.7879944"><ele>616.0</ele><time>2026-04-19T08:29:44.031Z</time></trkpt><trkpt lat="41.6151919" lon="1.7878784"><ele>616.0</ele><time>2026-04-19T08:29:45.031Z</time></trkpt><trkpt lat="41.6152911" lon="1.7877364"><ele>616.0</ele><time>2026-04-19T08:29:46.03Z</time></trkpt><trkpt lat="41.6153791" lon="1.787587"><ele>616.0</ele><time>2026-04-19T08:29:47.03Z</time></trkpt><trkpt lat="41.6154843" lon="1.7874674"><ele>616.25</ele><time>2026-04-19T08:29:48.031Z</time></trkpt><trkpt lat="41.6156119" lon="1.7873925"><ele>616.5</ele><time>2026-04-19T08:29:49.03Z</time></trkpt><trkpt lat="41.6157521" lon="1.7873284"><ele>616.75</ele><time>2026-04-19T08:29:50.031Z</time></trkpt><trkpt lat="41.6158906" lon="1.7872615"><ele>617.0</ele><time>2026-04-19T08:29:51.031Z</time></trkpt><trkpt lat="41.6160282" lon="1.7871876"><ele>620.5</ele><time>2026-04-19T08:29:52.03Z</time></trkpt><trkpt lat="41.616159" lon="1.7871019"><ele>624.0</ele><time>2026-04-19T08:29:53.03Z</time></trkpt><trkpt lat="41.6162839" lon="1.7870102"><ele>627.5</ele><time>2026-04-19T08:29:54.031Z</time></trkpt><trkpt lat="41.6164065" lon="1.7869161"><ele>631.0</ele><time>2026-04-19T08:29:55.031Z</time></trkpt><trkpt lat="41.6165275" lon="1.7868213"><ele>631.0</ele><time>2026-04-19T08:29:56.03Z</time></trkpt><trkpt lat="41.6166468" lon="1.786719"><ele>631.0</ele><time>2026-04-19T08:29:57.031Z</time></trkpt><trkpt lat="41.6167691" lon="1.7866205"><ele>631.0</ele><time>2026-04-19T08:29:58.03Z</time></trkpt><trkpt lat="41.6169004" lon="1.7865252"><ele>631.0</ele><time>2026-04-19T08:29:59.031Z</time></trkpt><trkpt lat="41.6170344" lon="1.7864249"><ele>620.0</ele><time>2026-04-19T08:30:00.031Z</time></trkpt><trkpt lat="41.6171701" lon="1.7863167"><ele>609.0</ele><time>2026-04-19T08:30:01.03Z</time></trkpt><trkpt lat="41.6172962" lon="1.7861992"><ele>598.0</ele><time>2026-04-19T08:30:02.031Z</time></trkpt><trkpt lat="41.6174149" lon="1.7860755"><ele>600.75</ele><time>2026-04-19T08:30:03.031Z</time></trkpt><trkpt lat="41.6175352" lon="1.7859627"><ele>603.5</ele><time>2026-04-19T08:30:04.031Z</time></trkpt><trkpt lat="41.6176575" lon="1.7858658"><ele>606.25</ele><time>2026-04-19T08:30:05.031Z</time></trkpt><trkpt lat="41.6177916" lon="1.7857853"><ele>609.0</ele><time>2026-04-19T08:30:06.031Z</time></trkpt><trkpt lat="41.6179341" lon="1.7857294"><ele>609.0</ele><time>2026-04-19T08:30:07.03Z</time></trkpt><trkpt lat="41.6180676" lon="1.7856846"><ele>609.0</ele><time>2026-04-19T08:30:08.031Z</time></trkpt><trkpt lat="41.6181885" lon="1.7856277"><ele>609.0</ele><time>2026-04-19T08:30:09.031Z</time></trkpt><trkpt lat="41.6182878" lon="1.7855339"><ele>609.0</ele><time>2026-04-19T08:30:10.031Z</time></trkpt><trkpt lat="41.6183587" lon="1.7854064"><ele>609.0</ele><time>2026-04-19T08:30:11.031Z</time></trkpt><trkpt lat="41.6183959" lon="1.7852518"><ele>609.0</ele><time>2026-04-19T08:30:12.03Z</time></trkpt><trkpt lat="41.6183965" lon="1.7850862"><ele>609.0</ele><time>2026-04-19T08:30:13.031Z</time></trkpt><trkpt lat="41.6183663" lon="1.7849255"><ele>609.0</ele><time>2026-04-19T08:30:14.03Z</time></trkpt><trkpt lat="41.6183636" lon="1.7847763"><ele>613.25</ele><time>2026-04-19T08:30:15.031Z</time></trkpt><trkpt lat="41.6183271" lon="1.784649"><ele>617.5</ele><time>2026-04-19T08:30:16.03Z</time></trkpt><trkpt lat="41.6182604" lon="1.7845225"><ele>621.75</ele><time>2026-04-19T08:30:17.03Z</time></trkpt><trkpt lat="41.6180663" lon="1.7844785"><ele>626.0</ele><time>2026-04-19T08:30:18.031Z</time></trkpt><trkpt lat="41.617901" lon="1.7844081"><ele>627.3333333333333</ele><time>2026-04-19T08:30:19.03Z</time></trkpt><trkpt lat="41.6177467" lon="1.7843296"><ele>628.6666666666666</ele><time>2026-04-19T08:30:20.031Z</time></trkpt><trkpt lat="41.6175875" lon="1.7842481"><ele>630.0</ele><time>2026-04-19T08:30:21.03Z</time></trkpt><trkpt lat="41.6174244" lon="1.7841654"><ele>630.0</ele><time>2026-04-19T08:30:22.031Z</time></trkpt><trkpt lat="41.6172672" lon="1.7840815"><ele>630.0</ele><time>2026-04-19T08:30:23.03Z</time></trkpt><trkpt lat="41.6171059" lon="1.7839949"><ele>630.0</ele><time>2026-04-19T08:30:24.03Z</time></trkpt><trkpt lat="41.6169514" lon="1.7838992"><ele>639.0</ele><time>2026-04-19T08:30:25.03Z</time></trkpt><trkpt lat="41.6168003" lon="1.7837943"><ele>648.0</ele><time>2026-04-19T08:30:26.031Z</time></trkpt><trkpt lat="41.6166551" lon="1.7836839"><ele>657.0</ele><time>2026-04-19T08:30:27.03Z</time></trkpt><trkpt lat="41.6165141" lon="1.7835823"><ele>654.5</ele><time>2026-04-19T08:30:28.031Z</time></trkpt><trkpt lat="41.6163751" lon="1.7834978"><ele>652.0</ele><time>2026-04-19T08:30:29.031Z</time></trkpt><trkpt lat="41.6162384" lon="1.7834402"><ele>649.5</ele><time>2026-04-19T08:30:30.03Z</time></trkpt><trkpt lat="41.6160932" lon="1.7834014"><ele>647.0</ele><time>2026-04-19T08:30:31.031Z</time></trkpt><trkpt lat="41.6159315" lon="1.7834148"><ele>647.0</ele><time>2026-04-19T08:30:32.031Z</time></trkpt><trkpt lat="41.6157742" lon="1.7834466"><ele>647.0</ele><time>2026-04-19T08:30:33.031Z</time></trkpt><trkpt lat="41.6156357" lon="1.7834824"><ele>647.0</ele><time>2026-04-19T08:30:34.031Z</time></trkpt><trkpt lat="41.6155051" lon="1.7835037"><ele>647.0</ele><time>2026-04-19T08:30:35.031Z</time></trkpt><trkpt lat="41.6153864" lon="1.7835105"><ele>649.4000000000001</ele><time>2026-04-19T08:30:36.031Z</time></trkpt><trkpt lat="41.615276" lon="1.7835024"><ele>651.8000000000001</ele><time>2026-04-19T08:30:37.03Z</time></trkpt><trkpt lat="41.6151781" lon="1.783456"><ele>654.2</ele><time>2026-04-19T08:30:38.031Z</time></trkpt><trkpt lat="41.6150919" lon="1.7833677"><ele>656.6</ele><time>2026-04-19T08:30:39.03Z</time></trkpt><trkpt lat="41.615017" lon="1.78325"><ele>659.0</ele><time>2026-04-19T08:30:40.03Z</time></trkpt><trkpt lat="41.6149481" lon="1.7831195"><ele>659.0</ele><time>2026-04-19T08:30:41.031Z</time></trkpt><trkpt lat="41.6148672" lon="1.7830047"><ele>659.0</ele><time>2026-04-19T08:30:42.03Z</time></trkpt><trkpt lat="41.614773" lon="1.782922"><ele>659.0</ele><time>2026-04-19T08:30:43.03Z</time></trkpt><trkpt lat="41.6146742" lon="1.7828827"><ele>659.0</ele><time>2026-04-19T08:30:44.031Z</time></trkpt><trkpt lat="41.6145703" lon="1.7828867"><ele>659.0</ele><time>2026-04-19T08:30:45.03Z</time></trkpt><trkpt lat="41.6144596" lon="1.7829237"><ele>663.0</ele><time>2026-04-19T08:30:46.031Z</time></trkpt><trkpt lat="41.6143401" lon="1.7829881"><ele>667.0</ele><time>2026-04-19T08:30:47.031Z</time></trkpt><trkpt lat="41.6142164" lon="1.7830565"><ele>671.0</ele><time>2026-04-19T08:30:48.031Z</time></trkpt><trkpt lat="41.6140943" lon="1.7831219"><ele>675.0</ele><time>2026-04-19T08:30:49.03Z</time></trkpt><trkpt lat="41.6139696" lon="1.7831838"><ele>675.0</ele><time>2026-04-19T08:30:50.03Z</time></trkpt><trkpt lat="41.6138379" lon="1.78324"><ele>675.0</ele><time>2026-04-19T08:30:51.03Z</time></trkpt><trkpt lat="41.6137017" lon="1.783278"><ele>675.0</ele><time>2026-04-19T08:30:52.031Z</time></trkpt><trkpt lat="41.6135603" lon="1.7832729"><ele>675.0</ele><time>2026-04-19T08:30:53.031Z</time></trkpt><trkpt lat="41.6134171" lon="1.7832329"><ele>680.0</ele><time>2026-04-19T08:30:54.031Z</time></trkpt><trkpt lat="41.6132748" lon="1.7831717"><ele>685.0</ele><time>2026-04-19T08:30:55.03Z</time></trkpt><trkpt lat="41.6131335" lon="1.7830994"><ele>690.0</ele><time>2026-04-19T08:30:56.031Z</time></trkpt><trkpt lat="41.6130058" lon="1.7830274"><ele>695.0</ele><time>2026-04-19T08:30:57.03Z</time></trkpt><trkpt lat="41.6129035" lon="1.7829267"><ele>695.0</ele><time>2026-04-19T08:30:58.031Z</time></trkpt><trkpt lat="41.6128324" lon="1.782788"><ele>695.0</ele><time>2026-04-19T08:30:59.03Z</time></trkpt><trkpt lat="41.6127897" lon="1.7826233"><ele>695.0</ele><time>2026-04-19T08:31:00.03Z</time></trkpt><trkpt lat="41.6127531" lon="1.7824476"><ele>695.0</ele><time>2026-04-19T08:31:01.031Z</time></trkpt><trkpt lat="41.6127049" lon="1.7822811"><ele>695.25</ele><time>2026-04-19T08:31:02.03Z</time></trkpt><trkpt lat="41.6126492" lon="1.782131"><ele>695.5</ele><time>2026-04-19T08:31:03.031Z</time></trkpt><trkpt lat="41.6126027" lon="1.7819798"><ele>695.75</ele><time>2026-04-19T08:31:04.031Z</time></trkpt><trkpt lat="41.6125919" lon="1.7818231"><ele>696.0</ele><time>2026-04-19T08:31:05.031Z</time></trkpt><trkpt lat="41.6126178" lon="1.7816766"><ele>697.0</ele><time>2026-04-19T08:31:06.03Z</time></trkpt><trkpt lat="41.6126633" lon="1.7815349"><ele>698.0</ele><time>2026-04-19T08:31:07.031Z</time></trkpt><trkpt lat="41.6127179" lon="1.7813959"><ele>699.0</ele><time>2026-04-19T08:31:08.031Z</time></trkpt><trkpt lat="41.6127707" lon="1.7812626"><ele>700.0</ele><time>2026-04-19T08:31:09.031Z</time></trkpt><trkpt lat="41.6128141" lon="1.7811298"><ele>699.8</ele><time>2026-04-19T08:31:10.03Z</time></trkpt><trkpt lat="41.6128345" lon="1.7809908"><ele>699.6</ele><time>2026-04-19T08:31:11.031Z</time></trkpt><trkpt lat="41.6128302" lon="1.7808485"><ele>699.4000000000001</ele><time>2026-04-19T08:31:12.031Z</time></trkpt><trkpt lat="41.6128132" lon="1.7807024"><ele>699.2</ele><time>2026-04-19T08:31:13.03Z</time></trkpt><trkpt lat="41.6127915" lon="1.7805564"><ele>699.0</ele><time>2026-04-19T08:31:14.031Z</time></trkpt><trkpt lat="41.6127618" lon="1.7804132"><ele>699.0</ele><time>2026-04-19T08:31:15.03Z</time></trkpt><trkpt lat="41.6126951" lon="1.7802844"><ele>699.0</ele><time>2026-04-19T08:31:16.031Z</time></trkpt><trkpt lat="41.6125476" lon="1.7801618"><ele>699.0</ele><time>2026-04-19T08:31:17.031Z</time></trkpt><trkpt lat="41.61244" lon="1.7800265"><ele>699.0</ele><time>2026-04-19T08:31:18.03Z</time></trkpt><trkpt lat="41.6123334" lon="1.7799108"><ele>691.6666666666666</ele><time>2026-04-19T08:31:19.031Z</time></trkpt><trkpt lat="41.6122195" lon="1.7797833"><ele>684.3333333333333</ele><time>2026-04-19T08:31:20.031Z</time></trkpt><trkpt lat="41.6120878" lon="1.7796318"><ele>677.0</ele><time>2026-04-19T08:31:21.03Z</time></trkpt><trkpt lat="41.6119477" lon="1.7794748"><ele>677.6666666666666</ele><time>2026-04-19T08:31:22.031Z</time></trkpt><trkpt lat="41.6118002" lon="1.7793157"><ele>678.3333333333334</ele><time>2026-04-19T08:31:23.031Z</time></trkpt><trkpt lat="41.6116657" lon="1.7791658"><ele>679.0</ele><time>2026-04-19T08:31:24.031Z</time></trkpt><trkpt lat="41.6115308" lon="1.7790254"><ele>679.0</ele><time>2026-04-19T08:31:25.031Z</time></trkpt><trkpt lat="41.611403" lon="1.7788946"><ele>679.0</ele><time>2026-04-19T08:31:26.03Z</time></trkpt><trkpt lat="41.6112927" lon="1.7787514"><ele>679.0</ele><time>2026-04-19T08:31:27.031Z</time></trkpt><trkpt lat="41.6112148" lon="1.7785736"><ele>687.6666666666667</ele><time>2026-04-19T08:31:28.031Z</time></trkpt><trkpt lat="41.6111544" lon="1.7783667"><ele>696.3333333333334</ele><time>2026-04-19T08:31:29.031Z</time></trkpt><trkpt lat="41.6111087" lon="1.7781454"><ele>705.0</ele><time>2026-04-19T08:31:30.031Z</time></trkpt><trkpt lat="41.6110906" lon="1.7779093"><ele>703.6666666666666</ele><time>2026-04-19T08:31:31.03Z</time></trkpt><trkpt lat="41.6111046" lon="1.7776696"><ele>702.3333333333333</ele><time>2026-04-19T08:31:32.03Z</time></trkpt><trkpt lat="41.6111364" lon="1.777432"><ele>701.0</ele><time>2026-04-19T08:31:33.031Z</time></trkpt><trkpt lat="41.6111636" lon="1.7772014"><ele>689.0</ele><time>2026-04-19T08:31:34.031Z</time></trkpt><trkpt lat="41.6111824" lon="1.7769772"><ele>677.0</ele><time>2026-04-19T08:31:35.031Z</time></trkpt><trkpt lat="41.6112244" lon="1.7767497"><ele>665.0</ele><time>2026-04-19T08:31:36.031Z</time></trkpt><trkpt lat="41.6112989" lon="1.7765377"><ele>665.0</ele><time>2026-04-19T08:31:37.03Z</time></trkpt><trkpt lat="41.6113936" lon="1.7763361"><ele>665.0</ele><time>2026-04-19T08:31:38.031Z</time></trkpt><trkpt lat="41.6114865" lon="1.7761365"><ele>665.0</ele><time>2026-04-19T08:31:39.031Z</time></trkpt><trkpt lat="41.6115735" lon="1.7759354"><ele>670.6666666666666</ele><time>2026-04-19T08:31:40.031Z</time></trkpt><trkpt lat="41.6116377" lon="1.7757259"><ele>676.3333333333334</ele><time>2026-04-19T08:31:41.031Z</time></trkpt><trkpt lat="41.6116757" lon="1.77551"><ele>682.0</ele><time>2026-04-19T08:31:42.031Z</time></trkpt><trkpt lat="41.6116783" lon="1.7752772"><ele>684.0</ele><time>2026-04-19T08:31:43.031Z</time></trkpt><trkpt lat="41.6116587" lon="1.7750391"><ele>686.0</ele><time>2026-04-19T08:31:44.031Z</time></trkpt><trkpt lat="41.6116288" lon="1.7747996"><ele>688.0</ele><time>2026-04-19T08:31:45.03Z</time></trkpt><trkpt lat="41.6116064" lon="1.77458"><ele>688.0</ele><time>2026-04-19T08:31:46.03Z</time></trkpt><trkpt lat="41.6115929" lon="1.7743698"><ele>688.0</ele><time>2026-04-19T08:31:47.031Z</time></trkpt><trkpt lat="41.6116173" lon="1.7741682"><ele>688.0</ele><time>2026-04-19T08:31:48.031Z</time></trkpt><trkpt lat="41.6116757" lon="1.7739765"><ele>689.5</ele><time>2026-04-19T08:31:49.03Z</time></trkpt><trkpt lat="41.6117592" lon="1.7738004"><ele>691.0</ele><time>2026-04-19T08:31:50.03Z</time></trkpt><trkpt lat="41.6118248" lon="1.7736329"><ele>692.5</ele><time>2026-04-19T08:31:51.03Z</time></trkpt><trkpt lat="41.611855" lon="1.7734684"><ele>694.0</ele><time>2026-04-19T08:31:52.03Z</time></trkpt><trkpt lat="41.6118512" lon="1.7733144"><ele>696.0</ele><time>2026-04-19T08:31:53.03Z</time></trkpt><trkpt lat="41.6118151" lon="1.7731469"><ele>698.0</ele><time>2026-04-19T08:31:54.031Z</time></trkpt><trkpt lat="41.611744" lon="1.7729925"><ele>700.0</ele><time>2026-04-19T08:31:55.031Z</time></trkpt><trkpt lat="41.6116465" lon="1.7728576"><ele>702.0</ele><time>2026-04-19T08:31:56.031Z</time></trkpt><trkpt lat="41.6115361" lon="1.7727448"><ele>700.5</ele><time>2026-04-19T08:31:57.031Z</time></trkpt><trkpt lat="41.6114293" lon="1.7726394"><ele>699.0</ele><time>2026-04-19T08:31:58.03Z</time></trkpt><trkpt lat="41.6113529" lon="1.7725243"><ele>697.5</ele><time>2026-04-19T08:31:59.03Z</time></trkpt><trkpt lat="41.6113094" lon="1.7723851"><ele>696.0</ele><time>2026-04-19T08:32:00.03Z</time></trkpt><trkpt lat="41.6113054" lon="1.7722322"><ele>696.0</ele><time>2026-04-19T08:32:01.03Z</time></trkpt><trkpt lat="41.6113484" lon="1.7720886"><ele>696.0</ele><time>2026-04-19T08:32:02.03Z</time></trkpt><trkpt lat="41.6114304" lon="1.7719783"><ele>696.0</ele><time>2026-04-19T08:32:03.03Z</time></trkpt><trkpt lat="41.6115418" lon="1.7719032"><ele>696.0</ele><time>2026-04-19T08:32:04.03Z</time></trkpt><trkpt lat="41.6116673" lon="1.7718474"><ele>698.75</ele><time>2026-04-19T08:32:05.03Z</time></trkpt><trkpt lat="41.6117849" lon="1.7717835"><ele>701.5</ele><time>2026-04-19T08:32:06.031Z</time></trkpt><trkpt lat="41.6118869" lon="1.7716874"><ele>704.25</ele><time>2026-04-19T08:32:07.03Z</time></trkpt><trkpt lat="41.6119668" lon="1.7715569"><ele>707.0</ele><time>2026-04-19T08:32:08.031Z</time></trkpt><trkpt lat="41.6120217" lon="1.771404"><ele>708.0</ele><time>2026-04-19T08:32:09.031Z</time></trkpt><trkpt lat="41.6120412" lon="1.7712426"><ele>709.0</ele><time>2026-04-19T08:32:10.03Z</time></trkpt><trkpt lat="41.6120266" lon="1.7710801"><ele>710.0</ele><time>2026-04-19T08:32:11.031Z</time></trkpt><trkpt lat="41.6119998" lon="1.7709107"><ele>711.0</ele><time>2026-04-19T08:32:12.03Z</time></trkpt><trkpt lat="41.6119704" lon="1.7707267"><ele>711.0</ele><time>2026-04-19T08:32:13.031Z</time></trkpt><trkpt lat="41.6119331" lon="1.7705525"><ele>711.0</ele><time>2026-04-19T08:32:14.031Z</time></trkpt><trkpt lat="41.6118812" lon="1.7703992"><ele>711.0</ele><time>2026-04-19T08:32:15.03Z</time></trkpt><trkpt lat="41.6118069" lon="1.7702753"><ele>711.0</ele><time>2026-04-19T08:32:16.031Z</time></trkpt><trkpt lat="41.6117163" lon="1.7701832"><ele>708.0</ele><time>2026-04-19T08:32:17.03Z</time></trkpt><trkpt lat="41.611601" lon="1.7701278"><ele>705.0</ele><time>2026-04-19T08:32:18.031Z</time></trkpt><trkpt lat="41.6114663" lon="1.770096"><ele>702.0</ele><time>2026-04-19T08:32:19.031Z</time></trkpt><trkpt lat="41.6113322" lon="1.770063"><ele>699.0</ele><time>2026-04-19T08:32:20.031Z</time></trkpt><trkpt lat="41.6112139" lon="1.7699841"><ele>709.3333333333334</ele><time>2026-04-19T08:32:21.031Z</time></trkpt><trkpt lat="41.6111129" lon="1.7698568"><ele>719.6666666666667</ele><time>2026-04-19T08:32:22.03Z</time></trkpt><trkpt lat="41.6110174" lon="1.7697104"><ele>730.0</ele><time>2026-04-19T08:32:23.031Z</time></trkpt><trkpt lat="41.6109401" lon="1.7694833"><ele>724.0</ele><time>2026-04-19T08:32:24.031Z</time></trkpt><trkpt lat="41.6108578" lon="1.7692669"><ele>718.0</ele><time>2026-04-19T08:32:25.031Z</time></trkpt><trkpt lat="41.6107683" lon="1.7690475"><ele>712.0</ele><time>2026-04-19T08:32:26.031Z</time></trkpt><trkpt lat="41.6106835" lon="1.7688353"><ele>712.0</ele><time>2026-04-19T08:32:27.031Z</time></trkpt><trkpt lat="41.610609" lon="1.768633"><ele>712.0</ele><time>2026-04-19T08:32:28.031Z</time></trkpt><trkpt lat="41.6105623" lon="1.7684298"><ele>712.0</ele><time>2026-04-19T08:32:29.03Z</time></trkpt><trkpt lat="41.6105405" lon="1.7682257"><ele>709.6</ele><time>2026-04-19T08:32:30.031Z</time></trkpt><trkpt lat="41.6105367" lon="1.7680518"><ele>707.2</ele><time>2026-04-19T08:32:31.031Z</time></trkpt><trkpt lat="41.6105292" lon="1.7679006"><ele>704.8</ele><time>2026-04-19T08:32:32.03Z</time></trkpt><trkpt lat="41.6105159" lon="1.7677683"><ele>702.4</ele><time>2026-04-19T08:32:33.03Z</time></trkpt><trkpt lat="41.6104979" lon="1.7676507"><ele>700.0</ele><time>2026-04-19T08:32:34.03Z</time></trkpt><trkpt lat="41.6104698" lon="1.7675541"><ele>700.0</ele><time>2026-04-19T08:32:35.031Z</time></trkpt><trkpt lat="41.610433" lon="1.7674768"><ele>700.0</ele><time>2026-04-19T08:32:36.03Z</time></trkpt><trkpt lat="41.61036" lon="1.7673691"><ele>700.0</ele><time>2026-04-19T08:32:38.03Z</time></trkpt><trkpt lat="41.6102928" lon="1.7673349"><ele>700.0</ele><time>2026-04-19T08:32:41.03Z</time></trkpt><trkpt lat="41.6102134" lon="1.7673701"><ele>700.0</ele><time>2026-04-19T08:32:43.031Z</time></trkpt><trkpt lat="41.6101342" lon="1.7674155"><ele>700.0</ele><time>2026-04-19T08:32:45.031Z</time></trkpt><trkpt lat="41.6100612" lon="1.767422"><ele>703.0</ele><time>2026-04-19T08:32:46.03Z</time></trkpt><trkpt lat="41.6099826" lon="1.7674067"><ele>706.0</ele><time>2026-04-19T08:32:47.031Z</time></trkpt><trkpt lat="41.609908" lon="1.7673795"><ele>709.0</ele><time>2026-04-19T08:32:48.031Z</time></trkpt><trkpt lat="41.6098308" lon="1.7673398"><ele>712.0</ele><time>2026-04-19T08:32:49.031Z</time></trkpt><trkpt lat="41.6097594" lon="1.767256"><ele>715.0</ele><time>2026-04-19T08:32:50.03Z</time></trkpt><trkpt lat="41.609699" lon="1.767158"><ele>718.0</ele><time>2026-04-19T08:32:51.031Z</time></trkpt><trkpt lat="41.6096423" lon="1.7670636"><ele>718.0</ele><time>2026-04-19T08:32:52.031Z</time></trkpt><trkpt lat="41.6095726" lon="1.766988"><ele>718.0</ele><time>2026-04-19T08:32:53.031Z</time></trkpt><trkpt lat="41.6094986" lon="1.7669296"><ele>718.0</ele><time>2026-04-19T08:32:54.03Z</time></trkpt><trkpt lat="41.6094148" lon="1.7668992"><ele>718.0</ele><time>2026-04-19T08:32:55.031Z</time></trkpt><trkpt lat="41.6093208" lon="1.7668975"><ele>718.0</ele><time>2026-04-19T08:32:56.031Z</time></trkpt><trkpt lat="41.6092302" lon="1.7669281"><ele>716.8</ele><time>2026-04-19T08:32:57.03Z</time></trkpt><trkpt lat="41.6091555" lon="1.7669656"><ele>715.5999999999999</ele><time>2026-04-19T08:32:58.031Z</time></trkpt><trkpt lat="41.6090917" lon="1.7669978"><ele>714.4000000000001</ele><time>2026-04-19T08:32:59.03Z</time></trkpt><trkpt lat="41.6089793" lon="1.767054"><ele>713.2</ele><time>2026-04-19T08:33:01.03Z</time></trkpt><trkpt lat="41.6088643" lon="1.7671125"><ele>712.0</ele><time>2026-04-19T08:33:03.031Z</time></trkpt><trkpt lat="41.6088037" lon="1.7671471"><ele>712.0</ele><time>2026-04-19T08:33:05.031Z</time></trkpt><trkpt lat="41.6087305" lon="1.7671861"><ele>712.0</ele><time>2026-04-19T08:33:09.031Z</time></trkpt><trkpt lat="41.6086326" lon="1.7672458"><ele>712.0</ele><time>2026-04-19T08:33:11.031Z</time></trkpt><trkpt lat="41.6085682" lon="1.7672797"><ele>712.0</ele><time>2026-04-19T08:33:12.031Z</time></trkpt><trkpt lat="41.6084959" lon="1.7672911"><ele>712.0</ele><time>2026-04-19T08:33:13.03Z</time></trkpt><trkpt lat="41.6084288" lon="1.767295"><ele>712.0</ele><time>2026-04-19T08:33:14.03Z</time></trkpt><trkpt lat="41.6083632" lon="1.7672678"><ele>711.4285714285713</ele><time>2026-04-19T08:33:15.031Z</time></trkpt><trkpt lat="41.6083024" lon="1.767236"><ele>710.8571428571429</ele><time>2026-04-19T08:33:16.031Z</time></trkpt><trkpt lat="41.6082562" lon="1.7671669"><ele>710.2857142857142</ele><time>2026-04-19T08:33:17.03Z</time></trkpt><trkpt lat="41.608209" lon="1.7670987"><ele>709.7142857142857</ele><time>2026-04-19T08:33:18.031Z</time></trkpt><trkpt lat="41.6081614" lon="1.7670296"><ele>709.1428571428571</ele><time>2026-04-19T08:33:19.031Z</time></trkpt><trkpt lat="41.6081094" lon="1.7669671"><ele>708.5714285714286</ele><time>2026-04-19T08:33:20.031Z</time></trkpt><trkpt lat="41.6080489" lon="1.7669031"><ele>708.0</ele><time>2026-04-19T08:33:21.031Z</time></trkpt><trkpt lat="41.6079818" lon="1.7668446"><ele>709.7142857142858</ele><time>2026-04-19T08:33:22.031Z</time></trkpt><trkpt lat="41.6079162" lon="1.7667906"><ele>711.4285714285713</ele><time>2026-04-19T08:33:23.031Z</time></trkpt><trkpt lat="41.6078536" lon="1.7667451"><ele>713.1428571428571</ele><time>2026-04-19T08:33:24.031Z</time></trkpt><trkpt lat="41.6077929" lon="1.7667032"><ele>714.8571428571429</ele><time>2026-04-19T08:33:25.03Z</time></trkpt><trkpt lat="41.6077322" lon="1.7666741"><ele>716.5714285714287</ele><time>2026-04-19T08:33:26.031Z</time></trkpt><trkpt lat="41.6076713" lon="1.7666433"><ele>718.2857142857142</ele><time>2026-04-19T08:33:27.031Z</time></trkpt><trkpt lat="41.6076076" lon="1.7666161"><ele>720.0</ele><time>2026-04-19T08:33:28.03Z</time></trkpt><trkpt lat="41.6075344" lon="1.7665955"><ele>720.0</ele><time>2026-04-19T08:33:29.031Z</time></trkpt><trkpt lat="41.6074612" lon="1.7665841"><ele>720.0</ele><time>2026-04-19T08:33:30.03Z</time></trkpt><trkpt lat="41.6073825" lon="1.7665832"><ele>720.0</ele><time>2026-04-19T08:33:31.03Z</time></trkpt><trkpt lat="41.6073019" lon="1.7665827"><ele>720.0</ele><time>2026-04-19T08:33:32.031Z</time></trkpt><trkpt lat="41.6072138" lon="1.7665903"><ele>720.0</ele><time>2026-04-19T08:33:33.031Z</time></trkpt><trkpt lat="41.607124" lon="1.766594"><ele>720.0</ele><time>2026-04-19T08:33:34.03Z</time></trkpt><trkpt lat="41.6070324" lon="1.766601"><ele>718.1666666666666</ele><time>2026-04-19T08:33:35.031Z</time></trkpt><trkpt lat="41.6069519" lon="1.7666046"><ele>716.3333333333334</ele><time>2026-04-19T08:33:36.03Z</time></trkpt><trkpt lat="41.6068609" lon="1.7665832"><ele>714.5</ele><time>2026-04-19T08:33:38.031Z</time></trkpt><trkpt lat="41.6067743" lon="1.7665602"><ele>712.6666666666667</ele><time>2026-04-19T08:33:43.03Z</time></trkpt><trkpt lat="41.6066947" lon="1.7665531"><ele>710.8333333333334</ele><time>2026-04-19T08:33:54.031Z</time></trkpt><trkpt lat="41.6066317" lon="1.7665408"><ele>709.0</ele><time>2026-04-19T08:33:56.031Z</time></trkpt><trkpt lat="41.606555" lon="1.7664877"><ele>709.0</ele><time>2026-04-19T08:33:58.03Z</time></trkpt><trkpt lat="41.6064687" lon="1.7664018"><ele>709.0</ele><time>2026-04-19T08:34:00.031Z</time></trkpt><trkpt lat="41.6064108" lon="1.7663523"><ele>709.0</ele><time>2026-04-19T08:34:01.031Z</time></trkpt><trkpt lat="41.6063408" lon="1.7663166"><ele>709.0</ele><time>2026-04-19T08:34:02.03Z</time></trkpt><trkpt lat="41.6062687" lon="1.7663012"><ele>709.0</ele><time>2026-04-19T08:34:03.03Z</time></trkpt><trkpt lat="41.6061992" lon="1.7663027"><ele>709.0</ele><time>2026-04-19T08:34:04.031Z</time></trkpt><trkpt lat="41.6061356" lon="1.7663213"><ele>708.0</ele><time>2026-04-19T08:34:05.031Z</time></trkpt><trkpt lat="41.6060746" lon="1.7663471"><ele>707.0</ele><time>2026-04-19T08:34:06.03Z</time></trkpt><trkpt lat="41.605963" lon="1.7664092"><ele>706.0</ele><time>2026-04-19T08:34:08.03Z</time></trkpt><trkpt lat="41.6059012" lon="1.7664466"><ele>705.0</ele><time>2026-04-19T08:34:09.031Z</time></trkpt><trkpt lat="41.6058332" lon="1.7664917"><ele>704.0</ele><time>2026-04-19T08:34:10.03Z</time></trkpt><trkpt lat="41.6057529" lon="1.7665443"><ele>703.0</ele><time>2026-04-19T08:34:11.031Z</time></trkpt><trkpt lat="41.6056696" lon="1.7666003"><ele>703.0</ele><time>2026-04-19T08:34:12.031Z</time></trkpt><trkpt lat="41.6055834" lon="1.7666558"><ele>703.0</ele><time>2026-04-19T08:34:13.031Z</time></trkpt><trkpt lat="41.6055013" lon="1.7667141"><ele>703.0</ele><time>2026-04-19T08:34:14.03Z</time></trkpt><trkpt lat="41.6054195" lon="1.7667701"><ele>703.0</ele><time>2026-04-19T08:34:15.03Z</time></trkpt><trkpt lat="41.6053395" lon="1.7668263"><ele>703.0</ele><time>2026-04-19T08:34:16.031Z</time></trkpt><trkpt lat="41.6052654" lon="1.7668801"><ele>699.4</ele><time>2026-04-19T08:34:17.031Z</time></trkpt><trkpt lat="41.6052057" lon="1.7669226"><ele>695.8</ele><time>2026-04-19T08:34:18.03Z</time></trkpt><trkpt lat="41.6051004" lon="1.7669911"><ele>692.2</ele><time>2026-04-19T08:34:20.031Z</time></trkpt><trkpt lat="41.6049871" lon="1.7670574"><ele>688.6</ele><time>2026-04-19T08:34:22.031Z</time></trkpt><trkpt lat="41.6049132" lon="1.7670903"><ele>685.0</ele><time>2026-04-19T08:34:23.031Z</time></trkpt><trkpt lat="41.6048191" lon="1.7671042"><ele>685.0</ele><time>2026-04-19T08:34:24.031Z</time></trkpt><trkpt lat="41.6047193" lon="1.7670911"><ele>685.0</ele><time>2026-04-19T08:34:25.031Z</time></trkpt><trkpt lat="41.6046234" lon="1.7670555"><ele>685.0</ele><time>2026-04-19T08:34:26.031Z</time></trkpt><trkpt lat="41.6045333" lon="1.7670066"><ele>685.0</ele><time>2026-04-19T08:34:27.031Z</time></trkpt><trkpt lat="41.6044481" lon="1.7669515"><ele>685.0</ele><time>2026-04-19T08:34:28.031Z</time></trkpt><trkpt lat="41.604361" lon="1.7668905"><ele>685.75</ele><time>2026-04-19T08:34:29.03Z</time></trkpt><trkpt lat="41.6042637" lon="1.7668241"><ele>686.5</ele><time>2026-04-19T08:34:30.031Z</time></trkpt><trkpt lat="41.6041498" lon="1.7667552"><ele>687.25</ele><time>2026-04-19T08:34:31.031Z</time></trkpt><trkpt lat="41.6040328" lon="1.7666955"><ele>688.0</ele><time>2026-04-19T08:34:32.03Z</time></trkpt><trkpt lat="41.6038952" lon="1.7666545"><ele>688.0</ele><time>2026-04-19T08:34:33.03Z</time></trkpt><trkpt lat="41.6037568" lon="1.7666469"><ele>688.0</ele><time>2026-04-19T08:34:34.031Z</time></trkpt><trkpt lat="41.6035932" lon="1.7666841"><ele>688.0</ele><time>2026-04-19T08:34:35.03Z</time></trkpt><trkpt lat="41.6034203" lon="1.7667487"><ele>683.6666666666667</ele><time>2026-04-19T08:34:36.03Z</time></trkpt><trkpt lat="41.6032502" lon="1.7668266"><ele>679.3333333333334</ele><time>2026-04-19T08:34:37.03Z</time></trkpt><trkpt lat="41.6030756" lon="1.7669056"><ele>675.0</ele><time>2026-04-19T08:34:38.03Z</time></trkpt><trkpt lat="41.6029018" lon="1.7669783"><ele>673.6666666666666</ele><time>2026-04-19T08:34:39.03Z</time></trkpt><trkpt lat="41.6027317" lon="1.7670545"><ele>672.3333333333333</ele><time>2026-04-19T08:34:40.031Z</time></trkpt><trkpt lat="41.6025657" lon="1.7671398"><ele>671.0</ele><time>2026-04-19T08:34:41.031Z</time></trkpt><trkpt lat="41.6023981" lon="1.7672187"><ele>671.0</ele><time>2026-04-19T08:34:42.031Z</time></trkpt><trkpt lat="41.6022304" lon="1.7672924"><ele>671.0</ele><time>2026-04-19T08:34:43.03Z</time></trkpt><trkpt lat="41.602065" lon="1.7673638"><ele>671.0</ele><time>2026-04-19T08:34:44.03Z</time></trkpt><trkpt lat="41.6019012" lon="1.7674344"><ele>672.0</ele><time>2026-04-19T08:34:45.03Z</time></trkpt><trkpt lat="41.6017425" lon="1.767505"><ele>673.0</ele><time>2026-04-19T08:34:46.03Z</time></trkpt><trkpt lat="41.6015799" lon="1.7675627"><ele>674.0</ele><time>2026-04-19T08:34:47.03Z</time></trkpt><trkpt lat="41.6014158" lon="1.7675867"><ele>674.0</ele><time>2026-04-19T08:34:48.03Z</time></trkpt><trkpt lat="41.6012559" lon="1.7675934"><ele>674.0</ele><time>2026-04-19T08:34:49.03Z</time></trkpt><trkpt lat="41.6011016" lon="1.7675911"><ele>674.0</ele><time>2026-04-19T08:34:50.03Z</time></trkpt><trkpt lat="41.6009546" lon="1.7675962"><ele>673.0</ele><time>2026-04-19T08:34:51.031Z</time></trkpt><trkpt lat="41.6008203" lon="1.7675982"><ele>672.0</ele><time>2026-04-19T08:34:52.031Z</time></trkpt><trkpt lat="41.6007169" lon="1.7675984"><ele>671.0</ele><time>2026-04-19T08:34:53.03Z</time></trkpt><trkpt lat="41.6006313" lon="1.7675711"><ele>670.0</ele><time>2026-04-19T08:34:54.03Z</time></trkpt><trkpt lat="41.6005666" lon="1.7675124"><ele>669.0</ele><time>2026-04-19T08:34:55.03Z</time></trkpt><trkpt lat="41.6005254" lon="1.7674278"><ele>669.0</ele><time>2026-04-19T08:34:56.03Z</time></trkpt><trkpt lat="41.6005174" lon="1.767322"><ele>669.0</ele><time>2026-04-19T08:34:57.031Z</time></trkpt><trkpt lat="41.6005447" lon="1.7672055"><ele>669.0</ele><time>2026-04-19T08:34:58.031Z</time></trkpt><trkpt lat="41.6006032" lon="1.7670589"><ele>669.0</ele><time>2026-04-19T08:34:59.03Z</time></trkpt><trkpt lat="41.600676" lon="1.766898"><ele>669.0</ele><time>2026-04-19T08:35:00.031Z</time></trkpt><trkpt lat="41.600744" lon="1.7667334"><ele>668.2</ele><time>2026-04-19T08:35:01.031Z</time></trkpt><trkpt lat="41.6007988" lon="1.7665809"><ele>667.4000000000001</ele><time>2026-04-19T08:35:02.031Z</time></trkpt><trkpt lat="41.6008268" lon="1.7664428"><ele>666.6</ele><time>2026-04-19T08:35:03.031Z</time></trkpt><trkpt lat="41.6008256" lon="1.7663082"><ele>665.8</ele><time>2026-04-19T08:35:04.031Z</time></trkpt><trkpt lat="41.600798" lon="1.7661786"><ele>665.0</ele><time>2026-04-19T08:35:05.031Z</time></trkpt><trkpt lat="41.60075" lon="1.766047"><ele>663.0</ele><time>2026-04-19T08:35:06.031Z</time></trkpt><trkpt lat="41.6006896" lon="1.765911"><ele>661.0</ele><time>2026-04-19T08:35:07.031Z</time></trkpt><trkpt lat="41.6006518" lon="1.765763"><ele>659.0</ele><time>2026-04-19T08:35:08.03Z</time></trkpt><trkpt lat="41.6006405" lon="1.7656151"><ele>657.0</ele><time>2026-04-19T08:35:09.031Z</time></trkpt><trkpt lat="41.6006553" lon="1.7654659"><ele>657.0</ele><time>2026-04-19T08:35:10.03Z</time></trkpt><trkpt lat="41.6006607" lon="1.7653226"><ele>657.0</ele><time>2026-04-19T08:35:11.031Z</time></trkpt><trkpt lat="41.6006559" lon="1.7651846"><ele>657.0</ele><time>2026-04-19T08:35:12.03Z</time></trkpt><trkpt lat="41.6006257" lon="1.7650707"><ele>657.0</ele><time>2026-04-19T08:35:13.031Z</time></trkpt><trkpt lat="41.6005712" lon="1.7649756"><ele>657.0</ele><time>2026-04-19T08:35:14.03Z</time></trkpt><trkpt lat="41.6005071" lon="1.7648891"><ele>655.6</ele><time>2026-04-19T08:35:15.03Z</time></trkpt><trkpt lat="41.6004201" lon="1.7648156"><ele>654.2</ele><time>2026-04-19T08:35:16.031Z</time></trkpt><trkpt lat="41.6003269" lon="1.764779"><ele>652.8</ele><time>2026-04-19T08:35:17.031Z</time></trkpt><trkpt lat="41.6002372" lon="1.7647897"><ele>651.4</ele><time>2026-04-19T08:35:18.031Z</time></trkpt><trkpt lat="41.6001495" lon="1.7648386"><ele>650.0</ele><time>2026-04-19T08:35:19.03Z</time></trkpt><trkpt lat="41.6000789" lon="1.7649267"><ele>648.4</ele><time>2026-04-19T08:35:20.031Z</time></trkpt><trkpt lat="41.6000381" lon="1.7650392"><ele>646.8</ele><time>2026-04-19T08:35:21.031Z</time></trkpt><trkpt lat="41.6000311" lon="1.7651662"><ele>645.2</ele><time>2026-04-19T08:35:22.03Z</time></trkpt><trkpt lat="41.6000634" lon="1.7652917"><ele>643.6</ele><time>2026-04-19T08:35:23.031Z</time></trkpt><trkpt lat="41.6001275" lon="1.76542"><ele>642.0</ele><time>2026-04-19T08:35:24.031Z</time></trkpt><trkpt lat="41.600206" lon="1.7655534"><ele>641.75</ele><time>2026-04-19T08:35:25.031Z</time></trkpt><trkpt lat="41.6002777" lon="1.7656863"><ele>641.5</ele><time>2026-04-19T08:35:26.031Z</time></trkpt><trkpt lat="41.6003333" lon="1.7658295"><ele>641.25</ele><time>2026-04-19T08:35:27.03Z</time></trkpt><trkpt lat="41.6003677" lon="1.7659889"><ele>641.0</ele><time>2026-04-19T08:35:28.031Z</time></trkpt><trkpt lat="41.6003953" lon="1.7661484"><ele>643.0</ele><time>2026-04-19T08:35:29.031Z</time></trkpt><trkpt lat="41.6004128" lon="1.7663049"><ele>645.0</ele><time>2026-04-19T08:35:30.031Z</time></trkpt><trkpt lat="41.6004021" lon="1.7664571"><ele>647.0</ele><time>2026-04-19T08:35:31.031Z</time></trkpt><trkpt lat="41.6003555" lon="1.7665879"><ele>649.0</ele><time>2026-04-19T08:35:32.031Z</time></trkpt><trkpt lat="41.600275" lon="1.7666994"><ele>649.0</ele><time>2026-04-19T08:35:33.031Z</time></trkpt><trkpt lat="41.6001693" lon="1.7667858"><ele>649.0</ele><time>2026-04-19T08:35:34.03Z</time></trkpt><trkpt lat="41.6000466" lon="1.766855"><ele>649.0</ele><time>2026-04-19T08:35:35.03Z</time></trkpt><trkpt lat="41.5999195" lon="1.7669099"><ele>649.0</ele><time>2026-04-19T08:35:36.031Z</time></trkpt><trkpt lat="41.5997868" lon="1.7669565"><ele>650.5</ele><time>2026-04-19T08:35:37.031Z</time></trkpt><trkpt lat="41.5996424" lon="1.7669945"><ele>652.0</ele><time>2026-04-19T08:35:38.031Z</time></trkpt><trkpt lat="41.5995014" lon="1.7670265"><ele>653.5</ele><time>2026-04-19T08:35:39.031Z</time></trkpt><trkpt lat="41.5993703" lon="1.7670495"><ele>655.0</ele><time>2026-04-19T08:35:40.031Z</time></trkpt><trkpt lat="41.599257" lon="1.7670488"><ele>655.0</ele><time>2026-04-19T08:35:41.031Z</time></trkpt><trkpt lat="41.5991543" lon="1.7670067"><ele>655.0</ele><time>2026-04-19T08:35:42.03Z</time></trkpt><trkpt lat="41.5990628" lon="1.76691"><ele>655.0</ele><time>2026-04-19T08:35:43.031Z</time></trkpt><trkpt lat="41.59899" lon="1.7667999"><ele>655.0</ele><time>2026-04-19T08:35:44.03Z</time></trkpt><trkpt lat="41.5989329" lon="1.766693"><ele>655.0</ele><time>2026-04-19T08:35:45.03Z</time></trkpt><trkpt lat="41.5988654" lon="1.766604"><ele>652.0</ele><time>2026-04-19T08:35:46.03Z</time></trkpt><trkpt lat="41.5987781" lon="1.7665478"><ele>649.0</ele><time>2026-04-19T08:35:47.03Z</time></trkpt><trkpt lat="41.5986876" lon="1.7665342"><ele>646.0</ele><time>2026-04-19T08:35:48.03Z</time></trkpt><trkpt lat="41.5985911" lon="1.7665579"><ele>643.0</ele><time>2026-04-19T08:35:49.031Z</time></trkpt><trkpt lat="41.598491" lon="1.766605"><ele>640.0</ele><time>2026-04-19T08:35:50.03Z</time></trkpt><trkpt lat="41.5983953" lon="1.7666645"><ele>640.2</ele><time>2026-04-19T08:35:51.031Z</time></trkpt><trkpt lat="41.598318" lon="1.7667569"><ele>640.4</ele><time>2026-04-19T08:35:52.03Z</time></trkpt><trkpt lat="41.5982662" lon="1.7668642"><ele>640.5999999999999</ele><time>2026-04-19T08:35:53.031Z</time></trkpt><trkpt lat="41.5982301" lon="1.7669956"><ele>640.8</ele><time>2026-04-19T08:35:54.03Z</time></trkpt><trkpt lat="41.5981925" lon="1.7671457"><ele>641.0</ele><time>2026-04-19T08:35:55.031Z</time></trkpt><trkpt lat="41.5981483" lon="1.7673031"><ele>641.0</ele><time>2026-04-19T08:35:56.03Z</time></trkpt><trkpt lat="41.5981" lon="1.7674767"><ele>641.0</ele><time>2026-04-19T08:35:57.031Z</time></trkpt><trkpt lat="41.5980574" lon="1.7676571"><ele>641.0</ele><time>2026-04-19T08:35:58.031Z</time></trkpt><trkpt lat="41.5980244" lon="1.7678527"><ele>641.0</ele><time>2026-04-19T08:35:59.031Z</time></trkpt><trkpt lat="41.598009" lon="1.7680515"><ele>639.25</ele><time>2026-04-19T08:36:00.031Z</time></trkpt><trkpt lat="41.5979956" lon="1.7682477"><ele>637.5</ele><time>2026-04-19T08:36:01.031Z</time></trkpt><trkpt lat="41.5979757" lon="1.768425"><ele>635.75</ele><time>2026-04-19T08:36:02.031Z</time></trkpt><trkpt lat="41.5979532" lon="1.7685755"><ele>634.0</ele><time>2026-04-19T08:36:03.031Z</time></trkpt><trkpt lat="41.5979068" lon="1.7687126"><ele>630.5</ele><time>2026-04-19T08:36:04.03Z</time></trkpt><trkpt lat="41.5978242" lon="1.7688115"><ele>627.0</ele><time>2026-04-19T08:36:05.03Z</time></trkpt><trkpt lat="41.597716" lon="1.7688868"><ele>623.5</ele><time>2026-04-19T08:36:06.03Z</time></trkpt><trkpt lat="41.5975876" lon="1.7689429"><ele>620.0</ele><time>2026-04-19T08:36:07.031Z</time></trkpt><trkpt lat="41.597448" lon="1.7690033"><ele>620.0</ele><time>2026-04-19T08:36:08.03Z</time></trkpt><trkpt lat="41.5972966" lon="1.769061"><ele>620.0</ele><time>2026-04-19T08:36:09.031Z</time></trkpt><trkpt lat="41.5971393" lon="1.7691302"><ele>620.0</ele><time>2026-04-19T08:36:10.03Z</time></trkpt><trkpt lat="41.5969802" lon="1.7691995"><ele>619.6666666666666</ele><time>2026-04-19T08:36:11.031Z</time></trkpt><trkpt lat="41.5968272" lon="1.7692595"><ele>619.3333333333334</ele><time>2026-04-19T08:36:12.03Z</time></trkpt><trkpt lat="41.5966742" lon="1.7692884"><ele>619.0</ele><time>2026-04-19T08:36:13.031Z</time></trkpt><trkpt lat="41.5965275" lon="1.7692662"><ele>619.0</ele><time>2026-04-19T08:36:14.03Z</time></trkpt><trkpt lat="41.5963861" lon="1.7692202"><ele>619.0</ele><time>2026-04-19T08:36:15.031Z</time></trkpt><trkpt lat="41.5962527" lon="1.7691469"><ele>619.0</ele><time>2026-04-19T08:36:16.031Z</time></trkpt><trkpt lat="41.5961302" lon="1.76905"><ele>619.0</ele><time>2026-04-19T08:36:17.03Z</time></trkpt><trkpt lat="41.5960049" lon="1.7689491"><ele>616.75</ele><time>2026-04-19T08:36:18.03Z</time></trkpt><trkpt lat="41.5958726" lon="1.7688502"><ele>614.5</ele><time>2026-04-19T08:36:19.031Z</time></trkpt><trkpt lat="41.5957352" lon="1.7687601"><ele>612.25</ele><time>2026-04-19T08:36:20.03Z</time></trkpt><trkpt lat="41.5956066" lon="1.7686857"><ele>610.0</ele><time>2026-04-19T08:36:21.031Z</time></trkpt><trkpt lat="41.5954998" lon="1.76863"><ele>610.0</ele><time>2026-04-19T08:36:22.03Z</time></trkpt><trkpt lat="41.5954275" lon="1.7685851"><ele>610.0</ele><time>2026-04-19T08:36:23.03Z</time></trkpt><trkpt lat="41.5953679" lon="1.7685537"><ele>610.0</ele><time>2026-04-19T08:36:25.031Z</time></trkpt><trkpt lat="41.5952894" lon="1.7685005"><ele>610.0</ele><time>2026-04-19T08:36:29.031Z</time></trkpt><trkpt lat="41.5951772" lon="1.7684478"><ele>610.0</ele><time>2026-04-19T08:36:31.03Z</time></trkpt><trkpt lat="41.5950949" lon="1.7684466"><ele>610.0</ele><time>2026-04-19T08:36:32.031Z</time></trkpt><trkpt lat="41.5950048" lon="1.7684584"><ele>609.0</ele><time>2026-04-19T08:36:33.03Z</time></trkpt><trkpt lat="41.5949065" lon="1.7684655"><ele>608.0</ele><time>2026-04-19T08:36:34.031Z</time></trkpt><trkpt lat="41.5948063" lon="1.7684791"><ele>607.0</ele><time>2026-04-19T08:36:35.03Z</time></trkpt><trkpt lat="41.5947026" lon="1.7685048"><ele>606.0</ele><time>2026-04-19T08:36:36.03Z</time></trkpt><trkpt lat="41.5945984" lon="1.7685407"><ele>605.0</ele><time>2026-04-19T08:36:37.031Z</time></trkpt><trkpt lat="41.5944974" lon="1.7685838"><ele>604.2</ele><time>2026-04-19T08:36:38.03Z</time></trkpt><trkpt lat="41.5943972" lon="1.7686344"><ele>603.4</ele><time>2026-04-19T08:36:39.031Z</time></trkpt><trkpt lat="41.5943006" lon="1.7686954"><ele>602.6</ele><time>2026-04-19T08:36:40.031Z</time></trkpt><trkpt lat="41.5942106" lon="1.7687565"><ele>601.8</ele><time>2026-04-19T08:36:41.03Z</time></trkpt><trkpt lat="41.5941215" lon="1.7688171"><ele>601.0</ele><time>2026-04-19T08:36:42.031Z</time></trkpt><trkpt lat="41.5940305" lon="1.7688792"><ele>601.0</ele><time>2026-04-19T08:36:43.031Z</time></trkpt><trkpt lat="41.5939381" lon="1.7689466"><ele>601.0</ele><time>2026-04-19T08:36:44.031Z</time></trkpt><trkpt lat="41.5938427" lon="1.7690143"><ele>601.0</ele><time>2026-04-19T08:36:45.031Z</time></trkpt><trkpt lat="41.5937439" lon="1.7690899"><ele>601.0</ele><time>2026-04-19T08:36:46.03Z</time></trkpt><trkpt lat="41.593642" lon="1.7691719"><ele>601.0</ele><time>2026-04-19T08:36:47.031Z</time></trkpt><trkpt lat="41.5935382" lon="1.7692574"><ele>599.4</ele><time>2026-04-19T08:36:48.031Z</time></trkpt><trkpt lat="41.5934404" lon="1.7693399"><ele>597.8</ele><time>2026-04-19T08:36:49.031Z</time></trkpt><trkpt lat="41.5933482" lon="1.7694064"><ele>596.1999999999999</ele><time>2026-04-19T08:36:50.03Z</time></trkpt><trkpt lat="41.5932585" lon="1.7694387"><ele>594.6</ele><time>2026-04-19T08:36:51.03Z</time></trkpt><trkpt lat="41.5931761" lon="1.7694225"><ele>593.0</ele><time>2026-04-19T08:36:52.03Z</time></trkpt><trkpt lat="41.5931075" lon="1.7693522"><ele>593.0</ele><time>2026-04-19T08:36:53.03Z</time></trkpt><trkpt lat="41.5930709" lon="1.7692413"><ele>593.0</ele><time>2026-04-19T08:36:54.031Z</time></trkpt><trkpt lat="41.5930778" lon="1.7691194"><ele>593.0</ele><time>2026-04-19T08:36:55.03Z</time></trkpt><trkpt lat="41.5931212" lon="1.7690015"><ele>593.0</ele><time>2026-04-19T08:36:56.031Z</time></trkpt><trkpt lat="41.5931973" lon="1.7688749"><ele>593.0</ele><time>2026-04-19T08:36:57.031Z</time></trkpt><trkpt lat="41.5932819" lon="1.7687328"><ele>593.0</ele><time>2026-04-19T08:36:58.03Z</time></trkpt><trkpt lat="41.5933674" lon="1.7685761"><ele>593.0</ele><time>2026-04-19T08:36:59.031Z</time></trkpt><trkpt lat="41.5934568" lon="1.7684059"><ele>593.0</ele><time>2026-04-19T08:37:00.03Z</time></trkpt><trkpt lat="41.5935467" lon="1.7682252"><ele>593.0</ele><time>2026-04-19T08:37:01.031Z</time></trkpt><trkpt lat="41.5936462" lon="1.7680415"><ele>593.0</ele><time>2026-04-19T08:37:02.031Z</time></trkpt><trkpt lat="41.5937516" lon="1.7678557"><ele>593.0</ele><time>2026-04-19T08:37:03.03Z</time></trkpt><trkpt lat="41.5938569" lon="1.7676628"><ele>593.0</ele><time>2026-04-19T08:37:04.031Z</time></trkpt><trkpt lat="41.593962" lon="1.7674603"><ele>593.0</ele><time>2026-04-19T08:37:05.031Z</time></trkpt><trkpt lat="41.5940669" lon="1.7672571"><ele>593.0</ele><time>2026-04-19T08:37:06.031Z</time></trkpt><trkpt lat="41.5941684" lon="1.7670441"><ele>589.6666666666666</ele><time>2026-04-19T08:37:07.031Z</time></trkpt><trkpt lat="41.5942667" lon="1.7668188"><ele>586.3333333333334</ele><time>2026-04-19T08:37:08.031Z</time></trkpt><trkpt lat="41.5943656" lon="1.7665832"><ele>583.0</ele><time>2026-04-19T08:37:09.031Z</time></trkpt><trkpt lat="41.5944519" lon="1.7663323"><ele>584.3333333333334</ele><time>2026-04-19T08:37:10.03Z</time></trkpt><trkpt lat="41.594533" lon="1.7660737"><ele>585.6666666666666</ele><time>2026-04-19T08:37:11.03Z</time></trkpt><trkpt lat="41.5946111" lon="1.7658104"><ele>587.0</ele><time>2026-04-19T08:37:12.03Z</time></trkpt><trkpt lat="41.5946775" lon="1.7655373"><ele>587.0</ele><time>2026-04-19T08:37:13.031Z</time></trkpt><trkpt lat="41.5947338" lon="1.765257"><ele>587.0</ele><time>2026-04-19T08:37:14.031Z</time></trkpt><trkpt lat="41.5947724" lon="1.7649726"><ele>587.0</ele><time>2026-04-19T08:37:15.031Z</time></trkpt><trkpt lat="41.5948043" lon="1.7646857"><ele>584.0</ele><time>2026-04-19T08:37:16.03Z</time></trkpt><trkpt lat="41.5948245" lon="1.7643951"><ele>581.0</ele><time>2026-04-19T08:37:17.031Z</time></trkpt><trkpt lat="41.594825" lon="1.7641006"><ele>578.0</ele><time>2026-04-19T08:37:18.03Z</time></trkpt><trkpt lat="41.5948166" lon="1.7638084"><ele>568.6666666666666</ele><time>2026-04-19T08:37:19.03Z</time></trkpt><trkpt lat="41.5947988" lon="1.7635197"><ele>559.3333333333334</ele><time>2026-04-19T08:37:20.03Z</time></trkpt><trkpt lat="41.5947651" lon="1.7632324"><ele>550.0</ele><time>2026-04-19T08:37:21.031Z</time></trkpt><trkpt lat="41.5947199" lon="1.7629506"><ele>557.0</ele><time>2026-04-19T08:37:22.03Z</time></trkpt><trkpt lat="41.5946633" lon="1.7626764"><ele>564.0</ele><time>2026-04-19T08:37:23.031Z</time></trkpt><trkpt lat="41.5945958" lon="1.7624093"><ele>571.0</ele><time>2026-04-19T08:37:24.031Z</time></trkpt><trkpt lat="41.5945192" lon="1.7621492"><ele>567.3333333333334</ele><time>2026-04-19T08:37:25.03Z</time></trkpt><trkpt lat="41.5944232" lon="1.7618909"><ele>563.6666666666666</ele><time>2026-04-19T08:37:26.03Z</time></trkpt><trkpt lat="41.5943184" lon="1.7616411"><ele>560.0</ele><time>2026-04-19T08:37:27.031Z</time></trkpt><trkpt lat="41.5942052" lon="1.7613932"><ele>560.0</ele><time>2026-04-19T08:37:28.031Z</time></trkpt><trkpt lat="41.594081" lon="1.7611569"><ele>560.0</ele><time>2026-04-19T08:37:29.031Z</time></trkpt><trkpt lat="41.5939454" lon="1.7609256"><ele>560.0</ele><time>2026-04-19T08:37:30.031Z</time></trkpt><trkpt lat="41.593798" lon="1.7607047"><ele>554.0</ele><time>2026-04-19T08:37:31.031Z</time></trkpt><trkpt lat="41.5936322" lon="1.7604938"><ele>548.0</ele><time>2026-04-19T08:37:32.03Z</time></trkpt><trkpt lat="41.5934534" lon="1.760286"><ele>554.5</ele><time>2026-04-19T08:37:33.031Z</time></trkpt><trkpt lat="41.5932716" lon="1.760075"><ele>561.0</ele><time>2026-04-19T08:37:34.03Z</time></trkpt><trkpt lat="41.5930847" lon="1.7598543"><ele>561.0</ele><time>2026-04-19T08:37:35.031Z</time></trkpt><trkpt lat="41.5929036" lon="1.75962"><ele>561.0</ele><time>2026-04-19T08:37:36.031Z</time></trkpt><trkpt lat="41.5927289" lon="1.7593674"><ele>560.0</ele><time>2026-04-19T08:37:37.031Z</time></trkpt><trkpt lat="41.5925613" lon="1.7590996"><ele>559.0</ele><time>2026-04-19T08:37:38.031Z</time></trkpt><trkpt lat="41.5924111" lon="1.7588121"><ele>561.0</ele><time>2026-04-19T08:37:39.031Z</time></trkpt><trkpt lat="41.5922766" lon="1.7585005"><ele>563.0</ele><time>2026-04-19T08:37:40.031Z</time></trkpt><trkpt lat="41.592159" lon="1.7581822"><ele>563.0</ele><time>2026-04-19T08:37:41.031Z</time></trkpt><trkpt lat="41.5920636" lon="1.7578589"><ele>563.0</ele><time>2026-04-19T08:37:42.031Z</time></trkpt><trkpt lat="41.5919864" lon="1.7575264"><ele>557.5</ele><time>2026-04-19T08:37:43.031Z</time></trkpt><trkpt lat="41.5919235" lon="1.7571894"><ele>552.0</ele><time>2026-04-19T08:37:44.031Z</time></trkpt><trkpt lat="41.5918806" lon="1.7568454"><ele>546.0</ele><time>2026-04-19T08:37:45.031Z</time></trkpt><trkpt lat="41.591861" lon="1.7564979"><ele>540.0</ele><time>2026-04-19T08:37:46.031Z</time></trkpt><trkpt lat="41.5918612" lon="1.7561471"><ele>531.0</ele><time>2026-04-19T08:37:47.031Z</time></trkpt><trkpt lat="41.5918818" lon="1.7557919"><ele>522.0</ele><time>2026-04-19T08:37:48.031Z</time></trkpt><trkpt lat="41.5919186" lon="1.7554452"><ele>526.0</ele><time>2026-04-19T08:37:49.03Z</time></trkpt><trkpt lat="41.591972" lon="1.7551155"><ele>530.0</ele><time>2026-04-19T08:37:50.031Z</time></trkpt><trkpt lat="41.5920449" lon="1.7547974"><ele>533.0</ele><time>2026-04-19T08:37:51.031Z</time></trkpt><trkpt lat="41.5921333" lon="1.7544816"><ele>536.0</ele><time>2026-04-19T08:37:52.031Z</time></trkpt><trkpt lat="41.5922349" lon="1.7541693"><ele>541.5</ele><time>2026-04-19T08:37:53.03Z</time></trkpt><trkpt lat="41.5923435" lon="1.7538534"><ele>547.0</ele><time>2026-04-19T08:37:54.031Z</time></trkpt><trkpt lat="41.5924507" lon="1.7535407"><ele>546.0</ele><time>2026-04-19T08:37:55.03Z</time></trkpt><trkpt lat="41.5925637" lon="1.7532228"><ele>545.0</ele><time>2026-04-19T08:37:56.031Z</time></trkpt><trkpt lat="41.5926813" lon="1.7528996"><ele>544.5</ele><time>2026-04-19T08:37:57.03Z</time></trkpt><trkpt lat="41.5927941" lon="1.7525745"><ele>544.0</ele><time>2026-04-19T08:37:58.03Z</time></trkpt><trkpt lat="41.5929089" lon="1.7522521"><ele>546.5</ele><time>2026-04-19T08:37:59.031Z</time></trkpt><trkpt lat="41.5930266" lon="1.7519312"><ele>549.0</ele><time>2026-04-19T08:38:00.03Z</time></trkpt><trkpt lat="41.5931492" lon="1.7516134"><ele>549.0</ele><time>2026-04-19T08:38:01.031Z</time></trkpt><trkpt lat="41.5932749" lon="1.7512976"><ele>549.0</ele><time>2026-04-19T08:38:02.031Z</time></trkpt><trkpt lat="41.5934031" lon="1.7509969"><ele>545.5</ele><time>2026-04-19T08:38:03.03Z</time></trkpt><trkpt lat="41.5935295" lon="1.7507031"><ele>542.0</ele><time>2026-04-19T08:38:04.031Z</time></trkpt><trkpt lat="41.5936567" lon="1.7504164"><ele>545.0</ele><time>2026-04-19T08:38:05.03Z</time></trkpt><trkpt lat="41.5937902" lon="1.7501311"><ele>548.0</ele><time>2026-04-19T08:38:06.03Z</time></trkpt><trkpt lat="41.593927" lon="1.749852"><ele>548.0</ele><time>2026-04-19T08:38:07.031Z</time></trkpt><trkpt lat="41.5940662" lon="1.7495823"><ele>548.0</ele><time>2026-04-19T08:38:08.031Z</time></trkpt><trkpt lat="41.5942003" lon="1.7493239"><ele>546.5</ele><time>2026-04-19T08:38:09.031Z</time></trkpt><trkpt lat="41.5943335" lon="1.749067"><ele>545.0</ele><time>2026-04-19T08:38:10.03Z</time></trkpt><trkpt lat="41.5944624" lon="1.7487993"><ele>553.5</ele><time>2026-04-19T08:38:11.031Z</time></trkpt><trkpt lat="41.5946023" lon="1.7485337"><ele>562.0</ele><time>2026-04-19T08:38:12.03Z</time></trkpt><trkpt lat="41.5947414" lon="1.7482558"><ele>562.0</ele><time>2026-04-19T08:38:13.031Z</time></trkpt><trkpt lat="41.59488" lon="1.7479791"><ele>562.0</ele><time>2026-04-19T08:38:14.031Z</time></trkpt><trkpt lat="41.595008" lon="1.7476945"><ele>557.0</ele><time>2026-04-19T08:38:15.031Z</time></trkpt><trkpt lat="41.5951268" lon="1.7474018"><ele>552.0</ele><time>2026-04-19T08:38:16.03Z</time></trkpt><trkpt lat="41.5952354" lon="1.7471031"><ele>549.0</ele><time>2026-04-19T08:38:17.03Z</time></trkpt><trkpt lat="41.5953313" lon="1.7468101"><ele>546.0</ele><time>2026-04-19T08:38:18.031Z</time></trkpt><trkpt lat="41.5954076" lon="1.7465273"><ele>551.6666666666666</ele><time>2026-04-19T08:38:19.031Z</time></trkpt><trkpt lat="41.5954712" lon="1.746249"><ele>557.3333333333333</ele><time>2026-04-19T08:38:20.031Z</time></trkpt><trkpt lat="41.5955203" lon="1.7459739"><ele>563.0</ele><time>2026-04-19T08:38:21.03Z</time></trkpt><trkpt lat="41.5955621" lon="1.7456956"><ele>565.3333333333333</ele><time>2026-04-19T08:38:22.031Z</time></trkpt><trkpt lat="41.5956002" lon="1.7454129"><ele>567.6666666666666</ele><time>2026-04-19T08:38:23.031Z</time></trkpt><trkpt lat="41.5956424" lon="1.7451286"><ele>570.0</ele><time>2026-04-19T08:38:24.031Z</time></trkpt><trkpt lat="41.5956856" lon="1.7448375"><ele>570.3333333333334</ele><time>2026-04-19T08:38:25.031Z</time></trkpt><trkpt lat="41.5957249" lon="1.7445495"><ele>570.6666666666667</ele><time>2026-04-19T08:38:26.031Z</time></trkpt><trkpt lat="41.5957636" lon="1.7442571"><ele>571.0</ele><time>2026-04-19T08:38:27.031Z</time></trkpt><trkpt lat="41.5957997" lon="1.7439698"><ele>570.3333333333334</ele><time>2026-04-19T08:38:28.031Z</time></trkpt><trkpt lat="41.5958366" lon="1.7436789"><ele>569.6666666666666</ele><time>2026-04-19T08:38:29.03Z</time></trkpt><trkpt lat="41.5958746" lon="1.743387"><ele>569.0</ele><time>2026-04-19T08:38:30.031Z</time></trkpt><trkpt lat="41.5959124" lon="1.7430919"><ele>567.0</ele><time>2026-04-19T08:38:31.031Z</time></trkpt><trkpt lat="41.5959455" lon="1.7427955"><ele>565.0</ele><time>2026-04-19T08:38:32.031Z</time></trkpt><trkpt lat="41.5959771" lon="1.7424992"><ele>563.0</ele><time>2026-04-19T08:38:33.03Z</time></trkpt><trkpt lat="41.5960075" lon="1.7421904"><ele>563.0</ele><time>2026-04-19T08:38:34.031Z</time></trkpt><trkpt lat="41.596037" lon="1.7418847"><ele>563.0</ele><time>2026-04-19T08:38:35.031Z</time></trkpt><trkpt lat="41.5960676" lon="1.7415792"><ele>563.0</ele><time>2026-04-19T08:38:36.031Z</time></trkpt><trkpt lat="41.5960931" lon="1.7412724"><ele>563.0</ele><time>2026-04-19T08:38:37.03Z</time></trkpt><trkpt lat="41.5961142" lon="1.7409528"><ele>566.0</ele><time>2026-04-19T08:38:38.031Z</time></trkpt><trkpt lat="41.5961368" lon="1.7406243"><ele>569.0</ele><time>2026-04-19T08:38:39.03Z</time></trkpt><trkpt lat="41.5961555" lon="1.7402753"><ele>572.0</ele><time>2026-04-19T08:38:40.031Z</time></trkpt><trkpt lat="41.5961702" lon="1.73991"><ele>575.0</ele><time>2026-04-19T08:38:41.031Z</time></trkpt><trkpt lat="41.5961845" lon="1.7395416"><ele>581.0</ele><time>2026-04-19T08:38:42.031Z</time></trkpt><trkpt lat="41.5962005" lon="1.7391739"><ele>587.0</ele><time>2026-04-19T08:38:43.03Z</time></trkpt><trkpt lat="41.5962092" lon="1.7388065"><ele>530.0</ele><time>2026-04-19T08:38:44.03Z</time></trkpt><trkpt lat="41.5953636" lon="1.7289896"><ele>529.0</ele><time>2026-04-19T08:39:13.03Z</time></trkpt><trkpt lat="41.5952553" lon="1.728736"><ele>528.0</ele><time>2026-04-19T08:39:14.031Z</time></trkpt><trkpt lat="41.5951371" lon="1.7284914"><ele>527.0</ele><time>2026-04-19T08:39:15.031Z</time></trkpt><trkpt lat="41.5950637" lon="1.728183"><ele>524.5</ele><time>2026-04-19T08:39:16.03Z</time></trkpt><trkpt lat="41.5949967" lon="1.7278574"><ele>522.0</ele><time>2026-04-19T08:39:17.032Z</time></trkpt><trkpt lat="41.5949355" lon="1.7275354"><ele>520.5</ele><time>2026-04-19T08:39:18.031Z</time></trkpt><trkpt lat="41.5948736" lon="1.7272183"><ele>519.0</ele><time>2026-04-19T08:39:19.032Z</time></trkpt><trkpt lat="41.5948178" lon="1.7269091"><ele>517.0</ele><time>2026-04-19T08:39:20.031Z</time></trkpt><trkpt lat="41.5947671" lon="1.7266015"><ele>515.0</ele><time>2026-04-19T08:39:21.032Z</time></trkpt><trkpt lat="41.5947155" lon="1.7262956"><ele>514.0</ele><time>2026-04-19T08:39:22.031Z</time></trkpt><trkpt lat="41.5946599" lon="1.7259908"><ele>513.0</ele><time>2026-04-19T08:39:23.032Z</time></trkpt><trkpt lat="41.5946068" lon="1.725686"><ele>513.0</ele><time>2026-04-19T08:39:24.032Z</time></trkpt><trkpt lat="41.5945577" lon="1.7253873"><ele>513.0</ele><time>2026-04-19T08:39:25.032Z</time></trkpt><trkpt lat="41.5945118" lon="1.7250809"><ele>508.0</ele><time>2026-04-19T08:39:26.032Z</time></trkpt><trkpt lat="41.59448" lon="1.7247652"><ele>503.0</ele><time>2026-04-19T08:39:27.032Z</time></trkpt><trkpt lat="41.5944667" lon="1.7244376"><ele>501.0</ele><time>2026-04-19T08:39:28.032Z</time></trkpt><trkpt lat="41.5944646" lon="1.7241066"><ele>499.0</ele><time>2026-04-19T08:39:29.031Z</time></trkpt><trkpt lat="41.5944825" lon="1.7237724"><ele>502.0</ele><time>2026-04-19T08:39:30.032Z</time></trkpt><trkpt lat="41.5945139" lon="1.7234386"><ele>505.0</ele><time>2026-04-19T08:39:31.031Z</time></trkpt><trkpt lat="41.5945589" lon="1.7231067"><ele>505.0</ele><time>2026-04-19T08:39:32.031Z</time></trkpt><trkpt lat="41.5946197" lon="1.7227824"><ele>505.0</ele><time>2026-04-19T08:39:33.032Z</time></trkpt><trkpt lat="41.5946949" lon="1.7224623"><ele>501.0</ele><time>2026-04-19T08:39:34.032Z</time></trkpt><trkpt lat="41.5947822" lon="1.7221545"><ele>497.0</ele><time>2026-04-19T08:39:35.032Z</time></trkpt><trkpt lat="41.594884" lon="1.7218592"><ele>493.5</ele><time>2026-04-19T08:39:36.032Z</time></trkpt><trkpt lat="41.5949932" lon="1.7215769"><ele>490.0</ele><time>2026-04-19T08:39:37.032Z</time></trkpt><trkpt lat="41.5951127" lon="1.7212969"><ele>489.0</ele><time>2026-04-19T08:39:38.032Z</time></trkpt><trkpt lat="41.5952356" lon="1.7210196"><ele>488.0</ele><time>2026-04-19T08:39:39.031Z</time></trkpt><trkpt lat="41.5953557" lon="1.7207488"><ele>488.0</ele><time>2026-04-19T08:39:40.032Z</time></trkpt><trkpt lat="41.595484" lon="1.7204783"><ele>488.0</ele><time>2026-04-19T08:39:41.031Z</time></trkpt><trkpt lat="41.5956111" lon="1.7202062"><ele>485.0</ele><time>2026-04-19T08:39:42.032Z</time></trkpt><trkpt lat="41.5957377" lon="1.7199314"><ele>482.0</ele><time>2026-04-19T08:39:43.032Z</time></trkpt><trkpt lat="41.5958653" lon="1.7196566"><ele>480.0</ele><time>2026-04-19T08:39:44.031Z</time></trkpt><trkpt lat="41.5959897" lon="1.7193828"><ele>478.0</ele><time>2026-04-19T08:39:45.032Z</time></trkpt><trkpt lat="41.5961129" lon="1.7191073"><ele>475.5</ele><time>2026-04-19T08:39:46.031Z</time></trkpt><trkpt lat="41.5962313" lon="1.7188325"><ele>473.0</ele><time>2026-04-19T08:39:47.032Z</time></trkpt><trkpt lat="41.5963391" lon="1.7185639"><ele>471.5</ele><time>2026-04-19T08:39:48.031Z</time></trkpt><trkpt lat="41.5964423" lon="1.7182878"><ele>470.0</ele><time>2026-04-19T08:39:49.032Z</time></trkpt><trkpt lat="41.5965401" lon="1.7180034"><ele>469.0</ele><time>2026-04-19T08:39:50.032Z</time></trkpt><trkpt lat="41.5966382" lon="1.7177177"><ele>468.0</ele><time>2026-04-19T08:39:51.032Z</time></trkpt><trkpt lat="41.5967318" lon="1.7174233"><ele>468.0</ele><time>2026-04-19T08:39:52.032Z</time></trkpt><trkpt lat="41.5968139" lon="1.7171257"><ele>468.0</ele><time>2026-04-19T08:39:53.031Z</time></trkpt><trkpt lat="41.5968894" lon="1.7168208"><ele>468.0</ele><time>2026-04-19T08:39:54.031Z</time></trkpt><trkpt lat="41.5969598" lon="1.716508"><ele>468.0</ele><time>2026-04-19T08:39:55.032Z</time></trkpt><trkpt lat="41.5970289" lon="1.7161958"><ele>472.5</ele><time>2026-04-19T08:39:56.032Z</time></trkpt><trkpt lat="41.5970911" lon="1.7158766"><ele>477.0</ele><time>2026-04-19T08:39:57.032Z</time></trkpt><trkpt lat="41.5971461" lon="1.7155582"><ele>477.0</ele><time>2026-04-19T08:39:58.031Z</time></trkpt><trkpt lat="41.5972013" lon="1.7152397"><ele>477.0</ele><time>2026-04-19T08:39:59.032Z</time></trkpt><trkpt lat="41.5972571" lon="1.7149196"><ele>472.0</ele><time>2026-04-19T08:40:00.032Z</time></trkpt><trkpt lat="41.5973112" lon="1.7145968"><ele>467.0</ele><time>2026-04-19T08:40:01.032Z</time></trkpt><trkpt lat="41.5973652" lon="1.714279"><ele>464.0</ele><time>2026-04-19T08:40:02.032Z</time></trkpt><trkpt lat="41.5974197" lon="1.7139594"><ele>461.0</ele><time>2026-04-19T08:40:03.031Z</time></trkpt><trkpt lat="41.5974755" lon="1.7136381"><ele>458.5</ele><time>2026-04-19T08:40:04.032Z</time></trkpt><trkpt lat="41.5975323" lon="1.7133216"><ele>456.0</ele><time>2026-04-19T08:40:05.031Z</time></trkpt><trkpt lat="41.5975909" lon="1.7130011"><ele>452.0</ele><time>2026-04-19T08:40:06.032Z</time></trkpt><trkpt lat="41.5976524" lon="1.7126808"><ele>448.0</ele><time>2026-04-19T08:40:07.032Z</time></trkpt><trkpt lat="41.5977242" lon="1.7123573"><ele>448.0</ele><time>2026-04-19T08:40:08.031Z</time></trkpt><trkpt lat="41.5977947" lon="1.7120303"><ele>448.0</ele><time>2026-04-19T08:40:09.031Z</time></trkpt><trkpt lat="41.5978695" lon="1.7117052"><ele>448.5</ele><time>2026-04-19T08:40:10.032Z</time></trkpt><trkpt lat="41.5979513" lon="1.7113711"><ele>449.0</ele><time>2026-04-19T08:40:11.032Z</time></trkpt><trkpt lat="41.598037" lon="1.7110254"><ele>447.5</ele><time>2026-04-19T08:40:12.032Z</time></trkpt><trkpt lat="41.5981293" lon="1.7106964"><ele>446.0</ele><time>2026-04-19T08:40:13.032Z</time></trkpt><trkpt lat="41.5982191" lon="1.7103821"><ele>445.5</ele><time>2026-04-19T08:40:14.032Z</time></trkpt><trkpt lat="41.5983125" lon="1.7100724"><ele>445.0</ele><time>2026-04-19T08:40:15.032Z</time></trkpt><trkpt lat="41.5984054" lon="1.7097721"><ele>445.0</ele><time>2026-04-19T08:40:16.032Z</time></trkpt><trkpt lat="41.598499" lon="1.7094805"><ele>445.0</ele><time>2026-04-19T08:40:17.032Z</time></trkpt><trkpt lat="41.5985981" lon="1.7091914"><ele>441.5</ele><time>2026-04-19T08:40:18.032Z</time></trkpt><trkpt lat="41.598694" lon="1.7089011"><ele>438.0</ele><time>2026-04-19T08:40:19.031Z</time></trkpt><trkpt lat="41.5987965" lon="1.7086107"><ele>434.5</ele><time>2026-04-19T08:40:20.032Z</time></trkpt><trkpt lat="41.5989039" lon="1.7083267"><ele>431.0</ele><time>2026-04-19T08:40:21.032Z</time></trkpt><trkpt lat="41.5990165" lon="1.7080386"><ele>431.0</ele><time>2026-04-19T08:40:22.032Z</time></trkpt><trkpt lat="41.5991291" lon="1.70775"><ele>431.0</ele><time>2026-04-19T08:40:23.032Z</time></trkpt><trkpt lat="41.5992407" lon="1.7074638"><ele>427.0</ele><time>2026-04-19T08:40:24.032Z</time></trkpt><trkpt lat="41.5993578" lon="1.7071788"><ele>423.0</ele><time>2026-04-19T08:40:25.031Z</time></trkpt><trkpt lat="41.599478" lon="1.7068935"><ele>423.5</ele><time>2026-04-19T08:40:26.031Z</time></trkpt><trkpt lat="41.5995953" lon="1.7066088"><ele>424.0</ele><time>2026-04-19T08:40:27.031Z</time></trkpt><trkpt lat="41.5997094" lon="1.7063218"><ele>418.0</ele><time>2026-04-19T08:40:28.032Z</time></trkpt><trkpt lat="41.5998181" lon="1.7060339"><ele>412.0</ele><time>2026-04-19T08:40:29.032Z</time></trkpt><trkpt lat="41.5999226" lon="1.7057416"><ele>412.0</ele><time>2026-04-19T08:40:30.032Z</time></trkpt><trkpt lat="41.6000147" lon="1.7054434"><ele>412.0</ele><time>2026-04-19T08:40:31.032Z</time></trkpt><trkpt lat="41.6000886" lon="1.7051368"><ele>407.5</ele><time>2026-04-19T08:40:32.032Z</time></trkpt><trkpt lat="41.6001456" lon="1.70482"><ele>403.0</ele><time>2026-04-19T08:40:33.032Z</time></trkpt><trkpt lat="41.600192" lon="1.704506"><ele>401.5</ele><time>2026-04-19T08:40:34.031Z</time></trkpt><trkpt lat="41.60022" lon="1.704187"><ele>400.0</ele><time>2026-04-19T08:40:35.031Z</time></trkpt><trkpt lat="41.6002297" lon="1.7038687"><ele>401.0</ele><time>2026-04-19T08:40:36.032Z</time></trkpt><trkpt lat="41.6002236" lon="1.7035499"><ele>402.0</ele><time>2026-04-19T08:40:37.032Z</time></trkpt><trkpt lat="41.6002033" lon="1.7032375"><ele>402.0</ele><time>2026-04-19T08:40:38.032Z</time></trkpt><trkpt lat="41.600162" lon="1.7029228"><ele>402.0</ele><time>2026-04-19T08:40:39.032Z</time></trkpt><trkpt lat="41.600107" lon="1.7026115"><ele>403.5</ele><time>2026-04-19T08:40:40.031Z</time></trkpt><trkpt lat="41.6000376" lon="1.7023077"><ele>405.0</ele><time>2026-04-19T08:40:41.032Z</time></trkpt><trkpt lat="41.5999574" lon="1.7020147"><ele>406.0</ele><time>2026-04-19T08:40:42.032Z</time></trkpt><trkpt lat="41.5998735" lon="1.7017196"><ele>407.0</ele><time>2026-04-19T08:40:43.031Z</time></trkpt><trkpt lat="41.5997875" lon="1.7014284"><ele>407.0</ele><time>2026-04-19T08:40:44.032Z</time></trkpt><trkpt lat="41.5996935" lon="1.7011339"><ele>407.0</ele><time>2026-04-19T08:40:45.032Z</time></trkpt><trkpt lat="41.5995955" lon="1.7008452"><ele>407.5</ele><time>2026-04-19T08:40:46.031Z</time></trkpt><trkpt lat="41.599503" lon="1.7005551"><ele>408.0</ele><time>2026-04-19T08:40:47.032Z</time></trkpt><trkpt lat="41.5994088" lon="1.7002636"><ele>405.5</ele><time>2026-04-19T08:40:48.031Z</time></trkpt><trkpt lat="41.5993118" lon="1.6999676"><ele>403.0</ele><time>2026-04-19T08:40:49.032Z</time></trkpt><trkpt lat="41.5992123" lon="1.69967"><ele>403.0</ele><time>2026-04-19T08:40:50.032Z</time></trkpt><trkpt lat="41.5991113" lon="1.6993703"><ele>403.0</ele><time>2026-04-19T08:40:51.032Z</time></trkpt><trkpt lat="41.5990092" lon="1.6990777"><ele>403.0</ele><time>2026-04-19T08:40:52.031Z</time></trkpt><trkpt lat="41.5989102" lon="1.6987903"><ele>403.0</ele><time>2026-04-19T08:40:53.032Z</time></trkpt><trkpt lat="41.5988098" lon="1.6985014"><ele>403.5</ele><time>2026-04-19T08:40:54.032Z</time></trkpt><trkpt lat="41.598705" lon="1.6982218"><ele>404.0</ele><time>2026-04-19T08:40:55.032Z</time></trkpt><trkpt lat="41.5985872" lon="1.6979485"><ele>401.5</ele><time>2026-04-19T08:40:56.032Z</time></trkpt><trkpt lat="41.5984549" lon="1.6976881"><ele>399.0</ele><time>2026-04-19T08:40:57.031Z</time></trkpt><trkpt lat="41.59831" lon="1.6974365"><ele>399.0</ele><time>2026-04-19T08:40:58.031Z</time></trkpt><trkpt lat="41.5981545" lon="1.6971967"><ele>399.0</ele><time>2026-04-19T08:40:59.031Z</time></trkpt><trkpt lat="41.5979886" lon="1.696959"><ele>398.0</ele><time>2026-04-19T08:41:00.031Z</time></trkpt><trkpt lat="41.5978164" lon="1.696732"><ele>397.0</ele><time>2026-04-19T08:41:01.032Z</time></trkpt><trkpt lat="41.5976348" lon="1.6965144"><ele>397.0</ele><time>2026-04-19T08:41:02.031Z</time></trkpt><trkpt lat="41.5974568" lon="1.6962932"><ele>397.0</ele><time>2026-04-19T08:41:03.032Z</time></trkpt><trkpt lat="41.5972798" lon="1.6960698"><ele>397.5</ele><time>2026-04-19T08:41:04.032Z</time></trkpt><trkpt lat="41.597108" lon="1.6958378"><ele>398.0</ele><time>2026-04-19T08:41:05.031Z</time></trkpt><trkpt lat="41.5969404" lon="1.6956076"><ele>397.0</ele><time>2026-04-19T08:41:06.031Z</time></trkpt><trkpt lat="41.5967756" lon="1.695372"><ele>396.0</ele><time>2026-04-19T08:41:07.032Z</time></trkpt><trkpt lat="41.5966216" lon="1.6951342"><ele>398.0</ele><time>2026-04-19T08:41:08.032Z</time></trkpt><trkpt lat="41.5964806" lon="1.6948805"><ele>400.0</ele><time>2026-04-19T08:41:09.032Z</time></trkpt><trkpt lat="41.596353" lon="1.6946142"><ele>398.5</ele><time>2026-04-19T08:41:10.031Z</time></trkpt><trkpt lat="41.5962362" lon="1.694332"><ele>397.0</ele><time>2026-04-19T08:41:11.032Z</time></trkpt><trkpt lat="41.5961312" lon="1.6940373"><ele>397.0</ele><time>2026-04-19T08:41:12.031Z</time></trkpt><trkpt lat="41.5960392" lon="1.6937374"><ele>397.0</ele><time>2026-04-19T08:41:13.032Z</time></trkpt><trkpt lat="41.5959677" lon="1.6934255"><ele>396.5</ele><time>2026-04-19T08:41:14.032Z</time></trkpt><trkpt lat="41.5959114" lon="1.6931083"><ele>396.0</ele><time>2026-04-19T08:41:15.031Z</time></trkpt><trkpt lat="41.5958643" lon="1.6927838"><ele>394.5</ele><time>2026-04-19T08:41:16.031Z</time></trkpt><trkpt lat="41.5958267" lon="1.692456"><ele>393.0</ele><time>2026-04-19T08:41:17.031Z</time></trkpt><trkpt lat="41.5958005" lon="1.692132"><ele>392.0</ele><time>2026-04-19T08:41:18.031Z</time></trkpt><trkpt lat="41.5957818" lon="1.6918088"><ele>391.0</ele><time>2026-04-19T08:41:19.032Z</time></trkpt><trkpt lat="41.5957657" lon="1.6914818"><ele>391.0</ele><time>2026-04-19T08:41:20.031Z</time></trkpt><trkpt lat="41.5957499" lon="1.6911678"><ele>391.0</ele><time>2026-04-19T08:41:21.031Z</time></trkpt><trkpt lat="41.5957342" lon="1.6908524"><ele>389.0</ele><time>2026-04-19T08:41:22.032Z</time></trkpt><trkpt lat="41.5957197" lon="1.6905385"><ele>387.0</ele><time>2026-04-19T08:41:23.032Z</time></trkpt><trkpt lat="41.5957057" lon="1.6902283"><ele>385.5</ele><time>2026-04-19T08:41:24.031Z</time></trkpt><trkpt lat="41.5956925" lon="1.689924"><ele>384.0</ele><time>2026-04-19T08:41:25.031Z</time></trkpt><trkpt lat="41.5956808" lon="1.6896174"><ele>383.3333333333333</ele><time>2026-04-19T08:41:26.032Z</time></trkpt><trkpt lat="41.5956675" lon="1.689321"><ele>382.66666666666663</ele><time>2026-04-19T08:41:27.032Z</time></trkpt><trkpt lat="41.5956565" lon="1.6890226"><ele>382.0</ele><time>2026-04-19T08:41:28.032Z</time></trkpt><trkpt lat="41.5956581" lon="1.6887166"><ele>381.0</ele><time>2026-04-19T08:41:29.032Z</time></trkpt><trkpt lat="41.5956771" lon="1.6884115"><ele>380.0</ele><time>2026-04-19T08:41:30.031Z</time></trkpt><trkpt lat="41.5957088" lon="1.6881095"><ele>380.0</ele><time>2026-04-19T08:41:31.032Z</time></trkpt><trkpt lat="41.5957521" lon="1.687807"><ele>380.0</ele><time>2026-04-19T08:41:32.032Z</time></trkpt><trkpt lat="41.595803" lon="1.6875038"><ele>377.5</ele><time>2026-04-19T08:41:33.032Z</time></trkpt><trkpt lat="41.5958525" lon="1.687207"><ele>375.0</ele><time>2026-04-19T08:41:34.032Z</time></trkpt><trkpt lat="41.5959049" lon="1.6869103"><ele>374.5</ele><time>2026-04-19T08:41:35.031Z</time></trkpt><trkpt lat="41.5959546" lon="1.6866073"><ele>374.0</ele><time>2026-04-19T08:41:36.032Z</time></trkpt><trkpt lat="41.5960063" lon="1.6863015"><ele>372.0</ele><time>2026-04-19T08:41:37.032Z</time></trkpt><trkpt lat="41.5960486" lon="1.6860047"><ele>370.0</ele><time>2026-04-19T08:41:38.031Z</time></trkpt><trkpt lat="41.5960759" lon="1.6857016"><ele>370.0</ele><time>2026-04-19T08:41:39.032Z</time></trkpt><trkpt lat="41.5960838" lon="1.6853909"><ele>370.0</ele><time>2026-04-19T08:41:40.031Z</time></trkpt><trkpt lat="41.5960755" lon="1.6850813"><ele>367.5</ele><time>2026-04-19T08:41:41.032Z</time></trkpt><trkpt lat="41.5960535" lon="1.6847687"><ele>365.0</ele><time>2026-04-19T08:41:42.032Z</time></trkpt><trkpt lat="41.5960228" lon="1.6844584"><ele>360.5</ele><time>2026-04-19T08:41:43.032Z</time></trkpt><trkpt lat="41.5959733" lon="1.6841474"><ele>356.0</ele><time>2026-04-19T08:41:44.032Z</time></trkpt><trkpt lat="41.5959081" lon="1.6838451"><ele>353.5</ele><time>2026-04-19T08:41:45.032Z</time></trkpt><trkpt lat="41.5958259" lon="1.6835419"><ele>351.0</ele><time>2026-04-19T08:41:46.032Z</time></trkpt><trkpt lat="41.5957268" lon="1.6832463"><ele>351.0</ele><time>2026-04-19T08:41:47.032Z</time></trkpt><trkpt lat="41.5956166" lon="1.6829589"><ele>351.0</ele><time>2026-04-19T08:41:48.032Z</time></trkpt><trkpt lat="41.5954913" lon="1.682684"><ele>352.0</ele><time>2026-04-19T08:41:49.031Z</time></trkpt><trkpt lat="41.5953546" lon="1.6824276"><ele>353.0</ele><time>2026-04-19T08:41:50.032Z</time></trkpt><trkpt lat="41.5952106" lon="1.6821904"><ele>353.0</ele><time>2026-04-19T08:41:51.032Z</time></trkpt><trkpt lat="41.5950603" lon="1.6819667"><ele>353.0</ele><time>2026-04-19T08:41:52.032Z</time></trkpt><trkpt lat="41.5948994" lon="1.6817616"><ele>353.0</ele><time>2026-04-19T08:41:53.032Z</time></trkpt><trkpt lat="41.5947339" lon="1.6815732"><ele>356.0</ele><time>2026-04-19T08:41:54.032Z</time></trkpt><trkpt lat="41.5945614" lon="1.6813945"><ele>359.0</ele><time>2026-04-19T08:41:55.031Z</time></trkpt><trkpt lat="41.5943814" lon="1.6812306"><ele>362.0</ele><time>2026-04-19T08:41:56.032Z</time></trkpt><trkpt lat="41.5941976" lon="1.6810811"><ele>363.0</ele><time>2026-04-19T08:41:57.032Z</time></trkpt><trkpt lat="41.5940159" lon="1.680953"><ele>364.0</ele><time>2026-04-19T08:41:58.031Z</time></trkpt><trkpt lat="41.5938396" lon="1.6808432"><ele>365.0</ele><time>2026-04-19T08:41:59.031Z</time></trkpt><trkpt lat="41.5936649" lon="1.6807501"><ele>365.0</ele><time>2026-04-19T08:42:00.031Z</time></trkpt><trkpt lat="41.5934785" lon="1.6806617"><ele>365.0</ele><time>2026-04-19T08:42:01.032Z</time></trkpt><trkpt lat="41.5932886" lon="1.6805665"><ele>365.0</ele><time>2026-04-19T08:42:02.032Z</time></trkpt><trkpt lat="41.5930968" lon="1.6804663"><ele>365.0</ele><time>2026-04-19T08:42:03.032Z</time></trkpt><trkpt lat="41.5929009" lon="1.6803655"><ele>365.0</ele><time>2026-04-19T08:42:04.032Z</time></trkpt><trkpt lat="41.5926985" lon="1.6802649"><ele>365.0</ele><time>2026-04-19T08:42:05.032Z</time></trkpt><trkpt lat="41.5924937" lon="1.6801631"><ele>365.5</ele><time>2026-04-19T08:42:06.032Z</time></trkpt><trkpt lat="41.5922794" lon="1.680057"><ele>366.0</ele><time>2026-04-19T08:42:07.032Z</time></trkpt><trkpt lat="41.5920692" lon="1.679953"><ele>364.3333333333333</ele><time>2026-04-19T08:42:08.032Z</time></trkpt><trkpt lat="41.5918629" lon="1.6798462"><ele>362.66666666666663</ele><time>2026-04-19T08:42:09.031Z</time></trkpt><trkpt lat="41.5916523" lon="1.6797383"><ele>361.0</ele><time>2026-04-19T08:42:10.031Z</time></trkpt><trkpt lat="41.5914373" lon="1.6796293"><ele>361.0</ele><time>2026-04-19T08:42:11.031Z</time></trkpt><trkpt lat="41.5912235" lon="1.6795212"><ele>361.0</ele><time>2026-04-19T08:42:12.031Z</time></trkpt><trkpt lat="41.5910109" lon="1.6794126"><ele>358.0</ele><time>2026-04-19T08:42:13.031Z</time></trkpt><trkpt lat="41.5908023" lon="1.6792986"><ele>355.0</ele><time>2026-04-19T08:42:14.031Z</time></trkpt><trkpt lat="41.5905945" lon="1.6791849"><ele>355.0</ele><time>2026-04-19T08:42:15.032Z</time></trkpt><trkpt lat="41.5903917" lon="1.6790775"><ele>355.0</ele><time>2026-04-19T08:42:16.032Z</time></trkpt><trkpt lat="41.5901928" lon="1.6789728"><ele>355.0</ele><time>2026-04-19T08:42:17.031Z</time></trkpt><trkpt lat="41.5899981" lon="1.6788639"><ele>354.3333333333333</ele><time>2026-04-19T08:42:18.031Z</time></trkpt><trkpt lat="41.589804" lon="1.6787498"><ele>353.6666666666667</ele><time>2026-04-19T08:42:19.031Z</time></trkpt><trkpt lat="41.5896116" lon="1.6786325"><ele>353.0</ele><time>2026-04-19T08:42:20.032Z</time></trkpt><trkpt lat="41.5894344" lon="1.6784962"><ele>349.6666666666667</ele><time>2026-04-19T08:42:21.032Z</time></trkpt><trkpt lat="41.589264" lon="1.6783692"><ele>346.3333333333333</ele><time>2026-04-19T08:42:22.032Z</time></trkpt><trkpt lat="41.5891008" lon="1.6782272"><ele>343.0</ele><time>2026-04-19T08:42:23.032Z</time></trkpt><trkpt lat="41.5889411" lon="1.6780677"><ele>343.0</ele><time>2026-04-19T08:42:24.032Z</time></trkpt><trkpt lat="41.5887853" lon="1.6779031"><ele>343.0</ele><time>2026-04-19T08:42:25.032Z</time></trkpt><trkpt lat="41.5886363" lon="1.6777316"><ele>343.0</ele><time>2026-04-19T08:42:26.031Z</time></trkpt><trkpt lat="41.5884934" lon="1.6775585"><ele>340.3333333333333</ele><time>2026-04-19T08:42:27.031Z</time></trkpt><trkpt lat="41.5883564" lon="1.6773784"><ele>337.6666666666667</ele><time>2026-04-19T08:42:28.031Z</time></trkpt><trkpt lat="41.5882267" lon="1.6771863"><ele>335.0</ele><time>2026-04-19T08:42:29.032Z</time></trkpt><trkpt lat="41.5880996" lon="1.676999"><ele>333.0</ele><time>2026-04-19T08:42:30.031Z</time></trkpt><trkpt lat="41.5879985" lon="1.6768057"><ele>331.0</ele><time>2026-04-19T08:42:31.032Z</time></trkpt><trkpt lat="41.5878929" lon="1.6765947"><ele>329.0</ele><time>2026-04-19T08:42:32.031Z</time></trkpt><trkpt lat="41.5877943" lon="1.6763754"><ele>328.33333333333337</ele><time>2026-04-19T08:42:33.032Z</time></trkpt><trkpt lat="41.5877041" lon="1.6761457"><ele>327.6666666666667</ele><time>2026-04-19T08:42:34.032Z</time></trkpt><trkpt lat="41.5876248" lon="1.6759126"><ele>327.0</ele><time>2026-04-19T08:42:35.032Z</time></trkpt><trkpt lat="41.5875592" lon="1.6756641"><ele>325.6666666666667</ele><time>2026-04-19T08:42:36.031Z</time></trkpt><trkpt lat="41.5875035" lon="1.6754174"><ele>324.33333333333337</ele><time>2026-04-19T08:42:37.032Z</time></trkpt><trkpt lat="41.5874623" lon="1.6751624"><ele>323.0</ele><time>2026-04-19T08:42:38.032Z</time></trkpt><trkpt lat="41.5874316" lon="1.6749088"><ele>322.0</ele><time>2026-04-19T08:42:39.032Z</time></trkpt><trkpt lat="41.587401" lon="1.6746639"><ele>321.0</ele><time>2026-04-19T08:42:40.031Z</time></trkpt><trkpt lat="41.5873643" lon="1.6744269"><ele>320.0</ele><time>2026-04-19T08:42:41.032Z</time></trkpt><trkpt lat="41.5873281" lon="1.6742017"><ele>320.33333333333337</ele><time>2026-04-19T08:42:42.032Z</time></trkpt><trkpt lat="41.5872824" lon="1.6739822"><ele>320.6666666666667</ele><time>2026-04-19T08:42:43.031Z</time></trkpt><trkpt lat="41.5872205" lon="1.6737767"><ele>321.0</ele><time>2026-04-19T08:42:44.031Z</time></trkpt><trkpt lat="41.5871641" lon="1.6735694"><ele>321.0</ele><time>2026-04-19T08:42:45.032Z</time></trkpt><trkpt lat="41.5870921" lon="1.6733669"><ele>321.0</ele><time>2026-04-19T08:42:46.032Z</time></trkpt><trkpt lat="41.5869958" lon="1.6731846"><ele>321.0</ele><time>2026-04-19T08:42:47.032Z</time></trkpt><trkpt lat="41.5868105" lon="1.6730532"><ele>318.6666666666667</ele><time>2026-04-19T08:42:48.032Z</time></trkpt><trkpt lat="41.5866139" lon="1.6729491"><ele>316.33333333333337</ele><time>2026-04-19T08:42:49.031Z</time></trkpt><trkpt lat="41.5864297" lon="1.6728636"><ele>314.0</ele><time>2026-04-19T08:42:50.031Z</time></trkpt><trkpt lat="41.5862433" lon="1.6727782"><ele>316.0</ele><time>2026-04-19T08:42:51.031Z</time></trkpt><trkpt lat="41.586065" lon="1.6727167"><ele>318.0</ele><time>2026-04-19T08:42:52.032Z</time></trkpt><trkpt lat="41.5858807" lon="1.6726439"><ele>320.0</ele><time>2026-04-19T08:42:53.032Z</time></trkpt><trkpt lat="41.5856968" lon="1.6725675"><ele>320.0</ele><time>2026-04-19T08:42:54.032Z</time></trkpt><trkpt lat="41.5855173" lon="1.6724948"><ele>320.0</ele><time>2026-04-19T08:42:55.031Z</time></trkpt><trkpt lat="41.5853422" lon="1.6724198"><ele>320.0</ele><time>2026-04-19T08:42:56.032Z</time></trkpt><trkpt lat="41.5851696" lon="1.6723482"><ele>318.6666666666667</ele><time>2026-04-19T08:42:57.032Z</time></trkpt><trkpt lat="41.5850055" lon="1.6722745"><ele>317.3333333333333</ele><time>2026-04-19T08:42:58.032Z</time></trkpt><trkpt lat="41.5848474" lon="1.6722049"><ele>316.0</ele><time>2026-04-19T08:42:59.032Z</time></trkpt><trkpt lat="41.5846897" lon="1.6721372"><ele>316.0</ele><time>2026-04-19T08:43:00.031Z</time></trkpt><trkpt lat="41.5845294" lon="1.6720663"><ele>316.0</ele><time>2026-04-19T08:43:01.032Z</time></trkpt><trkpt lat="41.5843679" lon="1.672"><ele>316.0</ele><time>2026-04-19T08:43:02.032Z</time></trkpt><trkpt lat="41.5842036" lon="1.6719328"><ele>314.66666666666663</ele><time>2026-04-19T08:43:03.032Z</time></trkpt><trkpt lat="41.5840301" lon="1.671859"><ele>313.3333333333333</ele><time>2026-04-19T08:43:04.032Z</time></trkpt><trkpt lat="41.5838594" lon="1.671785"><ele>312.0</ele><time>2026-04-19T08:43:05.032Z</time></trkpt><trkpt lat="41.583691" lon="1.6717138"><ele>311.6666666666667</ele><time>2026-04-19T08:43:06.031Z</time></trkpt><trkpt lat="41.5835172" lon="1.6716419"><ele>311.33333333333337</ele><time>2026-04-19T08:43:07.032Z</time></trkpt><trkpt lat="41.583346" lon="1.6715687"><ele>311.0</ele><time>2026-04-19T08:43:08.031Z</time></trkpt><trkpt lat="41.5831831" lon="1.6714981"><ele>311.0</ele><time>2026-04-19T08:43:09.032Z</time></trkpt><trkpt lat="41.5830279" lon="1.6714297"><ele>311.0</ele><time>2026-04-19T08:43:10.031Z</time></trkpt><trkpt lat="41.5828672" lon="1.6713607"><ele>311.0</ele><time>2026-04-19T08:43:11.032Z</time></trkpt><trkpt lat="41.5826935" lon="1.6712878"><ele>311.0</ele><time>2026-04-19T08:43:12.032Z</time></trkpt><trkpt lat="41.5825133" lon="1.6712122"><ele>311.0</ele><time>2026-04-19T08:43:13.032Z</time></trkpt><trkpt lat="41.5823414" lon="1.6711362"><ele>311.0</ele><time>2026-04-19T08:43:14.032Z</time></trkpt><trkpt lat="41.5821704" lon="1.6710653"><ele>311.33333333333337</ele><time>2026-04-19T08:43:15.032Z</time></trkpt><trkpt lat="41.5820084" lon="1.6709918"><ele>311.6666666666667</ele><time>2026-04-19T08:43:16.032Z</time></trkpt><trkpt lat="41.581847" lon="1.6709179"><ele>312.0</ele><time>2026-04-19T08:43:17.032Z</time></trkpt><trkpt lat="41.5816866" lon="1.6708489"><ele>312.0</ele><time>2026-04-19T08:43:18.032Z</time></trkpt><trkpt lat="41.5815325" lon="1.6707816"><ele>312.0</ele><time>2026-04-19T08:43:19.031Z</time></trkpt><trkpt lat="41.5813895" lon="1.6706998"><ele>312.0</ele><time>2026-04-19T08:43:20.032Z</time></trkpt><trkpt lat="41.5812559" lon="1.6706127"><ele>310.6666666666667</ele><time>2026-04-19T08:43:21.032Z</time></trkpt><trkpt lat="41.5811239" lon="1.6705256"><ele>309.33333333333337</ele><time>2026-04-19T08:43:22.032Z</time></trkpt><trkpt lat="41.5809926" lon="1.6704129"><ele>308.0</ele><time>2026-04-19T08:43:23.032Z</time></trkpt><trkpt lat="41.5808667" lon="1.6702764"><ele>309.6666666666667</ele><time>2026-04-19T08:43:24.031Z</time></trkpt><trkpt lat="41.580741" lon="1.6701322"><ele>311.3333333333333</ele><time>2026-04-19T08:43:25.031Z</time></trkpt><trkpt lat="41.5806129" lon="1.6699913"><ele>313.0</ele><time>2026-04-19T08:43:26.031Z</time></trkpt><trkpt lat="41.5804879" lon="1.6698574"><ele>313.0</ele><time>2026-04-19T08:43:27.032Z</time></trkpt><trkpt lat="41.5803747" lon="1.6697361"><ele>313.0</ele><time>2026-04-19T08:43:28.032Z</time></trkpt><trkpt lat="41.5802776" lon="1.6696295"><ele>313.0</ele><time>2026-04-19T08:43:29.031Z</time></trkpt><trkpt lat="41.5801883" lon="1.6695332"><ele>313.0</ele><time>2026-04-19T08:43:30.032Z</time></trkpt><trkpt lat="41.5801231" lon="1.6694495"><ele>312.2</ele><time>2026-04-19T08:43:31.032Z</time></trkpt><trkpt lat="41.580064" lon="1.6693829"><ele>311.4</ele><time>2026-04-19T08:43:32.031Z</time></trkpt><trkpt lat="41.5799897" lon="1.6693009"><ele>310.59999999999997</ele><time>2026-04-19T08:43:34.032Z</time></trkpt><trkpt lat="41.5799361" lon="1.6691934"><ele>309.8</ele><time>2026-04-19T08:43:38.032Z</time></trkpt><trkpt lat="41.5799196" lon="1.6690258"><ele>309.0</ele><time>2026-04-19T08:43:40.032Z</time></trkpt><trkpt lat="41.5799296" lon="1.6689211"><ele>309.0</ele><time>2026-04-19T08:43:41.031Z</time></trkpt><trkpt lat="41.5799324" lon="1.6688126"><ele>309.0</ele><time>2026-04-19T08:43:42.032Z</time></trkpt><trkpt lat="41.5799156" lon="1.6686936"><ele>309.0</ele><time>2026-04-19T08:43:43.031Z</time></trkpt><trkpt lat="41.5798748" lon="1.6685596"><ele>309.0</ele><time>2026-04-19T08:43:44.031Z</time></trkpt><trkpt lat="41.5797998" lon="1.6684734"><ele>309.0</ele><time>2026-04-19T08:43:45.032Z</time></trkpt><trkpt lat="41.5797099" lon="1.6684091"><ele>308.25</ele><time>2026-04-19T08:43:46.032Z</time></trkpt><trkpt lat="41.5796042" lon="1.6683833"><ele>307.5</ele><time>2026-04-19T08:43:47.032Z</time></trkpt><trkpt lat="41.5794873" lon="1.6683742"><ele>306.75</ele><time>2026-04-19T08:43:48.031Z</time></trkpt><trkpt lat="41.5793637" lon="1.6683376"><ele>306.0</ele><time>2026-04-19T08:43:49.032Z</time></trkpt><trkpt lat="41.5792468" lon="1.6682525"><ele>306.0</ele><time>2026-04-19T08:43:50.031Z</time></trkpt><trkpt lat="41.5791377" lon="1.6681398"><ele>306.0</ele><time>2026-04-19T08:43:51.032Z</time></trkpt><trkpt lat="41.5790312" lon="1.6680078"><ele>306.0</ele><time>2026-04-19T08:43:52.032Z</time></trkpt><trkpt lat="41.578923" lon="1.6678672"><ele>306.0</ele><time>2026-04-19T08:43:53.031Z</time></trkpt><trkpt lat="41.578815" lon="1.667728"><ele>306.6666666666667</ele><time>2026-04-19T08:43:54.032Z</time></trkpt><trkpt lat="41.5787024" lon="1.6675957"><ele>307.33333333333337</ele><time>2026-04-19T08:43:55.032Z</time></trkpt><trkpt lat="41.5785825" lon="1.6674564"><ele>308.0</ele><time>2026-04-19T08:43:56.031Z</time></trkpt><trkpt lat="41.578454" lon="1.6673093"><ele>307.33333333333337</ele><time>2026-04-19T08:43:57.031Z</time></trkpt><trkpt lat="41.5783234" lon="1.6671476"><ele>306.6666666666667</ele><time>2026-04-19T08:43:58.032Z</time></trkpt><trkpt lat="41.5781875" lon="1.6669797"><ele>306.0</ele><time>2026-04-19T08:43:59.032Z</time></trkpt><trkpt lat="41.5780538" lon="1.6668122"><ele>306.0</ele><time>2026-04-19T08:44:00.031Z</time></trkpt><trkpt lat="41.5779169" lon="1.6666431"><ele>306.0</ele><time>2026-04-19T08:44:01.032Z</time></trkpt><trkpt lat="41.5777814" lon="1.6664743"><ele>306.0</ele><time>2026-04-19T08:44:02.031Z</time></trkpt><trkpt lat="41.5776425" lon="1.6662996"><ele>305.6666666666667</ele><time>2026-04-19T08:44:03.032Z</time></trkpt><trkpt lat="41.5775001" lon="1.6661254"><ele>305.33333333333337</ele><time>2026-04-19T08:44:04.032Z</time></trkpt><trkpt lat="41.5773566" lon="1.6659472"><ele>305.0</ele><time>2026-04-19T08:44:05.032Z</time></trkpt><trkpt lat="41.5772083" lon="1.665765"><ele>305.0</ele><time>2026-04-19T08:44:06.032Z</time></trkpt><trkpt lat="41.5770546" lon="1.6655782"><ele>305.0</ele><time>2026-04-19T08:44:07.032Z</time></trkpt><trkpt lat="41.5769042" lon="1.6653922"><ele>305.0</ele><time>2026-04-19T08:44:08.031Z</time></trkpt><trkpt lat="41.5767532" lon="1.6652013"><ele>303.33333333333337</ele><time>2026-04-19T08:44:09.031Z</time></trkpt><trkpt lat="41.576603" lon="1.6650073"><ele>301.6666666666667</ele><time>2026-04-19T08:44:10.032Z</time></trkpt><trkpt lat="41.576455" lon="1.6647997"><ele>300.0</ele><time>2026-04-19T08:44:11.032Z</time></trkpt><trkpt lat="41.5763105" lon="1.6645917"><ele>299.5</ele><time>2026-04-19T08:44:12.032Z</time></trkpt><trkpt lat="41.5761581" lon="1.6643687"><ele>299.0</ele><time>2026-04-19T08:44:13.032Z</time></trkpt><trkpt lat="41.5759981" lon="1.6641249"><ele>299.0</ele><time>2026-04-19T08:44:14.031Z</time></trkpt><trkpt lat="41.5758388" lon="1.6638747"><ele>299.0</ele><time>2026-04-19T08:44:15.032Z</time></trkpt><trkpt lat="41.5756862" lon="1.6636267"><ele>299.5</ele><time>2026-04-19T08:44:16.032Z</time></trkpt><trkpt lat="41.5755403" lon="1.6633696"><ele>300.0</ele><time>2026-04-19T08:44:17.032Z</time></trkpt><trkpt lat="41.5754007" lon="1.6631136"><ele>298.5</ele><time>2026-04-19T08:44:18.031Z</time></trkpt><trkpt lat="41.5752636" lon="1.6628496"><ele>297.0</ele><time>2026-04-19T08:44:19.032Z</time></trkpt><trkpt lat="41.5751264" lon="1.6625784"><ele>297.0</ele><time>2026-04-19T08:44:20.031Z</time></trkpt><trkpt lat="41.5749939" lon="1.6623009"><ele>297.0</ele><time>2026-04-19T08:44:21.032Z</time></trkpt><trkpt lat="41.5748681" lon="1.6620148"><ele>299.0</ele><time>2026-04-19T08:44:22.032Z</time></trkpt><trkpt lat="41.5747462" lon="1.6617241"><ele>301.0</ele><time>2026-04-19T08:44:23.032Z</time></trkpt><trkpt lat="41.5746284" lon="1.6614295"><ele>300.5</ele><time>2026-04-19T08:44:24.032Z</time></trkpt><trkpt lat="41.574514" lon="1.6611268"><ele>300.0</ele><time>2026-04-19T08:44:25.032Z</time></trkpt><trkpt lat="41.5744037" lon="1.6608188"><ele>301.0</ele><time>2026-04-19T08:44:26.031Z</time></trkpt><trkpt lat="41.5742999" lon="1.6605116"><ele>302.0</ele><time>2026-04-19T08:44:27.032Z</time></trkpt><trkpt lat="41.5742039" lon="1.660207"><ele>303.5</ele><time>2026-04-19T08:44:28.032Z</time></trkpt><trkpt lat="41.5741107" lon="1.6599"><ele>305.0</ele><time>2026-04-19T08:44:29.032Z</time></trkpt><trkpt lat="41.5740207" lon="1.6595868"><ele>305.5</ele><time>2026-04-19T08:44:30.032Z</time></trkpt><trkpt lat="41.573935" lon="1.6592627"><ele>306.0</ele><time>2026-04-19T08:44:31.032Z</time></trkpt><trkpt lat="41.5738598" lon="1.6589419"><ele>306.0</ele><time>2026-04-19T08:44:32.032Z</time></trkpt><trkpt lat="41.5737858" lon="1.6586204"><ele>306.0</ele><time>2026-04-19T08:44:33.032Z</time></trkpt><trkpt lat="41.5737161" lon="1.6582884"><ele>306.0</ele><time>2026-04-19T08:44:34.031Z</time></trkpt><trkpt lat="41.5736537" lon="1.6579531"><ele>306.0</ele><time>2026-04-19T08:44:35.032Z</time></trkpt><trkpt lat="41.5735939" lon="1.6576118"><ele>306.0</ele><time>2026-04-19T08:44:36.032Z</time></trkpt><trkpt lat="41.5735344" lon="1.6572673"><ele>306.0</ele><time>2026-04-19T08:44:37.032Z</time></trkpt><trkpt lat="41.5734723" lon="1.6569237"><ele>309.5</ele><time>2026-04-19T08:44:38.031Z</time></trkpt><trkpt lat="41.5734123" lon="1.6565732"><ele>313.0</ele><time>2026-04-19T08:44:39.032Z</time></trkpt><trkpt lat="41.5733547" lon="1.6562267"><ele>316.5</ele><time>2026-04-19T08:44:40.032Z</time></trkpt><trkpt lat="41.5732958" lon="1.6558838"><ele>320.0</ele><time>2026-04-19T08:44:41.032Z</time></trkpt><trkpt lat="41.5732364" lon="1.6555362"><ele>321.5</ele><time>2026-04-19T08:44:42.031Z</time></trkpt><trkpt lat="41.5731802" lon="1.6551805"><ele>323.0</ele><time>2026-04-19T08:44:43.032Z</time></trkpt><trkpt lat="41.5731199" lon="1.6548288"><ele>323.0</ele><time>2026-04-19T08:44:44.032Z</time></trkpt><trkpt lat="41.5730585" lon="1.6544886"><ele>323.0</ele><time>2026-04-19T08:44:45.032Z</time></trkpt><trkpt lat="41.5729896" lon="1.6541539"><ele>323.0</ele><time>2026-04-19T08:44:46.031Z</time></trkpt><trkpt lat="41.5729032" lon="1.6538218"><ele>323.0</ele><time>2026-04-19T08:44:47.031Z</time></trkpt><trkpt lat="41.5728008" lon="1.6534943"><ele>323.5</ele><time>2026-04-19T08:44:48.032Z</time></trkpt><trkpt lat="41.5726897" lon="1.6531858"><ele>324.0</ele><time>2026-04-19T08:44:49.032Z</time></trkpt><trkpt lat="41.5725613" lon="1.6529042"><ele>322.0</ele><time>2026-04-19T08:44:50.032Z</time></trkpt><trkpt lat="41.5724317" lon="1.6526352"><ele>320.0</ele><time>2026-04-19T08:44:51.032Z</time></trkpt><trkpt lat="41.5723004" lon="1.6523843"><ele>320.0</ele><time>2026-04-19T08:44:52.032Z</time></trkpt><trkpt lat="41.5721658" lon="1.6521498"><ele>320.0</ele><time>2026-04-19T08:44:53.031Z</time></trkpt><trkpt lat="41.5720273" lon="1.6519319"><ele>320.0</ele><time>2026-04-19T08:44:54.031Z</time></trkpt><trkpt lat="41.5718879" lon="1.6517232"><ele>318.6666666666667</ele><time>2026-04-19T08:44:55.032Z</time></trkpt><trkpt lat="41.5717377" lon="1.6515246"><ele>317.3333333333333</ele><time>2026-04-19T08:44:56.032Z</time></trkpt><trkpt lat="41.5715735" lon="1.6513345"><ele>316.0</ele><time>2026-04-19T08:44:57.031Z</time></trkpt><trkpt lat="41.5714013" lon="1.6511532"><ele>314.5</ele><time>2026-04-19T08:44:58.031Z</time></trkpt><trkpt lat="41.5712221" lon="1.6509788"><ele>313.0</ele><time>2026-04-19T08:44:59.032Z</time></trkpt><trkpt lat="41.5710327" lon="1.6508014"><ele>309.0</ele><time>2026-04-19T08:45:00.032Z</time></trkpt><trkpt lat="41.5708414" lon="1.650619"><ele>305.0</ele><time>2026-04-19T08:45:01.032Z</time></trkpt><trkpt lat="41.5706455" lon="1.6504354"><ele>305.5</ele><time>2026-04-19T08:45:02.031Z</time></trkpt><trkpt lat="41.570454" lon="1.6502552"><ele>306.0</ele><time>2026-04-19T08:45:03.032Z</time></trkpt><trkpt lat="41.5702612" lon="1.6500724"><ele>304.0</ele><time>2026-04-19T08:45:04.031Z</time></trkpt><trkpt lat="41.5700662" lon="1.6498908"><ele>302.0</ele><time>2026-04-19T08:45:05.032Z</time></trkpt><trkpt lat="41.5698787" lon="1.6497032"><ele>302.0</ele><time>2026-04-19T08:45:06.031Z</time></trkpt><trkpt lat="41.5696852" lon="1.6495225"><ele>302.0</ele><time>2026-04-19T08:45:07.031Z</time></trkpt><trkpt lat="41.5694854" lon="1.649341"><ele>299.5</ele><time>2026-04-19T08:45:08.032Z</time></trkpt><trkpt lat="41.5692849" lon="1.6491575"><ele>297.0</ele><time>2026-04-19T08:45:09.032Z</time></trkpt><trkpt lat="41.5690798" lon="1.6489706"><ele>297.0</ele><time>2026-04-19T08:45:10.032Z</time></trkpt><trkpt lat="41.5688593" lon="1.6487833"><ele>297.0</ele><time>2026-04-19T08:45:11.032Z</time></trkpt><trkpt lat="41.5686366" lon="1.6485824"><ele>294.5</ele><time>2026-04-19T08:45:12.032Z</time></trkpt><trkpt lat="41.5684124" lon="1.6483765"><ele>292.0</ele><time>2026-04-19T08:45:13.031Z</time></trkpt><trkpt lat="41.5681866" lon="1.648171"><ele>292.0</ele><time>2026-04-19T08:45:14.031Z</time></trkpt><trkpt lat="41.5679658" lon="1.6479629"><ele>292.0</ele><time>2026-04-19T08:45:15.031Z</time></trkpt><trkpt lat="41.5677445" lon="1.6477548"><ele>291.5</ele><time>2026-04-19T08:45:16.032Z</time></trkpt><trkpt lat="41.567514" lon="1.6475427"><ele>291.0</ele><time>2026-04-19T08:45:17.032Z</time></trkpt><trkpt lat="41.5672788" lon="1.6473304"><ele>291.0</ele><time>2026-04-19T08:45:18.032Z</time></trkpt><trkpt lat="41.5670419" lon="1.647113"><ele>291.0</ele><time>2026-04-19T08:45:19.032Z</time></trkpt><trkpt lat="41.566812" lon="1.6468983"><ele>292.0</ele><time>2026-04-19T08:45:20.032Z</time></trkpt><trkpt lat="41.5665897" lon="1.6466896"><ele>293.0</ele><time>2026-04-19T08:45:21.032Z</time></trkpt><trkpt lat="41.5663779" lon="1.6464949"><ele>291.5</ele><time>2026-04-19T08:45:22.031Z</time></trkpt><trkpt lat="41.5661734" lon="1.6462998"><ele>290.0</ele><time>2026-04-19T08:45:23.031Z</time></trkpt><trkpt lat="41.5659673" lon="1.6461136"><ele>290.0</ele><time>2026-04-19T08:45:24.032Z</time></trkpt><trkpt lat="41.5657692" lon="1.64593"><ele>290.0</ele><time>2026-04-19T08:45:25.032Z</time></trkpt><trkpt lat="41.5655787" lon="1.6457464"><ele>290.0</ele><time>2026-04-19T08:45:26.032Z</time></trkpt><trkpt lat="41.5653853" lon="1.6455757"><ele>290.0</ele><time>2026-04-19T08:45:27.031Z</time></trkpt><trkpt lat="41.5652" lon="1.6454053"><ele>288.5</ele><time>2026-04-19T08:45:28.032Z</time></trkpt><trkpt lat="41.5650116" lon="1.6452216"><ele>287.0</ele><time>2026-04-19T08:45:29.032Z</time></trkpt><trkpt lat="41.5648222" lon="1.6450254"><ele>287.0</ele><time>2026-04-19T08:45:30.032Z</time></trkpt><trkpt lat="41.5646485" lon="1.6448055"><ele>287.0</ele><time>2026-04-19T08:45:31.032Z</time></trkpt><trkpt lat="41.5644814" lon="1.644571"><ele>286.0</ele><time>2026-04-19T08:45:32.032Z</time></trkpt><trkpt lat="41.5643232" lon="1.6443182"><ele>285.0</ele><time>2026-04-19T08:45:33.032Z</time></trkpt><trkpt lat="41.5641726" lon="1.6440602"><ele>285.0</ele><time>2026-04-19T08:45:34.032Z</time></trkpt><trkpt lat="41.564028" lon="1.6437935"><ele>285.0</ele><time>2026-04-19T08:45:35.031Z</time></trkpt><trkpt lat="41.5638924" lon="1.6435159"><ele>285.5</ele><time>2026-04-19T08:45:36.031Z</time></trkpt><trkpt lat="41.5637642" lon="1.6432293"><ele>286.0</ele><time>2026-04-19T08:45:37.031Z</time></trkpt><trkpt lat="41.5636401" lon="1.6429369"><ele>285.5</ele><time>2026-04-19T08:45:38.031Z</time></trkpt><trkpt lat="41.5635114" lon="1.6426392"><ele>285.0</ele><time>2026-04-19T08:45:39.032Z</time></trkpt><trkpt lat="41.5633818" lon="1.6423273"><ele>285.0</ele><time>2026-04-19T08:45:40.032Z</time></trkpt><trkpt lat="41.5632416" lon="1.6420094"><ele>285.0</ele><time>2026-04-19T08:45:41.032Z</time></trkpt><trkpt lat="41.5631002" lon="1.6416835"><ele>284.5</ele><time>2026-04-19T08:45:42.031Z</time></trkpt><trkpt lat="41.5629515" lon="1.6413481"><ele>284.0</ele><time>2026-04-19T08:45:43.032Z</time></trkpt><trkpt lat="41.5628093" lon="1.6410138"><ele>289.0</ele><time>2026-04-19T08:45:44.031Z</time></trkpt><trkpt lat="41.562675" lon="1.6406964"><ele>294.0</ele><time>2026-04-19T08:45:45.031Z</time></trkpt><trkpt lat="41.5625521" lon="1.6403966"><ele>295.5</ele><time>2026-04-19T08:45:46.032Z</time></trkpt><trkpt lat="41.5624323" lon="1.640112"><ele>297.0</ele><time>2026-04-19T08:45:47.031Z</time></trkpt><trkpt lat="41.5623179" lon="1.6398433"><ele>297.0</ele><time>2026-04-19T08:45:48.032Z</time></trkpt><trkpt lat="41.5622115" lon="1.6395812"><ele>297.0</ele><time>2026-04-19T08:45:49.032Z</time></trkpt><trkpt lat="41.562113" lon="1.6393105"><ele>297.0</ele><time>2026-04-19T08:45:50.031Z</time></trkpt><trkpt lat="41.5620217" lon="1.6390265"><ele>304.5</ele><time>2026-04-19T08:45:51.032Z</time></trkpt><trkpt lat="41.5619453" lon="1.6387303"><ele>312.0</ele><time>2026-04-19T08:45:52.032Z</time></trkpt><trkpt lat="41.5618817" lon="1.6384221"><ele>313.5</ele><time>2026-04-19T08:45:53.031Z</time></trkpt><trkpt lat="41.5618365" lon="1.6380999"><ele>315.0</ele><time>2026-04-19T08:45:54.032Z</time></trkpt><trkpt lat="41.5618011" lon="1.6377705"><ele>319.0</ele><time>2026-04-19T08:45:55.032Z</time></trkpt><trkpt lat="41.5617811" lon="1.6374385"><ele>323.0</ele><time>2026-04-19T08:45:56.032Z</time></trkpt><trkpt lat="41.561779" lon="1.6371094"><ele>324.0</ele><time>2026-04-19T08:45:57.032Z</time></trkpt><trkpt lat="41.561795" lon="1.6367835"><ele>325.0</ele><time>2026-04-19T08:45:58.031Z</time></trkpt><trkpt lat="41.5618313" lon="1.6364614"><ele>325.0</ele><time>2026-04-19T08:45:59.032Z</time></trkpt><trkpt lat="41.5618807" lon="1.6361415"><ele>325.0</ele><time>2026-04-19T08:46:00.031Z</time></trkpt><trkpt lat="41.5619466" lon="1.635823"><ele>325.5</ele><time>2026-04-19T08:46:01.032Z</time></trkpt><trkpt lat="41.5620293" lon="1.6355123"><ele>326.0</ele><time>2026-04-19T08:46:02.032Z</time></trkpt><trkpt lat="41.5621273" lon="1.6352145"><ele>327.0</ele><time>2026-04-19T08:46:03.031Z</time></trkpt><trkpt lat="41.5622403" lon="1.6349314"><ele>328.0</ele><time>2026-04-19T08:46:04.032Z</time></trkpt><trkpt lat="41.562368" lon="1.6346529"><ele>323.5</ele><time>2026-04-19T08:46:05.031Z</time></trkpt><trkpt lat="41.5625093" lon="1.6343838"><ele>319.0</ele><time>2026-04-19T08:46:06.031Z</time></trkpt><trkpt lat="41.5626648" lon="1.6341253"><ele>319.0</ele><time>2026-04-19T08:46:07.032Z</time></trkpt><trkpt lat="41.5628303" lon="1.6338779"><ele>319.0</ele><time>2026-04-19T08:46:08.032Z</time></trkpt><trkpt lat="41.5630038" lon="1.633642"><ele>318.0</ele><time>2026-04-19T08:46:09.032Z</time></trkpt><trkpt lat="41.5631754" lon="1.6334012"><ele>317.0</ele><time>2026-04-19T08:46:10.031Z</time></trkpt><trkpt lat="41.5633468" lon="1.6331596"><ele>317.0</ele><time>2026-04-19T08:46:11.032Z</time></trkpt><trkpt lat="41.5635216" lon="1.6329088"><ele>317.0</ele><time>2026-04-19T08:46:12.032Z</time></trkpt><trkpt lat="41.5637002" lon="1.6326369"><ele>314.5</ele><time>2026-04-19T08:46:13.032Z</time></trkpt><trkpt lat="41.5638782" lon="1.6323487"><ele>312.0</ele><time>2026-04-19T08:46:14.032Z</time></trkpt><trkpt lat="41.564048" lon="1.6320393"><ele>310.5</ele><time>2026-04-19T08:46:15.032Z</time></trkpt><trkpt lat="41.5642069" lon="1.6317183"><ele>309.0</ele><time>2026-04-19T08:46:16.031Z</time></trkpt><trkpt lat="41.564355" lon="1.6313895"><ele>307.5</ele><time>2026-04-19T08:46:17.032Z</time></trkpt><trkpt lat="41.5644927" lon="1.6310495"><ele>306.0</ele><time>2026-04-19T08:46:18.031Z</time></trkpt><trkpt lat="41.5646205" lon="1.6307066"><ele>306.5</ele><time>2026-04-19T08:46:19.031Z</time></trkpt><trkpt lat="41.5647449" lon="1.6303603"><ele>307.0</ele><time>2026-04-19T08:46:20.031Z</time></trkpt><trkpt lat="41.5648723" lon="1.6300171"><ele>307.0</ele><time>2026-04-19T08:46:21.031Z</time></trkpt><trkpt lat="41.5650041" lon="1.6296717"><ele>307.0</ele><time>2026-04-19T08:46:22.032Z</time></trkpt><trkpt lat="41.5651289" lon="1.6293267"><ele>307.5</ele><time>2026-04-19T08:46:23.032Z</time></trkpt><trkpt lat="41.5652551" lon="1.6289786"><ele>308.0</ele><time>2026-04-19T08:46:24.031Z</time></trkpt><trkpt lat="41.5653822" lon="1.6286299"><ele>308.0</ele><time>2026-04-19T08:46:25.032Z</time></trkpt><trkpt lat="41.5655105" lon="1.6282796"><ele>308.0</ele><time>2026-04-19T08:46:26.032Z</time></trkpt><trkpt lat="41.5656365" lon="1.6279245"><ele>310.0</ele><time>2026-04-19T08:46:27.032Z</time></trkpt><trkpt lat="41.5657633" lon="1.6275695"><ele>312.0</ele><time>2026-04-19T08:46:28.032Z</time></trkpt><trkpt lat="41.5658938" lon="1.6272168"><ele>314.5</ele><time>2026-04-19T08:46:29.032Z</time></trkpt><trkpt lat="41.5660278" lon="1.6268609"><ele>317.0</ele><time>2026-04-19T08:46:30.032Z</time></trkpt><trkpt lat="41.5661609" lon="1.6265038"><ele>316.5</ele><time>2026-04-19T08:46:31.032Z</time></trkpt><trkpt lat="41.5662929" lon="1.6261451"><ele>316.0</ele><time>2026-04-19T08:46:32.032Z</time></trkpt><trkpt lat="41.5664202" lon="1.62579"><ele>316.0</ele><time>2026-04-19T08:46:33.031Z</time></trkpt><trkpt lat="41.5665487" lon="1.6254401"><ele>316.0</ele><time>2026-04-19T08:46:34.032Z</time></trkpt><trkpt lat="41.5666765" lon="1.6250888"><ele>314.5</ele><time>2026-04-19T08:46:35.031Z</time></trkpt><trkpt lat="41.566804" lon="1.6247399"><ele>313.0</ele><time>2026-04-19T08:46:36.032Z</time></trkpt><trkpt lat="41.5669305" lon="1.6244005"><ele>315.5</ele><time>2026-04-19T08:46:37.031Z</time></trkpt><trkpt lat="41.5670489" lon="1.6240711"><ele>318.0</ele><time>2026-04-19T08:46:38.032Z</time></trkpt><trkpt lat="41.5671674" lon="1.6237528"><ele>318.5</ele><time>2026-04-19T08:46:39.031Z</time></trkpt><trkpt lat="41.567282" lon="1.623447"><ele>319.0</ele><time>2026-04-19T08:46:40.032Z</time></trkpt><trkpt lat="41.567388" lon="1.6231532"><ele>319.0</ele><time>2026-04-19T08:46:41.032Z</time></trkpt><trkpt lat="41.5674926" lon="1.6228617"><ele>319.0</ele><time>2026-04-19T08:46:42.031Z</time></trkpt><trkpt lat="41.5675971" lon="1.6225729"><ele>321.5</ele><time>2026-04-19T08:46:43.031Z</time></trkpt><trkpt lat="41.5676922" lon="1.6222862"><ele>324.0</ele><time>2026-04-19T08:46:44.031Z</time></trkpt><trkpt lat="41.5677806" lon="1.6219918"><ele>323.5</ele><time>2026-04-19T08:46:45.031Z</time></trkpt><trkpt lat="41.5678622" lon="1.6216916"><ele>323.0</ele><time>2026-04-19T08:46:46.031Z</time></trkpt><trkpt lat="41.5679356" lon="1.6213852"><ele>325.0</ele><time>2026-04-19T08:46:47.032Z</time></trkpt><trkpt lat="41.5679999" lon="1.6210712"><ele>327.0</ele><time>2026-04-19T08:46:48.032Z</time></trkpt><trkpt lat="41.5680579" lon="1.6207581"><ele>327.0</ele><time>2026-04-19T08:46:49.031Z</time></trkpt><trkpt lat="41.5681085" lon="1.6204316"><ele>327.0</ele><time>2026-04-19T08:46:50.031Z</time></trkpt><trkpt lat="41.568151" lon="1.620098"><ele>329.5</ele><time>2026-04-19T08:46:51.032Z</time></trkpt><trkpt lat="41.5681802" lon="1.6197589"><ele>332.0</ele><time>2026-04-19T08:46:52.031Z</time></trkpt><trkpt lat="41.5682017" lon="1.6194276"><ele>332.5</ele><time>2026-04-19T08:46:53.031Z</time></trkpt><trkpt lat="41.5682133" lon="1.6190973"><ele>333.0</ele><time>2026-04-19T08:46:54.031Z</time></trkpt><trkpt lat="41.5682126" lon="1.6187798"><ele>335.0</ele><time>2026-04-19T08:46:55.031Z</time></trkpt><trkpt lat="41.5682042" lon="1.6184817"><ele>337.0</ele><time>2026-04-19T08:46:56.031Z</time></trkpt><trkpt lat="41.5681916" lon="1.6182044"><ele>339.0</ele><time>2026-04-19T08:46:57.032Z</time></trkpt><trkpt lat="41.5681714" lon="1.6179425"><ele>340.3333333333333</ele><time>2026-04-19T08:46:58.032Z</time></trkpt><trkpt lat="41.5681479" lon="1.6176897"><ele>341.66666666666663</ele><time>2026-04-19T08:46:59.032Z</time></trkpt><trkpt lat="41.5681209" lon="1.6174404"><ele>343.0</ele><time>2026-04-19T08:47:00.032Z</time></trkpt><trkpt lat="41.5680938" lon="1.6171853"><ele>342.66666666666663</ele><time>2026-04-19T08:47:01.032Z</time></trkpt><trkpt lat="41.5680655" lon="1.61693"><ele>342.3333333333333</ele><time>2026-04-19T08:47:02.032Z</time></trkpt><trkpt lat="41.5680331" lon="1.6166803"><ele>342.0</ele><time>2026-04-19T08:47:03.032Z</time></trkpt><trkpt lat="41.5680054" lon="1.6164346"><ele>342.0</ele><time>2026-04-19T08:47:04.031Z</time></trkpt><trkpt lat="41.5679862" lon="1.61619"><ele>342.0</ele><time>2026-04-19T08:47:05.031Z</time></trkpt><trkpt lat="41.567975" lon="1.6159457"><ele>342.0</ele><time>2026-04-19T08:47:06.032Z</time></trkpt><trkpt lat="41.5679704" lon="1.6156939"><ele>340.3333333333333</ele><time>2026-04-19T08:47:07.032Z</time></trkpt><trkpt lat="41.5679747" lon="1.6154481"><ele>338.66666666666663</ele><time>2026-04-19T08:47:08.031Z</time></trkpt><trkpt lat="41.5679846" lon="1.6151988"><ele>337.0</ele><time>2026-04-19T08:47:09.032Z</time></trkpt><trkpt lat="41.5680027" lon="1.6149534"><ele>336.66666666666663</ele><time>2026-04-19T08:47:10.031Z</time></trkpt><trkpt lat="41.5680288" lon="1.6147092"><ele>336.3333333333333</ele><time>2026-04-19T08:47:11.032Z</time></trkpt><trkpt lat="41.5680696" lon="1.6144719"><ele>336.0</ele><time>2026-04-19T08:47:12.032Z</time></trkpt><trkpt lat="41.5681094" lon="1.6142515"><ele>336.0</ele><time>2026-04-19T08:47:13.031Z</time></trkpt><trkpt lat="41.5681485" lon="1.6140416"><ele>336.0</ele><time>2026-04-19T08:47:14.032Z</time></trkpt><trkpt lat="41.5681895" lon="1.6138419"><ele>336.0</ele><time>2026-04-19T08:47:15.031Z</time></trkpt><trkpt lat="41.5682345" lon="1.6136534"><ele>339.3333333333333</ele><time>2026-04-19T08:47:16.032Z</time></trkpt><trkpt lat="41.5682774" lon="1.6134672"><ele>342.66666666666663</ele><time>2026-04-19T08:47:17.031Z</time></trkpt><trkpt lat="41.5683137" lon="1.613273"><ele>346.0</ele><time>2026-04-19T08:47:18.032Z</time></trkpt><trkpt lat="41.5683501" lon="1.6130729"><ele>346.0</ele><time>2026-04-19T08:47:19.032Z</time></trkpt><trkpt lat="41.5683835" lon="1.6128638"><ele>346.0</ele><time>2026-04-19T08:47:20.031Z</time></trkpt><trkpt lat="41.5684117" lon="1.6126322"><ele>346.0</ele><time>2026-04-19T08:47:21.032Z</time></trkpt><trkpt lat="41.5684247" lon="1.6123905"><ele>348.66666666666663</ele><time>2026-04-19T08:47:22.032Z</time></trkpt><trkpt lat="41.5684365" lon="1.6121489"><ele>351.3333333333333</ele><time>2026-04-19T08:47:23.031Z</time></trkpt><trkpt lat="41.5684452" lon="1.6119161"><ele>354.0</ele><time>2026-04-19T08:47:24.031Z</time></trkpt><trkpt lat="41.5684515" lon="1.6116982"><ele>354.0</ele><time>2026-04-19T08:47:25.032Z</time></trkpt><trkpt lat="41.5684631" lon="1.6114881"><ele>354.0</ele><time>2026-04-19T08:47:26.032Z</time></trkpt><trkpt lat="41.5684745" lon="1.6112951"><ele>354.0</ele><time>2026-04-19T08:47:27.032Z</time></trkpt><trkpt lat="41.5684803" lon="1.6111278"><ele>354.0</ele><time>2026-04-19T08:47:28.031Z</time></trkpt><trkpt lat="41.5684874" lon="1.6109691"><ele>352.25</ele><time>2026-04-19T08:47:29.032Z</time></trkpt><trkpt lat="41.568496" lon="1.610806"><ele>350.5</ele><time>2026-04-19T08:47:30.032Z</time></trkpt><trkpt lat="41.568506" lon="1.610636"><ele>348.75</ele><time>2026-04-19T08:47:31.032Z</time></trkpt><trkpt lat="41.5685145" lon="1.6104574"><ele>347.0</ele><time>2026-04-19T08:47:32.032Z</time></trkpt><trkpt lat="41.5685242" lon="1.6102739"><ele>346.20000000000005</ele><time>2026-04-19T08:47:33.032Z</time></trkpt><trkpt lat="41.5685312" lon="1.6100976"><ele>345.4</ele><time>2026-04-19T08:47:34.032Z</time></trkpt><trkpt lat="41.5685398" lon="1.609934"><ele>344.6</ele><time>2026-04-19T08:47:35.032Z</time></trkpt><trkpt lat="41.5685495" lon="1.6097926"><ele>343.79999999999995</ele><time>2026-04-19T08:47:36.031Z</time></trkpt><trkpt lat="41.5685573" lon="1.6096817"><ele>343.0</ele><time>2026-04-19T08:47:37.032Z</time></trkpt><trkpt lat="41.5685633" lon="1.6095966"><ele>343.2</ele><time>2026-04-19T08:47:38.032Z</time></trkpt><trkpt lat="41.568594" lon="1.6094233"><ele>343.4</ele><time>2026-04-19T08:47:40.031Z</time></trkpt><trkpt lat="41.5686304" lon="1.609318"><ele>343.59999999999997</ele><time>2026-04-19T08:47:41.031Z</time></trkpt><trkpt lat="41.5686654" lon="1.6091951"><ele>343.79999999999995</ele><time>2026-04-19T08:47:42.031Z</time></trkpt><trkpt lat="41.5686858" lon="1.6090637"><ele>344.0</ele><time>2026-04-19T08:47:43.032Z</time></trkpt><trkpt lat="41.5686844" lon="1.6089207"><ele>344.0</ele><time>2026-04-19T08:47:44.031Z</time></trkpt><trkpt lat="41.5686552" lon="1.6087813"><ele>344.0</ele><time>2026-04-19T08:47:45.032Z</time></trkpt><trkpt lat="41.5686016" lon="1.6086531"><ele>344.0</ele><time>2026-04-19T08:47:46.032Z</time></trkpt><trkpt lat="41.5685222" lon="1.6085486"><ele>344.0</ele><time>2026-04-19T08:47:47.032Z</time></trkpt><trkpt lat="41.5684281" lon="1.6084788"><ele>344.0</ele><time>2026-04-19T08:47:48.032Z</time></trkpt><trkpt lat="41.5683241" lon="1.6084421"><ele>344.0</ele><time>2026-04-19T08:47:49.032Z</time></trkpt><trkpt lat="41.5682175" lon="1.6084433"><ele>344.0</ele><time>2026-04-19T08:47:50.031Z</time></trkpt><trkpt lat="41.5681165" lon="1.6084841"><ele>344.0</ele><time>2026-04-19T08:47:51.032Z</time></trkpt><trkpt lat="41.568027" lon="1.6085504"><ele>344.0</ele><time>2026-04-19T08:47:52.031Z</time></trkpt><trkpt lat="41.5679526" lon="1.6086406"><ele>344.0</ele><time>2026-04-19T08:47:53.032Z</time></trkpt><trkpt lat="41.567897" lon="1.6087475"><ele>344.0</ele><time>2026-04-19T08:47:54.032Z</time></trkpt><trkpt lat="41.5678633" lon="1.6088713"><ele>344.0</ele><time>2026-04-19T08:47:55.032Z</time></trkpt><trkpt lat="41.5678404" lon="1.6089907"><ele>344.0</ele><time>2026-04-19T08:47:56.032Z</time></trkpt><trkpt lat="41.5678032" lon="1.6090968"><ele>344.0</ele><time>2026-04-19T08:47:57.031Z</time></trkpt><trkpt lat="41.5677433" lon="1.6091748"><ele>344.0</ele><time>2026-04-19T08:47:58.032Z</time></trkpt><trkpt lat="41.5676623" lon="1.6092385"><ele>344.5</ele><time>2026-04-19T08:47:59.031Z</time></trkpt><trkpt lat="41.5675586" lon="1.6092209"><ele>345.0</ele><time>2026-04-19T08:48:00.031Z</time></trkpt><trkpt lat="41.5674485" lon="1.609185"><ele>345.5</ele><time>2026-04-19T08:48:01.032Z</time></trkpt><trkpt lat="41.5673244" lon="1.6091498"><ele>346.0</ele><time>2026-04-19T08:48:02.031Z</time></trkpt><trkpt lat="41.5671905" lon="1.6091327"><ele>346.0</ele><time>2026-04-19T08:48:03.032Z</time></trkpt><trkpt lat="41.5670509" lon="1.609148"><ele>346.0</ele><time>2026-04-19T08:48:04.032Z</time></trkpt><trkpt lat="41.5669118" lon="1.609164"><ele>346.0</ele><time>2026-04-19T08:48:05.032Z</time></trkpt><trkpt lat="41.5667766" lon="1.6091781"><ele>346.0</ele><time>2026-04-19T08:48:06.031Z</time></trkpt><trkpt lat="41.5666466" lon="1.609195"><ele>347.20000000000005</ele><time>2026-04-19T08:48:07.032Z</time></trkpt><trkpt lat="41.5665235" lon="1.609226"><ele>348.40000000000003</ele><time>2026-04-19T08:48:08.031Z</time></trkpt><trkpt lat="41.5664162" lon="1.6092584"><ele>349.6</ele><time>2026-04-19T08:48:09.031Z</time></trkpt><trkpt lat="41.5663211" lon="1.6092827"><ele>350.8</ele><time>2026-04-19T08:48:10.032Z</time></trkpt><trkpt lat="41.5662298" lon="1.6092959"><ele>352.0</ele><time>2026-04-19T08:48:11.032Z</time></trkpt><trkpt lat="41.566133" lon="1.6092789"><ele>352.6</ele><time>2026-04-19T08:48:12.032Z</time></trkpt><trkpt lat="41.5660327" lon="1.6092406"><ele>353.20000000000005</ele><time>2026-04-19T08:48:13.032Z</time></trkpt><trkpt lat="41.5659345" lon="1.6092357"><ele>353.8</ele><time>2026-04-19T08:48:14.032Z</time></trkpt><trkpt lat="41.5658375" lon="1.609274"><ele>354.4</ele><time>2026-04-19T08:48:15.032Z</time></trkpt><trkpt lat="41.5657354" lon="1.6093292"><ele>355.0</ele><time>2026-04-19T08:48:16.032Z</time></trkpt><trkpt lat="41.5656167" lon="1.6093374"><ele>355.0</ele><time>2026-04-19T08:48:17.031Z</time></trkpt><trkpt lat="41.5654928" lon="1.6093124"><ele>355.0</ele><time>2026-04-19T08:48:18.032Z</time></trkpt><trkpt lat="41.5653625" lon="1.609282"><ele>355.0</ele><time>2026-04-19T08:48:19.031Z</time></trkpt><trkpt lat="41.5652288" lon="1.6092682"><ele>355.0</ele><time>2026-04-19T08:48:20.032Z</time></trkpt><trkpt lat="41.5650845" lon="1.6092796"><ele>356.25</ele><time>2026-04-19T08:48:21.032Z</time></trkpt><trkpt lat="41.5649338" lon="1.6093082"><ele>357.5</ele><time>2026-04-19T08:48:22.031Z</time></trkpt><trkpt lat="41.5647908" lon="1.6093469"><ele>358.75</ele><time>2026-04-19T08:48:23.031Z</time></trkpt><trkpt lat="41.5646511" lon="1.6093854"><ele>360.0</ele><time>2026-04-19T08:48:24.031Z</time></trkpt><trkpt lat="41.5645102" lon="1.6094208"><ele>360.5</ele><time>2026-04-19T08:48:25.032Z</time></trkpt><trkpt lat="41.5643701" lon="1.6094529"><ele>361.0</ele><time>2026-04-19T08:48:26.032Z</time></trkpt><trkpt lat="41.5642295" lon="1.6094783"><ele>361.5</ele><time>2026-04-19T08:48:27.032Z</time></trkpt><trkpt lat="41.5640899" lon="1.6094797"><ele>362.0</ele><time>2026-04-19T08:48:28.031Z</time></trkpt><trkpt lat="41.5639492" lon="1.6094413"><ele>362.0</ele><time>2026-04-19T08:48:29.031Z</time></trkpt><trkpt lat="41.5638095" lon="1.6093777"><ele>362.0</ele><time>2026-04-19T08:48:30.031Z</time></trkpt><trkpt lat="41.5636674" lon="1.6093063"><ele>362.0</ele><time>2026-04-19T08:48:31.032Z</time></trkpt><trkpt lat="41.5635283" lon="1.6092309"><ele>362.0</ele><time>2026-04-19T08:48:32.032Z</time></trkpt><trkpt lat="41.5633895" lon="1.609162"><ele>361.6666666666667</ele><time>2026-04-19T08:48:33.032Z</time></trkpt><trkpt lat="41.5632517" lon="1.6090864"><ele>361.3333333333333</ele><time>2026-04-19T08:48:34.032Z</time></trkpt><trkpt lat="41.5631151" lon="1.6090091"><ele>361.0</ele><time>2026-04-19T08:48:35.032Z</time></trkpt><trkpt lat="41.5629719" lon="1.608928"><ele>362.3333333333333</ele><time>2026-04-19T08:48:36.031Z</time></trkpt><trkpt lat="41.5628237" lon="1.608848"><ele>363.6666666666667</ele><time>2026-04-19T08:48:37.031Z</time></trkpt><trkpt lat="41.5626729" lon="1.6087649"><ele>365.0</ele><time>2026-04-19T08:48:38.031Z</time></trkpt><trkpt lat="41.5625179" lon="1.6086816"><ele>366.0</ele><time>2026-04-19T08:48:39.031Z</time></trkpt><trkpt lat="41.5623615" lon="1.6085952"><ele>367.0</ele><time>2026-04-19T08:48:40.031Z</time></trkpt><trkpt lat="41.5622123" lon="1.6085124"><ele>368.0</ele><time>2026-04-19T08:48:41.032Z</time></trkpt><trkpt lat="41.5620602" lon="1.6084332"><ele>368.0</ele><time>2026-04-19T08:48:42.031Z</time></trkpt><trkpt lat="41.5619054" lon="1.6083512"><ele>368.0</ele><time>2026-04-19T08:48:43.032Z</time></trkpt><trkpt lat="41.5617503" lon="1.6082645"><ele>368.0</ele><time>2026-04-19T08:48:44.032Z</time></trkpt><trkpt lat="41.5615947" lon="1.608178"><ele>368.0</ele><time>2026-04-19T08:48:45.031Z</time></trkpt><trkpt lat="41.5614406" lon="1.6080938"><ele>368.0</ele><time>2026-04-19T08:48:46.032Z</time></trkpt><trkpt lat="41.5612888" lon="1.6080151"><ele>368.0</ele><time>2026-04-19T08:48:47.031Z</time></trkpt><trkpt lat="41.5611425" lon="1.6079358"><ele>368.33333333333337</ele><time>2026-04-19T08:48:48.032Z</time></trkpt><trkpt lat="41.5609951" lon="1.6078628"><ele>368.6666666666667</ele><time>2026-04-19T08:48:49.032Z</time></trkpt><trkpt lat="41.5608468" lon="1.6077837"><ele>369.0</ele><time>2026-04-19T08:48:50.032Z</time></trkpt><trkpt lat="41.5606996" lon="1.607703"><ele>369.6666666666667</ele><time>2026-04-19T08:48:51.031Z</time></trkpt><trkpt lat="41.5605537" lon="1.6076234"><ele>370.33333333333337</ele><time>2026-04-19T08:48:52.032Z</time></trkpt><trkpt lat="41.5604123" lon="1.6075366"><ele>371.0</ele><time>2026-04-19T08:48:53.031Z</time></trkpt><trkpt lat="41.5602802" lon="1.6074251"><ele>371.6666666666667</ele><time>2026-04-19T08:48:54.032Z</time></trkpt><trkpt lat="41.5601634" lon="1.6072804"><ele>372.3333333333333</ele><time>2026-04-19T08:48:55.031Z</time></trkpt><trkpt lat="41.5600573" lon="1.6071269"><ele>373.0</ele><time>2026-04-19T08:48:56.032Z</time></trkpt><trkpt lat="41.5599544" lon="1.6069667"><ele>373.66666666666663</ele><time>2026-04-19T08:48:57.032Z</time></trkpt><trkpt lat="41.5598436" lon="1.6068135"><ele>374.3333333333333</ele><time>2026-04-19T08:48:58.032Z</time></trkpt><trkpt lat="41.5597262" lon="1.6066795"><ele>375.0</ele><time>2026-04-19T08:48:59.031Z</time></trkpt><trkpt lat="41.5596058" lon="1.6065654"><ele>374.5</ele><time>2026-04-19T08:49:00.032Z</time></trkpt><trkpt lat="41.5594802" lon="1.6064637"><ele>374.0</ele><time>2026-04-19T08:49:01.032Z</time></trkpt><trkpt lat="41.5593488" lon="1.6063722"><ele>373.5</ele><time>2026-04-19T08:49:02.031Z</time></trkpt><trkpt lat="41.5592155" lon="1.606285"><ele>373.0</ele><time>2026-04-19T08:49:03.031Z</time></trkpt><trkpt lat="41.5590851" lon="1.6061963"><ele>373.75</ele><time>2026-04-19T08:49:04.031Z</time></trkpt><trkpt lat="41.5589602" lon="1.6061139"><ele>374.5</ele><time>2026-04-19T08:49:05.032Z</time></trkpt><trkpt lat="41.558848" lon="1.6060368"><ele>375.25</ele><time>2026-04-19T08:49:06.031Z</time></trkpt><trkpt lat="41.5587384" lon="1.6059619"><ele>376.0</ele><time>2026-04-19T08:49:07.031Z</time></trkpt><trkpt lat="41.5586253" lon="1.6058861"><ele>376.5</ele><time>2026-04-19T08:49:08.032Z</time></trkpt><trkpt lat="41.5585118" lon="1.6058122"><ele>377.0</ele><time>2026-04-19T08:49:09.032Z</time></trkpt><trkpt lat="41.5583952" lon="1.6057374"><ele>377.5</ele><time>2026-04-19T08:49:10.031Z</time></trkpt><trkpt lat="41.5582811" lon="1.605662"><ele>378.0</ele><time>2026-04-19T08:49:11.031Z</time></trkpt><trkpt lat="41.5581699" lon="1.6055906"><ele>378.0</ele><time>2026-04-19T08:49:12.032Z</time></trkpt><trkpt lat="41.5580658" lon="1.6055195"><ele>378.0</ele><time>2026-04-19T08:49:13.031Z</time></trkpt><trkpt lat="41.5579687" lon="1.605456"><ele>378.0</ele><time>2026-04-19T08:49:14.032Z</time></trkpt><trkpt lat="41.5578795" lon="1.6053921"><ele>378.0</ele><time>2026-04-19T08:49:15.031Z</time></trkpt><trkpt lat="41.5577961" lon="1.6053302"><ele>378.0</ele><time>2026-04-19T08:49:16.031Z</time></trkpt><trkpt lat="41.5577138" lon="1.6052622"><ele>379.59999999999997</ele><time>2026-04-19T08:49:17.031Z</time></trkpt><trkpt lat="41.5576413" lon="1.6051786"><ele>381.2</ele><time>2026-04-19T08:49:18.031Z</time></trkpt><trkpt lat="41.5575826" lon="1.6050747"><ele>382.8</ele><time>2026-04-19T08:49:19.032Z</time></trkpt><trkpt lat="41.5575347" lon="1.604956"><ele>384.4</ele><time>2026-04-19T08:49:20.031Z</time></trkpt><trkpt lat="41.5574971" lon="1.6048316"><ele>386.0</ele><time>2026-04-19T08:49:21.032Z</time></trkpt><trkpt lat="41.5574619" lon="1.6047024"><ele>386.0</ele><time>2026-04-19T08:49:22.032Z</time></trkpt><trkpt lat="41.5574237" lon="1.604567"><ele>386.0</ele><time>2026-04-19T08:49:23.032Z</time></trkpt><trkpt lat="41.5573882" lon="1.6044351"><ele>386.0</ele><time>2026-04-19T08:49:24.031Z</time></trkpt><trkpt lat="41.5573525" lon="1.6042934"><ele>386.0</ele><time>2026-04-19T08:49:25.031Z</time></trkpt><trkpt lat="41.5573179" lon="1.6041532"><ele>386.0</ele><time>2026-04-19T08:49:26.032Z</time></trkpt><trkpt lat="41.5572823" lon="1.6040168"><ele>386.0</ele><time>2026-04-19T08:49:27.031Z</time></trkpt><trkpt lat="41.5572475" lon="1.6038826"><ele>386.0</ele><time>2026-04-19T08:49:28.031Z</time></trkpt><trkpt lat="41.5572111" lon="1.6037509"><ele>386.0</ele><time>2026-04-19T08:49:29.032Z</time></trkpt><trkpt lat="41.5571753" lon="1.603626"><ele>386.0</ele><time>2026-04-19T08:49:30.031Z</time></trkpt><trkpt lat="41.5571418" lon="1.6034986"><ele>386.0</ele><time>2026-04-19T08:49:31.032Z</time></trkpt><trkpt lat="41.557107" lon="1.6033752"><ele>385.8</ele><time>2026-04-19T08:49:32.032Z</time></trkpt><trkpt lat="41.5570703" lon="1.6032504"><ele>385.6</ele><time>2026-04-19T08:49:33.031Z</time></trkpt><trkpt lat="41.5570268" lon="1.603124"><ele>385.4</ele><time>2026-04-19T08:49:34.031Z</time></trkpt><trkpt lat="41.5569736" lon="1.6030109"><ele>385.2</ele><time>2026-04-19T08:49:35.031Z</time></trkpt><trkpt lat="41.5569067" lon="1.6029049"><ele>385.0</ele><time>2026-04-19T08:49:36.031Z</time></trkpt><trkpt lat="41.5568292" lon="1.6028095"><ele>386.0</ele><time>2026-04-19T08:49:37.032Z</time></trkpt><trkpt lat="41.5567438" lon="1.602719"><ele>387.0</ele><time>2026-04-19T08:49:38.032Z</time></trkpt><trkpt lat="41.5566574" lon="1.6026258"><ele>388.0</ele><time>2026-04-19T08:49:39.032Z</time></trkpt><trkpt lat="41.5565684" lon="1.6025318"><ele>389.0</ele><time>2026-04-19T08:49:40.032Z</time></trkpt><trkpt lat="41.5564817" lon="1.6024413"><ele>390.0</ele><time>2026-04-19T08:49:41.031Z</time></trkpt><trkpt lat="41.5563902" lon="1.6023415"><ele>390.0</ele><time>2026-04-19T08:49:42.031Z</time></trkpt><trkpt lat="41.5562995" lon="1.6022371"><ele>390.0</ele><time>2026-04-19T08:49:43.032Z</time></trkpt><trkpt lat="41.556206" lon="1.60214"><ele>390.0</ele><time>2026-04-19T08:49:44.031Z</time></trkpt><trkpt lat="41.5561111" lon="1.6020422"><ele>390.0</ele><time>2026-04-19T08:49:45.031Z</time></trkpt><trkpt lat="41.5560205" lon="1.6019431"><ele>390.5</ele><time>2026-04-19T08:49:46.031Z</time></trkpt><trkpt lat="41.5559262" lon="1.6018435"><ele>391.0</ele><time>2026-04-19T08:49:47.032Z</time></trkpt><trkpt lat="41.5558322" lon="1.601746"><ele>391.5</ele><time>2026-04-19T08:49:48.032Z</time></trkpt><trkpt lat="41.5557403" lon="1.6016451"><ele>392.0</ele><time>2026-04-19T08:49:49.032Z</time></trkpt><trkpt lat="41.5556479" lon="1.6015411"><ele>392.0</ele><time>2026-04-19T08:49:50.031Z</time></trkpt><trkpt lat="41.5555544" lon="1.6014367"><ele>392.0</ele><time>2026-04-19T08:49:51.032Z</time></trkpt><trkpt lat="41.5554599" lon="1.601334"><ele>392.0</ele><time>2026-04-19T08:49:52.032Z</time></trkpt><trkpt lat="41.5553617" lon="1.6012277"><ele>392.0</ele><time>2026-04-19T08:49:53.032Z</time></trkpt><trkpt lat="41.5552621" lon="1.6011232"><ele>392.75</ele><time>2026-04-19T08:49:54.032Z</time></trkpt><trkpt lat="41.5551633" lon="1.6010155"><ele>393.5</ele><time>2026-04-19T08:49:55.031Z</time></trkpt><trkpt lat="41.5550598" lon="1.6009025"><ele>394.25</ele><time>2026-04-19T08:49:56.032Z</time></trkpt><trkpt lat="41.5549511" lon="1.6007848"><ele>395.0</ele><time>2026-04-19T08:49:57.031Z</time></trkpt><trkpt lat="41.5548363" lon="1.6006617"><ele>395.0</ele><time>2026-04-19T08:49:58.032Z</time></trkpt><trkpt lat="41.5547161" lon="1.600535"><ele>395.0</ele><time>2026-04-19T08:49:59.031Z</time></trkpt><trkpt lat="41.5545943" lon="1.6004041"><ele>395.0</ele><time>2026-04-19T08:50:00.032Z</time></trkpt><trkpt lat="41.5544744" lon="1.6002753"><ele>397.0</ele><time>2026-04-19T08:50:01.032Z</time></trkpt><trkpt lat="41.5543555" lon="1.600148"><ele>399.0</ele><time>2026-04-19T08:50:02.032Z</time></trkpt><trkpt lat="41.5542358" lon="1.600026"><ele>401.0</ele><time>2026-04-19T08:50:03.032Z</time></trkpt><trkpt lat="41.5541197" lon="1.5999017"><ele>401.0</ele><time>2026-04-19T08:50:04.032Z</time></trkpt><trkpt lat="41.5540103" lon="1.5997691"><ele>401.0</ele><time>2026-04-19T08:50:05.032Z</time></trkpt><trkpt lat="41.5539059" lon="1.5996265"><ele>401.0</ele><time>2026-04-19T08:50:06.031Z</time></trkpt><trkpt lat="41.5538094" lon="1.5994562"><ele>399.3333333333333</ele><time>2026-04-19T08:50:07.032Z</time></trkpt><trkpt lat="41.5537284" lon="1.5992644"><ele>397.66666666666663</ele><time>2026-04-19T08:50:08.032Z</time></trkpt><trkpt lat="41.5536545" lon="1.5990635"><ele>396.0</ele><time>2026-04-19T08:50:09.032Z</time></trkpt><trkpt lat="41.5535778" lon="1.5988604"><ele>397.33333333333337</ele><time>2026-04-19T08:50:10.032Z</time></trkpt><trkpt lat="41.5534958" lon="1.5986477"><ele>398.6666666666667</ele><time>2026-04-19T08:50:11.032Z</time></trkpt><trkpt lat="41.5534121" lon="1.5984186"><ele>400.0</ele><time>2026-04-19T08:50:12.031Z</time></trkpt><trkpt lat="41.553322" lon="1.5981938"><ele>400.0</ele><time>2026-04-19T08:50:13.032Z</time></trkpt><trkpt lat="41.5532375" lon="1.5979697"><ele>400.0</ele><time>2026-04-19T08:50:14.032Z</time></trkpt><trkpt lat="41.5531495" lon="1.5977331"><ele>400.0</ele><time>2026-04-19T08:50:15.032Z</time></trkpt><trkpt lat="41.5530667" lon="1.5974977"><ele>401.0</ele><time>2026-04-19T08:50:16.032Z</time></trkpt><trkpt lat="41.5529688" lon="1.597282"><ele>402.0</ele><time>2026-04-19T08:50:17.032Z</time></trkpt><trkpt lat="41.5528605" lon="1.5970919"><ele>403.0</ele><time>2026-04-19T08:50:18.031Z</time></trkpt><trkpt lat="41.5527404" lon="1.5969207"><ele>403.33333333333337</ele><time>2026-04-19T08:50:19.031Z</time></trkpt><trkpt lat="41.5526193" lon="1.5967548"><ele>403.66666666666663</ele><time>2026-04-19T08:50:20.032Z</time></trkpt><trkpt lat="41.55251" lon="1.5965944"><ele>404.0</ele><time>2026-04-19T08:50:21.032Z</time></trkpt><trkpt lat="41.55241" lon="1.5964463"><ele>404.0</ele><time>2026-04-19T08:50:22.032Z</time></trkpt><trkpt lat="41.5523095" lon="1.5963056"><ele>404.0</ele><time>2026-04-19T08:50:23.031Z</time></trkpt><trkpt lat="41.5522138" lon="1.5961593"><ele>404.0</ele><time>2026-04-19T08:50:24.032Z</time></trkpt><trkpt lat="41.5521313" lon="1.596008"><ele>404.0</ele><time>2026-04-19T08:50:25.031Z</time></trkpt><trkpt lat="41.5520757" lon="1.5958278"><ele>405.66666666666663</ele><time>2026-04-19T08:50:26.032Z</time></trkpt><trkpt lat="41.5520526" lon="1.5956252"><ele>407.33333333333337</ele><time>2026-04-19T08:50:27.032Z</time></trkpt><trkpt lat="41.5520513" lon="1.5954027"><ele>409.0</ele><time>2026-04-19T08:50:28.032Z</time></trkpt><trkpt lat="41.5520615" lon="1.595164"><ele>411.33333333333337</ele><time>2026-04-19T08:50:29.032Z</time></trkpt><trkpt lat="41.5520712" lon="1.5949193"><ele>413.66666666666663</ele><time>2026-04-19T08:50:30.032Z</time></trkpt><trkpt lat="41.5520693" lon="1.5946768"><ele>416.0</ele><time>2026-04-19T08:50:31.032Z</time></trkpt><trkpt lat="41.5520454" lon="1.5944431"><ele>416.0</ele><time>2026-04-19T08:50:32.032Z</time></trkpt><trkpt lat="41.5519976" lon="1.5942016"><ele>416.0</ele><time>2026-04-19T08:50:33.032Z</time></trkpt><trkpt lat="41.5519337" lon="1.593957"><ele>416.0</ele><time>2026-04-19T08:50:34.031Z</time></trkpt><trkpt lat="41.5518582" lon="1.5937188"><ele>417.66666666666663</ele><time>2026-04-19T08:50:35.032Z</time></trkpt><trkpt lat="41.5517678" lon="1.5934707"><ele>419.33333333333337</ele><time>2026-04-19T08:50:36.032Z</time></trkpt><trkpt lat="41.551671" lon="1.5932191"><ele>421.0</ele><time>2026-04-19T08:50:37.031Z</time></trkpt><trkpt lat="41.5515788" lon="1.5929688"><ele>422.6666666666667</ele><time>2026-04-19T08:50:38.032Z</time></trkpt><trkpt lat="41.5514918" lon="1.5927211"><ele>424.33333333333337</ele><time>2026-04-19T08:50:39.032Z</time></trkpt><trkpt lat="41.5513976" lon="1.5924827"><ele>426.0</ele><time>2026-04-19T08:50:40.032Z</time></trkpt><trkpt lat="41.5513065" lon="1.5922441"><ele>426.0</ele><time>2026-04-19T08:50:41.031Z</time></trkpt><trkpt lat="41.5512228" lon="1.5920214"><ele>426.0</ele><time>2026-04-19T08:50:42.032Z</time></trkpt><trkpt lat="41.5511433" lon="1.5918088"><ele>426.0</ele><time>2026-04-19T08:50:43.031Z</time></trkpt><trkpt lat="41.5510581" lon="1.5916134"><ele>426.33333333333337</ele><time>2026-04-19T08:50:44.032Z</time></trkpt><trkpt lat="41.5509572" lon="1.5914421"><ele>426.6666666666667</ele><time>2026-04-19T08:50:45.032Z</time></trkpt><trkpt lat="41.5508361" lon="1.5913044"><ele>427.0</ele><time>2026-04-19T08:50:46.031Z</time></trkpt><trkpt lat="41.5506904" lon="1.5911936"><ele>428.33333333333337</ele><time>2026-04-19T08:50:47.031Z</time></trkpt><trkpt lat="41.5505275" lon="1.5911169"><ele>429.66666666666663</ele><time>2026-04-19T08:50:48.032Z</time></trkpt><trkpt lat="41.5503693" lon="1.5910286"><ele>431.0</ele><time>2026-04-19T08:50:49.032Z</time></trkpt><trkpt lat="41.5502279" lon="1.5908973"><ele>431.66666666666663</ele><time>2026-04-19T08:50:50.032Z</time></trkpt><trkpt lat="41.5501002" lon="1.5907254"><ele>432.33333333333337</ele><time>2026-04-19T08:50:51.032Z</time></trkpt><trkpt lat="41.5499738" lon="1.5905421"><ele>433.0</ele><time>2026-04-19T08:50:52.032Z</time></trkpt><trkpt lat="41.5498514" lon="1.5903536"><ele>433.33333333333337</ele><time>2026-04-19T08:50:53.032Z</time></trkpt><trkpt lat="41.5497259" lon="1.590157"><ele>433.66666666666663</ele><time>2026-04-19T08:50:54.032Z</time></trkpt><trkpt lat="41.5496067" lon="1.5899364"><ele>434.0</ele><time>2026-04-19T08:50:55.032Z</time></trkpt><trkpt lat="41.549488" lon="1.5897007"><ele>435.0</ele><time>2026-04-19T08:50:56.031Z</time></trkpt><trkpt lat="41.5493678" lon="1.5894536"><ele>436.0</ele><time>2026-04-19T08:50:57.031Z</time></trkpt><trkpt lat="41.5492459" lon="1.5892084"><ele>437.0</ele><time>2026-04-19T08:50:58.031Z</time></trkpt><trkpt lat="41.5491246" lon="1.5889673"><ele>437.0</ele><time>2026-04-19T08:50:59.032Z</time></trkpt><trkpt lat="41.5490098" lon="1.5887325"><ele>437.0</ele><time>2026-04-19T08:51:00.032Z</time></trkpt><trkpt lat="41.5488957" lon="1.5885019"><ele>437.0</ele><time>2026-04-19T08:51:01.031Z</time></trkpt><trkpt lat="41.5487734" lon="1.5882801"><ele>436.3333333333333</ele><time>2026-04-19T08:51:02.032Z</time></trkpt><trkpt lat="41.5486453" lon="1.5880701"><ele>435.66666666666663</ele><time>2026-04-19T08:51:03.031Z</time></trkpt><trkpt lat="41.5485173" lon="1.5878726"><ele>435.0</ele><time>2026-04-19T08:51:04.031Z</time></trkpt><trkpt lat="41.5483887" lon="1.5876876"><ele>438.33333333333337</ele><time>2026-04-19T08:51:05.032Z</time></trkpt><trkpt lat="41.5482684" lon="1.5875114"><ele>441.6666666666667</ele><time>2026-04-19T08:51:06.031Z</time></trkpt><trkpt lat="41.5481544" lon="1.5873414"><ele>445.0</ele><time>2026-04-19T08:51:07.032Z</time></trkpt><trkpt lat="41.5480425" lon="1.5871784"><ele>445.0</ele><time>2026-04-19T08:51:08.032Z</time></trkpt><trkpt lat="41.5479328" lon="1.5870156"><ele>445.0</ele><time>2026-04-19T08:51:09.031Z</time></trkpt><trkpt lat="41.5478218" lon="1.5868625"><ele>445.0</ele><time>2026-04-19T08:51:10.032Z</time></trkpt><trkpt lat="41.5477145" lon="1.5867091"><ele>444.6666666666667</ele><time>2026-04-19T08:51:11.031Z</time></trkpt><trkpt lat="41.5476073" lon="1.5865632"><ele>444.33333333333337</ele><time>2026-04-19T08:51:12.032Z</time></trkpt><trkpt lat="41.5474946" lon="1.5864219"><ele>444.0</ele><time>2026-04-19T08:51:13.031Z</time></trkpt><trkpt lat="41.5473847" lon="1.5862783"><ele>446.0</ele><time>2026-04-19T08:51:14.031Z</time></trkpt><trkpt lat="41.5472752" lon="1.5861357"><ele>448.0</ele><time>2026-04-19T08:51:15.031Z</time></trkpt><trkpt lat="41.5471657" lon="1.585989"><ele>450.0</ele><time>2026-04-19T08:51:16.032Z</time></trkpt><trkpt lat="41.5470575" lon="1.5858485"><ele>449.5</ele><time>2026-04-19T08:51:17.032Z</time></trkpt><trkpt lat="41.5469513" lon="1.5857137"><ele>449.0</ele><time>2026-04-19T08:51:18.032Z</time></trkpt><trkpt lat="41.5468499" lon="1.5855738"><ele>448.5</ele><time>2026-04-19T08:51:19.032Z</time></trkpt><trkpt lat="41.5467513" lon="1.5854282"><ele>448.0</ele><time>2026-04-19T08:51:20.032Z</time></trkpt><trkpt lat="41.5466592" lon="1.5852769"><ele>448.0</ele><time>2026-04-19T08:51:21.032Z</time></trkpt><trkpt lat="41.546569" lon="1.58511"><ele>448.0</ele><time>2026-04-19T08:51:22.032Z</time></trkpt><trkpt lat="41.5464844" lon="1.5849401"><ele>448.0</ele><time>2026-04-19T08:51:23.031Z</time></trkpt><trkpt lat="41.5463978" lon="1.5847663"><ele>448.0</ele><time>2026-04-19T08:51:24.032Z</time></trkpt><trkpt lat="41.5463097" lon="1.584594"><ele>448.0</ele><time>2026-04-19T08:51:25.031Z</time></trkpt><trkpt lat="41.5462204" lon="1.584417"><ele>448.0</ele><time>2026-04-19T08:51:26.032Z</time></trkpt><trkpt lat="41.5461358" lon="1.584246"><ele>447.6666666666667</ele><time>2026-04-19T08:51:27.032Z</time></trkpt><trkpt lat="41.5460496" lon="1.5840692"><ele>447.33333333333337</ele><time>2026-04-19T08:51:28.031Z</time></trkpt><trkpt lat="41.545969" lon="1.5838916"><ele>447.0</ele><time>2026-04-19T08:51:29.031Z</time></trkpt><trkpt lat="41.5458872" lon="1.5837061"><ele>447.66666666666663</ele><time>2026-04-19T08:51:30.031Z</time></trkpt><trkpt lat="41.5458094" lon="1.5835169"><ele>448.3333333333333</ele><time>2026-04-19T08:51:31.032Z</time></trkpt><trkpt lat="41.5457257" lon="1.5833275"><ele>449.0</ele><time>2026-04-19T08:51:32.032Z</time></trkpt><trkpt lat="41.5456427" lon="1.583134"><ele>449.0</ele><time>2026-04-19T08:51:33.031Z</time></trkpt><trkpt lat="41.5455711" lon="1.582931"><ele>449.0</ele><time>2026-04-19T08:51:34.032Z</time></trkpt><trkpt lat="41.5455137" lon="1.5827129"><ele>449.0</ele><time>2026-04-19T08:51:35.032Z</time></trkpt><trkpt lat="41.54546" lon="1.5824895"><ele>449.0</ele><time>2026-04-19T08:51:36.032Z</time></trkpt><trkpt lat="41.5454053" lon="1.5822655"><ele>449.0</ele><time>2026-04-19T08:51:37.031Z</time></trkpt><trkpt lat="41.5453536" lon="1.5820472"><ele>449.0</ele><time>2026-04-19T08:51:38.032Z</time></trkpt><trkpt lat="41.5452924" lon="1.5818467"><ele>451.3333333333333</ele><time>2026-04-19T08:51:39.032Z</time></trkpt><trkpt lat="41.5452034" lon="1.5816468"><ele>453.66666666666663</ele><time>2026-04-19T08:51:40.032Z</time></trkpt><trkpt lat="41.5450874" lon="1.581463"><ele>456.0</ele><time>2026-04-19T08:51:41.032Z</time></trkpt><trkpt lat="41.5449477" lon="1.5812999"><ele>456.33333333333337</ele><time>2026-04-19T08:51:42.031Z</time></trkpt><trkpt lat="41.5447978" lon="1.5811472"><ele>456.6666666666667</ele><time>2026-04-19T08:51:43.032Z</time></trkpt><trkpt lat="41.5446515" lon="1.5809991"><ele>457.0</ele><time>2026-04-19T08:51:44.031Z</time></trkpt><trkpt lat="41.5445125" lon="1.5808532"><ele>457.0</ele><time>2026-04-19T08:51:45.032Z</time></trkpt><trkpt lat="41.5443932" lon="1.5806993"><ele>457.0</ele><time>2026-04-19T08:51:46.032Z</time></trkpt><trkpt lat="41.5443002" lon="1.5805161"><ele>457.0</ele><time>2026-04-19T08:51:47.031Z</time></trkpt><trkpt lat="41.5442281" lon="1.5803058"><ele>460.0</ele><time>2026-04-19T08:51:48.032Z</time></trkpt><trkpt lat="41.5441631" lon="1.580072"><ele>463.0</ele><time>2026-04-19T08:51:49.032Z</time></trkpt><trkpt lat="41.5440977" lon="1.5798253"><ele>466.0</ele><time>2026-04-19T08:51:50.032Z</time></trkpt><trkpt lat="41.5440277" lon="1.5795773"><ele>467.6666666666667</ele><time>2026-04-19T08:51:51.032Z</time></trkpt><trkpt lat="41.5439576" lon="1.5793257"><ele>469.33333333333337</ele><time>2026-04-19T08:51:52.032Z</time></trkpt><trkpt lat="41.5438873" lon="1.5790697"><ele>471.0</ele><time>2026-04-19T08:51:53.032Z</time></trkpt><trkpt lat="41.5438142" lon="1.5788168"><ele>472.66666666666663</ele><time>2026-04-19T08:51:54.032Z</time></trkpt><trkpt lat="41.543742" lon="1.5785595"><ele>474.3333333333333</ele><time>2026-04-19T08:51:55.032Z</time></trkpt><trkpt lat="41.5436701" lon="1.5783044"><ele>476.0</ele><time>2026-04-19T08:51:56.032Z</time></trkpt><trkpt lat="41.5436004" lon="1.5780478"><ele>474.3333333333333</ele><time>2026-04-19T08:51:57.032Z</time></trkpt><trkpt lat="41.5435303" lon="1.5777931"><ele>472.66666666666663</ele><time>2026-04-19T08:51:58.032Z</time></trkpt><trkpt lat="41.5434594" lon="1.5775327"><ele>471.0</ele><time>2026-04-19T08:51:59.032Z</time></trkpt><trkpt lat="41.5433915" lon="1.577269"><ele>472.0</ele><time>2026-04-19T08:52:00.032Z</time></trkpt><trkpt lat="41.5433306" lon="1.5769923"><ele>473.0</ele><time>2026-04-19T08:52:01.031Z</time></trkpt><trkpt lat="41.5432758" lon="1.5767172"><ele>474.0</ele><time>2026-04-19T08:52:02.031Z</time></trkpt><trkpt lat="41.543218" lon="1.5764361"><ele>475.0</ele><time>2026-04-19T08:52:03.032Z</time></trkpt><trkpt lat="41.5431598" lon="1.5761507"><ele>476.0</ele><time>2026-04-19T08:52:04.032Z</time></trkpt><trkpt lat="41.5431018" lon="1.5758557"><ele>476.0</ele><time>2026-04-19T08:52:05.032Z</time></trkpt><trkpt lat="41.5430453" lon="1.5755664"><ele>476.0</ele><time>2026-04-19T08:52:06.031Z</time></trkpt><trkpt lat="41.542988" lon="1.5752781"><ele>476.0</ele><time>2026-04-19T08:52:07.032Z</time></trkpt><trkpt lat="41.5429332" lon="1.5749968"><ele>475.66666666666663</ele><time>2026-04-19T08:52:08.032Z</time></trkpt><trkpt lat="41.5428804" lon="1.5747207"><ele>475.33333333333337</ele><time>2026-04-19T08:52:09.031Z</time></trkpt><trkpt lat="41.5428312" lon="1.5744577"><ele>475.0</ele><time>2026-04-19T08:52:10.032Z</time></trkpt><trkpt lat="41.5427846" lon="1.5742122"><ele>476.33333333333337</ele><time>2026-04-19T08:52:11.032Z</time></trkpt><trkpt lat="41.5427372" lon="1.5739798"><ele>477.66666666666663</ele><time>2026-04-19T08:52:12.032Z</time></trkpt><trkpt lat="41.5426665" lon="1.5737641"><ele>479.0</ele><time>2026-04-19T08:52:13.031Z</time></trkpt><trkpt lat="41.5425703" lon="1.5735606"><ele>481.0</ele><time>2026-04-19T08:52:14.031Z</time></trkpt><trkpt lat="41.5424426" lon="1.5733612"><ele>483.0</ele><time>2026-04-19T08:52:15.032Z</time></trkpt><trkpt lat="41.5423077" lon="1.5731677"><ele>485.0</ele><time>2026-04-19T08:52:16.031Z</time></trkpt><trkpt lat="41.5421782" lon="1.572984"><ele>486.3333333333333</ele><time>2026-04-19T08:52:17.031Z</time></trkpt><trkpt lat="41.5420609" lon="1.5728115"><ele>487.66666666666663</ele><time>2026-04-19T08:52:18.031Z</time></trkpt><trkpt lat="41.5419518" lon="1.5726521"><ele>489.0</ele><time>2026-04-19T08:52:19.031Z</time></trkpt><trkpt lat="41.541848" lon="1.5724979"><ele>489.0</ele><time>2026-04-19T08:52:20.032Z</time></trkpt><trkpt lat="41.5417485" lon="1.572351"><ele>489.0</ele><time>2026-04-19T08:52:21.031Z</time></trkpt><trkpt lat="41.5416519" lon="1.5722045"><ele>489.0</ele><time>2026-04-19T08:52:22.032Z</time></trkpt><trkpt lat="41.5415703" lon="1.5720389"><ele>489.0</ele><time>2026-04-19T08:52:23.032Z</time></trkpt><trkpt lat="41.5415084" lon="1.5718574"><ele>491.0</ele><time>2026-04-19T08:52:24.031Z</time></trkpt><trkpt lat="41.5414649" lon="1.5716439"><ele>493.0</ele><time>2026-04-19T08:52:25.031Z</time></trkpt><trkpt lat="41.5414398" lon="1.5714011"><ele>495.0</ele><time>2026-04-19T08:52:26.031Z</time></trkpt><trkpt lat="41.5414138" lon="1.5711546"><ele>497.33333333333337</ele><time>2026-04-19T08:52:27.032Z</time></trkpt><trkpt lat="41.5413894" lon="1.5709136"><ele>499.6666666666667</ele><time>2026-04-19T08:52:28.032Z</time></trkpt><trkpt lat="41.5413667" lon="1.5706811"><ele>502.0</ele><time>2026-04-19T08:52:29.032Z</time></trkpt><trkpt lat="41.5413383" lon="1.5704547"><ele>501.0</ele><time>2026-04-19T08:52:30.032Z</time></trkpt><trkpt lat="41.5412881" lon="1.5702293"><ele>500.0</ele><time>2026-04-19T08:52:31.032Z</time></trkpt><trkpt lat="41.5412136" lon="1.5699987"><ele>499.0</ele><time>2026-04-19T08:52:32.032Z</time></trkpt><trkpt lat="41.5411173" lon="1.5697874"><ele>499.0</ele><time>2026-04-19T08:52:33.031Z</time></trkpt><trkpt lat="41.5410139" lon="1.5695982"><ele>499.0</ele><time>2026-04-19T08:52:34.032Z</time></trkpt><trkpt lat="41.5409155" lon="1.5694142"><ele>499.0</ele><time>2026-04-19T08:52:35.031Z</time></trkpt><trkpt lat="41.5408166" lon="1.5692371"><ele>499.33333333333337</ele><time>2026-04-19T08:52:36.032Z</time></trkpt><trkpt lat="41.5407234" lon="1.5690623"><ele>499.66666666666663</ele><time>2026-04-19T08:52:37.031Z</time></trkpt><trkpt lat="41.5406294" lon="1.5688882"><ele>500.0</ele><time>2026-04-19T08:52:38.031Z</time></trkpt><trkpt lat="41.5405301" lon="1.5687131"><ele>500.66666666666663</ele><time>2026-04-19T08:52:39.032Z</time></trkpt><trkpt lat="41.5404419" lon="1.5685233"><ele>501.33333333333337</ele><time>2026-04-19T08:52:40.031Z</time></trkpt><trkpt lat="41.5403725" lon="1.568321"><ele>502.0</ele><time>2026-04-19T08:52:41.031Z</time></trkpt><trkpt lat="41.540311" lon="1.5681149"><ele>501.6666666666667</ele><time>2026-04-19T08:52:42.032Z</time></trkpt><trkpt lat="41.5402566" lon="1.567906"><ele>501.33333333333337</ele><time>2026-04-19T08:52:43.031Z</time></trkpt><trkpt lat="41.5402054" lon="1.5676924"><ele>501.0</ele><time>2026-04-19T08:52:44.031Z</time></trkpt><trkpt lat="41.5401542" lon="1.567479"><ele>501.0</ele><time>2026-04-19T08:52:45.032Z</time></trkpt><trkpt lat="41.5401004" lon="1.5672687"><ele>501.0</ele><time>2026-04-19T08:52:46.032Z</time></trkpt><trkpt lat="41.5400486" lon="1.5670615"><ele>501.0</ele><time>2026-04-19T08:52:47.032Z</time></trkpt><trkpt lat="41.5400008" lon="1.5668584"><ele>502.66666666666663</ele><time>2026-04-19T08:52:48.032Z</time></trkpt><trkpt lat="41.5399537" lon="1.5666569"><ele>504.3333333333333</ele><time>2026-04-19T08:52:49.032Z</time></trkpt><trkpt lat="41.5399062" lon="1.5664563"><ele>506.0</ele><time>2026-04-19T08:52:50.032Z</time></trkpt><trkpt lat="41.5398575" lon="1.566249"><ele>507.66666666666663</ele><time>2026-04-19T08:52:51.031Z</time></trkpt><trkpt lat="41.5398096" lon="1.5660376"><ele>509.33333333333337</ele><time>2026-04-19T08:52:52.031Z</time></trkpt><trkpt lat="41.5397571" lon="1.5658255"><ele>511.0</ele><time>2026-04-19T08:52:53.032Z</time></trkpt><trkpt lat="41.5397084" lon="1.5656109"><ele>511.0</ele><time>2026-04-19T08:52:54.031Z</time></trkpt><trkpt lat="41.5396589" lon="1.5653955"><ele>511.0</ele><time>2026-04-19T08:52:55.032Z</time></trkpt><trkpt lat="41.5396074" lon="1.5651785"><ele>511.0</ele><time>2026-04-19T08:52:56.032Z</time></trkpt><trkpt lat="41.5395525" lon="1.5649626"><ele>510.0</ele><time>2026-04-19T08:52:57.031Z</time></trkpt><trkpt lat="41.539501" lon="1.5647453"><ele>509.0</ele><time>2026-04-19T08:52:58.032Z</time></trkpt><trkpt lat="41.539443" lon="1.5645356"><ele>508.0</ele><time>2026-04-19T08:52:59.031Z</time></trkpt><trkpt lat="41.5393912" lon="1.5643267"><ele>508.0</ele><time>2026-04-19T08:53:00.031Z</time></trkpt><trkpt lat="41.5393454" lon="1.5641195"><ele>508.0</ele><time>2026-04-19T08:53:01.031Z</time></trkpt><trkpt lat="41.5392974" lon="1.5639118"><ele>508.0</ele><time>2026-04-19T08:53:02.032Z</time></trkpt><trkpt lat="41.539253" lon="1.563705"><ele>509.33333333333337</ele><time>2026-04-19T08:53:03.032Z</time></trkpt><trkpt lat="41.539207" lon="1.563504"><ele>510.66666666666663</ele><time>2026-04-19T08:53:04.032Z</time></trkpt><trkpt lat="41.5391613" lon="1.5633078"><ele>512.0</ele><time>2026-04-19T08:53:05.031Z</time></trkpt><trkpt lat="41.5391145" lon="1.5631123"><ele>512.0</ele><time>2026-04-19T08:53:06.032Z</time></trkpt><trkpt lat="41.5390654" lon="1.5629128"><ele>512.0</ele><time>2026-04-19T08:53:07.032Z</time></trkpt><trkpt lat="41.5390163" lon="1.5627151"><ele>512.0</ele><time>2026-04-19T08:53:08.031Z</time></trkpt><trkpt lat="41.5389676" lon="1.5625134"><ele>514.0</ele><time>2026-04-19T08:53:09.032Z</time></trkpt><trkpt lat="41.5389193" lon="1.5623108"><ele>516.0</ele><time>2026-04-19T08:53:10.032Z</time></trkpt><trkpt lat="41.5388721" lon="1.5621106"><ele>518.0</ele><time>2026-04-19T08:53:11.031Z</time></trkpt><trkpt lat="41.5388224" lon="1.5619178"><ele>518.5</ele><time>2026-04-19T08:53:12.031Z</time></trkpt><trkpt lat="41.5387723" lon="1.5617306"><ele>519.0</ele><time>2026-04-19T08:53:13.032Z</time></trkpt><trkpt lat="41.5387171" lon="1.5615459"><ele>519.5</ele><time>2026-04-19T08:53:14.031Z</time></trkpt><trkpt lat="41.5386575" lon="1.5613628"><ele>520.0</ele><time>2026-04-19T08:53:15.032Z</time></trkpt><trkpt lat="41.5385949" lon="1.5611833"><ele>521.25</ele><time>2026-04-19T08:53:16.032Z</time></trkpt><trkpt lat="41.5385275" lon="1.5610111"><ele>522.5</ele><time>2026-04-19T08:53:17.032Z</time></trkpt><trkpt lat="41.538463" lon="1.5608475"><ele>523.75</ele><time>2026-04-19T08:53:18.031Z</time></trkpt><trkpt lat="41.5384037" lon="1.5606806"><ele>525.0</ele><time>2026-04-19T08:53:19.031Z</time></trkpt><trkpt lat="41.5383424" lon="1.5605186"><ele>526.5</ele><time>2026-04-19T08:53:20.032Z</time></trkpt><trkpt lat="41.5382819" lon="1.5603616"><ele>528.0</ele><time>2026-04-19T08:53:21.032Z</time></trkpt><trkpt lat="41.5382285" lon="1.5602148"><ele>529.5</ele><time>2026-04-19T08:53:22.031Z</time></trkpt><trkpt lat="41.538179" lon="1.5600711"><ele>531.0</ele><time>2026-04-19T08:53:23.031Z</time></trkpt><trkpt lat="41.538128" lon="1.5599306"><ele>531.0</ele><time>2026-04-19T08:53:24.032Z</time></trkpt><trkpt lat="41.5380751" lon="1.5597931"><ele>531.0</ele><time>2026-04-19T08:53:25.031Z</time></trkpt><trkpt lat="41.538023" lon="1.5596564"><ele>531.0</ele><time>2026-04-19T08:53:26.032Z</time></trkpt><trkpt lat="41.5379707" lon="1.5595178"><ele>531.0</ele><time>2026-04-19T08:53:27.031Z</time></trkpt><trkpt lat="41.5379194" lon="1.5593865"><ele>530.0</ele><time>2026-04-19T08:53:28.031Z</time></trkpt><trkpt lat="41.5378668" lon="1.559247"><ele>529.0</ele><time>2026-04-19T08:53:29.032Z</time></trkpt><trkpt lat="41.5378138" lon="1.5591063"><ele>528.0</ele><time>2026-04-19T08:53:30.032Z</time></trkpt><trkpt lat="41.5377601" lon="1.5589678"><ele>527.0</ele><time>2026-04-19T08:53:31.032Z</time></trkpt><trkpt lat="41.5377078" lon="1.5588252"><ele>528.0</ele><time>2026-04-19T08:53:32.031Z</time></trkpt><trkpt lat="41.5376548" lon="1.5586828"><ele>529.0</ele><time>2026-04-19T08:53:33.032Z</time></trkpt><trkpt lat="41.5376016" lon="1.5585464"><ele>530.0</ele><time>2026-04-19T08:53:34.031Z</time></trkpt><trkpt lat="41.5375502" lon="1.5584061"><ele>531.0</ele><time>2026-04-19T08:53:35.032Z</time></trkpt><trkpt lat="41.5374959" lon="1.5582626"><ele>531.0</ele><time>2026-04-19T08:53:36.032Z</time></trkpt><trkpt lat="41.537432" lon="1.5580966"><ele>531.0</ele><time>2026-04-19T08:53:37.031Z</time></trkpt><trkpt lat="41.5373609" lon="1.5579105"><ele>531.0</ele><time>2026-04-19T08:53:38.032Z</time></trkpt><trkpt lat="41.5372892" lon="1.557724"><ele>533.3333333333334</ele><time>2026-04-19T08:53:39.032Z</time></trkpt><trkpt lat="41.5372096" lon="1.5575199"><ele>535.6666666666667</ele><time>2026-04-19T08:53:40.032Z</time></trkpt><trkpt lat="41.537132" lon="1.5572985"><ele>538.0</ele><time>2026-04-19T08:53:41.031Z</time></trkpt><trkpt lat="41.5370551" lon="1.5570683"><ele>536.3333333333334</ele><time>2026-04-19T08:53:42.032Z</time></trkpt><trkpt lat="41.5369839" lon="1.556823"><ele>534.6666666666666</ele><time>2026-04-19T08:53:43.032Z</time></trkpt><trkpt lat="41.5369149" lon="1.5565638"><ele>533.0</ele><time>2026-04-19T08:53:44.031Z</time></trkpt><trkpt lat="41.5368521" lon="1.5563122"><ele>534.6666666666666</ele><time>2026-04-19T08:53:45.032Z</time></trkpt><trkpt lat="41.5367848" lon="1.5560518"><ele>536.3333333333334</ele><time>2026-04-19T08:53:46.032Z</time></trkpt><trkpt lat="41.536717" lon="1.5557891"><ele>538.0</ele><time>2026-04-19T08:53:47.031Z</time></trkpt><trkpt lat="41.5366493" lon="1.5555188"><ele>540.3333333333334</ele><time>2026-04-19T08:53:48.032Z</time></trkpt><trkpt lat="41.5365763" lon="1.5552439"><ele>542.6666666666666</ele><time>2026-04-19T08:53:49.032Z</time></trkpt><trkpt lat="41.5365038" lon="1.5549595"><ele>545.0</ele><time>2026-04-19T08:53:50.031Z</time></trkpt><trkpt lat="41.53643" lon="1.554674"><ele>547.0</ele><time>2026-04-19T08:53:51.032Z</time></trkpt><trkpt lat="41.5363599" lon="1.5543903"><ele>549.0</ele><time>2026-04-19T08:53:52.031Z</time></trkpt><trkpt lat="41.5362874" lon="1.5541087"><ele>551.0</ele><time>2026-04-19T08:53:53.031Z</time></trkpt><trkpt lat="41.5362138" lon="1.5538286"><ele>548.5</ele><time>2026-04-19T08:53:54.032Z</time></trkpt><trkpt lat="41.5361383" lon="1.5535366"><ele>546.0</ele><time>2026-04-19T08:53:55.032Z</time></trkpt><trkpt lat="41.5360614" lon="1.5532509"><ele>546.0</ele><time>2026-04-19T08:53:56.031Z</time></trkpt><trkpt lat="41.5359888" lon="1.552973"><ele>546.0</ele><time>2026-04-19T08:53:57.031Z</time></trkpt><trkpt lat="41.5359164" lon="1.5527057"><ele>546.0</ele><time>2026-04-19T08:53:58.032Z</time></trkpt><trkpt lat="41.535848" lon="1.5524395"><ele>547.0</ele><time>2026-04-19T08:53:59.032Z</time></trkpt><trkpt lat="41.5357805" lon="1.5521709"><ele>548.0</ele><time>2026-04-19T08:54:00.032Z</time></trkpt><trkpt lat="41.535713" lon="1.5518982"><ele>549.0</ele><time>2026-04-19T08:54:01.032Z</time></trkpt><trkpt lat="41.5356434" lon="1.5516235"><ele>550.6666666666666</ele><time>2026-04-19T08:54:02.032Z</time></trkpt><trkpt lat="41.5355736" lon="1.5513475"><ele>552.3333333333333</ele><time>2026-04-19T08:54:03.031Z</time></trkpt><trkpt lat="41.5355042" lon="1.5510778"><ele>554.0</ele><time>2026-04-19T08:54:04.031Z</time></trkpt><trkpt lat="41.5354395" lon="1.5508202"><ele>554.0</ele><time>2026-04-19T08:54:05.032Z</time></trkpt><trkpt lat="41.5353745" lon="1.5505664"><ele>554.0</ele><time>2026-04-19T08:54:06.032Z</time></trkpt><trkpt lat="41.5353072" lon="1.5503147"><ele>554.0</ele><time>2026-04-19T08:54:07.031Z</time></trkpt><trkpt lat="41.5352431" lon="1.5500764"><ele>554.0</ele><time>2026-04-19T08:54:08.031Z</time></trkpt><trkpt lat="41.5351688" lon="1.5498574"><ele>554.0</ele><time>2026-04-19T08:54:09.032Z</time></trkpt><trkpt lat="41.535068" lon="1.5496599"><ele>554.0</ele><time>2026-04-19T08:54:10.031Z</time></trkpt><trkpt lat="41.5349419" lon="1.549479"><ele>554.0</ele><time>2026-04-19T08:54:11.031Z</time></trkpt><trkpt lat="41.5347906" lon="1.5493253"><ele>554.0</ele><time>2026-04-19T08:54:12.031Z</time></trkpt><trkpt lat="41.5346397" lon="1.5491895"><ele>554.0</ele><time>2026-04-19T08:54:13.031Z</time></trkpt><trkpt lat="41.5345041" lon="1.5490519"><ele>554.0</ele><time>2026-04-19T08:54:14.031Z</time></trkpt><trkpt lat="41.5343835" lon="1.5489008"><ele>554.0</ele><time>2026-04-19T08:54:15.031Z</time></trkpt><trkpt lat="41.5342841" lon="1.5487314"><ele>554.0</ele><time>2026-04-19T08:54:16.032Z</time></trkpt><trkpt lat="41.5341978" lon="1.5485514"><ele>557.0</ele><time>2026-04-19T08:54:17.032Z</time></trkpt><trkpt lat="41.5341187" lon="1.5483642"><ele>560.0</ele><time>2026-04-19T08:54:18.032Z</time></trkpt><trkpt lat="41.5340428" lon="1.5481782"><ele>563.0</ele><time>2026-04-19T08:54:19.032Z</time></trkpt><trkpt lat="41.5339624" lon="1.5479804"><ele>562.6666666666666</ele><time>2026-04-19T08:54:20.032Z</time></trkpt><trkpt lat="41.5338803" lon="1.5477782"><ele>562.3333333333334</ele><time>2026-04-19T08:54:21.031Z</time></trkpt><trkpt lat="41.5337961" lon="1.5475679"><ele>562.0</ele><time>2026-04-19T08:54:22.031Z</time></trkpt><trkpt lat="41.5337129" lon="1.5473611"><ele>562.0</ele><time>2026-04-19T08:54:23.031Z</time></trkpt><trkpt lat="41.5336273" lon="1.5471493"><ele>562.0</ele><time>2026-04-19T08:54:24.032Z</time></trkpt><trkpt lat="41.5335421" lon="1.5469392"><ele>562.0</ele><time>2026-04-19T08:54:25.032Z</time></trkpt><trkpt lat="41.5334536" lon="1.5467242"><ele>564.0</ele><time>2026-04-19T08:54:26.032Z</time></trkpt><trkpt lat="41.5333641" lon="1.5465154"><ele>566.0</ele><time>2026-04-19T08:54:27.032Z</time></trkpt><trkpt lat="41.5332805" lon="1.5463001"><ele>568.0</ele><time>2026-04-19T08:54:28.032Z</time></trkpt><trkpt lat="41.5331939" lon="1.5460895"><ele>570.6666666666667</ele><time>2026-04-19T08:54:29.032Z</time></trkpt><trkpt lat="41.5331042" lon="1.5458774"><ele>573.3333333333334</ele><time>2026-04-19T08:54:30.031Z</time></trkpt><trkpt lat="41.5330162" lon="1.5456728"><ele>576.0</ele><time>2026-04-19T08:54:31.031Z</time></trkpt><trkpt lat="41.5329373" lon="1.5454714"><ele>575.3333333333334</ele><time>2026-04-19T08:54:32.032Z</time></trkpt><trkpt lat="41.5328526" lon="1.5452727"><ele>574.6666666666667</ele><time>2026-04-19T08:54:33.032Z</time></trkpt><trkpt lat="41.5327695" lon="1.545071"><ele>574.0</ele><time>2026-04-19T08:54:34.032Z</time></trkpt><trkpt lat="41.5326882" lon="1.5448726"><ele>574.0</ele><time>2026-04-19T08:54:35.032Z</time></trkpt><trkpt lat="41.5326113" lon="1.5446873"><ele>574.0</ele><time>2026-04-19T08:54:36.032Z</time></trkpt><trkpt lat="41.5325473" lon="1.5444991"><ele>574.0</ele><time>2026-04-19T08:54:37.031Z</time></trkpt><trkpt lat="41.5324937" lon="1.5442906"><ele>576.3333333333334</ele><time>2026-04-19T08:54:38.032Z</time></trkpt><trkpt lat="41.5324413" lon="1.54408"><ele>578.6666666666666</ele><time>2026-04-19T08:54:39.031Z</time></trkpt><trkpt lat="41.5323895" lon="1.5438705"><ele>581.0</ele><time>2026-04-19T08:54:40.032Z</time></trkpt><trkpt lat="41.5323407" lon="1.5436676"><ele>582.0</ele><time>2026-04-19T08:54:41.032Z</time></trkpt><trkpt lat="41.5322956" lon="1.5434731"><ele>583.0</ele><time>2026-04-19T08:54:42.032Z</time></trkpt><trkpt lat="41.5322502" lon="1.5432908"><ele>584.0</ele><time>2026-04-19T08:54:43.032Z</time></trkpt><trkpt lat="41.5322117" lon="1.5431242"><ele>585.0</ele><time>2026-04-19T08:54:44.032Z</time></trkpt><trkpt lat="41.5321733" lon="1.5429598"><ele>586.0</ele><time>2026-04-19T08:54:45.032Z</time></trkpt><trkpt lat="41.5321345" lon="1.5428043"><ele>587.0</ele><time>2026-04-19T08:54:46.032Z</time></trkpt><trkpt lat="41.5320973" lon="1.5426565"><ele>588.0</ele><time>2026-04-19T08:54:47.032Z</time></trkpt><trkpt lat="41.5320614" lon="1.5425122"><ele>589.0</ele><time>2026-04-19T08:54:48.032Z</time></trkpt><trkpt lat="41.5320258" lon="1.5423731"><ele>587.8</ele><time>2026-04-19T08:54:49.032Z</time></trkpt><trkpt lat="41.5319868" lon="1.5422315"><ele>586.5999999999999</ele><time>2026-04-19T08:54:50.032Z</time></trkpt><trkpt lat="41.5319512" lon="1.5420906"><ele>585.4</ele><time>2026-04-19T08:54:51.032Z</time></trkpt><trkpt lat="41.5319187" lon="1.5419572"><ele>584.1999999999999</ele><time>2026-04-19T08:54:52.032Z</time></trkpt><trkpt lat="41.5318904" lon="1.5418295"><ele>583.0</ele><time>2026-04-19T08:54:53.031Z</time></trkpt><trkpt lat="41.5318618" lon="1.5417024"><ele>583.0</ele><time>2026-04-19T08:54:54.032Z</time></trkpt><trkpt lat="41.5318317" lon="1.5415752"><ele>583.0</ele><time>2026-04-19T08:54:55.031Z</time></trkpt><trkpt lat="41.5318002" lon="1.5414506"><ele>583.0</ele><time>2026-04-19T08:54:56.032Z</time></trkpt><trkpt lat="41.5317673" lon="1.5413233"><ele>583.0</ele><time>2026-04-19T08:54:57.031Z</time></trkpt><trkpt lat="41.53173" lon="1.5411917"><ele>583.0</ele><time>2026-04-19T08:54:58.032Z</time></trkpt><trkpt lat="41.531688" lon="1.5410589"><ele>584.75</ele><time>2026-04-19T08:54:59.032Z</time></trkpt><trkpt lat="41.5316324" lon="1.5409162"><ele>586.5</ele><time>2026-04-19T08:55:00.031Z</time></trkpt><trkpt lat="41.5315645" lon="1.5407605"><ele>588.25</ele><time>2026-04-19T08:55:01.031Z</time></trkpt><trkpt lat="41.5314908" lon="1.5406005"><ele>590.0</ele><time>2026-04-19T08:55:02.032Z</time></trkpt><trkpt lat="41.5314098" lon="1.5404287"><ele>592.0</ele><time>2026-04-19T08:55:03.031Z</time></trkpt><trkpt lat="41.5313241" lon="1.540248"><ele>594.0</ele><time>2026-04-19T08:55:04.031Z</time></trkpt><trkpt lat="41.5312337" lon="1.5400485"><ele>596.0</ele><time>2026-04-19T08:55:05.032Z</time></trkpt><trkpt lat="41.5311338" lon="1.5398455"><ele>596.0</ele><time>2026-04-19T08:55:06.031Z</time></trkpt><trkpt lat="41.5310348" lon="1.5396323"><ele>596.0</ele><time>2026-04-19T08:55:07.032Z</time></trkpt><trkpt lat="41.5309342" lon="1.5394116"><ele>596.0</ele><time>2026-04-19T08:55:08.031Z</time></trkpt><trkpt lat="41.5308332" lon="1.5391993"><ele>596.3333333333333</ele><time>2026-04-19T08:55:09.032Z</time></trkpt><trkpt lat="41.5307294" lon="1.5389896"><ele>596.6666666666666</ele><time>2026-04-19T08:55:10.031Z</time></trkpt><trkpt lat="41.5306297" lon="1.5387749"><ele>597.0</ele><time>2026-04-19T08:55:11.032Z</time></trkpt><trkpt lat="41.5305388" lon="1.5385384"><ele>598.6666666666666</ele><time>2026-04-19T08:55:12.031Z</time></trkpt><trkpt lat="41.5304725" lon="1.5382747"><ele>600.3333333333333</ele><time>2026-04-19T08:55:13.032Z</time></trkpt><trkpt lat="41.5304249" lon="1.5379925"><ele>602.0</ele><time>2026-04-19T08:55:14.032Z</time></trkpt><trkpt lat="41.5303866" lon="1.5377022"><ele>605.6666666666666</ele><time>2026-04-19T08:55:15.031Z</time></trkpt><trkpt lat="41.5303438" lon="1.5374302"><ele>609.3333333333334</ele><time>2026-04-19T08:55:16.032Z</time></trkpt><trkpt lat="41.5303016" lon="1.5371712"><ele>613.0</ele><time>2026-04-19T08:55:17.031Z</time></trkpt><trkpt lat="41.5302653" lon="1.5369227"><ele>613.3333333333334</ele><time>2026-04-19T08:55:18.031Z</time></trkpt><trkpt lat="41.5302329" lon="1.5366827"><ele>613.6666666666666</ele><time>2026-04-19T08:55:19.032Z</time></trkpt><trkpt lat="41.5302141" lon="1.5364601"><ele>614.0</ele><time>2026-04-19T08:55:20.032Z</time></trkpt><trkpt lat="41.5302251" lon="1.536243"><ele>612.3333333333333</ele><time>2026-04-19T08:55:21.031Z</time></trkpt><trkpt lat="41.5302598" lon="1.5360175"><ele>610.6666666666666</ele><time>2026-04-19T08:55:22.032Z</time></trkpt><trkpt lat="41.5302959" lon="1.5357801"><ele>609.0</ele><time>2026-04-19T08:55:23.032Z</time></trkpt><trkpt lat="41.5303273" lon="1.5355354"><ele>607.6666666666666</ele><time>2026-04-19T08:55:24.032Z</time></trkpt><trkpt lat="41.5303623" lon="1.5352858"><ele>606.3333333333333</ele><time>2026-04-19T08:55:25.031Z</time></trkpt><trkpt lat="41.5303417" lon="1.53503"><ele>605.0</ele><time>2026-04-19T08:55:26.031Z</time></trkpt><trkpt lat="41.530318" lon="1.5347669"><ele>604.6666666666666</ele><time>2026-04-19T08:55:27.031Z</time></trkpt><trkpt lat="41.5302771" lon="1.5344909"><ele>604.3333333333334</ele><time>2026-04-19T08:55:28.031Z</time></trkpt><trkpt lat="41.5302348" lon="1.5342048"><ele>604.0</ele><time>2026-04-19T08:55:29.032Z</time></trkpt><trkpt lat="41.5302007" lon="1.5339238"><ele>604.3333333333334</ele><time>2026-04-19T08:55:30.032Z</time></trkpt><trkpt lat="41.5301639" lon="1.5336611"><ele>604.6666666666666</ele><time>2026-04-19T08:55:31.032Z</time></trkpt><trkpt lat="41.5301256" lon="1.5334029"><ele>605.0</ele><time>2026-04-19T08:55:32.031Z</time></trkpt><trkpt lat="41.5300932" lon="1.5331591"><ele>605.0</ele><time>2026-04-19T08:55:33.032Z</time></trkpt><trkpt lat="41.5300529" lon="1.5329193"><ele>605.0</ele><time>2026-04-19T08:55:34.032Z</time></trkpt><trkpt lat="41.5299867" lon="1.5326735"><ele>605.0</ele><time>2026-04-19T08:55:35.032Z</time></trkpt><trkpt lat="41.5298882" lon="1.5324209"><ele>606.0</ele><time>2026-04-19T08:55:36.032Z</time></trkpt><trkpt lat="41.5297819" lon="1.532173"><ele>607.0</ele><time>2026-04-19T08:55:37.032Z</time></trkpt><trkpt lat="41.5296817" lon="1.5319326"><ele>608.0</ele><time>2026-04-19T08:55:38.032Z</time></trkpt><trkpt lat="41.5295854" lon="1.5316971"><ele>603.6666666666666</ele><time>2026-04-19T08:55:39.032Z</time></trkpt><trkpt lat="41.5294905" lon="1.5314725"><ele>599.3333333333334</ele><time>2026-04-19T08:55:40.032Z</time></trkpt><trkpt lat="41.5294007" lon="1.5312509"><ele>595.0</ele><time>2026-04-19T08:55:41.032Z</time></trkpt><trkpt lat="41.529311" lon="1.5310402"><ele>595.0</ele><time>2026-04-19T08:55:42.031Z</time></trkpt><trkpt lat="41.529223" lon="1.5308374"><ele>595.0</ele><time>2026-04-19T08:55:43.032Z</time></trkpt><trkpt lat="41.5291437" lon="1.5306535"><ele>595.0</ele><time>2026-04-19T08:55:44.032Z</time></trkpt><trkpt lat="41.5290726" lon="1.5304917"><ele>596.0</ele><time>2026-04-19T08:55:45.032Z</time></trkpt><trkpt lat="41.5290046" lon="1.5303527"><ele>597.0</ele><time>2026-04-19T08:55:46.032Z</time></trkpt><trkpt lat="41.5289343" lon="1.5302347"><ele>598.0</ele><time>2026-04-19T08:55:47.031Z</time></trkpt><trkpt lat="41.5288555" lon="1.530136"><ele>599.0</ele><time>2026-04-19T08:55:48.032Z</time></trkpt><trkpt lat="41.5287501" lon="1.5300831"><ele>596.5</ele><time>2026-04-19T08:55:49.032Z</time></trkpt><trkpt lat="41.5286369" lon="1.5300584"><ele>594.0</ele><time>2026-04-19T08:55:50.031Z</time></trkpt><trkpt lat="41.5284982" lon="1.5300936"><ele>591.5</ele><time>2026-04-19T08:55:51.032Z</time></trkpt><trkpt lat="41.5283615" lon="1.5301308"><ele>589.0</ele><time>2026-04-19T08:55:52.032Z</time></trkpt><trkpt lat="41.5282241" lon="1.530173"><ele>589.0</ele><time>2026-04-19T08:55:53.031Z</time></trkpt><trkpt lat="41.5280837" lon="1.5302164"><ele>589.0</ele><time>2026-04-19T08:55:54.032Z</time></trkpt><trkpt lat="41.5279403" lon="1.5302595"><ele>589.0</ele><time>2026-04-19T08:55:55.032Z</time></trkpt><trkpt lat="41.527792" lon="1.5303021"><ele>589.0</ele><time>2026-04-19T08:55:56.031Z</time></trkpt><trkpt lat="41.5276459" lon="1.5303387"><ele>590.5</ele><time>2026-04-19T08:55:57.032Z</time></trkpt><trkpt lat="41.5275062" lon="1.5303635"><ele>592.0</ele><time>2026-04-19T08:55:58.032Z</time></trkpt><trkpt lat="41.5273637" lon="1.5303784"><ele>593.5</ele><time>2026-04-19T08:55:59.031Z</time></trkpt><trkpt lat="41.527216" lon="1.530393"><ele>595.0</ele><time>2026-04-19T08:56:00.032Z</time></trkpt><trkpt lat="41.5270625" lon="1.5304128"><ele>588.6666666666667</ele><time>2026-04-19T08:56:01.032Z</time></trkpt><trkpt lat="41.5269064" lon="1.53043"><ele>582.3333333333334</ele><time>2026-04-19T08:56:02.032Z</time></trkpt><trkpt lat="41.5267507" lon="1.5304354"><ele>576.0</ele><time>2026-04-19T08:56:03.032Z</time></trkpt><trkpt lat="41.5265934" lon="1.5304536"><ele>576.0</ele><time>2026-04-19T08:56:04.032Z</time></trkpt><trkpt lat="41.526442" lon="1.5304699"><ele>576.0</ele><time>2026-04-19T08:56:05.032Z</time></trkpt><trkpt lat="41.5262935" lon="1.5304855"><ele>576.0</ele><time>2026-04-19T08:56:06.032Z</time></trkpt><trkpt lat="41.5261453" lon="1.5305032"><ele>575.0</ele><time>2026-04-19T08:56:07.031Z</time></trkpt><trkpt lat="41.5259954" lon="1.5305176"><ele>574.0</ele><time>2026-04-19T08:56:08.031Z</time></trkpt><trkpt lat="41.5258549" lon="1.5305366"><ele>573.0</ele><time>2026-04-19T08:56:09.032Z</time></trkpt><trkpt lat="41.5257256" lon="1.5305729"><ele>572.0</ele><time>2026-04-19T08:56:10.031Z</time></trkpt><trkpt lat="41.5255986" lon="1.530604"><ele>572.0</ele><time>2026-04-19T08:56:11.032Z</time></trkpt><trkpt lat="41.5255126" lon="1.5306791"><ele>572.0</ele><time>2026-04-19T08:56:12.032Z</time></trkpt><trkpt lat="41.5254216" lon="1.53075"><ele>572.0</ele><time>2026-04-19T08:56:13.031Z</time></trkpt><trkpt lat="41.5253404" lon="1.5308066"><ele>572.0</ele><time>2026-04-19T08:56:14.031Z</time></trkpt><trkpt lat="41.5252608" lon="1.5308352"><ele>572.0</ele><time>2026-04-19T08:56:15.031Z</time></trkpt><trkpt lat="41.5251754" lon="1.5308458"><ele>573.2</ele><time>2026-04-19T08:56:16.031Z</time></trkpt><trkpt lat="41.5250793" lon="1.5308416"><ele>574.4000000000001</ele><time>2026-04-19T08:56:17.032Z</time></trkpt><trkpt lat="41.5249887" lon="1.5308271"><ele>575.5999999999999</ele><time>2026-04-19T08:56:18.032Z</time></trkpt><trkpt lat="41.5248953" lon="1.5308196"><ele>576.8</ele><time>2026-04-19T08:56:19.032Z</time></trkpt><trkpt lat="41.5248055" lon="1.5308243"><ele>578.0</ele><time>2026-04-19T08:56:20.031Z</time></trkpt><trkpt lat="41.5247223" lon="1.5308508"><ele>578.0</ele><time>2026-04-19T08:56:21.032Z</time></trkpt><trkpt lat="41.5246459" lon="1.5309084"><ele>578.0</ele><time>2026-04-19T08:56:22.032Z</time></trkpt><trkpt lat="41.5245862" lon="1.5309937"><ele>578.0</ele><time>2026-04-19T08:56:23.032Z</time></trkpt><trkpt lat="41.5245509" lon="1.5311024"><ele>578.0</ele><time>2026-04-19T08:56:24.032Z</time></trkpt><trkpt lat="41.5245311" lon="1.5312354"><ele>578.0</ele><time>2026-04-19T08:56:25.032Z</time></trkpt><trkpt lat="41.5245215" lon="1.5313835"><ele>578.1999999999999</ele><time>2026-04-19T08:56:26.032Z</time></trkpt><trkpt lat="41.5245095" lon="1.531529"><ele>578.4</ele><time>2026-04-19T08:56:27.032Z</time></trkpt><trkpt lat="41.5244968" lon="1.5316652"><ele>578.5999999999999</ele><time>2026-04-19T08:56:28.032Z</time></trkpt><trkpt lat="41.5244709" lon="1.5317915"><ele>578.8</ele><time>2026-04-19T08:56:29.032Z</time></trkpt><trkpt lat="41.5244236" lon="1.5318972"><ele>579.0</ele><time>2026-04-19T08:56:30.032Z</time></trkpt><trkpt lat="41.5243609" lon="1.5319611"><ele>579.0</ele><time>2026-04-19T08:56:31.032Z</time></trkpt><trkpt lat="41.5242902" lon="1.5319972"><ele>579.0</ele><time>2026-04-19T08:56:32.032Z</time></trkpt><trkpt lat="41.5241969" lon="1.5319981"><ele>579.0</ele><time>2026-04-19T08:56:33.031Z</time></trkpt><trkpt lat="41.5240927" lon="1.5319954"><ele>579.0</ele><time>2026-04-19T08:56:34.031Z</time></trkpt><trkpt lat="41.5239851" lon="1.531985"><ele>579.0</ele><time>2026-04-19T08:56:35.031Z</time></trkpt><trkpt lat="41.5238683" lon="1.531972"><ele>579.0</ele><time>2026-04-19T08:56:36.031Z</time></trkpt><trkpt lat="41.5237499" lon="1.5319622"><ele>579.0</ele><time>2026-04-19T08:56:37.032Z</time></trkpt><trkpt lat="41.5236323" lon="1.531948"><ele>579.0</ele><time>2026-04-19T08:56:38.031Z</time></trkpt><trkpt lat="41.523522" lon="1.5319211"><ele>579.0</ele><time>2026-04-19T08:56:39.032Z</time></trkpt><trkpt lat="41.5234209" lon="1.5318673"><ele>576.2</ele><time>2026-04-19T08:56:40.032Z</time></trkpt><trkpt lat="41.5233353" lon="1.5317887"><ele>573.4</ele><time>2026-04-19T08:56:41.031Z</time></trkpt><trkpt lat="41.5232617" lon="1.5316843"><ele>570.6</ele><time>2026-04-19T08:56:42.032Z</time></trkpt><trkpt lat="41.5232107" lon="1.5315537"><ele>567.8</ele><time>2026-04-19T08:56:43.032Z</time></trkpt><trkpt lat="41.5231679" lon="1.5314066"><ele>565.0</ele><time>2026-04-19T08:56:44.032Z</time></trkpt><trkpt lat="41.5231287" lon="1.5312463"><ele>567.75</ele><time>2026-04-19T08:56:45.032Z</time></trkpt><trkpt lat="41.5230931" lon="1.5310819"><ele>570.5</ele><time>2026-04-19T08:56:46.032Z</time></trkpt><trkpt lat="41.5230585" lon="1.5309043"><ele>573.25</ele><time>2026-04-19T08:56:47.032Z</time></trkpt><trkpt lat="41.5230229" lon="1.5307194"><ele>576.0</ele><time>2026-04-19T08:56:48.032Z</time></trkpt><trkpt lat="41.5229834" lon="1.5305434"><ele>577.0</ele><time>2026-04-19T08:56:49.031Z</time></trkpt><trkpt lat="41.522946" lon="1.5303712"><ele>578.0</ele><time>2026-04-19T08:56:50.031Z</time></trkpt><trkpt lat="41.5229111" lon="1.5301978"><ele>579.0</ele><time>2026-04-19T08:56:51.031Z</time></trkpt><trkpt lat="41.5228779" lon="1.5300261"><ele>580.0</ele><time>2026-04-19T08:56:52.031Z</time></trkpt><trkpt lat="41.5228372" lon="1.5298611"><ele>574.0</ele><time>2026-04-19T08:56:53.032Z</time></trkpt><trkpt lat="41.5227831" lon="1.5297028"><ele>568.0</ele><time>2026-04-19T08:56:54.032Z</time></trkpt><trkpt lat="41.5226926" lon="1.5295624"><ele>562.0</ele><time>2026-04-19T08:56:55.032Z</time></trkpt><trkpt lat="41.522585" lon="1.5294283"><ele>556.0</ele><time>2026-04-19T08:56:56.032Z</time></trkpt><trkpt lat="41.5224493" lon="1.5293176"><ele>556.0</ele><time>2026-04-19T08:56:57.032Z</time></trkpt><trkpt lat="41.5223092" lon="1.529217"><ele>556.0</ele><time>2026-04-19T08:56:58.032Z</time></trkpt><trkpt lat="41.5221782" lon="1.5291014"><ele>556.0</ele><time>2026-04-19T08:56:59.031Z</time></trkpt><trkpt lat="41.5220456" lon="1.52898"><ele>556.25</ele><time>2026-04-19T08:57:00.032Z</time></trkpt><trkpt lat="41.5219186" lon="1.5289121"><ele>556.5</ele><time>2026-04-19T08:57:01.031Z</time></trkpt><trkpt lat="41.5217964" lon="1.5288279"><ele>556.75</ele><time>2026-04-19T08:57:02.031Z</time></trkpt><trkpt lat="41.5216772" lon="1.5287388"><ele>557.0</ele><time>2026-04-19T08:57:03.031Z</time></trkpt><trkpt lat="41.5215594" lon="1.5286556"><ele>557.0</ele><time>2026-04-19T08:57:04.032Z</time></trkpt><trkpt lat="41.5214585" lon="1.5285833"><ele>557.0</ele><time>2026-04-19T08:57:05.031Z</time></trkpt><trkpt lat="41.5213658" lon="1.5285104"><ele>557.0</ele><time>2026-04-19T08:57:06.031Z</time></trkpt><trkpt lat="41.5212721" lon="1.5284408"><ele>557.0</ele><time>2026-04-19T08:57:07.032Z</time></trkpt><trkpt lat="41.5211799" lon="1.5283749"><ele>557.0</ele><time>2026-04-19T08:57:08.031Z</time></trkpt><trkpt lat="41.5210871" lon="1.5283105"><ele>556.2</ele><time>2026-04-19T08:57:09.031Z</time></trkpt><trkpt lat="41.5209999" lon="1.5282437"><ele>555.4000000000001</ele><time>2026-04-19T08:57:10.032Z</time></trkpt><trkpt lat="41.520907" lon="1.5281783"><ele>554.5999999999999</ele><time>2026-04-19T08:57:11.032Z</time></trkpt><trkpt lat="41.520812" lon="1.5281123"><ele>553.8</ele><time>2026-04-19T08:57:12.031Z</time></trkpt><trkpt lat="41.5207187" lon="1.5280417"><ele>553.0</ele><time>2026-04-19T08:57:13.032Z</time></trkpt><trkpt lat="41.5206162" lon="1.5279707"><ele>553.75</ele><time>2026-04-19T08:57:14.032Z</time></trkpt><trkpt lat="41.520514" lon="1.5278931"><ele>554.5</ele><time>2026-04-19T08:57:15.032Z</time></trkpt><trkpt lat="41.5204094" lon="1.5278068"><ele>555.25</ele><time>2026-04-19T08:57:16.032Z</time></trkpt><trkpt lat="41.5203057" lon="1.5277143"><ele>556.0</ele><time>2026-04-19T08:57:17.032Z</time></trkpt><trkpt lat="41.520212" lon="1.5276046"><ele>556.0</ele><time>2026-04-19T08:57:18.032Z</time></trkpt><trkpt lat="41.5201364" lon="1.5274711"><ele>556.0</ele><time>2026-04-19T08:57:19.031Z</time></trkpt><trkpt lat="41.5200764" lon="1.5273227"><ele>556.0</ele><time>2026-04-19T08:57:20.032Z</time></trkpt><trkpt lat="41.5200252" lon="1.5271706"><ele>556.0</ele><time>2026-04-19T08:57:21.032Z</time></trkpt><trkpt lat="41.5199859" lon="1.5270112"><ele>556.75</ele><time>2026-04-19T08:57:22.031Z</time></trkpt><trkpt lat="41.5199475" lon="1.5268442"><ele>557.5</ele><time>2026-04-19T08:57:23.032Z</time></trkpt><trkpt lat="41.5199083" lon="1.5266735"><ele>558.25</ele><time>2026-04-19T08:57:24.031Z</time></trkpt><trkpt lat="41.5198669" lon="1.5264913"><ele>559.0</ele><time>2026-04-19T08:57:25.031Z</time></trkpt><trkpt lat="41.5198226" lon="1.5262963"><ele>560.0</ele><time>2026-04-19T08:57:26.032Z</time></trkpt><trkpt lat="41.5197762" lon="1.5260921"><ele>561.0</ele><time>2026-04-19T08:57:27.032Z</time></trkpt><trkpt lat="41.5197319" lon="1.525883"><ele>562.0</ele><time>2026-04-19T08:57:28.032Z</time></trkpt><trkpt lat="41.5196857" lon="1.5256697"><ele>562.0</ele><time>2026-04-19T08:57:29.032Z</time></trkpt><trkpt lat="41.5196376" lon="1.5254641"><ele>562.0</ele><time>2026-04-19T08:57:30.032Z</time></trkpt><trkpt lat="41.5195968" lon="1.5252676"><ele>562.0</ele><time>2026-04-19T08:57:31.031Z</time></trkpt><trkpt lat="41.5195533" lon="1.5250783"><ele>559.75</ele><time>2026-04-19T08:57:32.032Z</time></trkpt><trkpt lat="41.5195056" lon="1.5249136"><ele>557.5</ele><time>2026-04-19T08:57:33.032Z</time></trkpt><trkpt lat="41.5194481" lon="1.5247788"><ele>555.25</ele><time>2026-04-19T08:57:34.031Z</time></trkpt><trkpt lat="41.5193689" lon="1.5246681"><ele>553.0</ele><time>2026-04-19T08:57:35.032Z</time></trkpt><trkpt lat="41.5192724" lon="1.524594"><ele>553.0</ele><time>2026-04-19T08:57:36.032Z</time></trkpt><trkpt lat="41.5191569" lon="1.5245637"><ele>553.0</ele><time>2026-04-19T08:57:37.032Z</time></trkpt><trkpt lat="41.5190306" lon="1.5245725"><ele>553.0</ele><time>2026-04-19T08:57:38.032Z</time></trkpt><trkpt lat="41.5188924" lon="1.5245971"><ele>553.0</ele><time>2026-04-19T08:57:39.031Z</time></trkpt><trkpt lat="41.518745" lon="1.5246248"><ele>553.5</ele><time>2026-04-19T08:57:40.031Z</time></trkpt><trkpt lat="41.5186065" lon="1.5246474"><ele>554.0</ele><time>2026-04-19T08:57:41.032Z</time></trkpt><trkpt lat="41.5184594" lon="1.5246691"><ele>554.5</ele><time>2026-04-19T08:57:42.032Z</time></trkpt><trkpt lat="41.5183223" lon="1.5247018"><ele>555.0</ele><time>2026-04-19T08:57:43.031Z</time></trkpt><trkpt lat="41.5181885" lon="1.5247368"><ele>555.0</ele><time>2026-04-19T08:57:44.031Z</time></trkpt><trkpt lat="41.5180612" lon="1.524778"><ele>555.0</ele><time>2026-04-19T08:57:45.032Z</time></trkpt><trkpt lat="41.5179377" lon="1.5248172"><ele>555.0</ele><time>2026-04-19T08:57:46.031Z</time></trkpt><trkpt lat="41.5178151" lon="1.5248573"><ele>555.0</ele><time>2026-04-19T08:57:47.031Z</time></trkpt><trkpt lat="41.5176882" lon="1.5248775"><ele>554.5</ele><time>2026-04-19T08:57:48.032Z</time></trkpt><trkpt lat="41.5175581" lon="1.5248813"><ele>554.0</ele><time>2026-04-19T08:57:49.031Z</time></trkpt><trkpt lat="41.5174193" lon="1.5248709"><ele>553.5</ele><time>2026-04-19T08:57:50.032Z</time></trkpt><trkpt lat="41.5172776" lon="1.5248579"><ele>553.0</ele><time>2026-04-19T08:57:51.032Z</time></trkpt><trkpt lat="41.5171307" lon="1.5248503"><ele>550.0</ele><time>2026-04-19T08:57:52.031Z</time></trkpt><trkpt lat="41.5169757" lon="1.524836"><ele>547.0</ele><time>2026-04-19T08:57:53.032Z</time></trkpt><trkpt lat="41.5168264" lon="1.5248218"><ele>544.0</ele><time>2026-04-19T08:57:54.032Z</time></trkpt><trkpt lat="41.5166801" lon="1.5248121"><ele>544.0</ele><time>2026-04-19T08:57:55.031Z</time></trkpt><trkpt lat="41.5165311" lon="1.5248013"><ele>544.0</ele><time>2026-04-19T08:57:56.032Z</time></trkpt><trkpt lat="41.5163813" lon="1.5247867"><ele>544.0</ele><time>2026-04-19T08:57:57.031Z</time></trkpt><trkpt lat="41.5162296" lon="1.5247776"><ele>542.3333333333334</ele><time>2026-04-19T08:57:58.032Z</time></trkpt><trkpt lat="41.5160781" lon="1.5247935"><ele>540.6666666666666</ele><time>2026-04-19T08:57:59.032Z</time></trkpt><trkpt lat="41.5159231" lon="1.5248381"><ele>539.0</ele><time>2026-04-19T08:58:00.032Z</time></trkpt><trkpt lat="41.5157635" lon="1.5248912"><ele>539.0</ele><time>2026-04-19T08:58:01.032Z</time></trkpt><trkpt lat="41.5156048" lon="1.5249562"><ele>539.0</ele><time>2026-04-19T08:58:02.032Z</time></trkpt><trkpt lat="41.5154434" lon="1.5250202"><ele>539.0</ele><time>2026-04-19T08:58:03.031Z</time></trkpt><trkpt lat="41.5152803" lon="1.5250809"><ele>538.0</ele><time>2026-04-19T08:58:04.032Z</time></trkpt><trkpt lat="41.5151145" lon="1.525148"><ele>537.0</ele><time>2026-04-19T08:58:05.031Z</time></trkpt><trkpt lat="41.5149524" lon="1.5252165"><ele>536.0</ele><time>2026-04-19T08:58:06.032Z</time></trkpt><trkpt lat="41.5147871" lon="1.5252907"><ele>536.0</ele><time>2026-04-19T08:58:07.031Z</time></trkpt><trkpt lat="41.5146138" lon="1.5253498"><ele>536.0</ele><time>2026-04-19T08:58:08.032Z</time></trkpt><trkpt lat="41.5144422" lon="1.5254139"><ele>536.0</ele><time>2026-04-19T08:58:09.031Z</time></trkpt><trkpt lat="41.5142691" lon="1.5254877"><ele>534.6666666666666</ele><time>2026-04-19T08:58:10.032Z</time></trkpt><trkpt lat="41.5140979" lon="1.5255562"><ele>533.3333333333334</ele><time>2026-04-19T08:58:11.031Z</time></trkpt><trkpt lat="41.5139268" lon="1.5256235"><ele>532.0</ele><time>2026-04-19T08:58:12.032Z</time></trkpt><trkpt lat="41.5137575" lon="1.5256913"><ele>530.6666666666667</ele><time>2026-04-19T08:58:13.031Z</time></trkpt><trkpt lat="41.5135934" lon="1.5257605"><ele>529.3333333333334</ele><time>2026-04-19T08:58:14.032Z</time></trkpt><trkpt lat="41.5134343" lon="1.5258252"><ele>528.0</ele><time>2026-04-19T08:58:15.031Z</time></trkpt><trkpt lat="41.5132851" lon="1.5258822"><ele>528.0</ele><time>2026-04-19T08:58:16.031Z</time></trkpt><trkpt lat="41.5131493" lon="1.5259389"><ele>528.0</ele><time>2026-04-19T08:58:17.032Z</time></trkpt><trkpt lat="41.5130281" lon="1.5260286"><ele>528.0</ele><time>2026-04-19T08:58:18.032Z</time></trkpt><trkpt lat="41.5129246" lon="1.5261528"><ele>528.0</ele><time>2026-04-19T08:58:19.032Z</time></trkpt><trkpt lat="41.5128354" lon="1.526319"><ele>524.3333333333334</ele><time>2026-04-19T08:58:20.032Z</time></trkpt><trkpt lat="41.5127537" lon="1.5265131"><ele>520.6666666666667</ele><time>2026-04-19T08:58:21.032Z</time></trkpt><trkpt lat="41.5126699" lon="1.5267354"><ele>517.0</ele><time>2026-04-19T08:58:22.032Z</time></trkpt><trkpt lat="41.5125809" lon="1.5269638"><ele>516.0</ele><time>2026-04-19T08:58:23.031Z</time></trkpt><trkpt lat="41.5124959" lon="1.5271936"><ele>515.0</ele><time>2026-04-19T08:58:24.031Z</time></trkpt><trkpt lat="41.5124107" lon="1.5274277"><ele>514.0</ele><time>2026-04-19T08:58:25.032Z</time></trkpt><trkpt lat="41.512327" lon="1.5276608"><ele>514.0</ele><time>2026-04-19T08:58:26.031Z</time></trkpt><trkpt lat="41.5122431" lon="1.5278885"><ele>514.0</ele><time>2026-04-19T08:58:27.032Z</time></trkpt><trkpt lat="41.5121597" lon="1.5281116"><ele>514.0</ele><time>2026-04-19T08:58:28.032Z</time></trkpt><trkpt lat="41.5120751" lon="1.528329"><ele>512.0</ele><time>2026-04-19T08:58:29.032Z</time></trkpt><trkpt lat="41.5119926" lon="1.5285444"><ele>510.0</ele><time>2026-04-19T08:58:30.031Z</time></trkpt><trkpt lat="41.5119108" lon="1.5287542"><ele>508.0</ele><time>2026-04-19T08:58:31.032Z</time></trkpt><trkpt lat="41.5118366" lon="1.5289577"><ele>508.0</ele><time>2026-04-19T08:58:32.032Z</time></trkpt><trkpt lat="41.5117612" lon="1.5291606"><ele>508.0</ele><time>2026-04-19T08:58:33.031Z</time></trkpt><trkpt lat="41.5116846" lon="1.5293535"><ele>508.0</ele><time>2026-04-19T08:58:34.032Z</time></trkpt><trkpt lat="41.5116009" lon="1.5295392"><ele>507.33333333333337</ele><time>2026-04-19T08:58:35.032Z</time></trkpt><trkpt lat="41.5115037" lon="1.5297176"><ele>506.66666666666663</ele><time>2026-04-19T08:58:36.031Z</time></trkpt><trkpt lat="41.5113865" lon="1.5298856"><ele>506.0</ele><time>2026-04-19T08:58:37.032Z</time></trkpt><trkpt lat="41.5112532" lon="1.5300559"><ele>505.0</ele><time>2026-04-19T08:58:38.031Z</time></trkpt><trkpt lat="41.5111142" lon="1.5302252"><ele>504.0</ele><time>2026-04-19T08:58:39.032Z</time></trkpt><trkpt lat="41.5109709" lon="1.5304009"><ele>503.0</ele><time>2026-04-19T08:58:40.032Z</time></trkpt><trkpt lat="41.510825" lon="1.530584"><ele>503.0</ele><time>2026-04-19T08:58:41.031Z</time></trkpt><trkpt lat="41.5106803" lon="1.5307646"><ele>503.0</ele><time>2026-04-19T08:58:42.032Z</time></trkpt><trkpt lat="41.5105387" lon="1.5309382"><ele>503.0</ele><time>2026-04-19T08:58:43.031Z</time></trkpt><trkpt lat="41.5103888" lon="1.5311188"><ele>500.66666666666663</ele><time>2026-04-19T08:58:44.032Z</time></trkpt><trkpt lat="41.5102393" lon="1.5313061"><ele>498.33333333333337</ele><time>2026-04-19T08:58:45.031Z</time></trkpt><trkpt lat="41.5100969" lon="1.5314861"><ele>496.0</ele><time>2026-04-19T08:58:46.032Z</time></trkpt><trkpt lat="41.5099595" lon="1.5316583"><ele>496.0</ele><time>2026-04-19T08:58:47.031Z</time></trkpt><trkpt lat="41.5098271" lon="1.5318223"><ele>496.0</ele><time>2026-04-19T08:58:48.031Z</time></trkpt><trkpt lat="41.5097018" lon="1.5319709"><ele>496.0</ele><time>2026-04-19T08:58:49.031Z</time></trkpt><trkpt lat="41.5095952" lon="1.5321119"><ele>499.5</ele><time>2026-04-19T08:58:50.032Z</time></trkpt><trkpt lat="41.5095077" lon="1.532249"><ele>503.0</ele><time>2026-04-19T08:58:51.031Z</time></trkpt><trkpt lat="41.5094489" lon="1.5323942"><ele>506.5</ele><time>2026-04-19T08:58:52.032Z</time></trkpt><trkpt lat="41.5094126" lon="1.5325439"><ele>510.0</ele><time>2026-04-19T08:58:53.031Z</time></trkpt><trkpt lat="41.5093835" lon="1.5327068"><ele>509.75</ele><time>2026-04-19T08:58:54.031Z</time></trkpt><trkpt lat="41.5093887" lon="1.5328957"><ele>509.5</ele><time>2026-04-19T08:58:55.032Z</time></trkpt><trkpt lat="41.5093874" lon="1.533069"><ele>509.25</ele><time>2026-04-19T08:58:56.031Z</time></trkpt><trkpt lat="41.5093611" lon="1.5332308"><ele>509.0</ele><time>2026-04-19T08:58:57.032Z</time></trkpt><trkpt lat="41.5093023" lon="1.5333932"><ele>509.0</ele><time>2026-04-19T08:58:58.031Z</time></trkpt><trkpt lat="41.5092137" lon="1.5335297"><ele>509.0</ele><time>2026-04-19T08:58:59.031Z</time></trkpt><trkpt lat="41.5091259" lon="1.5336588"><ele>509.0</ele><time>2026-04-19T08:59:00.031Z</time></trkpt><trkpt lat="41.5089799" lon="1.5338067"><ele>509.0</ele><time>2026-04-19T08:59:01.032Z</time></trkpt><trkpt lat="41.5088525" lon="1.5339516"><ele>510.0</ele><time>2026-04-19T08:59:02.032Z</time></trkpt><trkpt lat="41.5087126" lon="1.5340906"><ele>511.0</ele><time>2026-04-19T08:59:03.032Z</time></trkpt><trkpt lat="41.5085782" lon="1.5342288"><ele>512.0</ele><time>2026-04-19T08:59:04.031Z</time></trkpt><trkpt lat="41.5084381" lon="1.5343669"><ele>512.0</ele><time>2026-04-19T08:59:05.032Z</time></trkpt><trkpt lat="41.508304" lon="1.534505"><ele>512.0</ele><time>2026-04-19T08:59:06.032Z</time></trkpt><trkpt lat="41.5081784" lon="1.5346383"><ele>512.0</ele><time>2026-04-19T08:59:07.031Z</time></trkpt><trkpt lat="41.5080566" lon="1.534757"><ele>510.5</ele><time>2026-04-19T08:59:08.032Z</time></trkpt><trkpt lat="41.5079364" lon="1.5348552"><ele>509.0</ele><time>2026-04-19T08:59:09.031Z</time></trkpt><trkpt lat="41.507812" lon="1.5349194"><ele>507.5</ele><time>2026-04-19T08:59:10.031Z</time></trkpt><trkpt lat="41.5076899" lon="1.5349291"><ele>506.0</ele><time>2026-04-19T08:59:11.031Z</time></trkpt><trkpt lat="41.5075603" lon="1.5349272"><ele>506.0</ele><time>2026-04-19T08:59:12.032Z</time></trkpt><trkpt lat="41.5074219" lon="1.5348476"><ele>506.0</ele><time>2026-04-19T08:59:13.032Z</time></trkpt><trkpt lat="41.5072789" lon="1.534759"><ele>506.0</ele><time>2026-04-19T08:59:14.032Z</time></trkpt><trkpt lat="41.5071385" lon="1.5346681"><ele>506.3333333333333</ele><time>2026-04-19T08:59:15.031Z</time></trkpt><trkpt lat="41.5069985" lon="1.5345821"><ele>506.66666666666663</ele><time>2026-04-19T08:59:16.031Z</time></trkpt><trkpt lat="41.5068599" lon="1.5344982"><ele>507.0</ele><time>2026-04-19T08:59:17.031Z</time></trkpt><trkpt lat="41.506724" lon="1.5344151"><ele>507.0</ele><time>2026-04-19T08:59:18.032Z</time></trkpt><trkpt lat="41.506601" lon="1.5343366"><ele>507.0</ele><time>2026-04-19T08:59:19.032Z</time></trkpt><trkpt lat="41.50649" lon="1.5342588"><ele>507.0</ele><time>2026-04-19T08:59:20.031Z</time></trkpt><trkpt lat="41.5063822" lon="1.5341782"><ele>507.0</ele><time>2026-04-19T08:59:21.031Z</time></trkpt><trkpt lat="41.5062951" lon="1.5340755"><ele>505.5</ele><time>2026-04-19T08:59:22.032Z</time></trkpt><trkpt lat="41.5062201" lon="1.533948"><ele>504.0</ele><time>2026-04-19T08:59:23.031Z</time></trkpt><trkpt lat="41.5061516" lon="1.5338198"><ele>502.5</ele><time>2026-04-19T08:59:24.032Z</time></trkpt><trkpt lat="41.5061106" lon="1.5336539"><ele>501.0</ele><time>2026-04-19T08:59:25.032Z</time></trkpt><trkpt lat="41.5060869" lon="1.5334867"><ele>501.0</ele><time>2026-04-19T08:59:26.032Z</time></trkpt><trkpt lat="41.5060654" lon="1.5333202"><ele>501.0</ele><time>2026-04-19T08:59:27.031Z</time></trkpt><trkpt lat="41.5060434" lon="1.5331647"><ele>501.0</ele><time>2026-04-19T08:59:28.032Z</time></trkpt><trkpt lat="41.5060031" lon="1.5330406"><ele>501.0</ele><time>2026-04-19T08:59:29.031Z</time></trkpt><trkpt lat="41.5059453" lon="1.5329402"><ele>501.0</ele><time>2026-04-19T08:59:30.031Z</time></trkpt><trkpt lat="41.5058698" lon="1.5328642"><ele>501.6666666666667</ele><time>2026-04-19T08:59:31.032Z</time></trkpt><trkpt lat="41.5057802" lon="1.5328044"><ele>502.33333333333337</ele><time>2026-04-19T08:59:32.032Z</time></trkpt><trkpt lat="41.5057105" lon="1.5327587"><ele>503.0</ele><time>2026-04-19T08:59:33.032Z</time></trkpt><trkpt lat="41.5056302" lon="1.5326979"><ele>503.6666666666667</ele><time>2026-04-19T08:59:35.031Z</time></trkpt><trkpt lat="41.5055526" lon="1.5326969"><ele>504.33333333333337</ele><time>2026-04-19T09:01:00.032Z</time></trkpt><trkpt lat="41.5054893" lon="1.5326849"><ele>505.0</ele><time>2026-04-19T09:01:01.032Z</time></trkpt><trkpt lat="41.5054173" lon="1.5326668"><ele>503.0</ele><time>2026-04-19T09:01:02.032Z</time></trkpt><trkpt lat="41.5053262" lon="1.5326431"><ele>501.0</ele><time>2026-04-19T09:01:03.032Z</time></trkpt><trkpt lat="41.5052324" lon="1.5326201"><ele>499.0</ele><time>2026-04-19T09:01:04.032Z</time></trkpt><trkpt lat="41.5051277" lon="1.5325871"><ele>497.0</ele><time>2026-04-19T09:01:05.031Z</time></trkpt><trkpt lat="41.505016" lon="1.53255"><ele>495.0</ele><time>2026-04-19T09:01:06.032Z</time></trkpt><trkpt lat="41.5049012" lon="1.5325103"><ele>495.0</ele><time>2026-04-19T09:01:07.032Z</time></trkpt><trkpt lat="41.5047832" lon="1.5324734"><ele>495.0</ele><time>2026-04-19T09:01:08.031Z</time></trkpt><trkpt lat="41.5046609" lon="1.5324363"><ele>495.0</ele><time>2026-04-19T09:01:09.032Z</time></trkpt><trkpt lat="41.5045377" lon="1.5323905"><ele>495.0</ele><time>2026-04-19T09:01:10.032Z</time></trkpt><trkpt lat="41.5044116" lon="1.5323454"><ele>494.5</ele><time>2026-04-19T09:01:11.032Z</time></trkpt><trkpt lat="41.5042785" lon="1.5323022"><ele>494.0</ele><time>2026-04-19T09:01:12.031Z</time></trkpt><trkpt lat="41.5041463" lon="1.5322606"><ele>493.5</ele><time>2026-04-19T09:01:13.031Z</time></trkpt><trkpt lat="41.5040061" lon="1.5322124"><ele>493.0</ele><time>2026-04-19T09:01:14.032Z</time></trkpt><trkpt lat="41.5038708" lon="1.5321448"><ele>492.6666666666667</ele><time>2026-04-19T09:01:15.032Z</time></trkpt><trkpt lat="41.50374" lon="1.5320597"><ele>492.33333333333337</ele><time>2026-04-19T09:01:16.032Z</time></trkpt><trkpt lat="41.5036033" lon="1.5319539"><ele>492.0</ele><time>2026-04-19T09:01:17.032Z</time></trkpt><trkpt lat="41.5034592" lon="1.5318333"><ele>493.33333333333337</ele><time>2026-04-19T09:01:18.031Z</time></trkpt><trkpt lat="41.5033121" lon="1.5317084"><ele>494.6666666666667</ele><time>2026-04-19T09:01:19.031Z</time></trkpt><trkpt lat="41.5031635" lon="1.5315835"><ele>496.0</ele><time>2026-04-19T09:01:20.032Z</time></trkpt><trkpt lat="41.5030171" lon="1.5314564"><ele>495.33333333333337</ele><time>2026-04-19T09:01:21.031Z</time></trkpt><trkpt lat="41.502869" lon="1.5313326"><ele>494.66666666666663</ele><time>2026-04-19T09:01:22.031Z</time></trkpt><trkpt lat="41.502722" lon="1.5312058"><ele>494.0</ele><time>2026-04-19T09:01:23.032Z</time></trkpt><trkpt lat="41.5025712" lon="1.5310743"><ele>494.0</ele><time>2026-04-19T09:01:24.032Z</time></trkpt><trkpt lat="41.502418" lon="1.5309423"><ele>494.0</ele><time>2026-04-19T09:01:25.032Z</time></trkpt><trkpt lat="41.5022672" lon="1.5308117"><ele>494.0</ele><time>2026-04-19T09:01:26.032Z</time></trkpt><trkpt lat="41.5021225" lon="1.5306888"><ele>494.66666666666663</ele><time>2026-04-19T09:01:27.031Z</time></trkpt><trkpt lat="41.5019838" lon="1.5305761"><ele>495.33333333333337</ele><time>2026-04-19T09:01:28.031Z</time></trkpt><trkpt lat="41.501844" lon="1.53048"><ele>496.0</ele><time>2026-04-19T09:01:29.031Z</time></trkpt><trkpt lat="41.5017137" lon="1.5303948"><ele>497.0</ele><time>2026-04-19T09:01:30.032Z</time></trkpt><trkpt lat="41.5015867" lon="1.5303018"><ele>498.0</ele><time>2026-04-19T09:01:31.031Z</time></trkpt><trkpt lat="41.5014766" lon="1.5301666"><ele>499.0</ele><time>2026-04-19T09:01:32.031Z</time></trkpt><trkpt lat="41.5013748" lon="1.5300087"><ele>499.0</ele><time>2026-04-19T09:01:33.032Z</time></trkpt><trkpt lat="41.5012901" lon="1.5298216"><ele>499.0</ele><time>2026-04-19T09:01:34.032Z</time></trkpt><trkpt lat="41.5012111" lon="1.5296183"><ele>499.0</ele><time>2026-04-19T09:01:35.032Z</time></trkpt><trkpt lat="41.5011338" lon="1.5294091"><ele>499.33333333333337</ele><time>2026-04-19T09:01:36.032Z</time></trkpt><trkpt lat="41.5010519" lon="1.5292036"><ele>499.66666666666663</ele><time>2026-04-19T09:01:37.032Z</time></trkpt><trkpt lat="41.5009755" lon="1.528997"><ele>500.0</ele><time>2026-04-19T09:01:38.032Z</time></trkpt><trkpt lat="41.5009023" lon="1.5287998"><ele>501.3333333333333</ele><time>2026-04-19T09:01:39.032Z</time></trkpt><trkpt lat="41.5008291" lon="1.5286022"><ele>502.66666666666663</ele><time>2026-04-19T09:01:40.031Z</time></trkpt><trkpt lat="41.5007504" lon="1.5284122"><ele>504.0</ele><time>2026-04-19T09:01:41.031Z</time></trkpt><trkpt lat="41.5006788" lon="1.5282253"><ele>504.0</ele><time>2026-04-19T09:01:42.032Z</time></trkpt><trkpt lat="41.5006066" lon="1.528043"><ele>504.0</ele><time>2026-04-19T09:01:43.032Z</time></trkpt><trkpt lat="41.5005378" lon="1.527862"><ele>504.0</ele><time>2026-04-19T09:01:44.032Z</time></trkpt><trkpt lat="41.5004688" lon="1.527676"><ele>502.66666666666663</ele><time>2026-04-19T09:01:45.032Z</time></trkpt><trkpt lat="41.5003956" lon="1.5274873"><ele>501.3333333333333</ele><time>2026-04-19T09:01:46.032Z</time></trkpt><trkpt lat="41.5003234" lon="1.5272988"><ele>500.0</ele><time>2026-04-19T09:01:47.032Z</time></trkpt><trkpt lat="41.5002473" lon="1.5271046"><ele>500.0</ele><time>2026-04-19T09:01:48.031Z</time></trkpt><trkpt lat="41.500167" lon="1.5269079"><ele>500.0</ele><time>2026-04-19T09:01:49.032Z</time></trkpt><trkpt lat="41.5000854" lon="1.5267091"><ele>500.0</ele><time>2026-04-19T09:01:50.032Z</time></trkpt><trkpt lat="41.5000058" lon="1.526503"><ele>500.0</ele><time>2026-04-19T09:01:51.031Z</time></trkpt><trkpt lat="41.4999262" lon="1.5262939"><ele>500.0</ele><time>2026-04-19T09:01:52.031Z</time></trkpt><trkpt lat="41.4998444" lon="1.5260886"><ele>500.0</ele><time>2026-04-19T09:01:53.032Z</time></trkpt><trkpt lat="41.499763" lon="1.5258852"><ele>501.3333333333333</ele><time>2026-04-19T09:01:54.031Z</time></trkpt><trkpt lat="41.4996792" lon="1.5256812"><ele>502.66666666666663</ele><time>2026-04-19T09:01:55.032Z</time></trkpt><trkpt lat="41.499595" lon="1.5254762"><ele>504.0</ele><time>2026-04-19T09:01:56.031Z</time></trkpt><trkpt lat="41.4995104" lon="1.5252619"><ele>504.0</ele><time>2026-04-19T09:01:57.032Z</time></trkpt><trkpt lat="41.4994286" lon="1.5250476"><ele>504.0</ele><time>2026-04-19T09:01:58.032Z</time></trkpt><trkpt lat="41.4993358" lon="1.5248178"><ele>504.0</ele><time>2026-04-19T09:01:59.031Z</time></trkpt><trkpt lat="41.499238" lon="1.5245739"><ele>505.0</ele><time>2026-04-19T09:02:00.032Z</time></trkpt><trkpt lat="41.4991381" lon="1.5243266"><ele>506.0</ele><time>2026-04-19T09:02:01.031Z</time></trkpt><trkpt lat="41.4990398" lon="1.5240793"><ele>507.0</ele><time>2026-04-19T09:02:02.032Z</time></trkpt><trkpt lat="41.4989388" lon="1.5238363"><ele>507.66666666666663</ele><time>2026-04-19T09:02:03.031Z</time></trkpt><trkpt lat="41.498827" lon="1.5236041"><ele>508.3333333333333</ele><time>2026-04-19T09:02:04.032Z</time></trkpt><trkpt lat="41.4986971" lon="1.5233806"><ele>509.0</ele><time>2026-04-19T09:02:05.031Z</time></trkpt><trkpt lat="41.4985524" lon="1.523168"><ele>510.0</ele><time>2026-04-19T09:02:06.032Z</time></trkpt><trkpt lat="41.4984029" lon="1.5229596"><ele>511.0</ele><time>2026-04-19T09:02:07.032Z</time></trkpt><trkpt lat="41.4982521" lon="1.5227383"><ele>512.0</ele><time>2026-04-19T09:02:08.031Z</time></trkpt><trkpt lat="41.4980984" lon="1.522503"><ele>512.5</ele><time>2026-04-19T09:02:09.031Z</time></trkpt><trkpt lat="41.4979414" lon="1.5222679"><ele>513.0</ele><time>2026-04-19T09:02:10.032Z</time></trkpt><trkpt lat="41.4977893" lon="1.5220421"><ele>515.0</ele><time>2026-04-19T09:02:11.031Z</time></trkpt><trkpt lat="41.4976448" lon="1.5218233"><ele>517.0</ele><time>2026-04-19T09:02:12.032Z</time></trkpt><trkpt lat="41.4975037" lon="1.5216134"><ele>519.0</ele><time>2026-04-19T09:02:13.031Z</time></trkpt><trkpt lat="41.497365" lon="1.5214057"><ele>517.3333333333334</ele><time>2026-04-19T09:02:14.031Z</time></trkpt><trkpt lat="41.4972333" lon="1.5212042"><ele>515.6666666666667</ele><time>2026-04-19T09:02:15.032Z</time></trkpt><trkpt lat="41.4971166" lon="1.5209892"><ele>514.0</ele><time>2026-04-19T09:02:16.032Z</time></trkpt><trkpt lat="41.4970056" lon="1.5207555"><ele>514.0</ele><time>2026-04-19T09:02:17.032Z</time></trkpt><trkpt lat="41.4969003" lon="1.5205247"><ele>514.0</ele><time>2026-04-19T09:02:18.032Z</time></trkpt><trkpt lat="41.4968018" lon="1.520303"><ele>514.0</ele><time>2026-04-19T09:02:19.032Z</time></trkpt><trkpt lat="41.4967086" lon="1.5200899"><ele>515.6666666666667</ele><time>2026-04-19T09:02:20.032Z</time></trkpt><trkpt lat="41.4966231" lon="1.5198942"><ele>517.3333333333334</ele><time>2026-04-19T09:02:21.032Z</time></trkpt><trkpt lat="41.4965442" lon="1.5197117"><ele>519.0</ele><time>2026-04-19T09:02:22.032Z</time></trkpt><trkpt lat="41.496468" lon="1.5195586"><ele>519.25</ele><time>2026-04-19T09:02:23.031Z</time></trkpt><trkpt lat="41.4963731" lon="1.5194326"><ele>519.5</ele><time>2026-04-19T09:02:24.031Z</time></trkpt><trkpt lat="41.4962581" lon="1.5193409"><ele>519.75</ele><time>2026-04-19T09:02:25.031Z</time></trkpt><trkpt lat="41.4961165" lon="1.5192878"><ele>520.0</ele><time>2026-04-19T09:02:26.032Z</time></trkpt><trkpt lat="41.4959494" lon="1.5192779"><ele>520.0</ele><time>2026-04-19T09:02:27.032Z</time></trkpt><trkpt lat="41.4957625" lon="1.5192913"><ele>520.0</ele><time>2026-04-19T09:02:28.031Z</time></trkpt><trkpt lat="41.4955719" lon="1.5193019"><ele>520.0</ele><time>2026-04-19T09:02:29.032Z</time></trkpt><trkpt lat="41.4953965" lon="1.519308"><ele>521.6666666666667</ele><time>2026-04-19T09:02:30.032Z</time></trkpt><trkpt lat="41.4952346" lon="1.5193135"><ele>523.3333333333334</ele><time>2026-04-19T09:02:31.032Z</time></trkpt><trkpt lat="41.4950853" lon="1.5193125"><ele>525.0</ele><time>2026-04-19T09:02:32.032Z</time></trkpt><trkpt lat="41.4949427" lon="1.5192675"><ele>525.0</ele><time>2026-04-19T09:02:33.032Z</time></trkpt><trkpt lat="41.494789" lon="1.519186"><ele>525.0</ele><time>2026-04-19T09:02:34.032Z</time></trkpt><trkpt lat="41.4946322" lon="1.5190779"><ele>525.0</ele><time>2026-04-19T09:02:35.031Z</time></trkpt><trkpt lat="41.4944736" lon="1.5189665"><ele>525.3333333333334</ele><time>2026-04-19T09:02:36.032Z</time></trkpt><trkpt lat="41.4943263" lon="1.518857"><ele>525.6666666666667</ele><time>2026-04-19T09:02:37.031Z</time></trkpt><trkpt lat="41.4941929" lon="1.5187454"><ele>526.0</ele><time>2026-04-19T09:02:38.032Z</time></trkpt><trkpt lat="41.4940811" lon="1.5186044"><ele>526.0</ele><time>2026-04-19T09:02:39.032Z</time></trkpt><trkpt lat="41.4939902" lon="1.5184308"><ele>526.0</ele><time>2026-04-19T09:02:40.031Z</time></trkpt><trkpt lat="41.4939186" lon="1.51822"><ele>526.0</ele><time>2026-04-19T09:02:41.032Z</time></trkpt><trkpt lat="41.4938658" lon="1.5179825"><ele>528.0</ele><time>2026-04-19T09:02:42.032Z</time></trkpt><trkpt lat="41.4938181" lon="1.5177393"><ele>530.0</ele><time>2026-04-19T09:02:43.032Z</time></trkpt><trkpt lat="41.493767" lon="1.5175025"><ele>532.0</ele><time>2026-04-19T09:02:44.031Z</time></trkpt><trkpt lat="41.4937177" lon="1.5172627"><ele>527.6666666666667</ele><time>2026-04-19T09:02:45.032Z</time></trkpt><trkpt lat="41.4936727" lon="1.5170301"><ele>523.3333333333334</ele><time>2026-04-19T09:02:46.032Z</time></trkpt><trkpt lat="41.4936265" lon="1.5168081"><ele>519.0</ele><time>2026-04-19T09:02:47.032Z</time></trkpt><trkpt lat="41.4935748" lon="1.5166051"><ele>519.0</ele><time>2026-04-19T09:02:48.032Z</time></trkpt><trkpt lat="41.4934991" lon="1.5164105"><ele>519.0</ele><time>2026-04-19T09:02:49.032Z</time></trkpt><trkpt lat="41.4933941" lon="1.5162262"><ele>519.0</ele><time>2026-04-19T09:02:50.031Z</time></trkpt><trkpt lat="41.4932564" lon="1.5160554"><ele>519.6666666666666</ele><time>2026-04-19T09:02:51.032Z</time></trkpt><trkpt lat="41.4931134" lon="1.5158942"><ele>520.3333333333333</ele><time>2026-04-19T09:02:52.032Z</time></trkpt><trkpt lat="41.4929794" lon="1.5157447"><ele>521.0</ele><time>2026-04-19T09:02:53.032Z</time></trkpt><trkpt lat="41.4928607" lon="1.5156185"><ele>521.25</ele><time>2026-04-19T09:02:54.032Z</time></trkpt><trkpt lat="41.4927378" lon="1.5155308"><ele>521.5</ele><time>2026-04-19T09:02:55.032Z</time></trkpt><trkpt lat="41.4926057" lon="1.5154966"><ele>521.75</ele><time>2026-04-19T09:02:56.032Z</time></trkpt><trkpt lat="41.4924661" lon="1.5155136"><ele>522.0</ele><time>2026-04-19T09:02:57.032Z</time></trkpt><trkpt lat="41.4923223" lon="1.5155751"><ele>522.0</ele><time>2026-04-19T09:02:58.032Z</time></trkpt><trkpt lat="41.4921748" lon="1.51565"><ele>522.0</ele><time>2026-04-19T09:02:59.031Z</time></trkpt><trkpt lat="41.4920453" lon="1.5157115"><ele>522.0</ele><time>2026-04-19T09:03:00.031Z</time></trkpt><trkpt lat="41.4919292" lon="1.5157463"><ele>522.0</ele><time>2026-04-19T09:03:01.031Z</time></trkpt><trkpt lat="41.4918186" lon="1.5157254"><ele>522.0</ele><time>2026-04-19T09:03:02.031Z</time></trkpt><trkpt lat="41.4917249" lon="1.5156569"><ele>522.0</ele><time>2026-04-19T09:03:03.032Z</time></trkpt><trkpt lat="41.4916446" lon="1.5155383"><ele>522.0</ele><time>2026-04-19T09:03:04.032Z</time></trkpt><trkpt lat="41.4915666" lon="1.5153877"><ele>522.0</ele><time>2026-04-19T09:03:05.032Z</time></trkpt><trkpt lat="41.4914803" lon="1.5152133"><ele>522.6666666666666</ele><time>2026-04-19T09:03:06.032Z</time></trkpt><trkpt lat="41.4913805" lon="1.5150186"><ele>523.3333333333333</ele><time>2026-04-19T09:03:07.032Z</time></trkpt><trkpt lat="41.4912814" lon="1.5148244"><ele>524.0</ele><time>2026-04-19T09:03:08.032Z</time></trkpt><trkpt lat="41.4911848" lon="1.5146438"><ele>523.75</ele><time>2026-04-19T09:03:09.031Z</time></trkpt><trkpt lat="41.4910963" lon="1.5144732"><ele>523.5</ele><time>2026-04-19T09:03:10.031Z</time></trkpt><trkpt lat="41.4910093" lon="1.5143079"><ele>523.25</ele><time>2026-04-19T09:03:11.031Z</time></trkpt><trkpt lat="41.4909228" lon="1.5141576"><ele>523.0</ele><time>2026-04-19T09:03:12.032Z</time></trkpt><trkpt lat="41.4908458" lon="1.5140262"><ele>523.0</ele><time>2026-04-19T09:03:13.032Z</time></trkpt><trkpt lat="41.4907811" lon="1.5139201"><ele>523.0</ele><time>2026-04-19T09:03:14.032Z</time></trkpt><trkpt lat="41.490726" lon="1.5138291"><ele>523.0</ele><time>2026-04-19T09:03:15.032Z</time></trkpt><trkpt lat="41.4906902" lon="1.5137352"><ele>523.0</ele><time>2026-04-19T09:03:16.031Z</time></trkpt><trkpt lat="41.4906721" lon="1.5136337"><ele>523.0</ele><time>2026-04-19T09:03:17.031Z</time></trkpt><trkpt lat="41.490662" lon="1.5135374"><ele>523.0</ele><time>2026-04-19T09:03:18.032Z</time></trkpt><trkpt lat="41.4906357" lon="1.5134477"><ele>522.7142857142857</ele><time>2026-04-19T09:03:19.031Z</time></trkpt><trkpt lat="41.4905893" lon="1.5133719"><ele>522.4285714285714</ele><time>2026-04-19T09:03:20.031Z</time></trkpt><trkpt lat="41.4905261" lon="1.5133246"><ele>522.1428571428571</ele><time>2026-04-19T09:03:21.032Z</time></trkpt><trkpt lat="41.4904557" lon="1.5133169"><ele>521.8571428571429</ele><time>2026-04-19T09:03:22.032Z</time></trkpt><trkpt lat="41.4903913" lon="1.5133535"><ele>521.5714285714286</ele><time>2026-04-19T09:03:23.032Z</time></trkpt><trkpt lat="41.4903457" lon="1.51343"><ele>521.2857142857142</ele><time>2026-04-19T09:03:24.031Z</time></trkpt><trkpt lat="41.4903213" lon="1.5135267"><ele>521.0</ele><time>2026-04-19T09:03:25.031Z</time></trkpt><trkpt lat="41.4903075" lon="1.5136333"><ele>520.6</ele><time>2026-04-19T09:03:26.031Z</time></trkpt><trkpt lat="41.4902886" lon="1.5137363"><ele>520.2</ele><time>2026-04-19T09:03:27.032Z</time></trkpt><trkpt lat="41.4902658" lon="1.5138486"><ele>519.8</ele><time>2026-04-19T09:03:28.031Z</time></trkpt><trkpt lat="41.4902287" lon="1.5139684"><ele>519.4</ele><time>2026-04-19T09:03:29.032Z</time></trkpt><trkpt lat="41.4901911" lon="1.5140999"><ele>519.0</ele><time>2026-04-19T09:03:30.032Z</time></trkpt><trkpt lat="41.4901574" lon="1.5142409"><ele>519.0</ele><time>2026-04-19T09:03:31.032Z</time></trkpt><trkpt lat="41.4901242" lon="1.5143772"><ele>519.0</ele><time>2026-04-19T09:03:32.032Z</time></trkpt><trkpt lat="41.4900868" lon="1.5145018"><ele>519.0</ele><time>2026-04-19T09:03:33.032Z</time></trkpt><trkpt lat="41.490048" lon="1.5146149"><ele>519.0</ele><time>2026-04-19T09:03:34.031Z</time></trkpt><trkpt lat="41.4899983" lon="1.5147174"><ele>519.0</ele><time>2026-04-19T09:03:35.031Z</time></trkpt><trkpt lat="41.4899428" lon="1.5148104"><ele>519.0</ele><time>2026-04-19T09:03:36.031Z</time></trkpt><trkpt lat="41.4898876" lon="1.5149069"><ele>519.0</ele><time>2026-04-19T09:03:37.032Z</time></trkpt><trkpt lat="41.4898336" lon="1.5150065"><ele>519.0</ele><time>2026-04-19T09:03:38.031Z</time></trkpt><trkpt lat="41.4897839" lon="1.5151023"><ele>519.0</ele><time>2026-04-19T09:03:39.032Z</time></trkpt><trkpt lat="41.4897407" lon="1.5151925"><ele>519.0</ele><time>2026-04-19T09:03:40.032Z</time></trkpt><trkpt lat="41.4896995" lon="1.5152846"><ele>519.0</ele><time>2026-04-19T09:03:41.032Z</time></trkpt><trkpt lat="41.4896657" lon="1.5153713"><ele>519.0</ele><time>2026-04-19T09:03:42.032Z</time></trkpt><trkpt lat="41.4896385" lon="1.5154701"><ele>519.0</ele><time>2026-04-19T09:03:43.031Z</time></trkpt><trkpt lat="41.489618" lon="1.5155694"><ele>519.0</ele><time>2026-04-19T09:03:44.031Z</time></trkpt><trkpt lat="41.4895968" lon="1.5156755"><ele>519.0</ele><time>2026-04-19T09:03:45.031Z</time></trkpt><trkpt lat="41.4895752" lon="1.5157988"><ele>519.0</ele><time>2026-04-19T09:03:46.032Z</time></trkpt><trkpt lat="41.4895504" lon="1.515945"><ele>519.0</ele><time>2026-04-19T09:03:47.032Z</time></trkpt><trkpt lat="41.4895256" lon="1.516103"><ele>517.0</ele><time>2026-04-19T09:03:48.032Z</time></trkpt><trkpt lat="41.4894987" lon="1.5162521"><ele>515.0</ele><time>2026-04-19T09:03:49.032Z</time></trkpt><trkpt lat="41.4894571" lon="1.5163946"><ele>513.0</ele><time>2026-04-19T09:03:50.032Z</time></trkpt><trkpt lat="41.4893938" lon="1.5165242"><ele>511.0</ele><time>2026-04-19T09:03:51.032Z</time></trkpt><trkpt lat="41.4892974" lon="1.5166328"><ele>511.0</ele><time>2026-04-19T09:03:52.031Z</time></trkpt><trkpt lat="41.4891807" lon="1.5167168"><ele>511.0</ele><time>2026-04-19T09:03:53.031Z</time></trkpt><trkpt lat="41.4890577" lon="1.5167926"><ele>511.0</ele><time>2026-04-19T09:03:54.032Z</time></trkpt><trkpt lat="41.4889275" lon="1.5168744"><ele>511.0</ele><time>2026-04-19T09:03:55.032Z</time></trkpt><trkpt lat="41.4887995" lon="1.5169591"><ele>511.25</ele><time>2026-04-19T09:03:56.032Z</time></trkpt><trkpt lat="41.4886665" lon="1.5170443"><ele>511.5</ele><time>2026-04-19T09:03:57.032Z</time></trkpt><trkpt lat="41.4885327" lon="1.5171308"><ele>511.75</ele><time>2026-04-19T09:03:58.031Z</time></trkpt><trkpt lat="41.4884007" lon="1.5172204"><ele>512.0</ele><time>2026-04-19T09:03:59.031Z</time></trkpt><trkpt lat="41.4882769" lon="1.5173017"><ele>512.5</ele><time>2026-04-19T09:04:00.031Z</time></trkpt><trkpt lat="41.4881572" lon="1.5173756"><ele>513.0</ele><time>2026-04-19T09:04:01.032Z</time></trkpt><trkpt lat="41.4880562" lon="1.5174336"><ele>513.5</ele><time>2026-04-19T09:04:02.032Z</time></trkpt><trkpt lat="41.4879531" lon="1.5174551"><ele>514.0</ele><time>2026-04-19T09:04:03.032Z</time></trkpt><trkpt lat="41.487846" lon="1.5174402"><ele>515.75</ele><time>2026-04-19T09:04:04.031Z</time></trkpt><trkpt lat="41.4877448" lon="1.517377"><ele>517.5</ele><time>2026-04-19T09:04:05.031Z</time></trkpt><trkpt lat="41.4876547" lon="1.517269"><ele>519.25</ele><time>2026-04-19T09:04:06.032Z</time></trkpt><trkpt lat="41.4875648" lon="1.5171358"><ele>521.0</ele><time>2026-04-19T09:04:07.032Z</time></trkpt><trkpt lat="41.487463" lon="1.5169789"><ele>521.0</ele><time>2026-04-19T09:04:08.032Z</time></trkpt><trkpt lat="41.4873593" lon="1.5168237"><ele>521.0</ele><time>2026-04-19T09:04:09.031Z</time></trkpt><trkpt lat="41.4872646" lon="1.5166812"><ele>521.0</ele><time>2026-04-19T09:04:10.032Z</time></trkpt><trkpt lat="41.4871693" lon="1.516544"><ele>521.0</ele><time>2026-04-19T09:04:11.032Z</time></trkpt><trkpt lat="41.4870565" lon="1.5164255"><ele>522.6666666666666</ele><time>2026-04-19T09:04:12.032Z</time></trkpt><trkpt lat="41.486919" lon="1.5163393"><ele>524.3333333333334</ele><time>2026-04-19T09:04:13.032Z</time></trkpt><trkpt lat="41.4867745" lon="1.5162708"><ele>526.0</ele><time>2026-04-19T09:04:14.032Z</time></trkpt><trkpt lat="41.4866261" lon="1.5162088"><ele>526.0</ele><time>2026-04-19T09:04:15.032Z</time></trkpt><trkpt lat="41.4864904" lon="1.5161391"><ele>526.0</ele><time>2026-04-19T09:04:16.031Z</time></trkpt><trkpt lat="41.4863689" lon="1.5160468"><ele>526.0</ele><time>2026-04-19T09:04:17.032Z</time></trkpt><trkpt lat="41.486261" lon="1.5159084"><ele>526.0</ele><time>2026-04-19T09:04:18.032Z</time></trkpt><trkpt lat="41.4861644" lon="1.5157413"><ele>528.6666666666667</ele><time>2026-04-19T09:04:19.032Z</time></trkpt><trkpt lat="41.4860587" lon="1.5155667"><ele>531.3333333333334</ele><time>2026-04-19T09:04:20.031Z</time></trkpt><trkpt lat="41.4859222" lon="1.5153935"><ele>534.0</ele><time>2026-04-19T09:04:21.032Z</time></trkpt><trkpt lat="41.485757" lon="1.5152307"><ele>534.0</ele><time>2026-04-19T09:04:22.032Z</time></trkpt><trkpt lat="41.4855809" lon="1.5150818"><ele>534.0</ele><time>2026-04-19T09:04:23.032Z</time></trkpt><trkpt lat="41.485404" lon="1.5149215"><ele>534.0</ele><time>2026-04-19T09:04:24.032Z</time></trkpt><trkpt lat="41.4852178" lon="1.5147512"><ele>535.0</ele><time>2026-04-19T09:04:25.032Z</time></trkpt><trkpt lat="41.4850309" lon="1.5145842"><ele>536.0</ele><time>2026-04-19T09:04:26.032Z</time></trkpt><trkpt lat="41.4848526" lon="1.5144253"><ele>537.0</ele><time>2026-04-19T09:04:27.032Z</time></trkpt><trkpt lat="41.4846759" lon="1.5142669"><ele>543.0</ele><time>2026-04-19T09:04:28.032Z</time></trkpt><trkpt lat="41.4844982" lon="1.5140931"><ele>549.0</ele><time>2026-04-19T09:04:29.031Z</time></trkpt><trkpt lat="41.4843255" lon="1.5138886"><ele>546.6666666666666</ele><time>2026-04-19T09:04:30.032Z</time></trkpt><trkpt lat="41.4841752" lon="1.5136803"><ele>544.3333333333333</ele><time>2026-04-19T09:04:31.032Z</time></trkpt><trkpt lat="41.4840362" lon="1.5134757"><ele>542.0</ele><time>2026-04-19T09:04:32.032Z</time></trkpt><trkpt lat="41.483899" lon="1.5132811"><ele>542.0</ele><time>2026-04-19T09:04:33.032Z</time></trkpt><trkpt lat="41.483766" lon="1.5130918"><ele>542.0</ele><time>2026-04-19T09:04:34.031Z</time></trkpt><trkpt lat="41.4836371" lon="1.5129017"><ele>542.0</ele><time>2026-04-19T09:04:35.032Z</time></trkpt><trkpt lat="41.4835075" lon="1.5127072"><ele>545.6666666666666</ele><time>2026-04-19T09:04:36.032Z</time></trkpt><trkpt lat="41.4833677" lon="1.5125111"><ele>549.3333333333334</ele><time>2026-04-19T09:04:37.032Z</time></trkpt><trkpt lat="41.483227" lon="1.5123211"><ele>553.0</ele><time>2026-04-19T09:04:38.032Z</time></trkpt><trkpt lat="41.4830867" lon="1.5121552"><ele>551.0</ele><time>2026-04-19T09:04:39.032Z</time></trkpt><trkpt lat="41.4829478" lon="1.5119844"><ele>549.0</ele><time>2026-04-19T09:04:40.032Z</time></trkpt><trkpt lat="41.4828024" lon="1.5118306"><ele>547.0</ele><time>2026-04-19T09:04:41.031Z</time></trkpt><trkpt lat="41.4826727" lon="1.5116564"><ele>550.6666666666667</ele><time>2026-04-19T09:04:42.032Z</time></trkpt><trkpt lat="41.4825633" lon="1.5114498"><ele>554.3333333333334</ele><time>2026-04-19T09:04:43.031Z</time></trkpt><trkpt lat="41.4824915" lon="1.5112179"><ele>558.0</ele><time>2026-04-19T09:04:44.031Z</time></trkpt><trkpt lat="41.4824417" lon="1.5109958"><ele>558.0</ele><time>2026-04-19T09:04:45.032Z</time></trkpt><trkpt lat="41.4823935" lon="1.5107972"><ele>558.0</ele><time>2026-04-19T09:04:46.032Z</time></trkpt><trkpt lat="41.4823426" lon="1.510631"><ele>558.0</ele><time>2026-04-19T09:04:47.031Z</time></trkpt><trkpt lat="41.4822854" lon="1.5104925"><ele>558.0</ele><time>2026-04-19T09:04:48.031Z</time></trkpt><trkpt lat="41.4822222" lon="1.510366"><ele>559.0</ele><time>2026-04-19T09:04:49.032Z</time></trkpt><trkpt lat="41.4821451" lon="1.5102739"><ele>560.0</ele><time>2026-04-19T09:04:50.031Z</time></trkpt><trkpt lat="41.4820479" lon="1.5102294"><ele>561.0</ele><time>2026-04-19T09:04:51.032Z</time></trkpt><trkpt lat="41.481947" lon="1.5102343"><ele>562.0</ele><time>2026-04-19T09:04:52.031Z</time></trkpt><trkpt lat="41.4818575" lon="1.5103006"><ele>563.0</ele><time>2026-04-19T09:04:53.032Z</time></trkpt><trkpt lat="41.4817933" lon="1.510411"><ele>565.25</ele><time>2026-04-19T09:04:54.032Z</time></trkpt><trkpt lat="41.4817693" lon="1.5105478"><ele>567.5</ele><time>2026-04-19T09:04:55.032Z</time></trkpt><trkpt lat="41.481784" lon="1.5106966"><ele>569.75</ele><time>2026-04-19T09:04:56.032Z</time></trkpt><trkpt lat="41.4818259" lon="1.5108599"><ele>572.0</ele><time>2026-04-19T09:04:57.031Z</time></trkpt><trkpt lat="41.4818794" lon="1.5110316"><ele>572.0</ele><time>2026-04-19T09:04:58.032Z</time></trkpt><trkpt lat="41.4819357" lon="1.5112149"><ele>572.0</ele><time>2026-04-19T09:04:59.031Z</time></trkpt><trkpt lat="41.4819855" lon="1.5113968"><ele>572.0</ele><time>2026-04-19T09:05:00.032Z</time></trkpt><trkpt lat="41.4820125" lon="1.5115789"><ele>572.0</ele><time>2026-04-19T09:05:01.032Z</time></trkpt><trkpt lat="41.482009" lon="1.5117593"><ele>574.25</ele><time>2026-04-19T09:05:02.032Z</time></trkpt><trkpt lat="41.4819685" lon="1.5119426"><ele>576.5</ele><time>2026-04-19T09:05:03.032Z</time></trkpt><trkpt lat="41.4819006" lon="1.5121231"><ele>578.75</ele><time>2026-04-19T09:05:04.032Z</time></trkpt><trkpt lat="41.4818387" lon="1.5122867"><ele>581.0</ele><time>2026-04-19T09:05:05.032Z</time></trkpt><trkpt lat="41.4818029" lon="1.5124472"><ele>582.25</ele><time>2026-04-19T09:05:06.031Z</time></trkpt><trkpt lat="41.4818046" lon="1.5126109"><ele>583.5</ele><time>2026-04-19T09:05:07.032Z</time></trkpt><trkpt lat="41.4818516" lon="1.5127641"><ele>584.75</ele><time>2026-04-19T09:05:08.032Z</time></trkpt><trkpt lat="41.4819265" lon="1.5129067"><ele>586.0</ele><time>2026-04-19T09:05:09.032Z</time></trkpt><trkpt lat="41.482046" lon="1.5130165"><ele>583.3333333333334</ele><time>2026-04-19T09:05:10.031Z</time></trkpt><trkpt lat="41.4821766" lon="1.5131193"><ele>580.6666666666666</ele><time>2026-04-19T09:05:11.031Z</time></trkpt><trkpt lat="41.4822898" lon="1.5132462"><ele>578.0</ele><time>2026-04-19T09:05:12.031Z</time></trkpt><trkpt lat="41.4823791" lon="1.5134105"><ele>578.0</ele><time>2026-04-19T09:05:13.032Z</time></trkpt><trkpt lat="41.4824491" lon="1.5135985"><ele>578.0</ele><time>2026-04-19T09:05:14.032Z</time></trkpt><trkpt lat="41.4824923" lon="1.513788"><ele>578.0</ele><time>2026-04-19T09:05:15.032Z</time></trkpt><trkpt lat="41.4824966" lon="1.5139933"><ele>581.0</ele><time>2026-04-19T09:05:16.032Z</time></trkpt><trkpt lat="41.4824722" lon="1.514209"><ele>584.0</ele><time>2026-04-19T09:05:17.032Z</time></trkpt><trkpt lat="41.4824432" lon="1.5144127"><ele>587.0</ele><time>2026-04-19T09:05:18.032Z</time></trkpt><trkpt lat="41.4824168" lon="1.5145985"><ele>588.4</ele><time>2026-04-19T09:05:19.032Z</time></trkpt><trkpt lat="41.4824176" lon="1.5147549"><ele>589.8000000000001</ele><time>2026-04-19T09:05:20.032Z</time></trkpt><trkpt lat="41.4824574" lon="1.5148958"><ele>591.2</ele><time>2026-04-19T09:05:21.032Z</time></trkpt><trkpt lat="41.4825278" lon="1.5150017"><ele>592.6</ele><time>2026-04-19T09:05:22.032Z</time></trkpt><trkpt lat="41.482627" lon="1.5150736"><ele>594.0</ele><time>2026-04-19T09:05:23.032Z</time></trkpt><trkpt lat="41.4827263" lon="1.5151552"><ele>594.0</ele><time>2026-04-19T09:05:24.031Z</time></trkpt><trkpt lat="41.4828105" lon="1.5152946"><ele>594.0</ele><time>2026-04-19T09:05:25.032Z</time></trkpt><trkpt lat="41.4828776" lon="1.5154792"><ele>594.0</ele><time>2026-04-19T09:05:26.031Z</time></trkpt><trkpt lat="41.482923" lon="1.5156787"><ele>594.0</ele><time>2026-04-19T09:05:27.032Z</time></trkpt><trkpt lat="41.4829779" lon="1.515903"><ele>595.3333333333334</ele><time>2026-04-19T09:05:28.031Z</time></trkpt><trkpt lat="41.4830391" lon="1.5161486"><ele>596.6666666666667</ele><time>2026-04-19T09:05:29.031Z</time></trkpt><trkpt lat="41.483109" lon="1.5164164"><ele>598.0</ele><time>2026-04-19T09:05:30.032Z</time></trkpt><trkpt lat="41.4831831" lon="1.5166869"><ele>598.0</ele><time>2026-04-19T09:05:31.032Z</time></trkpt><trkpt lat="41.4832532" lon="1.5169291"><ele>598.0</ele><time>2026-04-19T09:05:32.032Z</time></trkpt><trkpt lat="41.4833189" lon="1.517142"><ele>598.0</ele><time>2026-04-19T09:05:33.031Z</time></trkpt><trkpt lat="41.4833545" lon="1.5173311"><ele>599.3333333333334</ele><time>2026-04-19T09:05:34.032Z</time></trkpt><trkpt lat="41.4833349" lon="1.5175197"><ele>600.6666666666666</ele><time>2026-04-19T09:05:35.032Z</time></trkpt><trkpt lat="41.48328" lon="1.5177045"><ele>602.0</ele><time>2026-04-19T09:05:36.032Z</time></trkpt><trkpt lat="41.4831916" lon="1.5179044"><ele>603.3333333333333</ele><time>2026-04-19T09:05:37.032Z</time></trkpt><trkpt lat="41.4830827" lon="1.5181012"><ele>604.6666666666666</ele><time>2026-04-19T09:05:38.031Z</time></trkpt><trkpt lat="41.4829343" lon="1.5182678"><ele>606.0</ele><time>2026-04-19T09:05:39.032Z</time></trkpt><trkpt lat="41.4827821" lon="1.5184087"><ele>606.3333333333334</ele><time>2026-04-19T09:05:40.031Z</time></trkpt><trkpt lat="41.4826326" lon="1.5185197"><ele>606.6666666666667</ele><time>2026-04-19T09:05:41.032Z</time></trkpt><trkpt lat="41.4824632" lon="1.5185985"><ele>607.0</ele><time>2026-04-19T09:05:42.032Z</time></trkpt><trkpt lat="41.4822744" lon="1.5186441"><ele>607.3333333333334</ele><time>2026-04-19T09:05:43.032Z</time></trkpt><trkpt lat="41.4820757" lon="1.5186723"><ele>607.6666666666666</ele><time>2026-04-19T09:05:44.031Z</time></trkpt><trkpt lat="41.4818806" lon="1.5187023"><ele>608.0</ele><time>2026-04-19T09:05:45.031Z</time></trkpt><trkpt lat="41.4816905" lon="1.5187322"><ele>607.3333333333333</ele><time>2026-04-19T09:05:46.031Z</time></trkpt><trkpt lat="41.4815075" lon="1.518756"><ele>606.6666666666666</ele><time>2026-04-19T09:05:47.032Z</time></trkpt><trkpt lat="41.4813344" lon="1.5187781"><ele>606.0</ele><time>2026-04-19T09:05:48.032Z</time></trkpt><trkpt lat="41.4811723" lon="1.5188103"><ele>606.0</ele><time>2026-04-19T09:05:49.032Z</time></trkpt><trkpt lat="41.4810291" lon="1.5188669"><ele>606.0</ele><time>2026-04-19T09:05:50.032Z</time></trkpt><trkpt lat="41.4808984" lon="1.5189639"><ele>606.0</ele><time>2026-04-19T09:05:51.032Z</time></trkpt><trkpt lat="41.4807785" lon="1.5191083"><ele>606.0</ele><time>2026-04-19T09:05:52.031Z</time></trkpt><trkpt lat="41.480665" lon="1.519302"><ele>606.0</ele><time>2026-04-19T09:05:53.031Z</time></trkpt><trkpt lat="41.4805463" lon="1.5195134"><ele>606.0</ele><time>2026-04-19T09:05:54.032Z</time></trkpt><trkpt lat="41.4804269" lon="1.5197197"><ele>605.6666666666666</ele><time>2026-04-19T09:05:55.031Z</time></trkpt><trkpt lat="41.4803106" lon="1.5199138"><ele>605.3333333333333</ele><time>2026-04-19T09:05:56.031Z</time></trkpt><trkpt lat="41.4801962" lon="1.5201089"><ele>605.0</ele><time>2026-04-19T09:05:57.031Z</time></trkpt><trkpt lat="41.4800841" lon="1.5203027"><ele>604.3333333333333</ele><time>2026-04-19T09:05:58.031Z</time></trkpt><trkpt lat="41.479969" lon="1.5204924"><ele>603.6666666666666</ele><time>2026-04-19T09:05:59.032Z</time></trkpt><trkpt lat="41.4798457" lon="1.5206692"><ele>603.0</ele><time>2026-04-19T09:06:00.032Z</time></trkpt><trkpt lat="41.4797134" lon="1.5208288"><ele>602.6666666666666</ele><time>2026-04-19T09:06:01.032Z</time></trkpt><trkpt lat="41.4795733" lon="1.5209834"><ele>602.3333333333333</ele><time>2026-04-19T09:06:02.032Z</time></trkpt><trkpt lat="41.4794295" lon="1.5211349"><ele>602.0</ele><time>2026-04-19T09:06:03.031Z</time></trkpt><trkpt lat="41.479286" lon="1.5212958"><ele>602.0</ele><time>2026-04-19T09:06:04.031Z</time></trkpt><trkpt lat="41.4791416" lon="1.5214601"><ele>602.0</ele><time>2026-04-19T09:06:05.031Z</time></trkpt><trkpt lat="41.4790082" lon="1.5216162"><ele>602.0</ele><time>2026-04-19T09:06:06.032Z</time></trkpt><trkpt lat="41.4788746" lon="1.5217743"><ele>602.3333333333333</ele><time>2026-04-19T09:06:07.032Z</time></trkpt><trkpt lat="41.4787412" lon="1.5219327"><ele>602.6666666666666</ele><time>2026-04-19T09:06:08.031Z</time></trkpt><trkpt lat="41.4786058" lon="1.5220924"><ele>603.0</ele><time>2026-04-19T09:06:09.031Z</time></trkpt><trkpt lat="41.4784726" lon="1.5222587"><ele>602.0</ele><time>2026-04-19T09:06:10.032Z</time></trkpt><trkpt lat="41.4783361" lon="1.5224239"><ele>601.0</ele><time>2026-04-19T09:06:11.032Z</time></trkpt><trkpt lat="41.4781992" lon="1.5225871"><ele>600.0</ele><time>2026-04-19T09:06:12.032Z</time></trkpt><trkpt lat="41.4780633" lon="1.5227523"><ele>599.3333333333334</ele><time>2026-04-19T09:06:13.031Z</time></trkpt><trkpt lat="41.4779292" lon="1.5229187"><ele>598.6666666666667</ele><time>2026-04-19T09:06:14.032Z</time></trkpt><trkpt lat="41.4777971" lon="1.5230884"><ele>598.0</ele><time>2026-04-19T09:06:15.032Z</time></trkpt><trkpt lat="41.4776604" lon="1.5232545"><ele>598.0</ele><time>2026-04-19T09:06:16.032Z</time></trkpt><trkpt lat="41.47752" lon="1.5234238"><ele>598.0</ele><time>2026-04-19T09:06:17.031Z</time></trkpt><trkpt lat="41.4773781" lon="1.5235942"><ele>598.0</ele><time>2026-04-19T09:06:18.032Z</time></trkpt><trkpt lat="41.4772362" lon="1.5237588"><ele>598.0</ele><time>2026-04-19T09:06:19.032Z</time></trkpt><trkpt lat="41.4771012" lon="1.5239213"><ele>598.0</ele><time>2026-04-19T09:06:20.032Z</time></trkpt><trkpt lat="41.4769698" lon="1.5240851"><ele>598.0</ele><time>2026-04-19T09:06:21.031Z</time></trkpt><trkpt lat="41.4768446" lon="1.5242529"><ele>598.0</ele><time>2026-04-19T09:06:22.032Z</time></trkpt><trkpt lat="41.4767292" lon="1.5244398"><ele>598.0</ele><time>2026-04-19T09:06:23.031Z</time></trkpt><trkpt lat="41.4766181" lon="1.5246513"><ele>598.0</ele><time>2026-04-19T09:06:24.032Z</time></trkpt><trkpt lat="41.4765111" lon="1.5248765"><ele>598.0</ele><time>2026-04-19T09:06:25.032Z</time></trkpt><trkpt lat="41.4763999" lon="1.5251025"><ele>598.0</ele><time>2026-04-19T09:06:26.032Z</time></trkpt><trkpt lat="41.4762824" lon="1.5253227"><ele>598.0</ele><time>2026-04-19T09:06:27.032Z</time></trkpt><trkpt lat="41.4761725" lon="1.5255384"><ele>598.0</ele><time>2026-04-19T09:06:28.032Z</time></trkpt><trkpt lat="41.4760716" lon="1.5257472"><ele>598.0</ele><time>2026-04-19T09:06:29.032Z</time></trkpt><trkpt lat="41.4759743" lon="1.5259498"><ele>598.0</ele><time>2026-04-19T09:06:30.032Z</time></trkpt><trkpt lat="41.4758735" lon="1.5261418"><ele>597.3333333333334</ele><time>2026-04-19T09:06:31.032Z</time></trkpt><trkpt lat="41.4757731" lon="1.526324"><ele>596.6666666666666</ele><time>2026-04-19T09:06:32.031Z</time></trkpt><trkpt lat="41.4756723" lon="1.5264912"><ele>596.0</ele><time>2026-04-19T09:06:33.031Z</time></trkpt><trkpt lat="41.4755632" lon="1.526644"><ele>596.0</ele><time>2026-04-19T09:06:34.032Z</time></trkpt><trkpt lat="41.4754535" lon="1.5267922"><ele>596.0</ele><time>2026-04-19T09:06:35.032Z</time></trkpt><trkpt lat="41.4753516" lon="1.5269297"><ele>596.0</ele><time>2026-04-19T09:06:36.032Z</time></trkpt><trkpt lat="41.4752583" lon="1.527064"><ele>596.0</ele><time>2026-04-19T09:06:37.032Z</time></trkpt><trkpt lat="41.475168" lon="1.527194"><ele>596.5</ele><time>2026-04-19T09:06:38.031Z</time></trkpt><trkpt lat="41.4750783" lon="1.5273174"><ele>597.0</ele><time>2026-04-19T09:06:39.031Z</time></trkpt><trkpt lat="41.474993" lon="1.527441"><ele>597.5</ele><time>2026-04-19T09:06:40.031Z</time></trkpt><trkpt lat="41.4749088" lon="1.5275632"><ele>598.0</ele><time>2026-04-19T09:06:41.032Z</time></trkpt><trkpt lat="41.4748315" lon="1.5276795"><ele>598.0</ele><time>2026-04-19T09:06:42.031Z</time></trkpt><trkpt lat="41.4747518" lon="1.5277866"><ele>598.0</ele><time>2026-04-19T09:06:43.031Z</time></trkpt><trkpt lat="41.4746792" lon="1.5278884"><ele>598.0</ele><time>2026-04-19T09:06:44.032Z</time></trkpt><trkpt lat="41.4746088" lon="1.5279903"><ele>598.0</ele><time>2026-04-19T09:06:45.032Z</time></trkpt><trkpt lat="41.4745405" lon="1.5280904"><ele>598.0</ele><time>2026-04-19T09:06:46.032Z</time></trkpt><trkpt lat="41.4744717" lon="1.5281947"><ele>598.1999999999999</ele><time>2026-04-19T09:06:47.032Z</time></trkpt><trkpt lat="41.474404" lon="1.5283044"><ele>598.4</ele><time>2026-04-19T09:06:48.031Z</time></trkpt><trkpt lat="41.4743376" lon="1.5284194"><ele>598.5999999999999</ele><time>2026-04-19T09:06:49.031Z</time></trkpt><trkpt lat="41.4742778" lon="1.5285362"><ele>598.8</ele><time>2026-04-19T09:06:50.032Z</time></trkpt><trkpt lat="41.4742187" lon="1.5286567"><ele>599.0</ele><time>2026-04-19T09:06:51.032Z</time></trkpt><trkpt lat="41.4741587" lon="1.5287736"><ele>599.0</ele><time>2026-04-19T09:06:52.031Z</time></trkpt><trkpt lat="41.4740996" lon="1.5288918"><ele>599.0</ele><time>2026-04-19T09:06:53.032Z</time></trkpt><trkpt lat="41.4740433" lon="1.5290017"><ele>599.0</ele><time>2026-04-19T09:06:54.031Z</time></trkpt><trkpt lat="41.4739918" lon="1.5291074"><ele>599.0</ele><time>2026-04-19T09:06:55.032Z</time></trkpt><trkpt lat="41.4739468" lon="1.5292002"><ele>599.0</ele><time>2026-04-19T09:06:56.031Z</time></trkpt><trkpt lat="41.4738987" lon="1.5292956"><ele>599.0</ele><time>2026-04-19T09:06:57.032Z</time></trkpt><trkpt lat="41.4738471" lon="1.5293922"><ele>599.0</ele><time>2026-04-19T09:06:58.032Z</time></trkpt><trkpt lat="41.4737914" lon="1.5295009"><ele>599.0</ele><time>2026-04-19T09:06:59.031Z</time></trkpt><trkpt lat="41.4737337" lon="1.5296197"><ele>599.0</ele><time>2026-04-19T09:07:00.031Z</time></trkpt><trkpt lat="41.4736741" lon="1.5297379"><ele>599.0</ele><time>2026-04-19T09:07:01.032Z</time></trkpt><trkpt lat="41.4736134" lon="1.529858"><ele>600.0</ele><time>2026-04-19T09:07:02.031Z</time></trkpt><trkpt lat="41.4735564" lon="1.5299816"><ele>601.0</ele><time>2026-04-19T09:07:03.032Z</time></trkpt><trkpt lat="41.4734912" lon="1.5301056"><ele>602.0</ele><time>2026-04-19T09:07:04.032Z</time></trkpt><trkpt lat="41.473427" lon="1.5302297"><ele>603.0</ele><time>2026-04-19T09:07:05.032Z</time></trkpt><trkpt lat="41.4733613" lon="1.5303541"><ele>604.0</ele><time>2026-04-19T09:07:06.032Z</time></trkpt><trkpt lat="41.4732977" lon="1.5304738"><ele>604.0</ele><time>2026-04-19T09:07:07.032Z</time></trkpt><trkpt lat="41.4732357" lon="1.5305867"><ele>604.0</ele><time>2026-04-19T09:07:08.032Z</time></trkpt><trkpt lat="41.4731684" lon="1.5306988"><ele>604.0</ele><time>2026-04-19T09:07:09.032Z</time></trkpt><trkpt lat="41.4731004" lon="1.5307995"><ele>604.0</ele><time>2026-04-19T09:07:10.032Z</time></trkpt><trkpt lat="41.4730296" lon="1.5308904"><ele>604.0</ele><time>2026-04-19T09:07:11.032Z</time></trkpt><trkpt lat="41.4729491" lon="1.5309551"><ele>604.8</ele><time>2026-04-19T09:07:12.032Z</time></trkpt><trkpt lat="41.4728618" lon="1.5310054"><ele>605.5999999999999</ele><time>2026-04-19T09:07:13.031Z</time></trkpt><trkpt lat="41.4727755" lon="1.5310541"><ele>606.4</ele><time>2026-04-19T09:07:14.031Z</time></trkpt><trkpt lat="41.4726868" lon="1.5310989"><ele>607.1999999999999</ele><time>2026-04-19T09:07:15.032Z</time></trkpt><trkpt lat="41.4726002" lon="1.5311447"><ele>608.0</ele><time>2026-04-19T09:07:16.032Z</time></trkpt><trkpt lat="41.4725171" lon="1.5311975"><ele>608.8</ele><time>2026-04-19T09:07:17.032Z</time></trkpt><trkpt lat="41.4724356" lon="1.5312477"><ele>609.5999999999999</ele><time>2026-04-19T09:07:18.031Z</time></trkpt><trkpt lat="41.4723542" lon="1.5313033"><ele>610.4000000000001</ele><time>2026-04-19T09:07:19.032Z</time></trkpt><trkpt lat="41.4722698" lon="1.5313684"><ele>611.2</ele><time>2026-04-19T09:07:20.032Z</time></trkpt><trkpt lat="41.4721815" lon="1.5314444"><ele>612.0</ele><time>2026-04-19T09:07:21.032Z</time></trkpt><trkpt lat="41.4720978" lon="1.5315359"><ele>612.0</ele><time>2026-04-19T09:07:22.032Z</time></trkpt><trkpt lat="41.4720161" lon="1.5316361"><ele>612.0</ele><time>2026-04-19T09:07:23.031Z</time></trkpt><trkpt lat="41.4719311" lon="1.5317464"><ele>612.0</ele><time>2026-04-19T09:07:24.032Z</time></trkpt><trkpt lat="41.4718434" lon="1.5318566"><ele>612.0</ele><time>2026-04-19T09:07:25.031Z</time></trkpt><trkpt lat="41.47176" lon="1.5319702"><ele>613.5</ele><time>2026-04-19T09:07:26.032Z</time></trkpt><trkpt lat="41.4716819" lon="1.5320896"><ele>615.0</ele><time>2026-04-19T09:07:27.032Z</time></trkpt><trkpt lat="41.4715938" lon="1.5322008"><ele>616.5</ele><time>2026-04-19T09:07:28.032Z</time></trkpt><trkpt lat="41.4715083" lon="1.5323152"><ele>618.0</ele><time>2026-04-19T09:07:29.032Z</time></trkpt><trkpt lat="41.4714213" lon="1.532418"><ele>618.0</ele><time>2026-04-19T09:07:30.032Z</time></trkpt><trkpt lat="41.4713329" lon="1.5324979"><ele>618.0</ele><time>2026-04-19T09:07:31.032Z</time></trkpt><trkpt lat="41.4712443" lon="1.5325462"><ele>618.0</ele><time>2026-04-19T09:07:32.031Z</time></trkpt><trkpt lat="41.4711637" lon="1.5325887"><ele>618.0</ele><time>2026-04-19T09:07:33.031Z</time></trkpt><trkpt lat="41.471074" lon="1.5326146"><ele>618.0</ele><time>2026-04-19T09:07:34.032Z</time></trkpt><trkpt lat="41.4709757" lon="1.5326274"><ele>617.8</ele><time>2026-04-19T09:07:35.032Z</time></trkpt><trkpt lat="41.4708765" lon="1.5326482"><ele>617.5999999999999</ele><time>2026-04-19T09:07:36.032Z</time></trkpt><trkpt lat="41.4707808" lon="1.5326709"><ele>617.4000000000001</ele><time>2026-04-19T09:07:37.032Z</time></trkpt><trkpt lat="41.4706839" lon="1.5326873"><ele>617.2</ele><time>2026-04-19T09:07:38.032Z</time></trkpt><trkpt lat="41.470588" lon="1.5327061"><ele>617.0</ele><time>2026-04-19T09:07:39.031Z</time></trkpt><trkpt lat="41.4704925" lon="1.5327274"><ele>618.0</ele><time>2026-04-19T09:07:40.032Z</time></trkpt><trkpt lat="41.4703954" lon="1.5327446"><ele>619.0</ele><time>2026-04-19T09:07:41.032Z</time></trkpt><trkpt lat="41.4702928" lon="1.5327504"><ele>620.0</ele><time>2026-04-19T09:07:42.032Z</time></trkpt><trkpt lat="41.4701914" lon="1.5327195"><ele>621.0</ele><time>2026-04-19T09:07:43.032Z</time></trkpt><trkpt lat="41.4700885" lon="1.5326834"><ele>622.0</ele><time>2026-04-19T09:07:44.031Z</time></trkpt><trkpt lat="41.4699857" lon="1.5326449"><ele>622.0</ele><time>2026-04-19T09:07:45.031Z</time></trkpt><trkpt lat="41.4698834" lon="1.5326083"><ele>622.0</ele><time>2026-04-19T09:07:46.031Z</time></trkpt><trkpt lat="41.4697832" lon="1.5325548"><ele>622.0</ele><time>2026-04-19T09:07:47.031Z</time></trkpt><trkpt lat="41.46969" lon="1.5324796"><ele>622.0</ele><time>2026-04-19T09:07:48.031Z</time></trkpt><trkpt lat="41.4695968" lon="1.5323909"><ele>622.0</ele><time>2026-04-19T09:07:49.031Z</time></trkpt><trkpt lat="41.4695048" lon="1.5322954"><ele>622.5</ele><time>2026-04-19T09:07:50.031Z</time></trkpt><trkpt lat="41.4693945" lon="1.5321918"><ele>623.0</ele><time>2026-04-19T09:07:51.031Z</time></trkpt><trkpt lat="41.4692877" lon="1.5320901"><ele>623.5</ele><time>2026-04-19T09:07:52.032Z</time></trkpt><trkpt lat="41.4691768" lon="1.5319902"><ele>624.0</ele><time>2026-04-19T09:07:53.031Z</time></trkpt><trkpt lat="41.4690548" lon="1.5318965"><ele>624.0</ele><time>2026-04-19T09:07:54.031Z</time></trkpt><trkpt lat="41.4689085" lon="1.5318341"><ele>624.0</ele><time>2026-04-19T09:07:55.032Z</time></trkpt><trkpt lat="41.4687493" lon="1.5317824"><ele>624.0</ele><time>2026-04-19T09:07:56.032Z</time></trkpt><trkpt lat="41.4685945" lon="1.531726"><ele>626.5</ele><time>2026-04-19T09:07:57.031Z</time></trkpt><trkpt lat="41.4684537" lon="1.53165"><ele>629.0</ele><time>2026-04-19T09:07:58.032Z</time></trkpt><trkpt lat="41.4683273" lon="1.5315593"><ele>631.5</ele><time>2026-04-19T09:07:59.032Z</time></trkpt><trkpt lat="41.4682103" lon="1.5314734"><ele>634.0</ele><time>2026-04-19T09:08:00.032Z</time></trkpt><trkpt lat="41.4680987" lon="1.531419"><ele>634.0</ele><time>2026-04-19T09:08:01.031Z</time></trkpt><trkpt lat="41.4679875" lon="1.531387"><ele>634.0</ele><time>2026-04-19T09:08:02.032Z</time></trkpt><trkpt lat="41.467881" lon="1.531359"><ele>634.0</ele><time>2026-04-19T09:08:03.032Z</time></trkpt><trkpt lat="41.4677883" lon="1.5312881"><ele>634.0</ele><time>2026-04-19T09:08:04.032Z</time></trkpt><trkpt lat="41.4677258" lon="1.531182"><ele>634.0</ele><time>2026-04-19T09:08:05.031Z</time></trkpt><trkpt lat="41.4676817" lon="1.5310594"><ele>634.8</ele><time>2026-04-19T09:08:06.032Z</time></trkpt><trkpt lat="41.467616" lon="1.5309559"><ele>635.5999999999999</ele><time>2026-04-19T09:08:07.032Z</time></trkpt><trkpt lat="41.4675226" lon="1.5308887"><ele>636.4</ele><time>2026-04-19T09:08:08.032Z</time></trkpt><trkpt lat="41.467408" lon="1.5308449"><ele>637.1999999999999</ele><time>2026-04-19T09:08:09.031Z</time></trkpt><trkpt lat="41.4673047" lon="1.5308154"><ele>638.0</ele><time>2026-04-19T09:08:10.031Z</time></trkpt><trkpt lat="41.4672244" lon="1.5307951"><ele>638.0</ele><time>2026-04-19T09:08:11.031Z</time></trkpt><trkpt lat="41.4671567" lon="1.5307831"><ele>638.0</ele><time>2026-04-19T09:08:12.032Z</time></trkpt><trkpt lat="41.467054" lon="1.5307584"><ele>638.0</ele><time>2026-04-19T09:08:14.032Z</time></trkpt><trkpt lat="41.4669316" lon="1.5307364"><ele>638.0</ele><time>2026-04-19T09:08:16.032Z</time></trkpt><trkpt lat="41.4668613" lon="1.5307159"><ele>638.0</ele><time>2026-04-19T09:08:17.032Z</time></trkpt><trkpt lat="41.4667734" lon="1.5306815"><ele>639.5</ele><time>2026-04-19T09:08:18.032Z</time></trkpt><trkpt lat="41.4666965" lon="1.5306304"><ele>641.0</ele><time>2026-04-19T09:08:19.031Z</time></trkpt><trkpt lat="41.4666362" lon="1.5305582"><ele>642.5</ele><time>2026-04-19T09:08:20.032Z</time></trkpt><trkpt lat="41.4666019" lon="1.5304542"><ele>644.0</ele><time>2026-04-19T09:08:21.032Z</time></trkpt><trkpt lat="41.4666069" lon="1.5303358"><ele>645.5</ele><time>2026-04-19T09:08:22.032Z</time></trkpt><trkpt lat="41.466635" lon="1.5302094"><ele>647.0</ele><time>2026-04-19T09:08:23.032Z</time></trkpt><trkpt lat="41.4666521" lon="1.5300877"><ele>647.0</ele><time>2026-04-19T09:08:24.032Z</time></trkpt><trkpt lat="41.4666439" lon="1.5299762"><ele>647.0</ele><time>2026-04-19T09:08:25.031Z</time></trkpt><trkpt lat="41.466593" lon="1.5298795"><ele>647.0</ele><time>2026-04-19T09:08:26.031Z</time></trkpt><trkpt lat="41.4665157" lon="1.5297975"><ele>647.0</ele><time>2026-04-19T09:08:27.031Z</time></trkpt><trkpt lat="41.4664194" lon="1.5297275"><ele>647.0</ele><time>2026-04-19T09:08:28.032Z</time></trkpt><trkpt lat="41.4663163" lon="1.529653"><ele>648.3333333333333</ele><time>2026-04-19T09:08:29.032Z</time></trkpt><trkpt lat="41.4662037" lon="1.5295752"><ele>649.6666666666666</ele><time>2026-04-19T09:08:30.032Z</time></trkpt><trkpt lat="41.4660567" lon="1.5294792"><ele>651.0</ele><time>2026-04-19T09:08:31.032Z</time></trkpt><trkpt lat="41.46591" lon="1.5293743"><ele>651.0</ele><time>2026-04-19T09:08:32.031Z</time></trkpt><trkpt lat="41.4657514" lon="1.5292387"><ele>651.0</ele><time>2026-04-19T09:08:33.032Z</time></trkpt><trkpt lat="41.4655994" lon="1.5290996"><ele>651.0</ele><time>2026-04-19T09:08:34.031Z</time></trkpt><trkpt lat="41.4654658" lon="1.5289767"><ele>651.0</ele><time>2026-04-19T09:08:35.032Z</time></trkpt><trkpt lat="41.4653428" lon="1.5288636"><ele>651.0</ele><time>2026-04-19T09:08:36.032Z</time></trkpt><trkpt lat="41.4652481" lon="1.5287493"><ele>651.0</ele><time>2026-04-19T09:08:37.032Z</time></trkpt><trkpt lat="41.4651725" lon="1.5286429"><ele>651.0</ele><time>2026-04-19T09:08:38.031Z</time></trkpt><trkpt lat="41.4650923" lon="1.5285865"><ele>651.0</ele><time>2026-04-19T09:08:39.032Z</time></trkpt><trkpt lat="41.4650126" lon="1.5285938"><ele>651.0</ele><time>2026-04-19T09:08:40.032Z</time></trkpt><trkpt lat="41.4649567" lon="1.5286517"><ele>651.0</ele><time>2026-04-19T09:08:41.032Z</time></trkpt><trkpt lat="41.4649362" lon="1.528744"><ele>651.0</ele><time>2026-04-19T09:08:42.032Z</time></trkpt><trkpt lat="41.4649618" lon="1.5288371"><ele>651.0</ele><time>2026-04-19T09:08:43.032Z</time></trkpt><trkpt lat="41.4650246" lon="1.5289027"><ele>651.0</ele><time>2026-04-19T09:08:44.032Z</time></trkpt><trkpt lat="41.4651183" lon="1.5289437"><ele>651.0</ele><time>2026-04-19T09:08:45.032Z</time></trkpt><trkpt lat="41.4652271" lon="1.5289971"><ele>651.0</ele><time>2026-04-19T09:08:46.032Z</time></trkpt><trkpt lat="41.4653404" lon="1.5291072"><ele>651.0</ele><time>2026-04-19T09:08:47.031Z</time></trkpt><trkpt lat="41.4654576" lon="1.5292476"><ele>651.0</ele><time>2026-04-19T09:08:48.032Z</time></trkpt><trkpt lat="41.4655747" lon="1.529399"><ele>651.0</ele><time>2026-04-19T09:08:49.032Z</time></trkpt><trkpt lat="41.4656913" lon="1.5295503"><ele>651.0</ele><time>2026-04-19T09:08:50.031Z</time></trkpt><trkpt lat="41.4657945" lon="1.5296953"><ele>651.0</ele><time>2026-04-19T09:08:51.032Z</time></trkpt><trkpt lat="41.4658689" lon="1.5298327"><ele>651.0</ele><time>2026-04-19T09:08:52.032Z</time></trkpt><trkpt lat="41.4659032" lon="1.5299751"><ele>655.25</ele><time>2026-04-19T09:08:53.031Z</time></trkpt><trkpt lat="41.4658948" lon="1.5301188"><ele>659.5</ele><time>2026-04-19T09:08:54.032Z</time></trkpt><trkpt lat="41.4658693" lon="1.5302773"><ele>663.75</ele><time>2026-04-19T09:08:55.032Z</time></trkpt><trkpt lat="41.4658528" lon="1.5304428"><ele>668.0</ele><time>2026-04-19T09:08:56.032Z</time></trkpt><trkpt lat="41.4659257" lon="1.5306028"><ele>670.3333333333333</ele><time>2026-04-19T09:08:57.032Z</time></trkpt><trkpt lat="41.4660102" lon="1.5307787"><ele>672.6666666666666</ele><time>2026-04-19T09:08:58.031Z</time></trkpt><trkpt lat="41.4660993" lon="1.5309537"><ele>675.0</ele><time>2026-04-19T09:08:59.032Z</time></trkpt><trkpt lat="41.4661971" lon="1.5311558"><ele>672.6666666666666</ele><time>2026-04-19T09:09:00.032Z</time></trkpt><trkpt lat="41.4663098" lon="1.5313733"><ele>670.3333333333333</ele><time>2026-04-19T09:09:01.032Z</time></trkpt><trkpt lat="41.4664223" lon="1.5315923"><ele>668.0</ele><time>2026-04-19T09:09:02.032Z</time></trkpt><trkpt lat="41.4665213" lon="1.5318154"><ele>668.0</ele><time>2026-04-19T09:09:03.032Z</time></trkpt><trkpt lat="41.4666192" lon="1.532018"><ele>668.0</ele><time>2026-04-19T09:09:04.032Z</time></trkpt><trkpt lat="41.466719" lon="1.5322101"><ele>668.0</ele><time>2026-04-19T09:09:05.032Z</time></trkpt><trkpt lat="41.4668157" lon="1.5323828"><ele>667.25</ele><time>2026-04-19T09:09:06.032Z</time></trkpt><trkpt lat="41.4669153" lon="1.5325363"><ele>666.5</ele><time>2026-04-19T09:09:07.032Z</time></trkpt><trkpt lat="41.4670107" lon="1.5326659"><ele>665.75</ele><time>2026-04-19T09:09:08.032Z</time></trkpt><trkpt lat="41.4670936" lon="1.532775"><ele>665.0</ele><time>2026-04-19T09:09:09.032Z</time></trkpt><trkpt lat="41.4671602" lon="1.5328735"><ele>665.6666666666666</ele><time>2026-04-19T09:09:10.032Z</time></trkpt><trkpt lat="41.4672088" lon="1.5329742"><ele>666.3333333333333</ele><time>2026-04-19T09:09:11.031Z</time></trkpt><trkpt lat="41.4672267" lon="1.5330704"><ele>667.0</ele><time>2026-04-19T09:09:12.032Z</time></trkpt><trkpt lat="41.4672184" lon="1.5331712"><ele>667.6666666666666</ele><time>2026-04-19T09:09:13.032Z</time></trkpt><trkpt lat="41.4671691" lon="1.5332532"><ele>668.3333333333334</ele><time>2026-04-19T09:09:14.031Z</time></trkpt><trkpt lat="41.4670922" lon="1.5332961"><ele>669.0</ele><time>2026-04-19T09:09:15.032Z</time></trkpt><trkpt lat="41.4669999" lon="1.5332933"><ele>669.0</ele><time>2026-04-19T09:09:16.032Z</time></trkpt><trkpt lat="41.4668989" lon="1.5332538"><ele>669.0</ele><time>2026-04-19T09:09:17.032Z</time></trkpt><trkpt lat="41.4668018" lon="1.5331953"><ele>669.0</ele><time>2026-04-19T09:09:18.032Z</time></trkpt><trkpt lat="41.4667167" lon="1.5331138"><ele>669.0</ele><time>2026-04-19T09:09:19.032Z</time></trkpt><trkpt lat="41.4666487" lon="1.5330138"><ele>669.0</ele><time>2026-04-19T09:09:20.032Z</time></trkpt><trkpt lat="41.4665908" lon="1.5328787"><ele>671.0</ele><time>2026-04-19T09:09:21.032Z</time></trkpt><trkpt lat="41.4665193" lon="1.532743"><ele>673.0</ele><time>2026-04-19T09:09:22.032Z</time></trkpt><trkpt lat="41.466418" lon="1.5325995"><ele>675.0</ele><time>2026-04-19T09:09:23.032Z</time></trkpt><trkpt lat="41.4663033" lon="1.532463"><ele>677.0</ele><time>2026-04-19T09:09:24.032Z</time></trkpt><trkpt lat="41.4661789" lon="1.5323173"><ele>678.0</ele><time>2026-04-19T09:09:25.032Z</time></trkpt><trkpt lat="41.4660152" lon="1.5321566"><ele>679.0</ele><time>2026-04-19T09:09:26.031Z</time></trkpt><trkpt lat="41.4658527" lon="1.5319746"><ele>680.0</ele><time>2026-04-19T09:09:27.031Z</time></trkpt><trkpt lat="41.4656967" lon="1.5317948"><ele>681.6666666666666</ele><time>2026-04-19T09:09:28.032Z</time></trkpt><trkpt lat="41.4655342" lon="1.5316096"><ele>683.3333333333334</ele><time>2026-04-19T09:09:29.032Z</time></trkpt><trkpt lat="41.4653782" lon="1.5314386"><ele>685.0</ele><time>2026-04-19T09:09:30.031Z</time></trkpt><trkpt lat="41.4652355" lon="1.5312832"><ele>688.3333333333334</ele><time>2026-04-19T09:09:31.031Z</time></trkpt><trkpt lat="41.4650958" lon="1.5311292"><ele>691.6666666666666</ele><time>2026-04-19T09:09:32.031Z</time></trkpt><trkpt lat="41.4649632" lon="1.5309549"><ele>695.0</ele><time>2026-04-19T09:09:33.032Z</time></trkpt><trkpt lat="41.4648454" lon="1.53073"><ele>695.0</ele><time>2026-04-19T09:09:34.032Z</time></trkpt><trkpt lat="41.4647567" lon="1.5305213"><ele>695.0</ele><time>2026-04-19T09:09:35.032Z</time></trkpt><trkpt lat="41.4646781" lon="1.5303318"><ele>695.0</ele><time>2026-04-19T09:09:36.032Z</time></trkpt><trkpt lat="41.4646084" lon="1.530186"><ele>696.5</ele><time>2026-04-19T09:09:37.031Z</time></trkpt><trkpt lat="41.4645209" lon="1.5300724"><ele>698.0</ele><time>2026-04-19T09:09:38.032Z</time></trkpt><trkpt lat="41.4644009" lon="1.5299879"><ele>699.5</ele><time>2026-04-19T09:09:39.031Z</time></trkpt><trkpt lat="41.4642486" lon="1.5299137"><ele>701.0</ele><time>2026-04-19T09:09:40.032Z</time></trkpt><trkpt lat="41.464093" lon="1.5298446"><ele>701.0</ele><time>2026-04-19T09:09:41.031Z</time></trkpt><trkpt lat="41.4639217" lon="1.5297603"><ele>701.0</ele><time>2026-04-19T09:09:42.031Z</time></trkpt><trkpt lat="41.4637592" lon="1.5296828"><ele>701.0</ele><time>2026-04-19T09:09:43.031Z</time></trkpt><trkpt lat="41.4635976" lon="1.5296091"><ele>698.6666666666666</ele><time>2026-04-19T09:09:44.032Z</time></trkpt><trkpt lat="41.4634395" lon="1.5295338"><ele>696.3333333333334</ele><time>2026-04-19T09:09:45.032Z</time></trkpt><trkpt lat="41.4632688" lon="1.5294766"><ele>694.0</ele><time>2026-04-19T09:09:46.032Z</time></trkpt><trkpt lat="41.4630933" lon="1.5294403"><ele>698.3333333333334</ele><time>2026-04-19T09:09:47.032Z</time></trkpt><trkpt lat="41.4629145" lon="1.5294108"><ele>702.6666666666666</ele><time>2026-04-19T09:09:48.032Z</time></trkpt><trkpt lat="41.4627197" lon="1.5293779"><ele>707.0</ele><time>2026-04-19T09:09:49.032Z</time></trkpt><trkpt lat="41.4625224" lon="1.5293367"><ele>707.0</ele><time>2026-04-19T09:09:50.031Z</time></trkpt><trkpt lat="41.4623213" lon="1.5292799"><ele>707.0</ele><time>2026-04-19T09:09:51.031Z</time></trkpt><trkpt lat="41.4621223" lon="1.5292153"><ele>707.0</ele><time>2026-04-19T09:09:52.032Z</time></trkpt><trkpt lat="41.4619142" lon="1.5291323"><ele>712.6666666666666</ele><time>2026-04-19T09:09:53.032Z</time></trkpt><trkpt lat="41.4617113" lon="1.5290526"><ele>718.3333333333334</ele><time>2026-04-19T09:09:54.031Z</time></trkpt><trkpt lat="41.4615186" lon="1.5289794"><ele>724.0</ele><time>2026-04-19T09:09:55.032Z</time></trkpt><trkpt lat="41.4613597" lon="1.5288774"><ele>722.75</ele><time>2026-04-19T09:09:56.032Z</time></trkpt><trkpt lat="41.4612151" lon="1.5287733"><ele>721.5</ele><time>2026-04-19T09:09:57.032Z</time></trkpt><trkpt lat="41.4610806" lon="1.5286831"><ele>720.25</ele><time>2026-04-19T09:09:58.032Z</time></trkpt><trkpt lat="41.4609595" lon="1.5286261"><ele>719.0</ele><time>2026-04-19T09:09:59.031Z</time></trkpt><trkpt lat="41.4608462" lon="1.5286093"><ele>719.0</ele><time>2026-04-19T09:10:00.032Z</time></trkpt><trkpt lat="41.4607225" lon="1.5286103"><ele>719.0</ele><time>2026-04-19T09:10:01.032Z</time></trkpt><trkpt lat="41.460568" lon="1.5286858"><ele>719.0</ele><time>2026-04-19T09:10:02.032Z</time></trkpt><trkpt lat="41.460407" lon="1.5287511"><ele>725.6666666666666</ele><time>2026-04-19T09:10:03.032Z</time></trkpt><trkpt lat="41.4602401" lon="1.5287871"><ele>732.3333333333334</ele><time>2026-04-19T09:10:04.032Z</time></trkpt><trkpt lat="41.4600706" lon="1.5287768"><ele>739.0</ele><time>2026-04-19T09:10:05.032Z</time></trkpt><trkpt lat="41.459897" lon="1.5287331"><ele>737.6666666666667</ele><time>2026-04-19T09:10:06.031Z</time></trkpt><trkpt lat="41.4597187" lon="1.5286812"><ele>736.3333333333334</ele><time>2026-04-19T09:10:07.031Z</time></trkpt><trkpt lat="41.4595437" lon="1.5286307"><ele>735.0</ele><time>2026-04-19T09:10:08.032Z</time></trkpt><trkpt lat="41.4593738" lon="1.5285815"><ele>735.0</ele><time>2026-04-19T09:10:09.031Z</time></trkpt><trkpt lat="41.4592212" lon="1.528483"><ele>735.0</ele><time>2026-04-19T09:10:10.031Z</time></trkpt><trkpt lat="41.4590592" lon="1.5283741"><ele>735.0</ele><time>2026-04-19T09:10:11.031Z</time></trkpt><trkpt lat="41.4589" lon="1.5282094"><ele>736.75</ele><time>2026-04-19T09:10:12.032Z</time></trkpt><trkpt lat="41.458749" lon="1.5280825"><ele>738.5</ele><time>2026-04-19T09:10:13.032Z</time></trkpt><trkpt lat="41.4586279" lon="1.5279769"><ele>740.25</ele><time>2026-04-19T09:10:14.031Z</time></trkpt><trkpt lat="41.4585318" lon="1.5279066"><ele>742.0</ele><time>2026-04-19T09:10:15.032Z</time></trkpt><trkpt lat="41.4584435" lon="1.5278831"><ele>742.0</ele><time>2026-04-19T09:10:16.031Z</time></trkpt><trkpt lat="41.4583581" lon="1.5278933"><ele>742.0</ele><time>2026-04-19T09:10:17.032Z</time></trkpt><trkpt lat="41.4582934" lon="1.5279742"><ele>742.0</ele><time>2026-04-19T09:10:18.031Z</time></trkpt><trkpt lat="41.4582615" lon="1.5280809"><ele>742.0</ele><time>2026-04-19T09:10:19.031Z</time></trkpt><trkpt lat="41.4582815" lon="1.5281932"><ele>742.0</ele><time>2026-04-19T09:10:20.031Z</time></trkpt><trkpt lat="41.458334" lon="1.5282697"><ele>742.0</ele><time>2026-04-19T09:10:21.031Z</time></trkpt><trkpt lat="41.4584205" lon="1.5283151"><ele>742.5</ele><time>2026-04-19T09:10:22.031Z</time></trkpt><trkpt lat="41.4585302" lon="1.5283214"><ele>743.0</ele><time>2026-04-19T09:10:23.032Z</time></trkpt><trkpt lat="41.4586495" lon="1.5283531"><ele>743.5</ele><time>2026-04-19T09:10:24.032Z</time></trkpt><trkpt lat="41.458765" lon="1.5284286"><ele>744.0</ele><time>2026-04-19T09:10:25.031Z</time></trkpt><trkpt lat="41.4588921" lon="1.5285232"><ele>746.0</ele><time>2026-04-19T09:10:26.031Z</time></trkpt><trkpt lat="41.4590363" lon="1.5286253"><ele>748.0</ele><time>2026-04-19T09:10:27.032Z</time></trkpt><trkpt lat="41.4591939" lon="1.5287389"><ele>750.0</ele><time>2026-04-19T09:10:28.031Z</time></trkpt><trkpt lat="41.4593737" lon="1.5288569"><ele>750.0</ele><time>2026-04-19T09:10:29.032Z</time></trkpt><trkpt lat="41.459561" lon="1.5289847"><ele>750.0</ele><time>2026-04-19T09:10:30.031Z</time></trkpt><trkpt lat="41.4597418" lon="1.5291053"><ele>750.0</ele><time>2026-04-19T09:10:31.031Z</time></trkpt><trkpt lat="41.4599168" lon="1.529219"><ele>746.3333333333334</ele><time>2026-04-19T09:10:32.032Z</time></trkpt><trkpt lat="41.4600902" lon="1.5293168"><ele>742.6666666666667</ele><time>2026-04-19T09:10:33.031Z</time></trkpt><trkpt lat="41.4602588" lon="1.5293874"><ele>739.0</ele><time>2026-04-19T09:10:34.032Z</time></trkpt><trkpt lat="41.4604176" lon="1.5294495"><ele>738.0</ele><time>2026-04-19T09:10:35.032Z</time></trkpt><trkpt lat="41.4605621" lon="1.5295162"><ele>737.0</ele><time>2026-04-19T09:10:36.032Z</time></trkpt><trkpt lat="41.460692" lon="1.5296042"><ele>736.0</ele><time>2026-04-19T09:10:37.032Z</time></trkpt><trkpt lat="41.4607982" lon="1.5297116"><ele>735.0</ele><time>2026-04-19T09:10:38.032Z</time></trkpt><trkpt lat="41.4608742" lon="1.5298221"><ele>736.8333333333334</ele><time>2026-04-19T09:10:39.032Z</time></trkpt><trkpt lat="41.4609246" lon="1.529936"><ele>738.6666666666666</ele><time>2026-04-19T09:10:40.032Z</time></trkpt><trkpt lat="41.4609202" lon="1.5300539"><ele>740.5</ele><time>2026-04-19T09:10:41.032Z</time></trkpt><trkpt lat="41.4608846" lon="1.5301479"><ele>742.3333333333333</ele><time>2026-04-19T09:10:42.031Z</time></trkpt><trkpt lat="41.4608087" lon="1.5302006"><ele>744.1666666666666</ele><time>2026-04-19T09:10:43.032Z</time></trkpt><trkpt lat="41.4607244" lon="1.5301939"><ele>746.0</ele><time>2026-04-19T09:10:44.032Z</time></trkpt><trkpt lat="41.4606518" lon="1.5301318"><ele>746.0</ele><time>2026-04-19T09:10:45.031Z</time></trkpt><trkpt lat="41.4605917" lon="1.5300254"><ele>746.0</ele><time>2026-04-19T09:10:46.031Z</time></trkpt><trkpt lat="41.4605292" lon="1.5299234"><ele>746.0</ele><time>2026-04-19T09:10:47.032Z</time></trkpt><trkpt lat="41.4604468" lon="1.5298459"><ele>746.0</ele><time>2026-04-19T09:10:48.032Z</time></trkpt><trkpt lat="41.4603352" lon="1.5298099"><ele>746.0</ele><time>2026-04-19T09:10:49.031Z</time></trkpt><trkpt lat="41.4601911" lon="1.5298089"><ele>748.6666666666666</ele><time>2026-04-19T09:10:50.031Z</time></trkpt><trkpt lat="41.4600324" lon="1.529803"><ele>751.3333333333334</ele><time>2026-04-19T09:10:51.031Z</time></trkpt><trkpt lat="41.4598718" lon="1.5297867"><ele>754.0</ele><time>2026-04-19T09:10:52.032Z</time></trkpt><trkpt lat="41.4596851" lon="1.5297743"><ele>756.6666666666667</ele><time>2026-04-19T09:10:53.032Z</time></trkpt><trkpt lat="41.4594894" lon="1.5297592"><ele>759.3333333333334</ele><time>2026-04-19T09:10:54.032Z</time></trkpt><trkpt lat="41.4592852" lon="1.5297453"><ele>762.0</ele><time>2026-04-19T09:10:55.031Z</time></trkpt><trkpt lat="41.4590861" lon="1.5297228"><ele>762.0</ele><time>2026-04-19T09:10:56.032Z</time></trkpt><trkpt lat="41.458903" lon="1.5297008"><ele>762.0</ele><time>2026-04-19T09:10:57.031Z</time></trkpt><trkpt lat="41.4587234" lon="1.5296373"><ele>762.0</ele><time>2026-04-19T09:10:58.032Z</time></trkpt><trkpt lat="41.4585564" lon="1.5295524"><ele>761.0</ele><time>2026-04-19T09:10:59.032Z</time></trkpt><trkpt lat="41.4584016" lon="1.5294952"><ele>760.0</ele><time>2026-04-19T09:11:00.031Z</time></trkpt><trkpt lat="41.4582446" lon="1.5294968"><ele>759.0</ele><time>2026-04-19T09:11:01.032Z</time></trkpt><trkpt lat="41.4580823" lon="1.5295063"><ele>763.0</ele><time>2026-04-19T09:11:02.032Z</time></trkpt><trkpt lat="41.4579167" lon="1.5294907"><ele>767.0</ele><time>2026-04-19T09:11:03.032Z</time></trkpt><trkpt lat="41.4577511" lon="1.5294282"><ele>771.0</ele><time>2026-04-19T09:11:04.032Z</time></trkpt><trkpt lat="41.4575842" lon="1.5293249"><ele>771.0</ele><time>2026-04-19T09:11:05.032Z</time></trkpt><trkpt lat="41.4574347" lon="1.5292096"><ele>771.0</ele><time>2026-04-19T09:11:06.032Z</time></trkpt><trkpt lat="41.4573038" lon="1.529121"><ele>771.0</ele><time>2026-04-19T09:11:07.031Z</time></trkpt><trkpt lat="41.4571929" lon="1.5290543"><ele>771.0</ele><time>2026-04-19T09:11:08.032Z</time></trkpt><trkpt lat="41.4570822" lon="1.5290224"><ele>772.25</ele><time>2026-04-19T09:11:09.031Z</time></trkpt><trkpt lat="41.4569686" lon="1.5290435"><ele>773.5</ele><time>2026-04-19T09:11:10.031Z</time></trkpt><trkpt lat="41.4568547" lon="1.5291157"><ele>774.75</ele><time>2026-04-19T09:11:11.032Z</time></trkpt><trkpt lat="41.4567438" lon="1.5291998"><ele>776.0</ele><time>2026-04-19T09:11:12.032Z</time></trkpt><trkpt lat="41.4566198" lon="1.5292511"><ele>776.0</ele><time>2026-04-19T09:11:13.032Z</time></trkpt><trkpt lat="41.4564846" lon="1.5292483"><ele>776.0</ele><time>2026-04-19T09:11:14.032Z</time></trkpt><trkpt lat="41.4563483" lon="1.5292127"><ele>776.0</ele><time>2026-04-19T09:11:15.032Z</time></trkpt><trkpt lat="41.4562039" lon="1.5291707"><ele>776.0</ele><time>2026-04-19T09:11:16.032Z</time></trkpt><trkpt lat="41.4560687" lon="1.5291462"><ele>777.0</ele><time>2026-04-19T09:11:17.031Z</time></trkpt><trkpt lat="41.455931" lon="1.5291432"><ele>778.0</ele><time>2026-04-19T09:11:18.031Z</time></trkpt><trkpt lat="41.4557933" lon="1.5291495"><ele>779.0</ele><time>2026-04-19T09:11:19.031Z</time></trkpt><trkpt lat="41.4556567" lon="1.5291727"><ele>780.0</ele><time>2026-04-19T09:11:20.032Z</time></trkpt><trkpt lat="41.4555168" lon="1.5292301"><ele>780.0</ele><time>2026-04-19T09:11:21.032Z</time></trkpt><trkpt lat="41.4553728" lon="1.5293321"><ele>780.0</ele><time>2026-04-19T09:11:22.032Z</time></trkpt><trkpt lat="41.4552216" lon="1.5294345"><ele>780.0</ele><time>2026-04-19T09:11:23.031Z</time></trkpt><trkpt lat="41.4550832" lon="1.5295915"><ele>781.0</ele><time>2026-04-19T09:11:24.031Z</time></trkpt><trkpt lat="41.4549433" lon="1.5297322"><ele>782.0</ele><time>2026-04-19T09:11:25.031Z</time></trkpt><trkpt lat="41.4548106" lon="1.529856"><ele>783.0</ele><time>2026-04-19T09:11:26.031Z</time></trkpt><trkpt lat="41.4546887" lon="1.5299658"><ele>784.25</ele><time>2026-04-19T09:11:27.032Z</time></trkpt><trkpt lat="41.4545665" lon="1.5300437"><ele>785.5</ele><time>2026-04-19T09:11:28.031Z</time></trkpt><trkpt lat="41.4544422" lon="1.5300858"><ele>786.75</ele><time>2026-04-19T09:11:29.032Z</time></trkpt><trkpt lat="41.4543118" lon="1.5300882"><ele>788.0</ele><time>2026-04-19T09:11:30.032Z</time></trkpt><trkpt lat="41.4541741" lon="1.5300486"><ele>788.0</ele><time>2026-04-19T09:11:31.032Z</time></trkpt><trkpt lat="41.4540268" lon="1.5299866"><ele>788.0</ele><time>2026-04-19T09:11:32.031Z</time></trkpt><trkpt lat="41.4538829" lon="1.5299183"><ele>788.0</ele><time>2026-04-19T09:11:33.032Z</time></trkpt><trkpt lat="41.4537327" lon="1.5298339"><ele>788.6666666666667</ele><time>2026-04-19T09:11:34.031Z</time></trkpt><trkpt lat="41.4535907" lon="1.5297349"><ele>789.3333333333333</ele><time>2026-04-19T09:11:35.032Z</time></trkpt><trkpt lat="41.4534641" lon="1.5296214"><ele>790.0</ele><time>2026-04-19T09:11:36.031Z</time></trkpt><trkpt lat="41.4533456" lon="1.5294944"><ele>791.6666666666666</ele><time>2026-04-19T09:11:37.031Z</time></trkpt><trkpt lat="41.4532275" lon="1.5293557"><ele>793.3333333333333</ele><time>2026-04-19T09:11:38.031Z</time></trkpt><trkpt lat="41.453101" lon="1.5291922"><ele>795.0</ele><time>2026-04-19T09:11:39.032Z</time></trkpt><trkpt lat="41.4529645" lon="1.5290141"><ele>797.0</ele><time>2026-04-19T09:11:40.031Z</time></trkpt><trkpt lat="41.4528309" lon="1.5288368"><ele>799.0</ele><time>2026-04-19T09:11:41.031Z</time></trkpt><trkpt lat="41.4527118" lon="1.5286598"><ele>801.0</ele><time>2026-04-19T09:11:42.031Z</time></trkpt><trkpt lat="41.4526055" lon="1.5284752"><ele>801.6666666666667</ele><time>2026-04-19T09:11:43.031Z</time></trkpt><trkpt lat="41.4525078" lon="1.5282999"><ele>802.3333333333334</ele><time>2026-04-19T09:11:44.031Z</time></trkpt><trkpt lat="41.452417" lon="1.5281416"><ele>803.0</ele><time>2026-04-19T09:11:45.032Z</time></trkpt><trkpt lat="41.4523355" lon="1.5279937"><ele>803.5999999999999</ele><time>2026-04-19T09:11:46.032Z</time></trkpt><trkpt lat="41.4522591" lon="1.5278768"><ele>804.1999999999999</ele><time>2026-04-19T09:11:47.031Z</time></trkpt><trkpt lat="41.4521928" lon="1.5277669"><ele>804.8</ele><time>2026-04-19T09:11:48.032Z</time></trkpt><trkpt lat="41.4521255" lon="1.5276925"><ele>805.4</ele><time>2026-04-19T09:11:49.031Z</time></trkpt><trkpt lat="41.4520535" lon="1.5276586"><ele>806.0</ele><time>2026-04-19T09:11:50.031Z</time></trkpt><trkpt lat="41.4519842" lon="1.5276655"><ele>809.0</ele><time>2026-04-19T09:11:51.032Z</time></trkpt><trkpt lat="41.4518971" lon="1.527737"><ele>812.0</ele><time>2026-04-19T09:11:52.031Z</time></trkpt><trkpt lat="41.4517734" lon="1.5279604"><ele>815.0</ele><time>2026-04-19T09:11:53.032Z</time></trkpt><trkpt lat="41.4517011" lon="1.5281321"><ele>815.0</ele><time>2026-04-19T09:11:54.031Z</time></trkpt><trkpt lat="41.4516917" lon="1.5283173"><ele>815.0</ele><time>2026-04-19T09:11:55.032Z</time></trkpt><trkpt lat="41.4517277" lon="1.5285039"><ele>815.0</ele><time>2026-04-19T09:11:56.032Z</time></trkpt><trkpt lat="41.4517754" lon="1.528655"><ele>815.0</ele><time>2026-04-19T09:11:57.032Z</time></trkpt><trkpt lat="41.451836" lon="1.5288274"><ele>815.5</ele><time>2026-04-19T09:11:58.031Z</time></trkpt><trkpt lat="41.4518896" lon="1.5290082"><ele>816.0</ele><time>2026-04-19T09:11:59.032Z</time></trkpt><trkpt lat="41.4519184" lon="1.5291889"><ele>816.5</ele><time>2026-04-19T09:12:00.031Z</time></trkpt><trkpt lat="41.4519423" lon="1.5293707"><ele>817.0</ele><time>2026-04-19T09:12:01.031Z</time></trkpt><trkpt lat="41.4519589" lon="1.5295501"><ele>817.0</ele><time>2026-04-19T09:12:02.031Z</time></trkpt><trkpt lat="41.4519787" lon="1.5297285"><ele>817.0</ele><time>2026-04-19T09:12:03.032Z</time></trkpt><trkpt lat="41.451999" lon="1.5299007"><ele>817.0</ele><time>2026-04-19T09:12:04.032Z</time></trkpt><trkpt lat="41.4520164" lon="1.5300664"><ele>817.0</ele><time>2026-04-19T09:12:05.032Z</time></trkpt><trkpt lat="41.4520196" lon="1.5302232"><ele>816.9999999999999</ele><time>2026-04-19T09:12:06.032Z</time></trkpt><trkpt lat="41.452016" lon="1.5303621"><ele>817.0</ele><time>2026-04-19T09:12:07.032Z</time></trkpt><trkpt lat="41.4520104" lon="1.5304895"><ele>817.0</ele><time>2026-04-19T09:12:08.031Z</time></trkpt><trkpt lat="41.4520071" lon="1.530603"><ele>817.0</ele><time>2026-04-19T09:12:09.032Z</time></trkpt><trkpt lat="41.4520002" lon="1.5307048"><ele>816.9999999999999</ele><time>2026-04-19T09:12:10.031Z</time></trkpt><trkpt lat="41.4519945" lon="1.5307941"><ele>817.0</ele><time>2026-04-19T09:12:11.032Z</time></trkpt><trkpt lat="41.451971" lon="1.5309015"><ele>816.8</ele><time>2026-04-19T09:12:13.031Z</time></trkpt><trkpt lat="41.4519403" lon="1.5310052"><ele>816.6</ele><time>2026-04-19T09:12:17.032Z</time></trkpt><trkpt lat="41.4518364" lon="1.5310498"><ele>816.4</ele><time>2026-04-19T09:14:55.032Z</time></trkpt><trkpt lat="41.4517301" lon="1.5310245"><ele>816.1999999999999</ele><time>2026-04-19T09:14:57.031Z</time></trkpt><trkpt lat="41.4516639" lon="1.5309716"><ele>816.0</ele><time>2026-04-19T09:14:59.031Z</time></trkpt><trkpt lat="41.4516238" lon="1.530891"><ele>816.0</ele><time>2026-04-19T09:15:32.032Z</time></trkpt><trkpt lat="41.4515434" lon="1.5307801"><ele>816.0</ele><time>2026-04-19T09:15:34.032Z</time></trkpt><trkpt lat="41.4514958" lon="1.5307055"><ele>816.0</ele><time>2026-04-19T09:15:35.031Z</time></trkpt><trkpt lat="41.4514544" lon="1.530615"><ele>816.0</ele><time>2026-04-19T09:15:36.032Z</time></trkpt><trkpt lat="41.4514205" lon="1.5305092"><ele>816.0</ele><time>2026-04-19T09:15:37.032Z</time></trkpt><trkpt lat="41.4513946" lon="1.530415"><ele>816.0</ele><time>2026-04-19T09:15:38.031Z</time></trkpt><trkpt lat="41.4513595" lon="1.5303229"><ele>816.1666666666666</ele><time>2026-04-19T09:15:39.032Z</time></trkpt><trkpt lat="41.4513142" lon="1.5302466"><ele>816.3333333333333</ele><time>2026-04-19T09:15:40.032Z</time></trkpt><trkpt lat="41.4512611" lon="1.5301918"><ele>816.5</ele><time>2026-04-19T09:15:41.032Z</time></trkpt><trkpt lat="41.4511836" lon="1.5301341"><ele>816.6666666666666</ele><time>2026-04-19T09:15:42.032Z</time></trkpt><trkpt lat="41.4510977" lon="1.5300798"><ele>816.8333333333333</ele><time>2026-04-19T09:15:43.031Z</time></trkpt><trkpt lat="41.4510169" lon="1.5300141"><ele>817.0</ele><time>2026-04-19T09:15:44.032Z</time></trkpt><trkpt lat="41.4509386" lon="1.5299461"><ele>818.2</ele><time>2026-04-19T09:15:45.032Z</time></trkpt><trkpt lat="41.4508585" lon="1.5298716"><ele>819.4000000000001</ele><time>2026-04-19T09:15:46.032Z</time></trkpt><trkpt lat="41.4507822" lon="1.529801"><ele>820.5999999999999</ele><time>2026-04-19T09:15:47.032Z</time></trkpt><trkpt lat="41.4507013" lon="1.5297255"><ele>821.8</ele><time>2026-04-19T09:15:48.032Z</time></trkpt><trkpt lat="41.4506159" lon="1.5296483"><ele>823.0</ele><time>2026-04-19T09:15:49.032Z</time></trkpt><trkpt lat="41.4505331" lon="1.5295761"><ele>823.2</ele><time>2026-04-19T09:15:50.031Z</time></trkpt><trkpt lat="41.4504566" lon="1.5294947"><ele>823.4</ele><time>2026-04-19T09:15:51.031Z</time></trkpt><trkpt lat="41.45039" lon="1.5294059"><ele>823.6</ele><time>2026-04-19T09:15:52.031Z</time></trkpt><trkpt lat="41.4503293" lon="1.5293147"><ele>823.8000000000001</ele><time>2026-04-19T09:15:53.032Z</time></trkpt><trkpt lat="41.4502701" lon="1.5292111"><ele>824.0</ele><time>2026-04-19T09:15:54.032Z</time></trkpt><trkpt lat="41.4502107" lon="1.5291036"><ele>824.0</ele><time>2026-04-19T09:15:55.032Z</time></trkpt><trkpt lat="41.450157" lon="1.5289979"><ele>824.0</ele><time>2026-04-19T09:15:56.031Z</time></trkpt><trkpt lat="41.4500953" lon="1.5289042"><ele>824.0</ele><time>2026-04-19T09:15:57.032Z</time></trkpt><trkpt lat="41.4500303" lon="1.5288142"><ele>824.0</ele><time>2026-04-19T09:15:58.031Z</time></trkpt><trkpt lat="41.4499479" lon="1.5287528"><ele>824.0</ele><time>2026-04-19T09:15:59.032Z</time></trkpt><trkpt lat="41.4498512" lon="1.5287268"><ele>824.0</ele><time>2026-04-19T09:16:00.032Z</time></trkpt><trkpt lat="41.4497454" lon="1.5287282"><ele>824.0</ele><time>2026-04-19T09:16:01.032Z</time></trkpt><trkpt lat="41.4496376" lon="1.5287498"><ele>824.0</ele><time>2026-04-19T09:16:02.032Z</time></trkpt><trkpt lat="41.4495284" lon="1.5287966"><ele>824.0</ele><time>2026-04-19T09:16:03.031Z</time></trkpt><trkpt lat="41.4494272" lon="1.5288627"><ele>824.0</ele><time>2026-04-19T09:16:04.032Z</time></trkpt><trkpt lat="41.4493396" lon="1.5289398"><ele>823.6666666666667</ele><time>2026-04-19T09:16:05.032Z</time></trkpt><trkpt lat="41.4492623" lon="1.5290039"><ele>823.3333333333334</ele><time>2026-04-19T09:16:06.032Z</time></trkpt><trkpt lat="41.4491965" lon="1.5290426"><ele>823.0</ele><time>2026-04-19T09:16:07.032Z</time></trkpt><trkpt lat="41.4491077" lon="1.5290381"><ele>822.6666666666667</ele><time>2026-04-19T09:16:08.032Z</time></trkpt><trkpt lat="41.4490102" lon="1.5290176"><ele>822.3333333333334</ele><time>2026-04-19T09:16:09.032Z</time></trkpt><trkpt lat="41.4489374" lon="1.5289685"><ele>822.0</ele><time>2026-04-19T09:16:10.031Z</time></trkpt><trkpt lat="41.4488591" lon="1.5288885"><ele>821.5</ele><time>2026-04-19T09:16:11.031Z</time></trkpt><trkpt lat="41.4487908" lon="1.5287521"><ele>821.0</ele><time>2026-04-19T09:16:12.032Z</time></trkpt><trkpt lat="41.4487319" lon="1.5286102"><ele>820.5</ele><time>2026-04-19T09:16:13.032Z</time></trkpt><trkpt lat="41.4486698" lon="1.5284759"><ele>820.0</ele><time>2026-04-19T09:16:14.032Z</time></trkpt><trkpt lat="41.4486023" lon="1.5283447"><ele>820.0</ele><time>2026-04-19T09:16:15.032Z</time></trkpt><trkpt lat="41.4485296" lon="1.5282054"><ele>820.0</ele><time>2026-04-19T09:16:16.031Z</time></trkpt><trkpt lat="41.4484525" lon="1.5280684"><ele>820.0</ele><time>2026-04-19T09:16:17.032Z</time></trkpt><trkpt lat="41.4483756" lon="1.5279378"><ele>820.0</ele><time>2026-04-19T09:16:18.032Z</time></trkpt><trkpt lat="41.4483097" lon="1.5278169"><ele>823.8</ele><time>2026-04-19T09:16:19.031Z</time></trkpt><trkpt lat="41.448255" lon="1.5276913"><ele>827.6</ele><time>2026-04-19T09:16:20.032Z</time></trkpt><trkpt lat="41.4482113" lon="1.527565"><ele>831.4000000000001</ele><time>2026-04-19T09:16:21.031Z</time></trkpt><trkpt lat="41.4481897" lon="1.5274363"><ele>835.2</ele><time>2026-04-19T09:16:22.032Z</time></trkpt><trkpt lat="41.4481742" lon="1.527327"><ele>839.0</ele><time>2026-04-19T09:16:23.032Z</time></trkpt><trkpt lat="41.4481546" lon="1.5272344"><ele>839.0000000000001</ele><time>2026-04-19T09:16:24.032Z</time></trkpt><trkpt lat="41.4480953" lon="1.5271879"><ele>839.0</ele><time>2026-04-19T09:16:25.032Z</time></trkpt><trkpt lat="41.4480205" lon="1.5271749"><ele>839.0</ele><time>2026-04-19T09:16:26.032Z</time></trkpt><trkpt lat="41.4479385" lon="1.5272024"><ele>839.0</ele><time>2026-04-19T09:16:27.032Z</time></trkpt><trkpt lat="41.4478449" lon="1.527259"><ele>839.0000000000001</ele><time>2026-04-19T09:16:28.032Z</time></trkpt><trkpt lat="41.4477409" lon="1.5273192"><ele>839.0</ele><time>2026-04-19T09:16:29.032Z</time></trkpt><trkpt lat="41.4476327" lon="1.5273688"><ele>837.6</ele><time>2026-04-19T09:16:30.031Z</time></trkpt><trkpt lat="41.44753" lon="1.5273985"><ele>836.2</ele><time>2026-04-19T09:16:31.031Z</time></trkpt><trkpt lat="41.4474365" lon="1.5273817"><ele>834.8000000000001</ele><time>2026-04-19T09:16:32.031Z</time></trkpt><trkpt lat="41.4473474" lon="1.5273409"><ele>833.4000000000001</ele><time>2026-04-19T09:16:33.032Z</time></trkpt><trkpt lat="41.4472652" lon="1.5272802"><ele>832.0</ele><time>2026-04-19T09:16:34.032Z</time></trkpt><trkpt lat="41.4471765" lon="1.5272067"><ele>832.0</ele><time>2026-04-19T09:16:35.031Z</time></trkpt><trkpt lat="41.4470919" lon="1.527124"><ele>832.0</ele><time>2026-04-19T09:16:36.032Z</time></trkpt><trkpt lat="41.4470333" lon="1.5270089"><ele>832.0</ele><time>2026-04-19T09:16:37.031Z</time></trkpt><trkpt lat="41.4469837" lon="1.5268775"><ele>832.0</ele><time>2026-04-19T09:16:38.032Z</time></trkpt><trkpt lat="41.4469534" lon="1.5267283"><ele>832.0</ele><time>2026-04-19T09:16:39.032Z</time></trkpt><trkpt lat="41.4469229" lon="1.5265741"><ele>832.0</ele><time>2026-04-19T09:16:40.031Z</time></trkpt><trkpt lat="41.4468839" lon="1.5264133"><ele>832.0</ele><time>2026-04-19T09:16:41.032Z</time></trkpt><trkpt lat="41.4468303" lon="1.5262462"><ele>832.0</ele><time>2026-04-19T09:16:42.032Z</time></trkpt><trkpt lat="41.4467856" lon="1.5260795"><ele>832.0</ele><time>2026-04-19T09:16:43.031Z</time></trkpt><trkpt lat="41.4467442" lon="1.5259125"><ele>830.75</ele><time>2026-04-19T09:16:44.031Z</time></trkpt><trkpt lat="41.4467039" lon="1.5257538"><ele>829.5</ele><time>2026-04-19T09:16:45.032Z</time></trkpt><trkpt lat="41.4466759" lon="1.5255943"><ele>828.25</ele><time>2026-04-19T09:16:46.032Z</time></trkpt><trkpt lat="41.4466737" lon="1.5254342"><ele>827.0</ele><time>2026-04-19T09:16:47.031Z</time></trkpt><trkpt lat="41.4466993" lon="1.5252827"><ele>825.8</ele><time>2026-04-19T09:16:48.031Z</time></trkpt><trkpt lat="41.4467332" lon="1.5251395"><ele>824.6</ele><time>2026-04-19T09:16:49.031Z</time></trkpt><trkpt lat="41.4467628" lon="1.5249934"><ele>823.4</ele><time>2026-04-19T09:16:50.031Z</time></trkpt><trkpt lat="41.4467718" lon="1.5248481"><ele>822.1999999999999</ele><time>2026-04-19T09:16:51.031Z</time></trkpt><trkpt lat="41.4467596" lon="1.5247105"><ele>821.0</ele><time>2026-04-19T09:16:52.031Z</time></trkpt><trkpt lat="41.4467296" lon="1.5245862"><ele>821.0000000000001</ele><time>2026-04-19T09:16:53.031Z</time></trkpt><trkpt lat="41.4466944" lon="1.5244699"><ele>821.0</ele><time>2026-04-19T09:16:54.032Z</time></trkpt><trkpt lat="41.4466655" lon="1.5243553"><ele>821.0</ele><time>2026-04-19T09:16:55.032Z</time></trkpt><trkpt lat="41.4466432" lon="1.5242395"><ele>821.0</ele><time>2026-04-19T09:16:56.032Z</time></trkpt><trkpt lat="41.4465863" lon="1.5241696"><ele>821.0000000000001</ele><time>2026-04-19T09:16:57.031Z</time></trkpt><trkpt lat="41.4465145" lon="1.5241252"><ele>821.0</ele><time>2026-04-19T09:16:58.032Z</time></trkpt><trkpt lat="41.4464375" lon="1.5241204"><ele>821.0</ele><time>2026-04-19T09:16:59.032Z</time></trkpt><trkpt lat="41.4463555" lon="1.5241506"><ele>821.0</ele><time>2026-04-19T09:17:00.032Z</time></trkpt><trkpt lat="41.446271" lon="1.5242117"><ele>821.0</ele><time>2026-04-19T09:17:01.032Z</time></trkpt><trkpt lat="41.4461822" lon="1.5242747"><ele>821.0</ele><time>2026-04-19T09:17:02.031Z</time></trkpt><trkpt lat="41.4460965" lon="1.524324"><ele>821.0</ele><time>2026-04-19T09:17:03.032Z</time></trkpt><trkpt lat="41.4460068" lon="1.5243584"><ele>820.8</ele><time>2026-04-19T09:17:04.032Z</time></trkpt><trkpt lat="41.445919" lon="1.5243896"><ele>820.5999999999999</ele><time>2026-04-19T09:17:05.031Z</time></trkpt><trkpt lat="41.4458278" lon="1.5244165"><ele>820.4</ele><time>2026-04-19T09:17:06.032Z</time></trkpt><trkpt lat="41.4457283" lon="1.5244186"><ele>820.2</ele><time>2026-04-19T09:17:07.032Z</time></trkpt><trkpt lat="41.4456243" lon="1.5244014"><ele>820.0</ele><time>2026-04-19T09:17:08.032Z</time></trkpt><trkpt lat="41.4455151" lon="1.5243732"><ele>818.0</ele><time>2026-04-19T09:17:09.031Z</time></trkpt><trkpt lat="41.4454047" lon="1.5243418"><ele>816.0</ele><time>2026-04-19T09:17:10.032Z</time></trkpt><trkpt lat="41.4453018" lon="1.5243102"><ele>814.0</ele><time>2026-04-19T09:17:11.031Z</time></trkpt><trkpt lat="41.4452007" lon="1.5242964"><ele>812.0</ele><time>2026-04-19T09:17:12.032Z</time></trkpt><trkpt lat="41.4450974" lon="1.5243"><ele>810.0</ele><time>2026-04-19T09:17:13.032Z</time></trkpt><trkpt lat="41.4449949" lon="1.5243237"><ele>810.0</ele><time>2026-04-19T09:17:14.032Z</time></trkpt><trkpt lat="41.4448941" lon="1.5243536"><ele>810.0</ele><time>2026-04-19T09:17:15.032Z</time></trkpt><trkpt lat="41.4447973" lon="1.5243916"><ele>810.0</ele><time>2026-04-19T09:17:16.031Z</time></trkpt><trkpt lat="41.444706" lon="1.5244306"><ele>810.0</ele><time>2026-04-19T09:17:17.032Z</time></trkpt><trkpt lat="41.4446194" lon="1.5244255"><ele>810.0</ele><time>2026-04-19T09:17:18.032Z</time></trkpt><trkpt lat="41.4445573" lon="1.5243783"><ele>808.3333333333334</ele><time>2026-04-19T09:17:19.031Z</time></trkpt><trkpt lat="41.4445168" lon="1.5243003"><ele>806.6666666666667</ele><time>2026-04-19T09:17:20.032Z</time></trkpt><trkpt lat="41.4444941" lon="1.5241954"><ele>805.0</ele><time>2026-04-19T09:17:21.032Z</time></trkpt><trkpt lat="41.4444717" lon="1.524088"><ele>803.3333333333334</ele><time>2026-04-19T09:17:22.032Z</time></trkpt><trkpt lat="41.4444374" lon="1.5239874"><ele>801.6666666666667</ele><time>2026-04-19T09:17:23.031Z</time></trkpt><trkpt lat="41.4443905" lon="1.5239041"><ele>800.0</ele><time>2026-04-19T09:17:24.032Z</time></trkpt><trkpt lat="41.4443251" lon="1.5238668"><ele>800.0</ele><time>2026-04-19T09:17:25.032Z</time></trkpt><trkpt lat="41.444251" lon="1.5238616"><ele>800.0</ele><time>2026-04-19T09:17:26.031Z</time></trkpt><trkpt lat="41.4441636" lon="1.5238863"><ele>800.0</ele><time>2026-04-19T09:17:27.032Z</time></trkpt><trkpt lat="41.4440776" lon="1.5239312"><ele>800.0</ele><time>2026-04-19T09:17:28.032Z</time></trkpt><trkpt lat="41.4439928" lon="1.5239943"><ele>800.0</ele><time>2026-04-19T09:17:29.032Z</time></trkpt><trkpt lat="41.4439019" lon="1.5240532"><ele>800.0</ele><time>2026-04-19T09:17:30.031Z</time></trkpt><trkpt lat="41.4438149" lon="1.524102"><ele>800.0</ele><time>2026-04-19T09:17:31.031Z</time></trkpt><trkpt lat="41.4437224" lon="1.5241335"><ele>800.0</ele><time>2026-04-19T09:17:32.032Z</time></trkpt><trkpt lat="41.4436269" lon="1.5241425"><ele>800.0</ele><time>2026-04-19T09:17:33.032Z</time></trkpt><trkpt lat="41.443526" lon="1.5241289"><ele>800.0</ele><time>2026-04-19T09:17:34.032Z</time></trkpt><trkpt lat="41.4434305" lon="1.5240845"><ele>799.2</ele><time>2026-04-19T09:17:35.032Z</time></trkpt><trkpt lat="41.4433464" lon="1.5240165"><ele>798.4</ele><time>2026-04-19T09:17:36.032Z</time></trkpt><trkpt lat="41.4432713" lon="1.5239211"><ele>797.5999999999999</ele><time>2026-04-19T09:17:37.032Z</time></trkpt><trkpt lat="41.4432022" lon="1.5238111"><ele>796.8</ele><time>2026-04-19T09:17:38.032Z</time></trkpt><trkpt lat="41.4431314" lon="1.5236995"><ele>796.0</ele><time>2026-04-19T09:17:39.031Z</time></trkpt><trkpt lat="41.4430556" lon="1.5235895"><ele>796.0</ele><time>2026-04-19T09:17:40.032Z</time></trkpt><trkpt lat="41.4429653" lon="1.5234897"><ele>796.0</ele><time>2026-04-19T09:17:41.032Z</time></trkpt><trkpt lat="41.4428657" lon="1.5234101"><ele>796.0</ele><time>2026-04-19T09:17:42.031Z</time></trkpt><trkpt lat="41.4427623" lon="1.5233414"><ele>796.0</ele><time>2026-04-19T09:17:43.032Z</time></trkpt><trkpt lat="41.4426624" lon="1.5232774"><ele>794.0</ele><time>2026-04-19T09:17:44.032Z</time></trkpt><trkpt lat="41.4425677" lon="1.5232178"><ele>792.0</ele><time>2026-04-19T09:17:45.031Z</time></trkpt><trkpt lat="41.4424776" lon="1.5231556"><ele>790.0</ele><time>2026-04-19T09:17:46.031Z</time></trkpt><trkpt lat="41.4423914" lon="1.523106"><ele>788.0</ele><time>2026-04-19T09:17:47.032Z</time></trkpt><trkpt lat="41.4423076" lon="1.5230566"><ele>786.0</ele><time>2026-04-19T09:17:48.032Z</time></trkpt><trkpt lat="41.4422257" lon="1.5230375"><ele>786.0</ele><time>2026-04-19T09:17:49.032Z</time></trkpt><trkpt lat="41.4421387" lon="1.5230342"><ele>786.0</ele><time>2026-04-19T09:17:50.032Z</time></trkpt><trkpt lat="41.4420577" lon="1.5230814"><ele>786.0</ele><time>2026-04-19T09:17:51.032Z</time></trkpt><trkpt lat="41.441974" lon="1.5231386"><ele>786.0</ele><time>2026-04-19T09:17:52.031Z</time></trkpt><trkpt lat="41.4418822" lon="1.5231687"><ele>786.0</ele><time>2026-04-19T09:17:53.031Z</time></trkpt><trkpt lat="41.4417851" lon="1.5231767"><ele>786.1999999999999</ele><time>2026-04-19T09:17:54.032Z</time></trkpt><trkpt lat="41.4416796" lon="1.5231784"><ele>786.4</ele><time>2026-04-19T09:17:55.032Z</time></trkpt><trkpt lat="41.4415758" lon="1.5232039"><ele>786.6</ele><time>2026-04-19T09:17:56.031Z</time></trkpt><trkpt lat="41.4414797" lon="1.5232337"><ele>786.8</ele><time>2026-04-19T09:17:57.031Z</time></trkpt><trkpt lat="41.4413876" lon="1.523261"><ele>787.0</ele><time>2026-04-19T09:17:58.032Z</time></trkpt><trkpt lat="41.4412967" lon="1.5232676"><ele>787.0</ele><time>2026-04-19T09:17:59.032Z</time></trkpt><trkpt lat="41.4412022" lon="1.5232396"><ele>787.0</ele><time>2026-04-19T09:18:00.031Z</time></trkpt><trkpt lat="41.4410979" lon="1.5231894"><ele>787.0</ele><time>2026-04-19T09:18:01.032Z</time></trkpt><trkpt lat="41.4409921" lon="1.5231198"><ele>787.0</ele><time>2026-04-19T09:18:02.032Z</time></trkpt><trkpt lat="41.440884" lon="1.5230613"><ele>787.0</ele><time>2026-04-19T09:18:03.032Z</time></trkpt><trkpt lat="41.4407722" lon="1.52303"><ele>787.0</ele><time>2026-04-19T09:18:04.031Z</time></trkpt><trkpt lat="41.4406557" lon="1.52301"><ele>787.0</ele><time>2026-04-19T09:18:05.032Z</time></trkpt><trkpt lat="41.4405374" lon="1.5229901"><ele>787.0</ele><time>2026-04-19T09:18:06.031Z</time></trkpt><trkpt lat="41.4404244" lon="1.5229723"><ele>787.0</ele><time>2026-04-19T09:18:07.032Z</time></trkpt><trkpt lat="41.4403111" lon="1.5229534"><ele>785.6</ele><time>2026-04-19T09:18:08.032Z</time></trkpt><trkpt lat="41.4401982" lon="1.522947"><ele>784.2</ele><time>2026-04-19T09:18:09.032Z</time></trkpt><trkpt lat="41.4400842" lon="1.522932"><ele>782.8</ele><time>2026-04-19T09:18:10.032Z</time></trkpt><trkpt lat="41.4399777" lon="1.5229115"><ele>781.4</ele><time>2026-04-19T09:18:11.032Z</time></trkpt><trkpt lat="41.4398816" lon="1.522877"><ele>780.0</ele><time>2026-04-19T09:18:12.031Z</time></trkpt><trkpt lat="41.4397932" lon="1.5228171"><ele>781.8</ele><time>2026-04-19T09:18:13.032Z</time></trkpt><trkpt lat="41.4397035" lon="1.5227379"><ele>783.6</ele><time>2026-04-19T09:18:14.031Z</time></trkpt><trkpt lat="41.4396101" lon="1.5226526"><ele>785.4000000000001</ele><time>2026-04-19T09:18:15.032Z</time></trkpt><trkpt lat="41.4395092" lon="1.5225846"><ele>787.2</ele><time>2026-04-19T09:18:16.032Z</time></trkpt><trkpt lat="41.4394047" lon="1.5225225"><ele>789.0</ele><time>2026-04-19T09:18:17.031Z</time></trkpt><trkpt lat="41.4393016" lon="1.5224602"><ele>789.0</ele><time>2026-04-19T09:18:18.032Z</time></trkpt><trkpt lat="41.4391964" lon="1.5223986"><ele>789.0</ele><time>2026-04-19T09:18:19.032Z</time></trkpt><trkpt lat="41.4390868" lon="1.5223702"><ele>789.0</ele><time>2026-04-19T09:18:20.031Z</time></trkpt><trkpt lat="41.4389785" lon="1.5223596"><ele>789.0</ele><time>2026-04-19T09:18:21.031Z</time></trkpt><trkpt lat="41.4388718" lon="1.5223509"><ele>789.0</ele><time>2026-04-19T09:18:22.031Z</time></trkpt><trkpt lat="41.4387677" lon="1.5223503"><ele>789.3333333333334</ele><time>2026-04-19T09:18:23.032Z</time></trkpt><trkpt lat="41.4386796" lon="1.5223256"><ele>789.6666666666667</ele><time>2026-04-19T09:18:24.032Z</time></trkpt><trkpt lat="41.4386143" lon="1.5222842"><ele>790.0</ele><time>2026-04-19T09:18:25.032Z</time></trkpt><trkpt lat="41.4385671" lon="1.5222171"><ele>790.3333333333334</ele><time>2026-04-19T09:18:26.031Z</time></trkpt><trkpt lat="41.4385178" lon="1.5221256"><ele>790.6666666666667</ele><time>2026-04-19T09:18:27.032Z</time></trkpt><trkpt lat="41.4384596" lon="1.5220104"><ele>791.0</ele><time>2026-04-19T09:18:28.031Z</time></trkpt><trkpt lat="41.4383933" lon="1.5218908"><ele>791.0</ele><time>2026-04-19T09:18:29.031Z</time></trkpt><trkpt lat="41.4383357" lon="1.5217624"><ele>791.0</ele><time>2026-04-19T09:18:30.032Z</time></trkpt><trkpt lat="41.4382719" lon="1.521626"><ele>791.0</ele><time>2026-04-19T09:18:31.031Z</time></trkpt><trkpt lat="41.4382019" lon="1.5214879"><ele>791.0</ele><time>2026-04-19T09:18:32.031Z</time></trkpt><trkpt lat="41.4381306" lon="1.5213605"><ele>791.0</ele><time>2026-04-19T09:18:33.032Z</time></trkpt><trkpt lat="41.438059" lon="1.5212391"><ele>791.0</ele><time>2026-04-19T09:18:34.031Z</time></trkpt><trkpt lat="41.4379999" lon="1.5211124"><ele>791.0</ele><time>2026-04-19T09:18:35.032Z</time></trkpt><trkpt lat="41.4379615" lon="1.5209796"><ele>791.0</ele><time>2026-04-19T09:18:36.032Z</time></trkpt><trkpt lat="41.4379585" lon="1.5208448"><ele>791.0</ele><time>2026-04-19T09:18:37.031Z</time></trkpt><trkpt lat="41.437988" lon="1.5207102"><ele>791.5</ele><time>2026-04-19T09:18:38.032Z</time></trkpt><trkpt lat="41.4380371" lon="1.5205762"><ele>792.0</ele><time>2026-04-19T09:18:39.032Z</time></trkpt><trkpt lat="41.4380769" lon="1.5204319"><ele>792.5</ele><time>2026-04-19T09:18:40.032Z</time></trkpt><trkpt lat="41.438096" lon="1.520285"><ele>793.0</ele><time>2026-04-19T09:18:41.032Z</time></trkpt><trkpt lat="41.4381028" lon="1.5201334"><ele>793.0</ele><time>2026-04-19T09:18:42.032Z</time></trkpt><trkpt lat="41.4381041" lon="1.519979"><ele>793.0</ele><time>2026-04-19T09:18:43.032Z</time></trkpt><trkpt lat="41.4380976" lon="1.5198325"><ele>793.0</ele><time>2026-04-19T09:18:44.031Z</time></trkpt><trkpt lat="41.4381063" lon="1.5196818"><ele>793.0</ele><time>2026-04-19T09:18:45.032Z</time></trkpt><trkpt lat="41.4381382" lon="1.5195284"><ele>791.5</ele><time>2026-04-19T09:18:46.031Z</time></trkpt><trkpt lat="41.4381664" lon="1.5193724"><ele>790.0</ele><time>2026-04-19T09:18:47.031Z</time></trkpt><trkpt lat="41.4381786" lon="1.5192057"><ele>788.5</ele><time>2026-04-19T09:18:48.032Z</time></trkpt><trkpt lat="41.4381922" lon="1.5190395"><ele>787.0</ele><time>2026-04-19T09:18:49.032Z</time></trkpt><trkpt lat="41.4382135" lon="1.5188823"><ele>786.0</ele><time>2026-04-19T09:18:50.032Z</time></trkpt><trkpt lat="41.4382289" lon="1.5187266"><ele>785.0</ele><time>2026-04-19T09:18:51.031Z</time></trkpt><trkpt lat="41.4382349" lon="1.5185891"><ele>784.0</ele><time>2026-04-19T09:18:52.031Z</time></trkpt><trkpt lat="41.4382267" lon="1.518454"><ele>783.0</ele><time>2026-04-19T09:18:53.032Z</time></trkpt><trkpt lat="41.4382071" lon="1.5183249"><ele>782.0</ele><time>2026-04-19T09:18:54.031Z</time></trkpt><trkpt lat="41.4381817" lon="1.5181989"><ele>782.0</ele><time>2026-04-19T09:18:55.031Z</time></trkpt><trkpt lat="41.4381687" lon="1.5180673"><ele>782.0</ele><time>2026-04-19T09:18:56.032Z</time></trkpt><trkpt lat="41.4381823" lon="1.5179358"><ele>782.0</ele><time>2026-04-19T09:18:57.031Z</time></trkpt><trkpt lat="41.438221" lon="1.5178105"><ele>782.0</ele><time>2026-04-19T09:18:58.032Z</time></trkpt><trkpt lat="41.4382737" lon="1.5176872"><ele>782.0</ele><time>2026-04-19T09:18:59.032Z</time></trkpt><trkpt lat="41.4383228" lon="1.5175791"><ele>781.0</ele><time>2026-04-19T09:19:00.032Z</time></trkpt><trkpt lat="41.43838" lon="1.5174804"><ele>780.0</ele><time>2026-04-19T09:19:01.031Z</time></trkpt><trkpt lat="41.4384425" lon="1.5173768"><ele>779.0</ele><time>2026-04-19T09:19:02.032Z</time></trkpt><trkpt lat="41.4385036" lon="1.5172607"><ele>778.0</ele><time>2026-04-19T09:19:03.032Z</time></trkpt><trkpt lat="41.4385657" lon="1.5171433"><ele>777.0</ele><time>2026-04-19T09:19:04.032Z</time></trkpt><trkpt lat="41.4386289" lon="1.5170292"><ele>777.0</ele><time>2026-04-19T09:19:05.032Z</time></trkpt><trkpt lat="41.4386975" lon="1.5169246"><ele>777.0</ele><time>2026-04-19T09:19:06.031Z</time></trkpt><trkpt lat="41.4387646" lon="1.5168249"><ele>777.0</ele><time>2026-04-19T09:19:07.032Z</time></trkpt><trkpt lat="41.4388238" lon="1.5167352"><ele>777.0</ele><time>2026-04-19T09:19:08.031Z</time></trkpt><trkpt lat="41.4388586" lon="1.5166489"><ele>777.0</ele><time>2026-04-19T09:19:09.031Z</time></trkpt><trkpt lat="41.4388701" lon="1.5165603"><ele>777.0</ele><time>2026-04-19T09:19:10.031Z</time></trkpt><trkpt lat="41.4388499" lon="1.5163917"><ele>777.0</ele><time>2026-04-19T09:19:12.032Z</time></trkpt><trkpt lat="41.4388068" lon="1.5163138"><ele>777.0</ele><time>2026-04-19T09:19:13.032Z</time></trkpt><trkpt lat="41.4387488" lon="1.5162413"><ele>777.0</ele><time>2026-04-19T09:19:14.031Z</time></trkpt><trkpt lat="41.4386911" lon="1.5161646"><ele>777.0</ele><time>2026-04-19T09:19:15.031Z</time></trkpt><trkpt lat="41.4386411" lon="1.516064"><ele>777.0</ele><time>2026-04-19T09:19:16.032Z</time></trkpt><trkpt lat="41.4386058" lon="1.5159416"><ele>777.0</ele><time>2026-04-19T09:19:17.031Z</time></trkpt><trkpt lat="41.4385905" lon="1.5158146"><ele>776.0</ele><time>2026-04-19T09:19:18.031Z</time></trkpt><trkpt lat="41.4385813" lon="1.5157049"><ele>775.0</ele><time>2026-04-19T09:19:19.032Z</time></trkpt><trkpt lat="41.4385629" lon="1.5156041"><ele>774.0</ele><time>2026-04-19T09:19:20.032Z</time></trkpt><trkpt lat="41.4385269" lon="1.5155181"><ele>773.0</ele><time>2026-04-19T09:19:21.032Z</time></trkpt><trkpt lat="41.4384682" lon="1.5154411"><ele>772.0</ele><time>2026-04-19T09:19:22.031Z</time></trkpt><trkpt lat="41.4383891" lon="1.5153844"><ele>771.0</ele><time>2026-04-19T09:19:23.031Z</time></trkpt><trkpt lat="41.4382925" lon="1.5153466"><ele>771.5999999999999</ele><time>2026-04-19T09:19:24.031Z</time></trkpt><trkpt lat="41.4381935" lon="1.5153069"><ele>772.2</ele><time>2026-04-19T09:19:25.031Z</time></trkpt><trkpt lat="41.4380916" lon="1.515254"><ele>772.8</ele><time>2026-04-19T09:19:26.031Z</time></trkpt><trkpt lat="41.4379949" lon="1.515196"><ele>773.4000000000001</ele><time>2026-04-19T09:19:27.032Z</time></trkpt><trkpt lat="41.4378991" lon="1.5151303"><ele>774.0</ele><time>2026-04-19T09:19:28.032Z</time></trkpt><trkpt lat="41.4378043" lon="1.5150706"><ele>774.0</ele><time>2026-04-19T09:19:29.031Z</time></trkpt><trkpt lat="41.437708" lon="1.5150245"><ele>774.0</ele><time>2026-04-19T09:19:30.032Z</time></trkpt><trkpt lat="41.437618" lon="1.5149937"><ele>774.0</ele><time>2026-04-19T09:19:31.032Z</time></trkpt><trkpt lat="41.4375363" lon="1.5149653"><ele>774.0</ele><time>2026-04-19T09:19:32.032Z</time></trkpt><trkpt lat="41.4374631" lon="1.5149188"><ele>774.0</ele><time>2026-04-19T09:19:33.032Z</time></trkpt><trkpt lat="41.4373993" lon="1.514848"><ele>774.0</ele><time>2026-04-19T09:19:34.032Z</time></trkpt><trkpt lat="41.4373382" lon="1.5147645"><ele>774.0</ele><time>2026-04-19T09:19:35.031Z</time></trkpt><trkpt lat="41.4372806" lon="1.5146701"><ele>774.0</ele><time>2026-04-19T09:19:36.032Z</time></trkpt><trkpt lat="41.437223" lon="1.5145679"><ele>774.0</ele><time>2026-04-19T09:19:37.031Z</time></trkpt><trkpt lat="41.4371619" lon="1.5144636"><ele>774.0</ele><time>2026-04-19T09:19:38.032Z</time></trkpt><trkpt lat="41.4370988" lon="1.5143482"><ele>774.0</ele><time>2026-04-19T09:19:39.032Z</time></trkpt><trkpt lat="41.4370364" lon="1.5142297"><ele>773.0</ele><time>2026-04-19T09:19:40.031Z</time></trkpt><trkpt lat="41.4369699" lon="1.5141148"><ele>772.0</ele><time>2026-04-19T09:19:41.031Z</time></trkpt><trkpt lat="41.4368988" lon="1.5140023"><ele>771.0</ele><time>2026-04-19T09:19:42.032Z</time></trkpt><trkpt lat="41.4368255" lon="1.5138946"><ele>770.0</ele><time>2026-04-19T09:19:43.032Z</time></trkpt><trkpt lat="41.4367434" lon="1.5137961"><ele>769.0</ele><time>2026-04-19T09:19:44.032Z</time></trkpt><trkpt lat="41.4366495" lon="1.5137021"><ele>767.5</ele><time>2026-04-19T09:19:45.032Z</time></trkpt><trkpt lat="41.4365557" lon="1.5136143"><ele>766.0</ele><time>2026-04-19T09:19:46.031Z</time></trkpt><trkpt lat="41.4364633" lon="1.5135219"><ele>764.5</ele><time>2026-04-19T09:19:47.031Z</time></trkpt><trkpt lat="41.4363767" lon="1.5134189"><ele>763.0</ele><time>2026-04-19T09:19:48.032Z</time></trkpt><trkpt lat="41.4362909" lon="1.5133222"><ele>763.0</ele><time>2026-04-19T09:19:49.032Z</time></trkpt><trkpt lat="41.4362001" lon="1.5132364"><ele>763.0</ele><time>2026-04-19T09:19:50.032Z</time></trkpt><trkpt lat="41.4361071" lon="1.5131584"><ele>763.0</ele><time>2026-04-19T09:19:51.032Z</time></trkpt><trkpt lat="41.4360241" lon="1.5130644"><ele>763.0</ele><time>2026-04-19T09:19:52.032Z</time></trkpt><trkpt lat="41.4359553" lon="1.512946"><ele>763.0</ele><time>2026-04-19T09:19:53.032Z</time></trkpt><trkpt lat="41.4359033" lon="1.5128086"><ele>763.25</ele><time>2026-04-19T09:19:54.032Z</time></trkpt><trkpt lat="41.4358544" lon="1.5126568"><ele>763.5</ele><time>2026-04-19T09:19:55.032Z</time></trkpt><trkpt lat="41.4358036" lon="1.5125039"><ele>763.75</ele><time>2026-04-19T09:19:56.032Z</time></trkpt><trkpt lat="41.4357536" lon="1.5123569"><ele>764.0</ele><time>2026-04-19T09:19:57.032Z</time></trkpt><trkpt lat="41.4357081" lon="1.5122139"><ele>764.0</ele><time>2026-04-19T09:19:58.031Z</time></trkpt><trkpt lat="41.4356713" lon="1.5120742"><ele>764.0</ele><time>2026-04-19T09:19:59.032Z</time></trkpt><trkpt lat="41.4356466" lon="1.5119338"><ele>764.0</ele><time>2026-04-19T09:20:00.032Z</time></trkpt><trkpt lat="41.4356349" lon="1.5117746"><ele>764.0</ele><time>2026-04-19T09:20:01.032Z</time></trkpt><trkpt lat="41.4356297" lon="1.5116161"><ele>763.5</ele><time>2026-04-19T09:20:02.032Z</time></trkpt><trkpt lat="41.4356115" lon="1.5114605"><ele>763.0</ele><time>2026-04-19T09:20:03.032Z</time></trkpt><trkpt lat="41.4355808" lon="1.5113066"><ele>762.5</ele><time>2026-04-19T09:20:04.032Z</time></trkpt><trkpt lat="41.435544" lon="1.5111689"><ele>762.0</ele><time>2026-04-19T09:20:05.032Z</time></trkpt><trkpt lat="41.435498" lon="1.5110414"><ele>760.6</ele><time>2026-04-19T09:20:06.032Z</time></trkpt><trkpt lat="41.4354508" lon="1.510913"><ele>759.2</ele><time>2026-04-19T09:20:07.032Z</time></trkpt><trkpt lat="41.4354121" lon="1.5107831"><ele>757.8</ele><time>2026-04-19T09:20:08.031Z</time></trkpt><trkpt lat="41.4353841" lon="1.5106557"><ele>756.4</ele><time>2026-04-19T09:20:09.032Z</time></trkpt><trkpt lat="41.43536" lon="1.510525"><ele>755.0</ele><time>2026-04-19T09:20:10.031Z</time></trkpt><trkpt lat="41.4353506" lon="1.5103905"><ele>754.6</ele><time>2026-04-19T09:20:11.031Z</time></trkpt><trkpt lat="41.4353597" lon="1.5102425"><ele>754.2</ele><time>2026-04-19T09:20:12.032Z</time></trkpt><trkpt lat="41.4353895" lon="1.510097"><ele>753.8</ele><time>2026-04-19T09:20:13.032Z</time></trkpt><trkpt lat="41.435429" lon="1.5099541"><ele>753.4</ele><time>2026-04-19T09:20:14.032Z</time></trkpt><trkpt lat="41.4354526" lon="1.5098147"><ele>753.0</ele><time>2026-04-19T09:20:15.032Z</time></trkpt><trkpt lat="41.4354589" lon="1.509674"><ele>752.8</ele><time>2026-04-19T09:20:16.032Z</time></trkpt><trkpt lat="41.435452" lon="1.50953"><ele>752.5999999999999</ele><time>2026-04-19T09:20:17.031Z</time></trkpt><trkpt lat="41.4354285" lon="1.5093983"><ele>752.4000000000001</ele><time>2026-04-19T09:20:18.032Z</time></trkpt><trkpt lat="41.4353885" lon="1.5092854"><ele>752.2</ele><time>2026-04-19T09:20:19.032Z</time></trkpt><trkpt lat="41.4353409" lon="1.5091749"><ele>752.0</ele><time>2026-04-19T09:20:20.032Z</time></trkpt><trkpt lat="41.4353063" lon="1.509042"><ele>752.0</ele><time>2026-04-19T09:20:21.032Z</time></trkpt><trkpt lat="41.4352948" lon="1.5089038"><ele>752.0</ele><time>2026-04-19T09:20:22.032Z</time></trkpt><trkpt lat="41.4352931" lon="1.5087686"><ele>752.0</ele><time>2026-04-19T09:20:23.032Z</time></trkpt><trkpt lat="41.4353024" lon="1.508635"><ele>752.0</ele><time>2026-04-19T09:20:24.031Z</time></trkpt><trkpt lat="41.4353214" lon="1.5084935"><ele>752.0</ele><time>2026-04-19T09:20:25.032Z</time></trkpt><trkpt lat="41.435341" lon="1.508341"><ele>753.25</ele><time>2026-04-19T09:20:26.032Z</time></trkpt><trkpt lat="41.4353628" lon="1.508178"><ele>754.5</ele><time>2026-04-19T09:20:27.031Z</time></trkpt><trkpt lat="41.4353843" lon="1.508024"><ele>755.75</ele><time>2026-04-19T09:20:28.032Z</time></trkpt><trkpt lat="41.435407" lon="1.5078721"><ele>757.0</ele><time>2026-04-19T09:20:29.032Z</time></trkpt><trkpt lat="41.435425" lon="1.507728"><ele>757.75</ele><time>2026-04-19T09:20:30.032Z</time></trkpt><trkpt lat="41.435441" lon="1.5075772"><ele>758.5</ele><time>2026-04-19T09:20:31.032Z</time></trkpt><trkpt lat="41.4354544" lon="1.5074302"><ele>759.25</ele><time>2026-04-19T09:20:32.032Z</time></trkpt><trkpt lat="41.4354713" lon="1.5072722"><ele>760.0</ele><time>2026-04-19T09:20:33.031Z</time></trkpt><trkpt lat="41.4354941" lon="1.5071243"><ele>761.6</ele><time>2026-04-19T09:20:34.032Z</time></trkpt><trkpt lat="41.4355287" lon="1.5069912"><ele>763.2</ele><time>2026-04-19T09:20:35.032Z</time></trkpt><trkpt lat="41.4355755" lon="1.5068809"><ele>764.8</ele><time>2026-04-19T09:20:36.032Z</time></trkpt><trkpt lat="41.4356441" lon="1.5067895"><ele>766.4</ele><time>2026-04-19T09:20:37.032Z</time></trkpt><trkpt lat="41.435727" lon="1.5066934"><ele>768.0</ele><time>2026-04-19T09:20:38.031Z</time></trkpt><trkpt lat="41.4358086" lon="1.5066023"><ele>768.0</ele><time>2026-04-19T09:20:39.032Z</time></trkpt><trkpt lat="41.4358876" lon="1.5065129"><ele>768.0</ele><time>2026-04-19T09:20:40.032Z</time></trkpt><trkpt lat="41.4359499" lon="1.5064185"><ele>768.0</ele><time>2026-04-19T09:20:41.032Z</time></trkpt><trkpt lat="41.4359874" lon="1.5063121"><ele>768.0</ele><time>2026-04-19T09:20:42.031Z</time></trkpt><trkpt lat="41.4360018" lon="1.5061871"><ele>768.0</ele><time>2026-04-19T09:20:43.032Z</time></trkpt><trkpt lat="41.436" lon="1.5060567"><ele>768.0</ele><time>2026-04-19T09:20:44.032Z</time></trkpt><trkpt lat="41.435997" lon="1.5059332"><ele>768.0</ele><time>2026-04-19T09:20:45.032Z</time></trkpt><trkpt lat="41.4359938" lon="1.505819"><ele>768.0</ele><time>2026-04-19T09:20:46.031Z</time></trkpt><trkpt lat="41.4359855" lon="1.5057194"><ele>768.0</ele><time>2026-04-19T09:20:47.031Z</time></trkpt><trkpt lat="41.4359706" lon="1.5056364"><ele>768.0</ele><time>2026-04-19T09:20:48.031Z</time></trkpt><trkpt lat="41.4359139" lon="1.5054777"><ele>768.0</ele><time>2026-04-19T09:20:50.032Z</time></trkpt><trkpt lat="41.4358537" lon="1.5054072"><ele>767.2</ele><time>2026-04-19T09:20:51.031Z</time></trkpt><trkpt lat="41.4357743" lon="1.5053451"><ele>766.4</ele><time>2026-04-19T09:20:52.032Z</time></trkpt><trkpt lat="41.4356773" lon="1.5052948"><ele>765.6</ele><time>2026-04-19T09:20:53.032Z</time></trkpt><trkpt lat="41.4355659" lon="1.5052538"><ele>764.8000000000001</ele><time>2026-04-19T09:20:54.031Z</time></trkpt><trkpt lat="41.4354504" lon="1.5052115"><ele>764.0</ele><time>2026-04-19T09:20:55.032Z</time></trkpt><trkpt lat="41.4353274" lon="1.505163"><ele>764.0</ele><time>2026-04-19T09:20:56.031Z</time></trkpt><trkpt lat="41.4352057" lon="1.505109"><ele>764.0</ele><time>2026-04-19T09:20:57.032Z</time></trkpt><trkpt lat="41.4350837" lon="1.5050439"><ele>764.0</ele><time>2026-04-19T09:20:58.031Z</time></trkpt><trkpt lat="41.4349601" lon="1.5049845"><ele>764.0</ele><time>2026-04-19T09:20:59.032Z</time></trkpt><trkpt lat="41.4348374" lon="1.5049282"><ele>764.0</ele><time>2026-04-19T09:21:00.032Z</time></trkpt><trkpt lat="41.4347127" lon="1.5048774"><ele>764.0</ele><time>2026-04-19T09:21:01.032Z</time></trkpt><trkpt lat="41.434587" lon="1.5048493"><ele>764.0</ele><time>2026-04-19T09:21:02.032Z</time></trkpt><trkpt lat="41.4344627" lon="1.5048487"><ele>764.0</ele><time>2026-04-19T09:21:03.031Z</time></trkpt><trkpt lat="41.4343464" lon="1.5048651"><ele>762.2</ele><time>2026-04-19T09:21:04.032Z</time></trkpt><trkpt lat="41.4342295" lon="1.5048728"><ele>760.4000000000001</ele><time>2026-04-19T09:21:05.031Z</time></trkpt><trkpt lat="41.4341217" lon="1.5048809"><ele>758.6</ele><time>2026-04-19T09:21:06.031Z</time></trkpt><trkpt lat="41.4340224" lon="1.5048753"><ele>756.8</ele><time>2026-04-19T09:21:07.031Z</time></trkpt><trkpt lat="41.4339354" lon="1.5048384"><ele>755.0</ele><time>2026-04-19T09:21:08.032Z</time></trkpt><trkpt lat="41.4338693" lon="1.5047657"><ele>755.0</ele><time>2026-04-19T09:21:09.032Z</time></trkpt><trkpt lat="41.4338237" lon="1.5046559"><ele>755.0</ele><time>2026-04-19T09:21:10.031Z</time></trkpt><trkpt lat="41.4337956" lon="1.5045165"><ele>755.0</ele><time>2026-04-19T09:21:11.031Z</time></trkpt><trkpt lat="41.4337892" lon="1.504363"><ele>755.0</ele><time>2026-04-19T09:21:12.031Z</time></trkpt><trkpt lat="41.433798" lon="1.5042151"><ele>755.0</ele><time>2026-04-19T09:21:13.031Z</time></trkpt><trkpt lat="41.4338067" lon="1.5040745"><ele>755.3333333333333</ele><time>2026-04-19T09:21:14.031Z</time></trkpt><trkpt lat="41.4337992" lon="1.5039471"><ele>755.6666666666666</ele><time>2026-04-19T09:21:15.032Z</time></trkpt><trkpt lat="41.4337779" lon="1.5038343"><ele>756.0</ele><time>2026-04-19T09:21:16.032Z</time></trkpt><trkpt lat="41.4337371" lon="1.5037462"><ele>756.3333333333334</ele><time>2026-04-19T09:21:17.031Z</time></trkpt><trkpt lat="41.4336791" lon="1.5036898"><ele>756.6666666666667</ele><time>2026-04-19T09:21:18.032Z</time></trkpt><trkpt lat="41.4335964" lon="1.5036623"><ele>757.0</ele><time>2026-04-19T09:21:19.032Z</time></trkpt><trkpt lat="41.4334982" lon="1.5036476"><ele>757.0</ele><time>2026-04-19T09:21:20.031Z</time></trkpt><trkpt lat="41.433387" lon="1.5036556"><ele>757.0</ele><time>2026-04-19T09:21:21.032Z</time></trkpt><trkpt lat="41.4332809" lon="1.503685"><ele>757.0</ele><time>2026-04-19T09:21:22.031Z</time></trkpt><trkpt lat="41.4331803" lon="1.5037102"><ele>757.0</ele><time>2026-04-19T09:21:23.031Z</time></trkpt><trkpt lat="41.4330843" lon="1.5037069"><ele>757.0</ele><time>2026-04-19T09:21:24.032Z</time></trkpt><trkpt lat="41.4329987" lon="1.5036729"><ele>753.4000000000001</ele><time>2026-04-19T09:21:25.032Z</time></trkpt><trkpt lat="41.4329313" lon="1.5036071"><ele>749.8000000000001</ele><time>2026-04-19T09:21:26.032Z</time></trkpt><trkpt lat="41.4328888" lon="1.5035045"><ele>746.2</ele><time>2026-04-19T09:21:27.032Z</time></trkpt><trkpt lat="41.4328623" lon="1.5033905"><ele>742.6</ele><time>2026-04-19T09:21:28.032Z</time></trkpt><trkpt lat="41.4328496" lon="1.5032683"><ele>739.0</ele><time>2026-04-19T09:21:29.032Z</time></trkpt><trkpt lat="41.4328423" lon="1.5031324"><ele>739.0</ele><time>2026-04-19T09:21:30.031Z</time></trkpt><trkpt lat="41.4328343" lon="1.5029921"><ele>739.0</ele><time>2026-04-19T09:21:31.032Z</time></trkpt><trkpt lat="41.4328294" lon="1.5028486"><ele>739.0</ele><time>2026-04-19T09:21:32.031Z</time></trkpt><trkpt lat="41.432825" lon="1.5027051"><ele>739.0</ele><time>2026-04-19T09:21:33.031Z</time></trkpt><trkpt lat="41.4328098" lon="1.5025713"><ele>739.0</ele><time>2026-04-19T09:21:34.031Z</time></trkpt><trkpt lat="41.4327805" lon="1.5024433"><ele>739.8000000000001</ele><time>2026-04-19T09:21:35.032Z</time></trkpt><trkpt lat="41.4327287" lon="1.5023326"><ele>740.6</ele><time>2026-04-19T09:21:36.032Z</time></trkpt><trkpt lat="41.4326506" lon="1.5022388"><ele>741.4</ele><time>2026-04-19T09:21:37.032Z</time></trkpt><trkpt lat="41.4325562" lon="1.5021723"><ele>742.2</ele><time>2026-04-19T09:21:38.032Z</time></trkpt><trkpt lat="41.4324608" lon="1.5021083"><ele>743.0</ele><time>2026-04-19T09:21:39.031Z</time></trkpt><trkpt lat="41.4323702" lon="1.5020303"><ele>744.4</ele><time>2026-04-19T09:21:40.031Z</time></trkpt><trkpt lat="41.4322936" lon="1.5019231"><ele>745.8</ele><time>2026-04-19T09:21:41.031Z</time></trkpt><trkpt lat="41.4322257" lon="1.5017997"><ele>747.2</ele><time>2026-04-19T09:21:42.032Z</time></trkpt><trkpt lat="41.4321611" lon="1.5016775"><ele>748.6</ele><time>2026-04-19T09:21:43.031Z</time></trkpt><trkpt lat="41.4320856" lon="1.501573"><ele>750.0</ele><time>2026-04-19T09:21:44.032Z</time></trkpt><trkpt lat="41.4319933" lon="1.5014926"><ele>750.0</ele><time>2026-04-19T09:21:45.031Z</time></trkpt><trkpt lat="41.4318892" lon="1.5014324"><ele>750.0</ele><time>2026-04-19T09:21:46.032Z</time></trkpt><trkpt lat="41.4317842" lon="1.5013742"><ele>750.0</ele><time>2026-04-19T09:21:47.031Z</time></trkpt><trkpt lat="41.4316838" lon="1.5013043"><ele>750.0</ele><time>2026-04-19T09:21:48.032Z</time></trkpt><trkpt lat="41.4315736" lon="1.5012495"><ele>751.4</ele><time>2026-04-19T09:21:49.032Z</time></trkpt><trkpt lat="41.4314621" lon="1.5011973"><ele>752.8</ele><time>2026-04-19T09:21:50.032Z</time></trkpt><trkpt lat="41.4313565" lon="1.5011507"><ele>754.2</ele><time>2026-04-19T09:21:51.034Z</time></trkpt><trkpt lat="41.4312548" lon="1.5011055"><ele>755.6</ele><time>2026-04-19T09:21:52.033Z</time></trkpt><trkpt lat="41.4311564" lon="1.5010527"><ele>757.0</ele><time>2026-04-19T09:21:53.032Z</time></trkpt><trkpt lat="41.4310616" lon="1.501013"><ele>757.0</ele><time>2026-04-19T09:21:54.034Z</time></trkpt><trkpt lat="41.4309726" lon="1.5010103"><ele>757.0</ele><time>2026-04-19T09:21:55.035Z</time></trkpt><trkpt lat="41.4309034" lon="1.5010281"><ele>757.0</ele><time>2026-04-19T09:21:56.032Z</time></trkpt><trkpt lat="41.4308406" lon="1.5010489"><ele>757.0</ele><time>2026-04-19T09:21:57.032Z</time></trkpt><trkpt lat="41.4307774" lon="1.5010868"><ele>757.0</ele><time>2026-04-19T09:21:58.033Z</time></trkpt><trkpt lat="41.430708" lon="1.5011422"><ele>757.0</ele><time>2026-04-19T09:21:59.033Z</time></trkpt><trkpt lat="41.4306236" lon="1.5011778"><ele>757.0</ele><time>2026-04-19T09:22:00.033Z</time></trkpt><trkpt lat="41.4305179" lon="1.501196"><ele>757.0</ele><time>2026-04-19T09:22:01.033Z</time></trkpt><trkpt lat="41.4303984" lon="1.501215"><ele>757.0</ele><time>2026-04-19T09:22:02.032Z</time></trkpt><trkpt lat="41.4302807" lon="1.5012346"><ele>757.0</ele><time>2026-04-19T09:22:03.032Z</time></trkpt><trkpt lat="41.430162" lon="1.5012515"><ele>753.8</ele><time>2026-04-19T09:22:04.033Z</time></trkpt><trkpt lat="41.4300475" lon="1.5012636"><ele>750.6</ele><time>2026-04-19T09:22:05.033Z</time></trkpt><trkpt lat="41.4299396" lon="1.5012824"><ele>747.4</ele><time>2026-04-19T09:22:06.032Z</time></trkpt><trkpt lat="41.4298411" lon="1.5013293"><ele>744.1999999999999</ele><time>2026-04-19T09:22:07.033Z</time></trkpt><trkpt lat="41.4297435" lon="1.5013783"><ele>741.0</ele><time>2026-04-19T09:22:08.033Z</time></trkpt><trkpt lat="41.429627" lon="1.5014191"><ele>740.5</ele><time>2026-04-19T09:22:09.033Z</time></trkpt><trkpt lat="41.4295042" lon="1.5014535"><ele>740.0</ele><time>2026-04-19T09:22:10.033Z</time></trkpt><trkpt lat="41.4293858" lon="1.5014904"><ele>739.5</ele><time>2026-04-19T09:22:11.032Z</time></trkpt><trkpt lat="41.4292728" lon="1.5015426"><ele>739.0</ele><time>2026-04-19T09:22:12.033Z</time></trkpt><trkpt lat="41.4291641" lon="1.501616"><ele>739.0</ele><time>2026-04-19T09:22:13.033Z</time></trkpt><trkpt lat="41.4290522" lon="1.5017026"><ele>739.0</ele><time>2026-04-19T09:22:14.033Z</time></trkpt><trkpt lat="41.4289558" lon="1.5018174"><ele>739.0</ele><time>2026-04-19T09:22:15.032Z</time></trkpt><trkpt lat="41.4288585" lon="1.501923"><ele>739.0</ele><time>2026-04-19T09:22:16.033Z</time></trkpt><trkpt lat="41.4287674" lon="1.5020324"><ele>736.4000000000001</ele><time>2026-04-19T09:22:17.033Z</time></trkpt><trkpt lat="41.4286763" lon="1.5021345"><ele>733.8</ele><time>2026-04-19T09:22:18.032Z</time></trkpt><trkpt lat="41.4285977" lon="1.5022169"><ele>731.2</ele><time>2026-04-19T09:22:19.033Z</time></trkpt><trkpt lat="41.4285182" lon="1.5022743"><ele>728.5999999999999</ele><time>2026-04-19T09:22:20.032Z</time></trkpt><trkpt lat="41.4284349" lon="1.5022877"><ele>726.0</ele><time>2026-04-19T09:22:21.033Z</time></trkpt><trkpt lat="41.4283636" lon="1.5022615"><ele>726.0</ele><time>2026-04-19T09:22:22.032Z</time></trkpt><trkpt lat="41.4283031" lon="1.5022012"><ele>726.0</ele><time>2026-04-19T09:22:23.033Z</time></trkpt><trkpt lat="41.4282507" lon="1.5021104"><ele>726.0</ele><time>2026-04-19T09:22:24.032Z</time></trkpt><trkpt lat="41.4281904" lon="1.5020018"><ele>726.0</ele><time>2026-04-19T09:22:25.032Z</time></trkpt><trkpt lat="41.4281279" lon="1.5018826"><ele>726.0</ele><time>2026-04-19T09:22:26.033Z</time></trkpt><trkpt lat="41.4280656" lon="1.5017625"><ele>726.8</ele><time>2026-04-19T09:22:27.033Z</time></trkpt><trkpt lat="41.4280113" lon="1.5016377"><ele>727.5999999999999</ele><time>2026-04-19T09:22:28.032Z</time></trkpt><trkpt lat="41.4279612" lon="1.501507"><ele>728.4</ele><time>2026-04-19T09:22:29.033Z</time></trkpt><trkpt lat="41.427931" lon="1.5013727"><ele>729.2</ele><time>2026-04-19T09:22:30.032Z</time></trkpt><trkpt lat="41.4279218" lon="1.5012389"><ele>730.0</ele><time>2026-04-19T09:22:31.032Z</time></trkpt><trkpt lat="41.4279412" lon="1.5011143"><ele>729.6666666666667</ele><time>2026-04-19T09:22:32.033Z</time></trkpt><trkpt lat="41.4279741" lon="1.5010029"><ele>729.3333333333334</ele><time>2026-04-19T09:22:33.033Z</time></trkpt><trkpt lat="41.4279928" lon="1.5008999"><ele>729.0</ele><time>2026-04-19T09:22:34.033Z</time></trkpt><trkpt lat="41.4279769" lon="1.5008033"><ele>728.6666666666666</ele><time>2026-04-19T09:22:35.033Z</time></trkpt><trkpt lat="41.4279275" lon="1.5007156"><ele>728.3333333333333</ele><time>2026-04-19T09:22:36.032Z</time></trkpt><trkpt lat="41.4278501" lon="1.5006419"><ele>728.0</ele><time>2026-04-19T09:22:37.032Z</time></trkpt><trkpt lat="41.4277644" lon="1.500577"><ele>726.4</ele><time>2026-04-19T09:22:38.033Z</time></trkpt><trkpt lat="41.4276941" lon="1.5004873"><ele>724.8</ele><time>2026-04-19T09:22:39.032Z</time></trkpt><trkpt lat="41.4276424" lon="1.5003768"><ele>723.2</ele><time>2026-04-19T09:22:40.033Z</time></trkpt><trkpt lat="41.4276181" lon="1.5002444"><ele>721.6</ele><time>2026-04-19T09:22:41.032Z</time></trkpt><trkpt lat="41.4276098" lon="1.5001127"><ele>720.0</ele><time>2026-04-19T09:22:42.032Z</time></trkpt><trkpt lat="41.427589" lon="1.5000007"><ele>720.0</ele><time>2026-04-19T09:22:43.033Z</time></trkpt><trkpt lat="41.4275569" lon="1.4999041"><ele>720.0</ele><time>2026-04-19T09:22:44.033Z</time></trkpt><trkpt lat="41.4274929" lon="1.4998447"><ele>720.0</ele><time>2026-04-19T09:22:45.033Z</time></trkpt><trkpt lat="41.4273962" lon="1.4998234"><ele>720.0</ele><time>2026-04-19T09:22:46.032Z</time></trkpt><trkpt lat="41.427313" lon="1.4998124"><ele>720.0</ele><time>2026-04-19T09:22:47.033Z</time></trkpt><trkpt lat="41.4272336" lon="1.499845"><ele>720.0</ele><time>2026-04-19T09:22:48.032Z</time></trkpt><trkpt lat="41.4271605" lon="1.4999063"><ele>719.1666666666666</ele><time>2026-04-19T09:22:49.032Z</time></trkpt><trkpt lat="41.4270957" lon="1.4999849"><ele>718.3333333333334</ele><time>2026-04-19T09:22:50.033Z</time></trkpt><trkpt lat="41.4270313" lon="1.5000779"><ele>717.5</ele><time>2026-04-19T09:22:51.033Z</time></trkpt><trkpt lat="41.4269775" lon="1.50017"><ele>716.6666666666667</ele><time>2026-04-19T09:22:52.033Z</time></trkpt><trkpt lat="41.4269228" lon="1.5002523"><ele>715.8333333333334</ele><time>2026-04-19T09:22:53.032Z</time></trkpt><trkpt lat="41.4268587" lon="1.5003208"><ele>715.0</ele><time>2026-04-19T09:22:54.033Z</time></trkpt><trkpt lat="41.4267815" lon="1.5003771"><ele>713.6</ele><time>2026-04-19T09:22:55.032Z</time></trkpt><trkpt lat="41.4266929" lon="1.5004284"><ele>712.2</ele><time>2026-04-19T09:22:56.033Z</time></trkpt><trkpt lat="41.4266035" lon="1.5004885"><ele>710.8</ele><time>2026-04-19T09:22:57.033Z</time></trkpt><trkpt lat="41.4265093" lon="1.5005396"><ele>709.4</ele><time>2026-04-19T09:22:58.033Z</time></trkpt><trkpt lat="41.4264089" lon="1.5005452"><ele>708.0</ele><time>2026-04-19T09:22:59.032Z</time></trkpt><trkpt lat="41.4263003" lon="1.5005366"><ele>707.4</ele><time>2026-04-19T09:23:00.033Z</time></trkpt><trkpt lat="41.4262002" lon="1.5005015"><ele>706.8</ele><time>2026-04-19T09:23:01.033Z</time></trkpt><trkpt lat="41.4260984" lon="1.5004421"><ele>706.2</ele><time>2026-04-19T09:23:02.033Z</time></trkpt><trkpt lat="41.4260034" lon="1.5003667"><ele>705.6</ele><time>2026-04-19T09:23:03.032Z</time></trkpt><trkpt lat="41.4259052" lon="1.5002999"><ele>705.0</ele><time>2026-04-19T09:23:04.033Z</time></trkpt><trkpt lat="41.4258066" lon="1.5002421"><ele>705.0</ele><time>2026-04-19T09:23:05.033Z</time></trkpt><trkpt lat="41.425712" lon="1.5001812"><ele>705.0</ele><time>2026-04-19T09:23:06.033Z</time></trkpt><trkpt lat="41.4256241" lon="1.5001201"><ele>705.0</ele><time>2026-04-19T09:23:07.032Z</time></trkpt><trkpt lat="41.4255396" lon="1.5000597"><ele>705.0</ele><time>2026-04-19T09:23:08.033Z</time></trkpt><trkpt lat="41.4254524" lon="1.5000073"><ele>705.0</ele><time>2026-04-19T09:23:09.032Z</time></trkpt><trkpt lat="41.4253604" lon="1.4999518"><ele>703.6</ele><time>2026-04-19T09:23:10.032Z</time></trkpt><trkpt lat="41.4252644" lon="1.4999119"><ele>702.2</ele><time>2026-04-19T09:23:11.033Z</time></trkpt><trkpt lat="41.4251636" lon="1.4998751"><ele>700.8</ele><time>2026-04-19T09:23:12.032Z</time></trkpt><trkpt lat="41.4250599" lon="1.499852"><ele>699.4</ele><time>2026-04-19T09:23:13.033Z</time></trkpt><trkpt lat="41.4249516" lon="1.4998501"><ele>698.0</ele><time>2026-04-19T09:23:14.033Z</time></trkpt><trkpt lat="41.4248461" lon="1.4998526"><ele>698.0</ele><time>2026-04-19T09:23:15.032Z</time></trkpt><trkpt lat="41.42474" lon="1.4998494"><ele>698.0</ele><time>2026-04-19T09:23:16.032Z</time></trkpt><trkpt lat="41.4246291" lon="1.4998608"><ele>698.0</ele><time>2026-04-19T09:23:17.033Z</time></trkpt><trkpt lat="41.4245291" lon="1.4998963"><ele>698.0</ele><time>2026-04-19T09:23:18.033Z</time></trkpt><trkpt lat="41.4244357" lon="1.4999611"><ele>698.0</ele><time>2026-04-19T09:23:19.033Z</time></trkpt><trkpt lat="41.4243466" lon="1.5000454"><ele>696.8</ele><time>2026-04-19T09:23:20.032Z</time></trkpt><trkpt lat="41.4242727" lon="1.500146"><ele>695.5999999999999</ele><time>2026-04-19T09:23:21.033Z</time></trkpt><trkpt lat="41.4242038" lon="1.5002546"><ele>694.4000000000001</ele><time>2026-04-19T09:23:22.032Z</time></trkpt><trkpt lat="41.4241292" lon="1.5003539"><ele>693.2</ele><time>2026-04-19T09:23:23.032Z</time></trkpt><trkpt lat="41.4240436" lon="1.5004263"><ele>692.0</ele><time>2026-04-19T09:23:24.033Z</time></trkpt><trkpt lat="41.4239471" lon="1.5004726"><ele>692.0</ele><time>2026-04-19T09:23:25.033Z</time></trkpt><trkpt lat="41.4238385" lon="1.5004891"><ele>692.0</ele><time>2026-04-19T09:23:26.032Z</time></trkpt><trkpt lat="41.4237287" lon="1.5004936"><ele>692.0</ele><time>2026-04-19T09:23:27.033Z</time></trkpt><trkpt lat="41.4236156" lon="1.5004963"><ele>692.0</ele><time>2026-04-19T09:23:28.032Z</time></trkpt><trkpt lat="41.4235023" lon="1.500503"><ele>692.0</ele><time>2026-04-19T09:23:29.033Z</time></trkpt><trkpt lat="41.4233911" lon="1.5005179"><ele>691.2</ele><time>2026-04-19T09:23:30.032Z</time></trkpt><trkpt lat="41.4232802" lon="1.5005221"><ele>690.4000000000001</ele><time>2026-04-19T09:23:31.032Z</time></trkpt><trkpt lat="41.4231704" lon="1.5005027"><ele>689.5999999999999</ele><time>2026-04-19T09:23:32.032Z</time></trkpt><trkpt lat="41.423067" lon="1.5004605"><ele>688.8</ele><time>2026-04-19T09:23:33.033Z</time></trkpt><trkpt lat="41.4229651" lon="1.5004114"><ele>688.0</ele><time>2026-04-19T09:23:34.033Z</time></trkpt><trkpt lat="41.4228621" lon="1.5003713"><ele>687.0</ele><time>2026-04-19T09:23:35.033Z</time></trkpt><trkpt lat="41.422753" lon="1.500343"><ele>686.0</ele><time>2026-04-19T09:23:36.032Z</time></trkpt><trkpt lat="41.4226439" lon="1.5003202"><ele>685.0</ele><time>2026-04-19T09:23:37.033Z</time></trkpt><trkpt lat="41.4225353" lon="1.5003046"><ele>684.0</ele><time>2026-04-19T09:23:38.033Z</time></trkpt><trkpt lat="41.4224224" lon="1.500293"><ele>683.0</ele><time>2026-04-19T09:23:39.033Z</time></trkpt><trkpt lat="41.4223136" lon="1.5002606"><ele>683.0</ele><time>2026-04-19T09:23:40.032Z</time></trkpt><trkpt lat="41.4222031" lon="1.5002209"><ele>683.0</ele><time>2026-04-19T09:23:41.033Z</time></trkpt><trkpt lat="41.4220929" lon="1.5001812"><ele>683.0</ele><time>2026-04-19T09:23:42.032Z</time></trkpt><trkpt lat="41.4219876" lon="1.5001348"><ele>683.0</ele><time>2026-04-19T09:23:43.033Z</time></trkpt><trkpt lat="41.4218878" lon="1.5000961"><ele>683.0</ele><time>2026-04-19T09:23:44.033Z</time></trkpt><trkpt lat="41.4217903" lon="1.5000786"><ele>683.0</ele><time>2026-04-19T09:23:45.032Z</time></trkpt><trkpt lat="41.4216955" lon="1.5000938"><ele>683.0</ele><time>2026-04-19T09:23:46.033Z</time></trkpt><trkpt lat="41.4216049" lon="1.5001418"><ele>683.0</ele><time>2026-04-19T09:23:47.032Z</time></trkpt><trkpt lat="41.4215176" lon="1.5002296"><ele>683.0</ele><time>2026-04-19T09:23:48.032Z</time></trkpt><trkpt lat="41.4214457" lon="1.5003315"><ele>683.0</ele><time>2026-04-19T09:23:49.033Z</time></trkpt><trkpt lat="41.4213862" lon="1.5004286"><ele>683.0</ele><time>2026-04-19T09:23:50.032Z</time></trkpt><trkpt lat="41.4213223" lon="1.5005062"><ele>683.0</ele><time>2026-04-19T09:23:51.032Z</time></trkpt><trkpt lat="41.4212536" lon="1.5005479"><ele>683.0</ele><time>2026-04-19T09:23:52.033Z</time></trkpt><trkpt lat="41.421167" lon="1.5005455"><ele>683.0</ele><time>2026-04-19T09:23:53.033Z</time></trkpt><trkpt lat="41.4210962" lon="1.5004982"><ele>683.0</ele><time>2026-04-19T09:23:54.033Z</time></trkpt><trkpt lat="41.4210371" lon="1.5004258"><ele>683.0</ele><time>2026-04-19T09:23:55.033Z</time></trkpt><trkpt lat="41.4210034" lon="1.5003349"><ele>680.8</ele><time>2026-04-19T09:23:56.033Z</time></trkpt><trkpt lat="41.4209934" lon="1.5002324"><ele>678.5999999999999</ele><time>2026-04-19T09:23:57.032Z</time></trkpt><trkpt lat="41.4209952" lon="1.5001094"><ele>676.4000000000001</ele><time>2026-04-19T09:23:58.032Z</time></trkpt><trkpt lat="41.4209923" lon="1.4999804"><ele>674.2</ele><time>2026-04-19T09:23:59.033Z</time></trkpt><trkpt lat="41.4209759" lon="1.4998477"><ele>672.0</ele><time>2026-04-19T09:24:00.032Z</time></trkpt><trkpt lat="41.4209475" lon="1.4997267"><ele>672.0</ele><time>2026-04-19T09:24:01.032Z</time></trkpt><trkpt lat="41.4209219" lon="1.4996035"><ele>672.0</ele><time>2026-04-19T09:24:02.033Z</time></trkpt><trkpt lat="41.4208981" lon="1.4994786"><ele>672.0</ele><time>2026-04-19T09:24:03.033Z</time></trkpt><trkpt lat="41.4208768" lon="1.4993501"><ele>672.0</ele><time>2026-04-19T09:24:04.032Z</time></trkpt><trkpt lat="41.4208574" lon="1.4992234"><ele>672.0</ele><time>2026-04-19T09:24:05.033Z</time></trkpt><trkpt lat="41.4208304" lon="1.4990996"><ele>671.8</ele><time>2026-04-19T09:24:06.032Z</time></trkpt><trkpt lat="41.4207899" lon="1.4989802"><ele>671.6</ele><time>2026-04-19T09:24:07.032Z</time></trkpt><trkpt lat="41.4207456" lon="1.4988773"><ele>671.4</ele><time>2026-04-19T09:24:08.033Z</time></trkpt><trkpt lat="41.4206947" lon="1.4987848"><ele>671.1999999999999</ele><time>2026-04-19T09:24:09.033Z</time></trkpt><trkpt lat="41.4206358" lon="1.4986971"><ele>671.0</ele><time>2026-04-19T09:24:10.033Z</time></trkpt><trkpt lat="41.4205699" lon="1.4986191"><ele>671.0</ele><time>2026-04-19T09:24:11.033Z</time></trkpt><trkpt lat="41.4204911" lon="1.4985549"><ele>671.0</ele><time>2026-04-19T09:24:12.033Z</time></trkpt><trkpt lat="41.4204009" lon="1.4985193"><ele>671.0</ele><time>2026-04-19T09:24:13.033Z</time></trkpt><trkpt lat="41.4203045" lon="1.4985129"><ele>671.0</ele><time>2026-04-19T09:24:14.033Z</time></trkpt><trkpt lat="41.4202059" lon="1.4985287"><ele>671.0</ele><time>2026-04-19T09:24:15.033Z</time></trkpt><trkpt lat="41.4201201" lon="1.4985643"><ele>670.8333333333333</ele><time>2026-04-19T09:24:16.033Z</time></trkpt><trkpt lat="41.4200418" lon="1.4986104"><ele>670.6666666666666</ele><time>2026-04-19T09:24:17.033Z</time></trkpt><trkpt lat="41.419974" lon="1.4986557"><ele>670.5</ele><time>2026-04-19T09:24:18.033Z</time></trkpt><trkpt lat="41.4199186" lon="1.498701"><ele>670.3333333333334</ele><time>2026-04-19T09:24:19.033Z</time></trkpt><trkpt lat="41.419848" lon="1.4987534"><ele>670.1666666666667</ele><time>2026-04-19T09:24:21.033Z</time></trkpt><trkpt lat="41.4197593" lon="1.4988229"><ele>670.0</ele><time>2026-04-19T09:24:25.033Z</time></trkpt><trkpt lat="41.4197194" lon="1.4988883"><ele>670.2</ele><time>2026-04-19T09:24:26.032Z</time></trkpt><trkpt lat="41.4196832" lon="1.4989766"><ele>670.4</ele><time>2026-04-19T09:24:27.033Z</time></trkpt><trkpt lat="41.419643" lon="1.4990782"><ele>670.5999999999999</ele><time>2026-04-19T09:24:28.033Z</time></trkpt><trkpt lat="41.4195965" lon="1.4991883"><ele>670.8</ele><time>2026-04-19T09:24:29.033Z</time></trkpt><trkpt lat="41.4195459" lon="1.4993065"><ele>671.0</ele><time>2026-04-19T09:24:30.033Z</time></trkpt><trkpt lat="41.4194918" lon="1.4994364"><ele>671.0</ele><time>2026-04-19T09:24:31.033Z</time></trkpt><trkpt lat="41.4194382" lon="1.4995707"><ele>671.0</ele><time>2026-04-19T09:24:32.032Z</time></trkpt><trkpt lat="41.4193925" lon="1.4996967"><ele>671.0</ele><time>2026-04-19T09:24:33.033Z</time></trkpt><trkpt lat="41.4193485" lon="1.4998175"><ele>671.0</ele><time>2026-04-19T09:24:34.033Z</time></trkpt><trkpt lat="41.4193046" lon="1.4999149"><ele>671.0</ele><time>2026-04-19T09:24:35.033Z</time></trkpt><trkpt lat="41.4192482" lon="1.499995"><ele>669.8</ele><time>2026-04-19T09:24:36.033Z</time></trkpt><trkpt lat="41.419172" lon="1.5000426"><ele>668.5999999999999</ele><time>2026-04-19T09:24:37.032Z</time></trkpt><trkpt lat="41.4190769" lon="1.5000639"><ele>667.4</ele><time>2026-04-19T09:24:38.033Z</time></trkpt><trkpt lat="41.4189825" lon="1.5000831"><ele>666.2</ele><time>2026-04-19T09:24:39.033Z</time></trkpt><trkpt lat="41.4188932" lon="1.5001257"><ele>665.0</ele><time>2026-04-19T09:24:40.033Z</time></trkpt><trkpt lat="41.4188171" lon="1.5001894"><ele>664.0</ele><time>2026-04-19T09:24:41.033Z</time></trkpt><trkpt lat="41.418755" lon="1.5002866"><ele>663.0</ele><time>2026-04-19T09:24:42.033Z</time></trkpt><trkpt lat="41.4187092" lon="1.5004048"><ele>662.0</ele><time>2026-04-19T09:24:43.032Z</time></trkpt><trkpt lat="41.4186688" lon="1.5005244"><ele>661.0</ele><time>2026-04-19T09:24:44.032Z</time></trkpt><trkpt lat="41.4186158" lon="1.5006238"><ele>660.0</ele><time>2026-04-19T09:24:45.033Z</time></trkpt><trkpt lat="41.4185392" lon="1.5007046"><ele>659.0</ele><time>2026-04-19T09:24:46.033Z</time></trkpt><trkpt lat="41.4184396" lon="1.5007487"><ele>658.0</ele><time>2026-04-19T09:24:47.033Z</time></trkpt><trkpt lat="41.4183374" lon="1.5007778"><ele>657.0</ele><time>2026-04-19T09:24:48.032Z</time></trkpt><trkpt lat="41.4182437" lon="1.5008206"><ele>656.0</ele><time>2026-04-19T09:24:49.033Z</time></trkpt><trkpt lat="41.4181689" lon="1.5008854"><ele>655.0</ele><time>2026-04-19T09:24:50.033Z</time></trkpt><trkpt lat="41.4181275" lon="1.5009771"><ele>655.0</ele><time>2026-04-19T09:24:51.033Z</time></trkpt><trkpt lat="41.4181222" lon="1.5010864"><ele>655.0</ele><time>2026-04-19T09:24:52.033Z</time></trkpt><trkpt lat="41.4181149" lon="1.501202"><ele>655.0</ele><time>2026-04-19T09:24:53.032Z</time></trkpt><trkpt lat="41.4180923" lon="1.5013215"><ele>655.0</ele><time>2026-04-19T09:24:54.032Z</time></trkpt><trkpt lat="41.4180613" lon="1.5014445"><ele>655.0</ele><time>2026-04-19T09:24:55.033Z</time></trkpt><trkpt lat="41.4180062" lon="1.5015719"><ele>655.75</ele><time>2026-04-19T09:24:56.032Z</time></trkpt><trkpt lat="41.4179186" lon="1.5016907"><ele>656.5</ele><time>2026-04-19T09:24:57.033Z</time></trkpt><trkpt lat="41.417807" lon="1.5018036"><ele>657.25</ele><time>2026-04-19T09:24:58.033Z</time></trkpt><trkpt lat="41.4176878" lon="1.5019036"><ele>658.0</ele><time>2026-04-19T09:24:59.032Z</time></trkpt><trkpt lat="41.4175803" lon="1.502013"><ele>656.0</ele><time>2026-04-19T09:25:00.032Z</time></trkpt><trkpt lat="41.4174871" lon="1.5021445"><ele>654.0</ele><time>2026-04-19T09:25:01.032Z</time></trkpt><trkpt lat="41.4174217" lon="1.5023032"><ele>652.0</ele><time>2026-04-19T09:25:02.032Z</time></trkpt><trkpt lat="41.4173847" lon="1.5024871"><ele>650.0</ele><time>2026-04-19T09:25:03.033Z</time></trkpt><trkpt lat="41.4173627" lon="1.5026936"><ele>650.0</ele><time>2026-04-19T09:25:04.033Z</time></trkpt><trkpt lat="41.4173471" lon="1.5029135"><ele>650.0</ele><time>2026-04-19T09:25:05.033Z</time></trkpt><trkpt lat="41.4173375" lon="1.5031223"><ele>650.0</ele><time>2026-04-19T09:25:06.033Z</time></trkpt><trkpt lat="41.4173323" lon="1.5033235"><ele>649.0</ele><time>2026-04-19T09:25:07.032Z</time></trkpt><trkpt lat="41.4173296" lon="1.5035148"><ele>648.0</ele><time>2026-04-19T09:25:08.033Z</time></trkpt><trkpt lat="41.4173118" lon="1.5037108"><ele>647.0</ele><time>2026-04-19T09:25:09.033Z</time></trkpt><trkpt lat="41.4172745" lon="1.5039221"><ele>644.6666666666666</ele><time>2026-04-19T09:25:10.032Z</time></trkpt><trkpt lat="41.4172278" lon="1.5041401"><ele>642.3333333333334</ele><time>2026-04-19T09:25:11.032Z</time></trkpt><trkpt lat="41.4171765" lon="1.5043568"><ele>640.0</ele><time>2026-04-19T09:25:12.033Z</time></trkpt><trkpt lat="41.4171282" lon="1.5045662"><ele>640.6666666666667</ele><time>2026-04-19T09:25:13.033Z</time></trkpt><trkpt lat="41.4170802" lon="1.5047608"><ele>641.3333333333334</ele><time>2026-04-19T09:25:14.033Z</time></trkpt><trkpt lat="41.417031" lon="1.5049518"><ele>642.0</ele><time>2026-04-19T09:25:15.033Z</time></trkpt><trkpt lat="41.4169772" lon="1.5051327"><ele>642.0</ele><time>2026-04-19T09:25:16.033Z</time></trkpt><trkpt lat="41.4169266" lon="1.5053137"><ele>642.0</ele><time>2026-04-19T09:25:17.032Z</time></trkpt><trkpt lat="41.4168832" lon="1.5054762"><ele>642.0</ele><time>2026-04-19T09:25:18.032Z</time></trkpt><trkpt lat="41.4168488" lon="1.5056203"><ele>642.0</ele><time>2026-04-19T09:25:19.033Z</time></trkpt><trkpt lat="41.4168293" lon="1.5057376"><ele>641.2</ele><time>2026-04-19T09:25:20.032Z</time></trkpt><trkpt lat="41.4168373" lon="1.5058379"><ele>640.4000000000001</ele><time>2026-04-19T09:25:21.033Z</time></trkpt><trkpt lat="41.4168768" lon="1.5059169"><ele>639.5999999999999</ele><time>2026-04-19T09:25:22.033Z</time></trkpt><trkpt lat="41.4169455" lon="1.5059696"><ele>638.8</ele><time>2026-04-19T09:25:23.033Z</time></trkpt><trkpt lat="41.4170515" lon="1.5060087"><ele>638.0</ele><time>2026-04-19T09:25:24.033Z</time></trkpt><trkpt lat="41.4171791" lon="1.5060612"><ele>637.25</ele><time>2026-04-19T09:25:25.032Z</time></trkpt><trkpt lat="41.4173173" lon="1.5061331"><ele>636.5</ele><time>2026-04-19T09:25:26.033Z</time></trkpt><trkpt lat="41.4174511" lon="1.5061957"><ele>635.75</ele><time>2026-04-19T09:25:27.033Z</time></trkpt><trkpt lat="41.4175884" lon="1.5062627"><ele>635.0</ele><time>2026-04-19T09:25:28.032Z</time></trkpt><trkpt lat="41.4177062" lon="1.5063399"><ele>634.25</ele><time>2026-04-19T09:25:29.032Z</time></trkpt><trkpt lat="41.4178062" lon="1.5064522"><ele>633.5</ele><time>2026-04-19T09:25:30.033Z</time></trkpt><trkpt lat="41.4178936" lon="1.5065969"><ele>632.75</ele><time>2026-04-19T09:25:31.033Z</time></trkpt><trkpt lat="41.4179723" lon="1.5067531"><ele>632.0</ele><time>2026-04-19T09:25:32.032Z</time></trkpt><trkpt lat="41.4180325" lon="1.5069089"><ele>632.0</ele><time>2026-04-19T09:25:33.033Z</time></trkpt><trkpt lat="41.4180478" lon="1.5070736"><ele>632.0</ele><time>2026-04-19T09:25:34.033Z</time></trkpt><trkpt lat="41.4180437" lon="1.5072557"><ele>632.0</ele><time>2026-04-19T09:25:35.033Z</time></trkpt><trkpt lat="41.4180211" lon="1.5074574"><ele>632.0</ele><time>2026-04-19T09:25:36.032Z</time></trkpt><trkpt lat="41.4179838" lon="1.5076733"><ele>640.0</ele><time>2026-04-19T09:25:37.033Z</time></trkpt><trkpt lat="41.417935" lon="1.5078862"><ele>648.0</ele><time>2026-04-19T09:25:38.033Z</time></trkpt><trkpt lat="41.4178848" lon="1.5080853"><ele>656.0</ele><time>2026-04-19T09:25:39.032Z</time></trkpt><trkpt lat="41.4178363" lon="1.5082844"><ele>656.0</ele><time>2026-04-19T09:25:40.032Z</time></trkpt><trkpt lat="41.417777" lon="1.5084731"><ele>656.0</ele><time>2026-04-19T09:25:41.033Z</time></trkpt><trkpt lat="41.4177037" lon="1.5086618"><ele>656.0</ele><time>2026-04-19T09:25:42.033Z</time></trkpt><trkpt lat="41.4176336" lon="1.5088411"><ele>652.3333333333333</ele><time>2026-04-19T09:25:43.033Z</time></trkpt><trkpt lat="41.4175558" lon="1.5090288"><ele>648.6666666666666</ele><time>2026-04-19T09:25:44.032Z</time></trkpt><trkpt lat="41.4175241" lon="1.5092417"><ele>645.0</ele><time>2026-04-19T09:25:45.033Z</time></trkpt><trkpt lat="41.4174987" lon="1.5094726"><ele>644.3333333333334</ele><time>2026-04-19T09:25:46.032Z</time></trkpt><trkpt lat="41.4174852" lon="1.5097199"><ele>643.6666666666667</ele><time>2026-04-19T09:25:47.033Z</time></trkpt><trkpt lat="41.4174711" lon="1.5099676"><ele>643.0</ele><time>2026-04-19T09:25:48.032Z</time></trkpt><trkpt lat="41.4174551" lon="1.5102149"><ele>642.0</ele><time>2026-04-19T09:25:49.033Z</time></trkpt><trkpt lat="41.417441" lon="1.5104506"><ele>641.0</ele><time>2026-04-19T09:25:50.033Z</time></trkpt><trkpt lat="41.4174324" lon="1.5106799"><ele>640.0</ele><time>2026-04-19T09:25:51.032Z</time></trkpt><trkpt lat="41.4174229" lon="1.5108947"><ele>640.0</ele><time>2026-04-19T09:25:52.033Z</time></trkpt><trkpt lat="41.4174132" lon="1.5111046"><ele>640.0</ele><time>2026-04-19T09:25:53.033Z</time></trkpt><trkpt lat="41.4174018" lon="1.5112953"><ele>640.0</ele><time>2026-04-19T09:25:54.033Z</time></trkpt><trkpt lat="41.4173847" lon="1.5114562"><ele>640.0</ele><time>2026-04-19T09:25:55.032Z</time></trkpt><trkpt lat="41.417344" lon="1.5115929"><ele>638.75</ele><time>2026-04-19T09:25:56.032Z</time></trkpt><trkpt lat="41.4172711" lon="1.511716"><ele>637.5</ele><time>2026-04-19T09:25:57.032Z</time></trkpt><trkpt lat="41.4171689" lon="1.5118303"><ele>636.25</ele><time>2026-04-19T09:25:58.033Z</time></trkpt><trkpt lat="41.4170538" lon="1.5119345"><ele>635.0</ele><time>2026-04-19T09:25:59.033Z</time></trkpt><trkpt lat="41.4169272" lon="1.5120452"><ele>633.6666666666666</ele><time>2026-04-19T09:26:00.032Z</time></trkpt><trkpt lat="41.4167902" lon="1.5121564"><ele>632.3333333333334</ele><time>2026-04-19T09:26:01.032Z</time></trkpt><trkpt lat="41.4166543" lon="1.5122685"><ele>631.0</ele><time>2026-04-19T09:26:02.033Z</time></trkpt><trkpt lat="41.4165204" lon="1.5123764"><ele>631.0</ele><time>2026-04-19T09:26:03.032Z</time></trkpt><trkpt lat="41.416378" lon="1.5124893"><ele>631.0</ele><time>2026-04-19T09:26:04.033Z</time></trkpt><trkpt lat="41.4162406" lon="1.5125976"><ele>631.0</ele><time>2026-04-19T09:26:05.033Z</time></trkpt><trkpt lat="41.4161163" lon="1.5127139"><ele>630.5</ele><time>2026-04-19T09:26:06.032Z</time></trkpt><trkpt lat="41.4160079" lon="1.5128415"><ele>630.0</ele><time>2026-04-19T09:26:07.032Z</time></trkpt><trkpt lat="41.415912" lon="1.5129886"><ele>629.5</ele><time>2026-04-19T09:26:08.033Z</time></trkpt><trkpt lat="41.4158219" lon="1.513157"><ele>629.0</ele><time>2026-04-19T09:26:09.033Z</time></trkpt><trkpt lat="41.4157295" lon="1.5133215"><ele>629.0</ele><time>2026-04-19T09:26:10.033Z</time></trkpt><trkpt lat="41.4156363" lon="1.5134719"><ele>629.0</ele><time>2026-04-19T09:26:11.032Z</time></trkpt><trkpt lat="41.4155347" lon="1.5136029"><ele>629.0</ele><time>2026-04-19T09:26:12.033Z</time></trkpt><trkpt lat="41.415419" lon="1.5137074"><ele>629.0</ele><time>2026-04-19T09:26:13.033Z</time></trkpt><trkpt lat="41.4152913" lon="1.5137923"><ele>626.75</ele><time>2026-04-19T09:26:14.033Z</time></trkpt><trkpt lat="41.4151722" lon="1.5138653"><ele>624.5</ele><time>2026-04-19T09:26:15.032Z</time></trkpt><trkpt lat="41.4150584" lon="1.5139359"><ele>622.25</ele><time>2026-04-19T09:26:16.033Z</time></trkpt><trkpt lat="41.4149429" lon="1.5139756"><ele>620.0</ele><time>2026-04-19T09:26:17.033Z</time></trkpt><trkpt lat="41.4148166" lon="1.5139857"><ele>620.0</ele><time>2026-04-19T09:26:18.033Z</time></trkpt><trkpt lat="41.4146784" lon="1.5139813"><ele>620.0</ele><time>2026-04-19T09:26:19.033Z</time></trkpt><trkpt lat="41.4145489" lon="1.5139786"><ele>620.0</ele><time>2026-04-19T09:26:20.033Z</time></trkpt><trkpt lat="41.4144269" lon="1.5139706"><ele>620.0</ele><time>2026-04-19T09:26:21.033Z</time></trkpt><trkpt lat="41.414308" lon="1.5139461"><ele>618.8</ele><time>2026-04-19T09:26:22.032Z</time></trkpt><trkpt lat="41.4142006" lon="1.5138976"><ele>617.6</ele><time>2026-04-19T09:26:23.032Z</time></trkpt><trkpt lat="41.4141069" lon="1.513817"><ele>616.4</ele><time>2026-04-19T09:26:24.033Z</time></trkpt><trkpt lat="41.4140205" lon="1.5137157"><ele>615.2</ele><time>2026-04-19T09:26:25.033Z</time></trkpt><trkpt lat="41.4139353" lon="1.5136242"><ele>614.0</ele><time>2026-04-19T09:26:26.033Z</time></trkpt><trkpt lat="41.4138456" lon="1.5135563"><ele>615.8333333333333</ele><time>2026-04-19T09:26:27.032Z</time></trkpt><trkpt lat="41.4137559" lon="1.513527"><ele>617.6666666666666</ele><time>2026-04-19T09:26:28.033Z</time></trkpt><trkpt lat="41.413669" lon="1.5135334"><ele>619.5</ele><time>2026-04-19T09:26:29.032Z</time></trkpt><trkpt lat="41.413587" lon="1.5135593"><ele>621.3333333333334</ele><time>2026-04-19T09:26:30.032Z</time></trkpt><trkpt lat="41.4135079" lon="1.5135953"><ele>623.1666666666667</ele><time>2026-04-19T09:26:31.032Z</time></trkpt><trkpt lat="41.4134286" lon="1.5136413"><ele>625.0</ele><time>2026-04-19T09:26:32.033Z</time></trkpt><trkpt lat="41.4133505" lon="1.5136918"><ele>624.3333333333334</ele><time>2026-04-19T09:26:33.033Z</time></trkpt><trkpt lat="41.4132713" lon="1.5137436"><ele>623.6666666666667</ele><time>2026-04-19T09:26:34.032Z</time></trkpt><trkpt lat="41.4131876" lon="1.5137837"><ele>623.0</ele><time>2026-04-19T09:26:35.033Z</time></trkpt><trkpt lat="41.413102" lon="1.5138041"><ele>622.3333333333334</ele><time>2026-04-19T09:26:36.032Z</time></trkpt><trkpt lat="41.4130135" lon="1.5138058"><ele>621.6666666666666</ele><time>2026-04-19T09:26:37.032Z</time></trkpt><trkpt lat="41.4129334" lon="1.513798"><ele>621.0</ele><time>2026-04-19T09:26:38.032Z</time></trkpt><trkpt lat="41.4128609" lon="1.5137996"><ele>621.0</ele><time>2026-04-19T09:26:39.033Z</time></trkpt><trkpt lat="41.4127973" lon="1.5138224"><ele>621.0</ele><time>2026-04-19T09:26:40.033Z</time></trkpt><trkpt lat="41.4127507" lon="1.5138802"><ele>621.0</ele><time>2026-04-19T09:26:41.033Z</time></trkpt><trkpt lat="41.4127336" lon="1.5139619"><ele>621.0</ele><time>2026-04-19T09:26:42.033Z</time></trkpt><trkpt lat="41.4127842" lon="1.5141105"><ele>621.0</ele><time>2026-04-19T09:26:44.033Z</time></trkpt><trkpt lat="41.412848" lon="1.5141639"><ele>621.0</ele><time>2026-04-19T09:26:45.033Z</time></trkpt><trkpt lat="41.4129202" lon="1.5142028"><ele>619.6666666666666</ele><time>2026-04-19T09:26:46.032Z</time></trkpt><trkpt lat="41.4129972" lon="1.5142488"><ele>618.3333333333334</ele><time>2026-04-19T09:26:47.033Z</time></trkpt><trkpt lat="41.4130747" lon="1.5142872"><ele>617.0</ele><time>2026-04-19T09:26:48.033Z</time></trkpt><trkpt lat="41.4131517" lon="1.5143149"><ele>615.6666666666667</ele><time>2026-04-19T09:26:49.033Z</time></trkpt><trkpt lat="41.4132266" lon="1.5143307"><ele>614.3333333333334</ele><time>2026-04-19T09:26:50.033Z</time></trkpt><trkpt lat="41.4132955" lon="1.5143286"><ele>613.0</ele><time>2026-04-19T09:26:51.033Z</time></trkpt><trkpt lat="41.413359" lon="1.514313"><ele>613.0</ele><time>2026-04-19T09:26:52.033Z</time></trkpt><trkpt lat="41.413462" lon="1.5142777"><ele>613.0</ele><time>2026-04-19T09:26:54.032Z</time></trkpt><trkpt lat="41.4135363" lon="1.5142648"><ele>613.0</ele><time>2026-04-19T09:26:56.032Z</time></trkpt><trkpt lat="41.4136099" lon="1.5142037"><ele>613.0</ele><time>2026-04-19T09:26:59.033Z</time></trkpt><trkpt lat="41.413628" lon="1.5141143"><ele>613.0</ele><time>2026-04-19T09:27:02.032Z</time></trkpt><trkpt lat="41.4135784" lon="1.5140319"><ele>613.0</ele><time>2026-04-19T09:27:05.033Z</time></trkpt><trkpt lat="41.4135165" lon="1.5140567"><ele>613.0</ele><time>2026-04-19T09:27:10.032Z</time></trkpt><trkpt lat="41.413701" lon="1.5143715"><ele>613.0</ele><time>2026-04-19T09:28:57.033Z</time></trkpt><trkpt lat="41.4137974" lon="1.514471"><ele>613.0</ele><time>2026-04-19T09:28:59.033Z</time></trkpt><trkpt lat="41.413859" lon="1.5145304"><ele>611.6666666666667</ele><time>2026-04-19T09:29:00.033Z</time></trkpt><trkpt lat="41.4139213" lon="1.5145908"><ele>610.3333333333334</ele><time>2026-04-19T09:29:01.032Z</time></trkpt><trkpt lat="41.4139863" lon="1.5146539"><ele>609.0</ele><time>2026-04-19T09:29:02.032Z</time></trkpt><trkpt lat="41.4140578" lon="1.5147204"><ele>607.6666666666666</ele><time>2026-04-19T09:29:03.033Z</time></trkpt><trkpt lat="41.414135" lon="1.5147925"><ele>606.3333333333333</ele><time>2026-04-19T09:29:04.033Z</time></trkpt><trkpt lat="41.4142127" lon="1.514867"><ele>605.0</ele><time>2026-04-19T09:29:05.033Z</time></trkpt><trkpt lat="41.4142847" lon="1.5149412"><ele>605.0</ele><time>2026-04-19T09:29:06.033Z</time></trkpt><trkpt lat="41.4143508" lon="1.5150227"><ele>605.0</ele><time>2026-04-19T09:29:07.032Z</time></trkpt><trkpt lat="41.4144043" lon="1.5151258"><ele>605.0</ele><time>2026-04-19T09:29:08.033Z</time></trkpt><trkpt lat="41.4144382" lon="1.5152494"><ele>605.0</ele><time>2026-04-19T09:29:09.032Z</time></trkpt><trkpt lat="41.4144535" lon="1.5153746"><ele>605.0</ele><time>2026-04-19T09:29:10.033Z</time></trkpt><trkpt lat="41.4144591" lon="1.515499"><ele>605.2</ele><time>2026-04-19T09:29:11.033Z</time></trkpt><trkpt lat="41.4144618" lon="1.5156286"><ele>605.4</ele><time>2026-04-19T09:29:12.033Z</time></trkpt><trkpt lat="41.414471" lon="1.5157519"><ele>605.6</ele><time>2026-04-19T09:29:13.033Z</time></trkpt><trkpt lat="41.4144903" lon="1.5158726"><ele>605.8</ele><time>2026-04-19T09:29:14.032Z</time></trkpt><trkpt lat="41.4145287" lon="1.5159887"><ele>606.0</ele><time>2026-04-19T09:29:15.033Z</time></trkpt><trkpt lat="41.414586" lon="1.5161015"><ele>603.6</ele><time>2026-04-19T09:29:16.032Z</time></trkpt><trkpt lat="41.4146573" lon="1.5162024"><ele>601.2</ele><time>2026-04-19T09:29:17.033Z</time></trkpt><trkpt lat="41.4147396" lon="1.5162788"><ele>598.8</ele><time>2026-04-19T09:29:18.032Z</time></trkpt><trkpt lat="41.4148267" lon="1.5163515"><ele>596.4</ele><time>2026-04-19T09:29:19.033Z</time></trkpt><trkpt lat="41.4149076" lon="1.5164241"><ele>594.0</ele><time>2026-04-19T09:29:20.032Z</time></trkpt><trkpt lat="41.4149747" lon="1.5165107"><ele>594.0</ele><time>2026-04-19T09:29:21.033Z</time></trkpt><trkpt lat="41.415022" lon="1.516614"><ele>594.0</ele><time>2026-04-19T09:29:22.033Z</time></trkpt><trkpt lat="41.4150457" lon="1.5167328"><ele>594.0</ele><time>2026-04-19T09:29:23.032Z</time></trkpt><trkpt lat="41.4150515" lon="1.5168488"><ele>594.0</ele><time>2026-04-19T09:29:24.032Z</time></trkpt><trkpt lat="41.4150451" lon="1.5169538"><ele>594.0</ele><time>2026-04-19T09:29:25.033Z</time></trkpt><trkpt lat="41.4150402" lon="1.5170468"><ele>594.0</ele><time>2026-04-19T09:29:26.033Z</time></trkpt><trkpt lat="41.4150351" lon="1.517136"><ele>594.1428571428571</ele><time>2026-04-19T09:29:27.033Z</time></trkpt><trkpt lat="41.4150331" lon="1.5172268"><ele>594.2857142857143</ele><time>2026-04-19T09:29:28.033Z</time></trkpt><trkpt lat="41.4150285" lon="1.5173123"><ele>594.4285714285714</ele><time>2026-04-19T09:29:29.032Z</time></trkpt><trkpt lat="41.4150247" lon="1.5173977"><ele>594.5714285714286</ele><time>2026-04-19T09:29:30.033Z</time></trkpt><trkpt lat="41.4150194" lon="1.5174845"><ele>594.7142857142858</ele><time>2026-04-19T09:29:31.033Z</time></trkpt><trkpt lat="41.4150115" lon="1.5175835"><ele>594.8571428571429</ele><time>2026-04-19T09:29:32.033Z</time></trkpt><trkpt lat="41.4150038" lon="1.5176866"><ele>595.0</ele><time>2026-04-19T09:29:33.033Z</time></trkpt><trkpt lat="41.4149984" lon="1.5178002"><ele>593.4</ele><time>2026-04-19T09:29:34.032Z</time></trkpt><trkpt lat="41.4149915" lon="1.5179274"><ele>591.8</ele><time>2026-04-19T09:29:35.033Z</time></trkpt><trkpt lat="41.4149846" lon="1.518061"><ele>590.2</ele><time>2026-04-19T09:29:36.033Z</time></trkpt><trkpt lat="41.4149804" lon="1.5181936"><ele>588.6</ele><time>2026-04-19T09:29:37.033Z</time></trkpt><trkpt lat="41.4149734" lon="1.5183221"><ele>587.0</ele><time>2026-04-19T09:29:38.033Z</time></trkpt><trkpt lat="41.4149658" lon="1.5184572"><ele>587.0</ele><time>2026-04-19T09:29:39.031Z</time></trkpt><trkpt lat="41.4149565" lon="1.5185969"><ele>587.0</ele><time>2026-04-19T09:29:40.033Z</time></trkpt><trkpt lat="41.4149493" lon="1.5187409"><ele>587.0</ele><time>2026-04-19T09:29:41.033Z</time></trkpt><trkpt lat="41.4149435" lon="1.5188844"><ele>587.0</ele><time>2026-04-19T09:29:42.033Z</time></trkpt><trkpt lat="41.4149395" lon="1.519022"><ele>587.0</ele><time>2026-04-19T09:29:43.033Z</time></trkpt><trkpt lat="41.4149323" lon="1.5191578"><ele>586.4</ele><time>2026-04-19T09:29:44.033Z</time></trkpt><trkpt lat="41.414924" lon="1.5192945"><ele>585.8000000000001</ele><time>2026-04-19T09:29:45.033Z</time></trkpt><trkpt lat="41.414905" lon="1.5194253"><ele>585.2</ele><time>2026-04-19T09:29:46.032Z</time></trkpt><trkpt lat="41.4148856" lon="1.5195657"><ele>584.6</ele><time>2026-04-19T09:29:47.033Z</time></trkpt><trkpt lat="41.4148752" lon="1.5197023"><ele>584.0</ele><time>2026-04-19T09:29:48.032Z</time></trkpt><trkpt lat="41.4148791" lon="1.5198422"><ele>583.4</ele><time>2026-04-19T09:29:49.032Z</time></trkpt><trkpt lat="41.4149032" lon="1.5199761"><ele>582.8</ele><time>2026-04-19T09:29:50.033Z</time></trkpt><trkpt lat="41.4149435" lon="1.5201161"><ele>582.2</ele><time>2026-04-19T09:29:51.033Z</time></trkpt><trkpt lat="41.414992" lon="1.5202559"><ele>581.6</ele><time>2026-04-19T09:29:52.033Z</time></trkpt><trkpt lat="41.4150246" lon="1.5204012"><ele>581.0</ele><time>2026-04-19T09:29:53.032Z</time></trkpt><trkpt lat="41.415025" lon="1.5205448"><ele>580.75</ele><time>2026-04-19T09:29:54.033Z</time></trkpt><trkpt lat="41.4149891" lon="1.5206859"><ele>580.5</ele><time>2026-04-19T09:29:55.033Z</time></trkpt><trkpt lat="41.4149228" lon="1.5208281"><ele>580.25</ele><time>2026-04-19T09:29:56.033Z</time></trkpt><trkpt lat="41.4148425" lon="1.5209705"><ele>580.0</ele><time>2026-04-19T09:29:57.033Z</time></trkpt><trkpt lat="41.4147825" lon="1.5211046"><ele>579.8</ele><time>2026-04-19T09:29:58.033Z</time></trkpt><trkpt lat="41.4147466" lon="1.5212453"><ele>579.6</ele><time>2026-04-19T09:29:59.033Z</time></trkpt><trkpt lat="41.4147511" lon="1.5213753"><ele>579.4</ele><time>2026-04-19T09:30:00.033Z</time></trkpt><trkpt lat="41.4147724" lon="1.5214972"><ele>579.2</ele><time>2026-04-19T09:30:01.032Z</time></trkpt><trkpt lat="41.4148099" lon="1.5216099"><ele>579.0</ele><time>2026-04-19T09:30:02.033Z</time></trkpt><trkpt lat="41.4148545" lon="1.5217161"><ele>579.0</ele><time>2026-04-19T09:30:03.032Z</time></trkpt><trkpt lat="41.4148977" lon="1.5218122"><ele>579.0</ele><time>2026-04-19T09:30:04.033Z</time></trkpt><trkpt lat="41.4149392" lon="1.5219057"><ele>579.0</ele><time>2026-04-19T09:30:05.033Z</time></trkpt><trkpt lat="41.4149639" lon="1.5220163"><ele>579.0</ele><time>2026-04-19T09:30:06.033Z</time></trkpt><trkpt lat="41.414976" lon="1.52215"><ele>579.0</ele><time>2026-04-19T09:30:07.033Z</time></trkpt><trkpt lat="41.41496" lon="1.5222944"><ele>578.75</ele><time>2026-04-19T09:30:08.032Z</time></trkpt><trkpt lat="41.4149184" lon="1.5224323"><ele>578.5</ele><time>2026-04-19T09:30:09.033Z</time></trkpt><trkpt lat="41.4148433" lon="1.5225755"><ele>578.25</ele><time>2026-04-19T09:30:10.032Z</time></trkpt><trkpt lat="41.4147644" lon="1.5227292"><ele>578.0</ele><time>2026-04-19T09:30:11.033Z</time></trkpt><trkpt lat="41.4146813" lon="1.5228951"><ele>584.0</ele><time>2026-04-19T09:30:12.033Z</time></trkpt><trkpt lat="41.4145936" lon="1.5230582"><ele>590.0</ele><time>2026-04-19T09:30:13.032Z</time></trkpt><trkpt lat="41.4145156" lon="1.5232307"><ele>596.0</ele><time>2026-04-19T09:30:14.033Z</time></trkpt><trkpt lat="41.4144608" lon="1.523429"><ele>596.0</ele><time>2026-04-19T09:30:15.032Z</time></trkpt><trkpt lat="41.4144213" lon="1.5236511"><ele>596.0</ele><time>2026-04-19T09:30:16.033Z</time></trkpt><trkpt lat="41.4143669" lon="1.5238571"><ele>596.0</ele><time>2026-04-19T09:30:17.033Z</time></trkpt><trkpt lat="41.4143073" lon="1.5240556"><ele>590.0</ele><time>2026-04-19T09:30:18.033Z</time></trkpt><trkpt lat="41.4142543" lon="1.5242255"><ele>584.0</ele><time>2026-04-19T09:30:19.032Z</time></trkpt><trkpt lat="41.4142312" lon="1.524399"><ele>578.0</ele><time>2026-04-19T09:30:20.032Z</time></trkpt><trkpt lat="41.4142166" lon="1.5245713"><ele>572.0</ele><time>2026-04-19T09:30:21.032Z</time></trkpt><trkpt lat="41.4142606" lon="1.5247735"><ele>569.75</ele><time>2026-04-19T09:30:22.033Z</time></trkpt><trkpt lat="41.4142777" lon="1.5249614"><ele>567.5</ele><time>2026-04-19T09:30:23.033Z</time></trkpt><trkpt lat="41.4142651" lon="1.5251513"><ele>565.25</ele><time>2026-04-19T09:30:24.033Z</time></trkpt><trkpt lat="41.4142226" lon="1.5253482"><ele>563.0</ele><time>2026-04-19T09:30:25.033Z</time></trkpt><trkpt lat="41.4141616" lon="1.5255455"><ele>559.6666666666666</ele><time>2026-04-19T09:30:26.033Z</time></trkpt><trkpt lat="41.414075" lon="1.525736"><ele>556.3333333333334</ele><time>2026-04-19T09:30:27.033Z</time></trkpt><trkpt lat="41.4139699" lon="1.5259216"><ele>553.0</ele><time>2026-04-19T09:30:28.033Z</time></trkpt><trkpt lat="41.4138655" lon="1.5260986"><ele>553.3333333333334</ele><time>2026-04-19T09:30:29.033Z</time></trkpt><trkpt lat="41.4137653" lon="1.5262716"><ele>553.6666666666666</ele><time>2026-04-19T09:30:30.032Z</time></trkpt><trkpt lat="41.4136729" lon="1.5264349"><ele>554.0</ele><time>2026-04-19T09:30:31.033Z</time></trkpt><trkpt lat="41.4135855" lon="1.5265875"><ele>554.0</ele><time>2026-04-19T09:30:32.033Z</time></trkpt><trkpt lat="41.4134982" lon="1.5267362"><ele>554.0</ele><time>2026-04-19T09:30:33.033Z</time></trkpt><trkpt lat="41.4134112" lon="1.5268752"><ele>554.0</ele><time>2026-04-19T09:30:34.032Z</time></trkpt><trkpt lat="41.4133118" lon="1.5269968"><ele>554.0</ele><time>2026-04-19T09:30:35.033Z</time></trkpt><trkpt lat="41.4132134" lon="1.5271061"><ele>552.75</ele><time>2026-04-19T09:30:36.033Z</time></trkpt><trkpt lat="41.4131069" lon="1.5272107"><ele>551.5</ele><time>2026-04-19T09:30:37.033Z</time></trkpt><trkpt lat="41.4129955" lon="1.5273336"><ele>550.25</ele><time>2026-04-19T09:30:38.032Z</time></trkpt><trkpt lat="41.4128768" lon="1.5274583"><ele>549.0</ele><time>2026-04-19T09:30:39.033Z</time></trkpt><trkpt lat="41.4127536" lon="1.5275838"><ele>549.0</ele><time>2026-04-19T09:30:40.032Z</time></trkpt><trkpt lat="41.412628" lon="1.5277141"><ele>549.0</ele><time>2026-04-19T09:30:41.032Z</time></trkpt><trkpt lat="41.4125003" lon="1.527836"><ele>549.0</ele><time>2026-04-19T09:30:42.033Z</time></trkpt><trkpt lat="41.4123719" lon="1.5279609"><ele>546.0</ele><time>2026-04-19T09:30:43.033Z</time></trkpt><trkpt lat="41.4122439" lon="1.5280801"><ele>543.0</ele><time>2026-04-19T09:30:44.033Z</time></trkpt><trkpt lat="41.4121064" lon="1.5281657"><ele>540.0</ele><time>2026-04-19T09:30:45.033Z</time></trkpt><trkpt lat="41.4119575" lon="1.5282345"><ele>540.0</ele><time>2026-04-19T09:30:46.033Z</time></trkpt><trkpt lat="41.4117977" lon="1.5283105"><ele>540.0</ele><time>2026-04-19T09:30:47.033Z</time></trkpt><trkpt lat="41.4116381" lon="1.5284094"><ele>540.0</ele><time>2026-04-19T09:30:48.033Z</time></trkpt><trkpt lat="41.4114749" lon="1.5285195"><ele>539.0</ele><time>2026-04-19T09:30:49.033Z</time></trkpt><trkpt lat="41.4113101" lon="1.5286323"><ele>538.0</ele><time>2026-04-19T09:30:50.033Z</time></trkpt><trkpt lat="41.4111567" lon="1.5287482"><ele>537.0</ele><time>2026-04-19T09:30:51.032Z</time></trkpt><trkpt lat="41.411007" lon="1.5288718"><ele>537.0</ele><time>2026-04-19T09:30:52.033Z</time></trkpt><trkpt lat="41.4108624" lon="1.5289912"><ele>537.0</ele><time>2026-04-19T09:30:53.032Z</time></trkpt><trkpt lat="41.4107198" lon="1.5291329"><ele>537.0</ele><time>2026-04-19T09:30:54.032Z</time></trkpt><trkpt lat="41.4105987" lon="1.5292862"><ele>536.3333333333334</ele><time>2026-04-19T09:30:55.032Z</time></trkpt><trkpt lat="41.4104752" lon="1.5294342"><ele>535.6666666666667</ele><time>2026-04-19T09:30:56.033Z</time></trkpt><trkpt lat="41.4103698" lon="1.5296027"><ele>535.0</ele><time>2026-04-19T09:30:57.033Z</time></trkpt><trkpt lat="41.4102498" lon="1.529748"><ele>535.0</ele><time>2026-04-19T09:30:58.033Z</time></trkpt><trkpt lat="41.4101303" lon="1.5298694"><ele>535.0</ele><time>2026-04-19T09:30:59.033Z</time></trkpt><trkpt lat="41.4100198" lon="1.5299793"><ele>535.0</ele><time>2026-04-19T09:31:00.033Z</time></trkpt><trkpt lat="41.4099326" lon="1.5301024"><ele>535.0</ele><time>2026-04-19T09:31:01.033Z</time></trkpt><trkpt lat="41.4098695" lon="1.5302335"><ele>535.0</ele><time>2026-04-19T09:31:02.032Z</time></trkpt><trkpt lat="41.4098026" lon="1.5303583"><ele>535.0</ele><time>2026-04-19T09:31:03.033Z</time></trkpt><trkpt lat="41.4097132" lon="1.5304388"><ele>535.0</ele><time>2026-04-19T09:31:04.032Z</time></trkpt><trkpt lat="41.4095989" lon="1.5304792"><ele>535.0</ele><time>2026-04-19T09:31:05.033Z</time></trkpt><trkpt lat="41.409465" lon="1.530503"><ele>534.75</ele><time>2026-04-19T09:31:06.033Z</time></trkpt><trkpt lat="41.4093395" lon="1.5305404"><ele>534.5</ele><time>2026-04-19T09:31:07.033Z</time></trkpt><trkpt lat="41.4092262" lon="1.5306065"><ele>534.25</ele><time>2026-04-19T09:31:08.032Z</time></trkpt><trkpt lat="41.4091174" lon="1.5306898"><ele>534.0</ele><time>2026-04-19T09:31:09.033Z</time></trkpt><trkpt lat="41.4090197" lon="1.5308072"><ele>534.0</ele><time>2026-04-19T09:31:10.032Z</time></trkpt><trkpt lat="41.4089377" lon="1.5309593"><ele>534.0</ele><time>2026-04-19T09:31:11.033Z</time></trkpt><trkpt lat="41.4088861" lon="1.5311443"><ele>534.0</ele><time>2026-04-19T09:31:12.033Z</time></trkpt><trkpt lat="41.4088396" lon="1.5313206"><ele>534.0</ele><time>2026-04-19T09:31:13.033Z</time></trkpt><trkpt lat="41.4087784" lon="1.5314841"><ele>532.3333333333334</ele><time>2026-04-19T09:31:14.032Z</time></trkpt><trkpt lat="41.4086964" lon="1.5316347"><ele>530.6666666666667</ele><time>2026-04-19T09:31:15.033Z</time></trkpt><trkpt lat="41.408582" lon="1.531778"><ele>529.0</ele><time>2026-04-19T09:31:16.033Z</time></trkpt><trkpt lat="41.4084616" lon="1.5319381"><ele>534.0</ele><time>2026-04-19T09:31:17.032Z</time></trkpt><trkpt lat="41.4083206" lon="1.5320572"><ele>539.0</ele><time>2026-04-19T09:31:18.032Z</time></trkpt><trkpt lat="41.4081756" lon="1.5321924"><ele>544.0</ele><time>2026-04-19T09:31:19.033Z</time></trkpt><trkpt lat="41.4080077" lon="1.5322554"><ele>536.0</ele><time>2026-04-19T09:31:20.032Z</time></trkpt><trkpt lat="41.4078589" lon="1.5323298"><ele>528.0</ele><time>2026-04-19T09:31:21.033Z</time></trkpt><trkpt lat="41.407713" lon="1.5323994"><ele>520.0</ele><time>2026-04-19T09:31:22.033Z</time></trkpt><trkpt lat="41.4075768" lon="1.5324686"><ele>520.0</ele><time>2026-04-19T09:31:23.032Z</time></trkpt><trkpt lat="41.4074448" lon="1.5325581"><ele>520.0</ele><time>2026-04-19T09:31:24.033Z</time></trkpt><trkpt lat="41.4073102" lon="1.5326573"><ele>520.0</ele><time>2026-04-19T09:31:25.032Z</time></trkpt><trkpt lat="41.4071882" lon="1.5327946"><ele>518.3333333333334</ele><time>2026-04-19T09:31:26.033Z</time></trkpt><trkpt lat="41.407073" lon="1.5329774"><ele>516.6666666666666</ele><time>2026-04-19T09:31:27.032Z</time></trkpt><trkpt lat="41.4069528" lon="1.5331347"><ele>515.0</ele><time>2026-04-19T09:31:28.032Z</time></trkpt><trkpt lat="41.4068304" lon="1.5332799"><ele>515.0</ele><time>2026-04-19T09:31:29.033Z</time></trkpt><trkpt lat="41.4067249" lon="1.5334257"><ele>515.0</ele><time>2026-04-19T09:31:30.032Z</time></trkpt><trkpt lat="41.4066064" lon="1.5335624"><ele>515.0</ele><time>2026-04-19T09:31:31.033Z</time></trkpt><trkpt lat="41.4064754" lon="1.5336778"><ele>513.0</ele><time>2026-04-19T09:31:32.032Z</time></trkpt><trkpt lat="41.4063327" lon="1.5337639"><ele>511.0</ele><time>2026-04-19T09:31:33.033Z</time></trkpt><trkpt lat="41.4061807" lon="1.5338342"><ele>509.0</ele><time>2026-04-19T09:31:34.032Z</time></trkpt><trkpt lat="41.406031" lon="1.5338853"><ele>509.0</ele><time>2026-04-19T09:31:35.032Z</time></trkpt><trkpt lat="41.4059162" lon="1.5339849"><ele>509.0</ele><time>2026-04-19T09:31:36.033Z</time></trkpt><trkpt lat="41.4058112" lon="1.534136"><ele>509.0</ele><time>2026-04-19T09:31:37.033Z</time></trkpt><trkpt lat="41.4057156" lon="1.5343139"><ele>509.0</ele><time>2026-04-19T09:31:38.032Z</time></trkpt><trkpt lat="41.4056168" lon="1.5344899"><ele>509.0</ele><time>2026-04-19T09:31:39.032Z</time></trkpt><trkpt lat="41.4055108" lon="1.5346569"><ele>509.0</ele><time>2026-04-19T09:31:40.033Z</time></trkpt><trkpt lat="41.4053892" lon="1.5348103"><ele>507.3333333333333</ele><time>2026-04-19T09:31:41.032Z</time></trkpt><trkpt lat="41.4052509" lon="1.5349408"><ele>505.66666666666663</ele><time>2026-04-19T09:31:42.033Z</time></trkpt><trkpt lat="41.4050993" lon="1.5350614"><ele>504.0</ele><time>2026-04-19T09:31:43.033Z</time></trkpt><trkpt lat="41.4049559" lon="1.5351738"><ele>504.0</ele><time>2026-04-19T09:31:44.033Z</time></trkpt><trkpt lat="41.4048016" lon="1.5352594"><ele>504.0</ele><time>2026-04-19T09:31:45.032Z</time></trkpt><trkpt lat="41.4046566" lon="1.5353144"><ele>504.0</ele><time>2026-04-19T09:31:46.033Z</time></trkpt><trkpt lat="41.4045197" lon="1.5353784"><ele>503.75</ele><time>2026-04-19T09:31:47.033Z</time></trkpt><trkpt lat="41.4043836" lon="1.5354489"><ele>503.5</ele><time>2026-04-19T09:31:48.033Z</time></trkpt><trkpt lat="41.4042663" lon="1.535566"><ele>503.25</ele><time>2026-04-19T09:31:49.032Z</time></trkpt><trkpt lat="41.4041623" lon="1.535716"><ele>503.0</ele><time>2026-04-19T09:31:50.032Z</time></trkpt><trkpt lat="41.4040715" lon="1.5358727"><ele>503.0</ele><time>2026-04-19T09:31:51.033Z</time></trkpt><trkpt lat="41.4040152" lon="1.5360507"><ele>503.0</ele><time>2026-04-19T09:31:52.032Z</time></trkpt><trkpt lat="41.4039726" lon="1.5362316"><ele>503.0</ele><time>2026-04-19T09:31:53.032Z</time></trkpt><trkpt lat="41.4039149" lon="1.5363874"><ele>503.0</ele><time>2026-04-19T09:31:54.033Z</time></trkpt><trkpt lat="41.4038231" lon="1.5365076"><ele>502.25</ele><time>2026-04-19T09:31:55.033Z</time></trkpt><trkpt lat="41.4037054" lon="1.5365962"><ele>501.5</ele><time>2026-04-19T09:31:56.033Z</time></trkpt><trkpt lat="41.4035594" lon="1.5366579"><ele>500.75</ele><time>2026-04-19T09:31:57.033Z</time></trkpt><trkpt lat="41.4034024" lon="1.5366925"><ele>500.0</ele><time>2026-04-19T09:31:58.033Z</time></trkpt><trkpt lat="41.40325" lon="1.5366892"><ele>500.0</ele><time>2026-04-19T09:31:59.032Z</time></trkpt><trkpt lat="41.4031042" lon="1.5366608"><ele>500.0</ele><time>2026-04-19T09:32:00.033Z</time></trkpt><trkpt lat="41.4029706" lon="1.5366252"><ele>500.0</ele><time>2026-04-19T09:32:01.033Z</time></trkpt><trkpt lat="41.4028443" lon="1.5366297"><ele>500.0</ele><time>2026-04-19T09:32:02.033Z</time></trkpt><trkpt lat="41.4027226" lon="1.5366718"><ele>497.3333333333333</ele><time>2026-04-19T09:32:03.033Z</time></trkpt><trkpt lat="41.4026059" lon="1.5367554"><ele>494.66666666666663</ele><time>2026-04-19T09:32:04.033Z</time></trkpt><trkpt lat="41.4024864" lon="1.536878"><ele>492.0</ele><time>2026-04-19T09:32:05.032Z</time></trkpt><trkpt lat="41.4023596" lon="1.5370383"><ele>489.33333333333337</ele><time>2026-04-19T09:32:06.033Z</time></trkpt><trkpt lat="41.4022234" lon="1.5372098"><ele>486.6666666666667</ele><time>2026-04-19T09:32:07.033Z</time></trkpt><trkpt lat="41.4020916" lon="1.5373743"><ele>484.0</ele><time>2026-04-19T09:32:08.032Z</time></trkpt><trkpt lat="41.4019644" lon="1.5375329"><ele>484.0</ele><time>2026-04-19T09:32:09.033Z</time></trkpt><trkpt lat="41.4018448" lon="1.5376941"><ele>484.0</ele><time>2026-04-19T09:32:10.033Z</time></trkpt><trkpt lat="41.4017314" lon="1.5378574"><ele>484.0</ele><time>2026-04-19T09:32:11.033Z</time></trkpt><trkpt lat="41.4016167" lon="1.5380086"><ele>482.33333333333337</ele><time>2026-04-19T09:32:12.033Z</time></trkpt><trkpt lat="41.4014916" lon="1.5381669"><ele>480.66666666666663</ele><time>2026-04-19T09:32:13.033Z</time></trkpt><trkpt lat="41.401347" lon="1.5383232"><ele>479.0</ele><time>2026-04-19T09:32:14.033Z</time></trkpt><trkpt lat="41.4011889" lon="1.5384713"><ele>479.0</ele><time>2026-04-19T09:32:15.032Z</time></trkpt><trkpt lat="41.4010322" lon="1.5386054"><ele>479.0</ele><time>2026-04-19T09:32:16.032Z</time></trkpt><trkpt lat="41.4008852" lon="1.5387327"><ele>479.0</ele><time>2026-04-19T09:32:17.033Z</time></trkpt><trkpt lat="41.4007466" lon="1.538857"><ele>480.0</ele><time>2026-04-19T09:32:18.032Z</time></trkpt><trkpt lat="41.4006228" lon="1.5389645"><ele>481.0</ele><time>2026-04-19T09:32:19.033Z</time></trkpt><trkpt lat="41.4005229" lon="1.539093"><ele>482.0</ele><time>2026-04-19T09:32:20.032Z</time></trkpt><trkpt lat="41.4004539" lon="1.5392548"><ele>483.0</ele><time>2026-04-19T09:32:21.032Z</time></trkpt><trkpt lat="41.4004232" lon="1.5394322"><ele>483.66666666666663</ele><time>2026-04-19T09:32:22.033Z</time></trkpt><trkpt lat="41.4004298" lon="1.5396326"><ele>484.3333333333333</ele><time>2026-04-19T09:32:23.032Z</time></trkpt><trkpt lat="41.4004711" lon="1.5398362"><ele>485.0</ele><time>2026-04-19T09:32:24.033Z</time></trkpt><trkpt lat="41.4005351" lon="1.5400235"><ele>485.0</ele><time>2026-04-19T09:32:25.032Z</time></trkpt><trkpt lat="41.4006223" lon="1.5401897"><ele>485.0</ele><time>2026-04-19T09:32:26.033Z</time></trkpt><trkpt lat="41.4007061" lon="1.540348"><ele>485.0</ele><time>2026-04-19T09:32:27.032Z</time></trkpt><trkpt lat="41.40078" lon="1.5405135"><ele>485.0</ele><time>2026-04-19T09:32:28.033Z</time></trkpt><trkpt lat="41.4008299" lon="1.5406769"><ele>483.5</ele><time>2026-04-19T09:32:29.033Z</time></trkpt><trkpt lat="41.4008506" lon="1.5408426"><ele>482.0</ele><time>2026-04-19T09:32:30.033Z</time></trkpt><trkpt lat="41.4008408" lon="1.5410039"><ele>480.5</ele><time>2026-04-19T09:32:31.032Z</time></trkpt><trkpt lat="41.4008049" lon="1.5411457"><ele>479.0</ele><time>2026-04-19T09:32:32.032Z</time></trkpt><trkpt lat="41.4007573" lon="1.5412936"><ele>476.5</ele><time>2026-04-19T09:32:33.033Z</time></trkpt><trkpt lat="41.4006213" lon="1.5414047"><ele>474.0</ele><time>2026-04-19T09:32:34.033Z</time></trkpt><trkpt lat="41.4005105" lon="1.5415232"><ele>471.5</ele><time>2026-04-19T09:32:35.033Z</time></trkpt><trkpt lat="41.4004049" lon="1.541635"><ele>469.0</ele><time>2026-04-19T09:32:36.033Z</time></trkpt><trkpt lat="41.4003016" lon="1.5417441"><ele>469.0</ele><time>2026-04-19T09:32:37.033Z</time></trkpt><trkpt lat="41.4001964" lon="1.5418313"><ele>469.0</ele><time>2026-04-19T09:32:38.033Z</time></trkpt><trkpt lat="41.4001089" lon="1.5419272"><ele>469.0</ele><time>2026-04-19T09:32:39.033Z</time></trkpt><trkpt lat="41.4000505" lon="1.5420533"><ele>469.0</ele><time>2026-04-19T09:32:40.032Z</time></trkpt><trkpt lat="41.4000027" lon="1.5422042"><ele>470.75</ele><time>2026-04-19T09:32:41.032Z</time></trkpt><trkpt lat="41.3999357" lon="1.5423609"><ele>472.5</ele><time>2026-04-19T09:32:42.033Z</time></trkpt><trkpt lat="41.3998453" lon="1.5425029"><ele>474.25</ele><time>2026-04-19T09:32:43.033Z</time></trkpt><trkpt lat="41.3997316" lon="1.5426358"><ele>476.0</ele><time>2026-04-19T09:32:44.033Z</time></trkpt><trkpt lat="41.3996315" lon="1.5427711"><ele>470.66666666666663</ele><time>2026-04-19T09:32:45.032Z</time></trkpt><trkpt lat="41.3995332" lon="1.5429308"><ele>465.33333333333337</ele><time>2026-04-19T09:32:46.033Z</time></trkpt><trkpt lat="41.3994505" lon="1.543105"><ele>460.0</ele><time>2026-04-19T09:32:47.032Z</time></trkpt><trkpt lat="41.3993785" lon="1.543293"><ele>460.0</ele><time>2026-04-19T09:32:48.033Z</time></trkpt><trkpt lat="41.399317" lon="1.5434813"><ele>460.0</ele><time>2026-04-19T09:32:49.033Z</time></trkpt><trkpt lat="41.3992657" lon="1.5436647"><ele>460.0</ele><time>2026-04-19T09:32:50.033Z</time></trkpt><trkpt lat="41.3992164" lon="1.5438501"><ele>460.0</ele><time>2026-04-19T09:32:51.032Z</time></trkpt><trkpt lat="41.399164" lon="1.5440195"><ele>462.0</ele><time>2026-04-19T09:32:52.032Z</time></trkpt><trkpt lat="41.3991068" lon="1.5441801"><ele>464.0</ele><time>2026-04-19T09:32:53.032Z</time></trkpt><trkpt lat="41.3990565" lon="1.5443285"><ele>466.0</ele><time>2026-04-19T09:32:54.033Z</time></trkpt><trkpt lat="41.399014" lon="1.5444883"><ele>468.0</ele><time>2026-04-19T09:32:55.033Z</time></trkpt><trkpt lat="41.3989874" lon="1.5446709"><ele>469.0</ele><time>2026-04-19T09:32:56.033Z</time></trkpt><trkpt lat="41.3989696" lon="1.5448653"><ele>470.0</ele><time>2026-04-19T09:32:57.033Z</time></trkpt><trkpt lat="41.3989543" lon="1.5450684"><ele>471.0</ele><time>2026-04-19T09:32:58.033Z</time></trkpt><trkpt lat="41.3989466" lon="1.5453113"><ele>469.66666666666663</ele><time>2026-04-19T09:32:59.033Z</time></trkpt><trkpt lat="41.3989413" lon="1.5455312"><ele>468.3333333333333</ele><time>2026-04-19T09:33:00.032Z</time></trkpt><trkpt lat="41.3989329" lon="1.5457434"><ele>467.0</ele><time>2026-04-19T09:33:01.033Z</time></trkpt><trkpt lat="41.3988994" lon="1.5459475"><ele>467.0</ele><time>2026-04-19T09:33:02.033Z</time></trkpt><trkpt lat="41.398847" lon="1.546134"><ele>467.0</ele><time>2026-04-19T09:33:03.033Z</time></trkpt><trkpt lat="41.3987994" lon="1.5463147"><ele>467.0</ele><time>2026-04-19T09:33:04.033Z</time></trkpt><trkpt lat="41.3987774" lon="1.5465043"><ele>467.0</ele><time>2026-04-19T09:33:05.033Z</time></trkpt><trkpt lat="41.3987844" lon="1.5466976"><ele>464.3333333333333</ele><time>2026-04-19T09:33:06.033Z</time></trkpt><trkpt lat="41.3988238" lon="1.5468935"><ele>461.66666666666663</ele><time>2026-04-19T09:33:07.033Z</time></trkpt><trkpt lat="41.3988952" lon="1.5470841"><ele>459.0</ele><time>2026-04-19T09:33:08.033Z</time></trkpt><trkpt lat="41.3989613" lon="1.5472621"><ele>459.0</ele><time>2026-04-19T09:33:09.033Z</time></trkpt><trkpt lat="41.3989981" lon="1.5474512"><ele>459.0</ele><time>2026-04-19T09:33:10.033Z</time></trkpt><trkpt lat="41.3990144" lon="1.5476367"><ele>459.0</ele><time>2026-04-19T09:33:11.033Z</time></trkpt><trkpt lat="41.3990562" lon="1.5478059"><ele>459.0</ele><time>2026-04-19T09:33:12.033Z</time></trkpt><trkpt lat="41.3991381" lon="1.5479702"><ele>454.33333333333337</ele><time>2026-04-19T09:33:13.033Z</time></trkpt><trkpt lat="41.3992489" lon="1.5481346"><ele>449.6666666666667</ele><time>2026-04-19T09:33:14.033Z</time></trkpt><trkpt lat="41.3993811" lon="1.5482991"><ele>445.0</ele><time>2026-04-19T09:33:15.033Z</time></trkpt><trkpt lat="41.3995067" lon="1.5484707"><ele>445.0</ele><time>2026-04-19T09:33:16.033Z</time></trkpt><trkpt lat="41.3996123" lon="1.5486552"><ele>445.0</ele><time>2026-04-19T09:33:17.033Z</time></trkpt><trkpt lat="41.3997182" lon="1.5488276"><ele>445.0</ele><time>2026-04-19T09:33:18.032Z</time></trkpt><trkpt lat="41.3998359" lon="1.5489741"><ele>447.0</ele><time>2026-04-19T09:33:19.033Z</time></trkpt><trkpt lat="41.3999436" lon="1.5491326"><ele>449.0</ele><time>2026-04-19T09:33:20.032Z</time></trkpt><trkpt lat="41.4000264" lon="1.5493143"><ele>451.0</ele><time>2026-04-19T09:33:21.033Z</time></trkpt><trkpt lat="41.4001022" lon="1.5494918"><ele>448.25</ele><time>2026-04-19T09:33:22.033Z</time></trkpt><trkpt lat="41.4001484" lon="1.5496605"><ele>445.5</ele><time>2026-04-19T09:33:23.033Z</time></trkpt><trkpt lat="41.4001566" lon="1.5498276"><ele>442.75</ele><time>2026-04-19T09:33:24.032Z</time></trkpt><trkpt lat="41.4001548" lon="1.5499929"><ele>440.0</ele><time>2026-04-19T09:33:25.032Z</time></trkpt><trkpt lat="41.4001819" lon="1.5501561"><ele>440.0</ele><time>2026-04-19T09:33:26.032Z</time></trkpt><trkpt lat="41.4002215" lon="1.5503129"><ele>440.0</ele><time>2026-04-19T09:33:27.032Z</time></trkpt><trkpt lat="41.4002458" lon="1.5504601"><ele>440.0</ele><time>2026-04-19T09:33:28.032Z</time></trkpt><trkpt lat="41.4002205" lon="1.5506062"><ele>440.0</ele><time>2026-04-19T09:33:29.032Z</time></trkpt><trkpt lat="41.4001522" lon="1.5507455"><ele>439.0</ele><time>2026-04-19T09:33:30.032Z</time></trkpt><trkpt lat="41.4000546" lon="1.5508816"><ele>438.0</ele><time>2026-04-19T09:33:31.032Z</time></trkpt><trkpt lat="41.3999327" lon="1.5509968"><ele>437.0</ele><time>2026-04-19T09:33:32.032Z</time></trkpt><trkpt lat="41.3998106" lon="1.5510914"><ele>436.0</ele><time>2026-04-19T09:33:33.033Z</time></trkpt><trkpt lat="41.3996398" lon="1.5511129"><ele>436.0</ele><time>2026-04-19T09:33:34.033Z</time></trkpt><trkpt lat="41.3994742" lon="1.5511074"><ele>436.0</ele><time>2026-04-19T09:33:35.032Z</time></trkpt><trkpt lat="41.3993172" lon="1.5510782"><ele>436.0</ele><time>2026-04-19T09:33:36.033Z</time></trkpt><trkpt lat="41.3991749" lon="1.5510454"><ele>436.0</ele><time>2026-04-19T09:33:37.033Z</time></trkpt><trkpt lat="41.3990662" lon="1.5509952"><ele>436.0</ele><time>2026-04-19T09:33:38.032Z</time></trkpt><trkpt lat="41.3989714" lon="1.5509415"><ele>436.0</ele><time>2026-04-19T09:33:39.032Z</time></trkpt><trkpt lat="41.3988802" lon="1.5509327"><ele>436.0</ele><time>2026-04-19T09:33:40.033Z</time></trkpt><trkpt lat="41.3988004" lon="1.5509788"><ele>436.0</ele><time>2026-04-19T09:33:41.032Z</time></trkpt><trkpt lat="41.3987301" lon="1.5510785"><ele>435.0</ele><time>2026-04-19T09:33:42.033Z</time></trkpt><trkpt lat="41.3986808" lon="1.5512206"><ele>434.0</ele><time>2026-04-19T09:33:43.033Z</time></trkpt><trkpt lat="41.3986354" lon="1.5513829"><ele>433.0</ele><time>2026-04-19T09:33:44.033Z</time></trkpt><trkpt lat="41.3986288" lon="1.551554"><ele>432.0</ele><time>2026-04-19T09:33:45.032Z</time></trkpt><trkpt lat="41.3986418" lon="1.5517194"><ele>432.0</ele><time>2026-04-19T09:33:46.033Z</time></trkpt><trkpt lat="41.3986796" lon="1.5518805"><ele>432.0</ele><time>2026-04-19T09:33:47.033Z</time></trkpt><trkpt lat="41.3987339" lon="1.552035"><ele>432.0</ele><time>2026-04-19T09:33:48.033Z</time></trkpt><trkpt lat="41.3987851" lon="1.5521827"><ele>432.0</ele><time>2026-04-19T09:33:49.033Z</time></trkpt><trkpt lat="41.3988032" lon="1.5523409"><ele>431.0</ele><time>2026-04-19T09:33:50.033Z</time></trkpt><trkpt lat="41.3987805" lon="1.5524954"><ele>430.0</ele><time>2026-04-19T09:33:51.033Z</time></trkpt><trkpt lat="41.3987215" lon="1.5526403"><ele>429.0</ele><time>2026-04-19T09:33:52.033Z</time></trkpt><trkpt lat="41.3986451" lon="1.5527527"><ele>428.0</ele><time>2026-04-19T09:33:53.033Z</time></trkpt><trkpt lat="41.3985602" lon="1.5528557"><ele>432.25</ele><time>2026-04-19T09:33:54.033Z</time></trkpt><trkpt lat="41.3984694" lon="1.5529576"><ele>436.5</ele><time>2026-04-19T09:33:55.032Z</time></trkpt><trkpt lat="41.3983765" lon="1.5530549"><ele>440.75</ele><time>2026-04-19T09:33:56.033Z</time></trkpt><trkpt lat="41.3982817" lon="1.5531412"><ele>445.0</ele><time>2026-04-19T09:33:57.033Z</time></trkpt><trkpt lat="41.3981874" lon="1.5532115"><ele>445.0</ele><time>2026-04-19T09:33:58.033Z</time></trkpt><trkpt lat="41.3980902" lon="1.5532535"><ele>445.0</ele><time>2026-04-19T09:33:59.032Z</time></trkpt><trkpt lat="41.397992" lon="1.5532671"><ele>445.0</ele><time>2026-04-19T09:34:00.033Z</time></trkpt><trkpt lat="41.3978832" lon="1.5532392"><ele>445.0</ele><time>2026-04-19T09:34:01.032Z</time></trkpt><trkpt lat="41.3977804" lon="1.5531822"><ele>445.0</ele><time>2026-04-19T09:34:02.033Z</time></trkpt><trkpt lat="41.3976853" lon="1.5531111"><ele>443.8</ele><time>2026-04-19T09:34:03.033Z</time></trkpt><trkpt lat="41.3975915" lon="1.5530547"><ele>442.6</ele><time>2026-04-19T09:34:04.032Z</time></trkpt><trkpt lat="41.3974894" lon="1.5530263"><ele>441.4</ele><time>2026-04-19T09:34:05.033Z</time></trkpt><trkpt lat="41.397374" lon="1.5530432"><ele>440.2</ele><time>2026-04-19T09:34:06.032Z</time></trkpt><trkpt lat="41.3972742" lon="1.553076"><ele>439.0</ele><time>2026-04-19T09:34:07.032Z</time></trkpt><trkpt lat="41.3971696" lon="1.5532019"><ele>439.25</ele><time>2026-04-19T09:34:08.033Z</time></trkpt><trkpt lat="41.3970781" lon="1.5533391"><ele>439.5</ele><time>2026-04-19T09:34:09.032Z</time></trkpt><trkpt lat="41.3969639" lon="1.5534616"><ele>439.75</ele><time>2026-04-19T09:34:10.032Z</time></trkpt><trkpt lat="41.3968507" lon="1.5535806"><ele>440.0</ele><time>2026-04-19T09:34:11.032Z</time></trkpt><trkpt lat="41.3967379" lon="1.5537073"><ele>440.0</ele><time>2026-04-19T09:34:12.032Z</time></trkpt><trkpt lat="41.3966495" lon="1.5538505"><ele>440.0</ele><time>2026-04-19T09:34:13.032Z</time></trkpt><trkpt lat="41.396541" lon="1.553971"><ele>440.0</ele><time>2026-04-19T09:34:14.033Z</time></trkpt><trkpt lat="41.3964401" lon="1.5540682"><ele>440.0</ele><time>2026-04-19T09:34:15.033Z</time></trkpt><trkpt lat="41.3963356" lon="1.5541264"><ele>436.5</ele><time>2026-04-19T09:34:16.033Z</time></trkpt><trkpt lat="41.3962311" lon="1.5541337"><ele>433.0</ele><time>2026-04-19T09:34:17.033Z</time></trkpt><trkpt lat="41.3961227" lon="1.5541058"><ele>429.5</ele><time>2026-04-19T09:34:18.033Z</time></trkpt><trkpt lat="41.3960076" lon="1.5540705"><ele>426.0</ele><time>2026-04-19T09:34:19.032Z</time></trkpt><trkpt lat="41.3958874" lon="1.5540708"><ele>426.0</ele><time>2026-04-19T09:34:20.033Z</time></trkpt><trkpt lat="41.3957652" lon="1.5541166"><ele>426.0</ele><time>2026-04-19T09:34:21.033Z</time></trkpt><trkpt lat="41.3956474" lon="1.5542074"><ele>426.0</ele><time>2026-04-19T09:34:22.032Z</time></trkpt><trkpt lat="41.3955407" lon="1.5543249"><ele>426.0</ele><time>2026-04-19T09:34:23.032Z</time></trkpt><trkpt lat="41.3954399" lon="1.5544502"><ele>423.25</ele><time>2026-04-19T09:34:24.033Z</time></trkpt><trkpt lat="41.3953454" lon="1.5545643"><ele>420.5</ele><time>2026-04-19T09:34:25.033Z</time></trkpt><trkpt lat="41.3952777" lon="1.5546949"><ele>417.75</ele><time>2026-04-19T09:34:26.032Z</time></trkpt><trkpt lat="41.3952254" lon="1.554844"><ele>415.0</ele><time>2026-04-19T09:34:27.032Z</time></trkpt><trkpt lat="41.3952106" lon="1.5550275"><ele>415.0</ele><time>2026-04-19T09:34:28.032Z</time></trkpt><trkpt lat="41.3952122" lon="1.5552289"><ele>415.0</ele><time>2026-04-19T09:34:29.033Z</time></trkpt><trkpt lat="41.3952138" lon="1.5554558"><ele>415.0</ele><time>2026-04-19T09:34:30.033Z</time></trkpt><trkpt lat="41.3951897" lon="1.5556912"><ele>415.0</ele><time>2026-04-19T09:34:31.033Z</time></trkpt><trkpt lat="41.3951347" lon="1.5559115"><ele>415.0</ele><time>2026-04-19T09:34:32.033Z</time></trkpt><trkpt lat="41.395079" lon="1.5561258"><ele>415.0</ele><time>2026-04-19T09:34:33.033Z</time></trkpt><trkpt lat="41.3950081" lon="1.5563044"><ele>417.75</ele><time>2026-04-19T09:34:34.033Z</time></trkpt><trkpt lat="41.3949377" lon="1.5564849"><ele>420.5</ele><time>2026-04-19T09:34:35.033Z</time></trkpt><trkpt lat="41.3948734" lon="1.5566604"><ele>423.25</ele><time>2026-04-19T09:34:36.033Z</time></trkpt><trkpt lat="41.3948241" lon="1.5568237"><ele>426.0</ele><time>2026-04-19T09:34:37.033Z</time></trkpt><trkpt lat="41.3947862" lon="1.5569818"><ele>422.5</ele><time>2026-04-19T09:34:38.032Z</time></trkpt><trkpt lat="41.3947477" lon="1.5571331"><ele>419.0</ele><time>2026-04-19T09:34:39.033Z</time></trkpt><trkpt lat="41.3946714" lon="1.5572731"><ele>415.5</ele><time>2026-04-19T09:34:40.033Z</time></trkpt><trkpt lat="41.394567" lon="1.5573986"><ele>412.0</ele><time>2026-04-19T09:34:41.033Z</time></trkpt><trkpt lat="41.3944453" lon="1.5575137"><ele>412.0</ele><time>2026-04-19T09:34:42.033Z</time></trkpt><trkpt lat="41.3943307" lon="1.5576306"><ele>412.0</ele><time>2026-04-19T09:34:43.033Z</time></trkpt><trkpt lat="41.3942137" lon="1.5577758"><ele>412.0</ele><time>2026-04-19T09:34:44.032Z</time></trkpt><trkpt lat="41.3941014" lon="1.5579373"><ele>409.0</ele><time>2026-04-19T09:34:45.032Z</time></trkpt><trkpt lat="41.3939931" lon="1.5581125"><ele>406.0</ele><time>2026-04-19T09:34:46.033Z</time></trkpt><trkpt lat="41.3938916" lon="1.5583024"><ele>403.0</ele><time>2026-04-19T09:34:47.032Z</time></trkpt><trkpt lat="41.3937876" lon="1.5584868"><ele>403.0</ele><time>2026-04-19T09:34:48.032Z</time></trkpt><trkpt lat="41.3936849" lon="1.5586628"><ele>403.0</ele><time>2026-04-19T09:34:49.032Z</time></trkpt><trkpt lat="41.393576" lon="1.5588386"><ele>403.0</ele><time>2026-04-19T09:34:50.032Z</time></trkpt><trkpt lat="41.3934613" lon="1.5590042"><ele>407.6666666666667</ele><time>2026-04-19T09:34:51.033Z</time></trkpt><trkpt lat="41.3933428" lon="1.5591851"><ele>412.33333333333337</ele><time>2026-04-19T09:34:52.033Z</time></trkpt><trkpt lat="41.3932225" lon="1.5593574"><ele>417.0</ele><time>2026-04-19T09:34:53.033Z</time></trkpt><trkpt lat="41.3930966" lon="1.5595164"><ele>414.66666666666663</ele><time>2026-04-19T09:34:54.033Z</time></trkpt><trkpt lat="41.392978" lon="1.5596647"><ele>412.3333333333333</ele><time>2026-04-19T09:34:55.033Z</time></trkpt><trkpt lat="41.3928798" lon="1.5598237"><ele>410.0</ele><time>2026-04-19T09:34:56.033Z</time></trkpt><trkpt lat="41.3928025" lon="1.5600083"><ele>410.0</ele><time>2026-04-19T09:34:57.033Z</time></trkpt><trkpt lat="41.3927471" lon="1.5602123"><ele>410.0</ele><time>2026-04-19T09:34:58.032Z</time></trkpt><trkpt lat="41.392682" lon="1.5604088"><ele>410.0</ele><time>2026-04-19T09:34:59.033Z</time></trkpt><trkpt lat="41.3925847" lon="1.5605927"><ele>411.3333333333333</ele><time>2026-04-19T09:35:00.033Z</time></trkpt><trkpt lat="41.3924799" lon="1.5607799"><ele>412.66666666666663</ele><time>2026-04-19T09:35:01.033Z</time></trkpt><trkpt lat="41.3923926" lon="1.5609969"><ele>414.0</ele><time>2026-04-19T09:35:02.033Z</time></trkpt><trkpt lat="41.3923113" lon="1.5612197"><ele>415.33333333333337</ele><time>2026-04-19T09:35:03.033Z</time></trkpt><trkpt lat="41.3922365" lon="1.5614396"><ele>416.6666666666667</ele><time>2026-04-19T09:35:04.033Z</time></trkpt><trkpt lat="41.3921606" lon="1.5616438"><ele>418.0</ele><time>2026-04-19T09:35:05.033Z</time></trkpt><trkpt lat="41.3920902" lon="1.5618333"><ele>415.0</ele><time>2026-04-19T09:35:06.033Z</time></trkpt><trkpt lat="41.3920111" lon="1.5620045"><ele>412.0</ele><time>2026-04-19T09:35:07.032Z</time></trkpt><trkpt lat="41.3919192" lon="1.5621543"><ele>409.0</ele><time>2026-04-19T09:35:08.033Z</time></trkpt><trkpt lat="41.3918186" lon="1.5622909"><ele>406.0</ele><time>2026-04-19T09:35:09.032Z</time></trkpt><trkpt lat="41.3917237" lon="1.5624155"><ele>406.0</ele><time>2026-04-19T09:35:10.032Z</time></trkpt><trkpt lat="41.3916379" lon="1.562533"><ele>406.0</ele><time>2026-04-19T09:35:11.033Z</time></trkpt><trkpt lat="41.3915534" lon="1.5626444"><ele>406.0</ele><time>2026-04-19T09:35:12.032Z</time></trkpt><trkpt lat="41.3914748" lon="1.5627494"><ele>406.0</ele><time>2026-04-19T09:35:13.033Z</time></trkpt><trkpt lat="41.3913981" lon="1.5628485"><ele>404.6</ele><time>2026-04-19T09:35:14.033Z</time></trkpt><trkpt lat="41.3913238" lon="1.5629491"><ele>403.20000000000005</ele><time>2026-04-19T09:35:15.032Z</time></trkpt><trkpt lat="41.3912549" lon="1.5630549"><ele>401.79999999999995</ele><time>2026-04-19T09:35:16.033Z</time></trkpt><trkpt lat="41.3911839" lon="1.5631697"><ele>400.4</ele><time>2026-04-19T09:35:17.032Z</time></trkpt><trkpt lat="41.3911118" lon="1.5632923"><ele>399.0</ele><time>2026-04-19T09:35:18.032Z</time></trkpt><trkpt lat="41.3910411" lon="1.5634164"><ele>399.0</ele><time>2026-04-19T09:35:19.032Z</time></trkpt><trkpt lat="41.3909674" lon="1.5635415"><ele>399.0</ele><time>2026-04-19T09:35:20.033Z</time></trkpt><trkpt lat="41.3908942" lon="1.5636703"><ele>399.0</ele><time>2026-04-19T09:35:21.033Z</time></trkpt><trkpt lat="41.3908255" lon="1.5638"><ele>399.0</ele><time>2026-04-19T09:35:22.032Z</time></trkpt><trkpt lat="41.390761" lon="1.5639269"><ele>399.2</ele><time>2026-04-19T09:35:23.033Z</time></trkpt><trkpt lat="41.3906991" lon="1.5640495"><ele>399.4</ele><time>2026-04-19T09:35:24.032Z</time></trkpt><trkpt lat="41.3906412" lon="1.5641707"><ele>399.6</ele><time>2026-04-19T09:35:25.032Z</time></trkpt><trkpt lat="41.3905926" lon="1.5642934"><ele>399.8</ele><time>2026-04-19T09:35:26.033Z</time></trkpt><trkpt lat="41.3905542" lon="1.5644137"><ele>400.0</ele><time>2026-04-19T09:35:27.032Z</time></trkpt><trkpt lat="41.3905219" lon="1.5645379"><ele>398.2</ele><time>2026-04-19T09:35:28.033Z</time></trkpt><trkpt lat="41.3904953" lon="1.5646583"><ele>396.4</ele><time>2026-04-19T09:35:29.033Z</time></trkpt><trkpt lat="41.3904701" lon="1.5647857"><ele>394.6</ele><time>2026-04-19T09:35:30.032Z</time></trkpt><trkpt lat="41.3904431" lon="1.5649183"><ele>392.8</ele><time>2026-04-19T09:35:31.033Z</time></trkpt><trkpt lat="41.390416" lon="1.5650534"><ele>391.0</ele><time>2026-04-19T09:35:32.033Z</time></trkpt><trkpt lat="41.3903884" lon="1.5651936"><ele>391.0</ele><time>2026-04-19T09:35:33.032Z</time></trkpt><trkpt lat="41.3903607" lon="1.5653269"><ele>391.0</ele><time>2026-04-19T09:35:34.033Z</time></trkpt><trkpt lat="41.3903339" lon="1.5654598"><ele>391.0</ele><time>2026-04-19T09:35:35.032Z</time></trkpt><trkpt lat="41.3903073" lon="1.5655941"><ele>391.0</ele><time>2026-04-19T09:35:36.033Z</time></trkpt><trkpt lat="41.3902812" lon="1.5657334"><ele>391.0</ele><time>2026-04-19T09:35:37.032Z</time></trkpt><trkpt lat="41.3902533" lon="1.5658761"><ele>390.75</ele><time>2026-04-19T09:35:38.033Z</time></trkpt><trkpt lat="41.3902237" lon="1.5660175"><ele>390.5</ele><time>2026-04-19T09:35:39.033Z</time></trkpt><trkpt lat="41.3901978" lon="1.5661638"><ele>390.25</ele><time>2026-04-19T09:35:40.033Z</time></trkpt><trkpt lat="41.3901717" lon="1.5663111"><ele>390.0</ele><time>2026-04-19T09:35:41.032Z</time></trkpt><trkpt lat="41.3901451" lon="1.5664589"><ele>389.8</ele><time>2026-04-19T09:35:42.033Z</time></trkpt><trkpt lat="41.3901144" lon="1.5666036"><ele>389.6</ele><time>2026-04-19T09:35:43.032Z</time></trkpt><trkpt lat="41.3900841" lon="1.5667396"><ele>389.4</ele><time>2026-04-19T09:35:44.033Z</time></trkpt><trkpt lat="41.3900551" lon="1.566874"><ele>389.2</ele><time>2026-04-19T09:35:45.033Z</time></trkpt><trkpt lat="41.3900294" lon="1.5670016"><ele>389.0</ele><time>2026-04-19T09:35:46.033Z</time></trkpt><trkpt lat="41.3900089" lon="1.5671375"><ele>388.79999999999995</ele><time>2026-04-19T09:35:47.033Z</time></trkpt><trkpt lat="41.3899833" lon="1.5672776"><ele>388.59999999999997</ele><time>2026-04-19T09:35:48.032Z</time></trkpt><trkpt lat="41.3899575" lon="1.5674158"><ele>388.4</ele><time>2026-04-19T09:35:49.033Z</time></trkpt><trkpt lat="41.3899305" lon="1.5675531"><ele>388.2</ele><time>2026-04-19T09:35:50.033Z</time></trkpt><trkpt lat="41.3899011" lon="1.5676941"><ele>388.0</ele><time>2026-04-19T09:35:51.032Z</time></trkpt><trkpt lat="41.389872" lon="1.5678353"><ele>387.4</ele><time>2026-04-19T09:35:52.033Z</time></trkpt><trkpt lat="41.3898444" lon="1.5679775"><ele>386.79999999999995</ele><time>2026-04-19T09:35:53.033Z</time></trkpt><trkpt lat="41.3898149" lon="1.5681168"><ele>386.2</ele><time>2026-04-19T09:35:54.033Z</time></trkpt><trkpt lat="41.3897874" lon="1.568252"><ele>385.6</ele><time>2026-04-19T09:35:55.032Z</time></trkpt><trkpt lat="41.38976" lon="1.5683873"><ele>385.0</ele><time>2026-04-19T09:35:56.033Z</time></trkpt><trkpt lat="41.3897278" lon="1.5685245"><ele>385.0</ele><time>2026-04-19T09:35:57.033Z</time></trkpt><trkpt lat="41.3896908" lon="1.5686578"><ele>385.0</ele><time>2026-04-19T09:35:58.032Z</time></trkpt><trkpt lat="41.3896492" lon="1.5687862"><ele>385.0</ele><time>2026-04-19T09:35:59.033Z</time></trkpt><trkpt lat="41.3895994" lon="1.568907"><ele>385.0</ele><time>2026-04-19T09:36:00.033Z</time></trkpt><trkpt lat="41.3895383" lon="1.5690234"><ele>385.0</ele><time>2026-04-19T09:36:01.033Z</time></trkpt><trkpt lat="41.3894764" lon="1.5691323"><ele>384.0</ele><time>2026-04-19T09:36:02.033Z</time></trkpt><trkpt lat="41.3894138" lon="1.5692325"><ele>383.0</ele><time>2026-04-19T09:36:03.033Z</time></trkpt><trkpt lat="41.3893584" lon="1.5693303"><ele>382.0</ele><time>2026-04-19T09:36:04.033Z</time></trkpt><trkpt lat="41.3893034" lon="1.5694279"><ele>381.0</ele><time>2026-04-19T09:36:05.033Z</time></trkpt><trkpt lat="41.3892478" lon="1.5695295"><ele>380.0</ele><time>2026-04-19T09:36:06.033Z</time></trkpt><trkpt lat="41.3891876" lon="1.5696311"><ele>379.4</ele><time>2026-04-19T09:36:07.032Z</time></trkpt><trkpt lat="41.3891246" lon="1.5697369"><ele>378.8</ele><time>2026-04-19T09:36:08.032Z</time></trkpt><trkpt lat="41.3890638" lon="1.5698407"><ele>378.20000000000005</ele><time>2026-04-19T09:36:09.033Z</time></trkpt><trkpt lat="41.3890055" lon="1.5699421"><ele>377.6</ele><time>2026-04-19T09:36:10.032Z</time></trkpt><trkpt lat="41.3889539" lon="1.5700361"><ele>377.0</ele><time>2026-04-19T09:36:11.033Z</time></trkpt><trkpt lat="41.3889043" lon="1.5701216"><ele>377.0</ele><time>2026-04-19T09:36:12.033Z</time></trkpt><trkpt lat="41.3888608" lon="1.5701929"><ele>377.0</ele><time>2026-04-19T09:36:13.033Z</time></trkpt><trkpt lat="41.3888212" lon="1.5702607"><ele>377.0</ele><time>2026-04-19T09:36:14.032Z</time></trkpt><trkpt lat="41.3887461" lon="1.5703799"><ele>377.0</ele><time>2026-04-19T09:36:16.032Z</time></trkpt><trkpt lat="41.3886759" lon="1.5704997"><ele>377.0</ele><time>2026-04-19T09:36:18.032Z</time></trkpt><trkpt lat="41.3886103" lon="1.570605"><ele>377.1666666666667</ele><time>2026-04-19T09:36:20.033Z</time></trkpt><trkpt lat="41.3885601" lon="1.5706924"><ele>377.33333333333337</ele><time>2026-04-19T09:36:22.033Z</time></trkpt><trkpt lat="41.3885068" lon="1.5707801"><ele>377.5</ele><time>2026-04-19T09:36:24.033Z</time></trkpt><trkpt lat="41.3884531" lon="1.57087"><ele>377.6666666666667</ele><time>2026-04-19T09:36:26.032Z</time></trkpt><trkpt lat="41.3884461" lon="1.5709651"><ele>377.8333333333333</ele><time>2026-04-19T09:36:29.033Z</time></trkpt><trkpt lat="41.3885059" lon="1.5710288"><ele>378.0</ele><time>2026-04-19T09:36:32.033Z</time></trkpt><trkpt lat="41.3885767" lon="1.5710186"><ele>378.0</ele><time>2026-04-19T09:36:36.033Z</time></trkpt></trkseg><trkseg><trkpt lat="41.3885031" lon="1.5709474"><ele>378.0</ele><time>2026-04-19T10:32:17.04Z</time></trkpt><trkpt lat="41.3884167" lon="1.5709366"><ele>378.0</ele><time>2026-04-19T10:32:28.041Z</time></trkpt><trkpt lat="41.3883562" lon="1.5710147"><ele>378.0</ele><time>2026-04-19T10:32:31.04Z</time></trkpt><trkpt lat="41.3883126" lon="1.5710994"><ele>378.0</ele><time>2026-04-19T10:32:33.04Z</time></trkpt><trkpt lat="41.3882442" lon="1.5712077"><ele>378.0</ele><time>2026-04-19T10:32:35.04Z</time></trkpt><trkpt lat="41.3882021" lon="1.5712817"><ele>378.0</ele><time>2026-04-19T10:32:36.041Z</time></trkpt><trkpt lat="41.3881613" lon="1.5713586"><ele>376.8333333333333</ele><time>2026-04-19T10:32:37.041Z</time></trkpt><trkpt lat="41.3881151" lon="1.5714404"><ele>375.6666666666667</ele><time>2026-04-19T10:32:38.041Z</time></trkpt><trkpt lat="41.3880684" lon="1.5715305"><ele>374.5</ele><time>2026-04-19T10:32:39.041Z</time></trkpt><trkpt lat="41.3880167" lon="1.5716221"><ele>373.33333333333337</ele><time>2026-04-19T10:32:40.041Z</time></trkpt><trkpt lat="41.3879669" lon="1.5717084"><ele>372.1666666666667</ele><time>2026-04-19T10:32:41.041Z</time></trkpt><trkpt lat="41.3879198" lon="1.571783"><ele>371.0</ele><time>2026-04-19T10:32:42.041Z</time></trkpt><trkpt lat="41.3878755" lon="1.5718597"><ele>371.0</ele><time>2026-04-19T10:32:43.041Z</time></trkpt><trkpt lat="41.38783" lon="1.5719364"><ele>371.0</ele><time>2026-04-19T10:32:44.041Z</time></trkpt><trkpt lat="41.3877847" lon="1.5720156"><ele>371.0</ele><time>2026-04-19T10:32:45.04Z</time></trkpt><trkpt lat="41.3877398" lon="1.5720958"><ele>371.0</ele><time>2026-04-19T10:32:46.041Z</time></trkpt><trkpt lat="41.3876936" lon="1.5721742"><ele>371.0</ele><time>2026-04-19T10:32:47.041Z</time></trkpt><trkpt lat="41.3876481" lon="1.5722538"><ele>371.0</ele><time>2026-04-19T10:32:48.041Z</time></trkpt><trkpt lat="41.3876002" lon="1.572337"><ele>371.0</ele><time>2026-04-19T10:32:49.041Z</time></trkpt><trkpt lat="41.387554" lon="1.5724318"><ele>371.0</ele><time>2026-04-19T10:32:50.041Z</time></trkpt><trkpt lat="41.3875114" lon="1.5725286"><ele>371.0</ele><time>2026-04-19T10:32:51.041Z</time></trkpt><trkpt lat="41.38747" lon="1.5726268"><ele>371.0</ele><time>2026-04-19T10:32:52.041Z</time></trkpt><trkpt lat="41.3874331" lon="1.5727316"><ele>371.0</ele><time>2026-04-19T10:32:53.041Z</time></trkpt><trkpt lat="41.3873955" lon="1.572835"><ele>371.0</ele><time>2026-04-19T10:32:54.041Z</time></trkpt><trkpt lat="41.387356" lon="1.5729416"><ele>370.8</ele><time>2026-04-19T10:32:55.04Z</time></trkpt><trkpt lat="41.3873158" lon="1.5730506"><ele>370.6</ele><time>2026-04-19T10:32:56.041Z</time></trkpt><trkpt lat="41.3872734" lon="1.5731674"><ele>370.4</ele><time>2026-04-19T10:32:57.041Z</time></trkpt><trkpt lat="41.3872298" lon="1.5732798"><ele>370.2</ele><time>2026-04-19T10:32:58.041Z</time></trkpt><trkpt lat="41.3871875" lon="1.5733854"><ele>370.0</ele><time>2026-04-19T10:32:59.041Z</time></trkpt><trkpt lat="41.3871512" lon="1.5734818"><ele>370.0</ele><time>2026-04-19T10:33:00.041Z</time></trkpt><trkpt lat="41.3871163" lon="1.5735761"><ele>370.0</ele><time>2026-04-19T10:33:01.041Z</time></trkpt><trkpt lat="41.3870809" lon="1.573676"><ele>370.0</ele><time>2026-04-19T10:33:02.04Z</time></trkpt><trkpt lat="41.387042" lon="1.5737911"><ele>370.0</ele><time>2026-04-19T10:33:03.041Z</time></trkpt><trkpt lat="41.3870006" lon="1.5739058"><ele>370.0</ele><time>2026-04-19T10:33:04.041Z</time></trkpt><trkpt lat="41.3869584" lon="1.5740231"><ele>369.8</ele><time>2026-04-19T10:33:05.041Z</time></trkpt><trkpt lat="41.3869146" lon="1.5741435"><ele>369.6</ele><time>2026-04-19T10:33:06.041Z</time></trkpt><trkpt lat="41.3868647" lon="1.5742757"><ele>369.4</ele><time>2026-04-19T10:33:07.04Z</time></trkpt><trkpt lat="41.3868107" lon="1.5744149"><ele>369.2</ele><time>2026-04-19T10:33:08.04Z</time></trkpt><trkpt lat="41.386762" lon="1.5745586"><ele>369.0</ele><time>2026-04-19T10:33:09.041Z</time></trkpt><trkpt lat="41.3867081" lon="1.5747076"><ele>367.75</ele><time>2026-04-19T10:33:10.04Z</time></trkpt><trkpt lat="41.3866509" lon="1.5748604"><ele>366.5</ele><time>2026-04-19T10:33:11.04Z</time></trkpt><trkpt lat="41.3865923" lon="1.5750189"><ele>365.25</ele><time>2026-04-19T10:33:12.04Z</time></trkpt><trkpt lat="41.3865299" lon="1.5751781"><ele>364.0</ele><time>2026-04-19T10:33:13.04Z</time></trkpt><trkpt lat="41.3864729" lon="1.5753345"><ele>363.75</ele><time>2026-04-19T10:33:14.041Z</time></trkpt><trkpt lat="41.3864122" lon="1.57549"><ele>363.5</ele><time>2026-04-19T10:33:15.041Z</time></trkpt><trkpt lat="41.386352" lon="1.5756454"><ele>363.25</ele><time>2026-04-19T10:33:16.04Z</time></trkpt><trkpt lat="41.3862892" lon="1.5758036"><ele>363.0</ele><time>2026-04-19T10:33:17.041Z</time></trkpt><trkpt lat="41.3862251" lon="1.5759563"><ele>363.0</ele><time>2026-04-19T10:33:18.041Z</time></trkpt><trkpt lat="41.3861614" lon="1.5761119"><ele>363.0</ele><time>2026-04-19T10:33:19.04Z</time></trkpt><trkpt lat="41.3861012" lon="1.5762596"><ele>363.0</ele><time>2026-04-19T10:33:20.041Z</time></trkpt><trkpt lat="41.3860442" lon="1.5764063"><ele>363.0</ele><time>2026-04-19T10:33:21.041Z</time></trkpt><trkpt lat="41.3859951" lon="1.5765434"><ele>362.2</ele><time>2026-04-19T10:33:22.04Z</time></trkpt><trkpt lat="41.3859463" lon="1.5766706"><ele>361.4</ele><time>2026-04-19T10:33:23.041Z</time></trkpt><trkpt lat="41.3858969" lon="1.5767957"><ele>360.59999999999997</ele><time>2026-04-19T10:33:24.04Z</time></trkpt><trkpt lat="41.3858494" lon="1.5769182"><ele>359.79999999999995</ele><time>2026-04-19T10:33:25.041Z</time></trkpt><trkpt lat="41.3858001" lon="1.5770509"><ele>359.0</ele><time>2026-04-19T10:33:26.041Z</time></trkpt><trkpt lat="41.3857478" lon="1.5771982"><ele>357.5</ele><time>2026-04-19T10:33:27.04Z</time></trkpt><trkpt lat="41.3856948" lon="1.5773561"><ele>356.0</ele><time>2026-04-19T10:33:28.04Z</time></trkpt><trkpt lat="41.3856393" lon="1.5775182"><ele>354.5</ele><time>2026-04-19T10:33:29.041Z</time></trkpt><trkpt lat="41.3855852" lon="1.5776817"><ele>353.0</ele><time>2026-04-19T10:33:30.04Z</time></trkpt><trkpt lat="41.3855278" lon="1.5778446"><ele>353.5</ele><time>2026-04-19T10:33:31.04Z</time></trkpt><trkpt lat="41.3854707" lon="1.5780099"><ele>354.0</ele><time>2026-04-19T10:33:32.041Z</time></trkpt><trkpt lat="41.3854127" lon="1.5781749"><ele>354.5</ele><time>2026-04-19T10:33:33.04Z</time></trkpt><trkpt lat="41.3853566" lon="1.5783385"><ele>355.0</ele><time>2026-04-19T10:33:34.041Z</time></trkpt><trkpt lat="41.3852984" lon="1.5785036"><ele>355.0</ele><time>2026-04-19T10:33:35.041Z</time></trkpt><trkpt lat="41.3852421" lon="1.578663"><ele>355.0</ele><time>2026-04-19T10:33:36.041Z</time></trkpt><trkpt lat="41.3851868" lon="1.5788225"><ele>355.0</ele><time>2026-04-19T10:33:37.04Z</time></trkpt><trkpt lat="41.3851291" lon="1.5789836"><ele>355.0</ele><time>2026-04-19T10:33:38.041Z</time></trkpt><trkpt lat="41.3850755" lon="1.5791393"><ele>355.0</ele><time>2026-04-19T10:33:39.041Z</time></trkpt><trkpt lat="41.3850208" lon="1.5792993"><ele>355.0</ele><time>2026-04-19T10:33:40.04Z</time></trkpt><trkpt lat="41.3849661" lon="1.5794563"><ele>355.0</ele><time>2026-04-19T10:33:41.041Z</time></trkpt><trkpt lat="41.3849092" lon="1.5796188"><ele>355.0</ele><time>2026-04-19T10:33:42.041Z</time></trkpt><trkpt lat="41.3848509" lon="1.5797852"><ele>354.66666666666663</ele><time>2026-04-19T10:33:43.04Z</time></trkpt><trkpt lat="41.384783" lon="1.5799781"><ele>354.3333333333333</ele><time>2026-04-19T10:33:44.04Z</time></trkpt><trkpt lat="41.384716" lon="1.5801716"><ele>354.0</ele><time>2026-04-19T10:33:45.04Z</time></trkpt><trkpt lat="41.3846462" lon="1.5803751"><ele>354.0</ele><time>2026-04-19T10:33:46.041Z</time></trkpt><trkpt lat="41.3845753" lon="1.5805865"><ele>354.0</ele><time>2026-04-19T10:33:47.04Z</time></trkpt><trkpt lat="41.3845053" lon="1.5808249"><ele>354.0</ele><time>2026-04-19T10:33:48.04Z</time></trkpt><trkpt lat="41.3844558" lon="1.5811031"><ele>353.0</ele><time>2026-04-19T10:33:49.041Z</time></trkpt><trkpt lat="41.3844311" lon="1.5813982"><ele>352.0</ele><time>2026-04-19T10:33:50.041Z</time></trkpt><trkpt lat="41.384423" lon="1.5816873"><ele>351.0</ele><time>2026-04-19T10:33:51.041Z</time></trkpt><trkpt lat="41.3844217" lon="1.5819592"><ele>350.0</ele><time>2026-04-19T10:33:52.041Z</time></trkpt><trkpt lat="41.3844216" lon="1.5821929"><ele>349.0</ele><time>2026-04-19T10:33:53.041Z</time></trkpt><trkpt lat="41.3844232" lon="1.5823925"><ele>348.0</ele><time>2026-04-19T10:33:54.04Z</time></trkpt><trkpt lat="41.3844212" lon="1.58258"><ele>348.0</ele><time>2026-04-19T10:33:55.041Z</time></trkpt><trkpt lat="41.3844216" lon="1.582758"><ele>348.0</ele><time>2026-04-19T10:33:56.041Z</time></trkpt><trkpt lat="41.3844271" lon="1.5829301"><ele>348.0</ele><time>2026-04-19T10:33:57.04Z</time></trkpt><trkpt lat="41.3844256" lon="1.5831023"><ele>348.0</ele><time>2026-04-19T10:33:58.041Z</time></trkpt><trkpt lat="41.3844289" lon="1.5832759"><ele>347.25</ele><time>2026-04-19T10:33:59.041Z</time></trkpt><trkpt lat="41.384434" lon="1.5834482"><ele>346.5</ele><time>2026-04-19T10:34:00.04Z</time></trkpt><trkpt lat="41.3844365" lon="1.5836084"><ele>345.75</ele><time>2026-04-19T10:34:01.04Z</time></trkpt><trkpt lat="41.3844389" lon="1.583753"><ele>345.0</ele><time>2026-04-19T10:34:02.041Z</time></trkpt><trkpt lat="41.384439" lon="1.583877"><ele>344.8333333333333</ele><time>2026-04-19T10:34:03.041Z</time></trkpt><trkpt lat="41.3844408" lon="1.5839742"><ele>344.6666666666667</ele><time>2026-04-19T10:34:04.04Z</time></trkpt><trkpt lat="41.384439" lon="1.5840684"><ele>344.5</ele><time>2026-04-19T10:34:05.041Z</time></trkpt><trkpt lat="41.3844398" lon="1.58417"><ele>344.33333333333337</ele><time>2026-04-19T10:34:06.041Z</time></trkpt><trkpt lat="41.3844435" lon="1.5842851"><ele>344.1666666666667</ele><time>2026-04-19T10:34:07.041Z</time></trkpt><trkpt lat="41.3844441" lon="1.584414"><ele>344.0</ele><time>2026-04-19T10:34:08.041Z</time></trkpt><trkpt lat="41.3844408" lon="1.5845431"><ele>344.0</ele><time>2026-04-19T10:34:09.04Z</time></trkpt><trkpt lat="41.3844378" lon="1.584674"><ele>344.0</ele><time>2026-04-19T10:34:10.041Z</time></trkpt><trkpt lat="41.3844326" lon="1.5848108"><ele>344.0</ele><time>2026-04-19T10:34:11.041Z</time></trkpt><trkpt lat="41.3844194" lon="1.5849486"><ele>344.0</ele><time>2026-04-19T10:34:12.041Z</time></trkpt><trkpt lat="41.3844039" lon="1.5850797"><ele>344.0</ele><time>2026-04-19T10:34:13.041Z</time></trkpt><trkpt lat="41.3843876" lon="1.5852034"><ele>344.0</ele><time>2026-04-19T10:34:14.041Z</time></trkpt><trkpt lat="41.3843677" lon="1.5853223"><ele>344.0</ele><time>2026-04-19T10:34:15.041Z</time></trkpt><trkpt lat="41.3843514" lon="1.5854254"><ele>344.0</ele><time>2026-04-19T10:34:16.04Z</time></trkpt><trkpt lat="41.3843354" lon="1.5855139"><ele>344.0</ele><time>2026-04-19T10:34:17.041Z</time></trkpt><trkpt lat="41.3843121" lon="1.5856497"><ele>344.0</ele><time>2026-04-19T10:34:19.04Z</time></trkpt><trkpt lat="41.384291" lon="1.585767"><ele>344.0</ele><time>2026-04-19T10:34:21.041Z</time></trkpt><trkpt lat="41.3842605" lon="1.5859074"><ele>343.6666666666667</ele><time>2026-04-19T10:34:23.041Z</time></trkpt><trkpt lat="41.3842441" lon="1.5859906"><ele>343.33333333333337</ele><time>2026-04-19T10:34:24.041Z</time></trkpt><trkpt lat="41.3842215" lon="1.5860825"><ele>343.0</ele><time>2026-04-19T10:34:25.04Z</time></trkpt><trkpt lat="41.3841951" lon="1.5861805"><ele>342.6666666666667</ele><time>2026-04-19T10:34:26.04Z</time></trkpt><trkpt lat="41.3841665" lon="1.5862865"><ele>342.3333333333333</ele><time>2026-04-19T10:34:27.041Z</time></trkpt><trkpt lat="41.3841351" lon="1.5864001"><ele>342.0</ele><time>2026-04-19T10:34:28.041Z</time></trkpt><trkpt lat="41.3841057" lon="1.5865227"><ele>342.0</ele><time>2026-04-19T10:34:29.04Z</time></trkpt><trkpt lat="41.3840822" lon="1.5866426"><ele>342.0</ele><time>2026-04-19T10:34:30.041Z</time></trkpt><trkpt lat="41.3840615" lon="1.5867563"><ele>342.0</ele><time>2026-04-19T10:34:31.041Z</time></trkpt><trkpt lat="41.3840412" lon="1.5868696"><ele>342.0</ele><time>2026-04-19T10:34:32.041Z</time></trkpt><trkpt lat="41.3840223" lon="1.5869871"><ele>342.0</ele><time>2026-04-19T10:34:33.04Z</time></trkpt><trkpt lat="41.3840056" lon="1.5870962"><ele>342.0</ele><time>2026-04-19T10:34:34.041Z</time></trkpt><trkpt lat="41.3839908" lon="1.5872024"><ele>341.5</ele><time>2026-04-19T10:34:35.041Z</time></trkpt><trkpt lat="41.3839752" lon="1.5873044"><ele>341.0</ele><time>2026-04-19T10:34:36.041Z</time></trkpt><trkpt lat="41.383957" lon="1.5874086"><ele>340.5</ele><time>2026-04-19T10:34:37.04Z</time></trkpt><trkpt lat="41.3839441" lon="1.5875079"><ele>340.0</ele><time>2026-04-19T10:34:38.041Z</time></trkpt><trkpt lat="41.3839255" lon="1.5876157"><ele>339.5</ele><time>2026-04-19T10:34:39.041Z</time></trkpt><trkpt lat="41.3839051" lon="1.5877356"><ele>339.0</ele><time>2026-04-19T10:34:40.04Z</time></trkpt><trkpt lat="41.3838849" lon="1.587861"><ele>338.79999999999995</ele><time>2026-04-19T10:34:41.041Z</time></trkpt><trkpt lat="41.3838628" lon="1.587993"><ele>338.59999999999997</ele><time>2026-04-19T10:34:42.041Z</time></trkpt><trkpt lat="41.3838393" lon="1.5881296"><ele>338.4</ele><time>2026-04-19T10:34:43.041Z</time></trkpt><trkpt lat="41.3838154" lon="1.5882675"><ele>338.2</ele><time>2026-04-19T10:34:44.04Z</time></trkpt><trkpt lat="41.383791" lon="1.5884096"><ele>338.0</ele><time>2026-04-19T10:34:45.04Z</time></trkpt><trkpt lat="41.3837646" lon="1.5885662"><ele>338.5</ele><time>2026-04-19T10:34:46.041Z</time></trkpt><trkpt lat="41.3837371" lon="1.5887332"><ele>339.0</ele><time>2026-04-19T10:34:47.041Z</time></trkpt><trkpt lat="41.3837096" lon="1.5889038"><ele>339.5</ele><time>2026-04-19T10:34:48.041Z</time></trkpt><trkpt lat="41.3836777" lon="1.5890886"><ele>340.0</ele><time>2026-04-19T10:34:49.04Z</time></trkpt><trkpt lat="41.3836461" lon="1.5892714"><ele>340.0</ele><time>2026-04-19T10:34:50.04Z</time></trkpt><trkpt lat="41.3836191" lon="1.5894531"><ele>340.0</ele><time>2026-04-19T10:34:51.041Z</time></trkpt><trkpt lat="41.3835921" lon="1.5896374"><ele>340.0</ele><time>2026-04-19T10:34:52.041Z</time></trkpt><trkpt lat="41.3835732" lon="1.5898165"><ele>340.0</ele><time>2026-04-19T10:34:53.041Z</time></trkpt><trkpt lat="41.3835784" lon="1.5899898"><ele>339.66666666666663</ele><time>2026-04-19T10:34:54.04Z</time></trkpt><trkpt lat="41.3836113" lon="1.5901642"><ele>339.3333333333333</ele><time>2026-04-19T10:34:55.041Z</time></trkpt><trkpt lat="41.3836641" lon="1.5903603"><ele>339.0</ele><time>2026-04-19T10:34:56.04Z</time></trkpt><trkpt lat="41.3837025" lon="1.5905714"><ele>338.6666666666667</ele><time>2026-04-19T10:34:57.04Z</time></trkpt><trkpt lat="41.3837212" lon="1.5907871"><ele>338.33333333333337</ele><time>2026-04-19T10:34:58.04Z</time></trkpt><trkpt lat="41.3837374" lon="1.5909927"><ele>338.0</ele><time>2026-04-19T10:34:59.041Z</time></trkpt><trkpt lat="41.3837496" lon="1.5911935"><ele>337.33333333333337</ele><time>2026-04-19T10:35:00.04Z</time></trkpt><trkpt lat="41.3837623" lon="1.5913958"><ele>336.6666666666667</ele><time>2026-04-19T10:35:01.04Z</time></trkpt><trkpt lat="41.383776" lon="1.5916006"><ele>336.0</ele><time>2026-04-19T10:35:02.04Z</time></trkpt><trkpt lat="41.3837871" lon="1.5917953"><ele>336.0</ele><time>2026-04-19T10:35:03.041Z</time></trkpt><trkpt lat="41.3837965" lon="1.5919867"><ele>336.0</ele><time>2026-04-19T10:35:04.04Z</time></trkpt><trkpt lat="41.3838052" lon="1.592182"><ele>336.0</ele><time>2026-04-19T10:35:05.041Z</time></trkpt><trkpt lat="41.3838136" lon="1.5923789"><ele>336.0</ele><time>2026-04-19T10:35:06.04Z</time></trkpt><trkpt lat="41.3838243" lon="1.5925745"><ele>335.75</ele><time>2026-04-19T10:35:07.041Z</time></trkpt><trkpt lat="41.3838422" lon="1.5927618"><ele>335.5</ele><time>2026-04-19T10:35:08.041Z</time></trkpt><trkpt lat="41.3838826" lon="1.5929462"><ele>335.25</ele><time>2026-04-19T10:35:09.041Z</time></trkpt><trkpt lat="41.3839361" lon="1.5931249"><ele>335.0</ele><time>2026-04-19T10:35:10.041Z</time></trkpt><trkpt lat="41.3840088" lon="1.5933003"><ele>331.6666666666667</ele><time>2026-04-19T10:35:11.041Z</time></trkpt><trkpt lat="41.3840916" lon="1.5934642"><ele>328.3333333333333</ele><time>2026-04-19T10:35:12.041Z</time></trkpt><trkpt lat="41.3841879" lon="1.5936151"><ele>325.0</ele><time>2026-04-19T10:35:13.041Z</time></trkpt><trkpt lat="41.3843056" lon="1.5937528"><ele>324.66666666666663</ele><time>2026-04-19T10:35:14.041Z</time></trkpt><trkpt lat="41.3844425" lon="1.5938749"><ele>324.3333333333333</ele><time>2026-04-19T10:35:15.04Z</time></trkpt><trkpt lat="41.3846058" lon="1.5939981"><ele>324.0</ele><time>2026-04-19T10:35:16.041Z</time></trkpt><trkpt lat="41.3847756" lon="1.5941191"><ele>321.6666666666667</ele><time>2026-04-19T10:35:17.04Z</time></trkpt><trkpt lat="41.384951" lon="1.5942445"><ele>319.33333333333337</ele><time>2026-04-19T10:35:18.041Z</time></trkpt><trkpt lat="41.3851387" lon="1.5943742"><ele>317.0</ele><time>2026-04-19T10:35:19.041Z</time></trkpt><trkpt lat="41.3853356" lon="1.5945103"><ele>314.5</ele><time>2026-04-19T10:35:20.041Z</time></trkpt><trkpt lat="41.3855343" lon="1.5946593"><ele>312.0</ele><time>2026-04-19T10:35:21.041Z</time></trkpt><trkpt lat="41.38574" lon="1.5948139"><ele>312.0</ele><time>2026-04-19T10:35:22.04Z</time></trkpt><trkpt lat="41.3859499" lon="1.5949726"><ele>312.0</ele><time>2026-04-19T10:35:23.041Z</time></trkpt><trkpt lat="41.3861594" lon="1.5951378"><ele>311.5</ele><time>2026-04-19T10:35:24.04Z</time></trkpt><trkpt lat="41.3863594" lon="1.5953096"><ele>311.0</ele><time>2026-04-19T10:35:25.041Z</time></trkpt><trkpt lat="41.3865505" lon="1.59547"><ele>310.6666666666667</ele><time>2026-04-19T10:35:26.041Z</time></trkpt><trkpt lat="41.3867319" lon="1.5956162"><ele>310.3333333333333</ele><time>2026-04-19T10:35:27.041Z</time></trkpt><trkpt lat="41.3869128" lon="1.5957529"><ele>310.0</ele><time>2026-04-19T10:35:28.041Z</time></trkpt><trkpt lat="41.387082" lon="1.59588"><ele>311.0</ele><time>2026-04-19T10:35:29.04Z</time></trkpt><trkpt lat="41.3872471" lon="1.5959981"><ele>312.0</ele><time>2026-04-19T10:35:30.04Z</time></trkpt><trkpt lat="41.3874013" lon="1.5961144"><ele>313.0</ele><time>2026-04-19T10:35:31.041Z</time></trkpt><trkpt lat="41.3875509" lon="1.5962294"><ele>313.66666666666663</ele><time>2026-04-19T10:35:32.041Z</time></trkpt><trkpt lat="41.3877022" lon="1.5963405"><ele>314.3333333333333</ele><time>2026-04-19T10:35:33.04Z</time></trkpt><trkpt lat="41.3878476" lon="1.5964517"><ele>315.0</ele><time>2026-04-19T10:35:34.041Z</time></trkpt><trkpt lat="41.3879866" lon="1.5965597"><ele>315.6666666666667</ele><time>2026-04-19T10:35:35.041Z</time></trkpt><trkpt lat="41.3881225" lon="1.596662"><ele>316.33333333333337</ele><time>2026-04-19T10:35:36.041Z</time></trkpt><trkpt lat="41.3882517" lon="1.5967648"><ele>317.0</ele><time>2026-04-19T10:35:37.04Z</time></trkpt><trkpt lat="41.388381" lon="1.5968627"><ele>317.0</ele><time>2026-04-19T10:35:38.04Z</time></trkpt><trkpt lat="41.3885112" lon="1.596958"><ele>317.0</ele><time>2026-04-19T10:35:39.04Z</time></trkpt><trkpt lat="41.3886366" lon="1.5970539"><ele>317.0</ele><time>2026-04-19T10:35:40.04Z</time></trkpt><trkpt lat="41.3887602" lon="1.5971492"><ele>317.0</ele><time>2026-04-19T10:35:41.04Z</time></trkpt><trkpt lat="41.3888824" lon="1.5972407"><ele>317.0</ele><time>2026-04-19T10:35:42.041Z</time></trkpt><trkpt lat="41.3890068" lon="1.597331"><ele>317.0</ele><time>2026-04-19T10:35:43.041Z</time></trkpt><trkpt lat="41.389132" lon="1.5974227"><ele>317.0</ele><time>2026-04-19T10:35:44.04Z</time></trkpt><trkpt lat="41.3892551" lon="1.5975153"><ele>317.0</ele><time>2026-04-19T10:35:45.041Z</time></trkpt><trkpt lat="41.3893708" lon="1.5976071"><ele>317.0</ele><time>2026-04-19T10:35:46.041Z</time></trkpt><trkpt lat="41.3894791" lon="1.5977086"><ele>317.0</ele><time>2026-04-19T10:35:47.041Z</time></trkpt><trkpt lat="41.3895711" lon="1.5978323"><ele>317.0</ele><time>2026-04-19T10:35:48.04Z</time></trkpt><trkpt lat="41.3896411" lon="1.597961"><ele>317.0</ele><time>2026-04-19T10:35:49.04Z</time></trkpt><trkpt lat="41.3896893" lon="1.5980979"><ele>316.4</ele><time>2026-04-19T10:35:50.041Z</time></trkpt><trkpt lat="41.3897173" lon="1.59824"><ele>315.79999999999995</ele><time>2026-04-19T10:35:51.041Z</time></trkpt><trkpt lat="41.389733" lon="1.5983825"><ele>315.2</ele><time>2026-04-19T10:35:52.041Z</time></trkpt><trkpt lat="41.3897462" lon="1.5985264"><ele>314.59999999999997</ele><time>2026-04-19T10:35:53.04Z</time></trkpt><trkpt lat="41.38976" lon="1.5986631"><ele>314.0</ele><time>2026-04-19T10:35:54.041Z</time></trkpt><trkpt lat="41.3897749" lon="1.5987959"><ele>314.0</ele><time>2026-04-19T10:35:55.041Z</time></trkpt><trkpt lat="41.389788" lon="1.5989346"><ele>314.0</ele><time>2026-04-19T10:35:56.041Z</time></trkpt><trkpt lat="41.3898037" lon="1.59907"><ele>314.0</ele><time>2026-04-19T10:35:57.041Z</time></trkpt><trkpt lat="41.3898118" lon="1.5992051"><ele>314.0</ele><time>2026-04-19T10:35:58.04Z</time></trkpt><trkpt lat="41.3898139" lon="1.5993456"><ele>314.0</ele><time>2026-04-19T10:35:59.041Z</time></trkpt><trkpt lat="41.3897983" lon="1.599501"><ele>314.0</ele><time>2026-04-19T10:36:00.041Z</time></trkpt><trkpt lat="41.3897628" lon="1.5996581"><ele>314.0</ele><time>2026-04-19T10:36:01.04Z</time></trkpt><trkpt lat="41.3897203" lon="1.5998205"><ele>314.0</ele><time>2026-04-19T10:36:02.04Z</time></trkpt><trkpt lat="41.3896693" lon="1.5999969"><ele>314.0</ele><time>2026-04-19T10:36:03.041Z</time></trkpt><trkpt lat="41.3896133" lon="1.6001825"><ele>312.6666666666667</ele><time>2026-04-19T10:36:04.041Z</time></trkpt><trkpt lat="41.3895593" lon="1.6003728"><ele>311.3333333333333</ele><time>2026-04-19T10:36:05.041Z</time></trkpt><trkpt lat="41.3895008" lon="1.6005589"><ele>310.0</ele><time>2026-04-19T10:36:06.04Z</time></trkpt><trkpt lat="41.3894443" lon="1.6007413"><ele>310.0</ele><time>2026-04-19T10:36:07.041Z</time></trkpt><trkpt lat="41.3893892" lon="1.6009219"><ele>310.0</ele><time>2026-04-19T10:36:08.041Z</time></trkpt><trkpt lat="41.3893313" lon="1.6011078"><ele>310.0</ele><time>2026-04-19T10:36:09.041Z</time></trkpt><trkpt lat="41.3892745" lon="1.6012904"><ele>310.0</ele><time>2026-04-19T10:36:10.04Z</time></trkpt><trkpt lat="41.3892193" lon="1.6014793"><ele>309.66666666666663</ele><time>2026-04-19T10:36:11.04Z</time></trkpt><trkpt lat="41.3891617" lon="1.6016649"><ele>309.3333333333333</ele><time>2026-04-19T10:36:12.041Z</time></trkpt><trkpt lat="41.3891059" lon="1.6018517"><ele>309.0</ele><time>2026-04-19T10:36:13.041Z</time></trkpt><trkpt lat="41.3890492" lon="1.6020436"><ele>308.6666666666667</ele><time>2026-04-19T10:36:14.041Z</time></trkpt><trkpt lat="41.3889918" lon="1.6022397"><ele>308.33333333333337</ele><time>2026-04-19T10:36:15.04Z</time></trkpt><trkpt lat="41.3889322" lon="1.6024364"><ele>308.0</ele><time>2026-04-19T10:36:16.041Z</time></trkpt><trkpt lat="41.3888702" lon="1.6026309"><ele>307.0</ele><time>2026-04-19T10:36:17.041Z</time></trkpt><trkpt lat="41.3888081" lon="1.602832"><ele>306.0</ele><time>2026-04-19T10:36:18.041Z</time></trkpt><trkpt lat="41.3887458" lon="1.6030314"><ele>305.0</ele><time>2026-04-19T10:36:19.041Z</time></trkpt><trkpt lat="41.388685" lon="1.6032356"><ele>305.0</ele><time>2026-04-19T10:36:20.041Z</time></trkpt><trkpt lat="41.3886236" lon="1.6034323"><ele>305.0</ele><time>2026-04-19T10:36:21.041Z</time></trkpt><trkpt lat="41.3885641" lon="1.6036269"><ele>305.0</ele><time>2026-04-19T10:36:22.041Z</time></trkpt><trkpt lat="41.3885062" lon="1.6038212"><ele>304.33333333333337</ele><time>2026-04-19T10:36:23.04Z</time></trkpt><trkpt lat="41.3884489" lon="1.6040106"><ele>303.6666666666667</ele><time>2026-04-19T10:36:24.04Z</time></trkpt><trkpt lat="41.3883956" lon="1.6041994"><ele>303.0</ele><time>2026-04-19T10:36:25.041Z</time></trkpt><trkpt lat="41.3883384" lon="1.6043862"><ele>302.75</ele><time>2026-04-19T10:36:26.041Z</time></trkpt><trkpt lat="41.3882808" lon="1.6045737"><ele>302.5</ele><time>2026-04-19T10:36:27.041Z</time></trkpt><trkpt lat="41.3882256" lon="1.6047604"><ele>302.25</ele><time>2026-04-19T10:36:28.041Z</time></trkpt><trkpt lat="41.3881751" lon="1.6049324"><ele>302.0</ele><time>2026-04-19T10:36:29.041Z</time></trkpt><trkpt lat="41.3881252" lon="1.6051019"><ele>302.0</ele><time>2026-04-19T10:36:30.041Z</time></trkpt><trkpt lat="41.3880778" lon="1.6052572"><ele>302.0</ele><time>2026-04-19T10:36:31.041Z</time></trkpt><trkpt lat="41.3880351" lon="1.6054011"><ele>302.0</ele><time>2026-04-19T10:36:32.041Z</time></trkpt><trkpt lat="41.3879912" lon="1.6055409"><ele>302.0</ele><time>2026-04-19T10:36:33.04Z</time></trkpt><trkpt lat="41.3879471" lon="1.6056843"><ele>301.75</ele><time>2026-04-19T10:36:34.04Z</time></trkpt><trkpt lat="41.3879068" lon="1.6058314"><ele>301.5</ele><time>2026-04-19T10:36:35.041Z</time></trkpt><trkpt lat="41.3878628" lon="1.6059817"><ele>301.25</ele><time>2026-04-19T10:36:36.041Z</time></trkpt><trkpt lat="41.3878169" lon="1.6061366"><ele>301.0</ele><time>2026-04-19T10:36:37.041Z</time></trkpt><trkpt lat="41.3877728" lon="1.6062914"><ele>301.0</ele><time>2026-04-19T10:36:38.041Z</time></trkpt><trkpt lat="41.3877292" lon="1.6064392"><ele>301.0</ele><time>2026-04-19T10:36:39.04Z</time></trkpt><trkpt lat="41.3876878" lon="1.6065719"><ele>301.0</ele><time>2026-04-19T10:36:40.04Z</time></trkpt><trkpt lat="41.3876509" lon="1.6067055"><ele>301.0</ele><time>2026-04-19T10:36:41.04Z</time></trkpt><trkpt lat="41.3876119" lon="1.6068387"><ele>301.0</ele><time>2026-04-19T10:36:42.041Z</time></trkpt><trkpt lat="41.387576" lon="1.6069611"><ele>300.8333333333333</ele><time>2026-04-19T10:36:43.041Z</time></trkpt><trkpt lat="41.3875438" lon="1.6070751"><ele>300.66666666666663</ele><time>2026-04-19T10:36:44.041Z</time></trkpt><trkpt lat="41.3875082" lon="1.6071776"><ele>300.5</ele><time>2026-04-19T10:36:45.041Z</time></trkpt><trkpt lat="41.3874612" lon="1.6072551"><ele>300.3333333333333</ele><time>2026-04-19T10:36:46.04Z</time></trkpt><trkpt lat="41.3874015" lon="1.6073101"><ele>300.1666666666667</ele><time>2026-04-19T10:36:47.04Z</time></trkpt><trkpt lat="41.3873396" lon="1.6073585"><ele>300.0</ele><time>2026-04-19T10:36:48.041Z</time></trkpt><trkpt lat="41.3872995" lon="1.6074341"><ele>300.0</ele><time>2026-04-19T10:36:49.041Z</time></trkpt><trkpt lat="41.3872853" lon="1.6075167"><ele>300.0</ele><time>2026-04-19T10:36:50.04Z</time></trkpt><trkpt lat="41.387301" lon="1.6076065"><ele>300.0</ele><time>2026-04-19T10:36:51.041Z</time></trkpt><trkpt lat="41.387315" lon="1.6077017"><ele>300.0</ele><time>2026-04-19T10:36:52.041Z</time></trkpt><trkpt lat="41.3873046" lon="1.6078046"><ele>300.0</ele><time>2026-04-19T10:36:53.041Z</time></trkpt><trkpt lat="41.3872777" lon="1.6079089"><ele>300.0</ele><time>2026-04-19T10:36:54.04Z</time></trkpt><trkpt lat="41.3872433" lon="1.6080148"><ele>300.0</ele><time>2026-04-19T10:36:55.041Z</time></trkpt><trkpt lat="41.3872109" lon="1.6081249"><ele>300.0</ele><time>2026-04-19T10:36:56.04Z</time></trkpt><trkpt lat="41.3871827" lon="1.6082362"><ele>300.0</ele><time>2026-04-19T10:36:57.041Z</time></trkpt><trkpt lat="41.38715" lon="1.6083449"><ele>300.0</ele><time>2026-04-19T10:36:58.04Z</time></trkpt><trkpt lat="41.387119" lon="1.6084548"><ele>300.0</ele><time>2026-04-19T10:36:59.04Z</time></trkpt><trkpt lat="41.3870868" lon="1.6085627"><ele>300.0</ele><time>2026-04-19T10:37:00.041Z</time></trkpt><trkpt lat="41.3870563" lon="1.6086731"><ele>300.0</ele><time>2026-04-19T10:37:01.04Z</time></trkpt><trkpt lat="41.3870211" lon="1.6087841"><ele>300.0</ele><time>2026-04-19T10:37:02.041Z</time></trkpt><trkpt lat="41.3869902" lon="1.6088983"><ele>300.0</ele><time>2026-04-19T10:37:03.04Z</time></trkpt><trkpt lat="41.3869569" lon="1.6090132"><ele>300.0</ele><time>2026-04-19T10:37:04.041Z</time></trkpt><trkpt lat="41.3869221" lon="1.609127"><ele>300.0</ele><time>2026-04-19T10:37:05.041Z</time></trkpt><trkpt lat="41.3868894" lon="1.6092396"><ele>300.0</ele><time>2026-04-19T10:37:06.041Z</time></trkpt><trkpt lat="41.3868595" lon="1.6093458"><ele>300.0</ele><time>2026-04-19T10:37:07.04Z</time></trkpt><trkpt lat="41.3868302" lon="1.6094459"><ele>300.0</ele><time>2026-04-19T10:37:08.04Z</time></trkpt><trkpt lat="41.3867913" lon="1.6095744"><ele>300.0</ele><time>2026-04-19T10:37:10.041Z</time></trkpt><trkpt lat="41.3867758" lon="1.6096714"><ele>300.0</ele><time>2026-04-19T10:37:13.041Z</time></trkpt><trkpt lat="41.3867472" lon="1.6097619"><ele>300.0</ele><time>2026-04-19T10:37:16.04Z</time></trkpt><trkpt lat="41.3867122" lon="1.6098363"><ele>300.0</ele><time>2026-04-19T10:37:40.041Z</time></trkpt><trkpt lat="41.3866605" lon="1.6099046"><ele>300.0</ele><time>2026-04-19T10:37:42.041Z</time></trkpt><trkpt lat="41.3865592" lon="1.6098843"><ele>300.0</ele><time>2026-04-19T10:37:44.04Z</time></trkpt><trkpt lat="41.3864944" lon="1.6098502"><ele>300.0</ele><time>2026-04-19T10:37:45.041Z</time></trkpt><trkpt lat="41.386419" lon="1.6098078"><ele>300.0</ele><time>2026-04-19T10:37:46.041Z</time></trkpt><trkpt lat="41.3863415" lon="1.6097621"><ele>300.0</ele><time>2026-04-19T10:37:47.041Z</time></trkpt><trkpt lat="41.3862626" lon="1.6097105"><ele>299.4</ele><time>2026-04-19T10:37:48.041Z</time></trkpt><trkpt lat="41.386186" lon="1.6096423"><ele>298.8</ele><time>2026-04-19T10:37:49.041Z</time></trkpt><trkpt lat="41.3861112" lon="1.6095648"><ele>298.2</ele><time>2026-04-19T10:37:50.041Z</time></trkpt><trkpt lat="41.3860431" lon="1.6094881"><ele>297.6</ele><time>2026-04-19T10:37:51.041Z</time></trkpt><trkpt lat="41.3859732" lon="1.6094109"><ele>297.0</ele><time>2026-04-19T10:37:52.04Z</time></trkpt><trkpt lat="41.3859076" lon="1.6093318"><ele>297.0</ele><time>2026-04-19T10:37:53.041Z</time></trkpt><trkpt lat="41.3858289" lon="1.6092491"><ele>297.0</ele><time>2026-04-19T10:37:54.041Z</time></trkpt><trkpt lat="41.3857493" lon="1.6091706"><ele>297.0</ele><time>2026-04-19T10:37:55.041Z</time></trkpt><trkpt lat="41.3856766" lon="1.6090984"><ele>297.0</ele><time>2026-04-19T10:37:56.04Z</time></trkpt><trkpt lat="41.3856129" lon="1.6090305"><ele>297.0</ele><time>2026-04-19T10:37:57.041Z</time></trkpt><trkpt lat="41.3855446" lon="1.6089676"><ele>297.0</ele><time>2026-04-19T10:37:58.041Z</time></trkpt><trkpt lat="41.3854831" lon="1.6089033"><ele>297.0</ele><time>2026-04-19T10:37:59.04Z</time></trkpt><trkpt lat="41.3854245" lon="1.6088389"><ele>297.0</ele><time>2026-04-19T10:38:00.041Z</time></trkpt><trkpt lat="41.3853669" lon="1.608781"><ele>297.0</ele><time>2026-04-19T10:38:01.041Z</time></trkpt><trkpt lat="41.3853094" lon="1.6087205"><ele>297.0</ele><time>2026-04-19T10:38:02.041Z</time></trkpt><trkpt lat="41.3852501" lon="1.6086626"><ele>297.0</ele><time>2026-04-19T10:38:03.041Z</time></trkpt><trkpt lat="41.3851893" lon="1.6086073"><ele>297.0</ele><time>2026-04-19T10:38:04.041Z</time></trkpt><trkpt lat="41.3851368" lon="1.6085555"><ele>297.0</ele><time>2026-04-19T10:38:05.041Z</time></trkpt><trkpt lat="41.3850659" lon="1.6084549"><ele>297.0</ele><time>2026-04-19T10:38:07.04Z</time></trkpt><trkpt lat="41.3850145" lon="1.608396"><ele>297.0</ele><time>2026-04-19T10:38:10.041Z</time></trkpt><trkpt lat="41.3851147" lon="1.6085669"><ele>297.0</ele><time>2026-04-19T10:38:36.04Z</time></trkpt><trkpt lat="41.3851743" lon="1.6086311"><ele>297.0</ele><time>2026-04-19T10:38:37.04Z</time></trkpt><trkpt lat="41.3852415" lon="1.6086995"><ele>297.0</ele><time>2026-04-19T10:38:38.041Z</time></trkpt><trkpt lat="41.3853109" lon="1.6087746"><ele>297.0</ele><time>2026-04-19T10:38:39.041Z</time></trkpt><trkpt lat="41.385385" lon="1.6088508"><ele>297.0</ele><time>2026-04-19T10:38:40.041Z</time></trkpt><trkpt lat="41.3854665" lon="1.6089345"><ele>297.0</ele><time>2026-04-19T10:38:41.041Z</time></trkpt><trkpt lat="41.385551" lon="1.6090243"><ele>297.0</ele><time>2026-04-19T10:38:42.041Z</time></trkpt><trkpt lat="41.3856374" lon="1.6091126"><ele>297.0</ele><time>2026-04-19T10:38:43.041Z</time></trkpt><trkpt lat="41.3857217" lon="1.6092041"><ele>297.0</ele><time>2026-04-19T10:38:44.041Z</time></trkpt><trkpt lat="41.3858056" lon="1.6092954"><ele>297.0</ele><time>2026-04-19T10:38:45.041Z</time></trkpt><trkpt lat="41.3858843" lon="1.6093863"><ele>297.0</ele><time>2026-04-19T10:38:46.041Z</time></trkpt><trkpt lat="41.3859633" lon="1.6094776"><ele>297.0</ele><time>2026-04-19T10:38:47.041Z</time></trkpt><trkpt lat="41.3860438" lon="1.6095651"><ele>296.6666666666667</ele><time>2026-04-19T10:38:48.041Z</time></trkpt><trkpt lat="41.3861189" lon="1.6096476"><ele>296.3333333333333</ele><time>2026-04-19T10:38:49.041Z</time></trkpt><trkpt lat="41.3861969" lon="1.6097196"><ele>296.0</ele><time>2026-04-19T10:38:50.041Z</time></trkpt><trkpt lat="41.3862733" lon="1.6097767"><ele>295.66666666666663</ele><time>2026-04-19T10:38:51.041Z</time></trkpt><trkpt lat="41.3863421" lon="1.6098288"><ele>295.3333333333333</ele><time>2026-04-19T10:38:52.041Z</time></trkpt><trkpt lat="41.386404" lon="1.6098606"><ele>295.0</ele><time>2026-04-19T10:38:53.041Z</time></trkpt><trkpt lat="41.3865019" lon="1.6099113"><ele>295.8333333333333</ele><time>2026-04-19T10:38:55.041Z</time></trkpt><trkpt lat="41.3865666" lon="1.6099473"><ele>296.66666666666663</ele><time>2026-04-19T10:38:58.04Z</time></trkpt><trkpt lat="41.3866165" lon="1.6100311"><ele>297.5</ele><time>2026-04-19T10:39:48.04Z</time></trkpt><trkpt lat="41.3865825" lon="1.6101888"><ele>298.3333333333333</ele><time>2026-04-19T10:39:50.041Z</time></trkpt><trkpt lat="41.3865516" lon="1.6102832"><ele>299.1666666666667</ele><time>2026-04-19T10:39:51.04Z</time></trkpt><trkpt lat="41.3865235" lon="1.6103806"><ele>300.0</ele><time>2026-04-19T10:39:52.041Z</time></trkpt><trkpt lat="41.386492" lon="1.6104944"><ele>300.0</ele><time>2026-04-19T10:39:53.041Z</time></trkpt><trkpt lat="41.3864557" lon="1.6106164"><ele>300.0</ele><time>2026-04-19T10:39:54.041Z</time></trkpt><trkpt lat="41.386422" lon="1.610744"><ele>300.0</ele><time>2026-04-19T10:39:55.041Z</time></trkpt><trkpt lat="41.3863828" lon="1.6108799"><ele>300.0</ele><time>2026-04-19T10:39:56.041Z</time></trkpt><trkpt lat="41.3863503" lon="1.6110085"><ele>300.0</ele><time>2026-04-19T10:39:57.041Z</time></trkpt><trkpt lat="41.3863151" lon="1.6111411"><ele>299.4</ele><time>2026-04-19T10:39:58.041Z</time></trkpt><trkpt lat="41.3862768" lon="1.6112743"><ele>298.8</ele><time>2026-04-19T10:39:59.04Z</time></trkpt><trkpt lat="41.3862393" lon="1.6114064"><ele>298.2</ele><time>2026-04-19T10:40:00.041Z</time></trkpt><trkpt lat="41.3862019" lon="1.6115334"><ele>297.6</ele><time>2026-04-19T10:40:01.041Z</time></trkpt><trkpt lat="41.3861742" lon="1.6116228"><ele>297.0</ele><time>2026-04-19T10:40:02.041Z</time></trkpt><trkpt lat="41.3861202" lon="1.6117603"><ele>297.0</ele><time>2026-04-19T10:40:37.041Z</time></trkpt><trkpt lat="41.3859504" lon="1.6116476"><ele>297.0</ele><time>2026-04-19T10:40:41.04Z</time></trkpt><trkpt lat="41.3857825" lon="1.6114361"><ele>297.0</ele><time>2026-04-19T10:40:45.041Z</time></trkpt><trkpt lat="41.3857144" lon="1.6113424"><ele>297.0</ele><time>2026-04-19T10:40:47.041Z</time></trkpt><trkpt lat="41.3856322" lon="1.6112267"><ele>297.0</ele><time>2026-04-19T10:40:49.041Z</time></trkpt><trkpt lat="41.3855472" lon="1.6111079"><ele>297.0</ele><time>2026-04-19T10:40:51.04Z</time></trkpt><trkpt lat="41.3855022" lon="1.6110476"><ele>297.0</ele><time>2026-04-19T10:40:52.041Z</time></trkpt><trkpt lat="41.3854561" lon="1.6109833"><ele>297.0</ele><time>2026-04-19T10:40:53.04Z</time></trkpt><trkpt lat="41.3853808" lon="1.6108786"><ele>296.4</ele><time>2026-04-19T10:40:55.041Z</time></trkpt><trkpt lat="41.3852986" lon="1.6108094"><ele>295.79999999999995</ele><time>2026-04-19T10:40:57.041Z</time></trkpt><trkpt lat="41.3852033" lon="1.6107925"><ele>295.2</ele><time>2026-04-19T10:40:59.041Z</time></trkpt><trkpt lat="41.3851042" lon="1.6108253"><ele>294.59999999999997</ele><time>2026-04-19T10:41:01.041Z</time></trkpt><trkpt lat="41.3850055" lon="1.6109258"><ele>294.0</ele><time>2026-04-19T10:41:03.041Z</time></trkpt><trkpt lat="41.3849504" lon="1.6109811"><ele>294.0</ele><time>2026-04-19T10:41:04.04Z</time></trkpt><trkpt lat="41.3848879" lon="1.6110426"><ele>294.0</ele><time>2026-04-19T10:41:05.041Z</time></trkpt><trkpt lat="41.3848223" lon="1.6111047"><ele>294.0</ele><time>2026-04-19T10:41:06.04Z</time></trkpt><trkpt lat="41.3847589" lon="1.6111674"><ele>294.0</ele><time>2026-04-19T10:41:07.041Z</time></trkpt><trkpt lat="41.384694" lon="1.6112322"><ele>294.0</ele><time>2026-04-19T10:41:08.041Z</time></trkpt><trkpt lat="41.3846337" lon="1.6112866"><ele>294.0</ele><time>2026-04-19T10:41:09.041Z</time></trkpt><trkpt lat="41.3845709" lon="1.6113481"><ele>293.3333333333333</ele><time>2026-04-19T10:41:10.04Z</time></trkpt><trkpt lat="41.3845076" lon="1.6114121"><ele>292.6666666666667</ele><time>2026-04-19T10:41:11.04Z</time></trkpt><trkpt lat="41.3844418" lon="1.61148"><ele>292.0</ele><time>2026-04-19T10:41:12.041Z</time></trkpt><trkpt lat="41.3843749" lon="1.6115459"><ele>291.33333333333337</ele><time>2026-04-19T10:41:13.041Z</time></trkpt><trkpt lat="41.3843106" lon="1.6116135"><ele>290.6666666666667</ele><time>2026-04-19T10:41:14.041Z</time></trkpt><trkpt lat="41.3842463" lon="1.6116791"><ele>290.0</ele><time>2026-04-19T10:41:15.041Z</time></trkpt><trkpt lat="41.3841772" lon="1.6117465"><ele>290.0</ele><time>2026-04-19T10:41:16.041Z</time></trkpt><trkpt lat="41.3840985" lon="1.611825"><ele>290.0</ele><time>2026-04-19T10:41:17.041Z</time></trkpt><trkpt lat="41.3840161" lon="1.6119022"><ele>290.0</ele><time>2026-04-19T10:41:18.041Z</time></trkpt><trkpt lat="41.3839342" lon="1.6119818"><ele>290.0</ele><time>2026-04-19T10:41:19.041Z</time></trkpt><trkpt lat="41.3838607" lon="1.6120642"><ele>290.0</ele><time>2026-04-19T10:41:20.04Z</time></trkpt><trkpt lat="41.3837954" lon="1.6121654"><ele>289.6</ele><time>2026-04-19T10:41:21.04Z</time></trkpt><trkpt lat="41.3837351" lon="1.6122721"><ele>289.2</ele><time>2026-04-19T10:41:22.04Z</time></trkpt><trkpt lat="41.3836798" lon="1.6123923"><ele>288.8</ele><time>2026-04-19T10:41:23.04Z</time></trkpt><trkpt lat="41.3836314" lon="1.6125179"><ele>288.4</ele><time>2026-04-19T10:41:24.041Z</time></trkpt><trkpt lat="41.3835792" lon="1.6126375"><ele>288.0</ele><time>2026-04-19T10:41:25.041Z</time></trkpt><trkpt lat="41.3835263" lon="1.6127376"><ele>288.4</ele><time>2026-04-19T10:41:26.041Z</time></trkpt><trkpt lat="41.3834761" lon="1.6128358"><ele>288.8</ele><time>2026-04-19T10:41:27.04Z</time></trkpt><trkpt lat="41.3834274" lon="1.6129421"><ele>289.2</ele><time>2026-04-19T10:41:28.041Z</time></trkpt><trkpt lat="41.3833787" lon="1.6130519"><ele>289.6</ele><time>2026-04-19T10:41:29.041Z</time></trkpt><trkpt lat="41.3833302" lon="1.6131668"><ele>290.0</ele><time>2026-04-19T10:41:30.04Z</time></trkpt><trkpt lat="41.3832827" lon="1.6132672"><ele>290.0</ele><time>2026-04-19T10:41:31.04Z</time></trkpt><trkpt lat="41.3832268" lon="1.6133515"><ele>290.0</ele><time>2026-04-19T10:41:32.041Z</time></trkpt><trkpt lat="41.3831614" lon="1.6134379"><ele>290.0</ele><time>2026-04-19T10:41:33.041Z</time></trkpt><trkpt lat="41.3830866" lon="1.6135325"><ele>290.0</ele><time>2026-04-19T10:41:34.04Z</time></trkpt><trkpt lat="41.3830096" lon="1.6136243"><ele>290.0</ele><time>2026-04-19T10:41:35.04Z</time></trkpt><trkpt lat="41.3829395" lon="1.6137227"><ele>289.0</ele><time>2026-04-19T10:41:36.041Z</time></trkpt><trkpt lat="41.3828816" lon="1.6138102"><ele>288.0</ele><time>2026-04-19T10:41:37.041Z</time></trkpt><trkpt lat="41.3828296" lon="1.6138947"><ele>287.0</ele><time>2026-04-19T10:41:38.041Z</time></trkpt><trkpt lat="41.3827727" lon="1.6139793"><ele>286.0</ele><time>2026-04-19T10:41:39.041Z</time></trkpt><trkpt lat="41.3827017" lon="1.6140698"><ele>285.0</ele><time>2026-04-19T10:41:40.041Z</time></trkpt><trkpt lat="41.3826166" lon="1.6141499"><ele>285.0</ele><time>2026-04-19T10:41:41.04Z</time></trkpt><trkpt lat="41.3825204" lon="1.6142123"><ele>285.0</ele><time>2026-04-19T10:41:42.04Z</time></trkpt><trkpt lat="41.3824264" lon="1.6142907"><ele>285.0</ele><time>2026-04-19T10:41:43.04Z</time></trkpt><trkpt lat="41.3823472" lon="1.6143961"><ele>285.0</ele><time>2026-04-19T10:41:44.041Z</time></trkpt><trkpt lat="41.3822851" lon="1.6145215"><ele>285.0</ele><time>2026-04-19T10:41:45.041Z</time></trkpt><trkpt lat="41.3822375" lon="1.6146621"><ele>285.2</ele><time>2026-04-19T10:41:46.04Z</time></trkpt><trkpt lat="41.3822077" lon="1.6148118"><ele>285.4</ele><time>2026-04-19T10:41:47.041Z</time></trkpt><trkpt lat="41.3821984" lon="1.6149622"><ele>285.6</ele><time>2026-04-19T10:41:48.04Z</time></trkpt><trkpt lat="41.3821805" lon="1.6151026"><ele>285.8</ele><time>2026-04-19T10:41:49.04Z</time></trkpt><trkpt lat="41.3821278" lon="1.6152322"><ele>286.0</ele><time>2026-04-19T10:41:50.041Z</time></trkpt><trkpt lat="41.3820463" lon="1.6153536"><ele>285.25</ele><time>2026-04-19T10:41:51.04Z</time></trkpt><trkpt lat="41.3819546" lon="1.6154651"><ele>284.5</ele><time>2026-04-19T10:41:52.04Z</time></trkpt><trkpt lat="41.3818595" lon="1.6155667"><ele>283.75</ele><time>2026-04-19T10:41:53.04Z</time></trkpt><trkpt lat="41.381773" lon="1.615667"><ele>283.0</ele><time>2026-04-19T10:41:54.041Z</time></trkpt><trkpt lat="41.3817029" lon="1.6157642"><ele>283.0</ele><time>2026-04-19T10:41:55.04Z</time></trkpt><trkpt lat="41.3816528" lon="1.6158591"><ele>283.0</ele><time>2026-04-19T10:41:56.04Z</time></trkpt><trkpt lat="41.3816246" lon="1.6159411"><ele>283.0</ele><time>2026-04-19T10:41:57.041Z</time></trkpt><trkpt lat="41.3816141" lon="1.6160305"><ele>283.0</ele><time>2026-04-19T10:41:58.04Z</time></trkpt><trkpt lat="41.3816113" lon="1.6161305"><ele>283.0</ele><time>2026-04-19T10:41:59.041Z</time></trkpt><trkpt lat="41.3816089" lon="1.6162377"><ele>283.0</ele><time>2026-04-19T10:42:00.041Z</time></trkpt><trkpt lat="41.3816058" lon="1.6163516"><ele>282.4</ele><time>2026-04-19T10:42:01.04Z</time></trkpt><trkpt lat="41.3816045" lon="1.6164709"><ele>281.8</ele><time>2026-04-19T10:42:02.04Z</time></trkpt><trkpt lat="41.3816058" lon="1.6165911"><ele>281.2</ele><time>2026-04-19T10:42:03.041Z</time></trkpt><trkpt lat="41.3815994" lon="1.6167141"><ele>280.6</ele><time>2026-04-19T10:42:04.04Z</time></trkpt><trkpt lat="41.3815835" lon="1.6168391"><ele>280.0</ele><time>2026-04-19T10:42:05.041Z</time></trkpt><trkpt lat="41.3815551" lon="1.6169709"><ele>279.8</ele><time>2026-04-19T10:42:06.04Z</time></trkpt><trkpt lat="41.3815143" lon="1.6171013"><ele>279.6</ele><time>2026-04-19T10:42:07.04Z</time></trkpt><trkpt lat="41.3814687" lon="1.6172358"><ele>279.4</ele><time>2026-04-19T10:42:08.04Z</time></trkpt><trkpt lat="41.3814213" lon="1.6173743"><ele>279.2</ele><time>2026-04-19T10:42:09.04Z</time></trkpt><trkpt lat="41.3813816" lon="1.6175156"><ele>279.0</ele><time>2026-04-19T10:42:10.041Z</time></trkpt><trkpt lat="41.3813484" lon="1.6176524"><ele>278.59999999999997</ele><time>2026-04-19T10:42:11.041Z</time></trkpt><trkpt lat="41.3813134" lon="1.6177918"><ele>278.2</ele><time>2026-04-19T10:42:12.041Z</time></trkpt><trkpt lat="41.381273" lon="1.6179309"><ele>277.79999999999995</ele><time>2026-04-19T10:42:13.041Z</time></trkpt><trkpt lat="41.3812239" lon="1.618063"><ele>277.4</ele><time>2026-04-19T10:42:14.04Z</time></trkpt><trkpt lat="41.381171" lon="1.6181912"><ele>277.0</ele><time>2026-04-19T10:42:15.041Z</time></trkpt><trkpt lat="41.381112" lon="1.6183008"><ele>277.0</ele><time>2026-04-19T10:42:16.041Z</time></trkpt><trkpt lat="41.3810519" lon="1.6183958"><ele>277.0</ele><time>2026-04-19T10:42:17.041Z</time></trkpt><trkpt lat="41.3809827" lon="1.6184733"><ele>277.0</ele><time>2026-04-19T10:42:18.041Z</time></trkpt><trkpt lat="41.3809189" lon="1.618545"><ele>277.0</ele><time>2026-04-19T10:42:19.04Z</time></trkpt><trkpt lat="41.3808756" lon="1.6186177"><ele>277.0</ele><time>2026-04-19T10:42:20.041Z</time></trkpt><trkpt lat="41.3808573" lon="1.6187002"><ele>277.0</ele><time>2026-04-19T10:42:21.04Z</time></trkpt><trkpt lat="41.38086" lon="1.6188088"><ele>276.6</ele><time>2026-04-19T10:42:22.041Z</time></trkpt><trkpt lat="41.3808589" lon="1.6189319"><ele>276.2</ele><time>2026-04-19T10:42:23.041Z</time></trkpt><trkpt lat="41.38086" lon="1.6190631"><ele>275.8</ele><time>2026-04-19T10:42:24.041Z</time></trkpt><trkpt lat="41.380865" lon="1.6192052"><ele>275.4</ele><time>2026-04-19T10:42:25.04Z</time></trkpt><trkpt lat="41.3808764" lon="1.619339"><ele>275.0</ele><time>2026-04-19T10:42:26.041Z</time></trkpt><trkpt lat="41.3808832" lon="1.619468"><ele>274.83333333333337</ele><time>2026-04-19T10:42:27.041Z</time></trkpt><trkpt lat="41.3808718" lon="1.6195855"><ele>274.6666666666667</ele><time>2026-04-19T10:42:28.041Z</time></trkpt><trkpt lat="41.3808364" lon="1.619692"><ele>274.5</ele><time>2026-04-19T10:42:29.041Z</time></trkpt><trkpt lat="41.3807849" lon="1.6197953"><ele>274.3333333333333</ele><time>2026-04-19T10:42:30.041Z</time></trkpt><trkpt lat="41.3807342" lon="1.6198968"><ele>274.16666666666663</ele><time>2026-04-19T10:42:31.041Z</time></trkpt><trkpt lat="41.3807043" lon="1.6199951"><ele>274.0</ele><time>2026-04-19T10:42:32.041Z</time></trkpt><trkpt lat="41.3806959" lon="1.6201086"><ele>274.0</ele><time>2026-04-19T10:42:33.04Z</time></trkpt><trkpt lat="41.3807018" lon="1.6202298"><ele>274.0</ele><time>2026-04-19T10:42:34.04Z</time></trkpt><trkpt lat="41.3807131" lon="1.6203127"><ele>274.0</ele><time>2026-04-19T10:42:35.04Z</time></trkpt><trkpt lat="41.3807369" lon="1.620417"><ele>274.0</ele><time>2026-04-19T10:42:37.041Z</time></trkpt><trkpt lat="41.3807805" lon="1.6205455"><ele>274.0</ele><time>2026-04-19T10:42:39.04Z</time></trkpt><trkpt lat="41.3808074" lon="1.6206376"><ele>274.0</ele><time>2026-04-19T10:42:40.041Z</time></trkpt><trkpt lat="41.3808411" lon="1.6207388"><ele>274.16666666666663</ele><time>2026-04-19T10:42:41.04Z</time></trkpt><trkpt lat="41.3808832" lon="1.6208372"><ele>274.3333333333333</ele><time>2026-04-19T10:42:42.041Z</time></trkpt><trkpt lat="41.3809272" lon="1.6209287"><ele>274.5</ele><time>2026-04-19T10:42:43.04Z</time></trkpt><trkpt lat="41.3809728" lon="1.6210132"><ele>274.6666666666667</ele><time>2026-04-19T10:42:44.041Z</time></trkpt><trkpt lat="41.3810122" lon="1.6211019"><ele>274.83333333333337</ele><time>2026-04-19T10:42:45.041Z</time></trkpt><trkpt lat="41.3810325" lon="1.6211984"><ele>275.0</ele><time>2026-04-19T10:42:46.04Z</time></trkpt><trkpt lat="41.3810395" lon="1.6212932"><ele>275.1666666666667</ele><time>2026-04-19T10:42:47.04Z</time></trkpt><trkpt lat="41.3810314" lon="1.6213777"><ele>275.33333333333337</ele><time>2026-04-19T10:42:48.041Z</time></trkpt><trkpt lat="41.3809825" lon="1.6215326"><ele>275.5</ele><time>2026-04-19T10:42:50.04Z</time></trkpt><trkpt lat="41.3809474" lon="1.6216207"><ele>275.6666666666667</ele><time>2026-04-19T10:42:51.04Z</time></trkpt><trkpt lat="41.3809055" lon="1.6217238"><ele>275.8333333333333</ele><time>2026-04-19T10:42:52.041Z</time></trkpt><trkpt lat="41.380869" lon="1.6218273"><ele>276.0</ele><time>2026-04-19T10:42:53.04Z</time></trkpt><trkpt lat="41.3808421" lon="1.6219477"><ele>275.75</ele><time>2026-04-19T10:42:54.041Z</time></trkpt><trkpt lat="41.380804" lon="1.6220764"><ele>275.5</ele><time>2026-04-19T10:42:55.04Z</time></trkpt><trkpt lat="41.38076" lon="1.6222081"><ele>275.25</ele><time>2026-04-19T10:42:56.04Z</time></trkpt><trkpt lat="41.3807041" lon="1.6223477"><ele>275.0</ele><time>2026-04-19T10:42:57.041Z</time></trkpt><trkpt lat="41.3806386" lon="1.6225111"><ele>275.0</ele><time>2026-04-19T10:42:58.041Z</time></trkpt><trkpt lat="41.3805671" lon="1.622685"><ele>275.0</ele><time>2026-04-19T10:42:59.04Z</time></trkpt><trkpt lat="41.3805002" lon="1.6228547"><ele>275.0</ele><time>2026-04-19T10:43:00.04Z</time></trkpt><trkpt lat="41.3804351" lon="1.6230325"><ele>275.0</ele><time>2026-04-19T10:43:01.04Z</time></trkpt><trkpt lat="41.3803727" lon="1.62321"><ele>274.0</ele><time>2026-04-19T10:43:02.041Z</time></trkpt><trkpt lat="41.3803151" lon="1.6233844"><ele>273.0</ele><time>2026-04-19T10:43:03.04Z</time></trkpt><trkpt lat="41.380262" lon="1.6235621"><ele>272.0</ele><time>2026-04-19T10:43:04.04Z</time></trkpt><trkpt lat="41.3802079" lon="1.6237363"><ele>271.0</ele><time>2026-04-19T10:43:05.041Z</time></trkpt><trkpt lat="41.3801494" lon="1.6239059"><ele>271.0</ele><time>2026-04-19T10:43:06.04Z</time></trkpt><trkpt lat="41.3800866" lon="1.6240657"><ele>271.0</ele><time>2026-04-19T10:43:07.041Z</time></trkpt><trkpt lat="41.3800211" lon="1.6242101"><ele>271.0</ele><time>2026-04-19T10:43:08.04Z</time></trkpt><trkpt lat="41.3799514" lon="1.6243319"><ele>271.0</ele><time>2026-04-19T10:43:09.04Z</time></trkpt><trkpt lat="41.3798872" lon="1.6244268"><ele>270.75</ele><time>2026-04-19T10:43:10.041Z</time></trkpt><trkpt lat="41.3798191" lon="1.6245121"><ele>270.5</ele><time>2026-04-19T10:43:11.041Z</time></trkpt><trkpt lat="41.3797294" lon="1.6246011"><ele>270.25</ele><time>2026-04-19T10:43:12.041Z</time></trkpt><trkpt lat="41.3796164" lon="1.6247083"><ele>270.0</ele><time>2026-04-19T10:43:13.04Z</time></trkpt><trkpt lat="41.3794973" lon="1.6248182"><ele>270.0</ele><time>2026-04-19T10:43:14.041Z</time></trkpt><trkpt lat="41.379381" lon="1.6249213"><ele>270.0</ele><time>2026-04-19T10:43:15.04Z</time></trkpt><trkpt lat="41.3792652" lon="1.6250213"><ele>270.0</ele><time>2026-04-19T10:43:16.041Z</time></trkpt><trkpt lat="41.3791518" lon="1.6251252"><ele>270.0</ele><time>2026-04-19T10:43:17.041Z</time></trkpt><trkpt lat="41.3790338" lon="1.6252255"><ele>270.0</ele><time>2026-04-19T10:43:18.041Z</time></trkpt><trkpt lat="41.3789084" lon="1.6253124"><ele>270.0</ele><time>2026-04-19T10:43:19.041Z</time></trkpt><trkpt lat="41.3787798" lon="1.625399"><ele>270.0</ele><time>2026-04-19T10:43:20.041Z</time></trkpt><trkpt lat="41.3786558" lon="1.6254991"><ele>270.0</ele><time>2026-04-19T10:43:21.04Z</time></trkpt><trkpt lat="41.3785384" lon="1.6256048"><ele>268.5</ele><time>2026-04-19T10:43:22.041Z</time></trkpt><trkpt lat="41.378422" lon="1.6257207"><ele>267.0</ele><time>2026-04-19T10:43:23.041Z</time></trkpt><trkpt lat="41.3783131" lon="1.6258342"><ele>265.5</ele><time>2026-04-19T10:43:24.041Z</time></trkpt><trkpt lat="41.3782099" lon="1.6259464"><ele>264.0</ele><time>2026-04-19T10:43:25.041Z</time></trkpt><trkpt lat="41.378113" lon="1.6260571"><ele>264.4</ele><time>2026-04-19T10:43:26.041Z</time></trkpt><trkpt lat="41.3780265" lon="1.6261594"><ele>264.79999999999995</ele><time>2026-04-19T10:43:27.041Z</time></trkpt><trkpt lat="41.3779539" lon="1.6262561"><ele>265.20000000000005</ele><time>2026-04-19T10:43:28.04Z</time></trkpt><trkpt lat="41.3779004" lon="1.6263382"><ele>265.6</ele><time>2026-04-19T10:43:29.041Z</time></trkpt><trkpt lat="41.3778574" lon="1.6264062"><ele>266.0</ele><time>2026-04-19T10:43:30.041Z</time></trkpt><trkpt lat="41.3777951" lon="1.6264909"><ele>266.0</ele><time>2026-04-19T10:43:32.041Z</time></trkpt><trkpt lat="41.3777052" lon="1.6264829"><ele>266.0</ele><time>2026-04-19T10:43:35.04Z</time></trkpt><trkpt lat="41.377618" lon="1.6263798"><ele>266.0</ele><time>2026-04-19T10:43:37.041Z</time></trkpt><trkpt lat="41.3775614" lon="1.6263294"><ele>266.0</ele><time>2026-04-19T10:43:38.04Z</time></trkpt><trkpt lat="41.3774395" lon="1.6263265"><ele>266.0</ele><time>2026-04-19T10:43:40.041Z</time></trkpt><trkpt lat="41.3773706" lon="1.6263807"><ele>266.0</ele><time>2026-04-19T10:43:41.04Z</time></trkpt><trkpt lat="41.3772991" lon="1.6264589"><ele>266.0</ele><time>2026-04-19T10:43:42.041Z</time></trkpt><trkpt lat="41.3772249" lon="1.6265384"><ele>266.0</ele><time>2026-04-19T10:43:43.041Z</time></trkpt><trkpt lat="41.3771447" lon="1.6266113"><ele>266.0</ele><time>2026-04-19T10:43:44.041Z</time></trkpt><trkpt lat="41.3770585" lon="1.6266753"><ele>266.0</ele><time>2026-04-19T10:43:45.041Z</time></trkpt><trkpt lat="41.3769599" lon="1.6267257"><ele>266.75</ele><time>2026-04-19T10:43:46.041Z</time></trkpt><trkpt lat="41.3768438" lon="1.6267552"><ele>267.5</ele><time>2026-04-19T10:43:47.04Z</time></trkpt><trkpt lat="41.3767065" lon="1.6267725"><ele>268.25</ele><time>2026-04-19T10:43:48.041Z</time></trkpt><trkpt lat="41.3765644" lon="1.6267902"><ele>269.0</ele><time>2026-04-19T10:43:49.041Z</time></trkpt><trkpt lat="41.3764172" lon="1.626801"><ele>268.5</ele><time>2026-04-19T10:43:50.04Z</time></trkpt><trkpt lat="41.3762758" lon="1.6268089"><ele>268.0</ele><time>2026-04-19T10:43:51.041Z</time></trkpt><trkpt lat="41.3761386" lon="1.6268173"><ele>267.5</ele><time>2026-04-19T10:43:52.041Z</time></trkpt><trkpt lat="41.3760046" lon="1.6268249"><ele>267.0</ele><time>2026-04-19T10:43:53.041Z</time></trkpt><trkpt lat="41.3758709" lon="1.6268397"><ele>267.0</ele><time>2026-04-19T10:43:54.04Z</time></trkpt><trkpt lat="41.3757407" lon="1.6268592"><ele>267.0</ele><time>2026-04-19T10:43:55.041Z</time></trkpt><trkpt lat="41.375612" lon="1.6268811"><ele>267.0</ele><time>2026-04-19T10:43:56.041Z</time></trkpt><trkpt lat="41.3754826" lon="1.6269035"><ele>267.0</ele><time>2026-04-19T10:43:57.04Z</time></trkpt><trkpt lat="41.3753551" lon="1.6269223"><ele>266.0</ele><time>2026-04-19T10:43:58.041Z</time></trkpt><trkpt lat="41.3752336" lon="1.626934"><ele>265.0</ele><time>2026-04-19T10:43:59.04Z</time></trkpt><trkpt lat="41.375117" lon="1.6269456"><ele>264.0</ele><time>2026-04-19T10:44:00.041Z</time></trkpt><trkpt lat="41.3750035" lon="1.6269362"><ele>263.0</ele><time>2026-04-19T10:44:01.04Z</time></trkpt><trkpt lat="41.374894" lon="1.6269087"><ele>263.0</ele><time>2026-04-19T10:44:02.04Z</time></trkpt><trkpt lat="41.3747898" lon="1.6268659"><ele>263.0</ele><time>2026-04-19T10:44:03.04Z</time></trkpt><trkpt lat="41.3746889" lon="1.6268157"><ele>263.0</ele><time>2026-04-19T10:44:04.041Z</time></trkpt><trkpt lat="41.3745847" lon="1.6267586"><ele>263.0</ele><time>2026-04-19T10:44:05.041Z</time></trkpt><trkpt lat="41.3744727" lon="1.6267175"><ele>263.0</ele><time>2026-04-19T10:44:06.04Z</time></trkpt><trkpt lat="41.3743432" lon="1.6267031"><ele>263.33333333333337</ele><time>2026-04-19T10:44:07.041Z</time></trkpt><trkpt lat="41.3741916" lon="1.6267089"><ele>263.6666666666667</ele><time>2026-04-19T10:44:08.04Z</time></trkpt><trkpt lat="41.3740381" lon="1.6267209"><ele>264.0</ele><time>2026-04-19T10:44:09.041Z</time></trkpt><trkpt lat="41.3738783" lon="1.6267402"><ele>264.0</ele><time>2026-04-19T10:44:10.04Z</time></trkpt><trkpt lat="41.3737132" lon="1.6267532"><ele>264.0</ele><time>2026-04-19T10:44:11.041Z</time></trkpt><trkpt lat="41.3735499" lon="1.6267657"><ele>264.0</ele><time>2026-04-19T10:44:12.041Z</time></trkpt><trkpt lat="41.3733864" lon="1.6267808"><ele>264.0</ele><time>2026-04-19T10:44:13.04Z</time></trkpt><trkpt lat="41.3732268" lon="1.6267942"><ele>264.0</ele><time>2026-04-19T10:44:14.04Z</time></trkpt><trkpt lat="41.3730762" lon="1.6268085"><ele>264.0</ele><time>2026-04-19T10:44:15.041Z</time></trkpt><trkpt lat="41.3729362" lon="1.6268264"><ele>263.75</ele><time>2026-04-19T10:44:16.04Z</time></trkpt><trkpt lat="41.3728013" lon="1.6268551"><ele>263.5</ele><time>2026-04-19T10:44:17.041Z</time></trkpt><trkpt lat="41.3726598" lon="1.6268794"><ele>263.25</ele><time>2026-04-19T10:44:18.04Z</time></trkpt><trkpt lat="41.3725089" lon="1.626887"><ele>263.0</ele><time>2026-04-19T10:44:19.04Z</time></trkpt><trkpt lat="41.3723516" lon="1.6268811"><ele>263.0</ele><time>2026-04-19T10:44:20.04Z</time></trkpt><trkpt lat="41.3721947" lon="1.6268649"><ele>263.0</ele><time>2026-04-19T10:44:21.041Z</time></trkpt><trkpt lat="41.3720468" lon="1.6268444"><ele>263.0</ele><time>2026-04-19T10:44:22.04Z</time></trkpt><trkpt lat="41.371904" lon="1.6268267"><ele>263.0</ele><time>2026-04-19T10:44:23.041Z</time></trkpt><trkpt lat="41.3717557" lon="1.6268224"><ele>263.25</ele><time>2026-04-19T10:44:24.041Z</time></trkpt><trkpt lat="41.3716104" lon="1.6268307"><ele>263.5</ele><time>2026-04-19T10:44:25.041Z</time></trkpt><trkpt lat="41.3714713" lon="1.6268437"><ele>263.75</ele><time>2026-04-19T10:44:26.04Z</time></trkpt><trkpt lat="41.3713437" lon="1.6268567"><ele>264.0</ele><time>2026-04-19T10:44:27.041Z</time></trkpt><trkpt lat="41.3712251" lon="1.6268641"><ele>263.25</ele><time>2026-04-19T10:44:28.041Z</time></trkpt><trkpt lat="41.3711114" lon="1.6268651"><ele>262.5</ele><time>2026-04-19T10:44:29.04Z</time></trkpt><trkpt lat="41.3709891" lon="1.6268766"><ele>261.75</ele><time>2026-04-19T10:44:30.041Z</time></trkpt><trkpt lat="41.3708527" lon="1.6269056"><ele>261.0</ele><time>2026-04-19T10:44:31.04Z</time></trkpt><trkpt lat="41.3707091" lon="1.6269456"><ele>259.6666666666667</ele><time>2026-04-19T10:44:32.041Z</time></trkpt><trkpt lat="41.3705566" lon="1.6269782"><ele>258.33333333333337</ele><time>2026-04-19T10:44:33.041Z</time></trkpt><trkpt lat="41.3704051" lon="1.6270006"><ele>257.0</ele><time>2026-04-19T10:44:34.04Z</time></trkpt><trkpt lat="41.3702564" lon="1.6270126"><ele>256.75</ele><time>2026-04-19T10:44:35.04Z</time></trkpt><trkpt lat="41.3701172" lon="1.6270232"><ele>256.5</ele><time>2026-04-19T10:44:36.041Z</time></trkpt><trkpt lat="41.3699831" lon="1.6270298"><ele>256.25</ele><time>2026-04-19T10:44:37.041Z</time></trkpt><trkpt lat="41.3698583" lon="1.6270355"><ele>256.0</ele><time>2026-04-19T10:44:38.04Z</time></trkpt><trkpt lat="41.3697414" lon="1.6270495"><ele>256.6</ele><time>2026-04-19T10:44:39.04Z</time></trkpt><trkpt lat="41.3696361" lon="1.6270699"><ele>257.20000000000005</ele><time>2026-04-19T10:44:40.041Z</time></trkpt><trkpt lat="41.3695449" lon="1.6270937"><ele>257.79999999999995</ele><time>2026-04-19T10:44:41.041Z</time></trkpt><trkpt lat="41.3694742" lon="1.6271244"><ele>258.4</ele><time>2026-04-19T10:44:42.04Z</time></trkpt><trkpt lat="41.3693827" lon="1.6271145"><ele>259.0</ele><time>2026-04-19T10:44:44.04Z</time></trkpt><trkpt lat="41.3693253" lon="1.6269904"><ele>259.16666666666663</ele><time>2026-04-19T10:44:46.041Z</time></trkpt><trkpt lat="41.3693053" lon="1.6268869"><ele>259.3333333333333</ele><time>2026-04-19T10:44:47.041Z</time></trkpt><trkpt lat="41.3692799" lon="1.6267728"><ele>259.5</ele><time>2026-04-19T10:44:48.041Z</time></trkpt><trkpt lat="41.3692483" lon="1.626672"><ele>259.6666666666667</ele><time>2026-04-19T10:44:49.041Z</time></trkpt><trkpt lat="41.3691987" lon="1.6265859"><ele>259.83333333333337</ele><time>2026-04-19T10:44:50.04Z</time></trkpt><trkpt lat="41.3691375" lon="1.6264974"><ele>260.0</ele><time>2026-04-19T10:44:51.041Z</time></trkpt><trkpt lat="41.3690625" lon="1.6264154"><ele>260.0</ele><time>2026-04-19T10:44:52.04Z</time></trkpt><trkpt lat="41.368985" lon="1.6263306"><ele>260.0</ele><time>2026-04-19T10:44:53.041Z</time></trkpt><trkpt lat="41.3689026" lon="1.6262466"><ele>260.0</ele><time>2026-04-19T10:44:54.041Z</time></trkpt><trkpt lat="41.3688193" lon="1.6261679"><ele>260.0</ele><time>2026-04-19T10:44:55.04Z</time></trkpt><trkpt lat="41.3687348" lon="1.6260855"><ele>260.0</ele><time>2026-04-19T10:44:56.041Z</time></trkpt><trkpt lat="41.3686382" lon="1.6260081"><ele>261.2</ele><time>2026-04-19T10:44:57.04Z</time></trkpt><trkpt lat="41.3685335" lon="1.6259432"><ele>262.4</ele><time>2026-04-19T10:44:58.041Z</time></trkpt><trkpt lat="41.368432" lon="1.6258833"><ele>263.6</ele><time>2026-04-19T10:44:59.04Z</time></trkpt><trkpt lat="41.3683397" lon="1.6258256"><ele>264.8</ele><time>2026-04-19T10:45:00.04Z</time></trkpt><trkpt lat="41.3682612" lon="1.625772"><ele>266.0</ele><time>2026-04-19T10:45:01.04Z</time></trkpt><trkpt lat="41.3681903" lon="1.6257281"><ele>266.0</ele><time>2026-04-19T10:45:02.04Z</time></trkpt><trkpt lat="41.368088" lon="1.6256807"><ele>266.0</ele><time>2026-04-19T10:45:04.04Z</time></trkpt><trkpt lat="41.368026" lon="1.6256649"><ele>266.0</ele><time>2026-04-19T10:45:22.041Z</time></trkpt><trkpt lat="41.3679342" lon="1.6256197"><ele>266.0</ele><time>2026-04-19T10:45:24.041Z</time></trkpt><trkpt lat="41.3678623" lon="1.6255892"><ele>266.0</ele><time>2026-04-19T10:45:25.041Z</time></trkpt><trkpt lat="41.3677859" lon="1.6255656"><ele>266.0</ele><time>2026-04-19T10:45:26.041Z</time></trkpt><trkpt lat="41.3677054" lon="1.6255539"><ele>267.0</ele><time>2026-04-19T10:45:27.041Z</time></trkpt><trkpt lat="41.3676145" lon="1.6255495"><ele>268.0</ele><time>2026-04-19T10:45:28.041Z</time></trkpt><trkpt lat="41.3675128" lon="1.6255522"><ele>269.0</ele><time>2026-04-19T10:45:29.04Z</time></trkpt><trkpt lat="41.3674106" lon="1.6255543"><ele>270.0</ele><time>2026-04-19T10:45:30.041Z</time></trkpt><trkpt lat="41.3673044" lon="1.6255579"><ele>271.0</ele><time>2026-04-19T10:45:31.041Z</time></trkpt><trkpt lat="41.3671917" lon="1.6255581"><ele>271.0</ele><time>2026-04-19T10:45:32.04Z</time></trkpt><trkpt lat="41.3670701" lon="1.6255516"><ele>271.0</ele><time>2026-04-19T10:45:33.041Z</time></trkpt><trkpt lat="41.3669401" lon="1.6255313"><ele>271.0</ele><time>2026-04-19T10:45:34.04Z</time></trkpt><trkpt lat="41.3668124" lon="1.6255102"><ele>271.0</ele><time>2026-04-19T10:45:35.04Z</time></trkpt><trkpt lat="41.3666861" lon="1.6254905"><ele>271.0</ele><time>2026-04-19T10:45:36.041Z</time></trkpt><trkpt lat="41.3665628" lon="1.6254785"><ele>271.0</ele><time>2026-04-19T10:45:37.041Z</time></trkpt><trkpt lat="41.3664368" lon="1.6254743"><ele>271.0</ele><time>2026-04-19T10:45:38.041Z</time></trkpt><trkpt lat="41.3663039" lon="1.6254757"><ele>271.0</ele><time>2026-04-19T10:45:39.04Z</time></trkpt><trkpt lat="41.3661662" lon="1.6254814"><ele>270.3333333333333</ele><time>2026-04-19T10:45:40.04Z</time></trkpt><trkpt lat="41.3660191" lon="1.6254916"><ele>269.6666666666667</ele><time>2026-04-19T10:45:41.04Z</time></trkpt><trkpt lat="41.3658654" lon="1.6255075"><ele>269.0</ele><time>2026-04-19T10:45:42.041Z</time></trkpt><trkpt lat="41.3657167" lon="1.6255282"><ele>269.0</ele><time>2026-04-19T10:45:43.041Z</time></trkpt><trkpt lat="41.3655723" lon="1.6255518"><ele>269.0</ele><time>2026-04-19T10:45:44.04Z</time></trkpt><trkpt lat="41.3654262" lon="1.6255764"><ele>269.0</ele><time>2026-04-19T10:45:45.041Z</time></trkpt><trkpt lat="41.3652845" lon="1.6256019"><ele>269.0</ele><time>2026-04-19T10:45:46.041Z</time></trkpt><trkpt lat="41.3651508" lon="1.6256277"><ele>268.75</ele><time>2026-04-19T10:45:47.04Z</time></trkpt><trkpt lat="41.36502" lon="1.6256523"><ele>268.5</ele><time>2026-04-19T10:45:48.041Z</time></trkpt><trkpt lat="41.3648986" lon="1.6256745"><ele>268.25</ele><time>2026-04-19T10:45:49.041Z</time></trkpt><trkpt lat="41.3647838" lon="1.6256935"><ele>268.0</ele><time>2026-04-19T10:45:50.04Z</time></trkpt><trkpt lat="41.3646646" lon="1.6257166"><ele>267.5</ele><time>2026-04-19T10:45:51.041Z</time></trkpt><trkpt lat="41.3645394" lon="1.6257446"><ele>267.0</ele><time>2026-04-19T10:45:52.04Z</time></trkpt><trkpt lat="41.3644117" lon="1.6257781"><ele>266.5</ele><time>2026-04-19T10:45:53.041Z</time></trkpt><trkpt lat="41.3642837" lon="1.6258203"><ele>266.0</ele><time>2026-04-19T10:45:54.04Z</time></trkpt><trkpt lat="41.364157" lon="1.6258599"><ele>266.0</ele><time>2026-04-19T10:45:55.041Z</time></trkpt><trkpt lat="41.364033" lon="1.6259062"><ele>266.0</ele><time>2026-04-19T10:45:56.04Z</time></trkpt><trkpt lat="41.3639096" lon="1.6259547"><ele>266.0</ele><time>2026-04-19T10:45:57.041Z</time></trkpt><trkpt lat="41.3637947" lon="1.6260001"><ele>266.0</ele><time>2026-04-19T10:45:58.041Z</time></trkpt><trkpt lat="41.363679" lon="1.6260425"><ele>265.75</ele><time>2026-04-19T10:45:59.041Z</time></trkpt><trkpt lat="41.3635619" lon="1.6260878"><ele>265.5</ele><time>2026-04-19T10:46:00.041Z</time></trkpt><trkpt lat="41.3634475" lon="1.6261317"><ele>265.25</ele><time>2026-04-19T10:46:01.04Z</time></trkpt><trkpt lat="41.363336" lon="1.6261687"><ele>265.0</ele><time>2026-04-19T10:46:02.041Z</time></trkpt><trkpt lat="41.3632201" lon="1.626203"><ele>264.0</ele><time>2026-04-19T10:46:03.041Z</time></trkpt><trkpt lat="41.3631033" lon="1.6262312"><ele>263.0</ele><time>2026-04-19T10:46:04.04Z</time></trkpt><trkpt lat="41.3629793" lon="1.6262475"><ele>262.0</ele><time>2026-04-19T10:46:05.04Z</time></trkpt><trkpt lat="41.3628511" lon="1.6262644"><ele>261.0</ele><time>2026-04-19T10:46:06.041Z</time></trkpt><trkpt lat="41.362724" lon="1.6262852"><ele>260.5</ele><time>2026-04-19T10:46:07.041Z</time></trkpt><trkpt lat="41.3625982" lon="1.6263152"><ele>260.0</ele><time>2026-04-19T10:46:08.04Z</time></trkpt><trkpt lat="41.3624707" lon="1.6263553"><ele>259.5</ele><time>2026-04-19T10:46:09.04Z</time></trkpt><trkpt lat="41.3623431" lon="1.6263994"><ele>259.0</ele><time>2026-04-19T10:46:10.041Z</time></trkpt><trkpt lat="41.3622076" lon="1.6264367"><ele>260.0</ele><time>2026-04-19T10:46:11.04Z</time></trkpt><trkpt lat="41.362054" lon="1.6264729"><ele>261.0</ele><time>2026-04-19T10:46:12.041Z</time></trkpt><trkpt lat="41.3618966" lon="1.6265087"><ele>262.0</ele><time>2026-04-19T10:46:13.041Z</time></trkpt><trkpt lat="41.3617438" lon="1.6265388"><ele>262.0</ele><time>2026-04-19T10:46:14.041Z</time></trkpt><trkpt lat="41.3615968" lon="1.62657"><ele>262.0</ele><time>2026-04-19T10:46:15.041Z</time></trkpt><trkpt lat="41.3614593" lon="1.6266048"><ele>262.0</ele><time>2026-04-19T10:46:16.041Z</time></trkpt><trkpt lat="41.3613288" lon="1.626647"><ele>262.0</ele><time>2026-04-19T10:46:17.04Z</time></trkpt><trkpt lat="41.361213" lon="1.6267"><ele>262.8</ele><time>2026-04-19T10:46:18.04Z</time></trkpt><trkpt lat="41.361106" lon="1.6267456"><ele>263.6</ele><time>2026-04-19T10:46:19.04Z</time></trkpt><trkpt lat="41.3610016" lon="1.6267778"><ele>264.40000000000003</ele><time>2026-04-19T10:46:20.041Z</time></trkpt><trkpt lat="41.3608971" lon="1.6267954"><ele>265.2</ele><time>2026-04-19T10:46:21.04Z</time></trkpt><trkpt lat="41.3607957" lon="1.6268009"><ele>266.0</ele><time>2026-04-19T10:46:22.041Z</time></trkpt><trkpt lat="41.3606865" lon="1.6268037"><ele>266.0</ele><time>2026-04-19T10:46:23.041Z</time></trkpt><trkpt lat="41.3605792" lon="1.626811"><ele>266.0</ele><time>2026-04-19T10:46:24.041Z</time></trkpt><trkpt lat="41.3604769" lon="1.6268163"><ele>266.0</ele><time>2026-04-19T10:46:25.041Z</time></trkpt><trkpt lat="41.3603822" lon="1.6268197"><ele>266.0</ele><time>2026-04-19T10:46:26.04Z</time></trkpt><trkpt lat="41.3602786" lon="1.6268109"><ele>266.0</ele><time>2026-04-19T10:46:27.04Z</time></trkpt><trkpt lat="41.3601719" lon="1.6268033"><ele>266.2</ele><time>2026-04-19T10:46:28.04Z</time></trkpt><trkpt lat="41.360065" lon="1.6267931"><ele>266.40000000000003</ele><time>2026-04-19T10:46:29.041Z</time></trkpt><trkpt lat="41.3599562" lon="1.6267778"><ele>266.6</ele><time>2026-04-19T10:46:30.041Z</time></trkpt><trkpt lat="41.3598455" lon="1.6267562"><ele>266.8</ele><time>2026-04-19T10:46:31.041Z</time></trkpt><trkpt lat="41.3597318" lon="1.6267214"><ele>267.0</ele><time>2026-04-19T10:46:32.04Z</time></trkpt><trkpt lat="41.3596167" lon="1.6266795"><ele>267.0</ele><time>2026-04-19T10:46:33.04Z</time></trkpt><trkpt lat="41.3595083" lon="1.6266269"><ele>267.0</ele><time>2026-04-19T10:46:34.041Z</time></trkpt><trkpt lat="41.3594035" lon="1.6265918"><ele>267.0</ele><time>2026-04-19T10:46:35.04Z</time></trkpt><trkpt lat="41.3592917" lon="1.6265633"><ele>267.0</ele><time>2026-04-19T10:46:36.041Z</time></trkpt><trkpt lat="41.3591793" lon="1.6265325"><ele>267.0</ele><time>2026-04-19T10:46:37.041Z</time></trkpt><trkpt lat="41.3590711" lon="1.6265029"><ele>267.0</ele><time>2026-04-19T10:46:38.041Z</time></trkpt><trkpt lat="41.3589702" lon="1.6264686"><ele>267.0</ele><time>2026-04-19T10:46:39.04Z</time></trkpt><trkpt lat="41.3588804" lon="1.6264281"><ele>267.0</ele><time>2026-04-19T10:46:40.041Z</time></trkpt><trkpt lat="41.3588094" lon="1.6263983"><ele>267.0</ele><time>2026-04-19T10:46:41.04Z</time></trkpt><trkpt lat="41.3587491" lon="1.6263682"><ele>267.0</ele><time>2026-04-19T10:46:42.04Z</time></trkpt><trkpt lat="41.3586876" lon="1.6263259"><ele>267.0</ele><time>2026-04-19T10:46:43.041Z</time></trkpt><trkpt lat="41.3586123" lon="1.6262792"><ele>267.0</ele><time>2026-04-19T10:46:44.041Z</time></trkpt><trkpt lat="41.3585279" lon="1.6262236"><ele>267.0</ele><time>2026-04-19T10:46:45.041Z</time></trkpt><trkpt lat="41.3584435" lon="1.6261661"><ele>267.0</ele><time>2026-04-19T10:46:46.041Z</time></trkpt><trkpt lat="41.3583634" lon="1.6260916"><ele>267.0</ele><time>2026-04-19T10:46:47.041Z</time></trkpt><trkpt lat="41.3582864" lon="1.6260184"><ele>267.0</ele><time>2026-04-19T10:46:48.04Z</time></trkpt><trkpt lat="41.3582022" lon="1.6259672"><ele>267.0</ele><time>2026-04-19T10:46:49.041Z</time></trkpt><trkpt lat="41.3581103" lon="1.6259364"><ele>267.0</ele><time>2026-04-19T10:46:50.04Z</time></trkpt><trkpt lat="41.3580146" lon="1.6259234"><ele>267.0</ele><time>2026-04-19T10:46:51.041Z</time></trkpt><trkpt lat="41.3579106" lon="1.6259142"><ele>267.0</ele><time>2026-04-19T10:46:52.041Z</time></trkpt><trkpt lat="41.3578004" lon="1.6259126"><ele>264.5</ele><time>2026-04-19T10:46:53.04Z</time></trkpt><trkpt lat="41.3576808" lon="1.6259215"><ele>262.0</ele><time>2026-04-19T10:46:54.041Z</time></trkpt><trkpt lat="41.3575549" lon="1.6259281"><ele>259.5</ele><time>2026-04-19T10:46:55.041Z</time></trkpt><trkpt lat="41.3574253" lon="1.6259236"><ele>257.0</ele><time>2026-04-19T10:46:56.041Z</time></trkpt><trkpt lat="41.3572914" lon="1.6258992"><ele>255.25</ele><time>2026-04-19T10:46:57.04Z</time></trkpt><trkpt lat="41.3571553" lon="1.6258619"><ele>253.5</ele><time>2026-04-19T10:46:58.04Z</time></trkpt><trkpt lat="41.3570254" lon="1.6258084"><ele>251.75</ele><time>2026-04-19T10:46:59.041Z</time></trkpt><trkpt lat="41.3568983" lon="1.6257502"><ele>250.0</ele><time>2026-04-19T10:47:00.04Z</time></trkpt><trkpt lat="41.3567781" lon="1.6256819"><ele>250.0</ele><time>2026-04-19T10:47:01.041Z</time></trkpt><trkpt lat="41.356661" lon="1.6256056"><ele>250.0</ele><time>2026-04-19T10:47:02.041Z</time></trkpt><trkpt lat="41.3565491" lon="1.6255213"><ele>250.0</ele><time>2026-04-19T10:47:03.041Z</time></trkpt><trkpt lat="41.3564436" lon="1.6254259"><ele>250.0</ele><time>2026-04-19T10:47:04.041Z</time></trkpt><trkpt lat="41.356342" lon="1.6253267"><ele>250.0</ele><time>2026-04-19T10:47:05.04Z</time></trkpt><trkpt lat="41.3562426" lon="1.6252397"><ele>250.0</ele><time>2026-04-19T10:47:06.041Z</time></trkpt><trkpt lat="41.3561587" lon="1.6251523"><ele>250.0</ele><time>2026-04-19T10:47:07.04Z</time></trkpt><trkpt lat="41.3560862" lon="1.625055"><ele>250.0</ele><time>2026-04-19T10:47:08.04Z</time></trkpt><trkpt lat="41.3560042" lon="1.6249694"><ele>250.0</ele><time>2026-04-19T10:47:09.041Z</time></trkpt><trkpt lat="41.3558958" lon="1.6248906"><ele>250.0</ele><time>2026-04-19T10:47:10.041Z</time></trkpt><trkpt lat="41.3557777" lon="1.624812"><ele>250.0</ele><time>2026-04-19T10:47:11.041Z</time></trkpt><trkpt lat="41.3556585" lon="1.6247216"><ele>250.0</ele><time>2026-04-19T10:47:12.04Z</time></trkpt><trkpt lat="41.3555409" lon="1.6246324"><ele>250.0</ele><time>2026-04-19T10:47:13.041Z</time></trkpt><trkpt lat="41.3554211" lon="1.6245509"><ele>251.5</ele><time>2026-04-19T10:47:14.041Z</time></trkpt><trkpt lat="41.3553001" lon="1.6244787"><ele>253.0</ele><time>2026-04-19T10:47:15.041Z</time></trkpt><trkpt lat="41.355177" lon="1.6244195"><ele>254.5</ele><time>2026-04-19T10:47:16.041Z</time></trkpt><trkpt lat="41.3550501" lon="1.6243657"><ele>256.0</ele><time>2026-04-19T10:47:17.04Z</time></trkpt><trkpt lat="41.3549216" lon="1.6243108"><ele>256.0</ele><time>2026-04-19T10:47:18.041Z</time></trkpt><trkpt lat="41.3547964" lon="1.6242438"><ele>256.0</ele><time>2026-04-19T10:47:19.04Z</time></trkpt><trkpt lat="41.3546755" lon="1.6241738"><ele>256.0</ele><time>2026-04-19T10:47:20.04Z</time></trkpt><trkpt lat="41.3545643" lon="1.6240935"><ele>256.0</ele><time>2026-04-19T10:47:21.04Z</time></trkpt><trkpt lat="41.3544645" lon="1.6239936"><ele>255.5</ele><time>2026-04-19T10:47:22.041Z</time></trkpt><trkpt lat="41.3543785" lon="1.6238666"><ele>255.0</ele><time>2026-04-19T10:47:23.04Z</time></trkpt><trkpt lat="41.3542984" lon="1.6237252"><ele>254.5</ele><time>2026-04-19T10:47:24.041Z</time></trkpt><trkpt lat="41.3542229" lon="1.623591"><ele>254.0</ele><time>2026-04-19T10:47:25.04Z</time></trkpt><trkpt lat="41.3541557" lon="1.6234708"><ele>254.0</ele><time>2026-04-19T10:47:26.041Z</time></trkpt><trkpt lat="41.3540888" lon="1.6233671"><ele>253.99999999999997</ele><time>2026-04-19T10:47:27.041Z</time></trkpt><trkpt lat="41.3540145" lon="1.6232692"><ele>253.99999999999997</ele><time>2026-04-19T10:47:28.04Z</time></trkpt><trkpt lat="41.3539195" lon="1.6231765"><ele>254.0</ele><time>2026-04-19T10:47:29.04Z</time></trkpt><trkpt lat="41.3538203" lon="1.6230812"><ele>254.0</ele><time>2026-04-19T10:47:30.041Z</time></trkpt><trkpt lat="41.3537225" lon="1.6229774"><ele>254.0</ele><time>2026-04-19T10:47:31.041Z</time></trkpt><trkpt lat="41.353635" lon="1.622866"><ele>254.0</ele><time>2026-04-19T10:47:32.041Z</time></trkpt><trkpt lat="41.3535531" lon="1.6227542"><ele>254.0</ele><time>2026-04-19T10:47:33.041Z</time></trkpt><trkpt lat="41.3534735" lon="1.6226388"><ele>254.0</ele><time>2026-04-19T10:47:34.041Z</time></trkpt><trkpt lat="41.3533811" lon="1.6225133"><ele>254.0</ele><time>2026-04-19T10:47:35.041Z</time></trkpt><trkpt lat="41.3532845" lon="1.6223874"><ele>254.0</ele><time>2026-04-19T10:47:36.041Z</time></trkpt><trkpt lat="41.35319" lon="1.6222608"><ele>254.0</ele><time>2026-04-19T10:47:37.04Z</time></trkpt><trkpt lat="41.3530925" lon="1.6221289"><ele>254.0</ele><time>2026-04-19T10:47:38.041Z</time></trkpt><trkpt lat="41.3529958" lon="1.6219996"><ele>253.0</ele><time>2026-04-19T10:47:39.04Z</time></trkpt><trkpt lat="41.3528995" lon="1.6218614"><ele>252.0</ele><time>2026-04-19T10:47:40.041Z</time></trkpt><trkpt lat="41.3528061" lon="1.6217168"><ele>251.0</ele><time>2026-04-19T10:47:41.041Z</time></trkpt><trkpt lat="41.3527152" lon="1.6215683"><ele>250.0</ele><time>2026-04-19T10:47:42.041Z</time></trkpt><trkpt lat="41.3526241" lon="1.6214285"><ele>250.0</ele><time>2026-04-19T10:47:43.041Z</time></trkpt><trkpt lat="41.3525319" lon="1.6213066"><ele>250.0</ele><time>2026-04-19T10:47:44.041Z</time></trkpt><trkpt lat="41.3524304" lon="1.6212003"><ele>250.0</ele><time>2026-04-19T10:47:45.04Z</time></trkpt><trkpt lat="41.3523169" lon="1.6211"><ele>250.0</ele><time>2026-04-19T10:47:46.04Z</time></trkpt><trkpt lat="41.3521942" lon="1.6210072"><ele>250.2</ele><time>2026-04-19T10:47:47.04Z</time></trkpt><trkpt lat="41.3520771" lon="1.6209224"><ele>250.4</ele><time>2026-04-19T10:47:48.041Z</time></trkpt><trkpt lat="41.3519756" lon="1.6208546"><ele>250.60000000000002</ele><time>2026-04-19T10:47:49.04Z</time></trkpt><trkpt lat="41.3519063" lon="1.6207832"><ele>250.8</ele><time>2026-04-19T10:47:50.041Z</time></trkpt><trkpt lat="41.3518513" lon="1.6206817"><ele>251.0</ele><time>2026-04-19T10:47:51.041Z</time></trkpt><trkpt lat="41.3518138" lon="1.6205563"><ele>251.00000000000003</ele><time>2026-04-19T10:47:52.041Z</time></trkpt><trkpt lat="41.3517881" lon="1.6204318"><ele>251.0</ele><time>2026-04-19T10:47:53.041Z</time></trkpt><trkpt lat="41.3517816" lon="1.6203105"><ele>251.0</ele><time>2026-04-19T10:47:54.041Z</time></trkpt><trkpt lat="41.351776" lon="1.620219"><ele>251.0</ele><time>2026-04-19T10:47:55.04Z</time></trkpt><trkpt lat="41.351741" lon="1.6201179"><ele>251.00000000000003</ele><time>2026-04-19T10:47:56.041Z</time></trkpt><trkpt lat="41.3516817" lon="1.6200004"><ele>251.0</ele><time>2026-04-19T10:47:57.041Z</time></trkpt><trkpt lat="41.3516198" lon="1.6198648"><ele>251.75</ele><time>2026-04-19T10:47:58.04Z</time></trkpt><trkpt lat="41.3515619" lon="1.6197216"><ele>252.5</ele><time>2026-04-19T10:47:59.04Z</time></trkpt><trkpt lat="41.3515069" lon="1.6195716"><ele>253.25</ele><time>2026-04-19T10:48:00.04Z</time></trkpt><trkpt lat="41.3514459" lon="1.6194255"><ele>254.0</ele><time>2026-04-19T10:48:01.04Z</time></trkpt><trkpt lat="41.351376" lon="1.6192861"><ele>253.75</ele><time>2026-04-19T10:48:02.04Z</time></trkpt><trkpt lat="41.3513054" lon="1.6191486"><ele>253.5</ele><time>2026-04-19T10:48:03.041Z</time></trkpt><trkpt lat="41.3512282" lon="1.619"><ele>253.25</ele><time>2026-04-19T10:48:04.04Z</time></trkpt><trkpt lat="41.351149" lon="1.6188412"><ele>253.0</ele><time>2026-04-19T10:48:05.041Z</time></trkpt><trkpt lat="41.3510708" lon="1.6186807"><ele>253.5</ele><time>2026-04-19T10:48:06.04Z</time></trkpt><trkpt lat="41.3509905" lon="1.6185349"><ele>254.0</ele><time>2026-04-19T10:48:07.041Z</time></trkpt><trkpt lat="41.3509132" lon="1.618388"><ele>254.5</ele><time>2026-04-19T10:48:08.04Z</time></trkpt><trkpt lat="41.3508356" lon="1.6182251"><ele>255.0</ele><time>2026-04-19T10:48:09.041Z</time></trkpt><trkpt lat="41.3507587" lon="1.6180489"><ele>255.0</ele><time>2026-04-19T10:48:10.041Z</time></trkpt><trkpt lat="41.3506855" lon="1.6178757"><ele>255.0</ele><time>2026-04-19T10:48:11.04Z</time></trkpt><trkpt lat="41.3506143" lon="1.6177144"><ele>255.0</ele><time>2026-04-19T10:48:12.04Z</time></trkpt><trkpt lat="41.350545" lon="1.6175637"><ele>255.0</ele><time>2026-04-19T10:48:13.041Z</time></trkpt><trkpt lat="41.3504821" lon="1.6174253"><ele>255.6</ele><time>2026-04-19T10:48:14.041Z</time></trkpt><trkpt lat="41.3504285" lon="1.617303"><ele>256.2</ele><time>2026-04-19T10:48:15.041Z</time></trkpt><trkpt lat="41.3503864" lon="1.6172012"><ele>256.8</ele><time>2026-04-19T10:48:16.04Z</time></trkpt><trkpt lat="41.350355" lon="1.6171245"><ele>257.4</ele><time>2026-04-19T10:48:17.041Z</time></trkpt><trkpt lat="41.3502787" lon="1.6170212"><ele>258.0</ele><time>2026-04-19T10:48:19.04Z</time></trkpt><trkpt lat="41.3501668" lon="1.61705"><ele>258.0</ele><time>2026-04-19T10:48:21.041Z</time></trkpt><trkpt lat="41.3501012" lon="1.6170961"><ele>258.0</ele><time>2026-04-19T10:48:22.041Z</time></trkpt><trkpt lat="41.3500348" lon="1.6171418"><ele>258.0</ele><time>2026-04-19T10:48:23.041Z</time></trkpt><trkpt lat="41.3499475" lon="1.6171984"><ele>258.0</ele><time>2026-04-19T10:48:25.041Z</time></trkpt><trkpt lat="41.3498887" lon="1.6172405"><ele>258.0</ele><time>2026-04-19T10:48:27.04Z</time></trkpt><trkpt lat="41.3497954" lon="1.6173501"><ele>258.0</ele><time>2026-04-19T10:48:29.04Z</time></trkpt><trkpt lat="41.349744" lon="1.6174469"><ele>257.0</ele><time>2026-04-19T10:48:30.041Z</time></trkpt><trkpt lat="41.3496868" lon="1.6175513"><ele>256.0</ele><time>2026-04-19T10:48:31.041Z</time></trkpt><trkpt lat="41.3496182" lon="1.6176688"><ele>255.0</ele><time>2026-04-19T10:48:32.04Z</time></trkpt><trkpt lat="41.3495417" lon="1.6177932"><ele>254.0</ele><time>2026-04-19T10:48:33.04Z</time></trkpt><trkpt lat="41.3494625" lon="1.6179229"><ele>254.0</ele><time>2026-04-19T10:48:34.04Z</time></trkpt><trkpt lat="41.3493757" lon="1.6180405"><ele>254.0</ele><time>2026-04-19T10:48:35.04Z</time></trkpt><trkpt lat="41.3492718" lon="1.618147"><ele>254.0</ele><time>2026-04-19T10:48:36.041Z</time></trkpt><trkpt lat="41.3491544" lon="1.6182428"><ele>254.0</ele><time>2026-04-19T10:48:37.04Z</time></trkpt><trkpt lat="41.349034" lon="1.6183398"><ele>254.0</ele><time>2026-04-19T10:48:38.041Z</time></trkpt><trkpt lat="41.3488977" lon="1.6184434"><ele>254.0</ele><time>2026-04-19T10:48:39.041Z</time></trkpt><trkpt lat="41.3487588" lon="1.6185455"><ele>254.0</ele><time>2026-04-19T10:48:40.04Z</time></trkpt><trkpt lat="41.3486258" lon="1.6186414"><ele>253.0</ele><time>2026-04-19T10:48:41.041Z</time></trkpt><trkpt lat="41.3484999" lon="1.6187454"><ele>252.0</ele><time>2026-04-19T10:48:42.041Z</time></trkpt><trkpt lat="41.3483892" lon="1.6188613"><ele>251.0</ele><time>2026-04-19T10:48:43.041Z</time></trkpt><trkpt lat="41.348296" lon="1.6189938"><ele>250.0</ele><time>2026-04-19T10:48:44.04Z</time></trkpt><trkpt lat="41.3482114" lon="1.619151"><ele>250.0</ele><time>2026-04-19T10:48:45.04Z</time></trkpt><trkpt lat="41.3481297" lon="1.6193413"><ele>250.0</ele><time>2026-04-19T10:48:46.04Z</time></trkpt><trkpt lat="41.3480481" lon="1.6195368"><ele>250.0</ele><time>2026-04-19T10:48:47.04Z</time></trkpt><trkpt lat="41.3479703" lon="1.619729"><ele>249.75</ele><time>2026-04-19T10:48:48.041Z</time></trkpt><trkpt lat="41.3478896" lon="1.6198994"><ele>249.5</ele><time>2026-04-19T10:48:49.041Z</time></trkpt><trkpt lat="41.347792" lon="1.6200479"><ele>249.25</ele><time>2026-04-19T10:48:50.04Z</time></trkpt><trkpt lat="41.3476824" lon="1.6201669"><ele>249.0</ele><time>2026-04-19T10:48:51.041Z</time></trkpt><trkpt lat="41.3475531" lon="1.620267"><ele>247.0</ele><time>2026-04-19T10:48:52.041Z</time></trkpt><trkpt lat="41.347408" lon="1.6203592"><ele>245.0</ele><time>2026-04-19T10:48:53.041Z</time></trkpt><trkpt lat="41.3472485" lon="1.6204377"><ele>243.0</ele><time>2026-04-19T10:48:54.04Z</time></trkpt><trkpt lat="41.3470831" lon="1.6205056"><ele>242.33333333333331</ele><time>2026-04-19T10:48:55.041Z</time></trkpt><trkpt lat="41.3469193" lon="1.6205739"><ele>241.66666666666666</ele><time>2026-04-19T10:48:56.041Z</time></trkpt><trkpt lat="41.3467591" lon="1.6206404"><ele>241.0</ele><time>2026-04-19T10:48:57.041Z</time></trkpt><trkpt lat="41.3466032" lon="1.6207036"><ele>241.0</ele><time>2026-04-19T10:48:58.041Z</time></trkpt><trkpt lat="41.346449" lon="1.620762"><ele>241.0</ele><time>2026-04-19T10:48:59.041Z</time></trkpt><trkpt lat="41.3462922" lon="1.6208226"><ele>241.0</ele><time>2026-04-19T10:49:00.04Z</time></trkpt><trkpt lat="41.3461408" lon="1.6208834"><ele>239.0</ele><time>2026-04-19T10:49:01.041Z</time></trkpt><trkpt lat="41.3459838" lon="1.6209495"><ele>237.0</ele><time>2026-04-19T10:49:02.041Z</time></trkpt><trkpt lat="41.345851" lon="1.6210469"><ele>235.0</ele><time>2026-04-19T10:49:03.04Z</time></trkpt><trkpt lat="41.3457115" lon="1.6211809"><ele>236.0</ele><time>2026-04-19T10:49:04.041Z</time></trkpt><trkpt lat="41.3455736" lon="1.621352"><ele>237.0</ele><time>2026-04-19T10:49:05.041Z</time></trkpt><trkpt lat="41.3454395" lon="1.6215499"><ele>238.0</ele><time>2026-04-19T10:49:06.041Z</time></trkpt><trkpt lat="41.3453175" lon="1.6217431"><ele>238.0</ele><time>2026-04-19T10:49:07.04Z</time></trkpt><trkpt lat="41.3452074" lon="1.6219289"><ele>238.0</ele><time>2026-04-19T10:49:08.04Z</time></trkpt><trkpt lat="41.3451092" lon="1.6221112"><ele>238.0</ele><time>2026-04-19T10:49:09.04Z</time></trkpt><trkpt lat="41.3450135" lon="1.6222852"><ele>236.0</ele><time>2026-04-19T10:49:10.04Z</time></trkpt><trkpt lat="41.344922" lon="1.6224523"><ele>234.0</ele><time>2026-04-19T10:49:11.04Z</time></trkpt><trkpt lat="41.3448437" lon="1.6226237"><ele>232.0</ele><time>2026-04-19T10:49:12.041Z</time></trkpt><trkpt lat="41.3447847" lon="1.6228231"><ele>231.33333333333331</ele><time>2026-04-19T10:49:13.04Z</time></trkpt><trkpt lat="41.3447363" lon="1.623057"><ele>230.66666666666669</ele><time>2026-04-19T10:49:14.041Z</time></trkpt><trkpt lat="41.344696" lon="1.6233116"><ele>230.0</ele><time>2026-04-19T10:49:15.041Z</time></trkpt><trkpt lat="41.3446609" lon="1.6235744"><ele>228.66666666666669</ele><time>2026-04-19T10:49:16.041Z</time></trkpt><trkpt lat="41.3446196" lon="1.6238449"><ele>227.33333333333331</ele><time>2026-04-19T10:49:17.038Z</time></trkpt><trkpt lat="41.3445769" lon="1.6241234"><ele>226.0</ele><time>2026-04-19T10:49:18.041Z</time></trkpt><trkpt lat="41.3445309" lon="1.6243891"><ele>225.0</ele><time>2026-04-19T10:49:19.041Z</time></trkpt><trkpt lat="41.3444857" lon="1.624664"><ele>224.0</ele><time>2026-04-19T10:49:20.04Z</time></trkpt><trkpt lat="41.34444" lon="1.6249369"><ele>223.0</ele><time>2026-04-19T10:49:21.041Z</time></trkpt><trkpt lat="41.3443933" lon="1.6252022"><ele>222.0</ele><time>2026-04-19T10:49:22.04Z</time></trkpt><trkpt lat="41.3443515" lon="1.6254669"><ele>221.0</ele><time>2026-04-19T10:49:23.04Z</time></trkpt><trkpt lat="41.3443088" lon="1.6257392"><ele>220.0</ele><time>2026-04-19T10:49:24.041Z</time></trkpt><trkpt lat="41.3442583" lon="1.6260133"><ele>219.33333333333331</ele><time>2026-04-19T10:49:25.041Z</time></trkpt><trkpt lat="41.344201" lon="1.6262871"><ele>218.66666666666669</ele><time>2026-04-19T10:49:26.041Z</time></trkpt><trkpt lat="41.3441332" lon="1.6265673"><ele>218.0</ele><time>2026-04-19T10:49:27.041Z</time></trkpt><trkpt lat="41.3440605" lon="1.6268537"><ele>218.0</ele><time>2026-04-19T10:49:28.041Z</time></trkpt><trkpt lat="41.3439864" lon="1.6271378"><ele>218.0</ele><time>2026-04-19T10:49:29.04Z</time></trkpt><trkpt lat="41.3439156" lon="1.6274071"><ele>218.0</ele><time>2026-04-19T10:49:30.041Z</time></trkpt><trkpt lat="41.3438526" lon="1.6276632"><ele>217.66666666666669</ele><time>2026-04-19T10:49:31.041Z</time></trkpt><trkpt lat="41.3437888" lon="1.6279176"><ele>217.33333333333331</ele><time>2026-04-19T10:49:32.041Z</time></trkpt><trkpt lat="41.3437191" lon="1.6281807"><ele>217.0</ele><time>2026-04-19T10:49:33.04Z</time></trkpt><trkpt lat="41.3436516" lon="1.6284434"><ele>216.66666666666666</ele><time>2026-04-19T10:49:34.041Z</time></trkpt><trkpt lat="41.3435876" lon="1.6286908"><ele>216.33333333333331</ele><time>2026-04-19T10:49:35.04Z</time></trkpt><trkpt lat="41.3435229" lon="1.628937"><ele>216.0</ele><time>2026-04-19T10:49:36.04Z</time></trkpt><trkpt lat="41.3434585" lon="1.6291825"><ele>216.0</ele><time>2026-04-19T10:49:37.041Z</time></trkpt><trkpt lat="41.3433876" lon="1.6294263"><ele>216.0</ele><time>2026-04-19T10:49:38.041Z</time></trkpt><trkpt lat="41.343309" lon="1.6296597"><ele>216.0</ele><time>2026-04-19T10:49:39.04Z</time></trkpt><trkpt lat="41.3432208" lon="1.6298773"><ele>215.66666666666669</ele><time>2026-04-19T10:49:40.04Z</time></trkpt><trkpt lat="41.3431362" lon="1.6300867"><ele>215.33333333333334</ele><time>2026-04-19T10:49:41.041Z</time></trkpt><trkpt lat="41.3430553" lon="1.630282"><ele>215.0</ele><time>2026-04-19T10:49:42.041Z</time></trkpt><trkpt lat="41.3429709" lon="1.6304749"><ele>214.0</ele><time>2026-04-19T10:49:43.041Z</time></trkpt><trkpt lat="41.3428872" lon="1.6306718"><ele>213.0</ele><time>2026-04-19T10:49:44.041Z</time></trkpt><trkpt lat="41.3428144" lon="1.6308919"><ele>212.0</ele><time>2026-04-19T10:49:45.04Z</time></trkpt><trkpt lat="41.3427508" lon="1.6311364"><ele>211.66666666666669</ele><time>2026-04-19T10:49:46.041Z</time></trkpt><trkpt lat="41.3426917" lon="1.6313797"><ele>211.33333333333331</ele><time>2026-04-19T10:49:47.041Z</time></trkpt><trkpt lat="41.3426283" lon="1.6316384"><ele>211.0</ele><time>2026-04-19T10:49:48.04Z</time></trkpt><trkpt lat="41.3425607" lon="1.6319188"><ele>211.5</ele><time>2026-04-19T10:49:49.041Z</time></trkpt><trkpt lat="41.3424928" lon="1.6322103"><ele>212.0</ele><time>2026-04-19T10:49:50.04Z</time></trkpt><trkpt lat="41.3424251" lon="1.6325004"><ele>212.0</ele><time>2026-04-19T10:49:51.04Z</time></trkpt><trkpt lat="41.3423578" lon="1.6327821"><ele>212.0</ele><time>2026-04-19T10:49:52.041Z</time></trkpt><trkpt lat="41.3422933" lon="1.6330495"><ele>212.0</ele><time>2026-04-19T10:49:53.041Z</time></trkpt><trkpt lat="41.3422332" lon="1.6333126"><ele>211.0</ele><time>2026-04-19T10:49:54.04Z</time></trkpt><trkpt lat="41.3421725" lon="1.6335582"><ele>210.0</ele><time>2026-04-19T10:49:55.041Z</time></trkpt><trkpt lat="41.3421122" lon="1.6337904"><ele>209.0</ele><time>2026-04-19T10:49:56.04Z</time></trkpt><trkpt lat="41.342055" lon="1.6340123"><ele>208.66666666666669</ele><time>2026-04-19T10:49:57.041Z</time></trkpt><trkpt lat="41.3420027" lon="1.6342199"><ele>208.33333333333331</ele><time>2026-04-19T10:49:58.04Z</time></trkpt><trkpt lat="41.3419568" lon="1.6344137"><ele>208.0</ele><time>2026-04-19T10:49:59.04Z</time></trkpt><trkpt lat="41.3419123" lon="1.6345976"><ele>208.75</ele><time>2026-04-19T10:50:00.041Z</time></trkpt><trkpt lat="41.3418665" lon="1.6347831"><ele>209.5</ele><time>2026-04-19T10:50:01.041Z</time></trkpt><trkpt lat="41.3418217" lon="1.6349659"><ele>210.25</ele><time>2026-04-19T10:50:02.041Z</time></trkpt><trkpt lat="41.3417799" lon="1.6351504"><ele>211.0</ele><time>2026-04-19T10:50:03.041Z</time></trkpt><trkpt lat="41.3417418" lon="1.6353388"><ele>211.75</ele><time>2026-04-19T10:50:04.04Z</time></trkpt><trkpt lat="41.3417163" lon="1.6355214"><ele>212.5</ele><time>2026-04-19T10:50:05.041Z</time></trkpt><trkpt lat="41.3417058" lon="1.6357217"><ele>213.25</ele><time>2026-04-19T10:50:06.041Z</time></trkpt><trkpt lat="41.3417087" lon="1.6359219"><ele>214.0</ele><time>2026-04-19T10:50:07.04Z</time></trkpt><trkpt lat="41.3417161" lon="1.6361247"><ele>214.0</ele><time>2026-04-19T10:50:08.041Z</time></trkpt><trkpt lat="41.3417242" lon="1.6363342"><ele>214.0</ele><time>2026-04-19T10:50:09.041Z</time></trkpt><trkpt lat="41.3417329" lon="1.6365487"><ele>214.0</ele><time>2026-04-19T10:50:10.041Z</time></trkpt><trkpt lat="41.3417407" lon="1.6367654"><ele>214.33333333333331</ele><time>2026-04-19T10:50:11.04Z</time></trkpt><trkpt lat="41.341749" lon="1.6369815"><ele>214.66666666666669</ele><time>2026-04-19T10:50:12.04Z</time></trkpt><trkpt lat="41.3417592" lon="1.6371972"><ele>215.0</ele><time>2026-04-19T10:50:13.041Z</time></trkpt><trkpt lat="41.3417719" lon="1.6374118"><ele>215.0</ele><time>2026-04-19T10:50:14.04Z</time></trkpt><trkpt lat="41.341783" lon="1.6376216"><ele>215.0</ele><time>2026-04-19T10:50:15.04Z</time></trkpt><trkpt lat="41.3417902" lon="1.6378337"><ele>215.0</ele><time>2026-04-19T10:50:16.041Z</time></trkpt><trkpt lat="41.3417904" lon="1.6380465"><ele>214.33333333333334</ele><time>2026-04-19T10:50:17.04Z</time></trkpt><trkpt lat="41.3417755" lon="1.6382547"><ele>213.66666666666669</ele><time>2026-04-19T10:50:18.041Z</time></trkpt><trkpt lat="41.3417499" lon="1.638464"><ele>213.0</ele><time>2026-04-19T10:50:19.041Z</time></trkpt><trkpt lat="41.3417307" lon="1.6386786"><ele>212.66666666666669</ele><time>2026-04-19T10:50:20.041Z</time></trkpt><trkpt lat="41.3417058" lon="1.6388867"><ele>212.33333333333334</ele><time>2026-04-19T10:50:21.041Z</time></trkpt><trkpt lat="41.3416803" lon="1.6390957"><ele>212.0</ele><time>2026-04-19T10:50:22.04Z</time></trkpt><trkpt lat="41.3416575" lon="1.6393115"><ele>211.66666666666669</ele><time>2026-04-19T10:50:23.041Z</time></trkpt><trkpt lat="41.3416346" lon="1.639527"><ele>211.33333333333331</ele><time>2026-04-19T10:50:24.041Z</time></trkpt><trkpt lat="41.3416138" lon="1.6397434"><ele>211.0</ele><time>2026-04-19T10:50:25.041Z</time></trkpt><trkpt lat="41.3415839" lon="1.6399619"><ele>211.0</ele><time>2026-04-19T10:50:26.041Z</time></trkpt><trkpt lat="41.3415425" lon="1.6401765"><ele>211.0</ele><time>2026-04-19T10:50:27.04Z</time></trkpt><trkpt lat="41.341487" lon="1.6403885"><ele>211.0</ele><time>2026-04-19T10:50:28.041Z</time></trkpt><trkpt lat="41.3414198" lon="1.6406"><ele>209.0</ele><time>2026-04-19T10:50:29.041Z</time></trkpt><trkpt lat="41.341352" lon="1.6408088"><ele>207.0</ele><time>2026-04-19T10:50:30.04Z</time></trkpt><trkpt lat="41.3412809" lon="1.6410206"><ele>205.0</ele><time>2026-04-19T10:50:31.041Z</time></trkpt><trkpt lat="41.3412127" lon="1.6412341"><ele>205.0</ele><time>2026-04-19T10:50:32.04Z</time></trkpt><trkpt lat="41.3411442" lon="1.641451"><ele>205.0</ele><time>2026-04-19T10:50:33.041Z</time></trkpt><trkpt lat="41.3410732" lon="1.6416681"><ele>205.0</ele><time>2026-04-19T10:50:34.041Z</time></trkpt><trkpt lat="41.341004" lon="1.6418802"><ele>205.33333333333331</ele><time>2026-04-19T10:50:35.041Z</time></trkpt><trkpt lat="41.3409346" lon="1.6420892"><ele>205.66666666666669</ele><time>2026-04-19T10:50:36.04Z</time></trkpt><trkpt lat="41.3408742" lon="1.6422997"><ele>206.0</ele><time>2026-04-19T10:50:37.041Z</time></trkpt><trkpt lat="41.3408176" lon="1.6425112"><ele>206.0</ele><time>2026-04-19T10:50:38.041Z</time></trkpt><trkpt lat="41.3407622" lon="1.6427317"><ele>206.0</ele><time>2026-04-19T10:50:39.04Z</time></trkpt><trkpt lat="41.3407093" lon="1.6429462"><ele>206.0</ele><time>2026-04-19T10:50:40.041Z</time></trkpt><trkpt lat="41.3406579" lon="1.6431606"><ele>206.66666666666669</ele><time>2026-04-19T10:50:41.041Z</time></trkpt><trkpt lat="41.3406073" lon="1.6433706"><ele>207.33333333333331</ele><time>2026-04-19T10:50:42.041Z</time></trkpt><trkpt lat="41.340558" lon="1.6435859"><ele>208.0</ele><time>2026-04-19T10:50:43.041Z</time></trkpt><trkpt lat="41.3405063" lon="1.6437908"><ele>208.0</ele><time>2026-04-19T10:50:44.041Z</time></trkpt><trkpt lat="41.3404598" lon="1.6439831"><ele>208.0</ele><time>2026-04-19T10:50:45.041Z</time></trkpt><trkpt lat="41.3404049" lon="1.6441597"><ele>208.0</ele><time>2026-04-19T10:50:46.04Z</time></trkpt><trkpt lat="41.3403333" lon="1.6443216"><ele>208.0</ele><time>2026-04-19T10:50:47.04Z</time></trkpt><trkpt lat="41.3402375" lon="1.644467"><ele>208.33333333333331</ele><time>2026-04-19T10:50:48.041Z</time></trkpt><trkpt lat="41.340113" lon="1.6445947"><ele>208.66666666666669</ele><time>2026-04-19T10:50:49.041Z</time></trkpt><trkpt lat="41.3399663" lon="1.6447113"><ele>209.0</ele><time>2026-04-19T10:50:50.041Z</time></trkpt><trkpt lat="41.3398113" lon="1.6448269"><ele>209.0</ele><time>2026-04-19T10:50:51.041Z</time></trkpt><trkpt lat="41.3396484" lon="1.6449517"><ele>209.0</ele><time>2026-04-19T10:50:52.041Z</time></trkpt><trkpt lat="41.3394843" lon="1.6450768"><ele>209.0</ele><time>2026-04-19T10:50:53.041Z</time></trkpt><trkpt lat="41.339325" lon="1.6451952"><ele>207.66666666666669</ele><time>2026-04-19T10:50:54.041Z</time></trkpt><trkpt lat="41.3391605" lon="1.6453171"><ele>206.33333333333331</ele><time>2026-04-19T10:50:55.041Z</time></trkpt><trkpt lat="41.3389926" lon="1.6454452"><ele>205.0</ele><time>2026-04-19T10:50:56.04Z</time></trkpt><trkpt lat="41.3388188" lon="1.6455766"><ele>205.0</ele><time>2026-04-19T10:50:57.041Z</time></trkpt><trkpt lat="41.3386506" lon="1.6457035"><ele>205.0</ele><time>2026-04-19T10:50:58.04Z</time></trkpt><trkpt lat="41.3384807" lon="1.6458358"><ele>205.0</ele><time>2026-04-19T10:50:59.041Z</time></trkpt><trkpt lat="41.3383131" lon="1.6459673"><ele>205.0</ele><time>2026-04-19T10:51:00.041Z</time></trkpt><trkpt lat="41.3381513" lon="1.6460943"><ele>205.0</ele><time>2026-04-19T10:51:01.04Z</time></trkpt><trkpt lat="41.3379996" lon="1.6462081"><ele>205.0</ele><time>2026-04-19T10:51:02.04Z</time></trkpt><trkpt lat="41.3378552" lon="1.6463214"><ele>205.33333333333331</ele><time>2026-04-19T10:51:03.041Z</time></trkpt><trkpt lat="41.3377196" lon="1.6464316"><ele>205.66666666666669</ele><time>2026-04-19T10:51:04.041Z</time></trkpt><trkpt lat="41.337591" lon="1.6465355"><ele>206.0</ele><time>2026-04-19T10:51:05.04Z</time></trkpt><trkpt lat="41.3374626" lon="1.646644"><ele>206.0</ele><time>2026-04-19T10:51:06.04Z</time></trkpt><trkpt lat="41.3373336" lon="1.6467492"><ele>206.0</ele><time>2026-04-19T10:51:07.041Z</time></trkpt><trkpt lat="41.3372083" lon="1.6468392"><ele>206.0</ele><time>2026-04-19T10:51:08.041Z</time></trkpt><trkpt lat="41.3370996" lon="1.6469158"><ele>206.0</ele><time>2026-04-19T10:51:09.041Z</time></trkpt><trkpt lat="41.3369977" lon="1.6469932"><ele>206.0</ele><time>2026-04-19T10:51:10.041Z</time></trkpt><trkpt lat="41.3369014" lon="1.6470579"><ele>206.0</ele><time>2026-04-19T10:51:11.041Z</time></trkpt><trkpt lat="41.336807" lon="1.6471234"><ele>206.0</ele><time>2026-04-19T10:51:12.04Z</time></trkpt><trkpt lat="41.3367122" lon="1.6471869"><ele>206.0</ele><time>2026-04-19T10:51:13.041Z</time></trkpt><trkpt lat="41.3366126" lon="1.6472544"><ele>206.0</ele><time>2026-04-19T10:51:14.04Z</time></trkpt><trkpt lat="41.3365201" lon="1.6473139"><ele>206.0</ele><time>2026-04-19T10:51:15.041Z</time></trkpt><trkpt lat="41.3364326" lon="1.6473767"><ele>206.0</ele><time>2026-04-19T10:51:16.04Z</time></trkpt><trkpt lat="41.3363504" lon="1.6474345"><ele>206.0</ele><time>2026-04-19T10:51:17.041Z</time></trkpt><trkpt lat="41.3362671" lon="1.6474908"><ele>206.0</ele><time>2026-04-19T10:51:18.04Z</time></trkpt><trkpt lat="41.3361736" lon="1.6475532"><ele>206.0</ele><time>2026-04-19T10:51:19.041Z</time></trkpt><trkpt lat="41.3360698" lon="1.6476219"><ele>205.25</ele><time>2026-04-19T10:51:20.04Z</time></trkpt><trkpt lat="41.3359596" lon="1.6476904"><ele>204.5</ele><time>2026-04-19T10:51:21.041Z</time></trkpt><trkpt lat="41.3358432" lon="1.6477515"><ele>203.75</ele><time>2026-04-19T10:51:22.041Z</time></trkpt><trkpt lat="41.3357311" lon="1.6477978"><ele>203.0</ele><time>2026-04-19T10:51:23.041Z</time></trkpt><trkpt lat="41.3356216" lon="1.6478352"><ele>202.2</ele><time>2026-04-19T10:51:24.04Z</time></trkpt><trkpt lat="41.3355202" lon="1.6478746"><ele>201.4</ele><time>2026-04-19T10:51:25.041Z</time></trkpt><trkpt lat="41.3354202" lon="1.6479215"><ele>200.6</ele><time>2026-04-19T10:51:26.04Z</time></trkpt><trkpt lat="41.3353237" lon="1.6479803"><ele>199.79999999999998</ele><time>2026-04-19T10:51:27.041Z</time></trkpt><trkpt lat="41.3352375" lon="1.6480657"><ele>199.0</ele><time>2026-04-19T10:51:28.041Z</time></trkpt><trkpt lat="41.335161" lon="1.6481674"><ele>199.0</ele><time>2026-04-19T10:51:29.04Z</time></trkpt><trkpt lat="41.3350994" lon="1.6482808"><ele>199.0</ele><time>2026-04-19T10:51:30.041Z</time></trkpt><trkpt lat="41.3350521" lon="1.6483991"><ele>199.0</ele><time>2026-04-19T10:51:31.041Z</time></trkpt><trkpt lat="41.334999" lon="1.6485077"><ele>199.0</ele><time>2026-04-19T10:51:32.041Z</time></trkpt><trkpt lat="41.3349302" lon="1.6485882"><ele>199.0</ele><time>2026-04-19T10:51:33.041Z</time></trkpt><trkpt lat="41.3348494" lon="1.6486367"><ele>198.79999999999998</ele><time>2026-04-19T10:51:34.041Z</time></trkpt><trkpt lat="41.3347539" lon="1.6486611"><ele>198.6</ele><time>2026-04-19T10:51:35.041Z</time></trkpt><trkpt lat="41.3346599" lon="1.6487011"><ele>198.4</ele><time>2026-04-19T10:51:36.04Z</time></trkpt><trkpt lat="41.3345698" lon="1.6487701"><ele>198.2</ele><time>2026-04-19T10:51:37.041Z</time></trkpt><trkpt lat="41.3344875" lon="1.6488757"><ele>198.0</ele><time>2026-04-19T10:51:38.04Z</time></trkpt><trkpt lat="41.3344012" lon="1.648988"><ele>198.0</ele><time>2026-04-19T10:51:39.041Z</time></trkpt><trkpt lat="41.3342947" lon="1.6490761"><ele>198.0</ele><time>2026-04-19T10:51:40.041Z</time></trkpt><trkpt lat="41.3341825" lon="1.6491508"><ele>198.0</ele><time>2026-04-19T10:51:41.04Z</time></trkpt><trkpt lat="41.3340753" lon="1.6492221"><ele>198.0</ele><time>2026-04-19T10:51:42.04Z</time></trkpt><trkpt lat="41.3339698" lon="1.6492904"><ele>198.0</ele><time>2026-04-19T10:51:43.041Z</time></trkpt><trkpt lat="41.3338734" lon="1.6493501"><ele>198.0</ele><time>2026-04-19T10:51:44.041Z</time></trkpt><trkpt lat="41.333787" lon="1.6494052"><ele>198.0</ele><time>2026-04-19T10:51:45.041Z</time></trkpt><trkpt lat="41.3337064" lon="1.6494629"><ele>198.0</ele><time>2026-04-19T10:51:46.041Z</time></trkpt><trkpt lat="41.3336261" lon="1.6495247"><ele>198.0</ele><time>2026-04-19T10:51:47.04Z</time></trkpt><trkpt lat="41.3335461" lon="1.649596"><ele>198.0</ele><time>2026-04-19T10:51:48.04Z</time></trkpt><trkpt lat="41.3334654" lon="1.6496818"><ele>198.0</ele><time>2026-04-19T10:51:49.041Z</time></trkpt><trkpt lat="41.3333804" lon="1.6497649"><ele>198.0</ele><time>2026-04-19T10:51:50.041Z</time></trkpt><trkpt lat="41.3332936" lon="1.6498521"><ele>198.0</ele><time>2026-04-19T10:51:51.041Z</time></trkpt><trkpt lat="41.3332091" lon="1.6499417"><ele>198.0</ele><time>2026-04-19T10:51:52.041Z</time></trkpt><trkpt lat="41.3331226" lon="1.6500277"><ele>198.0</ele><time>2026-04-19T10:51:53.041Z</time></trkpt><trkpt lat="41.3330374" lon="1.6501182"><ele>198.0</ele><time>2026-04-19T10:51:54.041Z</time></trkpt><trkpt lat="41.3329562" lon="1.6502063"><ele>198.0</ele><time>2026-04-19T10:51:55.041Z</time></trkpt><trkpt lat="41.3328823" lon="1.6502872"><ele>198.0</ele><time>2026-04-19T10:51:56.041Z</time></trkpt><trkpt lat="41.3328172" lon="1.6503595"><ele>198.0</ele><time>2026-04-19T10:51:57.041Z</time></trkpt><trkpt lat="41.332751" lon="1.6504299"><ele>198.0</ele><time>2026-04-19T10:51:58.04Z</time></trkpt><trkpt lat="41.3326823" lon="1.6504902"><ele>198.0</ele><time>2026-04-19T10:51:59.041Z</time></trkpt><trkpt lat="41.332608" lon="1.6505503"><ele>198.0</ele><time>2026-04-19T10:52:00.041Z</time></trkpt><trkpt lat="41.3325354" lon="1.6505996"><ele>198.0</ele><time>2026-04-19T10:52:01.041Z</time></trkpt><trkpt lat="41.3324761" lon="1.6506379"><ele>198.0</ele><time>2026-04-19T10:52:02.041Z</time></trkpt><trkpt lat="41.3323692" lon="1.6507009"><ele>198.0</ele><time>2026-04-19T10:52:04.041Z</time></trkpt><trkpt lat="41.3322614" lon="1.6507655"><ele>198.0</ele><time>2026-04-19T10:52:06.041Z</time></trkpt><trkpt lat="41.332202" lon="1.6507953"><ele>198.0</ele><time>2026-04-19T10:52:07.041Z</time></trkpt><trkpt lat="41.3321401" lon="1.6508351"><ele>198.0</ele><time>2026-04-19T10:52:08.041Z</time></trkpt><trkpt lat="41.3320731" lon="1.6508769"><ele>198.0</ele><time>2026-04-19T10:52:09.041Z</time></trkpt><trkpt lat="41.3320047" lon="1.6509239"><ele>198.0</ele><time>2026-04-19T10:52:10.04Z</time></trkpt><trkpt lat="41.3319314" lon="1.6509665"><ele>198.0</ele><time>2026-04-19T10:52:11.041Z</time></trkpt><trkpt lat="41.3318559" lon="1.6510107"><ele>198.0</ele><time>2026-04-19T10:52:12.041Z</time></trkpt><trkpt lat="41.3317746" lon="1.6510539"><ele>198.0</ele><time>2026-04-19T10:52:13.04Z</time></trkpt><trkpt lat="41.3316939" lon="1.6511036"><ele>198.0</ele><time>2026-04-19T10:52:14.04Z</time></trkpt><trkpt lat="41.3316068" lon="1.6511509"><ele>198.0</ele><time>2026-04-19T10:52:15.04Z</time></trkpt><trkpt lat="41.3315172" lon="1.6511963"><ele>198.0</ele><time>2026-04-19T10:52:16.041Z</time></trkpt><trkpt lat="41.3314251" lon="1.6512463"><ele>198.0</ele><time>2026-04-19T10:52:17.041Z</time></trkpt><trkpt lat="41.3313321" lon="1.6513059"><ele>196.5</ele><time>2026-04-19T10:52:18.04Z</time></trkpt><trkpt lat="41.3312301" lon="1.6513684"><ele>195.0</ele><time>2026-04-19T10:52:19.04Z</time></trkpt><trkpt lat="41.3311267" lon="1.6514312"><ele>193.5</ele><time>2026-04-19T10:52:20.041Z</time></trkpt><trkpt lat="41.3310222" lon="1.6515003"><ele>192.0</ele><time>2026-04-19T10:52:21.04Z</time></trkpt><trkpt lat="41.3309171" lon="1.6515747"><ele>192.0</ele><time>2026-04-19T10:52:22.04Z</time></trkpt><trkpt lat="41.3308125" lon="1.6516544"><ele>192.0</ele><time>2026-04-19T10:52:23.04Z</time></trkpt><trkpt lat="41.3307119" lon="1.6517262"><ele>192.0</ele><time>2026-04-19T10:52:24.041Z</time></trkpt><trkpt lat="41.3306226" lon="1.6517918"><ele>192.0</ele><time>2026-04-19T10:52:25.04Z</time></trkpt><trkpt lat="41.3305419" lon="1.6518553"><ele>192.0</ele><time>2026-04-19T10:52:26.04Z</time></trkpt><trkpt lat="41.3304688" lon="1.6519046"><ele>192.0</ele><time>2026-04-19T10:52:27.04Z</time></trkpt><trkpt lat="41.3304054" lon="1.6519483"><ele>192.0</ele><time>2026-04-19T10:52:28.04Z</time></trkpt><trkpt lat="41.3302846" lon="1.6520035"><ele>192.0</ele><time>2026-04-19T10:52:30.041Z</time></trkpt><trkpt lat="41.3302062" lon="1.6520018"><ele>192.0</ele><time>2026-04-19T10:52:31.041Z</time></trkpt><trkpt lat="41.3301177" lon="1.6519877"><ele>192.0</ele><time>2026-04-19T10:52:32.041Z</time></trkpt><trkpt lat="41.3300264" lon="1.6519359"><ele>191.75</ele><time>2026-04-19T10:52:33.041Z</time></trkpt><trkpt lat="41.3299371" lon="1.6518616"><ele>191.5</ele><time>2026-04-19T10:52:34.041Z</time></trkpt><trkpt lat="41.3298512" lon="1.6517465"><ele>191.25</ele><time>2026-04-19T10:52:35.04Z</time></trkpt><trkpt lat="41.3297664" lon="1.6516278"><ele>191.0</ele><time>2026-04-19T10:52:36.041Z</time></trkpt><trkpt lat="41.3296865" lon="1.6515091"><ele>190.75</ele><time>2026-04-19T10:52:37.04Z</time></trkpt><trkpt lat="41.3295963" lon="1.6513835"><ele>190.5</ele><time>2026-04-19T10:52:38.04Z</time></trkpt><trkpt lat="41.3295058" lon="1.6512477"><ele>190.25</ele><time>2026-04-19T10:52:39.04Z</time></trkpt><trkpt lat="41.3294115" lon="1.6510868"><ele>190.0</ele><time>2026-04-19T10:52:40.041Z</time></trkpt><trkpt lat="41.3293191" lon="1.6509199"><ele>189.0</ele><time>2026-04-19T10:52:41.041Z</time></trkpt><trkpt lat="41.3292301" lon="1.6507434"><ele>188.0</ele><time>2026-04-19T10:52:42.041Z</time></trkpt><trkpt lat="41.329142" lon="1.6505713"><ele>187.0</ele><time>2026-04-19T10:52:43.041Z</time></trkpt><trkpt lat="41.329053" lon="1.6503966"><ele>186.66666666666669</ele><time>2026-04-19T10:52:44.04Z</time></trkpt><trkpt lat="41.3289682" lon="1.6502089"><ele>186.33333333333334</ele><time>2026-04-19T10:52:45.04Z</time></trkpt><trkpt lat="41.3288861" lon="1.6500126"><ele>186.0</ele><time>2026-04-19T10:52:46.041Z</time></trkpt><trkpt lat="41.3288045" lon="1.6498143"><ele>186.0</ele><time>2026-04-19T10:52:47.04Z</time></trkpt><trkpt lat="41.3287247" lon="1.649601"><ele>186.0</ele><time>2026-04-19T10:52:48.04Z</time></trkpt><trkpt lat="41.3286503" lon="1.6493914"><ele>186.0</ele><time>2026-04-19T10:52:49.041Z</time></trkpt><trkpt lat="41.3285798" lon="1.6491786"><ele>185.0</ele><time>2026-04-19T10:52:50.04Z</time></trkpt><trkpt lat="41.3285168" lon="1.6489685"><ele>184.0</ele><time>2026-04-19T10:52:51.041Z</time></trkpt><trkpt lat="41.3284592" lon="1.6487643"><ele>183.0</ele><time>2026-04-19T10:52:52.04Z</time></trkpt><trkpt lat="41.3284074" lon="1.6485672"><ele>182.5</ele><time>2026-04-19T10:52:53.041Z</time></trkpt><trkpt lat="41.3283594" lon="1.6483834"><ele>182.0</ele><time>2026-04-19T10:52:54.041Z</time></trkpt><trkpt lat="41.328315" lon="1.648209"><ele>181.5</ele><time>2026-04-19T10:52:55.04Z</time></trkpt><trkpt lat="41.3282704" lon="1.6480389"><ele>181.0</ele><time>2026-04-19T10:52:56.041Z</time></trkpt><trkpt lat="41.3282226" lon="1.6478653"><ele>180.25</ele><time>2026-04-19T10:52:57.04Z</time></trkpt><trkpt lat="41.3281664" lon="1.6476901"><ele>179.5</ele><time>2026-04-19T10:52:58.041Z</time></trkpt><trkpt lat="41.3281075" lon="1.6475159"><ele>178.75</ele><time>2026-04-19T10:52:59.04Z</time></trkpt><trkpt lat="41.3280419" lon="1.6473451"><ele>178.0</ele><time>2026-04-19T10:53:00.04Z</time></trkpt><trkpt lat="41.327971" lon="1.6471652"><ele>177.66666666666669</ele><time>2026-04-19T10:53:01.041Z</time></trkpt><trkpt lat="41.3278963" lon="1.6469915"><ele>177.33333333333334</ele><time>2026-04-19T10:53:02.04Z</time></trkpt><trkpt lat="41.3278163" lon="1.6468115"><ele>177.0</ele><time>2026-04-19T10:53:03.041Z</time></trkpt><trkpt lat="41.3277258" lon="1.6466202"><ele>176.66666666666666</ele><time>2026-04-19T10:53:04.041Z</time></trkpt><trkpt lat="41.327633" lon="1.6464299"><ele>176.33333333333331</ele><time>2026-04-19T10:53:05.04Z</time></trkpt><trkpt lat="41.3275371" lon="1.6462517"><ele>176.0</ele><time>2026-04-19T10:53:06.041Z</time></trkpt><trkpt lat="41.3274341" lon="1.646072"><ele>176.0</ele><time>2026-04-19T10:53:07.04Z</time></trkpt><trkpt lat="41.3273249" lon="1.6458977"><ele>176.0</ele><time>2026-04-19T10:53:08.041Z</time></trkpt><trkpt lat="41.327215" lon="1.6457367"><ele>176.0</ele><time>2026-04-19T10:53:09.041Z</time></trkpt><trkpt lat="41.3270999" lon="1.6455836"><ele>176.0</ele><time>2026-04-19T10:53:10.041Z</time></trkpt><trkpt lat="41.3269844" lon="1.6454375"><ele>176.0</ele><time>2026-04-19T10:53:11.04Z</time></trkpt><trkpt lat="41.326858" lon="1.645289"><ele>176.0</ele><time>2026-04-19T10:53:12.04Z</time></trkpt><trkpt lat="41.3267263" lon="1.6451434"><ele>175.66666666666666</ele><time>2026-04-19T10:53:13.041Z</time></trkpt><trkpt lat="41.326583" lon="1.6450092"><ele>175.33333333333334</ele><time>2026-04-19T10:53:14.04Z</time></trkpt><trkpt lat="41.3264366" lon="1.6448716"><ele>175.0</ele><time>2026-04-19T10:53:15.04Z</time></trkpt><trkpt lat="41.3262816" lon="1.6447369"><ele>175.0</ele><time>2026-04-19T10:53:16.04Z</time></trkpt><trkpt lat="41.3261119" lon="1.6446086"><ele>175.0</ele><time>2026-04-19T10:53:17.04Z</time></trkpt><trkpt lat="41.3259333" lon="1.644484"><ele>175.0</ele><time>2026-04-19T10:53:18.041Z</time></trkpt><trkpt lat="41.3257561" lon="1.64437"><ele>176.0</ele><time>2026-04-19T10:53:19.041Z</time></trkpt><trkpt lat="41.3255792" lon="1.6442698"><ele>177.0</ele><time>2026-04-19T10:53:20.041Z</time></trkpt><trkpt lat="41.3253998" lon="1.6441827"><ele>178.0</ele><time>2026-04-19T10:53:21.041Z</time></trkpt><trkpt lat="41.3252208" lon="1.6441082"><ele>178.33333333333334</ele><time>2026-04-19T10:53:22.04Z</time></trkpt><trkpt lat="41.3250387" lon="1.6440418"><ele>178.66666666666666</ele><time>2026-04-19T10:53:23.041Z</time></trkpt><trkpt lat="41.3248465" lon="1.6439863"><ele>179.0</ele><time>2026-04-19T10:53:24.041Z</time></trkpt><trkpt lat="41.3246477" lon="1.6439368"><ele>179.0</ele><time>2026-04-19T10:53:25.04Z</time></trkpt><trkpt lat="41.3244413" lon="1.6439002"><ele>179.0</ele><time>2026-04-19T10:53:26.04Z</time></trkpt><trkpt lat="41.3242271" lon="1.6438669"><ele>179.0</ele><time>2026-04-19T10:53:27.041Z</time></trkpt><trkpt lat="41.3240107" lon="1.6438534"><ele>178.33333333333331</ele><time>2026-04-19T10:53:28.04Z</time></trkpt><trkpt lat="41.3237981" lon="1.643854"><ele>177.66666666666666</ele><time>2026-04-19T10:53:29.041Z</time></trkpt><trkpt lat="41.3235887" lon="1.6438654"><ele>177.0</ele><time>2026-04-19T10:53:30.041Z</time></trkpt><trkpt lat="41.323381" lon="1.6438908"><ele>177.0</ele><time>2026-04-19T10:53:31.04Z</time></trkpt><trkpt lat="41.3231713" lon="1.6439165"><ele>177.0</ele><time>2026-04-19T10:53:32.04Z</time></trkpt><trkpt lat="41.322966" lon="1.6439531"><ele>177.0</ele><time>2026-04-19T10:53:33.04Z</time></trkpt><trkpt lat="41.3227649" lon="1.6439877"><ele>177.0</ele><time>2026-04-19T10:53:34.041Z</time></trkpt><trkpt lat="41.322561" lon="1.6440181"><ele>177.0</ele><time>2026-04-19T10:53:35.041Z</time></trkpt><trkpt lat="41.3223549" lon="1.6440453"><ele>177.0</ele><time>2026-04-19T10:53:36.041Z</time></trkpt><trkpt lat="41.3221561" lon="1.6440563"><ele>175.33333333333334</ele><time>2026-04-19T10:53:37.04Z</time></trkpt><trkpt lat="41.3219486" lon="1.644059"><ele>173.66666666666669</ele><time>2026-04-19T10:53:38.04Z</time></trkpt><trkpt lat="41.3217383" lon="1.6440509"><ele>172.0</ele><time>2026-04-19T10:53:39.041Z</time></trkpt><trkpt lat="41.3215258" lon="1.6440278"><ele>171.0</ele><time>2026-04-19T10:53:40.041Z</time></trkpt><trkpt lat="41.3213181" lon="1.6439974"><ele>170.0</ele><time>2026-04-19T10:53:41.04Z</time></trkpt><trkpt lat="41.3211196" lon="1.6439537"><ele>169.0</ele><time>2026-04-19T10:53:42.041Z</time></trkpt><trkpt lat="41.3209234" lon="1.6438912"><ele>169.0</ele><time>2026-04-19T10:53:43.041Z</time></trkpt><trkpt lat="41.3207307" lon="1.6438235"><ele>169.0</ele><time>2026-04-19T10:53:44.041Z</time></trkpt><trkpt lat="41.3205343" lon="1.6437399"><ele>169.0</ele><time>2026-04-19T10:53:45.041Z</time></trkpt><trkpt lat="41.3203391" lon="1.6436414"><ele>168.0</ele><time>2026-04-19T10:53:46.041Z</time></trkpt><trkpt lat="41.3201448" lon="1.6435341"><ele>167.0</ele><time>2026-04-19T10:53:47.041Z</time></trkpt><trkpt lat="41.3199522" lon="1.6434062"><ele>166.0</ele><time>2026-04-19T10:53:48.04Z</time></trkpt><trkpt lat="41.3197531" lon="1.6432673"><ele>165.0</ele><time>2026-04-19T10:53:49.041Z</time></trkpt><trkpt lat="41.3195651" lon="1.6431205"><ele>164.0</ele><time>2026-04-19T10:53:50.041Z</time></trkpt><trkpt lat="41.3193861" lon="1.6429713"><ele>163.0</ele><time>2026-04-19T10:53:51.041Z</time></trkpt><trkpt lat="41.3192061" lon="1.6428172"><ele>163.33333333333334</ele><time>2026-04-19T10:53:52.041Z</time></trkpt><trkpt lat="41.3190237" lon="1.6426604"><ele>163.66666666666666</ele><time>2026-04-19T10:53:53.04Z</time></trkpt><trkpt lat="41.318842" lon="1.642508"><ele>164.0</ele><time>2026-04-19T10:53:54.04Z</time></trkpt><trkpt lat="41.3186544" lon="1.6423513"><ele>162.66666666666666</ele><time>2026-04-19T10:53:55.041Z</time></trkpt><trkpt lat="41.3184643" lon="1.6421992"><ele>161.33333333333334</ele><time>2026-04-19T10:53:56.041Z</time></trkpt><trkpt lat="41.3182761" lon="1.6420564"><ele>160.0</ele><time>2026-04-19T10:53:57.041Z</time></trkpt><trkpt lat="41.3180864" lon="1.6419249"><ele>160.33333333333334</ele><time>2026-04-19T10:53:58.041Z</time></trkpt><trkpt lat="41.3178891" lon="1.641792"><ele>160.66666666666666</ele><time>2026-04-19T10:53:59.04Z</time></trkpt><trkpt lat="41.3176911" lon="1.6416657"><ele>161.0</ele><time>2026-04-19T10:54:00.041Z</time></trkpt><trkpt lat="41.3174984" lon="1.6415441"><ele>161.0</ele><time>2026-04-19T10:54:01.04Z</time></trkpt><trkpt lat="41.317302" lon="1.6414323"><ele>161.0</ele><time>2026-04-19T10:54:02.041Z</time></trkpt><trkpt lat="41.3171064" lon="1.6413285"><ele>161.0</ele><time>2026-04-19T10:54:03.041Z</time></trkpt><trkpt lat="41.3169004" lon="1.641233"><ele>160.66666666666666</ele><time>2026-04-19T10:54:04.04Z</time></trkpt><trkpt lat="41.3166939" lon="1.6411385"><ele>160.33333333333334</ele><time>2026-04-19T10:54:05.041Z</time></trkpt><trkpt lat="41.3164914" lon="1.6410574"><ele>160.0</ele><time>2026-04-19T10:54:06.04Z</time></trkpt><trkpt lat="41.3162863" lon="1.6409804"><ele>160.0</ele><time>2026-04-19T10:54:07.04Z</time></trkpt><trkpt lat="41.3160792" lon="1.6409064"><ele>160.0</ele><time>2026-04-19T10:54:08.041Z</time></trkpt><trkpt lat="41.3158697" lon="1.6408438"><ele>160.0</ele><time>2026-04-19T10:54:09.04Z</time></trkpt><trkpt lat="41.3156583" lon="1.6407853"><ele>159.0</ele><time>2026-04-19T10:54:10.041Z</time></trkpt><trkpt lat="41.3154537" lon="1.640732"><ele>158.0</ele><time>2026-04-19T10:54:11.041Z</time></trkpt><trkpt lat="41.3152468" lon="1.6406891"><ele>157.0</ele><time>2026-04-19T10:54:12.04Z</time></trkpt><trkpt lat="41.3150382" lon="1.6406477"><ele>157.0</ele><time>2026-04-19T10:54:13.041Z</time></trkpt><trkpt lat="41.3148319" lon="1.6406108"><ele>157.0</ele><time>2026-04-19T10:54:14.041Z</time></trkpt><trkpt lat="41.3146192" lon="1.6405763"><ele>157.0</ele><time>2026-04-19T10:54:15.041Z</time></trkpt><trkpt lat="41.3144055" lon="1.6405417"><ele>156.66666666666669</ele><time>2026-04-19T10:54:16.04Z</time></trkpt><trkpt lat="41.3141927" lon="1.6405106"><ele>156.33333333333334</ele><time>2026-04-19T10:54:17.04Z</time></trkpt><trkpt lat="41.3139765" lon="1.6404743"><ele>156.0</ele><time>2026-04-19T10:54:18.04Z</time></trkpt><trkpt lat="41.3137599" lon="1.6404375"><ele>156.66666666666666</ele><time>2026-04-19T10:54:19.041Z</time></trkpt><trkpt lat="41.3135436" lon="1.640393"><ele>157.33333333333331</ele><time>2026-04-19T10:54:20.041Z</time></trkpt><trkpt lat="41.3133299" lon="1.6403451"><ele>158.0</ele><time>2026-04-19T10:54:21.041Z</time></trkpt><trkpt lat="41.3131131" lon="1.6402901"><ele>158.33333333333331</ele><time>2026-04-19T10:54:22.041Z</time></trkpt><trkpt lat="41.3128975" lon="1.6402274"><ele>158.66666666666666</ele><time>2026-04-19T10:54:23.041Z</time></trkpt><trkpt lat="41.3126848" lon="1.6401548"><ele>159.0</ele><time>2026-04-19T10:54:24.041Z</time></trkpt><trkpt lat="41.3124706" lon="1.6400777"><ele>159.0</ele><time>2026-04-19T10:54:25.041Z</time></trkpt><trkpt lat="41.3122524" lon="1.6399935"><ele>159.0</ele><time>2026-04-19T10:54:26.041Z</time></trkpt><trkpt lat="41.3120397" lon="1.6398969"><ele>158.0</ele><time>2026-04-19T10:54:27.041Z</time></trkpt><trkpt lat="41.3118308" lon="1.6397951"><ele>157.0</ele><time>2026-04-19T10:54:28.041Z</time></trkpt><trkpt lat="41.3116214" lon="1.6396805"><ele>156.0</ele><time>2026-04-19T10:54:29.04Z</time></trkpt><trkpt lat="41.3114154" lon="1.6395624"><ele>155.66666666666666</ele><time>2026-04-19T10:54:30.04Z</time></trkpt><trkpt lat="41.3112136" lon="1.6394327"><ele>155.33333333333331</ele><time>2026-04-19T10:54:31.04Z</time></trkpt><trkpt lat="41.311015" lon="1.6393069"><ele>155.0</ele><time>2026-04-19T10:54:32.041Z</time></trkpt><trkpt lat="41.3108196" lon="1.639172"><ele>155.0</ele><time>2026-04-19T10:54:33.04Z</time></trkpt><trkpt lat="41.3106282" lon="1.6390348"><ele>155.0</ele><time>2026-04-19T10:54:34.041Z</time></trkpt><trkpt lat="41.3104377" lon="1.6388892"><ele>155.0</ele><time>2026-04-19T10:54:35.041Z</time></trkpt><trkpt lat="41.310249" lon="1.6387403"><ele>154.33333333333331</ele><time>2026-04-19T10:54:36.041Z</time></trkpt><trkpt lat="41.310062" lon="1.6385804"><ele>153.66666666666666</ele><time>2026-04-19T10:54:37.041Z</time></trkpt><trkpt lat="41.3098765" lon="1.6384193"><ele>153.0</ele><time>2026-04-19T10:54:38.041Z</time></trkpt><trkpt lat="41.3096969" lon="1.6382481"><ele>152.0</ele><time>2026-04-19T10:54:39.04Z</time></trkpt><trkpt lat="41.309522" lon="1.63807"><ele>151.0</ele><time>2026-04-19T10:54:40.04Z</time></trkpt><trkpt lat="41.3093485" lon="1.6378872"><ele>150.0</ele><time>2026-04-19T10:54:41.04Z</time></trkpt><trkpt lat="41.3091789" lon="1.6376983"><ele>150.0</ele><time>2026-04-19T10:54:42.04Z</time></trkpt><trkpt lat="41.3090153" lon="1.6375029"><ele>150.0</ele><time>2026-04-19T10:54:43.04Z</time></trkpt><trkpt lat="41.3088502" lon="1.6373113"><ele>150.0</ele><time>2026-04-19T10:54:44.04Z</time></trkpt><trkpt lat="41.3086912" lon="1.6371167"><ele>150.0</ele><time>2026-04-19T10:54:45.04Z</time></trkpt><trkpt lat="41.3085357" lon="1.6369262"><ele>150.0</ele><time>2026-04-19T10:54:46.04Z</time></trkpt><trkpt lat="41.3083834" lon="1.636743"><ele>150.0</ele><time>2026-04-19T10:54:47.04Z</time></trkpt><trkpt lat="41.3082272" lon="1.6365531"><ele>150.0</ele><time>2026-04-19T10:54:48.04Z</time></trkpt><trkpt lat="41.3080677" lon="1.6363716"><ele>150.0</ele><time>2026-04-19T10:54:49.04Z</time></trkpt><trkpt lat="41.3079003" lon="1.6361928"><ele>150.0</ele><time>2026-04-19T10:54:50.041Z</time></trkpt><trkpt lat="41.3077282" lon="1.6360228"><ele>149.33333333333334</ele><time>2026-04-19T10:54:51.041Z</time></trkpt><trkpt lat="41.3075508" lon="1.6358567"><ele>148.66666666666669</ele><time>2026-04-19T10:54:52.041Z</time></trkpt><trkpt lat="41.3073673" lon="1.6356996"><ele>148.0</ele><time>2026-04-19T10:54:53.04Z</time></trkpt><trkpt lat="41.3071843" lon="1.6355507"><ele>147.66666666666669</ele><time>2026-04-19T10:54:54.04Z</time></trkpt><trkpt lat="41.3069957" lon="1.635411"><ele>147.33333333333334</ele><time>2026-04-19T10:54:55.04Z</time></trkpt><trkpt lat="41.306806" lon="1.6352718"><ele>147.0</ele><time>2026-04-19T10:54:56.04Z</time></trkpt><trkpt lat="41.3066126" lon="1.6351429"><ele>146.66666666666666</ele><time>2026-04-19T10:54:57.04Z</time></trkpt><trkpt lat="41.306416" lon="1.6350293"><ele>146.33333333333331</ele><time>2026-04-19T10:54:58.041Z</time></trkpt><trkpt lat="41.3062186" lon="1.6349198"><ele>146.0</ele><time>2026-04-19T10:54:59.041Z</time></trkpt><trkpt lat="41.306017" lon="1.6348218"><ele>147.0</ele><time>2026-04-19T10:55:00.04Z</time></trkpt><trkpt lat="41.3058169" lon="1.6347312"><ele>148.0</ele><time>2026-04-19T10:55:01.04Z</time></trkpt><trkpt lat="41.3056198" lon="1.6346488"><ele>149.0</ele><time>2026-04-19T10:55:02.041Z</time></trkpt><trkpt lat="41.3054228" lon="1.6345761"><ele>150.0</ele><time>2026-04-19T10:55:03.041Z</time></trkpt><trkpt lat="41.3052166" lon="1.6345101"><ele>151.0</ele><time>2026-04-19T10:55:04.04Z</time></trkpt><trkpt lat="41.3050125" lon="1.6344529"><ele>152.0</ele><time>2026-04-19T10:55:05.041Z</time></trkpt><trkpt lat="41.3048105" lon="1.6344002"><ele>153.33333333333331</ele><time>2026-04-19T10:55:06.041Z</time></trkpt><trkpt lat="41.3046113" lon="1.6343591"><ele>154.66666666666666</ele><time>2026-04-19T10:55:07.041Z</time></trkpt><trkpt lat="41.3044104" lon="1.6343254"><ele>156.0</ele><time>2026-04-19T10:55:08.04Z</time></trkpt><trkpt lat="41.3042134" lon="1.6342989"><ele>156.0</ele><time>2026-04-19T10:55:09.04Z</time></trkpt><trkpt lat="41.3040189" lon="1.6342759"><ele>156.0</ele><time>2026-04-19T10:55:10.041Z</time></trkpt><trkpt lat="41.3038261" lon="1.6342526"><ele>156.0</ele><time>2026-04-19T10:55:11.041Z</time></trkpt><trkpt lat="41.303641" lon="1.6342267"><ele>157.33333333333334</ele><time>2026-04-19T10:55:12.04Z</time></trkpt><trkpt lat="41.3034617" lon="1.6341996"><ele>158.66666666666669</ele><time>2026-04-19T10:55:13.041Z</time></trkpt><trkpt lat="41.3032838" lon="1.6341785"><ele>160.0</ele><time>2026-04-19T10:55:14.04Z</time></trkpt><trkpt lat="41.3031068" lon="1.6341476"><ele>159.0</ele><time>2026-04-19T10:55:15.041Z</time></trkpt><trkpt lat="41.3029347" lon="1.6341154"><ele>158.0</ele><time>2026-04-19T10:55:16.041Z</time></trkpt><trkpt lat="41.3027668" lon="1.6340739"><ele>157.0</ele><time>2026-04-19T10:55:17.04Z</time></trkpt><trkpt lat="41.3025992" lon="1.6340344"><ele>157.0</ele><time>2026-04-19T10:55:18.041Z</time></trkpt><trkpt lat="41.3024369" lon="1.6339914"><ele>157.0</ele><time>2026-04-19T10:55:19.041Z</time></trkpt><trkpt lat="41.302275" lon="1.6339414"><ele>157.0</ele><time>2026-04-19T10:55:20.041Z</time></trkpt><trkpt lat="41.302113" lon="1.6338883"><ele>157.0</ele><time>2026-04-19T10:55:21.04Z</time></trkpt><trkpt lat="41.3019545" lon="1.6338355"><ele>157.0</ele><time>2026-04-19T10:55:22.04Z</time></trkpt><trkpt lat="41.3017922" lon="1.6337835"><ele>157.0</ele><time>2026-04-19T10:55:23.041Z</time></trkpt><trkpt lat="41.3016304" lon="1.6337305"><ele>157.0</ele><time>2026-04-19T10:55:24.04Z</time></trkpt><trkpt lat="41.3014646" lon="1.6336798"><ele>157.0</ele><time>2026-04-19T10:55:25.04Z</time></trkpt><trkpt lat="41.3012978" lon="1.6336289"><ele>157.0</ele><time>2026-04-19T10:55:26.04Z</time></trkpt><trkpt lat="41.3011334" lon="1.6335736"><ele>157.66666666666669</ele><time>2026-04-19T10:55:27.041Z</time></trkpt><trkpt lat="41.3009666" lon="1.633518"><ele>158.33333333333334</ele><time>2026-04-19T10:55:28.041Z</time></trkpt><trkpt lat="41.3008041" lon="1.6334581"><ele>159.0</ele><time>2026-04-19T10:55:29.041Z</time></trkpt><trkpt lat="41.3006416" lon="1.6334081"><ele>158.66666666666666</ele><time>2026-04-19T10:55:30.04Z</time></trkpt><trkpt lat="41.3004762" lon="1.633361"><ele>158.33333333333331</ele><time>2026-04-19T10:55:31.04Z</time></trkpt><trkpt lat="41.3003128" lon="1.6333099"><ele>158.0</ele><time>2026-04-19T10:55:32.041Z</time></trkpt><trkpt lat="41.3001557" lon="1.633259"><ele>158.0</ele><time>2026-04-19T10:55:33.04Z</time></trkpt><trkpt lat="41.3000071" lon="1.6332111"><ele>158.0</ele><time>2026-04-19T10:55:34.04Z</time></trkpt><trkpt lat="41.2998545" lon="1.6331619"><ele>158.0</ele><time>2026-04-19T10:55:35.041Z</time></trkpt><trkpt lat="41.2996906" lon="1.633112"><ele>157.0</ele><time>2026-04-19T10:55:36.041Z</time></trkpt><trkpt lat="41.2995213" lon="1.6330582"><ele>156.0</ele><time>2026-04-19T10:55:37.04Z</time></trkpt><trkpt lat="41.2993508" lon="1.6330048"><ele>155.0</ele><time>2026-04-19T10:55:38.041Z</time></trkpt><trkpt lat="41.2991836" lon="1.6329511"><ele>155.0</ele><time>2026-04-19T10:55:39.041Z</time></trkpt><trkpt lat="41.2990193" lon="1.6328997"><ele>155.0</ele><time>2026-04-19T10:55:40.04Z</time></trkpt><trkpt lat="41.2988539" lon="1.6328443"><ele>155.0</ele><time>2026-04-19T10:55:41.041Z</time></trkpt><trkpt lat="41.2986852" lon="1.632786"><ele>155.33333333333331</ele><time>2026-04-19T10:55:42.04Z</time></trkpt><trkpt lat="41.2985093" lon="1.632729"><ele>155.66666666666666</ele><time>2026-04-19T10:55:43.041Z</time></trkpt><trkpt lat="41.2983324" lon="1.6326703"><ele>156.0</ele><time>2026-04-19T10:55:44.041Z</time></trkpt><trkpt lat="41.2981565" lon="1.6326113"><ele>155.66666666666666</ele><time>2026-04-19T10:55:45.041Z</time></trkpt><trkpt lat="41.2979797" lon="1.6325451"><ele>155.33333333333331</ele><time>2026-04-19T10:55:46.04Z</time></trkpt><trkpt lat="41.2978051" lon="1.6324695"><ele>155.0</ele><time>2026-04-19T10:55:47.04Z</time></trkpt><trkpt lat="41.2976358" lon="1.632382"><ele>155.0</ele><time>2026-04-19T10:55:48.04Z</time></trkpt><trkpt lat="41.297473" lon="1.6322777"><ele>155.0</ele><time>2026-04-19T10:55:49.04Z</time></trkpt><trkpt lat="41.2973165" lon="1.6321648"><ele>155.0</ele><time>2026-04-19T10:55:50.041Z</time></trkpt><trkpt lat="41.2971642" lon="1.6320374"><ele>153.0</ele><time>2026-04-19T10:55:51.04Z</time></trkpt><trkpt lat="41.2970207" lon="1.6318962"><ele>151.0</ele><time>2026-04-19T10:55:52.041Z</time></trkpt><trkpt lat="41.2968778" lon="1.6317441"><ele>149.0</ele><time>2026-04-19T10:55:53.041Z</time></trkpt><trkpt lat="41.2967434" lon="1.6315795"><ele>149.0</ele><time>2026-04-19T10:55:54.041Z</time></trkpt><trkpt lat="41.2966169" lon="1.631401"><ele>149.0</ele><time>2026-04-19T10:55:55.041Z</time></trkpt><trkpt lat="41.2964975" lon="1.6312082"><ele>149.0</ele><time>2026-04-19T10:55:56.04Z</time></trkpt><trkpt lat="41.2963886" lon="1.6310087"><ele>146.66666666666666</ele><time>2026-04-19T10:55:57.041Z</time></trkpt><trkpt lat="41.2962907" lon="1.6308006"><ele>144.33333333333334</ele><time>2026-04-19T10:55:58.04Z</time></trkpt><trkpt lat="41.2962007" lon="1.6305804"><ele>142.0</ele><time>2026-04-19T10:55:59.041Z</time></trkpt><trkpt lat="41.2961143" lon="1.6303458"><ele>142.0</ele><time>2026-04-19T10:56:00.04Z</time></trkpt><trkpt lat="41.296033" lon="1.6301118"><ele>142.0</ele><time>2026-04-19T10:56:01.041Z</time></trkpt><trkpt lat="41.2959565" lon="1.6298783"><ele>142.0</ele><time>2026-04-19T10:56:02.041Z</time></trkpt><trkpt lat="41.2958839" lon="1.6296401"><ele>143.66666666666669</ele><time>2026-04-19T10:56:03.04Z</time></trkpt><trkpt lat="41.2958121" lon="1.629408"><ele>145.33333333333334</ele><time>2026-04-19T10:56:04.04Z</time></trkpt><trkpt lat="41.2957429" lon="1.6291804"><ele>147.0</ele><time>2026-04-19T10:56:05.041Z</time></trkpt><trkpt lat="41.2956749" lon="1.6289504"><ele>147.0</ele><time>2026-04-19T10:56:06.041Z</time></trkpt><trkpt lat="41.295607" lon="1.6287187"><ele>147.0</ele><time>2026-04-19T10:56:07.041Z</time></trkpt><trkpt lat="41.2955371" lon="1.6284922"><ele>147.0</ele><time>2026-04-19T10:56:08.04Z</time></trkpt><trkpt lat="41.2954631" lon="1.6282684"><ele>147.0</ele><time>2026-04-19T10:56:09.041Z</time></trkpt><trkpt lat="41.2953855" lon="1.6280394"><ele>147.0</ele><time>2026-04-19T10:56:10.041Z</time></trkpt><trkpt lat="41.2952977" lon="1.6277971"><ele>147.0</ele><time>2026-04-19T10:56:11.041Z</time></trkpt><trkpt lat="41.2952032" lon="1.6275604"><ele>147.33333333333334</ele><time>2026-04-19T10:56:12.041Z</time></trkpt><trkpt lat="41.295104" lon="1.6273384"><ele>147.66666666666669</ele><time>2026-04-19T10:56:13.041Z</time></trkpt><trkpt lat="41.295" lon="1.6271273"><ele>148.0</ele><time>2026-04-19T10:56:14.041Z</time></trkpt><trkpt lat="41.2948928" lon="1.6269237"><ele>148.33333333333334</ele><time>2026-04-19T10:56:15.041Z</time></trkpt><trkpt lat="41.2947823" lon="1.6267253"><ele>148.66666666666666</ele><time>2026-04-19T10:56:16.041Z</time></trkpt><trkpt lat="41.2946702" lon="1.626537"><ele>149.0</ele><time>2026-04-19T10:56:17.041Z</time></trkpt><trkpt lat="41.2945484" lon="1.6263601"><ele>148.33333333333331</ele><time>2026-04-19T10:56:18.041Z</time></trkpt><trkpt lat="41.2944228" lon="1.6261807"><ele>147.66666666666666</ele><time>2026-04-19T10:56:19.04Z</time></trkpt><trkpt lat="41.2942956" lon="1.6260026"><ele>147.0</ele><time>2026-04-19T10:56:20.04Z</time></trkpt><trkpt lat="41.2941627" lon="1.6258406"><ele>147.0</ele><time>2026-04-19T10:56:21.041Z</time></trkpt><trkpt lat="41.2940225" lon="1.6256825"><ele>147.0</ele><time>2026-04-19T10:56:22.041Z</time></trkpt><trkpt lat="41.2938686" lon="1.6255265"><ele>147.0</ele><time>2026-04-19T10:56:23.041Z</time></trkpt><trkpt lat="41.2937171" lon="1.6253813"><ele>147.0</ele><time>2026-04-19T10:56:24.041Z</time></trkpt><trkpt lat="41.2935624" lon="1.6252384"><ele>147.0</ele><time>2026-04-19T10:56:25.041Z</time></trkpt><trkpt lat="41.2934015" lon="1.6251077"><ele>147.0</ele><time>2026-04-19T10:56:26.04Z</time></trkpt><trkpt lat="41.2932372" lon="1.6249754"><ele>147.33333333333334</ele><time>2026-04-19T10:56:27.041Z</time></trkpt><trkpt lat="41.293077" lon="1.6248391"><ele>147.66666666666669</ele><time>2026-04-19T10:56:28.041Z</time></trkpt><trkpt lat="41.2929218" lon="1.6247025"><ele>148.0</ele><time>2026-04-19T10:56:29.04Z</time></trkpt><trkpt lat="41.2927696" lon="1.6245649"><ele>148.66666666666669</ele><time>2026-04-19T10:56:30.041Z</time></trkpt><trkpt lat="41.2926188" lon="1.6244377"><ele>149.33333333333334</ele><time>2026-04-19T10:56:31.041Z</time></trkpt><trkpt lat="41.2924697" lon="1.6243092"><ele>150.0</ele><time>2026-04-19T10:56:32.041Z</time></trkpt><trkpt lat="41.2923222" lon="1.6241803"><ele>150.33333333333334</ele><time>2026-04-19T10:56:33.04Z</time></trkpt><trkpt lat="41.292183" lon="1.6240589"><ele>150.66666666666669</ele><time>2026-04-19T10:56:34.041Z</time></trkpt><trkpt lat="41.292051" lon="1.6239464"><ele>151.0</ele><time>2026-04-19T10:56:35.041Z</time></trkpt><trkpt lat="41.2919266" lon="1.6238372"><ele>151.0</ele><time>2026-04-19T10:56:36.041Z</time></trkpt><trkpt lat="41.2918105" lon="1.6237362"><ele>151.0</ele><time>2026-04-19T10:56:37.041Z</time></trkpt><trkpt lat="41.2916947" lon="1.6236396"><ele>151.0</ele><time>2026-04-19T10:56:38.04Z</time></trkpt><trkpt lat="41.2915753" lon="1.6235369"><ele>151.0</ele><time>2026-04-19T10:56:39.041Z</time></trkpt><trkpt lat="41.2914547" lon="1.6234301"><ele>151.0</ele><time>2026-04-19T10:56:40.04Z</time></trkpt><trkpt lat="41.2913374" lon="1.623312"><ele>151.0</ele><time>2026-04-19T10:56:41.041Z</time></trkpt><trkpt lat="41.2912155" lon="1.6231903"><ele>151.0</ele><time>2026-04-19T10:56:42.04Z</time></trkpt><trkpt lat="41.2910941" lon="1.6230704"><ele>151.0</ele><time>2026-04-19T10:56:43.041Z</time></trkpt><trkpt lat="41.2909807" lon="1.622953"><ele>151.0</ele><time>2026-04-19T10:56:44.04Z</time></trkpt><trkpt lat="41.2908672" lon="1.6228414"><ele>151.0</ele><time>2026-04-19T10:56:45.041Z</time></trkpt><trkpt lat="41.2907507" lon="1.6227272"><ele>151.0</ele><time>2026-04-19T10:56:46.04Z</time></trkpt><trkpt lat="41.290632" lon="1.6226129"><ele>149.0</ele><time>2026-04-19T10:56:47.04Z</time></trkpt><trkpt lat="41.2905105" lon="1.6224942"><ele>147.0</ele><time>2026-04-19T10:56:48.041Z</time></trkpt><trkpt lat="41.2903889" lon="1.6223752"><ele>145.0</ele><time>2026-04-19T10:56:49.04Z</time></trkpt><trkpt lat="41.2902643" lon="1.6222483"><ele>145.0</ele><time>2026-04-19T10:56:50.041Z</time></trkpt><trkpt lat="41.2901389" lon="1.6221241"><ele>145.0</ele><time>2026-04-19T10:56:51.041Z</time></trkpt><trkpt lat="41.2900143" lon="1.6220026"><ele>145.0</ele><time>2026-04-19T10:56:52.041Z</time></trkpt><trkpt lat="41.2898919" lon="1.6218822"><ele>145.0</ele><time>2026-04-19T10:56:53.04Z</time></trkpt><trkpt lat="41.2897634" lon="1.6217553"><ele>145.0</ele><time>2026-04-19T10:56:54.041Z</time></trkpt><trkpt lat="41.2896334" lon="1.6216301"><ele>145.0</ele><time>2026-04-19T10:56:55.041Z</time></trkpt><trkpt lat="41.2895078" lon="1.6215052"><ele>144.0</ele><time>2026-04-19T10:56:56.041Z</time></trkpt><trkpt lat="41.289384" lon="1.6213885"><ele>143.0</ele><time>2026-04-19T10:56:57.041Z</time></trkpt><trkpt lat="41.2892637" lon="1.6212688"><ele>142.0</ele><time>2026-04-19T10:56:58.04Z</time></trkpt><trkpt lat="41.2891445" lon="1.6211494"><ele>142.33333333333334</ele><time>2026-04-19T10:56:59.041Z</time></trkpt><trkpt lat="41.2890254" lon="1.6210266"><ele>142.66666666666666</ele><time>2026-04-19T10:57:00.04Z</time></trkpt><trkpt lat="41.2889057" lon="1.6209075"><ele>143.0</ele><time>2026-04-19T10:57:01.041Z</time></trkpt><trkpt lat="41.2887756" lon="1.6207818"><ele>143.33333333333331</ele><time>2026-04-19T10:57:02.041Z</time></trkpt><trkpt lat="41.2886403" lon="1.6206511"><ele>143.66666666666666</ele><time>2026-04-19T10:57:03.04Z</time></trkpt><trkpt lat="41.2885062" lon="1.6205208"><ele>144.0</ele><time>2026-04-19T10:57:04.04Z</time></trkpt><trkpt lat="41.2883778" lon="1.6203899"><ele>143.75</ele><time>2026-04-19T10:57:05.041Z</time></trkpt><trkpt lat="41.2882572" lon="1.6202673"><ele>143.5</ele><time>2026-04-19T10:57:06.04Z</time></trkpt><trkpt lat="41.2881414" lon="1.6201524"><ele>143.25</ele><time>2026-04-19T10:57:07.041Z</time></trkpt><trkpt lat="41.2880278" lon="1.6200407"><ele>143.0</ele><time>2026-04-19T10:57:08.04Z</time></trkpt><trkpt lat="41.2879164" lon="1.6199322"><ele>143.0</ele><time>2026-04-19T10:57:09.04Z</time></trkpt><trkpt lat="41.2878051" lon="1.6198248"><ele>143.0</ele><time>2026-04-19T10:57:10.04Z</time></trkpt><trkpt lat="41.2876919" lon="1.6197183"><ele>143.0</ele><time>2026-04-19T10:57:11.041Z</time></trkpt><trkpt lat="41.2875836" lon="1.6196089"><ele>143.0</ele><time>2026-04-19T10:57:12.041Z</time></trkpt><trkpt lat="41.2874786" lon="1.6195001"><ele>142.5</ele><time>2026-04-19T10:57:13.041Z</time></trkpt><trkpt lat="41.2873703" lon="1.6193961"><ele>142.0</ele><time>2026-04-19T10:57:14.04Z</time></trkpt><trkpt lat="41.2872556" lon="1.6192843"><ele>141.5</ele><time>2026-04-19T10:57:15.041Z</time></trkpt><trkpt lat="41.2871374" lon="1.6191673"><ele>141.0</ele><time>2026-04-19T10:57:16.04Z</time></trkpt><trkpt lat="41.2870197" lon="1.6190479"><ele>140.66666666666666</ele><time>2026-04-19T10:57:17.04Z</time></trkpt><trkpt lat="41.2869006" lon="1.6189304"><ele>140.33333333333331</ele><time>2026-04-19T10:57:18.041Z</time></trkpt><trkpt lat="41.286778" lon="1.6188123"><ele>140.0</ele><time>2026-04-19T10:57:19.04Z</time></trkpt><trkpt lat="41.2866578" lon="1.6186917"><ele>140.66666666666666</ele><time>2026-04-19T10:57:20.041Z</time></trkpt><trkpt lat="41.2865309" lon="1.6185698"><ele>141.33333333333334</ele><time>2026-04-19T10:57:21.041Z</time></trkpt><trkpt lat="41.2864069" lon="1.6184393"><ele>142.0</ele><time>2026-04-19T10:57:22.04Z</time></trkpt><trkpt lat="41.2862796" lon="1.6183126"><ele>142.0</ele><time>2026-04-19T10:57:23.041Z</time></trkpt><trkpt lat="41.2861531" lon="1.6181869"><ele>142.0</ele><time>2026-04-19T10:57:24.041Z</time></trkpt><trkpt lat="41.2860256" lon="1.6180657"><ele>142.0</ele><time>2026-04-19T10:57:25.04Z</time></trkpt><trkpt lat="41.2859014" lon="1.6179464"><ele>142.0</ele><time>2026-04-19T10:57:26.041Z</time></trkpt><trkpt lat="41.2857863" lon="1.6178274"><ele>142.0</ele><time>2026-04-19T10:57:27.04Z</time></trkpt><trkpt lat="41.2856672" lon="1.617708"><ele>142.0</ele><time>2026-04-19T10:57:28.041Z</time></trkpt><trkpt lat="41.2855472" lon="1.6175924"><ele>142.0</ele><time>2026-04-19T10:57:29.041Z</time></trkpt><trkpt lat="41.2854309" lon="1.6174781"><ele>141.0</ele><time>2026-04-19T10:57:30.041Z</time></trkpt><trkpt lat="41.2853173" lon="1.6173652"><ele>140.0</ele><time>2026-04-19T10:57:31.041Z</time></trkpt><trkpt lat="41.2852054" lon="1.6172437"><ele>139.0</ele><time>2026-04-19T10:57:32.041Z</time></trkpt><trkpt lat="41.2850926" lon="1.6171208"><ele>138.0</ele><time>2026-04-19T10:57:33.041Z</time></trkpt><trkpt lat="41.2849815" lon="1.6169919"><ele>137.5</ele><time>2026-04-19T10:57:34.04Z</time></trkpt><trkpt lat="41.2848727" lon="1.61686"><ele>137.0</ele><time>2026-04-19T10:57:35.04Z</time></trkpt><trkpt lat="41.2847641" lon="1.6167264"><ele>136.5</ele><time>2026-04-19T10:57:36.041Z</time></trkpt><trkpt lat="41.2846542" lon="1.6165854"><ele>136.0</ele><time>2026-04-19T10:57:37.041Z</time></trkpt><trkpt lat="41.284542" lon="1.6164458"><ele>136.0</ele><time>2026-04-19T10:57:38.04Z</time></trkpt><trkpt lat="41.2844273" lon="1.6163032"><ele>136.0</ele><time>2026-04-19T10:57:39.041Z</time></trkpt><trkpt lat="41.2843117" lon="1.6161584"><ele>136.0</ele><time>2026-04-19T10:57:40.041Z</time></trkpt><trkpt lat="41.2841952" lon="1.6160171"><ele>135.66666666666669</ele><time>2026-04-19T10:57:41.04Z</time></trkpt><trkpt lat="41.2840849" lon="1.6158733"><ele>135.33333333333334</ele><time>2026-04-19T10:57:42.04Z</time></trkpt><trkpt lat="41.283975" lon="1.6157371"><ele>135.0</ele><time>2026-04-19T10:57:43.041Z</time></trkpt><trkpt lat="41.2838675" lon="1.6156045"><ele>135.25</ele><time>2026-04-19T10:57:44.041Z</time></trkpt><trkpt lat="41.2837616" lon="1.6154713"><ele>135.5</ele><time>2026-04-19T10:57:45.041Z</time></trkpt><trkpt lat="41.2836562" lon="1.6153354"><ele>135.75</ele><time>2026-04-19T10:57:46.04Z</time></trkpt><trkpt lat="41.2835492" lon="1.6151969"><ele>136.0</ele><time>2026-04-19T10:57:47.041Z</time></trkpt><trkpt lat="41.2834398" lon="1.6150605"><ele>136.0</ele><time>2026-04-19T10:57:48.04Z</time></trkpt><trkpt lat="41.2833269" lon="1.6149314"><ele>136.0</ele><time>2026-04-19T10:57:49.041Z</time></trkpt><trkpt lat="41.2832139" lon="1.6148097"><ele>136.0</ele><time>2026-04-19T10:57:50.041Z</time></trkpt><trkpt lat="41.2830992" lon="1.614696"><ele>136.0</ele><time>2026-04-19T10:57:51.041Z</time></trkpt><trkpt lat="41.2829832" lon="1.6145909"><ele>135.75</ele><time>2026-04-19T10:57:52.041Z</time></trkpt><trkpt lat="41.2828661" lon="1.6144954"><ele>135.5</ele><time>2026-04-19T10:57:53.04Z</time></trkpt><trkpt lat="41.2827394" lon="1.614409"><ele>135.25</ele><time>2026-04-19T10:57:54.041Z</time></trkpt><trkpt lat="41.2826056" lon="1.614331"><ele>135.0</ele><time>2026-04-19T10:57:55.041Z</time></trkpt><trkpt lat="41.2824695" lon="1.6142571"><ele>136.66666666666666</ele><time>2026-04-19T10:57:56.04Z</time></trkpt><trkpt lat="41.2823263" lon="1.6141894"><ele>138.33333333333331</ele><time>2026-04-19T10:57:57.041Z</time></trkpt><trkpt lat="41.2821802" lon="1.6141317"><ele>140.0</ele><time>2026-04-19T10:57:58.041Z</time></trkpt><trkpt lat="41.2820342" lon="1.6140741"><ele>140.0</ele><time>2026-04-19T10:57:59.041Z</time></trkpt><trkpt lat="41.2818879" lon="1.6140121"><ele>140.0</ele><time>2026-04-19T10:58:00.04Z</time></trkpt><trkpt lat="41.281741" lon="1.6139492"><ele>140.0</ele><time>2026-04-19T10:58:01.041Z</time></trkpt><trkpt lat="41.2815925" lon="1.613885"><ele>140.0</ele><time>2026-04-19T10:58:02.041Z</time></trkpt><trkpt lat="41.2814448" lon="1.6138179"><ele>140.0</ele><time>2026-04-19T10:58:03.04Z</time></trkpt><trkpt lat="41.2812936" lon="1.6137465"><ele>140.0</ele><time>2026-04-19T10:58:04.041Z</time></trkpt><trkpt lat="41.2811408" lon="1.6136728"><ele>140.0</ele><time>2026-04-19T10:58:05.041Z</time></trkpt><trkpt lat="41.2809833" lon="1.6135995"><ele>140.0</ele><time>2026-04-19T10:58:06.041Z</time></trkpt><trkpt lat="41.2808292" lon="1.6135219"><ele>140.0</ele><time>2026-04-19T10:58:07.041Z</time></trkpt><trkpt lat="41.2806744" lon="1.613443"><ele>139.33333333333331</ele><time>2026-04-19T10:58:08.04Z</time></trkpt><trkpt lat="41.2805208" lon="1.6133607"><ele>138.66666666666666</ele><time>2026-04-19T10:58:09.04Z</time></trkpt><trkpt lat="41.2803695" lon="1.6132792"><ele>138.0</ele><time>2026-04-19T10:58:10.041Z</time></trkpt><trkpt lat="41.2802167" lon="1.6131995"><ele>138.0</ele><time>2026-04-19T10:58:11.041Z</time></trkpt><trkpt lat="41.280062" lon="1.6131241"><ele>138.0</ele><time>2026-04-19T10:58:12.041Z</time></trkpt><trkpt lat="41.2799058" lon="1.613043"><ele>138.0</ele><time>2026-04-19T10:58:13.04Z</time></trkpt><trkpt lat="41.2797499" lon="1.6129582"><ele>137.66666666666666</ele><time>2026-04-19T10:58:14.041Z</time></trkpt><trkpt lat="41.2795848" lon="1.612874"><ele>137.33333333333331</ele><time>2026-04-19T10:58:15.041Z</time></trkpt><trkpt lat="41.2794169" lon="1.6127861"><ele>137.0</ele><time>2026-04-19T10:58:16.041Z</time></trkpt><trkpt lat="41.2792456" lon="1.6126941"><ele>137.0</ele><time>2026-04-19T10:58:17.041Z</time></trkpt><trkpt lat="41.2790693" lon="1.6126044"><ele>137.0</ele><time>2026-04-19T10:58:18.04Z</time></trkpt><trkpt lat="41.2788895" lon="1.6125144"><ele>137.0</ele><time>2026-04-19T10:58:19.041Z</time></trkpt><trkpt lat="41.2787094" lon="1.6124227"><ele>136.66666666666666</ele><time>2026-04-19T10:58:20.041Z</time></trkpt><trkpt lat="41.2785319" lon="1.6123299"><ele>136.33333333333334</ele><time>2026-04-19T10:58:21.041Z</time></trkpt><trkpt lat="41.2783503" lon="1.6122375"><ele>136.0</ele><time>2026-04-19T10:58:22.041Z</time></trkpt><trkpt lat="41.2781707" lon="1.612144"><ele>136.0</ele><time>2026-04-19T10:58:23.04Z</time></trkpt><trkpt lat="41.2779854" lon="1.6120524"><ele>136.0</ele><time>2026-04-19T10:58:24.041Z</time></trkpt><trkpt lat="41.2777995" lon="1.6119585"><ele>136.0</ele><time>2026-04-19T10:58:25.041Z</time></trkpt><trkpt lat="41.2776134" lon="1.6118629"><ele>136.0</ele><time>2026-04-19T10:58:26.041Z</time></trkpt><trkpt lat="41.2774293" lon="1.611769"><ele>136.0</ele><time>2026-04-19T10:58:27.04Z</time></trkpt><trkpt lat="41.2772451" lon="1.6116704"><ele>136.0</ele><time>2026-04-19T10:58:28.041Z</time></trkpt><trkpt lat="41.2770558" lon="1.6115724"><ele>135.66666666666669</ele><time>2026-04-19T10:58:29.041Z</time></trkpt><trkpt lat="41.2768692" lon="1.6114737"><ele>135.33333333333334</ele><time>2026-04-19T10:58:30.041Z</time></trkpt><trkpt lat="41.2766841" lon="1.6113788"><ele>135.0</ele><time>2026-04-19T10:58:31.041Z</time></trkpt><trkpt lat="41.276496" lon="1.6112823"><ele>135.0</ele><time>2026-04-19T10:58:32.04Z</time></trkpt><trkpt lat="41.2763083" lon="1.6111902"><ele>135.0</ele><time>2026-04-19T10:58:33.04Z</time></trkpt><trkpt lat="41.2761182" lon="1.6110918"><ele>135.0</ele><time>2026-04-19T10:58:34.041Z</time></trkpt><trkpt lat="41.275928" lon="1.6109937"><ele>135.0</ele><time>2026-04-19T10:58:35.041Z</time></trkpt><trkpt lat="41.2757421" lon="1.6108973"><ele>135.0</ele><time>2026-04-19T10:58:36.04Z</time></trkpt><trkpt lat="41.275559" lon="1.6108034"><ele>135.0</ele><time>2026-04-19T10:58:37.041Z</time></trkpt><trkpt lat="41.2753791" lon="1.6107095"><ele>135.33333333333334</ele><time>2026-04-19T10:58:38.041Z</time></trkpt><trkpt lat="41.2752027" lon="1.6106203"><ele>135.66666666666669</ele><time>2026-04-19T10:58:39.041Z</time></trkpt><trkpt lat="41.2750317" lon="1.6105307"><ele>136.0</ele><time>2026-04-19T10:58:40.041Z</time></trkpt><trkpt lat="41.2748655" lon="1.610441"><ele>136.33333333333334</ele><time>2026-04-19T10:58:41.041Z</time></trkpt><trkpt lat="41.2747026" lon="1.6103581"><ele>136.66666666666666</ele><time>2026-04-19T10:58:42.04Z</time></trkpt><trkpt lat="41.2745477" lon="1.6102745"><ele>137.0</ele><time>2026-04-19T10:58:43.04Z</time></trkpt><trkpt lat="41.2743954" lon="1.6101966"><ele>137.33333333333331</ele><time>2026-04-19T10:58:44.041Z</time></trkpt><trkpt lat="41.2742425" lon="1.6101195"><ele>137.66666666666666</ele><time>2026-04-19T10:58:45.04Z</time></trkpt><trkpt lat="41.2740868" lon="1.6100387"><ele>138.0</ele><time>2026-04-19T10:58:46.04Z</time></trkpt><trkpt lat="41.2739242" lon="1.6099562"><ele>136.66666666666666</ele><time>2026-04-19T10:58:47.04Z</time></trkpt><trkpt lat="41.2737575" lon="1.6098706"><ele>135.33333333333331</ele><time>2026-04-19T10:58:48.04Z</time></trkpt><trkpt lat="41.2735934" lon="1.6097876"><ele>134.0</ele><time>2026-04-19T10:58:49.04Z</time></trkpt><trkpt lat="41.2734322" lon="1.6097038"><ele>134.0</ele><time>2026-04-19T10:58:50.04Z</time></trkpt><trkpt lat="41.2732768" lon="1.6096222"><ele>134.0</ele><time>2026-04-19T10:58:51.041Z</time></trkpt><trkpt lat="41.2731235" lon="1.609538"><ele>134.0</ele><time>2026-04-19T10:58:52.04Z</time></trkpt><trkpt lat="41.272972" lon="1.6094595"><ele>133.33333333333331</ele><time>2026-04-19T10:58:53.041Z</time></trkpt><trkpt lat="41.2728233" lon="1.6093821"><ele>132.66666666666666</ele><time>2026-04-19T10:58:54.041Z</time></trkpt><trkpt lat="41.2726713" lon="1.6093063"><ele>132.0</ele><time>2026-04-19T10:58:55.04Z</time></trkpt><trkpt lat="41.2725196" lon="1.6092276"><ele>132.0</ele><time>2026-04-19T10:58:56.041Z</time></trkpt><trkpt lat="41.2723681" lon="1.6091476"><ele>132.0</ele><time>2026-04-19T10:58:57.041Z</time></trkpt><trkpt lat="41.2722181" lon="1.6090681"><ele>132.0</ele><time>2026-04-19T10:58:58.041Z</time></trkpt><trkpt lat="41.2720728" lon="1.6089929"><ele>132.25</ele><time>2026-04-19T10:58:59.04Z</time></trkpt><trkpt lat="41.271931" lon="1.6089216"><ele>132.5</ele><time>2026-04-19T10:59:00.04Z</time></trkpt><trkpt lat="41.2717906" lon="1.6088516"><ele>132.75</ele><time>2026-04-19T10:59:01.04Z</time></trkpt><trkpt lat="41.2716533" lon="1.6087825"><ele>133.0</ele><time>2026-04-19T10:59:02.041Z</time></trkpt><trkpt lat="41.2715098" lon="1.6087091"><ele>134.66666666666669</ele><time>2026-04-19T10:59:03.041Z</time></trkpt><trkpt lat="41.2713635" lon="1.6086343"><ele>136.33333333333334</ele><time>2026-04-19T10:59:04.041Z</time></trkpt><trkpt lat="41.2712228" lon="1.608561"><ele>138.0</ele><time>2026-04-19T10:59:05.041Z</time></trkpt><trkpt lat="41.271087" lon="1.6084939"><ele>138.0</ele><time>2026-04-19T10:59:06.041Z</time></trkpt><trkpt lat="41.2709644" lon="1.6084333"><ele>138.0</ele><time>2026-04-19T10:59:07.041Z</time></trkpt><trkpt lat="41.2708546" lon="1.6083788"><ele>138.0</ele><time>2026-04-19T10:59:08.04Z</time></trkpt><trkpt lat="41.2707525" lon="1.6083256"><ele>138.0</ele><time>2026-04-19T10:59:09.04Z</time></trkpt><trkpt lat="41.2706525" lon="1.6082741"><ele>138.6</ele><time>2026-04-19T10:59:10.041Z</time></trkpt><trkpt lat="41.2705485" lon="1.608218"><ele>139.20000000000002</ele><time>2026-04-19T10:59:11.04Z</time></trkpt><trkpt lat="41.2704465" lon="1.6081652"><ele>139.8</ele><time>2026-04-19T10:59:12.041Z</time></trkpt><trkpt lat="41.2703442" lon="1.6081131"><ele>140.4</ele><time>2026-04-19T10:59:13.04Z</time></trkpt><trkpt lat="41.2702455" lon="1.6080603"><ele>141.0</ele><time>2026-04-19T10:59:14.041Z</time></trkpt><trkpt lat="41.270148" lon="1.6080122"><ele>141.0</ele><time>2026-04-19T10:59:15.041Z</time></trkpt><trkpt lat="41.2700561" lon="1.6079607"><ele>141.0</ele><time>2026-04-19T10:59:16.041Z</time></trkpt><trkpt lat="41.2699743" lon="1.6079173"><ele>141.0</ele><time>2026-04-19T10:59:17.041Z</time></trkpt><trkpt lat="41.2698949" lon="1.6078773"><ele>141.0</ele><time>2026-04-19T10:59:18.04Z</time></trkpt><trkpt lat="41.2698201" lon="1.6078415"><ele>141.0</ele><time>2026-04-19T10:59:19.04Z</time></trkpt><trkpt lat="41.2697534" lon="1.6078046"><ele>141.0</ele><time>2026-04-19T10:59:20.041Z</time></trkpt><trkpt lat="41.2696861" lon="1.6077685"><ele>142.0</ele><time>2026-04-19T10:59:21.041Z</time></trkpt><trkpt lat="41.2696189" lon="1.6077312"><ele>143.0</ele><time>2026-04-19T10:59:22.04Z</time></trkpt><trkpt lat="41.269551" lon="1.6076952"><ele>144.0</ele><time>2026-04-19T10:59:23.041Z</time></trkpt><trkpt lat="41.2694817" lon="1.6076622"><ele>145.0</ele><time>2026-04-19T10:59:24.04Z</time></trkpt><trkpt lat="41.2694126" lon="1.6076274"><ele>146.0</ele><time>2026-04-19T10:59:25.04Z</time></trkpt><trkpt lat="41.2693538" lon="1.6075945"><ele>147.0</ele><time>2026-04-19T10:59:26.04Z</time></trkpt><trkpt lat="41.2692954" lon="1.6075555"><ele>148.0</ele><time>2026-04-19T10:59:27.041Z</time></trkpt><trkpt lat="41.2692383" lon="1.6075093"><ele>148.0</ele><time>2026-04-19T10:59:28.041Z</time></trkpt><trkpt lat="41.2691854" lon="1.6074574"><ele>148.0</ele><time>2026-04-19T10:59:29.041Z</time></trkpt><trkpt lat="41.2691377" lon="1.607397"><ele>148.0</ele><time>2026-04-19T10:59:30.04Z</time></trkpt><trkpt lat="41.2690754" lon="1.6072815"><ele>148.0</ele><time>2026-04-19T10:59:32.04Z</time></trkpt><trkpt lat="41.2690048" lon="1.6071537"><ele>148.0</ele><time>2026-04-19T10:59:34.041Z</time></trkpt><trkpt lat="41.2688907" lon="1.6070891"><ele>148.0</ele><time>2026-04-19T10:59:36.041Z</time></trkpt><trkpt lat="41.2688276" lon="1.6070869"><ele>148.0</ele><time>2026-04-19T10:59:37.04Z</time></trkpt><trkpt lat="41.2687609" lon="1.607105"><ele>148.0</ele><time>2026-04-19T10:59:38.041Z</time></trkpt><trkpt lat="41.2686868" lon="1.6071277"><ele>148.0</ele><time>2026-04-19T10:59:39.041Z</time></trkpt><trkpt lat="41.268604" lon="1.607138"><ele>148.0</ele><time>2026-04-19T10:59:40.041Z</time></trkpt><trkpt lat="41.2685164" lon="1.6071278"><ele>148.0</ele><time>2026-04-19T10:59:41.041Z</time></trkpt><trkpt lat="41.2684254" lon="1.6071038"><ele>148.0</ele><time>2026-04-19T10:59:42.04Z</time></trkpt><trkpt lat="41.2683337" lon="1.607067"><ele>148.0</ele><time>2026-04-19T10:59:43.041Z</time></trkpt><trkpt lat="41.2682475" lon="1.6070266"><ele>148.0</ele><time>2026-04-19T10:59:44.041Z</time></trkpt><trkpt lat="41.2681564" lon="1.606985"><ele>148.0</ele><time>2026-04-19T10:59:45.041Z</time></trkpt><trkpt lat="41.2680658" lon="1.6069407"><ele>148.0</ele><time>2026-04-19T10:59:46.041Z</time></trkpt><trkpt lat="41.2679743" lon="1.6068972"><ele>148.6</ele><time>2026-04-19T10:59:47.04Z</time></trkpt><trkpt lat="41.2678792" lon="1.6068495"><ele>149.20000000000002</ele><time>2026-04-19T10:59:48.041Z</time></trkpt><trkpt lat="41.2677822" lon="1.6067979"><ele>149.8</ele><time>2026-04-19T10:59:49.041Z</time></trkpt><trkpt lat="41.2676874" lon="1.6067513"><ele>150.4</ele><time>2026-04-19T10:59:50.041Z</time></trkpt><trkpt lat="41.2675894" lon="1.6067015"><ele>151.0</ele><time>2026-04-19T10:59:51.04Z</time></trkpt><trkpt lat="41.2674915" lon="1.6066483"><ele>151.0</ele><time>2026-04-19T10:59:52.04Z</time></trkpt><trkpt lat="41.2673841" lon="1.6065952"><ele>151.0</ele><time>2026-04-19T10:59:53.04Z</time></trkpt><trkpt lat="41.2672709" lon="1.6065387"><ele>151.0</ele><time>2026-04-19T10:59:54.041Z</time></trkpt><trkpt lat="41.2671487" lon="1.6064774"><ele>151.0</ele><time>2026-04-19T10:59:55.04Z</time></trkpt><trkpt lat="41.267033" lon="1.6064095"><ele>150.75</ele><time>2026-04-19T10:59:56.041Z</time></trkpt><trkpt lat="41.2669147" lon="1.6063464"><ele>150.5</ele><time>2026-04-19T10:59:57.04Z</time></trkpt><trkpt lat="41.2667937" lon="1.6062859"><ele>150.25</ele><time>2026-04-19T10:59:58.04Z</time></trkpt><trkpt lat="41.2666763" lon="1.6062202"><ele>150.0</ele><time>2026-04-19T10:59:59.04Z</time></trkpt><trkpt lat="41.2665618" lon="1.6061463"><ele>151.5</ele><time>2026-04-19T11:00:00.041Z</time></trkpt><trkpt lat="41.2664548" lon="1.60606"><ele>153.0</ele><time>2026-04-19T11:00:01.041Z</time></trkpt><trkpt lat="41.2663608" lon="1.6059597"><ele>154.5</ele><time>2026-04-19T11:00:02.04Z</time></trkpt><trkpt lat="41.2662801" lon="1.6058435"><ele>156.0</ele><time>2026-04-19T11:00:03.041Z</time></trkpt><trkpt lat="41.2662087" lon="1.6057197"><ele>156.0</ele><time>2026-04-19T11:00:04.04Z</time></trkpt><trkpt lat="41.2661461" lon="1.6055996"><ele>156.0</ele><time>2026-04-19T11:00:05.04Z</time></trkpt><trkpt lat="41.2660925" lon="1.6054891"><ele>156.0</ele><time>2026-04-19T11:00:06.041Z</time></trkpt><trkpt lat="41.2660453" lon="1.6053854"><ele>156.0</ele><time>2026-04-19T11:00:07.041Z</time></trkpt><trkpt lat="41.2660003" lon="1.6052857"><ele>156.0</ele><time>2026-04-19T11:00:08.041Z</time></trkpt><trkpt lat="41.2659531" lon="1.6051787"><ele>157.0</ele><time>2026-04-19T11:00:09.041Z</time></trkpt><trkpt lat="41.2659061" lon="1.6050666"><ele>158.0</ele><time>2026-04-19T11:00:10.041Z</time></trkpt><trkpt lat="41.2658536" lon="1.6049525"><ele>159.0</ele><time>2026-04-19T11:00:11.041Z</time></trkpt><trkpt lat="41.2658023" lon="1.6048405"><ele>160.0</ele><time>2026-04-19T11:00:12.04Z</time></trkpt><trkpt lat="41.2657499" lon="1.6047266"><ele>161.0</ele><time>2026-04-19T11:00:13.04Z</time></trkpt><trkpt lat="41.2656987" lon="1.6046135"><ele>161.0</ele><time>2026-04-19T11:00:14.041Z</time></trkpt><trkpt lat="41.2656499" lon="1.6044972"><ele>161.0</ele><time>2026-04-19T11:00:15.041Z</time></trkpt><trkpt lat="41.2655972" lon="1.6043834"><ele>161.0</ele><time>2026-04-19T11:00:16.04Z</time></trkpt><trkpt lat="41.2655445" lon="1.6042682"><ele>161.0</ele><time>2026-04-19T11:00:17.041Z</time></trkpt><trkpt lat="41.2654921" lon="1.6041535"><ele>161.0</ele><time>2026-04-19T11:00:18.041Z</time></trkpt><trkpt lat="41.2654418" lon="1.6040426"><ele>160.5</ele><time>2026-04-19T11:00:19.04Z</time></trkpt><trkpt lat="41.2653966" lon="1.6039354"><ele>160.0</ele><time>2026-04-19T11:00:20.041Z</time></trkpt><trkpt lat="41.2653514" lon="1.6038351"><ele>159.5</ele><time>2026-04-19T11:00:21.041Z</time></trkpt><trkpt lat="41.2653111" lon="1.6037413"><ele>159.0</ele><time>2026-04-19T11:00:22.041Z</time></trkpt><trkpt lat="41.2652658" lon="1.603643"><ele>158.5</ele><time>2026-04-19T11:00:23.041Z</time></trkpt><trkpt lat="41.2652204" lon="1.6035386"><ele>158.0</ele><time>2026-04-19T11:00:24.041Z</time></trkpt><trkpt lat="41.2651714" lon="1.6034304"><ele>158.0</ele><time>2026-04-19T11:00:25.041Z</time></trkpt><trkpt lat="41.2651305" lon="1.603327"><ele>158.0</ele><time>2026-04-19T11:00:26.041Z</time></trkpt><trkpt lat="41.2650886" lon="1.6032325"><ele>158.0</ele><time>2026-04-19T11:00:27.041Z</time></trkpt><trkpt lat="41.2650522" lon="1.6031439"><ele>158.0</ele><time>2026-04-19T11:00:28.04Z</time></trkpt><trkpt lat="41.2650142" lon="1.6030592"><ele>158.0</ele><time>2026-04-19T11:00:29.04Z</time></trkpt><trkpt lat="41.2649785" lon="1.6029824"><ele>158.0</ele><time>2026-04-19T11:00:30.041Z</time></trkpt><trkpt lat="41.2649438" lon="1.6029019"><ele>157.6</ele><time>2026-04-19T11:00:31.04Z</time></trkpt><trkpt lat="41.2649066" lon="1.6028224"><ele>157.20000000000002</ele><time>2026-04-19T11:00:32.04Z</time></trkpt><trkpt lat="41.2648461" lon="1.6026932"><ele>156.8</ele><time>2026-04-19T11:00:34.041Z</time></trkpt><trkpt lat="41.2647948" lon="1.6025766"><ele>156.4</ele><time>2026-04-19T11:00:36.04Z</time></trkpt><trkpt lat="41.2647321" lon="1.6024435"><ele>156.0</ele><time>2026-04-19T11:00:38.04Z</time></trkpt><trkpt lat="41.2646955" lon="1.602374"><ele>155.5</ele><time>2026-04-19T11:00:39.041Z</time></trkpt><trkpt lat="41.2646581" lon="1.6022961"><ele>155.0</ele><time>2026-04-19T11:00:40.041Z</time></trkpt><trkpt lat="41.2646213" lon="1.6022106"><ele>154.5</ele><time>2026-04-19T11:00:41.041Z</time></trkpt><trkpt lat="41.2645813" lon="1.6021234"><ele>154.0</ele><time>2026-04-19T11:00:42.04Z</time></trkpt><trkpt lat="41.2645381" lon="1.6020244"><ele>153.5</ele><time>2026-04-19T11:00:43.041Z</time></trkpt><trkpt lat="41.2644938" lon="1.6019283"><ele>153.0</ele><time>2026-04-19T11:00:44.04Z</time></trkpt><trkpt lat="41.2644492" lon="1.6018234"><ele>153.0</ele><time>2026-04-19T11:00:45.041Z</time></trkpt><trkpt lat="41.2643996" lon="1.6017105"><ele>153.0</ele><time>2026-04-19T11:00:46.041Z</time></trkpt><trkpt lat="41.2643449" lon="1.6015951"><ele>153.0</ele><time>2026-04-19T11:00:47.04Z</time></trkpt><trkpt lat="41.2642869" lon="1.6014852"><ele>153.0</ele><time>2026-04-19T11:00:48.041Z</time></trkpt><trkpt lat="41.2642198" lon="1.601379"><ele>153.0</ele><time>2026-04-19T11:00:49.041Z</time></trkpt><trkpt lat="41.264148" lon="1.6012856"><ele>153.0</ele><time>2026-04-19T11:00:50.041Z</time></trkpt><trkpt lat="41.2640706" lon="1.6012023"><ele>153.0</ele><time>2026-04-19T11:00:51.041Z</time></trkpt><trkpt lat="41.2639854" lon="1.6011243"><ele>153.0</ele><time>2026-04-19T11:00:52.04Z</time></trkpt><trkpt lat="41.263892" lon="1.6010545"><ele>153.0</ele><time>2026-04-19T11:00:53.041Z</time></trkpt><trkpt lat="41.263787" lon="1.6009829"><ele>153.0</ele><time>2026-04-19T11:00:54.041Z</time></trkpt><trkpt lat="41.2636778" lon="1.6009057"><ele>151.75</ele><time>2026-04-19T11:00:55.04Z</time></trkpt><trkpt lat="41.2635603" lon="1.6008326"><ele>150.5</ele><time>2026-04-19T11:00:56.04Z</time></trkpt><trkpt lat="41.2634344" lon="1.6007558"><ele>149.25</ele><time>2026-04-19T11:00:57.04Z</time></trkpt><trkpt lat="41.2633098" lon="1.6006779"><ele>148.0</ele><time>2026-04-19T11:00:58.041Z</time></trkpt><trkpt lat="41.2631931" lon="1.6006041"><ele>147.8</ele><time>2026-04-19T11:00:59.04Z</time></trkpt><trkpt lat="41.2630869" lon="1.6005363"><ele>147.60000000000002</ele><time>2026-04-19T11:01:00.04Z</time></trkpt><trkpt lat="41.262996" lon="1.6004723"><ele>147.39999999999998</ele><time>2026-04-19T11:01:01.04Z</time></trkpt><trkpt lat="41.2629237" lon="1.600405"><ele>147.2</ele><time>2026-04-19T11:01:02.041Z</time></trkpt><trkpt lat="41.2628619" lon="1.6003241"><ele>147.0</ele><time>2026-04-19T11:01:03.04Z</time></trkpt><trkpt lat="41.2628124" lon="1.6002174"><ele>146.33333333333334</ele><time>2026-04-19T11:01:04.041Z</time></trkpt><trkpt lat="41.2627639" lon="1.6001222"><ele>145.66666666666666</ele><time>2026-04-19T11:01:05.041Z</time></trkpt><trkpt lat="41.2627088" lon="1.600054"><ele>145.0</ele><time>2026-04-19T11:01:06.041Z</time></trkpt><trkpt lat="41.2626425" lon="1.6000121"><ele>144.33333333333331</ele><time>2026-04-19T11:01:07.041Z</time></trkpt><trkpt lat="41.262568" lon="1.6000044"><ele>143.66666666666666</ele><time>2026-04-19T11:01:08.04Z</time></trkpt><trkpt lat="41.2624928" lon="1.6000162"><ele>143.0</ele><time>2026-04-19T11:01:09.041Z</time></trkpt><trkpt lat="41.2624027" lon="1.6000287"><ele>143.0</ele><time>2026-04-19T11:01:10.04Z</time></trkpt><trkpt lat="41.2623032" lon="1.6000181"><ele>143.0</ele><time>2026-04-19T11:01:11.04Z</time></trkpt><trkpt lat="41.2622075" lon="1.5999886"><ele>143.0</ele><time>2026-04-19T11:01:12.041Z</time></trkpt><trkpt lat="41.2621015" lon="1.5999321"><ele>143.0</ele><time>2026-04-19T11:01:13.041Z</time></trkpt><trkpt lat="41.2619838" lon="1.599861"><ele>143.0</ele><time>2026-04-19T11:01:14.04Z</time></trkpt><trkpt lat="41.2618649" lon="1.5997824"><ele>142.25</ele><time>2026-04-19T11:01:15.041Z</time></trkpt><trkpt lat="41.2617396" lon="1.5997017"><ele>141.5</ele><time>2026-04-19T11:01:16.041Z</time></trkpt><trkpt lat="41.2616138" lon="1.5996212"><ele>140.75</ele><time>2026-04-19T11:01:17.04Z</time></trkpt><trkpt lat="41.2614891" lon="1.5995443"><ele>140.0</ele><time>2026-04-19T11:01:18.04Z</time></trkpt><trkpt lat="41.2613672" lon="1.5994661"><ele>138.75</ele><time>2026-04-19T11:01:19.041Z</time></trkpt><trkpt lat="41.2612443" lon="1.5993888"><ele>137.5</ele><time>2026-04-19T11:01:20.041Z</time></trkpt><trkpt lat="41.2611148" lon="1.5993103"><ele>136.25</ele><time>2026-04-19T11:01:21.04Z</time></trkpt><trkpt lat="41.2609875" lon="1.5992347"><ele>135.0</ele><time>2026-04-19T11:01:22.04Z</time></trkpt><trkpt lat="41.2608556" lon="1.5991563"><ele>135.0</ele><time>2026-04-19T11:01:23.04Z</time></trkpt><trkpt lat="41.2607167" lon="1.5990681"><ele>135.0</ele><time>2026-04-19T11:01:24.04Z</time></trkpt><trkpt lat="41.260575" lon="1.5989786"><ele>135.0</ele><time>2026-04-19T11:01:25.041Z</time></trkpt><trkpt lat="41.2604355" lon="1.5988887"><ele>134.0</ele><time>2026-04-19T11:01:26.041Z</time></trkpt><trkpt lat="41.2602954" lon="1.5988006"><ele>133.0</ele><time>2026-04-19T11:01:27.04Z</time></trkpt><trkpt lat="41.2601544" lon="1.5987108"><ele>132.0</ele><time>2026-04-19T11:01:28.041Z</time></trkpt><trkpt lat="41.2600073" lon="1.5986224"><ele>131.66666666666666</ele><time>2026-04-19T11:01:29.04Z</time></trkpt><trkpt lat="41.2598632" lon="1.5985292"><ele>131.33333333333331</ele><time>2026-04-19T11:01:30.041Z</time></trkpt><trkpt lat="41.2597196" lon="1.5984369"><ele>131.0</ele><time>2026-04-19T11:01:31.041Z</time></trkpt><trkpt lat="41.2595797" lon="1.5983502"><ele>130.75</ele><time>2026-04-19T11:01:32.04Z</time></trkpt><trkpt lat="41.2594447" lon="1.5982617"><ele>130.5</ele><time>2026-04-19T11:01:33.04Z</time></trkpt><trkpt lat="41.2593128" lon="1.5981759"><ele>130.25</ele><time>2026-04-19T11:01:34.041Z</time></trkpt><trkpt lat="41.2591834" lon="1.5980888"><ele>130.0</ele><time>2026-04-19T11:01:35.041Z</time></trkpt><trkpt lat="41.2590513" lon="1.5980038"><ele>130.33333333333334</ele><time>2026-04-19T11:01:36.041Z</time></trkpt><trkpt lat="41.2589118" lon="1.5979217"><ele>130.66666666666666</ele><time>2026-04-19T11:01:37.04Z</time></trkpt><trkpt lat="41.2587762" lon="1.597839"><ele>131.0</ele><time>2026-04-19T11:01:38.041Z</time></trkpt><trkpt lat="41.2586405" lon="1.5977569"><ele>131.33333333333331</ele><time>2026-04-19T11:01:39.04Z</time></trkpt><trkpt lat="41.258502" lon="1.5976717"><ele>131.66666666666666</ele><time>2026-04-19T11:01:40.04Z</time></trkpt><trkpt lat="41.2583625" lon="1.5975856"><ele>132.0</ele><time>2026-04-19T11:01:41.041Z</time></trkpt><trkpt lat="41.2582304" lon="1.5975077"><ele>132.75</ele><time>2026-04-19T11:01:42.041Z</time></trkpt><trkpt lat="41.2580958" lon="1.5974298"><ele>133.5</ele><time>2026-04-19T11:01:43.04Z</time></trkpt><trkpt lat="41.2579661" lon="1.5973525"><ele>134.25</ele><time>2026-04-19T11:01:44.041Z</time></trkpt><trkpt lat="41.2578349" lon="1.5972724"><ele>135.0</ele><time>2026-04-19T11:01:45.04Z</time></trkpt><trkpt lat="41.2577045" lon="1.5971886"><ele>135.0</ele><time>2026-04-19T11:01:46.041Z</time></trkpt><trkpt lat="41.2575816" lon="1.5970921"><ele>135.0</ele><time>2026-04-19T11:01:47.04Z</time></trkpt><trkpt lat="41.2574597" lon="1.59699"><ele>135.0</ele><time>2026-04-19T11:01:48.041Z</time></trkpt><trkpt lat="41.2573383" lon="1.5968732"><ele>135.0</ele><time>2026-04-19T11:01:49.041Z</time></trkpt><trkpt lat="41.2572178" lon="1.5967467"><ele>134.25</ele><time>2026-04-19T11:01:50.04Z</time></trkpt><trkpt lat="41.2571024" lon="1.5966182"><ele>133.5</ele><time>2026-04-19T11:01:51.04Z</time></trkpt><trkpt lat="41.2569913" lon="1.5964908"><ele>132.75</ele><time>2026-04-19T11:01:52.04Z</time></trkpt><trkpt lat="41.2568814" lon="1.5963675"><ele>132.0</ele><time>2026-04-19T11:01:53.04Z</time></trkpt><trkpt lat="41.2567733" lon="1.5962476"><ele>131.0</ele><time>2026-04-19T11:01:54.041Z</time></trkpt><trkpt lat="41.2566668" lon="1.5961271"><ele>130.0</ele><time>2026-04-19T11:01:55.041Z</time></trkpt><trkpt lat="41.2565615" lon="1.5959998"><ele>129.0</ele><time>2026-04-19T11:01:56.04Z</time></trkpt><trkpt lat="41.2564494" lon="1.5958746"><ele>128.0</ele><time>2026-04-19T11:01:57.04Z</time></trkpt><trkpt lat="41.2563395" lon="1.5957481"><ele>127.75</ele><time>2026-04-19T11:01:58.04Z</time></trkpt><trkpt lat="41.2562308" lon="1.595624"><ele>127.5</ele><time>2026-04-19T11:01:59.041Z</time></trkpt><trkpt lat="41.2561278" lon="1.5955069"><ele>127.25</ele><time>2026-04-19T11:02:00.041Z</time></trkpt><trkpt lat="41.256026" lon="1.5953944"><ele>127.0</ele><time>2026-04-19T11:02:01.041Z</time></trkpt><trkpt lat="41.2559286" lon="1.5952826"><ele>126.75</ele><time>2026-04-19T11:02:02.04Z</time></trkpt><trkpt lat="41.2558344" lon="1.5951761"><ele>126.5</ele><time>2026-04-19T11:02:03.041Z</time></trkpt><trkpt lat="41.2557417" lon="1.5950713"><ele>126.25</ele><time>2026-04-19T11:02:04.04Z</time></trkpt><trkpt lat="41.2556505" lon="1.5949693"><ele>126.0</ele><time>2026-04-19T11:02:05.041Z</time></trkpt><trkpt lat="41.2555609" lon="1.5948689"><ele>126.4</ele><time>2026-04-19T11:02:06.04Z</time></trkpt><trkpt lat="41.2554705" lon="1.5947678"><ele>126.8</ele><time>2026-04-19T11:02:07.041Z</time></trkpt><trkpt lat="41.2553865" lon="1.5946719"><ele>127.20000000000002</ele><time>2026-04-19T11:02:08.04Z</time></trkpt><trkpt lat="41.2553063" lon="1.5945867"><ele>127.60000000000001</ele><time>2026-04-19T11:02:09.041Z</time></trkpt><trkpt lat="41.2552299" lon="1.5944989"><ele>128.0</ele><time>2026-04-19T11:02:10.041Z</time></trkpt><trkpt lat="41.2551585" lon="1.5944142"><ele>128.5</ele><time>2026-04-19T11:02:11.041Z</time></trkpt><trkpt lat="41.2550912" lon="1.594339"><ele>129.0</ele><time>2026-04-19T11:02:12.041Z</time></trkpt><trkpt lat="41.2550331" lon="1.594273"><ele>129.5</ele><time>2026-04-19T11:02:13.041Z</time></trkpt><trkpt lat="41.2549799" lon="1.5942131"><ele>130.0</ele><time>2026-04-19T11:02:14.04Z</time></trkpt><trkpt lat="41.2548954" lon="1.5941187"><ele>130.5</ele><time>2026-04-19T11:02:16.041Z</time></trkpt><trkpt lat="41.2548299" lon="1.5940404"><ele>131.0</ele><time>2026-04-19T11:02:18.04Z</time></trkpt><trkpt lat="41.2547807" lon="1.5939741"><ele>131.4</ele><time>2026-04-19T11:02:21.041Z</time></trkpt><trkpt lat="41.2547262" lon="1.5939135"><ele>131.8</ele><time>2026-04-19T11:02:42.04Z</time></trkpt><trkpt lat="41.2546392" lon="1.5938139"><ele>132.20000000000002</ele><time>2026-04-19T11:02:44.04Z</time></trkpt><trkpt lat="41.2545414" lon="1.5937047"><ele>132.6</ele><time>2026-04-19T11:02:46.041Z</time></trkpt><trkpt lat="41.2544884" lon="1.5936522"><ele>133.0</ele><time>2026-04-19T11:02:47.041Z</time></trkpt><trkpt lat="41.254436" lon="1.59359"><ele>133.66666666666669</ele><time>2026-04-19T11:02:48.041Z</time></trkpt><trkpt lat="41.2543815" lon="1.5935242"><ele>134.33333333333334</ele><time>2026-04-19T11:02:49.041Z</time></trkpt><trkpt lat="41.2543183" lon="1.5934592"><ele>135.0</ele><time>2026-04-19T11:02:50.041Z</time></trkpt><trkpt lat="41.2542558" lon="1.5933993"><ele>135.66666666666666</ele><time>2026-04-19T11:02:51.041Z</time></trkpt><trkpt lat="41.2541874" lon="1.5933309"><ele>136.33333333333331</ele><time>2026-04-19T11:02:52.041Z</time></trkpt><trkpt lat="41.2541115" lon="1.5932614"><ele>137.0</ele><time>2026-04-19T11:02:53.041Z</time></trkpt><trkpt lat="41.2540295" lon="1.5931903"><ele>137.0</ele><time>2026-04-19T11:02:54.04Z</time></trkpt><trkpt lat="41.2539461" lon="1.5931267"><ele>137.0</ele><time>2026-04-19T11:02:55.041Z</time></trkpt><trkpt lat="41.2538602" lon="1.5930712"><ele>137.0</ele><time>2026-04-19T11:02:56.04Z</time></trkpt><trkpt lat="41.2537814" lon="1.5930078"><ele>137.0</ele><time>2026-04-19T11:02:57.041Z</time></trkpt><trkpt lat="41.2536963" lon="1.5929487"><ele>137.0</ele><time>2026-04-19T11:02:58.041Z</time></trkpt><trkpt lat="41.2536102" lon="1.5928893"><ele>136.5</ele><time>2026-04-19T11:02:59.04Z</time></trkpt><trkpt lat="41.2535212" lon="1.5928221"><ele>136.0</ele><time>2026-04-19T11:03:00.041Z</time></trkpt><trkpt lat="41.2534221" lon="1.5927537"><ele>135.5</ele><time>2026-04-19T11:03:01.041Z</time></trkpt><trkpt lat="41.2533142" lon="1.59268"><ele>135.0</ele><time>2026-04-19T11:03:02.04Z</time></trkpt><trkpt lat="41.2531975" lon="1.5926064"><ele>134.5</ele><time>2026-04-19T11:03:03.041Z</time></trkpt><trkpt lat="41.2530792" lon="1.5925266"><ele>134.0</ele><time>2026-04-19T11:03:04.041Z</time></trkpt><trkpt lat="41.2529439" lon="1.5924388"><ele>133.5</ele><time>2026-04-19T11:03:05.041Z</time></trkpt><trkpt lat="41.2528078" lon="1.5923529"><ele>133.0</ele><time>2026-04-19T11:03:06.041Z</time></trkpt><trkpt lat="41.2526748" lon="1.5922664"><ele>133.0</ele><time>2026-04-19T11:03:07.041Z</time></trkpt><trkpt lat="41.2525401" lon="1.5921866"><ele>133.0</ele><time>2026-04-19T11:03:08.04Z</time></trkpt><trkpt lat="41.2523942" lon="1.5920976"><ele>133.0</ele><time>2026-04-19T11:03:09.041Z</time></trkpt><trkpt lat="41.2522511" lon="1.5920065"><ele>132.66666666666669</ele><time>2026-04-19T11:03:10.04Z</time></trkpt><trkpt lat="41.2521059" lon="1.5919172"><ele>132.33333333333334</ele><time>2026-04-19T11:03:11.04Z</time></trkpt><trkpt lat="41.251955" lon="1.5918254"><ele>132.0</ele><time>2026-04-19T11:03:12.041Z</time></trkpt><trkpt lat="41.2518039" lon="1.5917311"><ele>132.0</ele><time>2026-04-19T11:03:13.041Z</time></trkpt><trkpt lat="41.251655" lon="1.5916323"><ele>132.0</ele><time>2026-04-19T11:03:14.041Z</time></trkpt><trkpt lat="41.2515007" lon="1.5915347"><ele>132.0</ele><time>2026-04-19T11:03:15.041Z</time></trkpt><trkpt lat="41.2513458" lon="1.5914449"><ele>132.66666666666666</ele><time>2026-04-19T11:03:16.041Z</time></trkpt><trkpt lat="41.2511978" lon="1.5913485"><ele>133.33333333333331</ele><time>2026-04-19T11:03:17.041Z</time></trkpt><trkpt lat="41.2510517" lon="1.5912569"><ele>134.0</ele><time>2026-04-19T11:03:18.04Z</time></trkpt><trkpt lat="41.2509123" lon="1.5911728"><ele>134.0</ele><time>2026-04-19T11:03:19.04Z</time></trkpt><trkpt lat="41.2507742" lon="1.5910915"><ele>134.0</ele><time>2026-04-19T11:03:20.041Z</time></trkpt><trkpt lat="41.2506342" lon="1.5910108"><ele>134.0</ele><time>2026-04-19T11:03:21.04Z</time></trkpt><trkpt lat="41.2504982" lon="1.5909288"><ele>134.0</ele><time>2026-04-19T11:03:22.041Z</time></trkpt><trkpt lat="41.250362" lon="1.5908509"><ele>134.0</ele><time>2026-04-19T11:03:23.04Z</time></trkpt><trkpt lat="41.250222" lon="1.5907673"><ele>134.0</ele><time>2026-04-19T11:03:24.04Z</time></trkpt><trkpt lat="41.2500804" lon="1.5906825"><ele>134.0</ele><time>2026-04-19T11:03:25.04Z</time></trkpt><trkpt lat="41.2499442" lon="1.5905938"><ele>134.0</ele><time>2026-04-19T11:03:26.041Z</time></trkpt><trkpt lat="41.2498087" lon="1.5905005"><ele>134.0</ele><time>2026-04-19T11:03:27.041Z</time></trkpt><trkpt lat="41.2496679" lon="1.5903993"><ele>134.0</ele><time>2026-04-19T11:03:28.04Z</time></trkpt><trkpt lat="41.2495288" lon="1.5902895"><ele>134.0</ele><time>2026-04-19T11:03:29.041Z</time></trkpt><trkpt lat="41.2493839" lon="1.5901827"><ele>134.0</ele><time>2026-04-19T11:03:30.041Z</time></trkpt><trkpt lat="41.2492388" lon="1.590076"><ele>134.0</ele><time>2026-04-19T11:03:31.04Z</time></trkpt><trkpt lat="41.2490953" lon="1.5899648"><ele>134.0</ele><time>2026-04-19T11:03:32.041Z</time></trkpt><trkpt lat="41.248953" lon="1.5898575"><ele>134.0</ele><time>2026-04-19T11:03:33.041Z</time></trkpt><trkpt lat="41.2488109" lon="1.5897555"><ele>132.66666666666666</ele><time>2026-04-19T11:03:34.04Z</time></trkpt><trkpt lat="41.2486734" lon="1.5896492"><ele>131.33333333333334</ele><time>2026-04-19T11:03:35.041Z</time></trkpt><trkpt lat="41.2485364" lon="1.5895437"><ele>130.0</ele><time>2026-04-19T11:03:36.041Z</time></trkpt><trkpt lat="41.248406" lon="1.5894384"><ele>130.0</ele><time>2026-04-19T11:03:37.04Z</time></trkpt><trkpt lat="41.2482741" lon="1.5893379"><ele>130.0</ele><time>2026-04-19T11:03:38.04Z</time></trkpt><trkpt lat="41.2481451" lon="1.5892264"><ele>130.0</ele><time>2026-04-19T11:03:39.041Z</time></trkpt><trkpt lat="41.2480218" lon="1.5890914"><ele>129.33333333333334</ele><time>2026-04-19T11:03:40.041Z</time></trkpt><trkpt lat="41.2479043" lon="1.5889336"><ele>128.66666666666666</ele><time>2026-04-19T11:03:41.04Z</time></trkpt><trkpt lat="41.2477937" lon="1.5887745"><ele>128.0</ele><time>2026-04-19T11:03:42.041Z</time></trkpt><trkpt lat="41.2476831" lon="1.5886199"><ele>127.66666666666666</ele><time>2026-04-19T11:03:43.04Z</time></trkpt><trkpt lat="41.247575" lon="1.5884646"><ele>127.33333333333334</ele><time>2026-04-19T11:03:44.041Z</time></trkpt><trkpt lat="41.2474653" lon="1.5883071"><ele>127.0</ele><time>2026-04-19T11:03:45.041Z</time></trkpt><trkpt lat="41.2473523" lon="1.5881455"><ele>125.66666666666667</ele><time>2026-04-19T11:03:46.041Z</time></trkpt><trkpt lat="41.247237" lon="1.587983"><ele>124.33333333333334</ele><time>2026-04-19T11:03:47.04Z</time></trkpt><trkpt lat="41.2471221" lon="1.5878147"><ele>123.0</ele><time>2026-04-19T11:03:48.04Z</time></trkpt><trkpt lat="41.2470083" lon="1.5876519"><ele>122.0</ele><time>2026-04-19T11:03:49.041Z</time></trkpt><trkpt lat="41.246894" lon="1.5874822"><ele>121.0</ele><time>2026-04-19T11:03:50.04Z</time></trkpt><trkpt lat="41.2467706" lon="1.5873051"><ele>120.0</ele><time>2026-04-19T11:03:51.041Z</time></trkpt><trkpt lat="41.2466408" lon="1.5871198"><ele>120.66666666666666</ele><time>2026-04-19T11:03:52.04Z</time></trkpt><trkpt lat="41.2465147" lon="1.5869365"><ele>121.33333333333333</ele><time>2026-04-19T11:03:53.041Z</time></trkpt><trkpt lat="41.2463929" lon="1.5867549"><ele>122.0</ele><time>2026-04-19T11:03:54.04Z</time></trkpt><trkpt lat="41.2462733" lon="1.5865853"><ele>122.0</ele><time>2026-04-19T11:03:55.041Z</time></trkpt><trkpt lat="41.2461546" lon="1.5864269"><ele>122.0</ele><time>2026-04-19T11:03:56.04Z</time></trkpt><trkpt lat="41.246038" lon="1.586276"><ele>122.0</ele><time>2026-04-19T11:03:57.041Z</time></trkpt><trkpt lat="41.2459169" lon="1.5861219"><ele>122.66666666666666</ele><time>2026-04-19T11:03:58.041Z</time></trkpt><trkpt lat="41.2457863" lon="1.5859675"><ele>123.33333333333334</ele><time>2026-04-19T11:03:59.041Z</time></trkpt><trkpt lat="41.2456521" lon="1.5858179"><ele>124.0</ele><time>2026-04-19T11:04:00.041Z</time></trkpt><trkpt lat="41.2455154" lon="1.5856748"><ele>124.33333333333334</ele><time>2026-04-19T11:04:01.04Z</time></trkpt><trkpt lat="41.2453786" lon="1.58553"><ele>124.66666666666666</ele><time>2026-04-19T11:04:02.04Z</time></trkpt><trkpt lat="41.2452384" lon="1.5853767"><ele>125.0</ele><time>2026-04-19T11:04:03.041Z</time></trkpt><trkpt lat="41.245087" lon="1.5852226"><ele>125.0</ele><time>2026-04-19T11:04:04.041Z</time></trkpt><trkpt lat="41.2449361" lon="1.5850646"><ele>125.0</ele><time>2026-04-19T11:04:05.041Z</time></trkpt><trkpt lat="41.2447908" lon="1.5849156"><ele>125.0</ele><time>2026-04-19T11:04:06.04Z</time></trkpt><trkpt lat="41.2446461" lon="1.5847598"><ele>123.33333333333333</ele><time>2026-04-19T11:04:07.041Z</time></trkpt><trkpt lat="41.2445009" lon="1.5846038"><ele>121.66666666666666</ele><time>2026-04-19T11:04:08.041Z</time></trkpt><trkpt lat="41.2443535" lon="1.5844568"><ele>120.0</ele><time>2026-04-19T11:04:09.04Z</time></trkpt><trkpt lat="41.244204" lon="1.5843234"><ele>119.66666666666666</ele><time>2026-04-19T11:04:10.04Z</time></trkpt><trkpt lat="41.2440493" lon="1.5841957"><ele>119.33333333333333</ele><time>2026-04-19T11:04:11.04Z</time></trkpt><trkpt lat="41.2438931" lon="1.5840768"><ele>119.0</ele><time>2026-04-19T11:04:12.041Z</time></trkpt><trkpt lat="41.2437341" lon="1.5839648"><ele>118.66666666666666</ele><time>2026-04-19T11:04:13.04Z</time></trkpt><trkpt lat="41.2435719" lon="1.583858"><ele>118.33333333333334</ele><time>2026-04-19T11:04:14.041Z</time></trkpt><trkpt lat="41.2434059" lon="1.583752"><ele>118.0</ele><time>2026-04-19T11:04:15.041Z</time></trkpt><trkpt lat="41.2432413" lon="1.5836479"><ele>118.33333333333334</ele><time>2026-04-19T11:04:16.041Z</time></trkpt><trkpt lat="41.243076" lon="1.5835443"><ele>118.66666666666666</ele><time>2026-04-19T11:04:17.041Z</time></trkpt><trkpt lat="41.2429111" lon="1.5834395"><ele>119.0</ele><time>2026-04-19T11:04:18.04Z</time></trkpt><trkpt lat="41.2427483" lon="1.5833324"><ele>119.0</ele><time>2026-04-19T11:04:19.04Z</time></trkpt><trkpt lat="41.2425895" lon="1.5832314"><ele>119.0</ele><time>2026-04-19T11:04:20.041Z</time></trkpt><trkpt lat="41.2424303" lon="1.583133"><ele>119.0</ele><time>2026-04-19T11:04:21.041Z</time></trkpt><trkpt lat="41.2422723" lon="1.583032"><ele>118.0</ele><time>2026-04-19T11:04:22.041Z</time></trkpt><trkpt lat="41.2421106" lon="1.5829302"><ele>117.0</ele><time>2026-04-19T11:04:23.04Z</time></trkpt><trkpt lat="41.2419452" lon="1.5828292"><ele>116.0</ele><time>2026-04-19T11:04:24.041Z</time></trkpt><trkpt lat="41.2417817" lon="1.5827288"><ele>116.0</ele><time>2026-04-19T11:04:25.04Z</time></trkpt><trkpt lat="41.2416227" lon="1.5826278"><ele>116.0</ele><time>2026-04-19T11:04:26.04Z</time></trkpt><trkpt lat="41.2414625" lon="1.5825289"><ele>116.0</ele><time>2026-04-19T11:04:27.041Z</time></trkpt><trkpt lat="41.2413028" lon="1.5824317"><ele>113.0</ele><time>2026-04-19T11:04:28.041Z</time></trkpt><trkpt lat="41.2411457" lon="1.5823288"><ele>110.0</ele><time>2026-04-19T11:04:29.041Z</time></trkpt><trkpt lat="41.240992" lon="1.5822302"><ele>107.0</ele><time>2026-04-19T11:04:30.041Z</time></trkpt><trkpt lat="41.2408418" lon="1.5821336"><ele>107.0</ele><time>2026-04-19T11:04:31.041Z</time></trkpt><trkpt lat="41.2406941" lon="1.5820404"><ele>107.0</ele><time>2026-04-19T11:04:32.04Z</time></trkpt><trkpt lat="41.2405423" lon="1.5819474"><ele>107.0</ele><time>2026-04-19T11:04:33.04Z</time></trkpt><trkpt lat="41.2403865" lon="1.5818521"><ele>105.33333333333333</ele><time>2026-04-19T11:04:34.041Z</time></trkpt><trkpt lat="41.2402314" lon="1.5817473"><ele>103.66666666666666</ele><time>2026-04-19T11:04:35.04Z</time></trkpt><trkpt lat="41.2400743" lon="1.5816283"><ele>102.0</ele><time>2026-04-19T11:04:36.04Z</time></trkpt><trkpt lat="41.239914" lon="1.5814983"><ele>101.0</ele><time>2026-04-19T11:04:37.04Z</time></trkpt><trkpt lat="41.2397571" lon="1.5813636"><ele>100.0</ele><time>2026-04-19T11:04:38.041Z</time></trkpt><trkpt lat="41.2396051" lon="1.5812175"><ele>99.0</ele><time>2026-04-19T11:04:39.041Z</time></trkpt><trkpt lat="41.2394619" lon="1.5810656"><ele>98.33333333333334</ele><time>2026-04-19T11:04:40.04Z</time></trkpt><trkpt lat="41.239324" lon="1.5809021"><ele>97.66666666666667</ele><time>2026-04-19T11:04:41.04Z</time></trkpt><trkpt lat="41.2391929" lon="1.5807296"><ele>97.0</ele><time>2026-04-19T11:04:42.041Z</time></trkpt><trkpt lat="41.2390668" lon="1.5805492"><ele>96.33333333333334</ele><time>2026-04-19T11:04:43.04Z</time></trkpt><trkpt lat="41.2389521" lon="1.5803668"><ele>95.66666666666667</ele><time>2026-04-19T11:04:44.04Z</time></trkpt><trkpt lat="41.2388467" lon="1.5801841"><ele>95.0</ele><time>2026-04-19T11:04:45.041Z</time></trkpt><trkpt lat="41.2387507" lon="1.5800049"><ele>96.0</ele><time>2026-04-19T11:04:46.041Z</time></trkpt><trkpt lat="41.2386663" lon="1.5798371"><ele>97.0</ele><time>2026-04-19T11:04:47.04Z</time></trkpt><trkpt lat="41.2386005" lon="1.5796873"><ele>98.0</ele><time>2026-04-19T11:04:48.04Z</time></trkpt><trkpt lat="41.2385444" lon="1.5795566"><ele>99.0</ele><time>2026-04-19T11:04:49.041Z</time></trkpt><trkpt lat="41.2384973" lon="1.5794348"><ele>99.5</ele><time>2026-04-19T11:04:50.04Z</time></trkpt><trkpt lat="41.2384563" lon="1.5793335"><ele>100.0</ele><time>2026-04-19T11:04:51.04Z</time></trkpt><trkpt lat="41.2384222" lon="1.5792377"><ele>100.5</ele><time>2026-04-19T11:04:52.041Z</time></trkpt><trkpt lat="41.2383956" lon="1.579157"><ele>101.0</ele><time>2026-04-19T11:04:53.04Z</time></trkpt><trkpt lat="41.2383638" lon="1.5790439"><ele>101.5</ele><time>2026-04-19T11:04:55.041Z</time></trkpt><trkpt lat="41.2383403" lon="1.5789525"><ele>102.0</ele><time>2026-04-19T11:04:57.04Z</time></trkpt><trkpt lat="41.2383101" lon="1.5788404"><ele>102.0</ele><time>2026-04-19T11:05:00.041Z</time></trkpt><trkpt lat="41.2382862" lon="1.5787406"><ele>102.0</ele><time>2026-04-19T11:05:03.041Z</time></trkpt><trkpt lat="41.2382685" lon="1.5786445"><ele>102.0</ele><time>2026-04-19T11:05:07.041Z</time></trkpt><trkpt lat="41.2382505" lon="1.5785551"><ele>102.0</ele><time>2026-04-19T11:05:10.041Z</time></trkpt><trkpt lat="41.2382248" lon="1.5784528"><ele>102.0</ele><time>2026-04-19T11:05:12.041Z</time></trkpt><trkpt lat="41.2381987" lon="1.5783348"><ele>102.0</ele><time>2026-04-19T11:05:14.041Z</time></trkpt><trkpt lat="41.2381715" lon="1.5781924"><ele>101.83333333333333</ele><time>2026-04-19T11:05:16.04Z</time></trkpt><trkpt lat="41.2381483" lon="1.5780403"><ele>101.66666666666666</ele><time>2026-04-19T11:05:18.041Z</time></trkpt><trkpt lat="41.2381366" lon="1.5779485"><ele>101.5</ele><time>2026-04-19T11:05:19.04Z</time></trkpt><trkpt lat="41.238123" lon="1.5778494"><ele>101.33333333333333</ele><time>2026-04-19T11:05:20.041Z</time></trkpt><trkpt lat="41.2381052" lon="1.5777355"><ele>101.16666666666666</ele><time>2026-04-19T11:05:21.041Z</time></trkpt><trkpt lat="41.2380881" lon="1.5776188"><ele>101.0</ele><time>2026-04-19T11:05:22.04Z</time></trkpt><trkpt lat="41.2380719" lon="1.5775007"><ele>100.4</ele><time>2026-04-19T11:05:23.041Z</time></trkpt><trkpt lat="41.2380573" lon="1.5773856"><ele>99.8</ele><time>2026-04-19T11:05:24.041Z</time></trkpt><trkpt lat="41.2380444" lon="1.5772625"><ele>99.2</ele><time>2026-04-19T11:05:25.041Z</time></trkpt><trkpt lat="41.2380248" lon="1.5771293"><ele>98.60000000000001</ele><time>2026-04-19T11:05:26.04Z</time></trkpt><trkpt lat="41.2380076" lon="1.5769929"><ele>98.0</ele><time>2026-04-19T11:05:27.041Z</time></trkpt><trkpt lat="41.2379845" lon="1.576851"><ele>97.0</ele><time>2026-04-19T11:05:28.04Z</time></trkpt><trkpt lat="41.2379628" lon="1.5767025"><ele>96.0</ele><time>2026-04-19T11:05:29.041Z</time></trkpt><trkpt lat="41.2379424" lon="1.5765553"><ele>95.0</ele><time>2026-04-19T11:05:30.04Z</time></trkpt><trkpt lat="41.2379209" lon="1.5764122"><ele>94.0</ele><time>2026-04-19T11:05:31.041Z</time></trkpt><trkpt lat="41.2379009" lon="1.5762708"><ele>93.0</ele><time>2026-04-19T11:05:32.04Z</time></trkpt><trkpt lat="41.2378831" lon="1.5761296"><ele>92.5</ele><time>2026-04-19T11:05:33.041Z</time></trkpt><trkpt lat="41.237865" lon="1.5759858"><ele>92.0</ele><time>2026-04-19T11:05:34.04Z</time></trkpt><trkpt lat="41.2378424" lon="1.5758356"><ele>91.5</ele><time>2026-04-19T11:05:35.041Z</time></trkpt><trkpt lat="41.23782" lon="1.5756785"><ele>91.0</ele><time>2026-04-19T11:05:36.041Z</time></trkpt><trkpt lat="41.2378015" lon="1.5755154"><ele>90.75</ele><time>2026-04-19T11:05:37.041Z</time></trkpt><trkpt lat="41.2377762" lon="1.5753268"><ele>90.5</ele><time>2026-04-19T11:05:38.04Z</time></trkpt><trkpt lat="41.2377508" lon="1.5751521"><ele>90.25</ele><time>2026-04-19T11:05:39.041Z</time></trkpt><trkpt lat="41.2377279" lon="1.5749781"><ele>90.0</ele><time>2026-04-19T11:05:40.041Z</time></trkpt><trkpt lat="41.2377063" lon="1.5748073"><ele>90.0</ele><time>2026-04-19T11:05:41.041Z</time></trkpt><trkpt lat="41.2376874" lon="1.5746434"><ele>90.0</ele><time>2026-04-19T11:05:42.04Z</time></trkpt><trkpt lat="41.2376687" lon="1.5744841"><ele>90.0</ele><time>2026-04-19T11:05:43.04Z</time></trkpt><trkpt lat="41.2376482" lon="1.574338"><ele>90.0</ele><time>2026-04-19T11:05:44.041Z</time></trkpt><trkpt lat="41.2376254" lon="1.5742004"><ele>89.8</ele><time>2026-04-19T11:05:45.041Z</time></trkpt><trkpt lat="41.2376085" lon="1.5740657"><ele>89.6</ele><time>2026-04-19T11:05:46.041Z</time></trkpt><trkpt lat="41.2375903" lon="1.5739396"><ele>89.4</ele><time>2026-04-19T11:05:47.041Z</time></trkpt><trkpt lat="41.2375734" lon="1.5738213"><ele>89.2</ele><time>2026-04-19T11:05:48.041Z</time></trkpt><trkpt lat="41.2375533" lon="1.5737015"><ele>89.0</ele><time>2026-04-19T11:05:49.041Z</time></trkpt><trkpt lat="41.2375294" lon="1.5735812"><ele>88.80000000000001</ele><time>2026-04-19T11:05:50.041Z</time></trkpt><trkpt lat="41.2375015" lon="1.5734604"><ele>88.60000000000001</ele><time>2026-04-19T11:05:51.041Z</time></trkpt><trkpt lat="41.2374711" lon="1.5733378"><ele>88.4</ele><time>2026-04-19T11:05:52.04Z</time></trkpt><trkpt lat="41.2374426" lon="1.5732434"><ele>88.2</ele><time>2026-04-19T11:05:53.041Z</time></trkpt><trkpt lat="41.2374156" lon="1.5730916"><ele>88.0</ele><time>2026-04-19T11:05:55.04Z</time></trkpt><trkpt lat="41.2374153" lon="1.5730068"><ele>88.0</ele><time>2026-04-19T11:05:56.041Z</time></trkpt><trkpt lat="41.2374303" lon="1.572915"><ele>88.0</ele><time>2026-04-19T11:05:57.041Z</time></trkpt><trkpt lat="41.2374482" lon="1.5728115"><ele>88.0</ele><time>2026-04-19T11:05:58.041Z</time></trkpt><trkpt lat="41.23745" lon="1.5727068"><ele>88.0</ele><time>2026-04-19T11:05:59.04Z</time></trkpt><trkpt lat="41.2374271" lon="1.5726083"><ele>88.0</ele><time>2026-04-19T11:06:00.04Z</time></trkpt><trkpt lat="41.2373824" lon="1.5725067"><ele>88.0</ele><time>2026-04-19T11:06:01.041Z</time></trkpt><trkpt lat="41.2373244" lon="1.5724023"><ele>87.75</ele><time>2026-04-19T11:06:02.041Z</time></trkpt><trkpt lat="41.2372755" lon="1.572275"><ele>87.5</ele><time>2026-04-19T11:06:03.041Z</time></trkpt><trkpt lat="41.237229" lon="1.572141"><ele>87.25</ele><time>2026-04-19T11:06:04.04Z</time></trkpt><trkpt lat="41.2371811" lon="1.5720053"><ele>87.0</ele><time>2026-04-19T11:06:05.04Z</time></trkpt><trkpt lat="41.2371204" lon="1.5718504"><ele>87.0</ele><time>2026-04-19T11:06:06.04Z</time></trkpt><trkpt lat="41.2370462" lon="1.5716863"><ele>87.0</ele><time>2026-04-19T11:06:07.041Z</time></trkpt><trkpt lat="41.2369664" lon="1.5715131"><ele>87.0</ele><time>2026-04-19T11:06:08.04Z</time></trkpt><trkpt lat="41.2368806" lon="1.5713308"><ele>86.66666666666667</ele><time>2026-04-19T11:06:09.04Z</time></trkpt><trkpt lat="41.2367931" lon="1.5711467"><ele>86.33333333333334</ele><time>2026-04-19T11:06:10.041Z</time></trkpt><trkpt lat="41.2367028" lon="1.5709558"><ele>86.0</ele><time>2026-04-19T11:06:11.041Z</time></trkpt><trkpt lat="41.2366111" lon="1.5707659"><ele>86.0</ele><time>2026-04-19T11:06:12.041Z</time></trkpt><trkpt lat="41.2365188" lon="1.5705699"><ele>86.0</ele><time>2026-04-19T11:06:13.04Z</time></trkpt><trkpt lat="41.2364247" lon="1.5703733"><ele>86.0</ele><time>2026-04-19T11:06:14.041Z</time></trkpt><trkpt lat="41.2363299" lon="1.5701822"><ele>86.0</ele><time>2026-04-19T11:06:15.04Z</time></trkpt><trkpt lat="41.2362363" lon="1.5699908"><ele>86.0</ele><time>2026-04-19T11:06:16.04Z</time></trkpt><trkpt lat="41.2361457" lon="1.5698001"><ele>86.0</ele><time>2026-04-19T11:06:17.041Z</time></trkpt><trkpt lat="41.2360506" lon="1.5696016"><ele>85.33333333333334</ele><time>2026-04-19T11:06:18.041Z</time></trkpt><trkpt lat="41.2359477" lon="1.5693947"><ele>84.66666666666667</ele><time>2026-04-19T11:06:19.041Z</time></trkpt><trkpt lat="41.2358431" lon="1.5691717"><ele>84.0</ele><time>2026-04-19T11:06:20.04Z</time></trkpt><trkpt lat="41.2357428" lon="1.5689533"><ele>84.0</ele><time>2026-04-19T11:06:21.04Z</time></trkpt><trkpt lat="41.2356419" lon="1.5687358"><ele>84.0</ele><time>2026-04-19T11:06:22.041Z</time></trkpt><trkpt lat="41.2355414" lon="1.5685274"><ele>84.0</ele><time>2026-04-19T11:06:23.041Z</time></trkpt><trkpt lat="41.2354401" lon="1.5683173"><ele>83.0</ele><time>2026-04-19T11:06:24.041Z</time></trkpt><trkpt lat="41.2353413" lon="1.5681102"><ele>82.0</ele><time>2026-04-19T11:06:25.041Z</time></trkpt><trkpt lat="41.2352458" lon="1.5679037"><ele>81.0</ele><time>2026-04-19T11:06:26.041Z</time></trkpt><trkpt lat="41.2351522" lon="1.567707"><ele>81.0</ele><time>2026-04-19T11:06:27.041Z</time></trkpt><trkpt lat="41.2350613" lon="1.5675131"><ele>81.0</ele><time>2026-04-19T11:06:28.04Z</time></trkpt><trkpt lat="41.2349709" lon="1.5673194"><ele>81.0</ele><time>2026-04-19T11:06:29.041Z</time></trkpt><trkpt lat="41.2348803" lon="1.5671268"><ele>80.33333333333333</ele><time>2026-04-19T11:06:30.041Z</time></trkpt><trkpt lat="41.2347864" lon="1.5669289"><ele>79.66666666666666</ele><time>2026-04-19T11:06:31.041Z</time></trkpt><trkpt lat="41.2346872" lon="1.5667291"><ele>79.0</ele><time>2026-04-19T11:06:32.041Z</time></trkpt><trkpt lat="41.2345786" lon="1.5665155"><ele>79.0</ele><time>2026-04-19T11:06:33.041Z</time></trkpt><trkpt lat="41.2344765" lon="1.5663096"><ele>79.0</ele><time>2026-04-19T11:06:34.041Z</time></trkpt><trkpt lat="41.2343764" lon="1.5661063"><ele>79.0</ele><time>2026-04-19T11:06:35.04Z</time></trkpt><trkpt lat="41.2342838" lon="1.5659113"><ele>79.0</ele><time>2026-04-19T11:06:36.04Z</time></trkpt><trkpt lat="41.234191" lon="1.5657181"><ele>79.0</ele><time>2026-04-19T11:06:37.041Z</time></trkpt><trkpt lat="41.2340951" lon="1.5655165"><ele>79.0</ele><time>2026-04-19T11:06:38.041Z</time></trkpt><trkpt lat="41.2339999" lon="1.5653199"><ele>78.66666666666666</ele><time>2026-04-19T11:06:39.041Z</time></trkpt><trkpt lat="41.2339101" lon="1.5651258"><ele>78.33333333333333</ele><time>2026-04-19T11:06:40.041Z</time></trkpt><trkpt lat="41.2338203" lon="1.5649368"><ele>78.0</ele><time>2026-04-19T11:06:41.041Z</time></trkpt><trkpt lat="41.2337314" lon="1.5647483"><ele>78.0</ele><time>2026-04-19T11:06:42.041Z</time></trkpt><trkpt lat="41.2336342" lon="1.5645525"><ele>78.0</ele><time>2026-04-19T11:06:43.04Z</time></trkpt><trkpt lat="41.2335369" lon="1.5643536"><ele>78.0</ele><time>2026-04-19T11:06:44.041Z</time></trkpt><trkpt lat="41.2334376" lon="1.5641518"><ele>78.33333333333333</ele><time>2026-04-19T11:06:45.04Z</time></trkpt><trkpt lat="41.2333409" lon="1.563945"><ele>78.66666666666666</ele><time>2026-04-19T11:06:46.041Z</time></trkpt><trkpt lat="41.2332479" lon="1.5637414"><ele>79.0</ele><time>2026-04-19T11:06:47.041Z</time></trkpt><trkpt lat="41.2331493" lon="1.5635382"><ele>78.33333333333333</ele><time>2026-04-19T11:06:48.04Z</time></trkpt><trkpt lat="41.2330534" lon="1.5633377"><ele>77.66666666666667</ele><time>2026-04-19T11:06:49.041Z</time></trkpt><trkpt lat="41.232953" lon="1.5631363"><ele>77.0</ele><time>2026-04-19T11:06:50.041Z</time></trkpt><trkpt lat="41.232857" lon="1.5629394"><ele>76.0</ele><time>2026-04-19T11:06:51.041Z</time></trkpt><trkpt lat="41.2327607" lon="1.5627409"><ele>75.0</ele><time>2026-04-19T11:06:52.041Z</time></trkpt><trkpt lat="41.2326653" lon="1.5625452"><ele>74.0</ele><time>2026-04-19T11:06:53.041Z</time></trkpt><trkpt lat="41.2325671" lon="1.5623467"><ele>74.0</ele><time>2026-04-19T11:06:54.041Z</time></trkpt><trkpt lat="41.2324664" lon="1.562147"><ele>74.0</ele><time>2026-04-19T11:06:55.041Z</time></trkpt><trkpt lat="41.2323653" lon="1.5619422"><ele>74.0</ele><time>2026-04-19T11:06:56.04Z</time></trkpt><trkpt lat="41.2322625" lon="1.5617367"><ele>73.66666666666667</ele><time>2026-04-19T11:06:57.04Z</time></trkpt><trkpt lat="41.2321599" lon="1.5615289"><ele>73.33333333333333</ele><time>2026-04-19T11:06:58.041Z</time></trkpt><trkpt lat="41.2320601" lon="1.5613132"><ele>73.0</ele><time>2026-04-19T11:06:59.041Z</time></trkpt><trkpt lat="41.2319618" lon="1.5610996"><ele>73.0</ele><time>2026-04-19T11:07:00.041Z</time></trkpt><trkpt lat="41.2318543" lon="1.5608705"><ele>73.0</ele><time>2026-04-19T11:07:01.041Z</time></trkpt><trkpt lat="41.2317441" lon="1.5606412"><ele>73.0</ele><time>2026-04-19T11:07:02.041Z</time></trkpt><trkpt lat="41.2316386" lon="1.5604187"><ele>73.0</ele><time>2026-04-19T11:07:03.041Z</time></trkpt><trkpt lat="41.2315338" lon="1.560204"><ele>73.0</ele><time>2026-04-19T11:07:04.04Z</time></trkpt><trkpt lat="41.231427" lon="1.5599831"><ele>73.0</ele><time>2026-04-19T11:07:05.04Z</time></trkpt><trkpt lat="41.2313188" lon="1.559758"><ele>73.0</ele><time>2026-04-19T11:07:06.041Z</time></trkpt><trkpt lat="41.231213" lon="1.559543"><ele>73.0</ele><time>2026-04-19T11:07:07.041Z</time></trkpt><trkpt lat="41.2311074" lon="1.5593211"><ele>73.0</ele><time>2026-04-19T11:07:08.041Z</time></trkpt><trkpt lat="41.2309999" lon="1.5590972"><ele>72.66666666666666</ele><time>2026-04-19T11:07:09.04Z</time></trkpt><trkpt lat="41.230895" lon="1.5588741"><ele>72.33333333333333</ele><time>2026-04-19T11:07:10.041Z</time></trkpt><trkpt lat="41.2307871" lon="1.5586512"><ele>72.0</ele><time>2026-04-19T11:07:11.041Z</time></trkpt><trkpt lat="41.2306807" lon="1.5584314"><ele>72.0</ele><time>2026-04-19T11:07:12.041Z</time></trkpt><trkpt lat="41.2305799" lon="1.5582162"><ele>72.0</ele><time>2026-04-19T11:07:13.041Z</time></trkpt><trkpt lat="41.230476" lon="1.5580012"><ele>72.0</ele><time>2026-04-19T11:07:14.041Z</time></trkpt><trkpt lat="41.2303713" lon="1.5577862"><ele>72.0</ele><time>2026-04-19T11:07:15.04Z</time></trkpt><trkpt lat="41.2302689" lon="1.5575642"><ele>72.0</ele><time>2026-04-19T11:07:16.04Z</time></trkpt><trkpt lat="41.2301678" lon="1.5573461"><ele>72.0</ele><time>2026-04-19T11:07:17.041Z</time></trkpt><trkpt lat="41.2300704" lon="1.5571358"><ele>71.66666666666667</ele><time>2026-04-19T11:07:18.041Z</time></trkpt><trkpt lat="41.2299726" lon="1.5569285"><ele>71.33333333333334</ele><time>2026-04-19T11:07:19.041Z</time></trkpt><trkpt lat="41.2298776" lon="1.5567327"><ele>71.0</ele><time>2026-04-19T11:07:20.041Z</time></trkpt><trkpt lat="41.2297861" lon="1.5565393"><ele>71.0</ele><time>2026-04-19T11:07:21.041Z</time></trkpt><trkpt lat="41.2296902" lon="1.5563442"><ele>71.0</ele><time>2026-04-19T11:07:22.041Z</time></trkpt><trkpt lat="41.2295918" lon="1.5561401"><ele>71.0</ele><time>2026-04-19T11:07:23.04Z</time></trkpt><trkpt lat="41.229497" lon="1.5559438"><ele>71.33333333333334</ele><time>2026-04-19T11:07:24.04Z</time></trkpt><trkpt lat="41.2294098" lon="1.5557597"><ele>71.66666666666667</ele><time>2026-04-19T11:07:25.041Z</time></trkpt><trkpt lat="41.2293198" lon="1.5555715"><ele>72.0</ele><time>2026-04-19T11:07:26.041Z</time></trkpt><trkpt lat="41.2292312" lon="1.5553876"><ele>71.33333333333333</ele><time>2026-04-19T11:07:27.041Z</time></trkpt><trkpt lat="41.2291439" lon="1.5552003"><ele>70.66666666666666</ele><time>2026-04-19T11:07:28.041Z</time></trkpt><trkpt lat="41.2290558" lon="1.5550235"><ele>70.0</ele><time>2026-04-19T11:07:29.041Z</time></trkpt><trkpt lat="41.22897" lon="1.5548449"><ele>70.66666666666666</ele><time>2026-04-19T11:07:30.041Z</time></trkpt><trkpt lat="41.2288862" lon="1.5546777"><ele>71.33333333333333</ele><time>2026-04-19T11:07:31.04Z</time></trkpt><trkpt lat="41.2288062" lon="1.5545115"><ele>72.0</ele><time>2026-04-19T11:07:32.041Z</time></trkpt><trkpt lat="41.2287229" lon="1.5543382"><ele>72.0</ele><time>2026-04-19T11:07:33.041Z</time></trkpt><trkpt lat="41.2286422" lon="1.5541637"><ele>72.0</ele><time>2026-04-19T11:07:34.04Z</time></trkpt><trkpt lat="41.2285617" lon="1.5539891"><ele>72.0</ele><time>2026-04-19T11:07:35.04Z</time></trkpt><trkpt lat="41.2284832" lon="1.5538173"><ele>72.0</ele><time>2026-04-19T11:07:36.041Z</time></trkpt><trkpt lat="41.2284058" lon="1.5536391"><ele>72.0</ele><time>2026-04-19T11:07:37.04Z</time></trkpt><trkpt lat="41.2283281" lon="1.5534599"><ele>72.0</ele><time>2026-04-19T11:07:38.041Z</time></trkpt><trkpt lat="41.2282511" lon="1.5532785"><ele>72.0</ele><time>2026-04-19T11:07:39.04Z</time></trkpt><trkpt lat="41.2281722" lon="1.5530946"><ele>72.0</ele><time>2026-04-19T11:07:40.041Z</time></trkpt><trkpt lat="41.2280967" lon="1.5529099"><ele>72.0</ele><time>2026-04-19T11:07:41.041Z</time></trkpt><trkpt lat="41.2280212" lon="1.552726"><ele>72.33333333333333</ele><time>2026-04-19T11:07:42.041Z</time></trkpt><trkpt lat="41.2279439" lon="1.5525422"><ele>72.66666666666666</ele><time>2026-04-19T11:07:43.04Z</time></trkpt><trkpt lat="41.2278664" lon="1.5523543"><ele>73.0</ele><time>2026-04-19T11:07:44.04Z</time></trkpt><trkpt lat="41.2277916" lon="1.5521688"><ele>72.33333333333333</ele><time>2026-04-19T11:07:45.04Z</time></trkpt><trkpt lat="41.2277116" lon="1.5519758"><ele>71.66666666666667</ele><time>2026-04-19T11:07:46.04Z</time></trkpt><trkpt lat="41.2276335" lon="1.5517669"><ele>71.0</ele><time>2026-04-19T11:07:47.041Z</time></trkpt><trkpt lat="41.2275518" lon="1.5515491"><ele>71.0</ele><time>2026-04-19T11:07:48.041Z</time></trkpt><trkpt lat="41.2274716" lon="1.5513254"><ele>71.0</ele><time>2026-04-19T11:07:49.04Z</time></trkpt><trkpt lat="41.2273886" lon="1.5511087"><ele>71.0</ele><time>2026-04-19T11:07:50.04Z</time></trkpt><trkpt lat="41.2273034" lon="1.5508965"><ele>71.0</ele><time>2026-04-19T11:07:51.04Z</time></trkpt><trkpt lat="41.2272189" lon="1.5506754"><ele>71.0</ele><time>2026-04-19T11:07:52.04Z</time></trkpt><trkpt lat="41.2271257" lon="1.5504448"><ele>71.0</ele><time>2026-04-19T11:07:53.041Z</time></trkpt><trkpt lat="41.2270363" lon="1.5502218"><ele>71.0</ele><time>2026-04-19T11:07:54.04Z</time></trkpt><trkpt lat="41.2269496" lon="1.5500089"><ele>71.0</ele><time>2026-04-19T11:07:55.041Z</time></trkpt><trkpt lat="41.2268707" lon="1.5498057"><ele>71.0</ele><time>2026-04-19T11:07:56.041Z</time></trkpt><trkpt lat="41.2267986" lon="1.5496104"><ele>71.0</ele><time>2026-04-19T11:07:57.041Z</time></trkpt><trkpt lat="41.2267306" lon="1.5494213"><ele>71.0</ele><time>2026-04-19T11:07:58.041Z</time></trkpt><trkpt lat="41.2266679" lon="1.5492434"><ele>71.0</ele><time>2026-04-19T11:07:59.04Z</time></trkpt><trkpt lat="41.2266116" lon="1.5490661"><ele>71.0</ele><time>2026-04-19T11:08:00.041Z</time></trkpt><trkpt lat="41.2265533" lon="1.5488846"><ele>71.0</ele><time>2026-04-19T11:08:01.041Z</time></trkpt><trkpt lat="41.2264924" lon="1.548692"><ele>71.0</ele><time>2026-04-19T11:08:02.041Z</time></trkpt><trkpt lat="41.2264357" lon="1.5485104"><ele>70.5</ele><time>2026-04-19T11:08:03.04Z</time></trkpt><trkpt lat="41.2263731" lon="1.5483446"><ele>70.0</ele><time>2026-04-19T11:08:04.041Z</time></trkpt><trkpt lat="41.2263022" lon="1.5481945"><ele>69.5</ele><time>2026-04-19T11:08:05.041Z</time></trkpt><trkpt lat="41.2262264" lon="1.5480586"><ele>69.0</ele><time>2026-04-19T11:08:06.041Z</time></trkpt><trkpt lat="41.2261569" lon="1.5479338"><ele>68.33333333333333</ele><time>2026-04-19T11:08:07.041Z</time></trkpt><trkpt lat="41.2260978" lon="1.5478331"><ele>67.66666666666667</ele><time>2026-04-19T11:08:08.041Z</time></trkpt><trkpt lat="41.2260502" lon="1.5477388"><ele>67.0</ele><time>2026-04-19T11:08:09.041Z</time></trkpt><trkpt lat="41.226012" lon="1.5476477"><ele>66.33333333333334</ele><time>2026-04-19T11:08:10.041Z</time></trkpt><trkpt lat="41.2259807" lon="1.5475652"><ele>65.66666666666667</ele><time>2026-04-19T11:08:11.041Z</time></trkpt><trkpt lat="41.2259529" lon="1.5474338"><ele>65.0</ele><time>2026-04-19T11:08:13.041Z</time></trkpt><trkpt lat="41.2259354" lon="1.5473053"><ele>65.0</ele><time>2026-04-19T11:08:15.04Z</time></trkpt><trkpt lat="41.2259321" lon="1.5471524"><ele>65.0</ele><time>2026-04-19T11:08:17.041Z</time></trkpt><trkpt lat="41.2259423" lon="1.5470271"><ele>65.0</ele><time>2026-04-19T11:08:19.041Z</time></trkpt><trkpt lat="41.2259525" lon="1.5469314"><ele>65.0</ele><time>2026-04-19T11:08:21.04Z</time></trkpt><trkpt lat="41.2259676" lon="1.5468496"><ele>65.0</ele><time>2026-04-19T11:08:22.041Z</time></trkpt><trkpt lat="41.2259894" lon="1.5467421"><ele>65.0</ele><time>2026-04-19T11:08:23.041Z</time></trkpt><trkpt lat="41.2260018" lon="1.546621"><ele>64.8</ele><time>2026-04-19T11:08:24.041Z</time></trkpt><trkpt lat="41.2259981" lon="1.5464917"><ele>64.6</ele><time>2026-04-19T11:08:25.04Z</time></trkpt><trkpt lat="41.225971" lon="1.5463671"><ele>64.4</ele><time>2026-04-19T11:08:26.04Z</time></trkpt><trkpt lat="41.2259188" lon="1.5462668"><ele>64.2</ele><time>2026-04-19T11:08:27.041Z</time></trkpt><trkpt lat="41.2258434" lon="1.5461845"><ele>64.0</ele><time>2026-04-19T11:08:28.041Z</time></trkpt><trkpt lat="41.2257493" lon="1.5461308"><ele>63.800000000000004</ele><time>2026-04-19T11:08:29.04Z</time></trkpt><trkpt lat="41.225646" lon="1.5461207"><ele>63.60000000000001</ele><time>2026-04-19T11:08:30.041Z</time></trkpt><trkpt lat="41.2255432" lon="1.546156"><ele>63.4</ele><time>2026-04-19T11:08:31.041Z</time></trkpt><trkpt lat="41.2254513" lon="1.5462321"><ele>63.2</ele><time>2026-04-19T11:08:32.04Z</time></trkpt><trkpt lat="41.2253802" lon="1.546336"><ele>63.0</ele><time>2026-04-19T11:08:33.04Z</time></trkpt><trkpt lat="41.2253346" lon="1.5464554"><ele>62.599999999999994</ele><time>2026-04-19T11:08:34.041Z</time></trkpt><trkpt lat="41.2252998" lon="1.5465794"><ele>62.199999999999996</ele><time>2026-04-19T11:08:35.041Z</time></trkpt><trkpt lat="41.225248" lon="1.546712"><ele>61.8</ele><time>2026-04-19T11:08:36.041Z</time></trkpt><trkpt lat="41.2251813" lon="1.5468252"><ele>61.4</ele><time>2026-04-19T11:08:37.04Z</time></trkpt><trkpt lat="41.225097" lon="1.5469249"><ele>61.0</ele><time>2026-04-19T11:08:38.04Z</time></trkpt><trkpt lat="41.224994" lon="1.547005"><ele>62.75</ele><time>2026-04-19T11:08:39.04Z</time></trkpt><trkpt lat="41.2248693" lon="1.5470579"><ele>64.5</ele><time>2026-04-19T11:08:40.041Z</time></trkpt><trkpt lat="41.2247304" lon="1.5470844"><ele>66.25</ele><time>2026-04-19T11:08:41.041Z</time></trkpt><trkpt lat="41.2245935" lon="1.5470807"><ele>68.0</ele><time>2026-04-19T11:08:42.041Z</time></trkpt><trkpt lat="41.2244417" lon="1.5470616"><ele>69.0</ele><time>2026-04-19T11:08:43.041Z</time></trkpt><trkpt lat="41.2242785" lon="1.5470543"><ele>70.0</ele><time>2026-04-19T11:08:44.04Z</time></trkpt><trkpt lat="41.2241081" lon="1.5470567"><ele>71.0</ele><time>2026-04-19T11:08:45.041Z</time></trkpt><trkpt lat="41.2239254" lon="1.5470588"><ele>71.0</ele><time>2026-04-19T11:08:46.041Z</time></trkpt><trkpt lat="41.2237396" lon="1.5470628"><ele>71.0</ele><time>2026-04-19T11:08:47.041Z</time></trkpt><trkpt lat="41.2235556" lon="1.547073"><ele>71.0</ele><time>2026-04-19T11:08:48.041Z</time></trkpt><trkpt lat="41.2233726" lon="1.5470814"><ele>71.0</ele><time>2026-04-19T11:08:49.041Z</time></trkpt><trkpt lat="41.2231892" lon="1.5471007"><ele>71.0</ele><time>2026-04-19T11:08:50.041Z</time></trkpt><trkpt lat="41.2230071" lon="1.5471318"><ele>71.0</ele><time>2026-04-19T11:08:51.041Z</time></trkpt><trkpt lat="41.2228125" lon="1.5471733"><ele>70.33333333333334</ele><time>2026-04-19T11:08:52.04Z</time></trkpt><trkpt lat="41.2226212" lon="1.5472291"><ele>69.66666666666667</ele><time>2026-04-19T11:08:53.041Z</time></trkpt><trkpt lat="41.222421" lon="1.5472966"><ele>69.0</ele><time>2026-04-19T11:08:54.04Z</time></trkpt><trkpt lat="41.222218" lon="1.5473686"><ele>69.0</ele><time>2026-04-19T11:08:55.04Z</time></trkpt><trkpt lat="41.2220169" lon="1.5474366"><ele>69.0</ele><time>2026-04-19T11:08:56.041Z</time></trkpt><trkpt lat="41.2218153" lon="1.5474969"><ele>69.0</ele><time>2026-04-19T11:08:57.041Z</time></trkpt><trkpt lat="41.2216089" lon="1.5475453"><ele>69.66666666666667</ele><time>2026-04-19T11:08:58.041Z</time></trkpt><trkpt lat="41.221403" lon="1.5475743"><ele>70.33333333333334</ele><time>2026-04-19T11:08:59.041Z</time></trkpt><trkpt lat="41.2212012" lon="1.5475865"><ele>71.0</ele><time>2026-04-19T11:09:00.041Z</time></trkpt><trkpt lat="41.2210022" lon="1.5475748"><ele>71.0</ele><time>2026-04-19T11:09:01.04Z</time></trkpt><trkpt lat="41.2208108" lon="1.5475482"><ele>71.0</ele><time>2026-04-19T11:09:02.041Z</time></trkpt><trkpt lat="41.2206194" lon="1.5475085"><ele>71.0</ele><time>2026-04-19T11:09:03.041Z</time></trkpt><trkpt lat="41.2204353" lon="1.5474537"><ele>70.33333333333334</ele><time>2026-04-19T11:09:04.041Z</time></trkpt><trkpt lat="41.2202521" lon="1.5473837"><ele>69.66666666666667</ele><time>2026-04-19T11:09:05.041Z</time></trkpt><trkpt lat="41.2200678" lon="1.547294"><ele>69.0</ele><time>2026-04-19T11:09:06.041Z</time></trkpt><trkpt lat="41.2198857" lon="1.5471857"><ele>67.33333333333333</ele><time>2026-04-19T11:09:07.041Z</time></trkpt><trkpt lat="41.2197084" lon="1.5470659"><ele>65.66666666666666</ele><time>2026-04-19T11:09:08.041Z</time></trkpt><trkpt lat="41.2195414" lon="1.5469352"><ele>64.0</ele><time>2026-04-19T11:09:09.041Z</time></trkpt><trkpt lat="41.2193843" lon="1.5467936"><ele>63.33333333333333</ele><time>2026-04-19T11:09:10.041Z</time></trkpt><trkpt lat="41.2192327" lon="1.546643"><ele>62.66666666666667</ele><time>2026-04-19T11:09:11.04Z</time></trkpt><trkpt lat="41.2190865" lon="1.5464691"><ele>62.0</ele><time>2026-04-19T11:09:12.041Z</time></trkpt><trkpt lat="41.2189464" lon="1.5462881"><ele>60.0</ele><time>2026-04-19T11:09:13.04Z</time></trkpt><trkpt lat="41.2188127" lon="1.5460991"><ele>58.0</ele><time>2026-04-19T11:09:14.041Z</time></trkpt><trkpt lat="41.218689" lon="1.545906"><ele>56.0</ele><time>2026-04-19T11:09:15.041Z</time></trkpt><trkpt lat="41.2185725" lon="1.545714"><ele>56.0</ele><time>2026-04-19T11:09:16.04Z</time></trkpt><trkpt lat="41.2184654" lon="1.5455291"><ele>56.0</ele><time>2026-04-19T11:09:17.041Z</time></trkpt><trkpt lat="41.218351" lon="1.5453444"><ele>56.0</ele><time>2026-04-19T11:09:18.041Z</time></trkpt><trkpt lat="41.2182346" lon="1.5451501"><ele>56.333333333333336</ele><time>2026-04-19T11:09:19.04Z</time></trkpt><trkpt lat="41.218117" lon="1.5449584"><ele>56.66666666666667</ele><time>2026-04-19T11:09:20.04Z</time></trkpt><trkpt lat="41.218001" lon="1.5447811"><ele>57.0</ele><time>2026-04-19T11:09:21.041Z</time></trkpt><trkpt lat="41.2178881" lon="1.54462"><ele>55.75</ele><time>2026-04-19T11:09:22.041Z</time></trkpt><trkpt lat="41.2177765" lon="1.5444679"><ele>54.5</ele><time>2026-04-19T11:09:23.041Z</time></trkpt><trkpt lat="41.2176688" lon="1.5443301"><ele>53.25</ele><time>2026-04-19T11:09:24.041Z</time></trkpt><trkpt lat="41.2175671" lon="1.5442027"><ele>52.0</ele><time>2026-04-19T11:09:25.041Z</time></trkpt><trkpt lat="41.2174804" lon="1.5440709"><ele>52.0</ele><time>2026-04-19T11:09:26.04Z</time></trkpt><trkpt lat="41.2174156" lon="1.5439385"><ele>52.0</ele><time>2026-04-19T11:09:27.04Z</time></trkpt><trkpt lat="41.2173785" lon="1.5438057"><ele>52.0</ele><time>2026-04-19T11:09:28.041Z</time></trkpt><trkpt lat="41.2173779" lon="1.5436667"><ele>52.0</ele><time>2026-04-19T11:09:29.04Z</time></trkpt><trkpt lat="41.2174062" lon="1.5435294"><ele>52.0</ele><time>2026-04-19T11:09:30.041Z</time></trkpt><trkpt lat="41.2174597" lon="1.5434057"><ele>51.2</ele><time>2026-04-19T11:09:31.04Z</time></trkpt><trkpt lat="41.2175396" lon="1.5433051"><ele>50.400000000000006</ele><time>2026-04-19T11:09:32.041Z</time></trkpt><trkpt lat="41.2176341" lon="1.5432476"><ele>49.599999999999994</ele><time>2026-04-19T11:09:33.041Z</time></trkpt><trkpt lat="41.2177381" lon="1.54323"><ele>48.8</ele><time>2026-04-19T11:09:34.041Z</time></trkpt><trkpt lat="41.2178416" lon="1.5432486"><ele>48.0</ele><time>2026-04-19T11:09:35.041Z</time></trkpt><trkpt lat="41.2179477" lon="1.5433051"><ele>48.0</ele><time>2026-04-19T11:09:36.041Z</time></trkpt><trkpt lat="41.2180473" lon="1.5433992"><ele>48.0</ele><time>2026-04-19T11:09:37.041Z</time></trkpt><trkpt lat="41.2181397" lon="1.5434937"><ele>48.0</ele><time>2026-04-19T11:09:38.041Z</time></trkpt><trkpt lat="41.2182231" lon="1.5436016"><ele>48.0</ele><time>2026-04-19T11:09:39.041Z</time></trkpt><trkpt lat="41.2183021" lon="1.5437133"><ele>48.4</ele><time>2026-04-19T11:09:40.04Z</time></trkpt><trkpt lat="41.2183753" lon="1.543822"><ele>48.8</ele><time>2026-04-19T11:09:41.041Z</time></trkpt><trkpt lat="41.2184402" lon="1.5439193"><ele>49.2</ele><time>2026-04-19T11:09:42.041Z</time></trkpt><trkpt lat="41.2184921" lon="1.5440385"><ele>49.6</ele><time>2026-04-19T11:09:43.041Z</time></trkpt><trkpt lat="41.2185191" lon="1.5441563"><ele>50.0</ele><time>2026-04-19T11:09:44.041Z</time></trkpt><trkpt lat="41.2185178" lon="1.5442697"><ele>50.0</ele><time>2026-04-19T11:09:45.04Z</time></trkpt><trkpt lat="41.2184896" lon="1.5443814"><ele>50.0</ele><time>2026-04-19T11:09:46.04Z</time></trkpt><trkpt lat="41.2184351" lon="1.5444794"><ele>50.0</ele><time>2026-04-19T11:09:47.041Z</time></trkpt><trkpt lat="41.218355" lon="1.5445613"><ele>50.0</ele><time>2026-04-19T11:09:48.041Z</time></trkpt><trkpt lat="41.2182663" lon="1.5446371"><ele>50.0</ele><time>2026-04-19T11:09:49.041Z</time></trkpt><trkpt lat="41.218174" lon="1.5447139"><ele>51.75</ele><time>2026-04-19T11:09:50.041Z</time></trkpt><trkpt lat="41.2180728" lon="1.5447901"><ele>53.5</ele><time>2026-04-19T11:09:51.04Z</time></trkpt><trkpt lat="41.2179695" lon="1.54486"><ele>55.25</ele><time>2026-04-19T11:09:52.04Z</time></trkpt><trkpt lat="41.2178502" lon="1.5449286"><ele>57.0</ele><time>2026-04-19T11:09:53.041Z</time></trkpt><trkpt lat="41.217733" lon="1.5449854"><ele>57.0</ele><time>2026-04-19T11:09:54.04Z</time></trkpt><trkpt lat="41.2176152" lon="1.5450435"><ele>57.0</ele><time>2026-04-19T11:09:55.041Z</time></trkpt><trkpt lat="41.2175045" lon="1.5450921"><ele>57.0</ele><time>2026-04-19T11:09:56.041Z</time></trkpt><trkpt lat="41.2174038" lon="1.5451311"><ele>57.0</ele><time>2026-04-19T11:09:57.041Z</time></trkpt><trkpt lat="41.2173109" lon="1.5451439"><ele>57.0</ele><time>2026-04-19T11:09:58.04Z</time></trkpt><trkpt lat="41.2172217" lon="1.5451325"><ele>56.2</ele><time>2026-04-19T11:09:59.04Z</time></trkpt><trkpt lat="41.2171257" lon="1.5450881"><ele>55.400000000000006</ele><time>2026-04-19T11:10:00.04Z</time></trkpt><trkpt lat="41.2170276" lon="1.5450512"><ele>54.599999999999994</ele><time>2026-04-19T11:10:01.04Z</time></trkpt><trkpt lat="41.2169271" lon="1.5450469"><ele>53.8</ele><time>2026-04-19T11:10:02.04Z</time></trkpt><trkpt lat="41.2168366" lon="1.5450833"><ele>53.0</ele><time>2026-04-19T11:10:03.041Z</time></trkpt><trkpt lat="41.216765" lon="1.5451607"><ele>53.0</ele><time>2026-04-19T11:10:04.04Z</time></trkpt><trkpt lat="41.2167084" lon="1.5452709"><ele>53.0</ele><time>2026-04-19T11:10:05.04Z</time></trkpt><trkpt lat="41.2166458" lon="1.5453836"><ele>53.0</ele><time>2026-04-19T11:10:06.04Z</time></trkpt><trkpt lat="41.2165601" lon="1.545474"><ele>53.0</ele><time>2026-04-19T11:10:07.041Z</time></trkpt><trkpt lat="41.216455" lon="1.5455534"><ele>53.0</ele><time>2026-04-19T11:10:08.04Z</time></trkpt><trkpt lat="41.2163312" lon="1.5456103"><ele>53.75</ele><time>2026-04-19T11:10:09.041Z</time></trkpt><trkpt lat="41.2161988" lon="1.5456673"><ele>54.5</ele><time>2026-04-19T11:10:10.041Z</time></trkpt><trkpt lat="41.2160672" lon="1.5457257"><ele>55.25</ele><time>2026-04-19T11:10:11.04Z</time></trkpt><trkpt lat="41.2159255" lon="1.5457911"><ele>56.0</ele><time>2026-04-19T11:10:12.04Z</time></trkpt><trkpt lat="41.2157821" lon="1.5458585"><ele>57.0</ele><time>2026-04-19T11:10:13.04Z</time></trkpt><trkpt lat="41.2156297" lon="1.5459275"><ele>58.0</ele><time>2026-04-19T11:10:14.041Z</time></trkpt><trkpt lat="41.2154707" lon="1.5459981"><ele>59.0</ele><time>2026-04-19T11:10:15.04Z</time></trkpt><trkpt lat="41.2153102" lon="1.5460751"><ele>59.0</ele><time>2026-04-19T11:10:16.041Z</time></trkpt><trkpt lat="41.2151432" lon="1.5461506"><ele>59.0</ele><time>2026-04-19T11:10:17.041Z</time></trkpt><trkpt lat="41.2149752" lon="1.5462238"><ele>59.0</ele><time>2026-04-19T11:10:18.04Z</time></trkpt><trkpt lat="41.2148067" lon="1.5463005"><ele>61.0</ele><time>2026-04-19T11:10:19.041Z</time></trkpt><trkpt lat="41.214637" lon="1.5463745"><ele>63.0</ele><time>2026-04-19T11:10:20.04Z</time></trkpt><trkpt lat="41.2144716" lon="1.5464475"><ele>65.0</ele><time>2026-04-19T11:10:21.041Z</time></trkpt><trkpt lat="41.2143087" lon="1.5465227"><ele>65.0</ele><time>2026-04-19T11:10:22.041Z</time></trkpt><trkpt lat="41.2141553" lon="1.5465976"><ele>65.0</ele><time>2026-04-19T11:10:23.041Z</time></trkpt><trkpt lat="41.2140042" lon="1.5466644"><ele>65.0</ele><time>2026-04-19T11:10:24.041Z</time></trkpt><trkpt lat="41.2138559" lon="1.546732"><ele>64.0</ele><time>2026-04-19T11:10:25.041Z</time></trkpt><trkpt lat="41.213708" lon="1.546801"><ele>63.0</ele><time>2026-04-19T11:10:26.041Z</time></trkpt><trkpt lat="41.2135592" lon="1.5468627"><ele>62.0</ele><time>2026-04-19T11:10:27.041Z</time></trkpt><trkpt lat="41.2134087" lon="1.5469222"><ele>62.0</ele><time>2026-04-19T11:10:28.041Z</time></trkpt><trkpt lat="41.2132521" lon="1.5469855"><ele>62.0</ele><time>2026-04-19T11:10:29.04Z</time></trkpt><trkpt lat="41.2130947" lon="1.5470487"><ele>62.0</ele><time>2026-04-19T11:10:30.041Z</time></trkpt><trkpt lat="41.212939" lon="1.5471125"><ele>63.0</ele><time>2026-04-19T11:10:31.041Z</time></trkpt><trkpt lat="41.2127846" lon="1.5471805"><ele>64.0</ele><time>2026-04-19T11:10:32.041Z</time></trkpt><trkpt lat="41.212628" lon="1.5472429"><ele>65.0</ele><time>2026-04-19T11:10:33.041Z</time></trkpt><trkpt lat="41.2124718" lon="1.5473115"><ele>64.66666666666667</ele><time>2026-04-19T11:10:34.041Z</time></trkpt><trkpt lat="41.2123153" lon="1.5473818"><ele>64.33333333333333</ele><time>2026-04-19T11:10:35.041Z</time></trkpt><trkpt lat="41.212162" lon="1.5474484"><ele>64.0</ele><time>2026-04-19T11:10:36.041Z</time></trkpt><trkpt lat="41.212008" lon="1.5475118"><ele>64.0</ele><time>2026-04-19T11:10:37.04Z</time></trkpt><trkpt lat="41.2118537" lon="1.5475775"><ele>64.0</ele><time>2026-04-19T11:10:38.041Z</time></trkpt><trkpt lat="41.2116999" lon="1.5476361"><ele>64.0</ele><time>2026-04-19T11:10:39.041Z</time></trkpt><trkpt lat="41.211553" lon="1.547696"><ele>63.75</ele><time>2026-04-19T11:10:40.041Z</time></trkpt><trkpt lat="41.2114122" lon="1.5477543"><ele>63.5</ele><time>2026-04-19T11:10:41.041Z</time></trkpt><trkpt lat="41.2112808" lon="1.5478078"><ele>63.25</ele><time>2026-04-19T11:10:42.041Z</time></trkpt><trkpt lat="41.2111489" lon="1.5478635"><ele>63.0</ele><time>2026-04-19T11:10:43.041Z</time></trkpt><trkpt lat="41.2110198" lon="1.5479192"><ele>63.25</ele><time>2026-04-19T11:10:44.04Z</time></trkpt><trkpt lat="41.2109006" lon="1.5479685"><ele>63.5</ele><time>2026-04-19T11:10:45.041Z</time></trkpt><trkpt lat="41.2107929" lon="1.5480165"><ele>63.75</ele><time>2026-04-19T11:10:46.04Z</time></trkpt><trkpt lat="41.2106861" lon="1.5480514"><ele>64.0</ele><time>2026-04-19T11:10:47.041Z</time></trkpt><trkpt lat="41.2105838" lon="1.548067"><ele>63.99999999999999</ele><time>2026-04-19T11:10:48.041Z</time></trkpt><trkpt lat="41.2104904" lon="1.5480716"><ele>64.0</ele><time>2026-04-19T11:10:49.041Z</time></trkpt><trkpt lat="41.2104071" lon="1.5480988"><ele>64.0</ele><time>2026-04-19T11:10:50.041Z</time></trkpt><trkpt lat="41.2103429" lon="1.5481637"><ele>64.0</ele><time>2026-04-19T11:10:51.04Z</time></trkpt><trkpt lat="41.210294" lon="1.5482607"><ele>63.99999999999999</ele><time>2026-04-19T11:10:52.04Z</time></trkpt><trkpt lat="41.2102698" lon="1.5483832"><ele>64.0</ele><time>2026-04-19T11:10:53.041Z</time></trkpt><trkpt lat="41.21025" lon="1.5485283"><ele>64.0</ele><time>2026-04-19T11:10:54.041Z</time></trkpt><trkpt lat="41.2102159" lon="1.5486926"><ele>64.0</ele><time>2026-04-19T11:10:55.041Z</time></trkpt><trkpt lat="41.2101583" lon="1.5488716"><ele>64.0</ele><time>2026-04-19T11:10:56.041Z</time></trkpt><trkpt lat="41.210084" lon="1.5490529"><ele>64.0</ele><time>2026-04-19T11:10:57.041Z</time></trkpt><trkpt lat="41.2100025" lon="1.5492266"><ele>66.66666666666666</ele><time>2026-04-19T11:10:58.041Z</time></trkpt><trkpt lat="41.2098986" lon="1.5493909"><ele>69.33333333333333</ele><time>2026-04-19T11:10:59.04Z</time></trkpt><trkpt lat="41.2097525" lon="1.5495319"><ele>72.0</ele><time>2026-04-19T11:11:00.04Z</time></trkpt><trkpt lat="41.2095785" lon="1.5496419"><ele>72.66666666666667</ele><time>2026-04-19T11:11:01.041Z</time></trkpt><trkpt lat="41.2094071" lon="1.5497355"><ele>73.33333333333334</ele><time>2026-04-19T11:11:02.041Z</time></trkpt><trkpt lat="41.2092484" lon="1.5498163"><ele>74.0</ele><time>2026-04-19T11:11:03.041Z</time></trkpt><trkpt lat="41.2090929" lon="1.5498985"><ele>73.33333333333334</ele><time>2026-04-19T11:11:04.041Z</time></trkpt><trkpt lat="41.2089406" lon="1.5499798"><ele>72.66666666666667</ele><time>2026-04-19T11:11:05.041Z</time></trkpt><trkpt lat="41.2087986" lon="1.5500679"><ele>72.0</ele><time>2026-04-19T11:11:06.04Z</time></trkpt><trkpt lat="41.2086739" lon="1.5501644"><ele>72.0</ele><time>2026-04-19T11:11:07.04Z</time></trkpt><trkpt lat="41.2085707" lon="1.5502923"><ele>72.0</ele><time>2026-04-19T11:11:08.041Z</time></trkpt><trkpt lat="41.2084699" lon="1.5504428"><ele>72.0</ele><time>2026-04-19T11:11:09.041Z</time></trkpt><trkpt lat="41.2083651" lon="1.5506009"><ele>73.33333333333333</ele><time>2026-04-19T11:11:10.041Z</time></trkpt><trkpt lat="41.2082554" lon="1.5507567"><ele>74.66666666666666</ele><time>2026-04-19T11:11:11.041Z</time></trkpt><trkpt lat="41.208151" lon="1.5509181"><ele>76.0</ele><time>2026-04-19T11:11:12.041Z</time></trkpt><trkpt lat="41.2080393" lon="1.5510814"><ele>78.0</ele><time>2026-04-19T11:11:13.041Z</time></trkpt><trkpt lat="41.2079269" lon="1.5512499"><ele>80.0</ele><time>2026-04-19T11:11:14.041Z</time></trkpt><trkpt lat="41.2078192" lon="1.5514081"><ele>82.0</ele><time>2026-04-19T11:11:15.041Z</time></trkpt><trkpt lat="41.2077192" lon="1.5515688"><ele>82.0</ele><time>2026-04-19T11:11:16.041Z</time></trkpt><trkpt lat="41.2076226" lon="1.5517259"><ele>82.0</ele><time>2026-04-19T11:11:17.041Z</time></trkpt><trkpt lat="41.2075214" lon="1.5518835"><ele>82.0</ele><time>2026-04-19T11:11:18.041Z</time></trkpt><trkpt lat="41.2074218" lon="1.5520481"><ele>80.33333333333333</ele><time>2026-04-19T11:11:19.041Z</time></trkpt><trkpt lat="41.2073239" lon="1.5522257"><ele>78.66666666666667</ele><time>2026-04-19T11:11:20.041Z</time></trkpt><trkpt lat="41.2072275" lon="1.552412"><ele>77.0</ele><time>2026-04-19T11:11:21.041Z</time></trkpt><trkpt lat="41.2071299" lon="1.5526038"><ele>77.0</ele><time>2026-04-19T11:11:22.041Z</time></trkpt><trkpt lat="41.2070329" lon="1.5528018"><ele>77.0</ele><time>2026-04-19T11:11:23.041Z</time></trkpt><trkpt lat="41.2069419" lon="1.5530036"><ele>77.0</ele><time>2026-04-19T11:11:24.041Z</time></trkpt><trkpt lat="41.2068557" lon="1.5532"><ele>79.0</ele><time>2026-04-19T11:11:25.041Z</time></trkpt><trkpt lat="41.206777" lon="1.553395"><ele>81.0</ele><time>2026-04-19T11:11:26.04Z</time></trkpt><trkpt lat="41.2066987" lon="1.5535988"><ele>83.0</ele><time>2026-04-19T11:11:27.04Z</time></trkpt><trkpt lat="41.20662" lon="1.5538154"><ele>82.66666666666667</ele><time>2026-04-19T11:11:28.041Z</time></trkpt><trkpt lat="41.2065478" lon="1.5540332"><ele>82.33333333333333</ele><time>2026-04-19T11:11:29.041Z</time></trkpt><trkpt lat="41.2064817" lon="1.5542493"><ele>82.0</ele><time>2026-04-19T11:11:30.041Z</time></trkpt><trkpt lat="41.2064215" lon="1.5544643"><ele>81.66666666666666</ele><time>2026-04-19T11:11:31.04Z</time></trkpt><trkpt lat="41.206364" lon="1.5546764"><ele>81.33333333333333</ele><time>2026-04-19T11:11:32.04Z</time></trkpt><trkpt lat="41.2063144" lon="1.5548886"><ele>81.0</ele><time>2026-04-19T11:11:33.04Z</time></trkpt><trkpt lat="41.2062696" lon="1.5551039"><ele>81.0</ele><time>2026-04-19T11:11:34.041Z</time></trkpt><trkpt lat="41.2062337" lon="1.5553144"><ele>81.0</ele><time>2026-04-19T11:11:35.04Z</time></trkpt><trkpt lat="41.2061951" lon="1.5555332"><ele>81.0</ele><time>2026-04-19T11:11:36.041Z</time></trkpt><trkpt lat="41.2061627" lon="1.5557497"><ele>81.66666666666667</ele><time>2026-04-19T11:11:37.041Z</time></trkpt><trkpt lat="41.2061303" lon="1.5559729"><ele>82.33333333333334</ele><time>2026-04-19T11:11:38.041Z</time></trkpt><trkpt lat="41.2061017" lon="1.5561911"><ele>83.0</ele><time>2026-04-19T11:11:39.041Z</time></trkpt><trkpt lat="41.2060822" lon="1.5563986"><ele>86.0</ele><time>2026-04-19T11:11:40.04Z</time></trkpt><trkpt lat="41.2060636" lon="1.5565992"><ele>89.0</ele><time>2026-04-19T11:11:41.041Z</time></trkpt><trkpt lat="41.2060507" lon="1.5567955"><ele>92.0</ele><time>2026-04-19T11:11:42.041Z</time></trkpt><trkpt lat="41.2060411" lon="1.5569971"><ele>94.33333333333334</ele><time>2026-04-19T11:11:43.04Z</time></trkpt><trkpt lat="41.206028" lon="1.5572066"><ele>96.66666666666667</ele><time>2026-04-19T11:11:44.04Z</time></trkpt><trkpt lat="41.2060196" lon="1.5574232"><ele>99.0</ele><time>2026-04-19T11:11:45.041Z</time></trkpt><trkpt lat="41.2060124" lon="1.5576496"><ele>99.66666666666666</ele><time>2026-04-19T11:11:46.041Z</time></trkpt><trkpt lat="41.2060153" lon="1.557881"><ele>100.33333333333333</ele><time>2026-04-19T11:11:47.041Z</time></trkpt><trkpt lat="41.2060256" lon="1.5581068"><ele>101.0</ele><time>2026-04-19T11:11:48.041Z</time></trkpt><trkpt lat="41.206039" lon="1.5583202"><ele>101.0</ele><time>2026-04-19T11:11:49.041Z</time></trkpt><trkpt lat="41.2060546" lon="1.5585231"><ele>101.0</ele><time>2026-04-19T11:11:50.041Z</time></trkpt><trkpt lat="41.2060714" lon="1.5587248"><ele>101.0</ele><time>2026-04-19T11:11:51.04Z</time></trkpt><trkpt lat="41.2060909" lon="1.5589094"><ele>101.0</ele><time>2026-04-19T11:11:52.041Z</time></trkpt><trkpt lat="41.2061017" lon="1.5590843"><ele>100.5</ele><time>2026-04-19T11:11:53.041Z</time></trkpt><trkpt lat="41.2061008" lon="1.5592581"><ele>100.0</ele><time>2026-04-19T11:11:54.04Z</time></trkpt><trkpt lat="41.206083" lon="1.5594361"><ele>99.5</ele><time>2026-04-19T11:11:55.041Z</time></trkpt><trkpt lat="41.2060494" lon="1.559613"><ele>99.0</ele><time>2026-04-19T11:11:56.041Z</time></trkpt><trkpt lat="41.2060019" lon="1.5597877"><ele>95.66666666666667</ele><time>2026-04-19T11:11:57.041Z</time></trkpt><trkpt lat="41.2059347" lon="1.5599651"><ele>92.33333333333334</ele><time>2026-04-19T11:11:58.041Z</time></trkpt><trkpt lat="41.2058535" lon="1.5601323"><ele>89.0</ele><time>2026-04-19T11:11:59.041Z</time></trkpt><trkpt lat="41.205757" lon="1.5602918"><ele>88.0</ele><time>2026-04-19T11:12:00.04Z</time></trkpt><trkpt lat="41.2056422" lon="1.5604409"><ele>87.0</ele><time>2026-04-19T11:12:01.041Z</time></trkpt><trkpt lat="41.2055141" lon="1.5605684"><ele>86.0</ele><time>2026-04-19T11:12:02.041Z</time></trkpt><trkpt lat="41.205383" lon="1.5606741"><ele>86.0</ele><time>2026-04-19T11:12:03.041Z</time></trkpt><trkpt lat="41.205254" lon="1.5607709"><ele>86.0</ele><time>2026-04-19T11:12:04.041Z</time></trkpt><trkpt lat="41.205125" lon="1.5608704"><ele>86.0</ele><time>2026-04-19T11:12:05.04Z</time></trkpt><trkpt lat="41.204994" lon="1.5609721"><ele>86.0</ele><time>2026-04-19T11:12:06.041Z</time></trkpt><trkpt lat="41.2048683" lon="1.5610753"><ele>85.25</ele><time>2026-04-19T11:12:07.041Z</time></trkpt><trkpt lat="41.2047489" lon="1.5611712"><ele>84.5</ele><time>2026-04-19T11:12:08.04Z</time></trkpt><trkpt lat="41.204642" lon="1.561257"><ele>83.75</ele><time>2026-04-19T11:12:09.04Z</time></trkpt><trkpt lat="41.2045474" lon="1.5613255"><ele>83.0</ele><time>2026-04-19T11:12:10.04Z</time></trkpt><trkpt lat="41.204459" lon="1.5613781"><ele>81.60000000000001</ele><time>2026-04-19T11:12:11.041Z</time></trkpt><trkpt lat="41.2043745" lon="1.5614285"><ele>80.2</ele><time>2026-04-19T11:12:12.04Z</time></trkpt><trkpt lat="41.2042828" lon="1.5614738"><ele>78.8</ele><time>2026-04-19T11:12:13.04Z</time></trkpt><trkpt lat="41.2041719" lon="1.5615078"><ele>77.4</ele><time>2026-04-19T11:12:14.041Z</time></trkpt><trkpt lat="41.2040499" lon="1.5615051"><ele>76.0</ele><time>2026-04-19T11:12:15.041Z</time></trkpt><trkpt lat="41.2039173" lon="1.5614699"><ele>74.25</ele><time>2026-04-19T11:12:16.041Z</time></trkpt><trkpt lat="41.2037887" lon="1.5614087"><ele>72.5</ele><time>2026-04-19T11:12:17.04Z</time></trkpt><trkpt lat="41.2036616" lon="1.5613505"><ele>70.75</ele><time>2026-04-19T11:12:18.04Z</time></trkpt><trkpt lat="41.2035398" lon="1.5612886"><ele>69.0</ele><time>2026-04-19T11:12:19.041Z</time></trkpt><trkpt lat="41.2034258" lon="1.5612265"><ele>69.60000000000001</ele><time>2026-04-19T11:12:20.04Z</time></trkpt><trkpt lat="41.2033186" lon="1.5611652"><ele>70.2</ele><time>2026-04-19T11:12:21.041Z</time></trkpt><trkpt lat="41.2032224" lon="1.5610876"><ele>70.80000000000001</ele><time>2026-04-19T11:12:22.041Z</time></trkpt><trkpt lat="41.2031471" lon="1.5609914"><ele>71.4</ele><time>2026-04-19T11:12:23.041Z</time></trkpt><trkpt lat="41.2030761" lon="1.5609143"><ele>72.0</ele><time>2026-04-19T11:12:24.041Z</time></trkpt><trkpt lat="41.2030029" lon="1.5608833"><ele>72.0</ele><time>2026-04-19T11:12:25.041Z</time></trkpt><trkpt lat="41.2029345" lon="1.5609008"><ele>72.0</ele><time>2026-04-19T11:12:26.041Z</time></trkpt><trkpt lat="41.202881" lon="1.5609567"><ele>72.0</ele><time>2026-04-19T11:12:27.041Z</time></trkpt><trkpt lat="41.2028413" lon="1.5610539"><ele>72.0</ele><time>2026-04-19T11:12:28.04Z</time></trkpt><trkpt lat="41.2028018" lon="1.5611643"><ele>72.0</ele><time>2026-04-19T11:12:29.041Z</time></trkpt><trkpt lat="41.202733" lon="1.5612748"><ele>72.0</ele><time>2026-04-19T11:12:30.04Z</time></trkpt><trkpt lat="41.2026486" lon="1.5613911"><ele>71.0</ele><time>2026-04-19T11:12:31.041Z</time></trkpt><trkpt lat="41.202572" lon="1.5615234"><ele>70.0</ele><time>2026-04-19T11:12:32.041Z</time></trkpt><trkpt lat="41.2025147" lon="1.5616689"><ele>69.0</ele><time>2026-04-19T11:12:33.04Z</time></trkpt><trkpt lat="41.202476" lon="1.5618244"><ele>68.0</ele><time>2026-04-19T11:12:34.041Z</time></trkpt><trkpt lat="41.2024516" lon="1.5619881"><ele>67.25</ele><time>2026-04-19T11:12:35.041Z</time></trkpt><trkpt lat="41.2024398" lon="1.5621599"><ele>66.5</ele><time>2026-04-19T11:12:36.04Z</time></trkpt><trkpt lat="41.2024341" lon="1.5623322"><ele>65.75</ele><time>2026-04-19T11:12:37.04Z</time></trkpt><trkpt lat="41.2024319" lon="1.5624912"><ele>65.0</ele><time>2026-04-19T11:12:38.041Z</time></trkpt><trkpt lat="41.2024294" lon="1.5626471"><ele>65.0</ele><time>2026-04-19T11:12:39.041Z</time></trkpt><trkpt lat="41.2024239" lon="1.5627975"><ele>65.0</ele><time>2026-04-19T11:12:40.04Z</time></trkpt><trkpt lat="41.202416" lon="1.5629473"><ele>65.0</ele><time>2026-04-19T11:12:41.041Z</time></trkpt><trkpt lat="41.2024094" lon="1.5630981"><ele>65.0</ele><time>2026-04-19T11:12:42.04Z</time></trkpt><trkpt lat="41.2023996" lon="1.5632543"><ele>63.75</ele><time>2026-04-19T11:12:43.041Z</time></trkpt><trkpt lat="41.2023947" lon="1.56341"><ele>62.5</ele><time>2026-04-19T11:12:44.04Z</time></trkpt><trkpt lat="41.202391" lon="1.5635741"><ele>61.25</ele><time>2026-04-19T11:12:45.041Z</time></trkpt><trkpt lat="41.202387" lon="1.5637385"><ele>60.0</ele><time>2026-04-19T11:12:46.041Z</time></trkpt><trkpt lat="41.2023772" lon="1.5638995"><ele>59.25</ele><time>2026-04-19T11:12:47.041Z</time></trkpt><trkpt lat="41.2023554" lon="1.5640567"><ele>58.5</ele><time>2026-04-19T11:12:48.041Z</time></trkpt><trkpt lat="41.2023253" lon="1.5642109"><ele>57.75</ele><time>2026-04-19T11:12:49.041Z</time></trkpt><trkpt lat="41.2022891" lon="1.5643544"><ele>57.0</ele><time>2026-04-19T11:12:50.04Z</time></trkpt><trkpt lat="41.202248" lon="1.5644915"><ele>56.0</ele><time>2026-04-19T11:12:51.041Z</time></trkpt><trkpt lat="41.2021956" lon="1.564627"><ele>55.0</ele><time>2026-04-19T11:12:52.04Z</time></trkpt><trkpt lat="41.2021408" lon="1.564755"><ele>54.0</ele><time>2026-04-19T11:12:53.04Z</time></trkpt><trkpt lat="41.2020796" lon="1.5648736"><ele>53.0</ele><time>2026-04-19T11:12:54.041Z</time></trkpt><trkpt lat="41.2020113" lon="1.5649817"><ele>52.0</ele><time>2026-04-19T11:12:55.041Z</time></trkpt><trkpt lat="41.201932" lon="1.5650915"><ele>52.0</ele><time>2026-04-19T11:12:56.041Z</time></trkpt><trkpt lat="41.2018513" lon="1.5651918"><ele>52.0</ele><time>2026-04-19T11:12:57.041Z</time></trkpt><trkpt lat="41.2017679" lon="1.5652818"><ele>52.0</ele><time>2026-04-19T11:12:58.041Z</time></trkpt><trkpt lat="41.2016819" lon="1.5653642"><ele>52.0</ele><time>2026-04-19T11:12:59.041Z</time></trkpt><trkpt lat="41.2015925" lon="1.5654338"><ele>52.0</ele><time>2026-04-19T11:13:00.041Z</time></trkpt><trkpt lat="41.2015039" lon="1.5655064"><ele>50.400000000000006</ele><time>2026-04-19T11:13:01.041Z</time></trkpt><trkpt lat="41.2014115" lon="1.5655776"><ele>48.800000000000004</ele><time>2026-04-19T11:13:02.041Z</time></trkpt><trkpt lat="41.2013206" lon="1.5656476"><ele>47.2</ele><time>2026-04-19T11:13:03.041Z</time></trkpt><trkpt lat="41.2012257" lon="1.5657219"><ele>45.6</ele><time>2026-04-19T11:13:04.041Z</time></trkpt><trkpt lat="41.2011327" lon="1.5657981"><ele>44.0</ele><time>2026-04-19T11:13:05.04Z</time></trkpt><trkpt lat="41.2010441" lon="1.5658704"><ele>44.0</ele><time>2026-04-19T11:13:06.041Z</time></trkpt><trkpt lat="41.200961" lon="1.5659404"><ele>44.0</ele><time>2026-04-19T11:13:07.041Z</time></trkpt><trkpt lat="41.2008789" lon="1.5660067"><ele>44.0</ele><time>2026-04-19T11:13:08.041Z</time></trkpt><trkpt lat="41.200799" lon="1.5660693"><ele>44.0</ele><time>2026-04-19T11:13:09.041Z</time></trkpt><trkpt lat="41.2007186" lon="1.5661289"><ele>44.0</ele><time>2026-04-19T11:13:10.04Z</time></trkpt><trkpt lat="41.2006392" lon="1.566191"><ele>42.6</ele><time>2026-04-19T11:13:11.041Z</time></trkpt><trkpt lat="41.2005593" lon="1.5662531"><ele>41.2</ele><time>2026-04-19T11:13:12.041Z</time></trkpt><trkpt lat="41.2004797" lon="1.566313"><ele>39.800000000000004</ele><time>2026-04-19T11:13:13.04Z</time></trkpt><trkpt lat="41.200403" lon="1.5663808"><ele>38.400000000000006</ele><time>2026-04-19T11:13:14.041Z</time></trkpt><trkpt lat="41.2003231" lon="1.5664441"><ele>37.0</ele><time>2026-04-19T11:13:15.04Z</time></trkpt><trkpt lat="41.2002424" lon="1.5665073"><ele>37.0</ele><time>2026-04-19T11:13:16.04Z</time></trkpt><trkpt lat="41.2001537" lon="1.5665658"><ele>37.0</ele><time>2026-04-19T11:13:17.04Z</time></trkpt><trkpt lat="41.2000692" lon="1.5666333"><ele>37.0</ele><time>2026-04-19T11:13:18.041Z</time></trkpt><trkpt lat="41.1999867" lon="1.5666977"><ele>37.0</ele><time>2026-04-19T11:13:19.041Z</time></trkpt><trkpt lat="41.1999011" lon="1.5667634"><ele>37.0</ele><time>2026-04-19T11:13:20.041Z</time></trkpt><trkpt lat="41.1998208" lon="1.5668251"><ele>36.800000000000004</ele><time>2026-04-19T11:13:21.041Z</time></trkpt><trkpt lat="41.1997362" lon="1.5668981"><ele>36.6</ele><time>2026-04-19T11:13:22.041Z</time></trkpt><trkpt lat="41.1996459" lon="1.56697"><ele>36.400000000000006</ele><time>2026-04-19T11:13:23.041Z</time></trkpt><trkpt lat="41.1995532" lon="1.5670416"><ele>36.2</ele><time>2026-04-19T11:13:24.04Z</time></trkpt><trkpt lat="41.1994576" lon="1.5671165"><ele>36.0</ele><time>2026-04-19T11:13:25.04Z</time></trkpt><trkpt lat="41.1993617" lon="1.5671921"><ele>36.0</ele><time>2026-04-19T11:13:26.041Z</time></trkpt><trkpt lat="41.1992632" lon="1.5672691"><ele>36.0</ele><time>2026-04-19T11:13:27.041Z</time></trkpt><trkpt lat="41.1991649" lon="1.5673451"><ele>36.0</ele><time>2026-04-19T11:13:28.041Z</time></trkpt><trkpt lat="41.1990674" lon="1.5674183"><ele>36.0</ele><time>2026-04-19T11:13:29.041Z</time></trkpt><trkpt lat="41.1989709" lon="1.5675013"><ele>35.0</ele><time>2026-04-19T11:13:30.04Z</time></trkpt><trkpt lat="41.1988732" lon="1.5675766"><ele>34.0</ele><time>2026-04-19T11:13:31.04Z</time></trkpt><trkpt lat="41.1987793" lon="1.5676482"><ele>33.0</ele><time>2026-04-19T11:13:32.041Z</time></trkpt><trkpt lat="41.1986896" lon="1.5677186"><ele>32.0</ele><time>2026-04-19T11:13:33.04Z</time></trkpt><trkpt lat="41.1985984" lon="1.5677906"><ele>31.0</ele><time>2026-04-19T11:13:34.041Z</time></trkpt><trkpt lat="41.1985037" lon="1.5678735"><ele>31.0</ele><time>2026-04-19T11:13:35.041Z</time></trkpt><trkpt lat="41.1984025" lon="1.5679565"><ele>31.0</ele><time>2026-04-19T11:13:36.041Z</time></trkpt><trkpt lat="41.1983007" lon="1.5680351"><ele>31.0</ele><time>2026-04-19T11:13:37.041Z</time></trkpt><trkpt lat="41.1981996" lon="1.5681148"><ele>31.0</ele><time>2026-04-19T11:13:38.04Z</time></trkpt><trkpt lat="41.1981018" lon="1.5681958"><ele>29.8</ele><time>2026-04-19T11:13:39.041Z</time></trkpt><trkpt lat="41.1980109" lon="1.5682716"><ele>28.6</ele><time>2026-04-19T11:13:40.041Z</time></trkpt><trkpt lat="41.197923" lon="1.5683426"><ele>27.4</ele><time>2026-04-19T11:13:41.04Z</time></trkpt><trkpt lat="41.1978407" lon="1.5684097"><ele>26.2</ele><time>2026-04-19T11:13:42.04Z</time></trkpt><trkpt lat="41.1977625" lon="1.5684693"><ele>25.0</ele><time>2026-04-19T11:13:43.04Z</time></trkpt><trkpt lat="41.1976894" lon="1.5685272"><ele>25.000000000000004</ele><time>2026-04-19T11:13:44.041Z</time></trkpt><trkpt lat="41.1976223" lon="1.5685853"><ele>25.0</ele><time>2026-04-19T11:13:45.04Z</time></trkpt><trkpt lat="41.1975624" lon="1.5686364"><ele>25.0</ele><time>2026-04-19T11:13:46.041Z</time></trkpt><trkpt lat="41.1975036" lon="1.5686883"><ele>25.0</ele><time>2026-04-19T11:13:47.041Z</time></trkpt><trkpt lat="41.197449" lon="1.5687352"><ele>25.0</ele><time>2026-04-19T11:13:48.041Z</time></trkpt><trkpt lat="41.1973821" lon="1.5687806"><ele>25.000000000000004</ele><time>2026-04-19T11:13:50.04Z</time></trkpt><trkpt lat="41.1973193" lon="1.5688371"><ele>25.0</ele><time>2026-04-19T11:14:03.041Z</time></trkpt><trkpt lat="41.1972446" lon="1.5688973"><ele>24.500000000000004</ele><time>2026-04-19T11:14:05.041Z</time></trkpt><trkpt lat="41.1971426" lon="1.568972"><ele>24.0</ele><time>2026-04-19T11:14:07.041Z</time></trkpt><trkpt lat="41.197084" lon="1.5690197"><ele>23.5</ele><time>2026-04-19T11:14:08.041Z</time></trkpt><trkpt lat="41.1970202" lon="1.5690683"><ele>23.0</ele><time>2026-04-19T11:14:09.04Z</time></trkpt><trkpt lat="41.1969525" lon="1.5691261"><ele>22.5</ele><time>2026-04-19T11:14:10.041Z</time></trkpt><trkpt lat="41.1968791" lon="1.5691893"><ele>22.0</ele><time>2026-04-19T11:14:11.041Z</time></trkpt><trkpt lat="41.1968032" lon="1.5692498"><ele>22.0</ele><time>2026-04-19T11:14:12.041Z</time></trkpt><trkpt lat="41.1967333" lon="1.5693065"><ele>22.0</ele><time>2026-04-19T11:14:13.041Z</time></trkpt><trkpt lat="41.1966529" lon="1.5693744"><ele>22.0</ele><time>2026-04-19T11:14:14.04Z</time></trkpt><trkpt lat="41.1965712" lon="1.5694445"><ele>22.0</ele><time>2026-04-19T11:14:15.04Z</time></trkpt><trkpt lat="41.1964904" lon="1.5695121"><ele>22.0</ele><time>2026-04-19T11:14:16.041Z</time></trkpt><trkpt lat="41.1964034" lon="1.5695748"><ele>21.200000000000003</ele><time>2026-04-19T11:14:17.041Z</time></trkpt><trkpt lat="41.196311" lon="1.5696461"><ele>20.400000000000002</ele><time>2026-04-19T11:14:18.04Z</time></trkpt><trkpt lat="41.196213" lon="1.569722"><ele>19.6</ele><time>2026-04-19T11:14:19.04Z</time></trkpt><trkpt lat="41.1961178" lon="1.5697986"><ele>18.8</ele><time>2026-04-19T11:14:20.041Z</time></trkpt><trkpt lat="41.1960186" lon="1.5698791"><ele>18.0</ele><time>2026-04-19T11:14:21.041Z</time></trkpt><trkpt lat="41.1959211" lon="1.5699582"><ele>18.0</ele><time>2026-04-19T11:14:22.041Z</time></trkpt><trkpt lat="41.1958267" lon="1.5700342"><ele>18.0</ele><time>2026-04-19T11:14:23.04Z</time></trkpt><trkpt lat="41.1957288" lon="1.5701104"><ele>18.0</ele><time>2026-04-19T11:14:24.04Z</time></trkpt><trkpt lat="41.1956335" lon="1.5701918"><ele>18.0</ele><time>2026-04-19T11:14:25.04Z</time></trkpt><trkpt lat="41.1955382" lon="1.5702688"><ele>18.0</ele><time>2026-04-19T11:14:26.04Z</time></trkpt><trkpt lat="41.195442" lon="1.5703451"><ele>17.2</ele><time>2026-04-19T11:14:27.04Z</time></trkpt><trkpt lat="41.1953479" lon="1.570423"><ele>16.4</ele><time>2026-04-19T11:14:28.041Z</time></trkpt><trkpt lat="41.1952549" lon="1.5705027"><ele>15.599999999999998</ele><time>2026-04-19T11:14:29.041Z</time></trkpt><trkpt lat="41.1951594" lon="1.5705805"><ele>14.799999999999999</ele><time>2026-04-19T11:14:30.04Z</time></trkpt><trkpt lat="41.195063" lon="1.5706572"><ele>14.0</ele><time>2026-04-19T11:14:31.04Z</time></trkpt><trkpt lat="41.1949663" lon="1.5707329"><ele>14.0</ele><time>2026-04-19T11:14:32.04Z</time></trkpt><trkpt lat="41.1948721" lon="1.5708114"><ele>13.999999999999998</ele><time>2026-04-19T11:14:33.041Z</time></trkpt><trkpt lat="41.1947796" lon="1.5708855"><ele>13.999999999999998</ele><time>2026-04-19T11:14:34.04Z</time></trkpt><trkpt lat="41.1946825" lon="1.5709591"><ele>14.0</ele><time>2026-04-19T11:14:35.041Z</time></trkpt><trkpt lat="41.1945929" lon="1.5710275"><ele>14.0</ele><time>2026-04-19T11:14:36.04Z</time></trkpt><trkpt lat="41.1945019" lon="1.5710963"><ele>14.0</ele><time>2026-04-19T11:14:37.041Z</time></trkpt><trkpt lat="41.19442" lon="1.5711596"><ele>13.999999999999998</ele><time>2026-04-19T11:14:38.041Z</time></trkpt><trkpt lat="41.194332" lon="1.5712305"><ele>13.999999999999998</ele><time>2026-04-19T11:14:39.04Z</time></trkpt><trkpt lat="41.1942428" lon="1.5713053"><ele>14.0</ele><time>2026-04-19T11:14:40.041Z</time></trkpt><trkpt lat="41.1941475" lon="1.5713786"><ele>14.0</ele><time>2026-04-19T11:14:41.04Z</time></trkpt><trkpt lat="41.1940483" lon="1.5714604"><ele>13.2</ele><time>2026-04-19T11:14:42.041Z</time></trkpt><trkpt lat="41.1939522" lon="1.5715387"><ele>12.399999999999999</ele><time>2026-04-19T11:14:43.041Z</time></trkpt><trkpt lat="41.1938564" lon="1.5716179"><ele>11.6</ele><time>2026-04-19T11:14:44.04Z</time></trkpt><trkpt lat="41.1937686" lon="1.5716892"><ele>10.8</ele><time>2026-04-19T11:14:45.041Z</time></trkpt><trkpt lat="41.1936832" lon="1.5717652"><ele>10.0</ele><time>2026-04-19T11:14:46.041Z</time></trkpt><trkpt lat="41.1935986" lon="1.5718408"><ele>10.0</ele><time>2026-04-19T11:14:47.041Z</time></trkpt><trkpt lat="41.1935211" lon="1.5719126"><ele>10.0</ele><time>2026-04-19T11:14:48.041Z</time></trkpt><trkpt lat="41.1934512" lon="1.5719813"><ele>10.0</ele><time>2026-04-19T11:14:49.041Z</time></trkpt><trkpt lat="41.1933924" lon="1.5720468"><ele>10.0</ele><time>2026-04-19T11:14:50.041Z</time></trkpt><trkpt lat="41.193345" lon="1.5721026"><ele>10.0</ele><time>2026-04-19T11:14:51.04Z</time></trkpt><trkpt lat="41.1932856" lon="1.5721749"><ele>10.0</ele><time>2026-04-19T11:14:53.041Z</time></trkpt><trkpt lat="41.1932319" lon="1.5722222"><ele>9.6</ele><time>2026-04-19T11:14:57.041Z</time></trkpt><trkpt lat="41.1931542" lon="1.5722693"><ele>9.2</ele><time>2026-04-19T11:15:03.04Z</time></trkpt><trkpt lat="41.1930457" lon="1.5723212"><ele>8.8</ele><time>2026-04-19T11:15:05.041Z</time></trkpt><trkpt lat="41.192939" lon="1.5724074"><ele>8.4</ele><time>2026-04-19T11:15:07.041Z</time></trkpt><trkpt lat="41.1929067" lon="1.5724962"><ele>8.0</ele><time>2026-04-19T11:15:08.041Z</time></trkpt><trkpt lat="41.1928916" lon="1.5725958"><ele>8.0</ele><time>2026-04-19T11:15:09.04Z</time></trkpt><trkpt lat="41.1929052" lon="1.572707"><ele>8.0</ele><time>2026-04-19T11:15:10.04Z</time></trkpt><trkpt lat="41.1929314" lon="1.572821"><ele>8.0</ele><time>2026-04-19T11:15:11.041Z</time></trkpt><trkpt lat="41.1929518" lon="1.5729588"><ele>8.0</ele><time>2026-04-19T11:15:12.04Z</time></trkpt><trkpt lat="41.1929568" lon="1.5731075"><ele>8.0</ele><time>2026-04-19T11:15:13.041Z</time></trkpt><trkpt lat="41.1929544" lon="1.5732618"><ele>8.0</ele><time>2026-04-19T11:15:14.041Z</time></trkpt><trkpt lat="41.1929543" lon="1.5734269"><ele>8.0</ele><time>2026-04-19T11:15:15.041Z</time></trkpt><trkpt lat="41.1929529" lon="1.5735895"><ele>8.0</ele><time>2026-04-19T11:15:16.041Z</time></trkpt><trkpt lat="41.1929454" lon="1.5737501"><ele>8.0</ele><time>2026-04-19T11:15:17.04Z</time></trkpt><trkpt lat="41.1929323" lon="1.57391"><ele>7.75</ele><time>2026-04-19T11:15:18.04Z</time></trkpt><trkpt lat="41.1929094" lon="1.5740685"><ele>7.5</ele><time>2026-04-19T11:15:19.041Z</time></trkpt><trkpt lat="41.1928747" lon="1.5742238"><ele>7.25</ele><time>2026-04-19T11:15:20.041Z</time></trkpt><trkpt lat="41.1928277" lon="1.5743696"><ele>7.0</ele><time>2026-04-19T11:15:21.04Z</time></trkpt><trkpt lat="41.1927738" lon="1.5745106"><ele>7.25</ele><time>2026-04-19T11:15:22.041Z</time></trkpt><trkpt lat="41.1927096" lon="1.574651"><ele>7.5</ele><time>2026-04-19T11:15:23.04Z</time></trkpt><trkpt lat="41.1926413" lon="1.5747869"><ele>7.75</ele><time>2026-04-19T11:15:24.041Z</time></trkpt><trkpt lat="41.192571" lon="1.5749237"><ele>8.0</ele><time>2026-04-19T11:15:25.04Z</time></trkpt><trkpt lat="41.1925019" lon="1.5750599"><ele>8.0</ele><time>2026-04-19T11:15:26.041Z</time></trkpt><trkpt lat="41.1924314" lon="1.5752055"><ele>8.0</ele><time>2026-04-19T11:15:27.041Z</time></trkpt><trkpt lat="41.1923585" lon="1.5753518"><ele>8.0</ele><time>2026-04-19T11:15:28.041Z</time></trkpt><trkpt lat="41.1922796" lon="1.575503"><ele>8.0</ele><time>2026-04-19T11:15:29.04Z</time></trkpt><trkpt lat="41.1921988" lon="1.5756573"><ele>8.0</ele><time>2026-04-19T11:15:30.041Z</time></trkpt><trkpt lat="41.1921183" lon="1.5758144"><ele>8.0</ele><time>2026-04-19T11:15:31.04Z</time></trkpt><trkpt lat="41.1920339" lon="1.5759755"><ele>8.0</ele><time>2026-04-19T11:15:32.041Z</time></trkpt><trkpt lat="41.1919523" lon="1.5761406"><ele>8.0</ele><time>2026-04-19T11:15:33.041Z</time></trkpt><trkpt lat="41.191866" lon="1.5763102"><ele>8.0</ele><time>2026-04-19T11:15:34.041Z</time></trkpt><trkpt lat="41.1917785" lon="1.5764774"><ele>8.0</ele><time>2026-04-19T11:15:35.04Z</time></trkpt><trkpt lat="41.1916923" lon="1.5766472"><ele>8.0</ele><time>2026-04-19T11:15:36.041Z</time></trkpt><trkpt lat="41.1916067" lon="1.5768132"><ele>8.0</ele><time>2026-04-19T11:15:37.041Z</time></trkpt><trkpt lat="41.191519" lon="1.5769811"><ele>8.0</ele><time>2026-04-19T11:15:38.041Z</time></trkpt><trkpt lat="41.1914331" lon="1.577149"><ele>8.0</ele><time>2026-04-19T11:15:39.04Z</time></trkpt><trkpt lat="41.1913466" lon="1.5773231"><ele>8.0</ele><time>2026-04-19T11:15:40.041Z</time></trkpt><trkpt lat="41.1912608" lon="1.5774943"><ele>8.0</ele><time>2026-04-19T11:15:41.04Z</time></trkpt><trkpt lat="41.1911723" lon="1.5776707"><ele>8.0</ele><time>2026-04-19T11:15:42.041Z</time></trkpt><trkpt lat="41.191069" lon="1.5778697"><ele>8.666666666666666</ele><time>2026-04-19T11:15:43.041Z</time></trkpt><trkpt lat="41.1909761" lon="1.5780831"><ele>9.333333333333334</ele><time>2026-04-19T11:15:44.04Z</time></trkpt><trkpt lat="41.1909027" lon="1.578296"><ele>10.0</ele><time>2026-04-19T11:15:45.04Z</time></trkpt><trkpt lat="41.1908451" lon="1.5785219"><ele>11.0</ele><time>2026-04-19T11:15:46.041Z</time></trkpt><trkpt lat="41.1908033" lon="1.5787561"><ele>12.0</ele><time>2026-04-19T11:15:47.04Z</time></trkpt><trkpt lat="41.1907774" lon="1.5790149"><ele>13.0</ele><time>2026-04-19T11:15:48.04Z</time></trkpt><trkpt lat="41.1907675" lon="1.5792817"><ele>13.666666666666666</ele><time>2026-04-19T11:15:49.041Z</time></trkpt><trkpt lat="41.1907594" lon="1.579546"><ele>14.333333333333332</ele><time>2026-04-19T11:15:50.04Z</time></trkpt><trkpt lat="41.1907481" lon="1.5797935"><ele>15.0</ele><time>2026-04-19T11:15:51.041Z</time></trkpt><trkpt lat="41.1907389" lon="1.5800376"><ele>15.0</ele><time>2026-04-19T11:15:52.04Z</time></trkpt><trkpt lat="41.1907422" lon="1.5802885"><ele>15.0</ele><time>2026-04-19T11:15:53.04Z</time></trkpt><trkpt lat="41.1907732" lon="1.5805418"><ele>15.0</ele><time>2026-04-19T11:15:54.041Z</time></trkpt><trkpt lat="41.1908288" lon="1.5807799"><ele>15.0</ele><time>2026-04-19T11:15:55.04Z</time></trkpt><trkpt lat="41.1908876" lon="1.5809999"><ele>15.0</ele><time>2026-04-19T11:15:56.04Z</time></trkpt><trkpt lat="41.1909433" lon="1.5812061"><ele>15.0</ele><time>2026-04-19T11:15:57.04Z</time></trkpt><trkpt lat="41.1909943" lon="1.5814077"><ele>14.0</ele><time>2026-04-19T11:15:58.041Z</time></trkpt><trkpt lat="41.1910491" lon="1.581599"><ele>13.0</ele><time>2026-04-19T11:15:59.041Z</time></trkpt><trkpt lat="41.1911013" lon="1.5817865"><ele>12.0</ele><time>2026-04-19T11:16:00.041Z</time></trkpt><trkpt lat="41.1911522" lon="1.5819852"><ele>13.0</ele><time>2026-04-19T11:16:01.041Z</time></trkpt><trkpt lat="41.1912072" lon="1.5821939"><ele>14.0</ele><time>2026-04-19T11:16:02.041Z</time></trkpt><trkpt lat="41.1912573" lon="1.5824027"><ele>15.0</ele><time>2026-04-19T11:16:03.041Z</time></trkpt><trkpt lat="41.1913027" lon="1.5826078"><ele>15.0</ele><time>2026-04-19T11:16:04.041Z</time></trkpt><trkpt lat="41.1913406" lon="1.5828165"><ele>15.0</ele><time>2026-04-19T11:16:05.041Z</time></trkpt><trkpt lat="41.1913691" lon="1.5830296"><ele>15.0</ele><time>2026-04-19T11:16:06.04Z</time></trkpt><trkpt lat="41.1913881" lon="1.5832435"><ele>15.666666666666668</ele><time>2026-04-19T11:16:07.04Z</time></trkpt><trkpt lat="41.1913988" lon="1.583454"><ele>16.333333333333336</ele><time>2026-04-19T11:16:08.04Z</time></trkpt><trkpt lat="41.1914037" lon="1.5836555"><ele>17.0</ele><time>2026-04-19T11:16:09.041Z</time></trkpt><trkpt lat="41.1914061" lon="1.5838474"><ele>15.5</ele><time>2026-04-19T11:16:10.041Z</time></trkpt><trkpt lat="41.1914064" lon="1.5840305"><ele>14.0</ele><time>2026-04-19T11:16:11.041Z</time></trkpt><trkpt lat="41.1914024" lon="1.5842091"><ele>12.5</ele><time>2026-04-19T11:16:12.041Z</time></trkpt><trkpt lat="41.1913995" lon="1.5843801"><ele>11.0</ele><time>2026-04-19T11:16:13.041Z</time></trkpt><trkpt lat="41.1914013" lon="1.5845502"><ele>10.5</ele><time>2026-04-19T11:16:14.04Z</time></trkpt><trkpt lat="41.1914027" lon="1.5847173"><ele>10.0</ele><time>2026-04-19T11:16:15.041Z</time></trkpt><trkpt lat="41.1914057" lon="1.5848893"><ele>9.5</ele><time>2026-04-19T11:16:16.041Z</time></trkpt><trkpt lat="41.1914229" lon="1.5850606"><ele>9.0</ele><time>2026-04-19T11:16:17.04Z</time></trkpt><trkpt lat="41.1914539" lon="1.5852375"><ele>8.25</ele><time>2026-04-19T11:16:18.041Z</time></trkpt><trkpt lat="41.1915033" lon="1.5854115"><ele>7.5</ele><time>2026-04-19T11:16:19.041Z</time></trkpt><trkpt lat="41.1915632" lon="1.5855908"><ele>6.75</ele><time>2026-04-19T11:16:20.04Z</time></trkpt><trkpt lat="41.1916266" lon="1.5857825"><ele>6.0</ele><time>2026-04-19T11:16:21.04Z</time></trkpt><trkpt lat="41.1916905" lon="1.5859716"><ele>7.0</ele><time>2026-04-19T11:16:22.041Z</time></trkpt><trkpt lat="41.1917547" lon="1.5861663"><ele>8.0</ele><time>2026-04-19T11:16:23.04Z</time></trkpt><trkpt lat="41.1918195" lon="1.5863625"><ele>9.0</ele><time>2026-04-19T11:16:24.041Z</time></trkpt><trkpt lat="41.1918852" lon="1.5865655"><ele>9.0</ele><time>2026-04-19T11:16:25.041Z</time></trkpt><trkpt lat="41.1919546" lon="1.5867954"><ele>9.0</ele><time>2026-04-19T11:16:26.041Z</time></trkpt><trkpt lat="41.1920101" lon="1.587035"><ele>9.0</ele><time>2026-04-19T11:16:27.04Z</time></trkpt><trkpt lat="41.1920397" lon="1.5872771"><ele>9.666666666666666</ele><time>2026-04-19T11:16:28.041Z</time></trkpt><trkpt lat="41.1920451" lon="1.5875213"><ele>10.333333333333332</ele><time>2026-04-19T11:16:29.041Z</time></trkpt><trkpt lat="41.1920399" lon="1.5877672"><ele>11.0</ele><time>2026-04-19T11:16:30.041Z</time></trkpt><trkpt lat="41.1920423" lon="1.5879998"><ele>11.666666666666666</ele><time>2026-04-19T11:16:31.041Z</time></trkpt><trkpt lat="41.1920478" lon="1.5882244"><ele>12.333333333333332</ele><time>2026-04-19T11:16:32.041Z</time></trkpt><trkpt lat="41.1920531" lon="1.5884413"><ele>13.0</ele><time>2026-04-19T11:16:33.04Z</time></trkpt><trkpt lat="41.1920561" lon="1.588661"><ele>11.333333333333332</ele><time>2026-04-19T11:16:34.04Z</time></trkpt><trkpt lat="41.1920525" lon="1.5888791"><ele>9.666666666666666</ele><time>2026-04-19T11:16:35.041Z</time></trkpt><trkpt lat="41.1920524" lon="1.5890989"><ele>8.0</ele><time>2026-04-19T11:16:36.041Z</time></trkpt><trkpt lat="41.1920564" lon="1.5893204"><ele>7.666666666666666</ele><time>2026-04-19T11:16:37.041Z</time></trkpt><trkpt lat="41.1920575" lon="1.5895439"><ele>7.333333333333334</ele><time>2026-04-19T11:16:38.04Z</time></trkpt><trkpt lat="41.1920569" lon="1.5897672"><ele>7.0</ele><time>2026-04-19T11:16:39.041Z</time></trkpt><trkpt lat="41.1920626" lon="1.5899887"><ele>7.0</ele><time>2026-04-19T11:16:40.04Z</time></trkpt><trkpt lat="41.1920629" lon="1.5902154"><ele>7.0</ele><time>2026-04-19T11:16:41.041Z</time></trkpt><trkpt lat="41.1920649" lon="1.5904435"><ele>7.0</ele><time>2026-04-19T11:16:42.041Z</time></trkpt><trkpt lat="41.1920658" lon="1.590672"><ele>7.333333333333334</ele><time>2026-04-19T11:16:43.041Z</time></trkpt><trkpt lat="41.192064" lon="1.5909029"><ele>7.666666666666666</ele><time>2026-04-19T11:16:44.04Z</time></trkpt><trkpt lat="41.1920646" lon="1.5911302"><ele>8.0</ele><time>2026-04-19T11:16:45.04Z</time></trkpt><trkpt lat="41.1920648" lon="1.5913566"><ele>7.333333333333333</ele><time>2026-04-19T11:16:46.04Z</time></trkpt><trkpt lat="41.1920633" lon="1.5915809"><ele>6.666666666666666</ele><time>2026-04-19T11:16:47.041Z</time></trkpt><trkpt lat="41.1920647" lon="1.5918046"><ele>6.0</ele><time>2026-04-19T11:16:48.041Z</time></trkpt><trkpt lat="41.1920672" lon="1.5920342"><ele>5.666666666666667</ele><time>2026-04-19T11:16:49.041Z</time></trkpt><trkpt lat="41.1920665" lon="1.5922575"><ele>5.333333333333334</ele><time>2026-04-19T11:16:50.041Z</time></trkpt><trkpt lat="41.1920668" lon="1.5924785"><ele>5.0</ele><time>2026-04-19T11:16:51.04Z</time></trkpt><trkpt lat="41.192064" lon="1.5927006"><ele>5.0</ele><time>2026-04-19T11:16:52.041Z</time></trkpt><trkpt lat="41.1920568" lon="1.5929273"><ele>5.0</ele><time>2026-04-19T11:16:53.041Z</time></trkpt><trkpt lat="41.1920497" lon="1.5931503"><ele>5.0</ele><time>2026-04-19T11:16:54.04Z</time></trkpt><trkpt lat="41.1920449" lon="1.593372"><ele>5.0</ele><time>2026-04-19T11:16:55.04Z</time></trkpt><trkpt lat="41.1920418" lon="1.5935993"><ele>5.0</ele><time>2026-04-19T11:16:56.041Z</time></trkpt><trkpt lat="41.1920368" lon="1.593825"><ele>5.0</ele><time>2026-04-19T11:16:57.04Z</time></trkpt><trkpt lat="41.192031" lon="1.5940488"><ele>4.666666666666667</ele><time>2026-04-19T11:16:58.04Z</time></trkpt><trkpt lat="41.1920283" lon="1.5942723"><ele>4.333333333333333</ele><time>2026-04-19T11:16:59.041Z</time></trkpt><trkpt lat="41.1920287" lon="1.5944873"><ele>4.0</ele><time>2026-04-19T11:17:00.041Z</time></trkpt><trkpt lat="41.1920271" lon="1.5946929"><ele>4.0</ele><time>2026-04-19T11:17:01.041Z</time></trkpt><trkpt lat="41.1920258" lon="1.5948893"><ele>4.0</ele><time>2026-04-19T11:17:02.041Z</time></trkpt><trkpt lat="41.1920308" lon="1.5950766"><ele>4.0</ele><time>2026-04-19T11:17:03.041Z</time></trkpt><trkpt lat="41.1920376" lon="1.5952533"><ele>4.0</ele><time>2026-04-19T11:17:04.041Z</time></trkpt><trkpt lat="41.1920412" lon="1.5954073"><ele>3.833333333333333</ele><time>2026-04-19T11:17:05.041Z</time></trkpt><trkpt lat="41.1920425" lon="1.5955241"><ele>3.6666666666666665</ele><time>2026-04-19T11:17:06.041Z</time></trkpt><trkpt lat="41.1920428" lon="1.5956078"><ele>3.5</ele><time>2026-04-19T11:17:07.041Z</time></trkpt><trkpt lat="41.1920467" lon="1.5957122"><ele>3.333333333333333</ele><time>2026-04-19T11:17:09.041Z</time></trkpt><trkpt lat="41.1920547" lon="1.5958411"><ele>3.1666666666666665</ele><time>2026-04-19T11:17:12.04Z</time></trkpt><trkpt lat="41.1920583" lon="1.595955"><ele>3.0</ele><time>2026-04-19T11:17:14.041Z</time></trkpt><trkpt lat="41.192049" lon="1.5960919"><ele>3.1666666666666665</ele><time>2026-04-19T11:17:16.041Z</time></trkpt><trkpt lat="41.1920328" lon="1.5961813"><ele>3.333333333333333</ele><time>2026-04-19T11:17:17.041Z</time></trkpt><trkpt lat="41.1920115" lon="1.5962782"><ele>3.5</ele><time>2026-04-19T11:17:18.041Z</time></trkpt><trkpt lat="41.1920041" lon="1.5963808"><ele>3.6666666666666665</ele><time>2026-04-19T11:17:19.041Z</time></trkpt><trkpt lat="41.1920211" lon="1.5964849"><ele>3.833333333333333</ele><time>2026-04-19T11:17:20.041Z</time></trkpt><trkpt lat="41.1920561" lon="1.5965936"><ele>4.0</ele><time>2026-04-19T11:17:21.041Z</time></trkpt><trkpt lat="41.192077" lon="1.5967205"><ele>4.0</ele><time>2026-04-19T11:17:22.041Z</time></trkpt><trkpt lat="41.1920818" lon="1.5968567"><ele>4.0</ele><time>2026-04-19T11:17:23.04Z</time></trkpt><trkpt lat="41.1920824" lon="1.5969947"><ele>4.0</ele><time>2026-04-19T11:17:24.04Z</time></trkpt><trkpt lat="41.1920877" lon="1.5971359"><ele>4.0</ele><time>2026-04-19T11:17:25.041Z</time></trkpt><trkpt lat="41.1920892" lon="1.5972878"><ele>4.0</ele><time>2026-04-19T11:17:26.04Z</time></trkpt><trkpt lat="41.1920887" lon="1.5974386"><ele>4.0</ele><time>2026-04-19T11:17:27.041Z</time></trkpt><trkpt lat="41.1920893" lon="1.5976031"><ele>4.0</ele><time>2026-04-19T11:17:28.041Z</time></trkpt><trkpt lat="41.192093" lon="1.5977732"><ele>4.0</ele><time>2026-04-19T11:17:29.04Z</time></trkpt><trkpt lat="41.1920967" lon="1.5979513"><ele>4.0</ele><time>2026-04-19T11:17:30.041Z</time></trkpt><trkpt lat="41.1921017" lon="1.598135"><ele>4.0</ele><time>2026-04-19T11:17:31.041Z</time></trkpt><trkpt lat="41.1921052" lon="1.5983154"><ele>4.0</ele><time>2026-04-19T11:17:32.04Z</time></trkpt><trkpt lat="41.192111" lon="1.598499"><ele>4.0</ele><time>2026-04-19T11:17:33.041Z</time></trkpt><trkpt lat="41.1921196" lon="1.5986822"><ele>4.0</ele><time>2026-04-19T11:17:34.04Z</time></trkpt><trkpt lat="41.1921243" lon="1.5988651"><ele>4.0</ele><time>2026-04-19T11:17:35.04Z</time></trkpt><trkpt lat="41.1921297" lon="1.5990462"><ele>4.0</ele><time>2026-04-19T11:17:36.04Z</time></trkpt><trkpt lat="41.1921341" lon="1.5992315"><ele>4.0</ele><time>2026-04-19T11:17:37.041Z</time></trkpt><trkpt lat="41.1921383" lon="1.5994137"><ele>4.0</ele><time>2026-04-19T11:17:38.04Z</time></trkpt><trkpt lat="41.1921448" lon="1.5995928"><ele>4.25</ele><time>2026-04-19T11:17:39.041Z</time></trkpt><trkpt lat="41.1921504" lon="1.5997707"><ele>4.5</ele><time>2026-04-19T11:17:40.04Z</time></trkpt><trkpt lat="41.1921549" lon="1.5999461"><ele>4.75</ele><time>2026-04-19T11:17:41.04Z</time></trkpt><trkpt lat="41.1921613" lon="1.6001215"><ele>5.0</ele><time>2026-04-19T11:17:42.041Z</time></trkpt><trkpt lat="41.1921681" lon="1.6002963"><ele>5.25</ele><time>2026-04-19T11:17:43.041Z</time></trkpt><trkpt lat="41.1921758" lon="1.6004714"><ele>5.5</ele><time>2026-04-19T11:17:44.04Z</time></trkpt><trkpt lat="41.1921816" lon="1.6006431"><ele>5.75</ele><time>2026-04-19T11:17:45.041Z</time></trkpt><trkpt lat="41.1921845" lon="1.6008188"><ele>6.0</ele><time>2026-04-19T11:17:46.04Z</time></trkpt><trkpt lat="41.1921924" lon="1.6009968"><ele>6.5</ele><time>2026-04-19T11:17:47.041Z</time></trkpt><trkpt lat="41.1921955" lon="1.6011719"><ele>7.0</ele><time>2026-04-19T11:17:48.041Z</time></trkpt><trkpt lat="41.1922026" lon="1.6013481"><ele>7.5</ele><time>2026-04-19T11:17:49.041Z</time></trkpt><trkpt lat="41.1922132" lon="1.6015207"><ele>8.0</ele><time>2026-04-19T11:17:50.041Z</time></trkpt><trkpt lat="41.1922376" lon="1.6016783"><ele>8.0</ele><time>2026-04-19T11:17:51.041Z</time></trkpt><trkpt lat="41.1922687" lon="1.6018265"><ele>8.0</ele><time>2026-04-19T11:17:52.041Z</time></trkpt><trkpt lat="41.1923046" lon="1.6019664"><ele>8.0</ele><time>2026-04-19T11:17:53.041Z</time></trkpt><trkpt lat="41.1923371" lon="1.6020951"><ele>8.0</ele><time>2026-04-19T11:17:54.04Z</time></trkpt><trkpt lat="41.1923679" lon="1.6022222"><ele>8.0</ele><time>2026-04-19T11:17:55.041Z</time></trkpt><trkpt lat="41.1923968" lon="1.6023341"><ele>7.999999999999999</ele><time>2026-04-19T11:17:56.04Z</time></trkpt><trkpt lat="41.1924238" lon="1.6024337"><ele>8.0</ele><time>2026-04-19T11:17:57.04Z</time></trkpt><trkpt lat="41.1924461" lon="1.6025295"><ele>8.0</ele><time>2026-04-19T11:17:58.041Z</time></trkpt><trkpt lat="41.1924663" lon="1.6026153"><ele>8.0</ele><time>2026-04-19T11:17:59.041Z</time></trkpt><trkpt lat="41.1924949" lon="1.6027366"><ele>7.999999999999999</ele><time>2026-04-19T11:18:01.041Z</time></trkpt><trkpt lat="41.1925087" lon="1.602827"><ele>8.0</ele><time>2026-04-19T11:18:38.041Z</time></trkpt><trkpt lat="41.1925271" lon="1.6029155"><ele>7.833333333333333</ele><time>2026-04-19T11:18:40.041Z</time></trkpt><trkpt lat="41.192568" lon="1.6030725"><ele>7.666666666666666</ele><time>2026-04-19T11:18:42.04Z</time></trkpt><trkpt lat="41.1925871" lon="1.603156"><ele>7.5</ele><time>2026-04-19T11:18:43.041Z</time></trkpt><trkpt lat="41.1926086" lon="1.6032431"><ele>7.333333333333334</ele><time>2026-04-19T11:18:44.041Z</time></trkpt><trkpt lat="41.1926339" lon="1.6033278"><ele>7.166666666666667</ele><time>2026-04-19T11:18:45.041Z</time></trkpt><trkpt lat="41.192655" lon="1.6034202"><ele>7.0</ele><time>2026-04-19T11:18:46.041Z</time></trkpt><trkpt lat="41.1926816" lon="1.6035316"><ele>7.000000000000001</ele><time>2026-04-19T11:18:47.04Z</time></trkpt><trkpt lat="41.1927066" lon="1.6036465"><ele>7.0</ele><time>2026-04-19T11:18:48.041Z</time></trkpt><trkpt lat="41.1927345" lon="1.6037586"><ele>7.0</ele><time>2026-04-19T11:18:49.041Z</time></trkpt><trkpt lat="41.1927619" lon="1.6038664"><ele>7.0</ele><time>2026-04-19T11:18:50.041Z</time></trkpt><trkpt lat="41.1927878" lon="1.6039623"><ele>7.000000000000001</ele><time>2026-04-19T11:18:51.04Z</time></trkpt><trkpt lat="41.192811" lon="1.6040489"><ele>7.0</ele><time>2026-04-19T11:18:52.04Z</time></trkpt><trkpt lat="41.192856" lon="1.6042"><ele>7.333333333333334</ele><time>2026-04-19T11:18:54.041Z</time></trkpt><trkpt lat="41.1928724" lon="1.6042862"><ele>7.666666666666667</ele><time>2026-04-19T11:18:55.041Z</time></trkpt><trkpt lat="41.1928981" lon="1.6043909"><ele>8.0</ele><time>2026-04-19T11:18:56.04Z</time></trkpt><trkpt lat="41.1929244" lon="1.6045136"><ele>8.333333333333334</ele><time>2026-04-19T11:18:57.041Z</time></trkpt><trkpt lat="41.1929522" lon="1.604634"><ele>8.666666666666666</ele><time>2026-04-19T11:18:58.041Z</time></trkpt><trkpt lat="41.1929767" lon="1.6047446"><ele>9.0</ele><time>2026-04-19T11:18:59.041Z</time></trkpt><trkpt lat="41.1930013" lon="1.6048539"><ele>9.0</ele><time>2026-04-19T11:19:00.041Z</time></trkpt><trkpt lat="41.1930263" lon="1.6049599"><ele>9.0</ele><time>2026-04-19T11:19:01.041Z</time></trkpt><trkpt lat="41.1930531" lon="1.6050752"><ele>9.0</ele><time>2026-04-19T11:19:02.041Z</time></trkpt><trkpt lat="41.1930833" lon="1.6051915"><ele>9.0</ele><time>2026-04-19T11:19:03.04Z</time></trkpt><trkpt lat="41.1931087" lon="1.6052987"><ele>9.0</ele><time>2026-04-19T11:19:04.04Z</time></trkpt><trkpt lat="41.1931361" lon="1.6054005"><ele>9.0</ele><time>2026-04-19T11:19:05.041Z</time></trkpt><trkpt lat="41.1931546" lon="1.6055028"><ele>9.8</ele><time>2026-04-19T11:19:06.04Z</time></trkpt><trkpt lat="41.1931744" lon="1.6055845"><ele>10.600000000000001</ele><time>2026-04-19T11:19:07.041Z</time></trkpt><trkpt lat="41.1932098" lon="1.6057277"><ele>11.4</ele><time>2026-04-19T11:19:09.04Z</time></trkpt><trkpt lat="41.193239" lon="1.6058387"><ele>12.200000000000001</ele><time>2026-04-19T11:19:11.041Z</time></trkpt><trkpt lat="41.1932639" lon="1.6059652"><ele>13.0</ele><time>2026-04-19T11:19:13.041Z</time></trkpt><trkpt lat="41.1933054" lon="1.6061187"><ele>12.600000000000001</ele><time>2026-04-19T11:19:15.041Z</time></trkpt><trkpt lat="41.1933355" lon="1.6062173"><ele>12.200000000000001</ele><time>2026-04-19T11:19:16.041Z</time></trkpt><trkpt lat="41.1933652" lon="1.6063246"><ele>11.8</ele><time>2026-04-19T11:19:17.041Z</time></trkpt><trkpt lat="41.1933957" lon="1.60644"><ele>11.4</ele><time>2026-04-19T11:19:18.041Z</time></trkpt><trkpt lat="41.1934292" lon="1.6065701"><ele>11.0</ele><time>2026-04-19T11:19:19.041Z</time></trkpt><trkpt lat="41.1934609" lon="1.6067028"><ele>11.0</ele><time>2026-04-19T11:19:20.041Z</time></trkpt><trkpt lat="41.1934918" lon="1.6068375"><ele>11.0</ele><time>2026-04-19T11:19:21.04Z</time></trkpt><trkpt lat="41.1935221" lon="1.6069714"><ele>11.0</ele><time>2026-04-19T11:19:22.041Z</time></trkpt><trkpt lat="41.1935514" lon="1.6071095"><ele>11.0</ele><time>2026-04-19T11:19:23.04Z</time></trkpt><trkpt lat="41.1935815" lon="1.607243"><ele>11.0</ele><time>2026-04-19T11:19:24.041Z</time></trkpt><trkpt lat="41.1936081" lon="1.6073744"><ele>11.0</ele><time>2026-04-19T11:19:25.04Z</time></trkpt><trkpt lat="41.1936317" lon="1.6074924"><ele>11.0</ele><time>2026-04-19T11:19:26.04Z</time></trkpt><trkpt lat="41.19365" lon="1.6075964"><ele>11.0</ele><time>2026-04-19T11:19:27.041Z</time></trkpt><trkpt lat="41.1936759" lon="1.60774"><ele>11.0</ele><time>2026-04-19T11:19:29.041Z</time></trkpt><trkpt lat="41.1936944" lon="1.6078384"><ele>11.0</ele><time>2026-04-19T11:19:31.04Z</time></trkpt><trkpt lat="41.193701" lon="1.6079485"><ele>11.0</ele><time>2026-04-19T11:20:05.04Z</time></trkpt><trkpt lat="41.1937315" lon="1.608104"><ele>11.0</ele><time>2026-04-19T11:20:07.04Z</time></trkpt><trkpt lat="41.1937444" lon="1.6081935"><ele>11.0</ele><time>2026-04-19T11:20:08.041Z</time></trkpt><trkpt lat="41.1937606" lon="1.6082824"><ele>11.0</ele><time>2026-04-19T11:20:09.04Z</time></trkpt><trkpt lat="41.193774" lon="1.6083745"><ele>11.0</ele><time>2026-04-19T11:20:10.041Z</time></trkpt><trkpt lat="41.1937932" lon="1.6084799"><ele>11.0</ele><time>2026-04-19T11:20:11.04Z</time></trkpt><trkpt lat="41.1938122" lon="1.6085873"><ele>11.0</ele><time>2026-04-19T11:20:12.041Z</time></trkpt><trkpt lat="41.1938333" lon="1.6087143"><ele>11.0</ele><time>2026-04-19T11:20:13.041Z</time></trkpt><trkpt lat="41.1938532" lon="1.6088598"><ele>11.0</ele><time>2026-04-19T11:20:14.041Z</time></trkpt><trkpt lat="41.1938843" lon="1.6090121"><ele>11.0</ele><time>2026-04-19T11:20:15.041Z</time></trkpt><trkpt lat="41.1939138" lon="1.6091727"><ele>11.0</ele><time>2026-04-19T11:20:16.04Z</time></trkpt><trkpt lat="41.1939396" lon="1.6093453"><ele>10.75</ele><time>2026-04-19T11:20:17.041Z</time></trkpt><trkpt lat="41.1939661" lon="1.6095218"><ele>10.5</ele><time>2026-04-19T11:20:18.04Z</time></trkpt><trkpt lat="41.1939957" lon="1.6096985"><ele>10.25</ele><time>2026-04-19T11:20:19.041Z</time></trkpt><trkpt lat="41.1940151" lon="1.6098739"><ele>10.0</ele><time>2026-04-19T11:20:20.04Z</time></trkpt><trkpt lat="41.1940376" lon="1.6100476"><ele>11.25</ele><time>2026-04-19T11:20:21.041Z</time></trkpt><trkpt lat="41.1940544" lon="1.6102191"><ele>12.5</ele><time>2026-04-19T11:20:22.041Z</time></trkpt><trkpt lat="41.1940712" lon="1.610388"><ele>13.75</ele><time>2026-04-19T11:20:23.041Z</time></trkpt><trkpt lat="41.1940853" lon="1.610557"><ele>15.0</ele><time>2026-04-19T11:20:24.041Z</time></trkpt><trkpt lat="41.1940984" lon="1.6107212"><ele>15.0</ele><time>2026-04-19T11:20:25.041Z</time></trkpt><trkpt lat="41.1941101" lon="1.6108817"><ele>15.0</ele><time>2026-04-19T11:20:26.04Z</time></trkpt><trkpt lat="41.1941203" lon="1.6110431"><ele>15.0</ele><time>2026-04-19T11:20:27.04Z</time></trkpt><trkpt lat="41.194131" lon="1.6112066"><ele>15.0</ele><time>2026-04-19T11:20:28.04Z</time></trkpt><trkpt lat="41.194141" lon="1.6113677"><ele>13.25</ele><time>2026-04-19T11:20:29.04Z</time></trkpt><trkpt lat="41.1941551" lon="1.6115241"><ele>11.5</ele><time>2026-04-19T11:20:30.041Z</time></trkpt><trkpt lat="41.1941651" lon="1.6116744"><ele>9.75</ele><time>2026-04-19T11:20:31.04Z</time></trkpt><trkpt lat="41.1941767" lon="1.6118226"><ele>8.0</ele><time>2026-04-19T11:20:32.041Z</time></trkpt><trkpt lat="41.1941873" lon="1.6119699"><ele>8.0</ele><time>2026-04-19T11:20:33.041Z</time></trkpt><trkpt lat="41.1941972" lon="1.6121187"><ele>8.0</ele><time>2026-04-19T11:20:34.04Z</time></trkpt><trkpt lat="41.1942079" lon="1.6122678"><ele>8.0</ele><time>2026-04-19T11:20:35.04Z</time></trkpt><trkpt lat="41.1942182" lon="1.612415"><ele>8.0</ele><time>2026-04-19T11:20:36.041Z</time></trkpt><trkpt lat="41.1942269" lon="1.6125633"><ele>8.0</ele><time>2026-04-19T11:20:37.041Z</time></trkpt><trkpt lat="41.1942366" lon="1.6127162"><ele>8.25</ele><time>2026-04-19T11:20:38.04Z</time></trkpt><trkpt lat="41.1942476" lon="1.6128709"><ele>8.5</ele><time>2026-04-19T11:20:39.041Z</time></trkpt><trkpt lat="41.1942599" lon="1.6130278"><ele>8.75</ele><time>2026-04-19T11:20:40.04Z</time></trkpt><trkpt lat="41.1942713" lon="1.6131839"><ele>9.0</ele><time>2026-04-19T11:20:41.04Z</time></trkpt><trkpt lat="41.1942817" lon="1.6133372"><ele>9.0</ele><time>2026-04-19T11:20:42.04Z</time></trkpt><trkpt lat="41.1942925" lon="1.6134857"><ele>9.0</ele><time>2026-04-19T11:20:43.041Z</time></trkpt><trkpt lat="41.1943" lon="1.6136246"><ele>9.0</ele><time>2026-04-19T11:20:44.041Z</time></trkpt><trkpt lat="41.1943075" lon="1.6137554"><ele>9.0</ele><time>2026-04-19T11:20:45.041Z</time></trkpt><trkpt lat="41.1943189" lon="1.6138808"><ele>9.0</ele><time>2026-04-19T11:20:46.04Z</time></trkpt><trkpt lat="41.1943275" lon="1.6140003"><ele>8.666666666666666</ele><time>2026-04-19T11:20:47.041Z</time></trkpt><trkpt lat="41.1943358" lon="1.6141127"><ele>8.333333333333334</ele><time>2026-04-19T11:20:48.04Z</time></trkpt><trkpt lat="41.1943404" lon="1.6142157"><ele>8.0</ele><time>2026-04-19T11:20:49.041Z</time></trkpt><trkpt lat="41.1943367" lon="1.6143109"><ele>7.666666666666667</ele><time>2026-04-19T11:20:50.041Z</time></trkpt><trkpt lat="41.1943198" lon="1.6143964"><ele>7.333333333333334</ele><time>2026-04-19T11:20:51.04Z</time></trkpt><trkpt lat="41.1942971" lon="1.614534"><ele>7.0</ele><time>2026-04-19T11:20:53.041Z</time></trkpt><trkpt lat="41.1943147" lon="1.6146297"><ele>7.000000000000001</ele><time>2026-04-19T11:20:54.04Z</time></trkpt><trkpt lat="41.1943729" lon="1.61478"><ele>7.0</ele><time>2026-04-19T11:20:56.04Z</time></trkpt><trkpt lat="41.1943981" lon="1.614871"><ele>7.0</ele><time>2026-04-19T11:20:57.041Z</time></trkpt><trkpt lat="41.1944159" lon="1.6149679"><ele>7.0</ele><time>2026-04-19T11:20:58.04Z</time></trkpt><trkpt lat="41.1944323" lon="1.615074"><ele>7.000000000000001</ele><time>2026-04-19T11:20:59.041Z</time></trkpt><trkpt lat="41.1944517" lon="1.6151861"><ele>7.0</ele><time>2026-04-19T11:21:00.041Z</time></trkpt><trkpt lat="41.1944761" lon="1.6153051"><ele>7.3999999999999995</ele><time>2026-04-19T11:21:01.04Z</time></trkpt><trkpt lat="41.1945032" lon="1.6154275"><ele>7.799999999999999</ele><time>2026-04-19T11:21:02.041Z</time></trkpt><trkpt lat="41.1945356" lon="1.6155497"><ele>8.2</ele><time>2026-04-19T11:21:03.041Z</time></trkpt><trkpt lat="41.1945689" lon="1.6156709"><ele>8.6</ele><time>2026-04-19T11:21:04.041Z</time></trkpt><trkpt lat="41.1946029" lon="1.6157883"><ele>9.0</ele><time>2026-04-19T11:21:05.041Z</time></trkpt><trkpt lat="41.1946382" lon="1.6159049"><ele>9.0</ele><time>2026-04-19T11:21:06.041Z</time></trkpt><trkpt lat="41.1946739" lon="1.6160218"><ele>9.0</ele><time>2026-04-19T11:21:07.041Z</time></trkpt><trkpt lat="41.1947119" lon="1.6161356"><ele>9.0</ele><time>2026-04-19T11:21:08.04Z</time></trkpt><trkpt lat="41.1947481" lon="1.6162483"><ele>9.0</ele><time>2026-04-19T11:21:09.041Z</time></trkpt><trkpt lat="41.1947854" lon="1.6163649"><ele>9.0</ele><time>2026-04-19T11:21:10.04Z</time></trkpt><trkpt lat="41.1948231" lon="1.6164837"><ele>9.2</ele><time>2026-04-19T11:21:11.041Z</time></trkpt><trkpt lat="41.1948611" lon="1.6166076"><ele>9.4</ele><time>2026-04-19T11:21:12.041Z</time></trkpt><trkpt lat="41.1949" lon="1.6167315"><ele>9.6</ele><time>2026-04-19T11:21:13.04Z</time></trkpt><trkpt lat="41.1949368" lon="1.6168507"><ele>9.8</ele><time>2026-04-19T11:21:14.04Z</time></trkpt><trkpt lat="41.1949748" lon="1.6169662"><ele>10.0</ele><time>2026-04-19T11:21:15.041Z</time></trkpt><trkpt lat="41.1950114" lon="1.6170799"><ele>9.5</ele><time>2026-04-19T11:21:16.04Z</time></trkpt><trkpt lat="41.1950469" lon="1.6171877"><ele>9.0</ele><time>2026-04-19T11:21:17.041Z</time></trkpt><trkpt lat="41.1950808" lon="1.6172921"><ele>8.5</ele><time>2026-04-19T11:21:18.04Z</time></trkpt><trkpt lat="41.1951142" lon="1.6173941"><ele>8.0</ele><time>2026-04-19T11:21:19.04Z</time></trkpt><trkpt lat="41.1951455" lon="1.6174894"><ele>7.500000000000001</ele><time>2026-04-19T11:21:20.04Z</time></trkpt><trkpt lat="41.1951737" lon="1.6175766"><ele>7.0</ele><time>2026-04-19T11:21:21.041Z</time></trkpt><trkpt lat="41.1952029" lon="1.6176595"><ele>7.000000000000001</ele><time>2026-04-19T11:21:22.041Z</time></trkpt><trkpt lat="41.1952311" lon="1.6177463"><ele>7.0</ele><time>2026-04-19T11:21:23.041Z</time></trkpt><trkpt lat="41.1952596" lon="1.6178359"><ele>7.0</ele><time>2026-04-19T11:21:24.04Z</time></trkpt><trkpt lat="41.1952854" lon="1.6179247"><ele>7.0</ele><time>2026-04-19T11:21:25.04Z</time></trkpt><trkpt lat="41.1953042" lon="1.6180173"><ele>7.000000000000001</ele><time>2026-04-19T11:21:26.041Z</time></trkpt><trkpt lat="41.1953036" lon="1.6181909"><ele>7.0</ele><time>2026-04-19T11:21:28.041Z</time></trkpt><trkpt lat="41.1952969" lon="1.6182779"><ele>7.3999999999999995</ele><time>2026-04-19T11:21:29.041Z</time></trkpt><trkpt lat="41.1953237" lon="1.618378"><ele>7.799999999999999</ele><time>2026-04-19T11:21:31.041Z</time></trkpt><trkpt lat="41.1954394" lon="1.6184711"><ele>8.2</ele><time>2026-04-19T11:21:33.041Z</time></trkpt><trkpt lat="41.1955072" lon="1.6185689"><ele>8.6</ele><time>2026-04-19T11:21:34.04Z</time></trkpt><trkpt lat="41.1955658" lon="1.6186946"><ele>9.0</ele><time>2026-04-19T11:21:35.041Z</time></trkpt><trkpt lat="41.1956167" lon="1.6188399"><ele>9.0</ele><time>2026-04-19T11:21:36.041Z</time></trkpt><trkpt lat="41.1956639" lon="1.6189717"><ele>9.0</ele><time>2026-04-19T11:21:37.04Z</time></trkpt><trkpt lat="41.1957117" lon="1.6191093"><ele>9.0</ele><time>2026-04-19T11:21:38.041Z</time></trkpt><trkpt lat="41.1957303" lon="1.6192275"><ele>9.0</ele><time>2026-04-19T11:21:39.04Z</time></trkpt><trkpt lat="41.1957768" lon="1.6193621"><ele>9.0</ele><time>2026-04-19T11:21:40.041Z</time></trkpt><trkpt lat="41.1958181" lon="1.6194965"><ele>8.5</ele><time>2026-04-19T11:21:41.041Z</time></trkpt><trkpt lat="41.1958623" lon="1.6196359"><ele>8.0</ele><time>2026-04-19T11:21:42.041Z</time></trkpt><trkpt lat="41.1959062" lon="1.6197774"><ele>7.5</ele><time>2026-04-19T11:21:43.04Z</time></trkpt><trkpt lat="41.1959513" lon="1.6199217"><ele>7.0</ele><time>2026-04-19T11:21:44.04Z</time></trkpt><trkpt lat="41.1959958" lon="1.6200655"><ele>7.0</ele><time>2026-04-19T11:21:45.041Z</time></trkpt><trkpt lat="41.1960414" lon="1.6202089"><ele>7.0</ele><time>2026-04-19T11:21:46.041Z</time></trkpt><trkpt lat="41.1960855" lon="1.6203458"><ele>7.0</ele><time>2026-04-19T11:21:47.041Z</time></trkpt><trkpt lat="41.1961306" lon="1.6204845"><ele>7.0</ele><time>2026-04-19T11:21:48.041Z</time></trkpt><trkpt lat="41.196178" lon="1.6206263"><ele>6.75</ele><time>2026-04-19T11:21:49.041Z</time></trkpt><trkpt lat="41.1962254" lon="1.6207716"><ele>6.5</ele><time>2026-04-19T11:21:50.04Z</time></trkpt><trkpt lat="41.1962716" lon="1.6209175"><ele>6.25</ele><time>2026-04-19T11:21:51.04Z</time></trkpt><trkpt lat="41.196316" lon="1.6210647"><ele>6.0</ele><time>2026-04-19T11:21:52.041Z</time></trkpt><trkpt lat="41.1963604" lon="1.6212044"><ele>6.0</ele><time>2026-04-19T11:21:53.04Z</time></trkpt><trkpt lat="41.196404" lon="1.6213314"><ele>6.0</ele><time>2026-04-19T11:21:54.041Z</time></trkpt><trkpt lat="41.1964408" lon="1.6214433"><ele>6.0</ele><time>2026-04-19T11:21:55.041Z</time></trkpt><trkpt lat="41.1964696" lon="1.6215344"><ele>6.0</ele><time>2026-04-19T11:21:56.04Z</time></trkpt><trkpt lat="41.1965135" lon="1.6216671"><ele>6.0</ele><time>2026-04-19T11:21:58.04Z</time></trkpt><trkpt lat="41.1965398" lon="1.6217545"><ele>6.166666666666667</ele><time>2026-04-19T11:22:00.041Z</time></trkpt><trkpt lat="41.1965621" lon="1.6218343"><ele>6.333333333333334</ele><time>2026-04-19T11:22:05.041Z</time></trkpt><trkpt lat="41.1965941" lon="1.6219221"><ele>6.5</ele><time>2026-04-19T11:22:07.041Z</time></trkpt><trkpt lat="41.1966366" lon="1.6220623"><ele>6.666666666666667</ele><time>2026-04-19T11:22:09.041Z</time></trkpt><trkpt lat="41.1966853" lon="1.6222161"><ele>6.833333333333334</ele><time>2026-04-19T11:22:11.041Z</time></trkpt><trkpt lat="41.1967116" lon="1.6223024"><ele>7.0</ele><time>2026-04-19T11:22:12.041Z</time></trkpt><trkpt lat="41.1967401" lon="1.622398"><ele>7.0</ele><time>2026-04-19T11:22:13.041Z</time></trkpt><trkpt lat="41.1967717" lon="1.6224999"><ele>6.999999999999999</ele><time>2026-04-19T11:22:14.041Z</time></trkpt><trkpt lat="41.1968047" lon="1.6226089"><ele>6.999999999999999</ele><time>2026-04-19T11:22:15.041Z</time></trkpt><trkpt lat="41.1968365" lon="1.6227238"><ele>7.0</ele><time>2026-04-19T11:22:16.041Z</time></trkpt><trkpt lat="41.1968698" lon="1.6228409"><ele>7.0</ele><time>2026-04-19T11:22:17.04Z</time></trkpt><trkpt lat="41.196901" lon="1.6229588"><ele>6.8</ele><time>2026-04-19T11:22:18.04Z</time></trkpt><trkpt lat="41.1969289" lon="1.6230773"><ele>6.6</ele><time>2026-04-19T11:22:19.041Z</time></trkpt><trkpt lat="41.1969517" lon="1.6231948"><ele>6.3999999999999995</ele><time>2026-04-19T11:22:20.041Z</time></trkpt><trkpt lat="41.1969706" lon="1.6233123"><ele>6.199999999999999</ele><time>2026-04-19T11:22:21.041Z</time></trkpt><trkpt lat="41.1969886" lon="1.6234302"><ele>6.0</ele><time>2026-04-19T11:22:22.041Z</time></trkpt><trkpt lat="41.1970054" lon="1.6235454"><ele>5.666666666666667</ele><time>2026-04-19T11:22:23.041Z</time></trkpt><trkpt lat="41.1970191" lon="1.6236531"><ele>5.333333333333333</ele><time>2026-04-19T11:22:24.04Z</time></trkpt><trkpt lat="41.1970313" lon="1.6237536"><ele>5.0</ele><time>2026-04-19T11:22:25.041Z</time></trkpt><trkpt lat="41.1970416" lon="1.6238484"><ele>4.666666666666666</ele><time>2026-04-19T11:22:26.041Z</time></trkpt><trkpt lat="41.1970511" lon="1.6239384"><ele>4.333333333333333</ele><time>2026-04-19T11:22:27.041Z</time></trkpt><trkpt lat="41.19706" lon="1.6240238"><ele>4.0</ele><time>2026-04-19T11:22:28.041Z</time></trkpt><trkpt lat="41.1970744" lon="1.6241749"><ele>4.0</ele><time>2026-04-19T11:22:30.041Z</time></trkpt><trkpt lat="41.1970819" lon="1.6242908"><ele>4.0</ele><time>2026-04-19T11:22:32.041Z</time></trkpt><trkpt lat="41.1970792" lon="1.6244011"><ele>4.0</ele><time>2026-04-19T11:22:34.041Z</time></trkpt><trkpt lat="41.1970497" lon="1.6245282"><ele>4.0</ele><time>2026-04-19T11:22:36.041Z</time></trkpt><trkpt lat="41.1970135" lon="1.6246596"><ele>4.0</ele><time>2026-04-19T11:22:38.041Z</time></trkpt><trkpt lat="41.1970271" lon="1.6247947"><ele>4.6</ele><time>2026-04-19T11:22:40.041Z</time></trkpt><trkpt lat="41.197089" lon="1.6249116"><ele>5.2</ele><time>2026-04-19T11:22:42.041Z</time></trkpt><trkpt lat="41.1971515" lon="1.6250581"><ele>5.799999999999999</ele><time>2026-04-19T11:22:44.04Z</time></trkpt><trkpt lat="41.1971708" lon="1.6251493"><ele>6.3999999999999995</ele><time>2026-04-19T11:22:45.041Z</time></trkpt><trkpt lat="41.1971848" lon="1.625254"><ele>7.0</ele><time>2026-04-19T11:22:46.041Z</time></trkpt><trkpt lat="41.1971971" lon="1.6253678"><ele>7.25</ele><time>2026-04-19T11:22:47.04Z</time></trkpt><trkpt lat="41.1972118" lon="1.6254938"><ele>7.5</ele><time>2026-04-19T11:22:48.04Z</time></trkpt><trkpt lat="41.1972273" lon="1.6256341"><ele>7.75</ele><time>2026-04-19T11:22:49.041Z</time></trkpt><trkpt lat="41.1972449" lon="1.6257975"><ele>8.0</ele><time>2026-04-19T11:22:50.041Z</time></trkpt><trkpt lat="41.1972635" lon="1.62597"><ele>8.0</ele><time>2026-04-19T11:22:51.041Z</time></trkpt><trkpt lat="41.1972815" lon="1.6261437"><ele>8.0</ele><time>2026-04-19T11:22:52.04Z</time></trkpt><trkpt lat="41.1972994" lon="1.6263166"><ele>8.0</ele><time>2026-04-19T11:22:53.04Z</time></trkpt><trkpt lat="41.1973179" lon="1.6264918"><ele>8.0</ele><time>2026-04-19T11:22:54.04Z</time></trkpt><trkpt lat="41.1973365" lon="1.6266691"><ele>8.5</ele><time>2026-04-19T11:22:55.041Z</time></trkpt><trkpt lat="41.1973558" lon="1.6268473"><ele>9.0</ele><time>2026-04-19T11:22:56.04Z</time></trkpt><trkpt lat="41.1973749" lon="1.6270269"><ele>9.5</ele><time>2026-04-19T11:22:57.041Z</time></trkpt><trkpt lat="41.1973952" lon="1.62722"><ele>10.0</ele><time>2026-04-19T11:22:58.041Z</time></trkpt><trkpt lat="41.1974156" lon="1.6274155"><ele>10.0</ele><time>2026-04-19T11:22:59.041Z</time></trkpt><trkpt lat="41.1974371" lon="1.6276203"><ele>10.0</ele><time>2026-04-19T11:23:00.041Z</time></trkpt><trkpt lat="41.1974604" lon="1.6278311"><ele>10.0</ele><time>2026-04-19T11:23:01.04Z</time></trkpt><trkpt lat="41.1974841" lon="1.6280376"><ele>10.0</ele><time>2026-04-19T11:23:02.041Z</time></trkpt><trkpt lat="41.1975068" lon="1.6282412"><ele>10.0</ele><time>2026-04-19T11:23:03.04Z</time></trkpt><trkpt lat="41.1975285" lon="1.6284442"><ele>10.0</ele><time>2026-04-19T11:23:04.04Z</time></trkpt><trkpt lat="41.1975499" lon="1.6286441"><ele>9.75</ele><time>2026-04-19T11:23:05.041Z</time></trkpt><trkpt lat="41.197571" lon="1.6288406"><ele>9.5</ele><time>2026-04-19T11:23:06.04Z</time></trkpt><trkpt lat="41.1975927" lon="1.6290316"><ele>9.25</ele><time>2026-04-19T11:23:07.041Z</time></trkpt><trkpt lat="41.1976173" lon="1.6292252"><ele>9.0</ele><time>2026-04-19T11:23:08.041Z</time></trkpt><trkpt lat="41.1976439" lon="1.6294119"><ele>9.0</ele><time>2026-04-19T11:23:09.041Z</time></trkpt><trkpt lat="41.197675" lon="1.6295946"><ele>9.0</ele><time>2026-04-19T11:23:10.041Z</time></trkpt><trkpt lat="41.1977079" lon="1.6297681"><ele>9.0</ele><time>2026-04-19T11:23:11.041Z</time></trkpt><trkpt lat="41.197743" lon="1.6299373"><ele>9.0</ele><time>2026-04-19T11:23:12.041Z</time></trkpt><trkpt lat="41.1977803" lon="1.6301096"><ele>9.0</ele><time>2026-04-19T11:23:13.04Z</time></trkpt><trkpt lat="41.19782" lon="1.6302821"><ele>9.0</ele><time>2026-04-19T11:23:14.041Z</time></trkpt><trkpt lat="41.1978568" lon="1.6304467"><ele>9.0</ele><time>2026-04-19T11:23:15.04Z</time></trkpt><trkpt lat="41.197894" lon="1.6306048"><ele>9.0</ele><time>2026-04-19T11:23:16.04Z</time></trkpt><trkpt lat="41.1979288" lon="1.6307503"><ele>9.4</ele><time>2026-04-19T11:23:17.041Z</time></trkpt><trkpt lat="41.1979609" lon="1.6308879"><ele>9.8</ele><time>2026-04-19T11:23:18.04Z</time></trkpt><trkpt lat="41.1979899" lon="1.6310202"><ele>10.200000000000001</ele><time>2026-04-19T11:23:19.04Z</time></trkpt><trkpt lat="41.1980194" lon="1.6311477"><ele>10.600000000000001</ele><time>2026-04-19T11:23:20.04Z</time></trkpt><trkpt lat="41.1980483" lon="1.6312667"><ele>11.0</ele><time>2026-04-19T11:23:21.04Z</time></trkpt><trkpt lat="41.1980737" lon="1.631376"><ele>11.0</ele><time>2026-04-19T11:23:22.04Z</time></trkpt><trkpt lat="41.1980933" lon="1.6314771"><ele>11.0</ele><time>2026-04-19T11:23:23.041Z</time></trkpt><trkpt lat="41.1980995" lon="1.6315755"><ele>11.0</ele><time>2026-04-19T11:23:24.04Z</time></trkpt><trkpt lat="41.1980941" lon="1.6316755"><ele>11.0</ele><time>2026-04-19T11:23:25.041Z</time></trkpt><trkpt lat="41.1980872" lon="1.6317764"><ele>11.0</ele><time>2026-04-19T11:23:26.041Z</time></trkpt><trkpt lat="41.198095" lon="1.6318707"><ele>11.0</ele><time>2026-04-19T11:23:27.04Z</time></trkpt><trkpt lat="41.1981248" lon="1.6319558"><ele>11.0</ele><time>2026-04-19T11:23:28.041Z</time></trkpt><trkpt lat="41.1981726" lon="1.6320361"><ele>11.4</ele><time>2026-04-19T11:23:29.04Z</time></trkpt><trkpt lat="41.1982247" lon="1.6321241"><ele>11.8</ele><time>2026-04-19T11:23:30.04Z</time></trkpt><trkpt lat="41.1982721" lon="1.6322224"><ele>12.200000000000001</ele><time>2026-04-19T11:23:31.041Z</time></trkpt><trkpt lat="41.1983072" lon="1.6323338"><ele>12.600000000000001</ele><time>2026-04-19T11:23:32.041Z</time></trkpt><trkpt lat="41.1983368" lon="1.6324515"><ele>13.0</ele><time>2026-04-19T11:23:33.041Z</time></trkpt><trkpt lat="41.1983647" lon="1.6325745"><ele>13.0</ele><time>2026-04-19T11:23:34.041Z</time></trkpt><trkpt lat="41.1983926" lon="1.6327005"><ele>13.0</ele><time>2026-04-19T11:23:35.041Z</time></trkpt><trkpt lat="41.1984194" lon="1.63283"><ele>13.0</ele><time>2026-04-19T11:23:36.04Z</time></trkpt><trkpt lat="41.198445" lon="1.632961"><ele>13.0</ele><time>2026-04-19T11:23:37.041Z</time></trkpt><trkpt lat="41.1984709" lon="1.6330966"><ele>13.0</ele><time>2026-04-19T11:23:38.04Z</time></trkpt><trkpt lat="41.1984964" lon="1.633239"><ele>12.8</ele><time>2026-04-19T11:23:39.041Z</time></trkpt><trkpt lat="41.1985228" lon="1.6333842"><ele>12.600000000000001</ele><time>2026-04-19T11:23:40.041Z</time></trkpt><trkpt lat="41.1985468" lon="1.6335237"><ele>12.399999999999999</ele><time>2026-04-19T11:23:41.041Z</time></trkpt><trkpt lat="41.1985684" lon="1.633655"><ele>12.2</ele><time>2026-04-19T11:23:42.04Z</time></trkpt><trkpt lat="41.1985865" lon="1.6337745"><ele>12.0</ele><time>2026-04-19T11:23:43.04Z</time></trkpt><trkpt lat="41.1986019" lon="1.6338832"><ele>12.399999999999999</ele><time>2026-04-19T11:23:44.041Z</time></trkpt><trkpt lat="41.1986153" lon="1.6339818"><ele>12.799999999999999</ele><time>2026-04-19T11:23:45.04Z</time></trkpt><trkpt lat="41.1986263" lon="1.6340709"><ele>13.2</ele><time>2026-04-19T11:23:46.041Z</time></trkpt><trkpt lat="41.1986432" lon="1.6342255"><ele>13.6</ele><time>2026-04-19T11:23:48.041Z</time></trkpt><trkpt lat="41.1986569" lon="1.6343591"><ele>14.0</ele><time>2026-04-19T11:23:50.041Z</time></trkpt><trkpt lat="41.1986712" lon="1.6344864"><ele>14.500000000000002</ele><time>2026-04-19T11:23:52.041Z</time></trkpt><trkpt lat="41.1986846" lon="1.6346356"><ele>15.0</ele><time>2026-04-19T11:23:54.041Z</time></trkpt><trkpt lat="41.198691" lon="1.6347217"><ele>15.5</ele><time>2026-04-19T11:23:55.041Z</time></trkpt><trkpt lat="41.1986975" lon="1.6348115"><ele>16.0</ele><time>2026-04-19T11:23:56.041Z</time></trkpt><trkpt lat="41.1987038" lon="1.6349008"><ele>16.5</ele><time>2026-04-19T11:23:57.041Z</time></trkpt><trkpt lat="41.1987087" lon="1.6349859"><ele>17.0</ele><time>2026-04-19T11:23:58.041Z</time></trkpt><trkpt lat="41.1987163" lon="1.6351492"><ele>17.0</ele><time>2026-04-19T11:24:00.041Z</time></trkpt><trkpt lat="41.1987199" lon="1.6352351"><ele>17.0</ele><time>2026-04-19T11:24:01.041Z</time></trkpt><trkpt lat="41.1987243" lon="1.635325"><ele>17.0</ele><time>2026-04-19T11:24:02.04Z</time></trkpt><trkpt lat="41.1987285" lon="1.6354155"><ele>17.0</ele><time>2026-04-19T11:24:03.041Z</time></trkpt><trkpt lat="41.1987313" lon="1.6355004"><ele>17.0</ele><time>2026-04-19T11:24:04.041Z</time></trkpt><trkpt lat="41.1987406" lon="1.6356627"><ele>17.0</ele><time>2026-04-19T11:24:06.041Z</time></trkpt><trkpt lat="41.1987471" lon="1.6358289"><ele>16.6</ele><time>2026-04-19T11:24:08.041Z</time></trkpt><trkpt lat="41.1987557" lon="1.6359904"><ele>16.2</ele><time>2026-04-19T11:24:10.041Z</time></trkpt><trkpt lat="41.1987613" lon="1.6361608"><ele>15.8</ele><time>2026-04-19T11:24:12.041Z</time></trkpt><trkpt lat="41.1987656" lon="1.6362469"><ele>15.4</ele><time>2026-04-19T11:24:13.041Z</time></trkpt><trkpt lat="41.1987707" lon="1.6363331"><ele>15.0</ele><time>2026-04-19T11:24:14.04Z</time></trkpt><trkpt lat="41.198776" lon="1.6364285"><ele>14.8</ele><time>2026-04-19T11:24:15.04Z</time></trkpt><trkpt lat="41.1987807" lon="1.6365413"><ele>14.6</ele><time>2026-04-19T11:24:16.041Z</time></trkpt><trkpt lat="41.1987848" lon="1.6366628"><ele>14.399999999999999</ele><time>2026-04-19T11:24:17.041Z</time></trkpt><trkpt lat="41.1987893" lon="1.6367918"><ele>14.2</ele><time>2026-04-19T11:24:18.041Z</time></trkpt><trkpt lat="41.1987952" lon="1.6369256"><ele>14.0</ele><time>2026-04-19T11:24:19.041Z</time></trkpt><trkpt lat="41.1988021" lon="1.6370602"><ele>14.000000000000002</ele><time>2026-04-19T11:24:20.041Z</time></trkpt><trkpt lat="41.1988087" lon="1.637186"><ele>14.0</ele><time>2026-04-19T11:24:21.041Z</time></trkpt><trkpt lat="41.1988139" lon="1.6373023"><ele>14.0</ele><time>2026-04-19T11:24:22.04Z</time></trkpt><trkpt lat="41.1988193" lon="1.637408"><ele>14.0</ele><time>2026-04-19T11:24:23.04Z</time></trkpt><trkpt lat="41.1988247" lon="1.6375046"><ele>14.000000000000002</ele><time>2026-04-19T11:24:24.041Z</time></trkpt><trkpt lat="41.1988287" lon="1.6375962"><ele>14.0</ele><time>2026-04-19T11:24:25.04Z</time></trkpt><trkpt lat="41.198832" lon="1.6376873"><ele>14.000000000000002</ele><time>2026-04-19T11:24:26.04Z</time></trkpt><trkpt lat="41.1988355" lon="1.6377834"><ele>14.0</ele><time>2026-04-19T11:24:27.04Z</time></trkpt><trkpt lat="41.1988399" lon="1.6378833"><ele>14.0</ele><time>2026-04-19T11:24:28.04Z</time></trkpt><trkpt lat="41.1988443" lon="1.6379861"><ele>14.0</ele><time>2026-04-19T11:24:29.041Z</time></trkpt><trkpt lat="41.1988482" lon="1.6380915"><ele>14.000000000000002</ele><time>2026-04-19T11:24:30.041Z</time></trkpt><trkpt lat="41.1988527" lon="1.6381994"><ele>14.0</ele><time>2026-04-19T11:24:31.04Z</time></trkpt><trkpt lat="41.1988571" lon="1.638305"><ele>14.0</ele><time>2026-04-19T11:24:32.041Z</time></trkpt><trkpt lat="41.1988614" lon="1.6384044"><ele>14.0</ele><time>2026-04-19T11:24:33.04Z</time></trkpt><trkpt lat="41.1988652" lon="1.6384998"><ele>14.0</ele><time>2026-04-19T11:24:34.04Z</time></trkpt><trkpt lat="41.198869" lon="1.6385933"><ele>14.0</ele><time>2026-04-19T11:24:35.04Z</time></trkpt><trkpt lat="41.198873" lon="1.6386912"><ele>14.0</ele><time>2026-04-19T11:24:36.041Z</time></trkpt><trkpt lat="41.1988775" lon="1.6387902"><ele>14.0</ele><time>2026-04-19T11:24:37.041Z</time></trkpt><trkpt lat="41.1988824" lon="1.6388873"><ele>14.0</ele><time>2026-04-19T11:24:38.041Z</time></trkpt><trkpt lat="41.1988875" lon="1.6389835"><ele>13.714285714285714</ele><time>2026-04-19T11:24:39.041Z</time></trkpt><trkpt lat="41.1988926" lon="1.6390795"><ele>13.428571428571429</ele><time>2026-04-19T11:24:40.041Z</time></trkpt><trkpt lat="41.1988949" lon="1.6391731"><ele>13.142857142857142</ele><time>2026-04-19T11:24:41.041Z</time></trkpt><trkpt lat="41.1988934" lon="1.6392633"><ele>12.857142857142858</ele><time>2026-04-19T11:24:42.041Z</time></trkpt><trkpt lat="41.1988853" lon="1.6393531"><ele>12.571428571428571</ele><time>2026-04-19T11:24:43.041Z</time></trkpt><trkpt lat="41.198867" lon="1.6394437"><ele>12.285714285714285</ele><time>2026-04-19T11:24:44.041Z</time></trkpt><trkpt lat="41.1988408" lon="1.6395354"><ele>12.0</ele><time>2026-04-19T11:24:45.041Z</time></trkpt><trkpt lat="41.1988174" lon="1.6396313"><ele>12.0</ele><time>2026-04-19T11:24:46.04Z</time></trkpt><trkpt lat="41.1988085" lon="1.6397271"><ele>12.0</ele><time>2026-04-19T11:24:47.04Z</time></trkpt><trkpt lat="41.1988244" lon="1.6398129"><ele>12.0</ele><time>2026-04-19T11:24:48.041Z</time></trkpt><trkpt lat="41.1988669" lon="1.6398897"><ele>12.0</ele><time>2026-04-19T11:24:49.041Z</time></trkpt><trkpt lat="41.1989228" lon="1.6399701"><ele>12.0</ele><time>2026-04-19T11:24:50.04Z</time></trkpt><trkpt lat="41.1989751" lon="1.6400673"><ele>12.0</ele><time>2026-04-19T11:24:51.041Z</time></trkpt><trkpt lat="41.1990172" lon="1.6401837"><ele>11.8</ele><time>2026-04-19T11:24:52.041Z</time></trkpt><trkpt lat="41.1990561" lon="1.6403053"><ele>11.6</ele><time>2026-04-19T11:24:53.041Z</time></trkpt><trkpt lat="41.1990927" lon="1.6404256"><ele>11.4</ele><time>2026-04-19T11:24:54.04Z</time></trkpt><trkpt lat="41.1991292" lon="1.6405445"><ele>11.200000000000001</ele><time>2026-04-19T11:24:55.041Z</time></trkpt><trkpt lat="41.1991661" lon="1.640661"><ele>11.0</ele><time>2026-04-19T11:24:56.041Z</time></trkpt><trkpt lat="41.1992025" lon="1.6407737"><ele>11.0</ele><time>2026-04-19T11:24:57.041Z</time></trkpt><trkpt lat="41.1992382" lon="1.6408863"><ele>11.0</ele><time>2026-04-19T11:24:58.04Z</time></trkpt><trkpt lat="41.1992748" lon="1.6410005"><ele>11.0</ele><time>2026-04-19T11:24:59.041Z</time></trkpt><trkpt lat="41.1993128" lon="1.6411165"><ele>11.0</ele><time>2026-04-19T11:25:00.041Z</time></trkpt><trkpt lat="41.1993511" lon="1.6412355"><ele>11.0</ele><time>2026-04-19T11:25:01.041Z</time></trkpt><trkpt lat="41.1993917" lon="1.6413561"><ele>10.8</ele><time>2026-04-19T11:25:02.041Z</time></trkpt><trkpt lat="41.1994329" lon="1.6414767"><ele>10.600000000000001</ele><time>2026-04-19T11:25:03.041Z</time></trkpt><trkpt lat="41.1994751" lon="1.6415956"><ele>10.4</ele><time>2026-04-19T11:25:04.04Z</time></trkpt><trkpt lat="41.1995152" lon="1.641709"><ele>10.2</ele><time>2026-04-19T11:25:05.041Z</time></trkpt><trkpt lat="41.1995532" lon="1.6418191"><ele>10.0</ele><time>2026-04-19T11:25:06.04Z</time></trkpt><trkpt lat="41.1995903" lon="1.641927"><ele>10.0</ele><time>2026-04-19T11:25:07.04Z</time></trkpt><trkpt lat="41.1996269" lon="1.642037"><ele>10.0</ele><time>2026-04-19T11:25:08.04Z</time></trkpt><trkpt lat="41.1996635" lon="1.6421507"><ele>10.0</ele><time>2026-04-19T11:25:09.041Z</time></trkpt><trkpt lat="41.1997022" lon="1.6422678"><ele>10.0</ele><time>2026-04-19T11:25:10.041Z</time></trkpt><trkpt lat="41.1997412" lon="1.6423873"><ele>10.0</ele><time>2026-04-19T11:25:11.04Z</time></trkpt><trkpt lat="41.1997806" lon="1.6425094"><ele>10.0</ele><time>2026-04-19T11:25:12.04Z</time></trkpt><trkpt lat="41.1998212" lon="1.6426315"><ele>10.0</ele><time>2026-04-19T11:25:13.041Z</time></trkpt><trkpt lat="41.1998606" lon="1.6427542"><ele>10.0</ele><time>2026-04-19T11:25:14.04Z</time></trkpt><trkpt lat="41.1998997" lon="1.6428756"><ele>10.0</ele><time>2026-04-19T11:25:15.04Z</time></trkpt><trkpt lat="41.1999397" lon="1.642998"><ele>10.0</ele><time>2026-04-19T11:25:16.041Z</time></trkpt><trkpt lat="41.1999822" lon="1.643129"><ele>10.0</ele><time>2026-04-19T11:25:17.041Z</time></trkpt><trkpt lat="41.2000264" lon="1.6432631"><ele>10.0</ele><time>2026-04-19T11:25:18.041Z</time></trkpt><trkpt lat="41.2000705" lon="1.6433969"><ele>10.0</ele><time>2026-04-19T11:25:19.04Z</time></trkpt><trkpt lat="41.2001146" lon="1.6435316"><ele>10.0</ele><time>2026-04-19T11:25:20.04Z</time></trkpt><trkpt lat="41.2001579" lon="1.64367"><ele>10.0</ele><time>2026-04-19T11:25:21.041Z</time></trkpt><trkpt lat="41.2002025" lon="1.64381"><ele>10.5</ele><time>2026-04-19T11:25:22.04Z</time></trkpt><trkpt lat="41.2002485" lon="1.6439499"><ele>11.0</ele><time>2026-04-19T11:25:23.041Z</time></trkpt><trkpt lat="41.2002939" lon="1.6440898"><ele>11.5</ele><time>2026-04-19T11:25:24.041Z</time></trkpt><trkpt lat="41.2003408" lon="1.6442299"><ele>12.0</ele><time>2026-04-19T11:25:25.041Z</time></trkpt><trkpt lat="41.2003877" lon="1.6443716"><ele>11.5</ele><time>2026-04-19T11:25:26.04Z</time></trkpt><trkpt lat="41.2004341" lon="1.6445129"><ele>11.0</ele><time>2026-04-19T11:25:27.041Z</time></trkpt><trkpt lat="41.2004798" lon="1.6446544"><ele>10.5</ele><time>2026-04-19T11:25:28.04Z</time></trkpt><trkpt lat="41.2005238" lon="1.6447964"><ele>10.0</ele><time>2026-04-19T11:25:29.041Z</time></trkpt><trkpt lat="41.2005691" lon="1.6449411"><ele>10.0</ele><time>2026-04-19T11:25:30.041Z</time></trkpt><trkpt lat="41.2006158" lon="1.6450908"><ele>10.0</ele><time>2026-04-19T11:25:31.04Z</time></trkpt><trkpt lat="41.2006665" lon="1.6452485"><ele>10.0</ele><time>2026-04-19T11:25:32.04Z</time></trkpt><trkpt lat="41.2007183" lon="1.6454103"><ele>10.0</ele><time>2026-04-19T11:25:33.04Z</time></trkpt><trkpt lat="41.2007727" lon="1.6455767"><ele>10.0</ele><time>2026-04-19T11:25:34.04Z</time></trkpt><trkpt lat="41.2008288" lon="1.645745"><ele>10.0</ele><time>2026-04-19T11:25:35.04Z</time></trkpt><trkpt lat="41.2008848" lon="1.6459138"><ele>10.0</ele><time>2026-04-19T11:25:36.041Z</time></trkpt><trkpt lat="41.2009399" lon="1.6460814"><ele>10.0</ele><time>2026-04-19T11:25:37.04Z</time></trkpt><trkpt lat="41.2009943" lon="1.6462469"><ele>9.75</ele><time>2026-04-19T11:25:38.04Z</time></trkpt><trkpt lat="41.2010486" lon="1.6464107"><ele>9.5</ele><time>2026-04-19T11:25:39.041Z</time></trkpt><trkpt lat="41.2011021" lon="1.6465749"><ele>9.25</ele><time>2026-04-19T11:25:40.04Z</time></trkpt><trkpt lat="41.2011558" lon="1.6467413"><ele>9.0</ele><time>2026-04-19T11:25:41.04Z</time></trkpt><trkpt lat="41.2012109" lon="1.6469096"><ele>8.5</ele><time>2026-04-19T11:25:42.04Z</time></trkpt><trkpt lat="41.2012669" lon="1.6470776"><ele>8.0</ele><time>2026-04-19T11:25:43.041Z</time></trkpt><trkpt lat="41.2013233" lon="1.6472453"><ele>7.5</ele><time>2026-04-19T11:25:44.04Z</time></trkpt><trkpt lat="41.2013794" lon="1.6474162"><ele>7.0</ele><time>2026-04-19T11:25:45.04Z</time></trkpt><trkpt lat="41.2014351" lon="1.6475898"><ele>7.0</ele><time>2026-04-19T11:25:46.041Z</time></trkpt><trkpt lat="41.2014925" lon="1.6477663"><ele>7.0</ele><time>2026-04-19T11:25:47.041Z</time></trkpt><trkpt lat="41.2015514" lon="1.6479508"><ele>7.0</ele><time>2026-04-19T11:25:48.041Z</time></trkpt><trkpt lat="41.2016074" lon="1.6481355"><ele>7.0</ele><time>2026-04-19T11:25:49.041Z</time></trkpt><trkpt lat="41.2016589" lon="1.6483247"><ele>6.75</ele><time>2026-04-19T11:25:50.041Z</time></trkpt><trkpt lat="41.201704" lon="1.6485151"><ele>6.5</ele><time>2026-04-19T11:25:51.041Z</time></trkpt><trkpt lat="41.2017472" lon="1.6487038"><ele>6.25</ele><time>2026-04-19T11:25:52.041Z</time></trkpt><trkpt lat="41.2017896" lon="1.6488933"><ele>6.0</ele><time>2026-04-19T11:25:53.04Z</time></trkpt><trkpt lat="41.2018323" lon="1.649082"><ele>6.0</ele><time>2026-04-19T11:25:54.041Z</time></trkpt><trkpt lat="41.2018744" lon="1.6492717"><ele>6.0</ele><time>2026-04-19T11:25:55.041Z</time></trkpt><trkpt lat="41.2019164" lon="1.6494647"><ele>6.0</ele><time>2026-04-19T11:25:56.041Z</time></trkpt><trkpt lat="41.2019594" lon="1.6496573"><ele>5.666666666666667</ele><time>2026-04-19T11:25:57.041Z</time></trkpt><trkpt lat="41.202003" lon="1.6498511"><ele>5.333333333333334</ele><time>2026-04-19T11:25:58.04Z</time></trkpt><trkpt lat="41.2020455" lon="1.6500442"><ele>5.0</ele><time>2026-04-19T11:25:59.041Z</time></trkpt><trkpt lat="41.2020882" lon="1.6502339"><ele>5.25</ele><time>2026-04-19T11:26:00.04Z</time></trkpt><trkpt lat="41.2021286" lon="1.6504231"><ele>5.5</ele><time>2026-04-19T11:26:01.04Z</time></trkpt><trkpt lat="41.2021707" lon="1.6506129"><ele>5.75</ele><time>2026-04-19T11:26:02.04Z</time></trkpt><trkpt lat="41.2022129" lon="1.6508034"><ele>6.0</ele><time>2026-04-19T11:26:03.041Z</time></trkpt><trkpt lat="41.2022548" lon="1.650994"><ele>5.666666666666667</ele><time>2026-04-19T11:26:04.041Z</time></trkpt><trkpt lat="41.2022986" lon="1.6511887"><ele>5.333333333333334</ele><time>2026-04-19T11:26:05.041Z</time></trkpt><trkpt lat="41.2023429" lon="1.6513836"><ele>5.0</ele><time>2026-04-19T11:26:06.041Z</time></trkpt><trkpt lat="41.2023872" lon="1.651581"><ele>5.0</ele><time>2026-04-19T11:26:07.04Z</time></trkpt><trkpt lat="41.2024317" lon="1.6517792"><ele>5.0</ele><time>2026-04-19T11:26:08.041Z</time></trkpt><trkpt lat="41.2024759" lon="1.6519751"><ele>5.0</ele><time>2026-04-19T11:26:09.041Z</time></trkpt><trkpt lat="41.2025201" lon="1.6521707"><ele>5.333333333333334</ele><time>2026-04-19T11:26:10.04Z</time></trkpt><trkpt lat="41.2025643" lon="1.652365"><ele>5.666666666666667</ele><time>2026-04-19T11:26:11.041Z</time></trkpt><trkpt lat="41.2026078" lon="1.6525597"><ele>6.0</ele><time>2026-04-19T11:26:12.041Z</time></trkpt><trkpt lat="41.2026505" lon="1.6527537"><ele>6.0</ele><time>2026-04-19T11:26:13.041Z</time></trkpt><trkpt lat="41.2026913" lon="1.6529433"><ele>6.0</ele><time>2026-04-19T11:26:14.041Z</time></trkpt><trkpt lat="41.2027321" lon="1.6531285"><ele>6.0</ele><time>2026-04-19T11:26:15.041Z</time></trkpt><trkpt lat="41.2027741" lon="1.6533173"><ele>6.0</ele><time>2026-04-19T11:26:16.041Z</time></trkpt><trkpt lat="41.2028168" lon="1.653504"><ele>6.25</ele><time>2026-04-19T11:26:17.041Z</time></trkpt><trkpt lat="41.2028585" lon="1.653686"><ele>6.5</ele><time>2026-04-19T11:26:18.041Z</time></trkpt><trkpt lat="41.2028987" lon="1.6538646"><ele>6.75</ele><time>2026-04-19T11:26:19.041Z</time></trkpt><trkpt lat="41.2029391" lon="1.6540429"><ele>7.0</ele><time>2026-04-19T11:26:20.041Z</time></trkpt><trkpt lat="41.2029801" lon="1.6542245"><ele>7.0</ele><time>2026-04-19T11:26:21.041Z</time></trkpt><trkpt lat="41.2030223" lon="1.6544055"><ele>7.0</ele><time>2026-04-19T11:26:22.041Z</time></trkpt><trkpt lat="41.2030632" lon="1.6545837"><ele>7.0</ele><time>2026-04-19T11:26:23.041Z</time></trkpt><trkpt lat="41.203103" lon="1.6547602"><ele>7.0</ele><time>2026-04-19T11:26:24.041Z</time></trkpt><trkpt lat="41.2031438" lon="1.6549397"><ele>7.25</ele><time>2026-04-19T11:26:25.041Z</time></trkpt><trkpt lat="41.2031851" lon="1.6551219"><ele>7.5</ele><time>2026-04-19T11:26:26.04Z</time></trkpt><trkpt lat="41.2032252" lon="1.655298"><ele>7.75</ele><time>2026-04-19T11:26:27.04Z</time></trkpt><trkpt lat="41.2032639" lon="1.6554652"><ele>8.0</ele><time>2026-04-19T11:26:28.041Z</time></trkpt><trkpt lat="41.2032992" lon="1.6556216"><ele>8.0</ele><time>2026-04-19T11:26:29.041Z</time></trkpt><trkpt lat="41.2033318" lon="1.6557717"><ele>8.0</ele><time>2026-04-19T11:26:30.04Z</time></trkpt><trkpt lat="41.2033633" lon="1.6559101"><ele>8.0</ele><time>2026-04-19T11:26:31.041Z</time></trkpt><trkpt lat="41.2033938" lon="1.6560398"><ele>8.0</ele><time>2026-04-19T11:26:32.041Z</time></trkpt><trkpt lat="41.203422" lon="1.656166"><ele>8.0</ele><time>2026-04-19T11:26:33.041Z</time></trkpt><trkpt lat="41.2034424" lon="1.6562853"><ele>8.5</ele><time>2026-04-19T11:26:34.041Z</time></trkpt><trkpt lat="41.2034448" lon="1.6563992"><ele>9.0</ele><time>2026-04-19T11:26:35.041Z</time></trkpt><trkpt lat="41.2034262" lon="1.6565089"><ele>9.5</ele><time>2026-04-19T11:26:36.041Z</time></trkpt><trkpt lat="41.2034036" lon="1.6566215"><ele>10.0</ele><time>2026-04-19T11:26:37.04Z</time></trkpt><trkpt lat="41.2033987" lon="1.6567351"><ele>10.5</ele><time>2026-04-19T11:26:38.041Z</time></trkpt><trkpt lat="41.203422" lon="1.6568424"><ele>11.0</ele><time>2026-04-19T11:26:39.04Z</time></trkpt><trkpt lat="41.2034703" lon="1.6569366"><ele>11.4</ele><time>2026-04-19T11:26:40.041Z</time></trkpt><trkpt lat="41.2035311" lon="1.6570244"><ele>11.8</ele><time>2026-04-19T11:26:41.04Z</time></trkpt><trkpt lat="41.2035893" lon="1.6571164"><ele>12.200000000000001</ele><time>2026-04-19T11:26:42.041Z</time></trkpt><trkpt lat="41.2036357" lon="1.6572229"><ele>12.600000000000001</ele><time>2026-04-19T11:26:43.04Z</time></trkpt><trkpt lat="41.2036746" lon="1.6573404"><ele>13.0</ele><time>2026-04-19T11:26:44.04Z</time></trkpt><trkpt lat="41.2037083" lon="1.6574658"><ele>13.0</ele><time>2026-04-19T11:26:45.041Z</time></trkpt><trkpt lat="41.2037387" lon="1.6575996"><ele>13.0</ele><time>2026-04-19T11:26:46.041Z</time></trkpt><trkpt lat="41.2037675" lon="1.6577423"><ele>13.0</ele><time>2026-04-19T11:26:47.041Z</time></trkpt><trkpt lat="41.2037969" lon="1.657892"><ele>13.0</ele><time>2026-04-19T11:26:48.041Z</time></trkpt><trkpt lat="41.2038291" lon="1.6580477"><ele>11.75</ele><time>2026-04-19T11:26:49.041Z</time></trkpt><trkpt lat="41.2038645" lon="1.6582073"><ele>10.5</ele><time>2026-04-19T11:26:50.04Z</time></trkpt><trkpt lat="41.2039032" lon="1.658376"><ele>9.25</ele><time>2026-04-19T11:26:51.041Z</time></trkpt><trkpt lat="41.2039439" lon="1.6585496"><ele>8.0</ele><time>2026-04-19T11:26:52.04Z</time></trkpt><trkpt lat="41.2039841" lon="1.6587267"><ele>8.0</ele><time>2026-04-19T11:26:53.04Z</time></trkpt><trkpt lat="41.2040243" lon="1.6589058"><ele>8.0</ele><time>2026-04-19T11:26:54.04Z</time></trkpt><trkpt lat="41.2040656" lon="1.6590857"><ele>8.0</ele><time>2026-04-19T11:26:55.041Z</time></trkpt><trkpt lat="41.2041095" lon="1.6592713"><ele>8.0</ele><time>2026-04-19T11:26:56.04Z</time></trkpt><trkpt lat="41.204149" lon="1.6594442"><ele>8.0</ele><time>2026-04-19T11:26:57.041Z</time></trkpt><trkpt lat="41.2041827" lon="1.6595956"><ele>8.0</ele><time>2026-04-19T11:26:58.041Z</time></trkpt><trkpt lat="41.2042143" lon="1.6597368"><ele>8.0</ele><time>2026-04-19T11:26:59.041Z</time></trkpt><trkpt lat="41.2042479" lon="1.6598801"><ele>8.0</ele><time>2026-04-19T11:27:00.04Z</time></trkpt><trkpt lat="41.2042842" lon="1.660034"><ele>8.0</ele><time>2026-04-19T11:27:01.041Z</time></trkpt><trkpt lat="41.2043246" lon="1.660202"><ele>8.0</ele><time>2026-04-19T11:27:02.041Z</time></trkpt><trkpt lat="41.2043647" lon="1.6603795"><ele>8.0</ele><time>2026-04-19T11:27:03.041Z</time></trkpt><trkpt lat="41.2044065" lon="1.6605659"><ele>8.0</ele><time>2026-04-19T11:27:04.041Z</time></trkpt><trkpt lat="41.2044499" lon="1.6607539"><ele>7.75</ele><time>2026-04-19T11:27:05.04Z</time></trkpt><trkpt lat="41.2044934" lon="1.6609418"><ele>7.5</ele><time>2026-04-19T11:27:06.04Z</time></trkpt><trkpt lat="41.2045376" lon="1.6611276"><ele>7.25</ele><time>2026-04-19T11:27:07.041Z</time></trkpt><trkpt lat="41.2045817" lon="1.6613112"><ele>7.0</ele><time>2026-04-19T11:27:08.04Z</time></trkpt><trkpt lat="41.2046242" lon="1.6614954"><ele>6.5</ele><time>2026-04-19T11:27:09.04Z</time></trkpt><trkpt lat="41.2046637" lon="1.6616769"><ele>6.0</ele><time>2026-04-19T11:27:10.041Z</time></trkpt><trkpt lat="41.2047029" lon="1.6618594"><ele>5.5</ele><time>2026-04-19T11:27:11.04Z</time></trkpt><trkpt lat="41.2047429" lon="1.6620388"><ele>5.0</ele><time>2026-04-19T11:27:12.041Z</time></trkpt><trkpt lat="41.2047846" lon="1.6622186"><ele>5.0</ele><time>2026-04-19T11:27:13.041Z</time></trkpt><trkpt lat="41.2048255" lon="1.6623983"><ele>5.0</ele><time>2026-04-19T11:27:14.041Z</time></trkpt><trkpt lat="41.2048651" lon="1.6625767"><ele>5.0</ele><time>2026-04-19T11:27:15.041Z</time></trkpt><trkpt lat="41.2049042" lon="1.6627541"><ele>5.0</ele><time>2026-04-19T11:27:16.041Z</time></trkpt><trkpt lat="41.2049427" lon="1.6629292"><ele>5.75</ele><time>2026-04-19T11:27:17.041Z</time></trkpt><trkpt lat="41.2049821" lon="1.6631039"><ele>6.5</ele><time>2026-04-19T11:27:18.041Z</time></trkpt><trkpt lat="41.2050201" lon="1.6632763"><ele>7.25</ele><time>2026-04-19T11:27:19.041Z</time></trkpt><trkpt lat="41.2050559" lon="1.6634428"><ele>8.0</ele><time>2026-04-19T11:27:20.041Z</time></trkpt><trkpt lat="41.2050914" lon="1.6636036"><ele>8.200000000000001</ele><time>2026-04-19T11:27:21.041Z</time></trkpt><trkpt lat="41.2051245" lon="1.6637526"><ele>8.4</ele><time>2026-04-19T11:27:22.041Z</time></trkpt><trkpt lat="41.2051538" lon="1.6638895"><ele>8.600000000000001</ele><time>2026-04-19T11:27:23.041Z</time></trkpt><trkpt lat="41.2051801" lon="1.6640146"><ele>8.8</ele><time>2026-04-19T11:27:24.04Z</time></trkpt><trkpt lat="41.2052038" lon="1.6641297"><ele>9.0</ele><time>2026-04-19T11:27:25.041Z</time></trkpt><trkpt lat="41.2052253" lon="1.6642359"><ele>9.0</ele><time>2026-04-19T11:27:26.04Z</time></trkpt><trkpt lat="41.2052408" lon="1.6643268"><ele>9.0</ele><time>2026-04-19T11:27:27.041Z</time></trkpt><trkpt lat="41.2052492" lon="1.6644985"><ele>9.0</ele><time>2026-04-19T11:27:29.041Z</time></trkpt><trkpt lat="41.2052517" lon="1.664639"><ele>9.0</ele><time>2026-04-19T11:27:31.041Z</time></trkpt><trkpt lat="41.2053083" lon="1.6646882"><ele>9.0</ele><time>2026-04-19T11:29:12.041Z</time></trkpt><trkpt lat="41.205354" lon="1.6647512"><ele>9.0</ele><time>2026-04-19T11:29:14.041Z</time></trkpt><trkpt lat="41.2053962" lon="1.6648907"><ele>9.0</ele><time>2026-04-19T11:29:16.04Z</time></trkpt><trkpt lat="41.2054434" lon="1.6650975"><ele>9.0</ele><time>2026-04-19T11:29:18.04Z</time></trkpt><trkpt lat="41.2054981" lon="1.6653335"><ele>9.0</ele><time>2026-04-19T11:29:20.041Z</time></trkpt><trkpt lat="41.2055293" lon="1.6654715"><ele>9.0</ele><time>2026-04-19T11:29:21.041Z</time></trkpt><trkpt lat="41.2056021" lon="1.665777"><ele>9.0</ele><time>2026-04-19T11:29:23.041Z</time></trkpt><trkpt lat="41.205721" lon="1.6662424"><ele>8.0</ele><time>2026-04-19T11:29:26.04Z</time></trkpt><trkpt lat="41.2059354" lon="1.6671014"><ele>8.0</ele><time>2026-04-19T11:29:31.041Z</time></trkpt><trkpt lat="41.2059819" lon="1.667285"><ele>8.0</ele><time>2026-04-19T11:29:32.04Z</time></trkpt><trkpt lat="41.2060297" lon="1.6674726"><ele>8.0</ele><time>2026-04-19T11:29:33.04Z</time></trkpt><trkpt lat="41.2060775" lon="1.667661"><ele>8.0</ele><time>2026-04-19T11:29:34.041Z</time></trkpt><trkpt lat="41.2061263" lon="1.6678483"><ele>7.75</ele><time>2026-04-19T11:29:35.041Z</time></trkpt><trkpt lat="41.2061725" lon="1.6680274"><ele>7.5</ele><time>2026-04-19T11:29:36.04Z</time></trkpt><trkpt lat="41.2062153" lon="1.6681939"><ele>7.25</ele><time>2026-04-19T11:29:37.04Z</time></trkpt><trkpt lat="41.2062521" lon="1.6683401"><ele>7.0</ele><time>2026-04-19T11:29:38.04Z</time></trkpt><trkpt lat="41.2062832" lon="1.6684648"><ele>7.000000000000001</ele><time>2026-04-19T11:29:39.041Z</time></trkpt><trkpt lat="41.2063096" lon="1.6685714"><ele>7.0</ele><time>2026-04-19T11:29:40.04Z</time></trkpt><trkpt lat="41.206332" lon="1.6686635"><ele>7.0</ele><time>2026-04-19T11:29:41.041Z</time></trkpt><trkpt lat="41.2063516" lon="1.6687456"><ele>7.0</ele><time>2026-04-19T11:29:42.041Z</time></trkpt><trkpt lat="41.2063885" lon="1.6688974"><ele>7.000000000000001</ele><time>2026-04-19T11:29:44.04Z</time></trkpt><trkpt lat="41.2064102" lon="1.6689854"><ele>7.0</ele><time>2026-04-19T11:29:45.041Z</time></trkpt><trkpt lat="41.2064347" lon="1.6690865"><ele>6.6</ele><time>2026-04-19T11:29:46.041Z</time></trkpt><trkpt lat="41.2064637" lon="1.6692056"><ele>6.199999999999999</ele><time>2026-04-19T11:29:47.041Z</time></trkpt><trkpt lat="41.2064953" lon="1.6693319"><ele>5.8</ele><time>2026-04-19T11:29:48.041Z</time></trkpt><trkpt lat="41.2065283" lon="1.6694609"><ele>5.4</ele><time>2026-04-19T11:29:49.041Z</time></trkpt><trkpt lat="41.2065609" lon="1.6695883"><ele>5.0</ele><time>2026-04-19T11:29:50.041Z</time></trkpt><trkpt lat="41.2065912" lon="1.6697091"><ele>5.0</ele><time>2026-04-19T11:29:51.041Z</time></trkpt><trkpt lat="41.2066193" lon="1.6698258"><ele>5.0</ele><time>2026-04-19T11:29:52.041Z</time></trkpt><trkpt lat="41.2066485" lon="1.6699389"><ele>5.0</ele><time>2026-04-19T11:29:53.041Z</time></trkpt><trkpt lat="41.2066775" lon="1.6700497"><ele>5.0</ele><time>2026-04-19T11:29:54.041Z</time></trkpt><trkpt lat="41.2067049" lon="1.6701553"><ele>5.0</ele><time>2026-04-19T11:29:55.041Z</time></trkpt><trkpt lat="41.2067307" lon="1.6702552"><ele>5.0</ele><time>2026-04-19T11:29:56.041Z</time></trkpt><trkpt lat="41.2067544" lon="1.6703524"><ele>5.5</ele><time>2026-04-19T11:29:57.041Z</time></trkpt><trkpt lat="41.2067763" lon="1.6704489"><ele>6.0</ele><time>2026-04-19T11:29:58.041Z</time></trkpt><trkpt lat="41.2067984" lon="1.6705393"><ele>6.5</ele><time>2026-04-19T11:29:59.04Z</time></trkpt><trkpt lat="41.20682" lon="1.6706229"><ele>7.0</ele><time>2026-04-19T11:30:00.041Z</time></trkpt><trkpt lat="41.2068566" lon="1.6707627"><ele>7.499999999999999</ele><time>2026-04-19T11:30:02.041Z</time></trkpt><trkpt lat="41.2068837" lon="1.6708889"><ele>8.0</ele><time>2026-04-19T11:30:04.041Z</time></trkpt><trkpt lat="41.2069196" lon="1.6710202"><ele>8.200000000000001</ele><time>2026-04-19T11:30:06.041Z</time></trkpt><trkpt lat="41.2069479" lon="1.6711344"><ele>8.4</ele><time>2026-04-19T11:30:08.041Z</time></trkpt><trkpt lat="41.2069803" lon="1.6712577"><ele>8.600000000000001</ele><time>2026-04-19T11:30:10.041Z</time></trkpt><trkpt lat="41.2070199" lon="1.6714165"><ele>8.8</ele><time>2026-04-19T11:30:12.04Z</time></trkpt><trkpt lat="41.2070431" lon="1.671508"><ele>9.0</ele><time>2026-04-19T11:30:13.041Z</time></trkpt><trkpt lat="41.207069" lon="1.6716049"><ele>9.0</ele><time>2026-04-19T11:30:14.04Z</time></trkpt><trkpt lat="41.2070932" lon="1.6717002"><ele>9.0</ele><time>2026-04-19T11:30:15.04Z</time></trkpt><trkpt lat="41.2071143" lon="1.6717856"><ele>9.0</ele><time>2026-04-19T11:30:16.04Z</time></trkpt><trkpt lat="41.2071425" lon="1.6718987"><ele>9.0</ele><time>2026-04-19T11:30:18.041Z</time></trkpt><trkpt lat="41.2071635" lon="1.6720032"><ele>9.0</ele><time>2026-04-19T11:31:38.041Z</time></trkpt><trkpt lat="41.2071927" lon="1.6721054"><ele>9.0</ele><time>2026-04-19T11:31:40.04Z</time></trkpt><trkpt lat="41.2072183" lon="1.6722096"><ele>9.166666666666666</ele><time>2026-04-19T11:31:42.041Z</time></trkpt><trkpt lat="41.2072488" lon="1.6723289"><ele>9.333333333333334</ele><time>2026-04-19T11:31:44.041Z</time></trkpt><trkpt lat="41.2072706" lon="1.6724103"><ele>9.5</ele><time>2026-04-19T11:31:45.041Z</time></trkpt><trkpt lat="41.2072953" lon="1.672507"><ele>9.666666666666668</ele><time>2026-04-19T11:31:46.041Z</time></trkpt><trkpt lat="41.2073224" lon="1.6726128"><ele>9.833333333333334</ele><time>2026-04-19T11:31:47.041Z</time></trkpt><trkpt lat="41.2073512" lon="1.6727252"><ele>10.0</ele><time>2026-04-19T11:31:48.04Z</time></trkpt><trkpt lat="41.2073802" lon="1.6728417"><ele>10.0</ele><time>2026-04-19T11:31:49.04Z</time></trkpt><trkpt lat="41.2074096" lon="1.6729576"><ele>10.0</ele><time>2026-04-19T11:31:50.041Z</time></trkpt><trkpt lat="41.2074386" lon="1.6730736"><ele>10.0</ele><time>2026-04-19T11:31:51.041Z</time></trkpt><trkpt lat="41.2074675" lon="1.6731912"><ele>10.0</ele><time>2026-04-19T11:31:52.041Z</time></trkpt><trkpt lat="41.2074996" lon="1.673318"><ele>10.0</ele><time>2026-04-19T11:31:53.04Z</time></trkpt><trkpt lat="41.2075314" lon="1.6734475"><ele>10.0</ele><time>2026-04-19T11:31:54.041Z</time></trkpt><trkpt lat="41.207563" lon="1.6735711"><ele>10.0</ele><time>2026-04-19T11:31:55.04Z</time></trkpt><trkpt lat="41.2075918" lon="1.6736888"><ele>10.0</ele><time>2026-04-19T11:31:56.04Z</time></trkpt><trkpt lat="41.207618" lon="1.6738007"><ele>10.0</ele><time>2026-04-19T11:31:57.041Z</time></trkpt><trkpt lat="41.207644" lon="1.6739093"><ele>10.0</ele><time>2026-04-19T11:31:58.041Z</time></trkpt><trkpt lat="41.2076699" lon="1.6740178"><ele>10.0</ele><time>2026-04-19T11:31:59.041Z</time></trkpt><trkpt lat="41.2076984" lon="1.6741357"><ele>10.0</ele><time>2026-04-19T11:32:00.041Z</time></trkpt><trkpt lat="41.2077294" lon="1.6742599"><ele>10.0</ele><time>2026-04-19T11:32:01.041Z</time></trkpt><trkpt lat="41.2077634" lon="1.6743944"><ele>10.0</ele><time>2026-04-19T11:32:02.041Z</time></trkpt><trkpt lat="41.2077983" lon="1.674537"><ele>10.0</ele><time>2026-04-19T11:32:03.041Z</time></trkpt><trkpt lat="41.2078334" lon="1.6746833"><ele>10.0</ele><time>2026-04-19T11:32:04.041Z</time></trkpt><trkpt lat="41.2078667" lon="1.6748353"><ele>10.0</ele><time>2026-04-19T11:32:05.041Z</time></trkpt><trkpt lat="41.2078975" lon="1.6749845"><ele>10.0</ele><time>2026-04-19T11:32:06.041Z</time></trkpt><trkpt lat="41.2079297" lon="1.6751283"><ele>10.0</ele><time>2026-04-19T11:32:07.041Z</time></trkpt><trkpt lat="41.2079635" lon="1.6752739"><ele>10.0</ele><time>2026-04-19T11:32:08.041Z</time></trkpt><trkpt lat="41.207999" lon="1.6754203"><ele>10.0</ele><time>2026-04-19T11:32:09.041Z</time></trkpt><trkpt lat="41.2080376" lon="1.6755724"><ele>10.0</ele><time>2026-04-19T11:32:10.041Z</time></trkpt><trkpt lat="41.2080754" lon="1.6757273"><ele>10.0</ele><time>2026-04-19T11:32:11.04Z</time></trkpt><trkpt lat="41.208115" lon="1.6758851"><ele>10.0</ele><time>2026-04-19T11:32:12.041Z</time></trkpt><trkpt lat="41.2081563" lon="1.6760426"><ele>10.0</ele><time>2026-04-19T11:32:13.04Z</time></trkpt><trkpt lat="41.208195" lon="1.6761976"><ele>10.0</ele><time>2026-04-19T11:32:14.041Z</time></trkpt><trkpt lat="41.2082327" lon="1.6763513"><ele>10.0</ele><time>2026-04-19T11:32:15.041Z</time></trkpt><trkpt lat="41.2082717" lon="1.6765086"><ele>10.25</ele><time>2026-04-19T11:32:16.041Z</time></trkpt><trkpt lat="41.2083117" lon="1.6766692"><ele>10.5</ele><time>2026-04-19T11:32:17.041Z</time></trkpt><trkpt lat="41.2083529" lon="1.6768356"><ele>10.75</ele><time>2026-04-19T11:32:18.041Z</time></trkpt><trkpt lat="41.2083962" lon="1.6770108"><ele>11.0</ele><time>2026-04-19T11:32:19.041Z</time></trkpt><trkpt lat="41.2084393" lon="1.6771877"><ele>11.0</ele><time>2026-04-19T11:32:20.04Z</time></trkpt><trkpt lat="41.2084813" lon="1.6773602"><ele>11.0</ele><time>2026-04-19T11:32:21.041Z</time></trkpt><trkpt lat="41.2085224" lon="1.6775294"><ele>11.0</ele><time>2026-04-19T11:32:22.04Z</time></trkpt><trkpt lat="41.2085624" lon="1.6776926"><ele>11.0</ele><time>2026-04-19T11:32:23.041Z</time></trkpt><trkpt lat="41.2085995" lon="1.6778468"><ele>10.75</ele><time>2026-04-19T11:32:24.041Z</time></trkpt><trkpt lat="41.2086365" lon="1.677996"><ele>10.5</ele><time>2026-04-19T11:32:25.041Z</time></trkpt><trkpt lat="41.2086731" lon="1.6781458"><ele>10.25</ele><time>2026-04-19T11:32:26.041Z</time></trkpt><trkpt lat="41.2087117" lon="1.6782973"><ele>10.0</ele><time>2026-04-19T11:32:27.04Z</time></trkpt><trkpt lat="41.2087491" lon="1.6784497"><ele>9.5</ele><time>2026-04-19T11:32:28.041Z</time></trkpt><trkpt lat="41.2087875" lon="1.6786032"><ele>9.0</ele><time>2026-04-19T11:32:29.041Z</time></trkpt><trkpt lat="41.2088252" lon="1.6787563"><ele>8.5</ele><time>2026-04-19T11:32:30.04Z</time></trkpt><trkpt lat="41.2088636" lon="1.6789087"><ele>8.0</ele><time>2026-04-19T11:32:31.04Z</time></trkpt><trkpt lat="41.2089042" lon="1.6790635"><ele>8.0</ele><time>2026-04-19T11:32:32.041Z</time></trkpt><trkpt lat="41.2089442" lon="1.6792186"><ele>8.0</ele><time>2026-04-19T11:32:33.041Z</time></trkpt><trkpt lat="41.2089814" lon="1.6793678"><ele>8.0</ele><time>2026-04-19T11:32:34.04Z</time></trkpt><trkpt lat="41.2090131" lon="1.679513"><ele>8.0</ele><time>2026-04-19T11:32:35.041Z</time></trkpt><trkpt lat="41.2090364" lon="1.6796433"><ele>7.999999999999999</ele><time>2026-04-19T11:32:36.04Z</time></trkpt><trkpt lat="41.2090516" lon="1.6797513"><ele>8.0</ele><time>2026-04-19T11:32:37.04Z</time></trkpt><trkpt lat="41.2090617" lon="1.6798881"><ele>8.0</ele><time>2026-04-19T11:32:39.041Z</time></trkpt><trkpt lat="41.2090613" lon="1.6799881"><ele>8.0</ele><time>2026-04-19T11:32:45.04Z</time></trkpt><trkpt lat="41.2090577" lon="1.6800728"><ele>7.999999999999999</ele><time>2026-04-19T11:32:52.041Z</time></trkpt><trkpt lat="41.2090243" lon="1.6802037"><ele>8.0</ele><time>2026-04-19T11:32:54.041Z</time></trkpt><trkpt lat="41.2090159" lon="1.6802872"><ele>8.0</ele><time>2026-04-19T11:32:55.041Z</time></trkpt><trkpt lat="41.2090661" lon="1.6804892"><ele>8.0</ele><time>2026-04-19T11:32:57.041Z</time></trkpt><trkpt lat="41.2091286" lon="1.6805654"><ele>8.0</ele><time>2026-04-19T11:32:58.041Z</time></trkpt><trkpt lat="41.2091997" lon="1.6806335"><ele>8.0</ele><time>2026-04-19T11:32:59.04Z</time></trkpt><trkpt lat="41.2092619" lon="1.680705"><ele>8.0</ele><time>2026-04-19T11:33:00.041Z</time></trkpt><trkpt lat="41.2093118" lon="1.6807947"><ele>8.0</ele><time>2026-04-19T11:33:01.041Z</time></trkpt><trkpt lat="41.2093505" lon="1.6808982"><ele>8.0</ele><time>2026-04-19T11:33:02.041Z</time></trkpt><trkpt lat="41.2093824" lon="1.6810152"><ele>8.0</ele><time>2026-04-19T11:33:03.041Z</time></trkpt><trkpt lat="41.2094116" lon="1.6811441"><ele>8.0</ele><time>2026-04-19T11:33:04.041Z</time></trkpt><trkpt lat="41.2094387" lon="1.6812825"><ele>8.0</ele><time>2026-04-19T11:33:05.04Z</time></trkpt><trkpt lat="41.2094679" lon="1.681437"><ele>8.25</ele><time>2026-04-19T11:33:06.041Z</time></trkpt><trkpt lat="41.2095013" lon="1.6816056"><ele>8.5</ele><time>2026-04-19T11:33:07.04Z</time></trkpt><trkpt lat="41.2095392" lon="1.6817965"><ele>8.75</ele><time>2026-04-19T11:33:08.04Z</time></trkpt><trkpt lat="41.2095785" lon="1.6820009"><ele>9.0</ele><time>2026-04-19T11:33:09.041Z</time></trkpt><trkpt lat="41.2096179" lon="1.6822042"><ele>9.666666666666666</ele><time>2026-04-19T11:33:10.041Z</time></trkpt><trkpt lat="41.2096572" lon="1.6824072"><ele>10.333333333333332</ele><time>2026-04-19T11:33:11.041Z</time></trkpt><trkpt lat="41.2096967" lon="1.6826138"><ele>11.0</ele><time>2026-04-19T11:33:12.041Z</time></trkpt><trkpt lat="41.2097365" lon="1.6828271"><ele>11.333333333333332</ele><time>2026-04-19T11:33:13.041Z</time></trkpt><trkpt lat="41.2097783" lon="1.6830486"><ele>11.666666666666666</ele><time>2026-04-19T11:33:14.041Z</time></trkpt><trkpt lat="41.2098223" lon="1.6832725"><ele>12.0</ele><time>2026-04-19T11:33:15.041Z</time></trkpt><trkpt lat="41.2098659" lon="1.6834987"><ele>13.333333333333332</ele><time>2026-04-19T11:33:16.04Z</time></trkpt><trkpt lat="41.2099085" lon="1.6837227"><ele>14.666666666666666</ele><time>2026-04-19T11:33:17.041Z</time></trkpt><trkpt lat="41.2099475" lon="1.6839428"><ele>16.0</ele><time>2026-04-19T11:33:18.04Z</time></trkpt><trkpt lat="41.2099861" lon="1.6841555"><ele>16.0</ele><time>2026-04-19T11:33:19.041Z</time></trkpt><trkpt lat="41.2100243" lon="1.6843577"><ele>16.0</ele><time>2026-04-19T11:33:20.041Z</time></trkpt><trkpt lat="41.2100601" lon="1.6845544"><ele>16.0</ele><time>2026-04-19T11:33:21.04Z</time></trkpt><trkpt lat="41.2100947" lon="1.68475"><ele>16.0</ele><time>2026-04-19T11:33:22.041Z</time></trkpt><trkpt lat="41.2101296" lon="1.6849455"><ele>16.0</ele><time>2026-04-19T11:33:23.041Z</time></trkpt><trkpt lat="41.2101668" lon="1.6851489"><ele>16.0</ele><time>2026-04-19T11:33:24.04Z</time></trkpt><trkpt lat="41.2102037" lon="1.6853542"><ele>16.0</ele><time>2026-04-19T11:33:25.041Z</time></trkpt><trkpt lat="41.2102399" lon="1.6855615"><ele>16.0</ele><time>2026-04-19T11:33:26.04Z</time></trkpt><trkpt lat="41.2102813" lon="1.6857863"><ele>16.0</ele><time>2026-04-19T11:33:27.041Z</time></trkpt><trkpt lat="41.2103281" lon="1.6860186"><ele>15.666666666666666</ele><time>2026-04-19T11:33:28.041Z</time></trkpt><trkpt lat="41.2103722" lon="1.6862475"><ele>15.333333333333332</ele><time>2026-04-19T11:33:29.04Z</time></trkpt><trkpt lat="41.2104148" lon="1.6864734"><ele>15.0</ele><time>2026-04-19T11:33:30.041Z</time></trkpt><trkpt lat="41.2104605" lon="1.6867026"><ele>14.333333333333332</ele><time>2026-04-19T11:33:31.041Z</time></trkpt><trkpt lat="41.2105077" lon="1.6869302"><ele>13.666666666666666</ele><time>2026-04-19T11:33:32.041Z</time></trkpt><trkpt lat="41.210556" lon="1.6871568"><ele>13.0</ele><time>2026-04-19T11:33:33.04Z</time></trkpt><trkpt lat="41.2106057" lon="1.6873821"><ele>14.333333333333332</ele><time>2026-04-19T11:33:34.04Z</time></trkpt><trkpt lat="41.2106588" lon="1.687606"><ele>15.666666666666668</ele><time>2026-04-19T11:33:35.041Z</time></trkpt><trkpt lat="41.2107142" lon="1.6878286"><ele>17.0</ele><time>2026-04-19T11:33:36.04Z</time></trkpt><trkpt lat="41.2107699" lon="1.6880506"><ele>17.0</ele><time>2026-04-19T11:33:37.04Z</time></trkpt><trkpt lat="41.2108297" lon="1.6882732"><ele>17.0</ele><time>2026-04-19T11:33:38.04Z</time></trkpt><trkpt lat="41.2108914" lon="1.6884958"><ele>17.0</ele><time>2026-04-19T11:33:39.041Z</time></trkpt><trkpt lat="41.2109582" lon="1.688723"><ele>17.0</ele><time>2026-04-19T11:33:40.041Z</time></trkpt><trkpt lat="41.2110341" lon="1.6889657"><ele>17.0</ele><time>2026-04-19T11:33:41.041Z</time></trkpt><trkpt lat="41.211123" lon="1.6892272"><ele>17.0</ele><time>2026-04-19T11:33:42.041Z</time></trkpt><trkpt lat="41.2112224" lon="1.6895008"><ele>16.0</ele><time>2026-04-19T11:33:43.041Z</time></trkpt><trkpt lat="41.2113299" lon="1.6897927"><ele>15.0</ele><time>2026-04-19T11:33:44.041Z</time></trkpt><trkpt lat="41.2114432" lon="1.6901017"><ele>17.5</ele><time>2026-04-19T11:33:45.041Z</time></trkpt><trkpt lat="41.2115658" lon="1.6904194"><ele>20.0</ele><time>2026-04-19T11:33:46.041Z</time></trkpt><trkpt lat="41.2116941" lon="1.6907417"><ele>20.0</ele><time>2026-04-19T11:33:47.041Z</time></trkpt><trkpt lat="41.2118287" lon="1.6910706"><ele>20.0</ele><time>2026-04-19T11:33:48.041Z</time></trkpt><trkpt lat="41.2119645" lon="1.6914024"><ele>19.5</ele><time>2026-04-19T11:33:49.041Z</time></trkpt><trkpt lat="41.2120978" lon="1.6917236"><ele>19.0</ele><time>2026-04-19T11:33:50.04Z</time></trkpt><trkpt lat="41.2122295" lon="1.6920251"><ele>19.0</ele><time>2026-04-19T11:33:51.04Z</time></trkpt><trkpt lat="41.2123632" lon="1.6923065"><ele>19.0</ele><time>2026-04-19T11:33:52.04Z</time></trkpt><trkpt lat="41.2124976" lon="1.6925726"><ele>18.5</ele><time>2026-04-19T11:33:53.04Z</time></trkpt><trkpt lat="41.212631" lon="1.6928251"><ele>18.0</ele><time>2026-04-19T11:33:54.04Z</time></trkpt><trkpt lat="41.2127625" lon="1.693063"><ele>18.0</ele><time>2026-04-19T11:33:55.04Z</time></trkpt><trkpt lat="41.2128945" lon="1.6932925"><ele>18.0</ele><time>2026-04-19T11:33:56.041Z</time></trkpt><trkpt lat="41.2130263" lon="1.6935155"><ele>18.0</ele><time>2026-04-19T11:33:57.041Z</time></trkpt><trkpt lat="41.2131567" lon="1.6937348"><ele>19.333333333333332</ele><time>2026-04-19T11:33:58.041Z</time></trkpt><trkpt lat="41.2132861" lon="1.6939478"><ele>20.666666666666664</ele><time>2026-04-19T11:33:59.041Z</time></trkpt><trkpt lat="41.2134131" lon="1.6941481"><ele>22.0</ele><time>2026-04-19T11:34:00.041Z</time></trkpt><trkpt lat="41.2135391" lon="1.6943376"><ele>21.333333333333332</ele><time>2026-04-19T11:34:01.04Z</time></trkpt><trkpt lat="41.2136621" lon="1.6945176"><ele>20.666666666666668</ele><time>2026-04-19T11:34:02.041Z</time></trkpt><trkpt lat="41.2137818" lon="1.6946896"><ele>20.0</ele><time>2026-04-19T11:34:03.041Z</time></trkpt><trkpt lat="41.2139" lon="1.6948554"><ele>21.0</ele><time>2026-04-19T11:34:04.041Z</time></trkpt><trkpt lat="41.2140218" lon="1.6950227"><ele>22.0</ele><time>2026-04-19T11:34:05.041Z</time></trkpt><trkpt lat="41.2141482" lon="1.6951986"><ele>23.0</ele><time>2026-04-19T11:34:06.041Z</time></trkpt><trkpt lat="41.2142769" lon="1.6953724"><ele>23.0</ele><time>2026-04-19T11:34:07.041Z</time></trkpt><trkpt lat="41.2144079" lon="1.6955451"><ele>23.0</ele><time>2026-04-19T11:34:08.04Z</time></trkpt><trkpt lat="41.2145406" lon="1.6957123"><ele>23.0</ele><time>2026-04-19T11:34:09.041Z</time></trkpt><trkpt lat="41.2146779" lon="1.6958777"><ele>23.0</ele><time>2026-04-19T11:34:10.041Z</time></trkpt><trkpt lat="41.2148174" lon="1.6960415"><ele>23.0</ele><time>2026-04-19T11:34:11.041Z</time></trkpt><trkpt lat="41.2149606" lon="1.696208"><ele>23.0</ele><time>2026-04-19T11:34:12.04Z</time></trkpt><trkpt lat="41.2151039" lon="1.69637"><ele>24.666666666666668</ele><time>2026-04-19T11:34:13.041Z</time></trkpt><trkpt lat="41.2152473" lon="1.6965274"><ele>26.333333333333336</ele><time>2026-04-19T11:34:14.04Z</time></trkpt><trkpt lat="41.2153867" lon="1.6966768"><ele>28.0</ele><time>2026-04-19T11:34:15.04Z</time></trkpt><trkpt lat="41.2155262" lon="1.6968235"><ele>29.666666666666668</ele><time>2026-04-19T11:34:16.041Z</time></trkpt><trkpt lat="41.2156687" lon="1.6969686"><ele>31.333333333333336</ele><time>2026-04-19T11:34:17.041Z</time></trkpt><trkpt lat="41.2158126" lon="1.6971105"><ele>33.0</ele><time>2026-04-19T11:34:18.041Z</time></trkpt><trkpt lat="41.2159593" lon="1.6972485"><ele>33.0</ele><time>2026-04-19T11:34:19.04Z</time></trkpt><trkpt lat="41.2161068" lon="1.6973836"><ele>33.0</ele><time>2026-04-19T11:34:20.04Z</time></trkpt><trkpt lat="41.2162553" lon="1.6975185"><ele>33.0</ele><time>2026-04-19T11:34:21.04Z</time></trkpt><trkpt lat="41.2164018" lon="1.6976497"><ele>34.333333333333336</ele><time>2026-04-19T11:34:22.04Z</time></trkpt><trkpt lat="41.216547" lon="1.697777"><ele>35.66666666666667</ele><time>2026-04-19T11:34:23.04Z</time></trkpt><trkpt lat="41.2166984" lon="1.6979039"><ele>37.0</ele><time>2026-04-19T11:34:24.041Z</time></trkpt><trkpt lat="41.2168525" lon="1.6980308"><ele>37.0</ele><time>2026-04-19T11:34:25.041Z</time></trkpt><trkpt lat="41.2170067" lon="1.6981551"><ele>37.0</ele><time>2026-04-19T11:34:26.041Z</time></trkpt><trkpt lat="41.2171601" lon="1.6982749"><ele>37.0</ele><time>2026-04-19T11:34:27.041Z</time></trkpt><trkpt lat="41.2173177" lon="1.6983931"><ele>37.333333333333336</ele><time>2026-04-19T11:34:28.041Z</time></trkpt><trkpt lat="41.2174784" lon="1.6985095"><ele>37.666666666666664</ele><time>2026-04-19T11:34:29.041Z</time></trkpt><trkpt lat="41.2176382" lon="1.6986227"><ele>38.0</ele><time>2026-04-19T11:34:30.041Z</time></trkpt><trkpt lat="41.2177965" lon="1.6987326"><ele>38.0</ele><time>2026-04-19T11:34:31.041Z</time></trkpt><trkpt lat="41.2179571" lon="1.6988421"><ele>38.0</ele><time>2026-04-19T11:34:32.041Z</time></trkpt><trkpt lat="41.218122" lon="1.6989492"><ele>38.0</ele><time>2026-04-19T11:34:33.04Z</time></trkpt><trkpt lat="41.2182928" lon="1.699056"><ele>39.33333333333333</ele><time>2026-04-19T11:34:34.041Z</time></trkpt><trkpt lat="41.2184688" lon="1.6991633"><ele>40.666666666666664</ele><time>2026-04-19T11:34:35.04Z</time></trkpt><trkpt lat="41.2186505" lon="1.699269"><ele>42.0</ele><time>2026-04-19T11:34:36.041Z</time></trkpt><trkpt lat="41.2188393" lon="1.6993733"><ele>43.333333333333336</ele><time>2026-04-19T11:34:37.041Z</time></trkpt><trkpt lat="41.2190291" lon="1.6994763"><ele>44.66666666666667</ele><time>2026-04-19T11:34:38.04Z</time></trkpt><trkpt lat="41.219222" lon="1.6995782"><ele>46.0</ele><time>2026-04-19T11:34:39.041Z</time></trkpt><trkpt lat="41.2194187" lon="1.6996769"><ele>46.0</ele><time>2026-04-19T11:34:40.04Z</time></trkpt><trkpt lat="41.2196169" lon="1.6997725"><ele>46.0</ele><time>2026-04-19T11:34:41.041Z</time></trkpt><trkpt lat="41.2198138" lon="1.6998597"><ele>46.0</ele><time>2026-04-19T11:34:42.04Z</time></trkpt><trkpt lat="41.2200117" lon="1.6999429"><ele>46.66666666666667</ele><time>2026-04-19T11:34:43.04Z</time></trkpt><trkpt lat="41.2202116" lon="1.7000238"><ele>47.333333333333336</ele><time>2026-04-19T11:34:44.04Z</time></trkpt><trkpt lat="41.2204138" lon="1.7001021"><ele>48.0</ele><time>2026-04-19T11:34:45.04Z</time></trkpt><trkpt lat="41.2206213" lon="1.7001781"><ele>48.66666666666667</ele><time>2026-04-19T11:34:46.041Z</time></trkpt><trkpt lat="41.2208336" lon="1.7002521"><ele>49.333333333333336</ele><time>2026-04-19T11:34:47.041Z</time></trkpt><trkpt lat="41.2210476" lon="1.7003214"><ele>50.0</ele><time>2026-04-19T11:34:48.04Z</time></trkpt><trkpt lat="41.2212635" lon="1.7003852"><ele>50.0</ele><time>2026-04-19T11:34:49.04Z</time></trkpt><trkpt lat="41.2214794" lon="1.7004443"><ele>50.0</ele><time>2026-04-19T11:34:50.041Z</time></trkpt><trkpt lat="41.2216966" lon="1.7004993"><ele>50.0</ele><time>2026-04-19T11:34:51.041Z</time></trkpt><trkpt lat="41.2219173" lon="1.7005516"><ele>53.0</ele><time>2026-04-19T11:34:52.041Z</time></trkpt><trkpt lat="41.2221489" lon="1.7006015"><ele>56.0</ele><time>2026-04-19T11:34:53.041Z</time></trkpt><trkpt lat="41.2223929" lon="1.7006535"><ele>58.0</ele><time>2026-04-19T11:34:54.04Z</time></trkpt><trkpt lat="41.2226358" lon="1.7007077"><ele>60.0</ele><time>2026-04-19T11:34:55.04Z</time></trkpt><trkpt lat="41.2228673" lon="1.7007683"><ele>60.0</ele><time>2026-04-19T11:34:56.04Z</time></trkpt><trkpt lat="41.2230942" lon="1.7008308"><ele>60.0</ele><time>2026-04-19T11:34:57.04Z</time></trkpt><trkpt lat="41.2233109" lon="1.7009017"><ele>59.66666666666667</ele><time>2026-04-19T11:34:58.04Z</time></trkpt><trkpt lat="41.2235203" lon="1.7009807"><ele>59.333333333333336</ele><time>2026-04-19T11:34:59.041Z</time></trkpt><trkpt lat="41.2237268" lon="1.7010728"><ele>59.0</ele><time>2026-04-19T11:35:00.04Z</time></trkpt><trkpt lat="41.2239361" lon="1.7011814"><ele>54.66666666666667</ele><time>2026-04-19T11:35:01.041Z</time></trkpt><trkpt lat="41.2241389" lon="1.7013034"><ele>50.333333333333336</ele><time>2026-04-19T11:35:02.04Z</time></trkpt><trkpt lat="41.2243336" lon="1.7014382"><ele>46.0</ele><time>2026-04-19T11:35:03.041Z</time></trkpt><trkpt lat="41.2245141" lon="1.7015804"><ele>46.0</ele><time>2026-04-19T11:35:04.041Z</time></trkpt><trkpt lat="41.2246757" lon="1.7017244"><ele>46.0</ele><time>2026-04-19T11:35:05.041Z</time></trkpt><trkpt lat="41.2248222" lon="1.7018705"><ele>46.0</ele><time>2026-04-19T11:35:06.041Z</time></trkpt><trkpt lat="41.2249592" lon="1.7020201"><ele>42.66666666666667</ele><time>2026-04-19T11:35:07.041Z</time></trkpt><trkpt lat="41.2250906" lon="1.7021713"><ele>39.333333333333336</ele><time>2026-04-19T11:35:08.041Z</time></trkpt><trkpt lat="41.22522" lon="1.7023245"><ele>36.0</ele><time>2026-04-19T11:35:09.04Z</time></trkpt><trkpt lat="41.2253495" lon="1.7024795"><ele>36.0</ele><time>2026-04-19T11:35:10.041Z</time></trkpt><trkpt lat="41.2254776" lon="1.7026334"><ele>36.0</ele><time>2026-04-19T11:35:11.04Z</time></trkpt><trkpt lat="41.2256024" lon="1.7027839"><ele>36.0</ele><time>2026-04-19T11:35:12.04Z</time></trkpt><trkpt lat="41.2257268" lon="1.7029314"><ele>35.666666666666664</ele><time>2026-04-19T11:35:13.04Z</time></trkpt><trkpt lat="41.225848" lon="1.7030796"><ele>35.33333333333333</ele><time>2026-04-19T11:35:14.04Z</time></trkpt><trkpt lat="41.2259715" lon="1.7032351"><ele>35.0</ele><time>2026-04-19T11:35:15.041Z</time></trkpt><trkpt lat="41.2260945" lon="1.7033945"><ele>35.0</ele><time>2026-04-19T11:35:16.041Z</time></trkpt><trkpt lat="41.226218" lon="1.7035572"><ele>35.0</ele><time>2026-04-19T11:35:17.041Z</time></trkpt><trkpt lat="41.2263428" lon="1.7037229"><ele>35.0</ele><time>2026-04-19T11:35:18.04Z</time></trkpt><trkpt lat="41.2264728" lon="1.7039002"><ele>35.666666666666664</ele><time>2026-04-19T11:35:19.041Z</time></trkpt><trkpt lat="41.2265974" lon="1.704084"><ele>36.333333333333336</ele><time>2026-04-19T11:35:20.041Z</time></trkpt><trkpt lat="41.2267169" lon="1.7042748"><ele>37.0</ele><time>2026-04-19T11:35:21.041Z</time></trkpt><trkpt lat="41.2268314" lon="1.7044756"><ele>37.0</ele><time>2026-04-19T11:35:22.041Z</time></trkpt><trkpt lat="41.2269353" lon="1.7046688"><ele>37.0</ele><time>2026-04-19T11:35:23.041Z</time></trkpt><trkpt lat="41.2270282" lon="1.7048496"><ele>37.0</ele><time>2026-04-19T11:35:24.041Z</time></trkpt><trkpt lat="41.2271078" lon="1.7050108"><ele>37.0</ele><time>2026-04-19T11:35:25.041Z</time></trkpt><trkpt lat="41.2271758" lon="1.7051546"><ele>37.0</ele><time>2026-04-19T11:35:26.041Z</time></trkpt><trkpt lat="41.2272298" lon="1.705278"><ele>37.0</ele><time>2026-04-19T11:35:27.04Z</time></trkpt><trkpt lat="41.2272733" lon="1.705387"><ele>37.0</ele><time>2026-04-19T11:35:28.041Z</time></trkpt><trkpt lat="41.2273107" lon="1.7054818"><ele>37.0</ele><time>2026-04-19T11:35:29.041Z</time></trkpt><trkpt lat="41.2273462" lon="1.7055641"><ele>37.833333333333336</ele><time>2026-04-19T11:35:30.04Z</time></trkpt><trkpt lat="41.2273869" lon="1.7056283"><ele>38.66666666666667</ele><time>2026-04-19T11:35:31.041Z</time></trkpt><trkpt lat="41.2274669" lon="1.7056823"><ele>39.5</ele><time>2026-04-19T11:35:33.041Z</time></trkpt><trkpt lat="41.2275516" lon="1.7056681"><ele>40.333333333333336</ele><time>2026-04-19T11:35:54.041Z</time></trkpt><trkpt lat="41.2276236" lon="1.7055721"><ele>41.166666666666664</ele><time>2026-04-19T11:35:56.04Z</time></trkpt><trkpt lat="41.2276578" lon="1.7054868"><ele>42.0</ele><time>2026-04-19T11:35:57.04Z</time></trkpt><trkpt lat="41.2276919" lon="1.7053889"><ele>42.0</ele><time>2026-04-19T11:35:58.041Z</time></trkpt><trkpt lat="41.227733" lon="1.7052705"><ele>42.0</ele><time>2026-04-19T11:35:59.041Z</time></trkpt><trkpt lat="41.2277795" lon="1.7051319"><ele>42.0</ele><time>2026-04-19T11:36:00.04Z</time></trkpt><trkpt lat="41.2278221" lon="1.7049912"><ele>42.0</ele><time>2026-04-19T11:36:01.04Z</time></trkpt><trkpt lat="41.2278626" lon="1.7048442"><ele>42.0</ele><time>2026-04-19T11:36:02.041Z</time></trkpt><trkpt lat="41.2279037" lon="1.7046886"><ele>41.5</ele><time>2026-04-19T11:36:03.041Z</time></trkpt><trkpt lat="41.2279471" lon="1.7045252"><ele>41.0</ele><time>2026-04-19T11:36:04.04Z</time></trkpt><trkpt lat="41.2279931" lon="1.7043545"><ele>40.5</ele><time>2026-04-19T11:36:05.04Z</time></trkpt><trkpt lat="41.2280429" lon="1.7041672"><ele>40.0</ele><time>2026-04-19T11:36:06.041Z</time></trkpt><trkpt lat="41.228099" lon="1.7039685"><ele>41.333333333333336</ele><time>2026-04-19T11:36:07.04Z</time></trkpt><trkpt lat="41.2281624" lon="1.7037672"><ele>42.666666666666664</ele><time>2026-04-19T11:36:08.041Z</time></trkpt><trkpt lat="41.2282344" lon="1.7035608"><ele>44.0</ele><time>2026-04-19T11:36:09.041Z</time></trkpt><trkpt lat="41.2283109" lon="1.703348"><ele>44.0</ele><time>2026-04-19T11:36:10.04Z</time></trkpt><trkpt lat="41.2283843" lon="1.7031327"><ele>44.0</ele><time>2026-04-19T11:36:11.041Z</time></trkpt><trkpt lat="41.2284505" lon="1.7029123"><ele>44.0</ele><time>2026-04-19T11:36:12.04Z</time></trkpt><trkpt lat="41.2285082" lon="1.7026971"><ele>44.666666666666664</ele><time>2026-04-19T11:36:13.041Z</time></trkpt><trkpt lat="41.2285586" lon="1.7024906"><ele>45.333333333333336</ele><time>2026-04-19T11:36:14.041Z</time></trkpt><trkpt lat="41.2286038" lon="1.7022969"><ele>46.0</ele><time>2026-04-19T11:36:15.041Z</time></trkpt><trkpt lat="41.2286466" lon="1.7021082"><ele>46.333333333333336</ele><time>2026-04-19T11:36:16.041Z</time></trkpt><trkpt lat="41.2286934" lon="1.7019098"><ele>46.666666666666664</ele><time>2026-04-19T11:36:17.04Z</time></trkpt><trkpt lat="41.2287426" lon="1.7017054"><ele>47.0</ele><time>2026-04-19T11:36:18.041Z</time></trkpt><trkpt lat="41.2287935" lon="1.7015005"><ele>47.0</ele><time>2026-04-19T11:36:19.041Z</time></trkpt><trkpt lat="41.2288451" lon="1.7012925"><ele>47.0</ele><time>2026-04-19T11:36:20.041Z</time></trkpt><trkpt lat="41.2288989" lon="1.7010734"><ele>47.0</ele><time>2026-04-19T11:36:21.04Z</time></trkpt><trkpt lat="41.2289534" lon="1.7008514"><ele>50.33333333333333</ele><time>2026-04-19T11:36:22.04Z</time></trkpt><trkpt lat="41.2290072" lon="1.7006303"><ele>53.666666666666664</ele><time>2026-04-19T11:36:23.04Z</time></trkpt><trkpt lat="41.2290585" lon="1.7004119"><ele>57.0</ele><time>2026-04-19T11:36:24.041Z</time></trkpt><trkpt lat="41.2291077" lon="1.7001928"><ele>57.66666666666667</ele><time>2026-04-19T11:36:25.04Z</time></trkpt><trkpt lat="41.2291527" lon="1.699982"><ele>58.333333333333336</ele><time>2026-04-19T11:36:26.04Z</time></trkpt><trkpt lat="41.2291918" lon="1.6997777"><ele>59.0</ele><time>2026-04-19T11:36:27.04Z</time></trkpt><trkpt lat="41.2292272" lon="1.6995752"><ele>59.75</ele><time>2026-04-19T11:36:28.041Z</time></trkpt><trkpt lat="41.2292623" lon="1.6993779"><ele>60.5</ele><time>2026-04-19T11:36:29.041Z</time></trkpt><trkpt lat="41.2292966" lon="1.6991856"><ele>61.25</ele><time>2026-04-19T11:36:30.041Z</time></trkpt><trkpt lat="41.2293282" lon="1.6990061"><ele>62.0</ele><time>2026-04-19T11:36:31.04Z</time></trkpt><trkpt lat="41.2293608" lon="1.698838"><ele>62.0</ele><time>2026-04-19T11:36:32.041Z</time></trkpt><trkpt lat="41.2293909" lon="1.6986771"><ele>62.0</ele><time>2026-04-19T11:36:33.04Z</time></trkpt><trkpt lat="41.2294213" lon="1.6985143"><ele>62.0</ele><time>2026-04-19T11:36:34.04Z</time></trkpt><trkpt lat="41.2294524" lon="1.6983471"><ele>62.0</ele><time>2026-04-19T11:36:35.041Z</time></trkpt><trkpt lat="41.2294857" lon="1.6981751"><ele>62.0</ele><time>2026-04-19T11:36:36.041Z</time></trkpt><trkpt lat="41.2295186" lon="1.6980009"><ele>62.0</ele><time>2026-04-19T11:36:37.041Z</time></trkpt><trkpt lat="41.2295503" lon="1.6978265"><ele>62.0</ele><time>2026-04-19T11:36:38.04Z</time></trkpt><trkpt lat="41.2295816" lon="1.6976521"><ele>62.0</ele><time>2026-04-19T11:36:39.041Z</time></trkpt><trkpt lat="41.2296127" lon="1.6974808"><ele>62.0</ele><time>2026-04-19T11:36:40.04Z</time></trkpt><trkpt lat="41.2296429" lon="1.6973083"><ele>62.0</ele><time>2026-04-19T11:36:41.041Z</time></trkpt><trkpt lat="41.2296728" lon="1.6971353"><ele>62.0</ele><time>2026-04-19T11:36:42.041Z</time></trkpt><trkpt lat="41.2297045" lon="1.696957"><ele>62.0</ele><time>2026-04-19T11:36:43.041Z</time></trkpt><trkpt lat="41.2297383" lon="1.6967775"><ele>62.0</ele><time>2026-04-19T11:36:44.04Z</time></trkpt><trkpt lat="41.229772" lon="1.6965958"><ele>62.0</ele><time>2026-04-19T11:36:45.041Z</time></trkpt><trkpt lat="41.2298081" lon="1.6964058"><ele>62.0</ele><time>2026-04-19T11:36:46.041Z</time></trkpt><trkpt lat="41.2298471" lon="1.6962021"><ele>62.0</ele><time>2026-04-19T11:36:47.04Z</time></trkpt><trkpt lat="41.2298878" lon="1.695995"><ele>64.0</ele><time>2026-04-19T11:36:48.041Z</time></trkpt><trkpt lat="41.2299273" lon="1.6957868"><ele>66.0</ele><time>2026-04-19T11:36:49.04Z</time></trkpt><trkpt lat="41.2299639" lon="1.6955865"><ele>68.0</ele><time>2026-04-19T11:36:50.04Z</time></trkpt><trkpt lat="41.2299981" lon="1.695399"><ele>68.75</ele><time>2026-04-19T11:36:51.041Z</time></trkpt><trkpt lat="41.2300301" lon="1.6952223"><ele>69.5</ele><time>2026-04-19T11:36:52.04Z</time></trkpt><trkpt lat="41.23006" lon="1.6950567"><ele>70.25</ele><time>2026-04-19T11:36:53.04Z</time></trkpt><trkpt lat="41.2300914" lon="1.6948915"><ele>71.0</ele><time>2026-04-19T11:36:54.04Z</time></trkpt><trkpt lat="41.2301237" lon="1.6947226"><ele>71.0</ele><time>2026-04-19T11:36:55.041Z</time></trkpt><trkpt lat="41.2301573" lon="1.694549"><ele>71.0</ele><time>2026-04-19T11:36:56.04Z</time></trkpt><trkpt lat="41.2301906" lon="1.6943736"><ele>71.0</ele><time>2026-04-19T11:36:57.041Z</time></trkpt><trkpt lat="41.2302256" lon="1.6941921"><ele>71.0</ele><time>2026-04-19T11:36:58.041Z</time></trkpt><trkpt lat="41.2302651" lon="1.6940133"><ele>71.75</ele><time>2026-04-19T11:36:59.04Z</time></trkpt><trkpt lat="41.2303123" lon="1.6938437"><ele>72.5</ele><time>2026-04-19T11:37:00.041Z</time></trkpt><trkpt lat="41.2303726" lon="1.6936825"><ele>73.25</ele><time>2026-04-19T11:37:01.04Z</time></trkpt><trkpt lat="41.2304514" lon="1.693524"><ele>74.0</ele><time>2026-04-19T11:37:02.041Z</time></trkpt><trkpt lat="41.2305407" lon="1.6933702"><ele>76.66666666666667</ele><time>2026-04-19T11:37:03.041Z</time></trkpt><trkpt lat="41.2306421" lon="1.6932087"><ele>79.33333333333333</ele><time>2026-04-19T11:37:04.041Z</time></trkpt><trkpt lat="41.2307533" lon="1.6930371"><ele>82.0</ele><time>2026-04-19T11:37:05.041Z</time></trkpt><trkpt lat="41.2308637" lon="1.6928695"><ele>82.33333333333333</ele><time>2026-04-19T11:37:06.041Z</time></trkpt><trkpt lat="41.2309694" lon="1.6927078"><ele>82.66666666666667</ele><time>2026-04-19T11:37:07.041Z</time></trkpt><trkpt lat="41.2310671" lon="1.6925569"><ele>83.0</ele><time>2026-04-19T11:37:08.041Z</time></trkpt><trkpt lat="41.2311541" lon="1.6924111"><ele>83.0</ele><time>2026-04-19T11:37:09.041Z</time></trkpt><trkpt lat="41.2312249" lon="1.6922702"><ele>83.0</ele><time>2026-04-19T11:37:10.04Z</time></trkpt><trkpt lat="41.2312772" lon="1.6921285"><ele>83.0</ele><time>2026-04-19T11:37:11.041Z</time></trkpt><trkpt lat="41.2313153" lon="1.6919852"><ele>83.0</ele><time>2026-04-19T11:37:12.04Z</time></trkpt><trkpt lat="41.2313445" lon="1.6918504"><ele>83.80000000000001</ele><time>2026-04-19T11:37:13.041Z</time></trkpt><trkpt lat="41.2313679" lon="1.6917282"><ele>84.6</ele><time>2026-04-19T11:37:14.04Z</time></trkpt><trkpt lat="41.2313887" lon="1.6916165"><ele>85.4</ele><time>2026-04-19T11:37:15.041Z</time></trkpt><trkpt lat="41.2314107" lon="1.6915016"><ele>86.19999999999999</ele><time>2026-04-19T11:37:16.041Z</time></trkpt><trkpt lat="41.2314378" lon="1.6913622"><ele>87.0</ele><time>2026-04-19T11:37:17.04Z</time></trkpt><trkpt lat="41.2314725" lon="1.6911917"><ele>88.5</ele><time>2026-04-19T11:37:18.041Z</time></trkpt><trkpt lat="41.2315098" lon="1.6910064"><ele>90.0</ele><time>2026-04-19T11:37:19.041Z</time></trkpt><trkpt lat="41.2315459" lon="1.6908164"><ele>91.5</ele><time>2026-04-19T11:37:20.04Z</time></trkpt><trkpt lat="41.2315773" lon="1.6906179"><ele>93.0</ele><time>2026-04-19T11:37:21.04Z</time></trkpt><trkpt lat="41.2315994" lon="1.6903975"><ele>93.66666666666667</ele><time>2026-04-19T11:37:22.041Z</time></trkpt><trkpt lat="41.2316044" lon="1.6901524"><ele>94.33333333333334</ele><time>2026-04-19T11:37:23.041Z</time></trkpt><trkpt lat="41.2316" lon="1.6898951"><ele>95.0</ele><time>2026-04-19T11:37:24.041Z</time></trkpt><trkpt lat="41.2315924" lon="1.6896461"><ele>95.66666666666667</ele><time>2026-04-19T11:37:25.041Z</time></trkpt><trkpt lat="41.231586" lon="1.6894109"><ele>96.33333333333334</ele><time>2026-04-19T11:37:26.04Z</time></trkpt><trkpt lat="41.2315815" lon="1.6891874"><ele>97.0</ele><time>2026-04-19T11:37:27.041Z</time></trkpt><trkpt lat="41.2315764" lon="1.6889756"><ele>97.0</ele><time>2026-04-19T11:37:28.041Z</time></trkpt><trkpt lat="41.2315706" lon="1.688772"><ele>97.0</ele><time>2026-04-19T11:37:29.04Z</time></trkpt><trkpt lat="41.2315658" lon="1.6885751"><ele>97.0</ele><time>2026-04-19T11:37:30.041Z</time></trkpt><trkpt lat="41.2315604" lon="1.6883845"><ele>97.0</ele><time>2026-04-19T11:37:31.041Z</time></trkpt><trkpt lat="41.2315554" lon="1.6882121"><ele>97.6</ele><time>2026-04-19T11:37:32.041Z</time></trkpt><trkpt lat="41.2315475" lon="1.6880616"><ele>98.19999999999999</ele><time>2026-04-19T11:37:33.041Z</time></trkpt><trkpt lat="41.2315274" lon="1.6879301"><ele>98.8</ele><time>2026-04-19T11:37:34.041Z</time></trkpt><trkpt lat="41.2314842" lon="1.6878171"><ele>99.4</ele><time>2026-04-19T11:37:35.04Z</time></trkpt><trkpt lat="41.2314154" lon="1.6877374"><ele>100.0</ele><time>2026-04-19T11:37:36.041Z</time></trkpt><trkpt lat="41.2313244" lon="1.6876989"><ele>100.75</ele><time>2026-04-19T11:37:37.041Z</time></trkpt><trkpt lat="41.2312167" lon="1.6877052"><ele>101.5</ele><time>2026-04-19T11:37:38.04Z</time></trkpt><trkpt lat="41.231088" lon="1.6877443"><ele>102.25</ele><time>2026-04-19T11:37:39.04Z</time></trkpt><trkpt lat="41.230953" lon="1.6877805"><ele>103.0</ele><time>2026-04-19T11:37:40.04Z</time></trkpt><trkpt lat="41.2308235" lon="1.6877973"><ele>101.75</ele><time>2026-04-19T11:37:41.041Z</time></trkpt><trkpt lat="41.230708" lon="1.6877921"><ele>100.5</ele><time>2026-04-19T11:37:42.041Z</time></trkpt><trkpt lat="41.2305935" lon="1.6877606"><ele>99.25</ele><time>2026-04-19T11:37:43.041Z</time></trkpt><trkpt lat="41.2304782" lon="1.6877002"><ele>98.0</ele><time>2026-04-19T11:37:44.041Z</time></trkpt><trkpt lat="41.2303571" lon="1.6876158"><ele>98.0</ele><time>2026-04-19T11:37:45.04Z</time></trkpt><trkpt lat="41.2302276" lon="1.6875159"><ele>98.0</ele><time>2026-04-19T11:37:46.041Z</time></trkpt><trkpt lat="41.2300849" lon="1.6874078"><ele>98.0</ele><time>2026-04-19T11:37:47.041Z</time></trkpt><trkpt lat="41.2299256" lon="1.6872896"><ele>95.66666666666666</ele><time>2026-04-19T11:37:48.041Z</time></trkpt><trkpt lat="41.2297613" lon="1.6871684"><ele>93.33333333333333</ele><time>2026-04-19T11:37:49.041Z</time></trkpt><trkpt lat="41.2296007" lon="1.6870531"><ele>91.0</ele><time>2026-04-19T11:37:50.04Z</time></trkpt><trkpt lat="41.2294511" lon="1.6869337"><ele>92.33333333333333</ele><time>2026-04-19T11:37:51.04Z</time></trkpt><trkpt lat="41.2293064" lon="1.6867878"><ele>93.66666666666667</ele><time>2026-04-19T11:37:52.04Z</time></trkpt><trkpt lat="41.2291633" lon="1.6866193"><ele>95.0</ele><time>2026-04-19T11:37:53.041Z</time></trkpt><trkpt lat="41.2290212" lon="1.6864493"><ele>93.0</ele><time>2026-04-19T11:37:54.04Z</time></trkpt><trkpt lat="41.2288841" lon="1.686287"><ele>91.0</ele><time>2026-04-19T11:37:55.04Z</time></trkpt><trkpt lat="41.2287594" lon="1.6861375"><ele>89.0</ele><time>2026-04-19T11:37:56.041Z</time></trkpt><trkpt lat="41.2286531" lon="1.6860042"><ele>89.0</ele><time>2026-04-19T11:37:57.041Z</time></trkpt><trkpt lat="41.228563" lon="1.6858825"><ele>89.0</ele><time>2026-04-19T11:37:58.04Z</time></trkpt><trkpt lat="41.2284861" lon="1.6857628"><ele>89.0</ele><time>2026-04-19T11:37:59.041Z</time></trkpt><trkpt lat="41.2284359" lon="1.68563"><ele>89.0</ele><time>2026-04-19T11:38:00.041Z</time></trkpt><trkpt lat="41.228411" lon="1.6854777"><ele>89.0</ele><time>2026-04-19T11:38:01.041Z</time></trkpt><trkpt lat="41.2283983" lon="1.6853008"><ele>89.0</ele><time>2026-04-19T11:38:02.04Z</time></trkpt><trkpt lat="41.22839" lon="1.6851039"><ele>89.0</ele><time>2026-04-19T11:38:03.04Z</time></trkpt><trkpt lat="41.228382" lon="1.6848964"><ele>89.0</ele><time>2026-04-19T11:38:04.041Z</time></trkpt><trkpt lat="41.2283577" lon="1.6846858"><ele>89.0</ele><time>2026-04-19T11:38:05.04Z</time></trkpt><trkpt lat="41.2283087" lon="1.6844757"><ele>89.0</ele><time>2026-04-19T11:38:06.04Z</time></trkpt><trkpt lat="41.2282492" lon="1.684273"><ele>89.0</ele><time>2026-04-19T11:38:07.041Z</time></trkpt><trkpt lat="41.228193" lon="1.6841053"><ele>88.6</ele><time>2026-04-19T11:38:08.04Z</time></trkpt><trkpt lat="41.2281517" lon="1.6839631"><ele>88.2</ele><time>2026-04-19T11:38:09.04Z</time></trkpt><trkpt lat="41.228127" lon="1.6838332"><ele>87.8</ele><time>2026-04-19T11:38:10.041Z</time></trkpt><trkpt lat="41.2281269" lon="1.6836982"><ele>87.39999999999999</ele><time>2026-04-19T11:38:11.041Z</time></trkpt><trkpt lat="41.2281524" lon="1.6835436"><ele>87.0</ele><time>2026-04-19T11:38:12.041Z</time></trkpt><trkpt lat="41.2281943" lon="1.6833711"><ele>86.0</ele><time>2026-04-19T11:38:13.041Z</time></trkpt><trkpt lat="41.2282384" lon="1.683184"><ele>85.0</ele><time>2026-04-19T11:38:14.04Z</time></trkpt><trkpt lat="41.2282732" lon="1.6829695"><ele>84.0</ele><time>2026-04-19T11:38:15.041Z</time></trkpt><trkpt lat="41.2283023" lon="1.6827349"><ele>82.66666666666667</ele><time>2026-04-19T11:38:16.041Z</time></trkpt><trkpt lat="41.2283293" lon="1.6824933"><ele>81.33333333333334</ele><time>2026-04-19T11:38:17.04Z</time></trkpt><trkpt lat="41.2283552" lon="1.6822541"><ele>80.0</ele><time>2026-04-19T11:38:18.04Z</time></trkpt><trkpt lat="41.2283788" lon="1.6820234"><ele>79.33333333333334</ele><time>2026-04-19T11:38:19.04Z</time></trkpt><trkpt lat="41.2284008" lon="1.6817991"><ele>78.66666666666667</ele><time>2026-04-19T11:38:20.041Z</time></trkpt><trkpt lat="41.228421" lon="1.6815815"><ele>78.0</ele><time>2026-04-19T11:38:21.041Z</time></trkpt><trkpt lat="41.2284311" lon="1.6813677"><ele>78.0</ele><time>2026-04-19T11:38:22.04Z</time></trkpt><trkpt lat="41.2284198" lon="1.6811478"><ele>78.0</ele><time>2026-04-19T11:38:23.041Z</time></trkpt><trkpt lat="41.2283905" lon="1.6809218"><ele>78.0</ele><time>2026-04-19T11:38:24.041Z</time></trkpt><trkpt lat="41.2283535" lon="1.6806951"><ele>77.0</ele><time>2026-04-19T11:38:25.041Z</time></trkpt><trkpt lat="41.2283164" lon="1.6804736"><ele>76.0</ele><time>2026-04-19T11:38:26.041Z</time></trkpt><trkpt lat="41.2282812" lon="1.6802608"><ele>75.0</ele><time>2026-04-19T11:38:27.04Z</time></trkpt><trkpt lat="41.2282472" lon="1.6800527"><ele>74.33333333333333</ele><time>2026-04-19T11:38:28.041Z</time></trkpt><trkpt lat="41.2282126" lon="1.6798492"><ele>73.66666666666666</ele><time>2026-04-19T11:38:29.04Z</time></trkpt><trkpt lat="41.228177" lon="1.6796498"><ele>73.0</ele><time>2026-04-19T11:38:30.041Z</time></trkpt><trkpt lat="41.2281435" lon="1.679457"><ele>70.75</ele><time>2026-04-19T11:38:31.04Z</time></trkpt><trkpt lat="41.2281131" lon="1.6792791"><ele>68.5</ele><time>2026-04-19T11:38:32.04Z</time></trkpt><trkpt lat="41.2280868" lon="1.6791145"><ele>66.25</ele><time>2026-04-19T11:38:33.041Z</time></trkpt><trkpt lat="41.2280687" lon="1.6789683"><ele>64.0</ele><time>2026-04-19T11:38:34.041Z</time></trkpt><trkpt lat="41.2280623" lon="1.6788343"><ele>63.99999999999999</ele><time>2026-04-19T11:38:35.041Z</time></trkpt><trkpt lat="41.2280691" lon="1.6787215"><ele>64.0</ele><time>2026-04-19T11:38:36.041Z</time></trkpt><trkpt lat="41.2280895" lon="1.6786314"><ele>64.0</ele><time>2026-04-19T11:38:37.041Z</time></trkpt><trkpt lat="41.2281861" lon="1.6785086"><ele>64.0</ele><time>2026-04-19T11:38:39.041Z</time></trkpt><trkpt lat="41.228234" lon="1.6784345"><ele>63.99999999999999</ele><time>2026-04-19T11:38:40.041Z</time></trkpt><trkpt lat="41.2282584" lon="1.6783391"><ele>64.0</ele><time>2026-04-19T11:38:41.041Z</time></trkpt><trkpt lat="41.2282761" lon="1.678235"><ele>63.6</ele><time>2026-04-19T11:38:42.041Z</time></trkpt><trkpt lat="41.2282721" lon="1.6781132"><ele>63.2</ele><time>2026-04-19T11:38:43.04Z</time></trkpt><trkpt lat="41.2282946" lon="1.6779904"><ele>62.800000000000004</ele><time>2026-04-19T11:38:44.04Z</time></trkpt><trkpt lat="41.2283527" lon="1.6778604"><ele>62.400000000000006</ele><time>2026-04-19T11:38:45.041Z</time></trkpt><trkpt lat="41.2284452" lon="1.6777308"><ele>62.0</ele><time>2026-04-19T11:38:46.041Z</time></trkpt><trkpt lat="41.2285342" lon="1.6776187"><ele>61.6</ele><time>2026-04-19T11:38:47.04Z</time></trkpt><trkpt lat="41.2286152" lon="1.6775049"><ele>61.2</ele><time>2026-04-19T11:38:48.04Z</time></trkpt><trkpt lat="41.2287009" lon="1.6774023"><ele>60.8</ele><time>2026-04-19T11:38:49.041Z</time></trkpt><trkpt lat="41.2287853" lon="1.6773393"><ele>60.4</ele><time>2026-04-19T11:38:50.04Z</time></trkpt><trkpt lat="41.228882" lon="1.6773127"><ele>60.0</ele><time>2026-04-19T11:38:51.041Z</time></trkpt><trkpt lat="41.2289696" lon="1.6772704"><ele>59.6</ele><time>2026-04-19T11:38:52.04Z</time></trkpt><trkpt lat="41.2290351" lon="1.6771929"><ele>59.2</ele><time>2026-04-19T11:38:53.04Z</time></trkpt><trkpt lat="41.229074" lon="1.6770824"><ele>58.8</ele><time>2026-04-19T11:38:54.04Z</time></trkpt><trkpt lat="41.2290805" lon="1.6769514"><ele>58.4</ele><time>2026-04-19T11:38:55.041Z</time></trkpt><trkpt lat="41.2290532" lon="1.6767762"><ele>58.0</ele><time>2026-04-19T11:38:56.041Z</time></trkpt><trkpt lat="41.2289909" lon="1.676591"><ele>58.0</ele><time>2026-04-19T11:38:57.041Z</time></trkpt><trkpt lat="41.2289907" lon="1.6763891"><ele>58.0</ele><time>2026-04-19T11:38:58.041Z</time></trkpt><trkpt lat="41.2289923" lon="1.6761692"><ele>58.0</ele><time>2026-04-19T11:38:59.041Z</time></trkpt><trkpt lat="41.2289927" lon="1.6759277"><ele>57.33333333333333</ele><time>2026-04-19T11:39:00.04Z</time></trkpt><trkpt lat="41.2289899" lon="1.6756945"><ele>56.66666666666667</ele><time>2026-04-19T11:39:01.04Z</time></trkpt><trkpt lat="41.2289891" lon="1.6754714"><ele>56.0</ele><time>2026-04-19T11:39:02.04Z</time></trkpt><trkpt lat="41.2289867" lon="1.6752619"><ele>55.5</ele><time>2026-04-19T11:39:03.041Z</time></trkpt><trkpt lat="41.2289826" lon="1.6750844"><ele>55.0</ele><time>2026-04-19T11:39:04.04Z</time></trkpt><trkpt lat="41.2289825" lon="1.6749182"><ele>54.5</ele><time>2026-04-19T11:39:05.04Z</time></trkpt><trkpt lat="41.2289852" lon="1.674757"><ele>54.0</ele><time>2026-04-19T11:39:06.041Z</time></trkpt><trkpt lat="41.2290094" lon="1.6746053"><ele>54.0</ele><time>2026-04-19T11:39:07.04Z</time></trkpt><trkpt lat="41.2290595" lon="1.6744403"><ele>54.0</ele><time>2026-04-19T11:39:08.041Z</time></trkpt><trkpt lat="41.2291343" lon="1.6742593"><ele>54.0</ele><time>2026-04-19T11:39:09.041Z</time></trkpt><trkpt lat="41.2292486" lon="1.6740319"><ele>52.75</ele><time>2026-04-19T11:39:10.041Z</time></trkpt><trkpt lat="41.2293224" lon="1.673864"><ele>51.5</ele><time>2026-04-19T11:39:11.041Z</time></trkpt><trkpt lat="41.2293944" lon="1.6737008"><ele>50.25</ele><time>2026-04-19T11:39:12.041Z</time></trkpt><trkpt lat="41.2294601" lon="1.6735479"><ele>49.0</ele><time>2026-04-19T11:39:13.041Z</time></trkpt><trkpt lat="41.2295171" lon="1.6734231"><ele>48.2</ele><time>2026-04-19T11:39:14.041Z</time></trkpt><trkpt lat="41.2295826" lon="1.6733214"><ele>47.400000000000006</ele><time>2026-04-19T11:39:15.041Z</time></trkpt><trkpt lat="41.229668" lon="1.6732409"><ele>46.6</ele><time>2026-04-19T11:39:16.041Z</time></trkpt><trkpt lat="41.2297763" lon="1.6731835"><ele>45.8</ele><time>2026-04-19T11:39:17.04Z</time></trkpt><trkpt lat="41.2298925" lon="1.6731383"><ele>45.0</ele><time>2026-04-19T11:39:18.04Z</time></trkpt><trkpt lat="41.2300075" lon="1.6730836"><ele>45.0</ele><time>2026-04-19T11:39:19.04Z</time></trkpt><trkpt lat="41.2301235" lon="1.6730018"><ele>45.0</ele><time>2026-04-19T11:39:20.041Z</time></trkpt><trkpt lat="41.2302188" lon="1.672881"><ele>45.0</ele><time>2026-04-19T11:39:21.04Z</time></trkpt><trkpt lat="41.2302877" lon="1.6727165"><ele>45.0</ele><time>2026-04-19T11:39:22.041Z</time></trkpt><trkpt lat="41.2303294" lon="1.6725097"><ele>42.666666666666664</ele><time>2026-04-19T11:39:23.041Z</time></trkpt><trkpt lat="41.2303682" lon="1.6722671"><ele>40.33333333333333</ele><time>2026-04-19T11:39:24.041Z</time></trkpt><trkpt lat="41.2304022" lon="1.6719958"><ele>38.0</ele><time>2026-04-19T11:39:25.04Z</time></trkpt><trkpt lat="41.2304395" lon="1.6717115"><ele>38.0</ele><time>2026-04-19T11:39:26.041Z</time></trkpt><trkpt lat="41.2304749" lon="1.6714307"><ele>38.0</ele><time>2026-04-19T11:39:27.041Z</time></trkpt><trkpt lat="41.230512" lon="1.6711568"><ele>38.0</ele><time>2026-04-19T11:39:28.041Z</time></trkpt><trkpt lat="41.2305469" lon="1.6709094"><ele>37.33333333333333</ele><time>2026-04-19T11:39:29.041Z</time></trkpt><trkpt lat="41.2305781" lon="1.6706797"><ele>36.666666666666664</ele><time>2026-04-19T11:39:30.041Z</time></trkpt><trkpt lat="41.2306027" lon="1.6704659"><ele>36.0</ele><time>2026-04-19T11:39:31.041Z</time></trkpt><trkpt lat="41.2306127" lon="1.6702622"><ele>35.5</ele><time>2026-04-19T11:39:32.04Z</time></trkpt><trkpt lat="41.2306117" lon="1.6700638"><ele>35.0</ele><time>2026-04-19T11:39:33.041Z</time></trkpt><trkpt lat="41.2306044" lon="1.6698776"><ele>34.5</ele><time>2026-04-19T11:39:34.041Z</time></trkpt><trkpt lat="41.2306032" lon="1.669709"><ele>34.0</ele><time>2026-04-19T11:39:35.04Z</time></trkpt><trkpt lat="41.2306116" lon="1.6695499"><ele>35.0</ele><time>2026-04-19T11:39:36.041Z</time></trkpt><trkpt lat="41.2306412" lon="1.6693973"><ele>36.0</ele><time>2026-04-19T11:39:37.04Z</time></trkpt><trkpt lat="41.2306943" lon="1.6692485"><ele>37.0</ele><time>2026-04-19T11:39:38.04Z</time></trkpt><trkpt lat="41.2307662" lon="1.6691166"><ele>38.0</ele><time>2026-04-19T11:39:39.041Z</time></trkpt><trkpt lat="41.2308601" lon="1.6690099"><ele>38.0</ele><time>2026-04-19T11:39:40.04Z</time></trkpt><trkpt lat="41.2309721" lon="1.6689294"><ele>38.0</ele><time>2026-04-19T11:39:41.041Z</time></trkpt><trkpt lat="41.2310935" lon="1.6688638"><ele>38.0</ele><time>2026-04-19T11:39:42.041Z</time></trkpt><trkpt lat="41.2312206" lon="1.6688116"><ele>38.0</ele><time>2026-04-19T11:39:43.041Z</time></trkpt><trkpt lat="41.2313491" lon="1.6687735"><ele>40.75</ele><time>2026-04-19T11:39:44.041Z</time></trkpt><trkpt lat="41.2314755" lon="1.6687572"><ele>43.5</ele><time>2026-04-19T11:39:45.04Z</time></trkpt><trkpt lat="41.2316035" lon="1.668761"><ele>46.25</ele><time>2026-04-19T11:39:46.04Z</time></trkpt><trkpt lat="41.2317372" lon="1.6687705"><ele>49.0</ele><time>2026-04-19T11:39:47.04Z</time></trkpt><trkpt lat="41.2318758" lon="1.6687711"><ele>49.0</ele><time>2026-04-19T11:39:48.041Z</time></trkpt><trkpt lat="41.2320248" lon="1.6687421"><ele>49.0</ele><time>2026-04-19T11:39:49.041Z</time></trkpt><trkpt lat="41.2321709" lon="1.6686942"><ele>49.0</ele><time>2026-04-19T11:39:50.04Z</time></trkpt><trkpt lat="41.2323099" lon="1.6686405"><ele>49.0</ele><time>2026-04-19T11:39:51.041Z</time></trkpt><trkpt lat="41.2324421" lon="1.6685877"><ele>46.25</ele><time>2026-04-19T11:39:52.04Z</time></trkpt><trkpt lat="41.2325608" lon="1.6685302"><ele>43.5</ele><time>2026-04-19T11:39:53.041Z</time></trkpt><trkpt lat="41.2326585" lon="1.6684521"><ele>40.75</ele><time>2026-04-19T11:39:54.04Z</time></trkpt><trkpt lat="41.2327275" lon="1.6683407"><ele>38.0</ele><time>2026-04-19T11:39:55.04Z</time></trkpt><trkpt lat="41.2327596" lon="1.6682034"><ele>38.0</ele><time>2026-04-19T11:39:56.041Z</time></trkpt><trkpt lat="41.2327593" lon="1.6680371"><ele>38.0</ele><time>2026-04-19T11:39:57.041Z</time></trkpt><trkpt lat="41.2327442" lon="1.6678378"><ele>38.0</ele><time>2026-04-19T11:39:58.041Z</time></trkpt><trkpt lat="41.2327251" lon="1.6676285"><ele>38.0</ele><time>2026-04-19T11:39:59.04Z</time></trkpt><trkpt lat="41.2327077" lon="1.6674106"><ele>38.33333333333333</ele><time>2026-04-19T11:40:00.041Z</time></trkpt><trkpt lat="41.2326919" lon="1.6671948"><ele>38.666666666666664</ele><time>2026-04-19T11:40:01.041Z</time></trkpt><trkpt lat="41.2326816" lon="1.6669914"><ele>39.0</ele><time>2026-04-19T11:40:02.041Z</time></trkpt><trkpt lat="41.2326846" lon="1.6668062"><ele>39.0</ele><time>2026-04-19T11:40:03.041Z</time></trkpt><trkpt lat="41.2327059" lon="1.6666139"><ele>39.0</ele><time>2026-04-19T11:40:04.04Z</time></trkpt><trkpt lat="41.2327419" lon="1.6664184"><ele>39.0</ele><time>2026-04-19T11:40:05.041Z</time></trkpt><trkpt lat="41.2327902" lon="1.6662067"><ele>38.333333333333336</ele><time>2026-04-19T11:40:06.041Z</time></trkpt><trkpt lat="41.2328401" lon="1.6659999"><ele>37.66666666666667</ele><time>2026-04-19T11:40:07.041Z</time></trkpt><trkpt lat="41.2328895" lon="1.665802"><ele>37.0</ele><time>2026-04-19T11:40:08.041Z</time></trkpt><trkpt lat="41.2329341" lon="1.6656218"><ele>37.0</ele><time>2026-04-19T11:40:09.041Z</time></trkpt><trkpt lat="41.2329739" lon="1.6654624"><ele>37.0</ele><time>2026-04-19T11:40:10.04Z</time></trkpt><trkpt lat="41.2330112" lon="1.6653152"><ele>37.0</ele><time>2026-04-19T11:40:11.04Z</time></trkpt><trkpt lat="41.2330557" lon="1.6651841"><ele>37.0</ele><time>2026-04-19T11:40:12.04Z</time></trkpt><trkpt lat="41.2331156" lon="1.6650698"><ele>38.0</ele><time>2026-04-19T11:40:13.041Z</time></trkpt><trkpt lat="41.2331932" lon="1.6649728"><ele>39.0</ele><time>2026-04-19T11:40:14.04Z</time></trkpt><trkpt lat="41.2332945" lon="1.6649005"><ele>40.0</ele><time>2026-04-19T11:40:15.04Z</time></trkpt><trkpt lat="41.233416" lon="1.6648499"><ele>41.0</ele><time>2026-04-19T11:40:16.04Z</time></trkpt><trkpt lat="41.2335537" lon="1.6648068"><ele>41.0</ele><time>2026-04-19T11:40:17.04Z</time></trkpt><trkpt lat="41.2336892" lon="1.6647668"><ele>41.0</ele><time>2026-04-19T11:40:18.041Z</time></trkpt><trkpt lat="41.2338173" lon="1.6647213"><ele>41.0</ele><time>2026-04-19T11:40:19.04Z</time></trkpt><trkpt lat="41.2339422" lon="1.6646737"><ele>41.0</ele><time>2026-04-19T11:40:20.04Z</time></trkpt><trkpt lat="41.2340709" lon="1.6646201"><ele>39.666666666666664</ele><time>2026-04-19T11:40:21.04Z</time></trkpt><trkpt lat="41.2342162" lon="1.6645523"><ele>38.333333333333336</ele><time>2026-04-19T11:40:22.04Z</time></trkpt><trkpt lat="41.2343676" lon="1.6644713"><ele>37.0</ele><time>2026-04-19T11:40:23.04Z</time></trkpt><trkpt lat="41.2345417" lon="1.6643707"><ele>36.333333333333336</ele><time>2026-04-19T11:40:24.041Z</time></trkpt><trkpt lat="41.2347358" lon="1.664259"><ele>35.666666666666664</ele><time>2026-04-19T11:40:25.041Z</time></trkpt><trkpt lat="41.2349284" lon="1.6641529"><ele>35.0</ele><time>2026-04-19T11:40:26.04Z</time></trkpt><trkpt lat="41.2351153" lon="1.6640539"><ele>35.0</ele><time>2026-04-19T11:40:27.041Z</time></trkpt><trkpt lat="41.235298" lon="1.66396"><ele>35.0</ele><time>2026-04-19T11:40:28.041Z</time></trkpt><trkpt lat="41.2354897" lon="1.6638747"><ele>35.0</ele><time>2026-04-19T11:40:29.041Z</time></trkpt><trkpt lat="41.23569" lon="1.6638148"><ele>36.0</ele><time>2026-04-19T11:40:30.041Z</time></trkpt><trkpt lat="41.2358898" lon="1.6637861"><ele>37.0</ele><time>2026-04-19T11:40:31.041Z</time></trkpt><trkpt lat="41.2360829" lon="1.6637794"><ele>38.0</ele><time>2026-04-19T11:40:32.041Z</time></trkpt><trkpt lat="41.2362682" lon="1.6637811"><ele>38.0</ele><time>2026-04-19T11:40:33.04Z</time></trkpt><trkpt lat="41.2364445" lon="1.6637797"><ele>38.0</ele><time>2026-04-19T11:40:34.041Z</time></trkpt><trkpt lat="41.2366141" lon="1.6637645"><ele>38.0</ele><time>2026-04-19T11:40:35.041Z</time></trkpt><trkpt lat="41.2367731" lon="1.6637253"><ele>40.25</ele><time>2026-04-19T11:40:36.04Z</time></trkpt><trkpt lat="41.2369191" lon="1.6636744"><ele>42.5</ele><time>2026-04-19T11:40:37.041Z</time></trkpt><trkpt lat="41.237057" lon="1.6636484"><ele>44.75</ele><time>2026-04-19T11:40:38.04Z</time></trkpt><trkpt lat="41.2371973" lon="1.6636645"><ele>47.0</ele><time>2026-04-19T11:40:39.04Z</time></trkpt><trkpt lat="41.2373473" lon="1.6637294"><ele>48.666666666666664</ele><time>2026-04-19T11:40:40.041Z</time></trkpt><trkpt lat="41.237498" lon="1.6638186"><ele>50.33333333333333</ele><time>2026-04-19T11:40:41.041Z</time></trkpt><trkpt lat="41.2376574" lon="1.6639117"><ele>52.0</ele><time>2026-04-19T11:40:42.041Z</time></trkpt><trkpt lat="41.237824" lon="1.6640032"><ele>52.0</ele><time>2026-04-19T11:40:43.04Z</time></trkpt><trkpt lat="41.2379988" lon="1.6640926"><ele>52.0</ele><time>2026-04-19T11:40:44.041Z</time></trkpt><trkpt lat="41.2381704" lon="1.6641758"><ele>52.0</ele><time>2026-04-19T11:40:45.041Z</time></trkpt><trkpt lat="41.2383329" lon="1.6642552"><ele>49.666666666666664</ele><time>2026-04-19T11:40:46.041Z</time></trkpt><trkpt lat="41.2384916" lon="1.6643247"><ele>47.33333333333333</ele><time>2026-04-19T11:40:47.041Z</time></trkpt><trkpt lat="41.2386498" lon="1.6643687"><ele>45.0</ele><time>2026-04-19T11:40:48.041Z</time></trkpt><trkpt lat="41.238807" lon="1.6643835"><ele>45.0</ele><time>2026-04-19T11:40:49.041Z</time></trkpt><trkpt lat="41.2389639" lon="1.6643814"><ele>45.0</ele><time>2026-04-19T11:40:50.04Z</time></trkpt><trkpt lat="41.2391183" lon="1.664369"><ele>45.0</ele><time>2026-04-19T11:40:51.041Z</time></trkpt><trkpt lat="41.2392686" lon="1.6643578"><ele>45.0</ele><time>2026-04-19T11:40:52.041Z</time></trkpt><trkpt lat="41.2394093" lon="1.6643491"><ele>45.0</ele><time>2026-04-19T11:40:53.041Z</time></trkpt><trkpt lat="41.239544" lon="1.6643428"><ele>45.0</ele><time>2026-04-19T11:40:54.041Z</time></trkpt><trkpt lat="41.2396715" lon="1.6643321"><ele>45.0</ele><time>2026-04-19T11:40:55.041Z</time></trkpt><trkpt lat="41.2397977" lon="1.6643066"><ele>46.25</ele><time>2026-04-19T11:40:56.04Z</time></trkpt><trkpt lat="41.2399235" lon="1.6642548"><ele>47.5</ele><time>2026-04-19T11:40:57.041Z</time></trkpt><trkpt lat="41.2400461" lon="1.664181"><ele>48.75</ele><time>2026-04-19T11:40:58.04Z</time></trkpt><trkpt lat="41.2401695" lon="1.6641009"><ele>50.0</ele><time>2026-04-19T11:40:59.04Z</time></trkpt><trkpt lat="41.2402941" lon="1.664025"><ele>50.0</ele><time>2026-04-19T11:41:00.041Z</time></trkpt><trkpt lat="41.2404122" lon="1.6639521"><ele>50.0</ele><time>2026-04-19T11:41:01.04Z</time></trkpt><trkpt lat="41.2405176" lon="1.6638756"><ele>50.0</ele><time>2026-04-19T11:41:02.04Z</time></trkpt><trkpt lat="41.2406082" lon="1.6637757"><ele>50.0</ele><time>2026-04-19T11:41:03.04Z</time></trkpt><trkpt lat="41.24069" lon="1.6636479"><ele>49.75</ele><time>2026-04-19T11:41:04.041Z</time></trkpt><trkpt lat="41.2407661" lon="1.6635129"><ele>49.5</ele><time>2026-04-19T11:41:05.04Z</time></trkpt><trkpt lat="41.2408397" lon="1.6633764"><ele>49.25</ele><time>2026-04-19T11:41:06.041Z</time></trkpt><trkpt lat="41.2409097" lon="1.663236"><ele>49.0</ele><time>2026-04-19T11:41:07.041Z</time></trkpt><trkpt lat="41.2409694" lon="1.6630838"><ele>49.0</ele><time>2026-04-19T11:41:08.04Z</time></trkpt><trkpt lat="41.2410067" lon="1.6629118"><ele>49.0</ele><time>2026-04-19T11:41:09.041Z</time></trkpt><trkpt lat="41.2410205" lon="1.6627084"><ele>49.0</ele><time>2026-04-19T11:41:10.041Z</time></trkpt><trkpt lat="41.2410211" lon="1.6624885"><ele>49.666666666666664</ele><time>2026-04-19T11:41:11.04Z</time></trkpt><trkpt lat="41.2410223" lon="1.6622476"><ele>50.33333333333333</ele><time>2026-04-19T11:41:12.041Z</time></trkpt><trkpt lat="41.241021" lon="1.6620066"><ele>51.0</ele><time>2026-04-19T11:41:13.041Z</time></trkpt><trkpt lat="41.2410193" lon="1.6617759"><ele>51.0</ele><time>2026-04-19T11:41:14.041Z</time></trkpt><trkpt lat="41.2410314" lon="1.6615506"><ele>51.0</ele><time>2026-04-19T11:41:15.04Z</time></trkpt><trkpt lat="41.2410701" lon="1.6613156"><ele>51.0</ele><time>2026-04-19T11:41:16.04Z</time></trkpt><trkpt lat="41.2411292" lon="1.6610729"><ele>51.33333333333333</ele><time>2026-04-19T11:41:17.04Z</time></trkpt><trkpt lat="41.2411941" lon="1.6608441"><ele>51.666666666666664</ele><time>2026-04-19T11:41:18.041Z</time></trkpt><trkpt lat="41.2412601" lon="1.6606414"><ele>52.0</ele><time>2026-04-19T11:41:19.041Z</time></trkpt><trkpt lat="41.2413403" lon="1.6604723"><ele>52.0</ele><time>2026-04-19T11:41:20.041Z</time></trkpt><trkpt lat="41.2414461" lon="1.6603422"><ele>52.0</ele><time>2026-04-19T11:41:21.04Z</time></trkpt><trkpt lat="41.2415649" lon="1.6602428"><ele>52.0</ele><time>2026-04-19T11:41:22.041Z</time></trkpt><trkpt lat="41.24169" lon="1.6601835"><ele>52.0</ele><time>2026-04-19T11:41:23.041Z</time></trkpt><trkpt lat="41.2418293" lon="1.6601677"><ele>54.0</ele><time>2026-04-19T11:41:24.041Z</time></trkpt><trkpt lat="41.2419752" lon="1.660183"><ele>56.0</ele><time>2026-04-19T11:41:25.041Z</time></trkpt><trkpt lat="41.2421181" lon="1.6602213"><ele>58.0</ele><time>2026-04-19T11:41:26.041Z</time></trkpt><trkpt lat="41.2422518" lon="1.6602851"><ele>60.0</ele><time>2026-04-19T11:41:27.041Z</time></trkpt><trkpt lat="41.2423788" lon="1.6603783"><ele>62.0</ele><time>2026-04-19T11:41:28.041Z</time></trkpt><trkpt lat="41.2425003" lon="1.6605007"><ele>64.0</ele><time>2026-04-19T11:41:29.041Z</time></trkpt><trkpt lat="41.2426225" lon="1.6606371"><ele>66.0</ele><time>2026-04-19T11:41:30.041Z</time></trkpt><trkpt lat="41.2427489" lon="1.6607811"><ele>66.0</ele><time>2026-04-19T11:41:31.041Z</time></trkpt><trkpt lat="41.2428713" lon="1.6609221"><ele>66.0</ele><time>2026-04-19T11:41:32.04Z</time></trkpt><trkpt lat="41.2429907" lon="1.6610579"><ele>66.0</ele><time>2026-04-19T11:41:33.041Z</time></trkpt><trkpt lat="41.2431036" lon="1.6611934"><ele>65.5</ele><time>2026-04-19T11:41:34.04Z</time></trkpt><trkpt lat="41.2432081" lon="1.6613331"><ele>65.0</ele><time>2026-04-19T11:41:35.041Z</time></trkpt><trkpt lat="41.2433069" lon="1.6614698"><ele>64.5</ele><time>2026-04-19T11:41:36.041Z</time></trkpt><trkpt lat="41.2433989" lon="1.6616013"><ele>64.0</ele><time>2026-04-19T11:41:37.041Z</time></trkpt><trkpt lat="41.2434846" lon="1.6617297"><ele>64.0</ele><time>2026-04-19T11:41:38.04Z</time></trkpt><trkpt lat="41.2435707" lon="1.6618545"><ele>64.0</ele><time>2026-04-19T11:41:39.041Z</time></trkpt><trkpt lat="41.2436553" lon="1.6619866"><ele>64.0</ele><time>2026-04-19T11:41:40.041Z</time></trkpt><trkpt lat="41.2437397" lon="1.6621237"><ele>64.0</ele><time>2026-04-19T11:41:41.041Z</time></trkpt><trkpt lat="41.2438199" lon="1.6622686"><ele>61.75</ele><time>2026-04-19T11:41:42.041Z</time></trkpt><trkpt lat="41.2438957" lon="1.6624195"><ele>59.5</ele><time>2026-04-19T11:41:43.04Z</time></trkpt><trkpt lat="41.2439721" lon="1.6625789"><ele>57.25</ele><time>2026-04-19T11:41:44.04Z</time></trkpt><trkpt lat="41.2440595" lon="1.6627488"><ele>55.0</ele><time>2026-04-19T11:41:45.04Z</time></trkpt><trkpt lat="41.2441621" lon="1.6629113"><ele>63.33333333333333</ele><time>2026-04-19T11:41:46.041Z</time></trkpt><trkpt lat="41.2442918" lon="1.663076"><ele>71.66666666666667</ele><time>2026-04-19T11:41:47.04Z</time></trkpt><trkpt lat="41.2444417" lon="1.66326"><ele>80.0</ele><time>2026-04-19T11:41:48.04Z</time></trkpt><trkpt lat="41.2445974" lon="1.6634517"><ele>80.0</ele><time>2026-04-19T11:41:49.04Z</time></trkpt><trkpt lat="41.2447494" lon="1.6636417"><ele>80.0</ele><time>2026-04-19T11:41:50.041Z</time></trkpt><trkpt lat="41.2449033" lon="1.6638001"><ele>80.0</ele><time>2026-04-19T11:41:51.041Z</time></trkpt><trkpt lat="41.2450608" lon="1.6639321"><ele>80.0</ele><time>2026-04-19T11:41:52.041Z</time></trkpt><trkpt lat="41.245219" lon="1.6640452"><ele>80.0</ele><time>2026-04-19T11:41:53.041Z</time></trkpt><trkpt lat="41.2453667" lon="1.6641488"><ele>80.0</ele><time>2026-04-19T11:41:54.04Z</time></trkpt><trkpt lat="41.2455028" lon="1.6642413"><ele>76.75</ele><time>2026-04-19T11:41:55.04Z</time></trkpt><trkpt lat="41.2456347" lon="1.6643144"><ele>73.5</ele><time>2026-04-19T11:41:56.04Z</time></trkpt><trkpt lat="41.2457714" lon="1.6643577"><ele>70.25</ele><time>2026-04-19T11:41:57.041Z</time></trkpt><trkpt lat="41.245911" lon="1.664354"><ele>67.0</ele><time>2026-04-19T11:41:58.041Z</time></trkpt><trkpt lat="41.2460524" lon="1.6643247"><ele>67.0</ele><time>2026-04-19T11:41:59.041Z</time></trkpt><trkpt lat="41.2461915" lon="1.6642767"><ele>67.0</ele><time>2026-04-19T11:42:00.041Z</time></trkpt><trkpt lat="41.2463164" lon="1.6642199"><ele>67.0</ele><time>2026-04-19T11:42:01.04Z</time></trkpt><trkpt lat="41.2464329" lon="1.6641423"><ele>67.0</ele><time>2026-04-19T11:42:02.04Z</time></trkpt><trkpt lat="41.246544" lon="1.6640354"><ele>66.25</ele><time>2026-04-19T11:42:03.041Z</time></trkpt><trkpt lat="41.2466532" lon="1.6639201"><ele>65.5</ele><time>2026-04-19T11:42:04.041Z</time></trkpt><trkpt lat="41.246757" lon="1.6638083"><ele>64.75</ele><time>2026-04-19T11:42:05.04Z</time></trkpt><trkpt lat="41.2468543" lon="1.6637005"><ele>64.0</ele><time>2026-04-19T11:42:06.041Z</time></trkpt><trkpt lat="41.2469386" lon="1.6635942"><ele>62.6</ele><time>2026-04-19T11:42:07.04Z</time></trkpt><trkpt lat="41.2469994" lon="1.6634825"><ele>61.2</ele><time>2026-04-19T11:42:08.04Z</time></trkpt><trkpt lat="41.247028" lon="1.6633581"><ele>59.800000000000004</ele><time>2026-04-19T11:42:09.041Z</time></trkpt><trkpt lat="41.2470244" lon="1.6632087"><ele>58.400000000000006</ele><time>2026-04-19T11:42:10.041Z</time></trkpt><trkpt lat="41.246995" lon="1.6630368"><ele>57.0</ele><time>2026-04-19T11:42:11.04Z</time></trkpt><trkpt lat="41.2469581" lon="1.662848"><ele>59.0</ele><time>2026-04-19T11:42:12.04Z</time></trkpt><trkpt lat="41.2469185" lon="1.6626502"><ele>61.0</ele><time>2026-04-19T11:42:13.04Z</time></trkpt><trkpt lat="41.2468796" lon="1.6624535"><ele>63.0</ele><time>2026-04-19T11:42:14.041Z</time></trkpt><trkpt lat="41.2468344" lon="1.66224"><ele>63.0</ele><time>2026-04-19T11:42:15.04Z</time></trkpt><trkpt lat="41.2467789" lon="1.6620196"><ele>63.0</ele><time>2026-04-19T11:42:16.041Z</time></trkpt><trkpt lat="41.246705" lon="1.6617879"><ele>63.0</ele><time>2026-04-19T11:42:17.041Z</time></trkpt><trkpt lat="41.2466193" lon="1.6615593"><ele>61.66666666666667</ele><time>2026-04-19T11:42:18.041Z</time></trkpt><trkpt lat="41.2465318" lon="1.6613354"><ele>60.333333333333336</ele><time>2026-04-19T11:42:19.041Z</time></trkpt><trkpt lat="41.2464485" lon="1.6611074"><ele>59.0</ele><time>2026-04-19T11:42:20.041Z</time></trkpt><trkpt lat="41.2463665" lon="1.6608724"><ele>59.0</ele><time>2026-04-19T11:42:21.04Z</time></trkpt><trkpt lat="41.2462926" lon="1.6606429"><ele>59.0</ele><time>2026-04-19T11:42:22.04Z</time></trkpt><trkpt lat="41.2462262" lon="1.6604266"><ele>59.0</ele><time>2026-04-19T11:42:23.04Z</time></trkpt><trkpt lat="41.2461722" lon="1.6602163"><ele>62.0</ele><time>2026-04-19T11:42:24.04Z</time></trkpt><trkpt lat="41.2461405" lon="1.6600015"><ele>65.0</ele><time>2026-04-19T11:42:25.041Z</time></trkpt><trkpt lat="41.2461305" lon="1.6597976"><ele>68.0</ele><time>2026-04-19T11:42:26.041Z</time></trkpt><trkpt lat="41.2461334" lon="1.6596161"><ele>68.0</ele><time>2026-04-19T11:42:27.041Z</time></trkpt><trkpt lat="41.2461525" lon="1.6594612"><ele>68.0</ele><time>2026-04-19T11:42:28.041Z</time></trkpt><trkpt lat="41.2461951" lon="1.6593364"><ele>68.0</ele><time>2026-04-19T11:42:29.041Z</time></trkpt><trkpt lat="41.2462598" lon="1.6592532"><ele>68.0</ele><time>2026-04-19T11:42:30.041Z</time></trkpt><trkpt lat="41.2463467" lon="1.6592137"><ele>68.0</ele><time>2026-04-19T11:42:31.04Z</time></trkpt><trkpt lat="41.246445" lon="1.6592103"><ele>70.0</ele><time>2026-04-19T11:42:32.041Z</time></trkpt><trkpt lat="41.2465578" lon="1.6592244"><ele>72.0</ele><time>2026-04-19T11:42:33.04Z</time></trkpt><trkpt lat="41.24668" lon="1.6592418"><ele>74.0</ele><time>2026-04-19T11:42:34.04Z</time></trkpt><trkpt lat="41.246807" lon="1.6592576"><ele>76.0</ele><time>2026-04-19T11:42:35.041Z</time></trkpt><trkpt lat="41.2469345" lon="1.6592712"><ele>76.0</ele><time>2026-04-19T11:42:36.041Z</time></trkpt><trkpt lat="41.2470625" lon="1.6592847"><ele>76.0</ele><time>2026-04-19T11:42:37.04Z</time></trkpt><trkpt lat="41.2471999" lon="1.6593125"><ele>76.0</ele><time>2026-04-19T11:42:38.041Z</time></trkpt><trkpt lat="41.2473526" lon="1.6593659"><ele>76.0</ele><time>2026-04-19T11:42:39.041Z</time></trkpt><trkpt lat="41.2475098" lon="1.6594423"><ele>83.0</ele><time>2026-04-19T11:42:40.041Z</time></trkpt><trkpt lat="41.2476768" lon="1.659539"><ele>90.0</ele><time>2026-04-19T11:42:41.04Z</time></trkpt><trkpt lat="41.2478503" lon="1.6596567"><ele>97.0</ele><time>2026-04-19T11:42:42.041Z</time></trkpt><trkpt lat="41.2480114" lon="1.6597841"><ele>95.0</ele><time>2026-04-19T11:42:43.041Z</time></trkpt><trkpt lat="41.2481579" lon="1.6599115"><ele>93.0</ele><time>2026-04-19T11:42:44.041Z</time></trkpt><trkpt lat="41.2482968" lon="1.660026"><ele>91.0</ele><time>2026-04-19T11:42:45.041Z</time></trkpt><trkpt lat="41.248445" lon="1.6601145"><ele>91.0</ele><time>2026-04-19T11:42:46.04Z</time></trkpt><trkpt lat="41.2486061" lon="1.6601681"><ele>91.0</ele><time>2026-04-19T11:42:47.041Z</time></trkpt><trkpt lat="41.2487731" lon="1.6601901"><ele>91.0</ele><time>2026-04-19T11:42:48.041Z</time></trkpt><trkpt lat="41.2489538" lon="1.6601805"><ele>88.66666666666666</ele><time>2026-04-19T11:42:49.04Z</time></trkpt><trkpt lat="41.2491494" lon="1.6601441"><ele>86.33333333333333</ele><time>2026-04-19T11:42:50.041Z</time></trkpt><trkpt lat="41.2493416" lon="1.6601041"><ele>84.0</ele><time>2026-04-19T11:42:51.041Z</time></trkpt><trkpt lat="41.2495224" lon="1.6600733"><ele>84.0</ele><time>2026-04-19T11:42:52.041Z</time></trkpt><trkpt lat="41.2496817" lon="1.6600432"><ele>84.0</ele><time>2026-04-19T11:42:53.041Z</time></trkpt><trkpt lat="41.2498181" lon="1.6599902"><ele>84.0</ele><time>2026-04-19T11:42:54.04Z</time></trkpt><trkpt lat="41.2499292" lon="1.6599084"><ele>84.0</ele><time>2026-04-19T11:42:55.041Z</time></trkpt><trkpt lat="41.2500169" lon="1.6597913"><ele>83.0</ele><time>2026-04-19T11:42:56.04Z</time></trkpt><trkpt lat="41.2500701" lon="1.6596482"><ele>82.0</ele><time>2026-04-19T11:42:57.041Z</time></trkpt><trkpt lat="41.2501067" lon="1.6594999"><ele>81.0</ele><time>2026-04-19T11:42:58.04Z</time></trkpt><trkpt lat="41.2501539" lon="1.6593625"><ele>80.0</ele><time>2026-04-19T11:42:59.041Z</time></trkpt><trkpt lat="41.2502282" lon="1.659235"><ele>80.0</ele><time>2026-04-19T11:43:00.04Z</time></trkpt><trkpt lat="41.2503307" lon="1.6591115"><ele>80.0</ele><time>2026-04-19T11:43:01.041Z</time></trkpt><trkpt lat="41.2504493" lon="1.6589824"><ele>80.0</ele><time>2026-04-19T11:43:02.041Z</time></trkpt><trkpt lat="41.2505576" lon="1.6588376"><ele>80.0</ele><time>2026-04-19T11:43:03.041Z</time></trkpt><trkpt lat="41.2506586" lon="1.6586695"><ele>82.0</ele><time>2026-04-19T11:43:04.04Z</time></trkpt><trkpt lat="41.2507393" lon="1.6584908"><ele>84.0</ele><time>2026-04-19T11:43:05.04Z</time></trkpt><trkpt lat="41.2508059" lon="1.6583142"><ele>86.0</ele><time>2026-04-19T11:43:06.041Z</time></trkpt><trkpt lat="41.2508712" lon="1.6581583"><ele>88.0</ele><time>2026-04-19T11:43:07.041Z</time></trkpt><trkpt lat="41.2509553" lon="1.6580281"><ele>88.0</ele><time>2026-04-19T11:43:08.041Z</time></trkpt><trkpt lat="41.2510623" lon="1.6579244"><ele>88.0</ele><time>2026-04-19T11:43:09.04Z</time></trkpt><trkpt lat="41.2511846" lon="1.6578484"><ele>88.0</ele><time>2026-04-19T11:43:10.041Z</time></trkpt><trkpt lat="41.2513089" lon="1.6577892"><ele>88.0</ele><time>2026-04-19T11:43:11.04Z</time></trkpt><trkpt lat="41.2514198" lon="1.6577192"><ele>87.0</ele><time>2026-04-19T11:43:12.041Z</time></trkpt><trkpt lat="41.2515062" lon="1.6576161"><ele>86.0</ele><time>2026-04-19T11:43:13.04Z</time></trkpt><trkpt lat="41.251575" lon="1.6574758"><ele>85.0</ele><time>2026-04-19T11:43:14.04Z</time></trkpt><trkpt lat="41.2516351" lon="1.6573137"><ele>84.0</ele><time>2026-04-19T11:43:15.041Z</time></trkpt><trkpt lat="41.2516798" lon="1.657145"><ele>84.0</ele><time>2026-04-19T11:43:16.04Z</time></trkpt><trkpt lat="41.2517084" lon="1.6569751"><ele>84.0</ele><time>2026-04-19T11:43:17.041Z</time></trkpt><trkpt lat="41.2517341" lon="1.6568133"><ele>84.0</ele><time>2026-04-19T11:43:18.04Z</time></trkpt><trkpt lat="41.2517792" lon="1.6566702"><ele>84.0</ele><time>2026-04-19T11:43:19.04Z</time></trkpt><trkpt lat="41.2518506" lon="1.6565595"><ele>83.25</ele><time>2026-04-19T11:43:20.04Z</time></trkpt><trkpt lat="41.2519513" lon="1.6564883"><ele>82.5</ele><time>2026-04-19T11:43:21.041Z</time></trkpt><trkpt lat="41.2520822" lon="1.6564491"><ele>81.75</ele><time>2026-04-19T11:43:22.04Z</time></trkpt><trkpt lat="41.2522359" lon="1.6564313"><ele>81.0</ele><time>2026-04-19T11:43:23.04Z</time></trkpt><trkpt lat="41.2523998" lon="1.6564221"><ele>84.0</ele><time>2026-04-19T11:43:24.041Z</time></trkpt><trkpt lat="41.2525793" lon="1.6564145"><ele>87.0</ele><time>2026-04-19T11:43:25.041Z</time></trkpt><trkpt lat="41.2527762" lon="1.6564057"><ele>90.0</ele><time>2026-04-19T11:43:26.04Z</time></trkpt><trkpt lat="41.2529855" lon="1.6563959"><ele>91.66666666666667</ele><time>2026-04-19T11:43:27.041Z</time></trkpt><trkpt lat="41.2531706" lon="1.6563804"><ele>93.33333333333334</ele><time>2026-04-19T11:43:28.041Z</time></trkpt><trkpt lat="41.2533445" lon="1.6563574"><ele>95.0</ele><time>2026-04-19T11:43:29.041Z</time></trkpt><trkpt lat="41.2535055" lon="1.6563393"><ele>95.0</ele><time>2026-04-19T11:43:30.041Z</time></trkpt><trkpt lat="41.2536475" lon="1.656345"><ele>95.0</ele><time>2026-04-19T11:43:31.04Z</time></trkpt><trkpt lat="41.2537773" lon="1.6563484"><ele>95.0</ele><time>2026-04-19T11:43:32.041Z</time></trkpt><trkpt lat="41.2539617" lon="1.656327"><ele>93.0</ele><time>2026-04-19T11:43:33.04Z</time></trkpt><trkpt lat="41.2540954" lon="1.6562609"><ele>91.0</ele><time>2026-04-19T11:43:34.04Z</time></trkpt><trkpt lat="41.2542221" lon="1.6561581"><ele>89.0</ele><time>2026-04-19T11:43:35.041Z</time></trkpt><trkpt lat="41.2543329" lon="1.6560207"><ele>87.0</ele><time>2026-04-19T11:43:36.041Z</time></trkpt><trkpt lat="41.2544331" lon="1.6558376"><ele>87.0</ele><time>2026-04-19T11:43:37.041Z</time></trkpt><trkpt lat="41.2545294" lon="1.655635"><ele>87.0</ele><time>2026-04-19T11:43:38.041Z</time></trkpt><trkpt lat="41.2546241" lon="1.6554243"><ele>87.0</ele><time>2026-04-19T11:43:39.041Z</time></trkpt><trkpt lat="41.2547116" lon="1.6552026"><ele>83.66666666666667</ele><time>2026-04-19T11:43:40.041Z</time></trkpt><trkpt lat="41.2547875" lon="1.654961"><ele>80.33333333333334</ele><time>2026-04-19T11:43:41.041Z</time></trkpt><trkpt lat="41.2548545" lon="1.6547206"><ele>77.0</ele><time>2026-04-19T11:43:42.041Z</time></trkpt><trkpt lat="41.25491" lon="1.6545064"><ele>78.75</ele><time>2026-04-19T11:43:43.04Z</time></trkpt><trkpt lat="41.2549588" lon="1.654321"><ele>80.5</ele><time>2026-04-19T11:43:44.041Z</time></trkpt><trkpt lat="41.2550069" lon="1.6541626"><ele>82.25</ele><time>2026-04-19T11:43:45.041Z</time></trkpt><trkpt lat="41.255062" lon="1.6540378"><ele>84.0</ele><time>2026-04-19T11:43:46.04Z</time></trkpt><trkpt lat="41.2551294" lon="1.6539522"><ele>84.0</ele><time>2026-04-19T11:43:47.041Z</time></trkpt><trkpt lat="41.255209" lon="1.653917"><ele>84.0</ele><time>2026-04-19T11:43:48.04Z</time></trkpt><trkpt lat="41.2552992" lon="1.6539318"><ele>84.0</ele><time>2026-04-19T11:43:49.041Z</time></trkpt><trkpt lat="41.2553962" lon="1.6539974"><ele>84.0</ele><time>2026-04-19T11:43:50.04Z</time></trkpt><trkpt lat="41.255491" lon="1.6540946"><ele>84.0</ele><time>2026-04-19T11:43:51.041Z</time></trkpt><trkpt lat="41.2555849" lon="1.6541954"><ele>86.0</ele><time>2026-04-19T11:43:52.041Z</time></trkpt><trkpt lat="41.2556772" lon="1.6542862"><ele>88.0</ele><time>2026-04-19T11:43:53.04Z</time></trkpt><trkpt lat="41.2557756" lon="1.6543484"><ele>90.0</ele><time>2026-04-19T11:43:54.041Z</time></trkpt><trkpt lat="41.2558845" lon="1.6543664"><ele>92.0</ele><time>2026-04-19T11:43:55.04Z</time></trkpt><trkpt lat="41.2560102" lon="1.6543341"><ele>92.0</ele><time>2026-04-19T11:43:56.04Z</time></trkpt><trkpt lat="41.256135" lon="1.6542703"><ele>92.0</ele><time>2026-04-19T11:43:57.041Z</time></trkpt><trkpt lat="41.2562617" lon="1.6542143"><ele>92.0</ele><time>2026-04-19T11:43:58.04Z</time></trkpt><trkpt lat="41.2563937" lon="1.6541864"><ele>92.0</ele><time>2026-04-19T11:43:59.041Z</time></trkpt><trkpt lat="41.2565291" lon="1.6541739"><ele>93.0</ele><time>2026-04-19T11:44:00.04Z</time></trkpt><trkpt lat="41.2566586" lon="1.6541884"><ele>94.0</ele><time>2026-04-19T11:44:01.041Z</time></trkpt><trkpt lat="41.256774" lon="1.6542274"><ele>95.0</ele><time>2026-04-19T11:44:02.041Z</time></trkpt><trkpt lat="41.2568768" lon="1.6542796"><ele>96.0</ele><time>2026-04-19T11:44:03.04Z</time></trkpt><trkpt lat="41.2569742" lon="1.6543132"><ele>96.0</ele><time>2026-04-19T11:44:04.04Z</time></trkpt><trkpt lat="41.2570714" lon="1.6543131"><ele>96.0</ele><time>2026-04-19T11:44:05.041Z</time></trkpt><trkpt lat="41.2571554" lon="1.6542746"><ele>96.0</ele><time>2026-04-19T11:44:06.04Z</time></trkpt><trkpt lat="41.2572206" lon="1.6541951"><ele>96.0</ele><time>2026-04-19T11:44:07.04Z</time></trkpt><trkpt lat="41.2572504" lon="1.6540853"><ele>96.0</ele><time>2026-04-19T11:44:08.041Z</time></trkpt><trkpt lat="41.2572424" lon="1.6539605"><ele>96.0</ele><time>2026-04-19T11:44:09.04Z</time></trkpt><trkpt lat="41.2572086" lon="1.6538428"><ele>96.0</ele><time>2026-04-19T11:44:10.041Z</time></trkpt><trkpt lat="41.2571527" lon="1.6537356"><ele>96.0</ele><time>2026-04-19T11:44:11.04Z</time></trkpt><trkpt lat="41.257071" lon="1.6536536"><ele>96.0</ele><time>2026-04-19T11:44:12.041Z</time></trkpt><trkpt lat="41.2569588" lon="1.6536027"><ele>96.0</ele><time>2026-04-19T11:44:13.04Z</time></trkpt><trkpt lat="41.2568199" lon="1.6535843"><ele>97.25</ele><time>2026-04-19T11:44:14.041Z</time></trkpt><trkpt lat="41.2566663" lon="1.6535801"><ele>98.5</ele><time>2026-04-19T11:44:15.041Z</time></trkpt><trkpt lat="41.2565147" lon="1.6535839"><ele>99.75</ele><time>2026-04-19T11:44:16.041Z</time></trkpt><trkpt lat="41.2563763" lon="1.6535874"><ele>101.0</ele><time>2026-04-19T11:44:17.04Z</time></trkpt><trkpt lat="41.256257" lon="1.6535909"><ele>101.0</ele><time>2026-04-19T11:44:18.04Z</time></trkpt><trkpt lat="41.2561534" lon="1.6535823"><ele>101.0</ele><time>2026-04-19T11:44:19.041Z</time></trkpt><trkpt lat="41.2560616" lon="1.6535415"><ele>101.0</ele><time>2026-04-19T11:44:20.04Z</time></trkpt><trkpt lat="41.2559803" lon="1.6534831"><ele>101.0</ele><time>2026-04-19T11:44:21.041Z</time></trkpt><trkpt lat="41.2559099" lon="1.6534201"><ele>101.0</ele><time>2026-04-19T11:44:22.041Z</time></trkpt><trkpt lat="41.2558495" lon="1.6533645"><ele>100.99999999999999</ele><time>2026-04-19T11:44:23.041Z</time></trkpt><trkpt lat="41.2558038" lon="1.6533006"><ele>101.0</ele><time>2026-04-19T11:44:24.041Z</time></trkpt><trkpt lat="41.2557682" lon="1.6532167"><ele>101.0</ele><time>2026-04-19T11:44:25.04Z</time></trkpt><trkpt lat="41.2557435" lon="1.6531113"><ele>101.0</ele><time>2026-04-19T11:44:26.041Z</time></trkpt><trkpt lat="41.2557262" lon="1.6529984"><ele>100.99999999999999</ele><time>2026-04-19T11:44:27.04Z</time></trkpt><trkpt lat="41.2557163" lon="1.6528834"><ele>101.0</ele><time>2026-04-19T11:44:28.041Z</time></trkpt><trkpt lat="41.2557241" lon="1.6527748"><ele>103.0</ele><time>2026-04-19T11:44:29.04Z</time></trkpt><trkpt lat="41.2557481" lon="1.6526802"><ele>103.0</ele><time>2026-04-19T11:44:30.041Z</time></trkpt><trkpt lat="41.2557772" lon="1.652599"><ele>103.0</ele><time>2026-04-19T11:44:31.041Z</time></trkpt><trkpt lat="41.2558239" lon="1.6524602"><ele>103.0</ele><time>2026-04-19T11:44:33.04Z</time></trkpt><trkpt lat="41.2558334" lon="1.6523638"><ele>103.0</ele><time>2026-04-19T11:44:35.04Z</time></trkpt><trkpt lat="41.2558101" lon="1.6522692"><ele>103.0</ele><time>2026-04-19T11:44:39.041Z</time></trkpt></trkseg><trkseg><trkpt lat="41.2558165" lon="1.6523553"><ele>103.0</ele><time>2026-04-19T11:56:32.041Z</time></trkpt><trkpt lat="41.2558739" lon="1.6522811"><ele>103.0</ele><time>2026-04-19T11:56:35.041Z</time></trkpt><trkpt lat="41.2559056" lon="1.6521826"><ele>103.0</ele><time>2026-04-19T11:56:37.041Z</time></trkpt><trkpt lat="41.2559384" lon="1.6520884"><ele>103.0</ele><time>2026-04-19T11:56:38.041Z</time></trkpt><trkpt lat="41.2559829" lon="1.6519746"><ele>103.0</ele><time>2026-04-19T11:56:39.04Z</time></trkpt><trkpt lat="41.2560409" lon="1.6518334"><ele>100.0</ele><time>2026-04-19T11:56:40.041Z</time></trkpt><trkpt lat="41.2561175" lon="1.6516656"><ele>97.0</ele><time>2026-04-19T11:56:41.041Z</time></trkpt><trkpt lat="41.2562029" lon="1.6514909"><ele>94.0</ele><time>2026-04-19T11:56:42.04Z</time></trkpt><trkpt lat="41.2562855" lon="1.6513247"><ele>94.0</ele><time>2026-04-19T11:56:43.041Z</time></trkpt><trkpt lat="41.2563652" lon="1.6511725"><ele>94.0</ele><time>2026-04-19T11:56:44.041Z</time></trkpt><trkpt lat="41.2564499" lon="1.6510442"><ele>94.0</ele><time>2026-04-19T11:56:45.041Z</time></trkpt><trkpt lat="41.2565485" lon="1.6509386"><ele>94.0</ele><time>2026-04-19T11:56:46.041Z</time></trkpt><trkpt lat="41.2566557" lon="1.6508558"><ele>97.4</ele><time>2026-04-19T11:56:47.04Z</time></trkpt><trkpt lat="41.2567629" lon="1.6508065"><ele>100.80000000000001</ele><time>2026-04-19T11:56:48.041Z</time></trkpt><trkpt lat="41.2568724" lon="1.650792"><ele>104.19999999999999</ele><time>2026-04-19T11:56:49.04Z</time></trkpt><trkpt lat="41.2569857" lon="1.6507965"><ele>107.6</ele><time>2026-04-19T11:56:50.04Z</time></trkpt><trkpt lat="41.2570972" lon="1.6508036"><ele>111.0</ele><time>2026-04-19T11:56:51.041Z</time></trkpt><trkpt lat="41.2572028" lon="1.6508093"><ele>110.8</ele><time>2026-04-19T11:56:52.041Z</time></trkpt><trkpt lat="41.2573026" lon="1.6508163"><ele>110.6</ele><time>2026-04-19T11:56:53.041Z</time></trkpt><trkpt lat="41.2574037" lon="1.6508339"><ele>110.4</ele><time>2026-04-19T11:56:54.04Z</time></trkpt><trkpt lat="41.2575007" lon="1.650868"><ele>110.2</ele><time>2026-04-19T11:56:55.041Z</time></trkpt><trkpt lat="41.2575889" lon="1.6509237"><ele>110.0</ele><time>2026-04-19T11:56:56.041Z</time></trkpt><trkpt lat="41.2576701" lon="1.6509984"><ele>110.0</ele><time>2026-04-19T11:56:57.04Z</time></trkpt><trkpt lat="41.2577483" lon="1.651082"><ele>110.0</ele><time>2026-04-19T11:56:58.04Z</time></trkpt><trkpt lat="41.2578312" lon="1.6511428"><ele>110.0</ele><time>2026-04-19T11:56:59.041Z</time></trkpt><trkpt lat="41.2579232" lon="1.6511824"><ele>110.0</ele><time>2026-04-19T11:57:00.041Z</time></trkpt><trkpt lat="41.2580201" lon="1.6511873"><ele>110.0</ele><time>2026-04-19T11:57:01.04Z</time></trkpt><trkpt lat="41.2581159" lon="1.6511517"><ele>109.75</ele><time>2026-04-19T11:57:02.04Z</time></trkpt><trkpt lat="41.2582109" lon="1.6510905"><ele>109.5</ele><time>2026-04-19T11:57:03.04Z</time></trkpt><trkpt lat="41.2583111" lon="1.6510153"><ele>109.25</ele><time>2026-04-19T11:57:04.041Z</time></trkpt><trkpt lat="41.2584197" lon="1.6509372"><ele>109.0</ele><time>2026-04-19T11:57:05.041Z</time></trkpt><trkpt lat="41.2585307" lon="1.6508586"><ele>109.0</ele><time>2026-04-19T11:57:06.041Z</time></trkpt><trkpt lat="41.2586464" lon="1.6507752"><ele>109.0</ele><time>2026-04-19T11:57:07.041Z</time></trkpt><trkpt lat="41.2587537" lon="1.6506845"><ele>109.0</ele><time>2026-04-19T11:57:08.04Z</time></trkpt><trkpt lat="41.2588421" lon="1.650583"><ele>109.0</ele><time>2026-04-19T11:57:09.041Z</time></trkpt><trkpt lat="41.2588996" lon="1.6504668"><ele>109.0</ele><time>2026-04-19T11:57:10.041Z</time></trkpt><trkpt lat="41.2589326" lon="1.6503426"><ele>109.0</ele><time>2026-04-19T11:57:11.041Z</time></trkpt><trkpt lat="41.258942" lon="1.6502104"><ele>109.0</ele><time>2026-04-19T11:57:12.04Z</time></trkpt><trkpt lat="41.2589211" lon="1.6500734"><ele>109.0</ele><time>2026-04-19T11:57:13.04Z</time></trkpt><trkpt lat="41.2588695" lon="1.6499616"><ele>109.0</ele><time>2026-04-19T11:57:14.041Z</time></trkpt><trkpt lat="41.2587907" lon="1.6498834"><ele>109.25</ele><time>2026-04-19T11:57:15.04Z</time></trkpt><trkpt lat="41.2586889" lon="1.6498375"><ele>109.5</ele><time>2026-04-19T11:57:16.04Z</time></trkpt><trkpt lat="41.2585658" lon="1.6497993"><ele>109.75</ele><time>2026-04-19T11:57:17.04Z</time></trkpt><trkpt lat="41.2584435" lon="1.6497466"><ele>110.0</ele><time>2026-04-19T11:57:18.041Z</time></trkpt><trkpt lat="41.2583086" lon="1.6496708"><ele>110.0</ele><time>2026-04-19T11:57:19.041Z</time></trkpt><trkpt lat="41.2581647" lon="1.6495833"><ele>110.0</ele><time>2026-04-19T11:57:20.04Z</time></trkpt><trkpt lat="41.2580036" lon="1.6494958"><ele>110.0</ele><time>2026-04-19T11:57:21.041Z</time></trkpt><trkpt lat="41.2578455" lon="1.6494307"><ele>112.5</ele><time>2026-04-19T11:57:22.04Z</time></trkpt><trkpt lat="41.2577061" lon="1.6493809"><ele>115.0</ele><time>2026-04-19T11:57:23.041Z</time></trkpt><trkpt lat="41.2575885" lon="1.6493405"><ele>117.5</ele><time>2026-04-19T11:57:24.041Z</time></trkpt><trkpt lat="41.2574827" lon="1.6493078"><ele>120.0</ele><time>2026-04-19T11:57:25.04Z</time></trkpt><trkpt lat="41.2573798" lon="1.6492758"><ele>120.0</ele><time>2026-04-19T11:57:26.04Z</time></trkpt><trkpt lat="41.25729" lon="1.6492234"><ele>120.0</ele><time>2026-04-19T11:57:27.041Z</time></trkpt><trkpt lat="41.2572206" lon="1.6491513"><ele>120.0</ele><time>2026-04-19T11:57:28.041Z</time></trkpt><trkpt lat="41.2571794" lon="1.6490429"><ele>120.0</ele><time>2026-04-19T11:57:29.04Z</time></trkpt><trkpt lat="41.2571672" lon="1.6489091"><ele>120.0</ele><time>2026-04-19T11:57:30.041Z</time></trkpt><trkpt lat="41.2571546" lon="1.648763"><ele>119.0</ele><time>2026-04-19T11:57:31.04Z</time></trkpt><trkpt lat="41.2571117" lon="1.6486139"><ele>118.0</ele><time>2026-04-19T11:57:32.04Z</time></trkpt><trkpt lat="41.2570527" lon="1.6484727"><ele>117.0</ele><time>2026-04-19T11:57:33.04Z</time></trkpt><trkpt lat="41.2569919" lon="1.6483435"><ele>116.0</ele><time>2026-04-19T11:57:34.041Z</time></trkpt><trkpt lat="41.2569177" lon="1.6482518"><ele>116.0</ele><time>2026-04-19T11:57:35.041Z</time></trkpt><trkpt lat="41.2568205" lon="1.6481893"><ele>116.0</ele><time>2026-04-19T11:57:36.041Z</time></trkpt><trkpt lat="41.256718" lon="1.6481198"><ele>116.0</ele><time>2026-04-19T11:57:37.041Z</time></trkpt><trkpt lat="41.2566338" lon="1.648027"><ele>116.0</ele><time>2026-04-19T11:57:38.04Z</time></trkpt><trkpt lat="41.2565767" lon="1.6479142"><ele>116.0</ele><time>2026-04-19T11:57:39.041Z</time></trkpt><trkpt lat="41.2565578" lon="1.6477845"><ele>118.0</ele><time>2026-04-19T11:57:40.04Z</time></trkpt><trkpt lat="41.2565759" lon="1.647642"><ele>120.0</ele><time>2026-04-19T11:57:41.04Z</time></trkpt><trkpt lat="41.2566124" lon="1.6475045"><ele>122.0</ele><time>2026-04-19T11:57:42.04Z</time></trkpt><trkpt lat="41.256609" lon="1.6473212"><ele>124.0</ele><time>2026-04-19T11:57:44.041Z</time></trkpt><trkpt lat="41.2565144" lon="1.6472253"><ele>123.0</ele><time>2026-04-19T11:57:45.041Z</time></trkpt><trkpt lat="41.2563989" lon="1.6471162"><ele>122.0</ele><time>2026-04-19T11:57:46.041Z</time></trkpt><trkpt lat="41.2562612" lon="1.6469982"><ele>121.0</ele><time>2026-04-19T11:57:47.04Z</time></trkpt><trkpt lat="41.2561147" lon="1.6468807"><ele>121.0</ele><time>2026-04-19T11:57:48.041Z</time></trkpt><trkpt lat="41.25598" lon="1.6467007"><ele>121.0</ele><time>2026-04-19T11:57:49.04Z</time></trkpt><trkpt lat="41.2558498" lon="1.6465767"><ele>121.0</ele><time>2026-04-19T11:57:50.041Z</time></trkpt><trkpt lat="41.2557411" lon="1.6464696"><ele>121.0</ele><time>2026-04-19T11:57:51.041Z</time></trkpt><trkpt lat="41.2556681" lon="1.6463653"><ele>121.0</ele><time>2026-04-19T11:57:52.04Z</time></trkpt><trkpt lat="41.2556357" lon="1.6462581"><ele>121.0</ele><time>2026-04-19T11:57:53.04Z</time></trkpt><trkpt lat="41.2556896" lon="1.6460303"><ele>121.0</ele><time>2026-04-19T11:57:55.04Z</time></trkpt><trkpt lat="41.2557804" lon="1.6458877"><ele>120.75</ele><time>2026-04-19T11:57:56.041Z</time></trkpt><trkpt lat="41.2558711" lon="1.6457431"><ele>120.5</ele><time>2026-04-19T11:57:57.041Z</time></trkpt><trkpt lat="41.2559498" lon="1.6455884"><ele>120.25</ele><time>2026-04-19T11:57:58.041Z</time></trkpt><trkpt lat="41.2560349" lon="1.6454501"><ele>120.0</ele><time>2026-04-19T11:57:59.041Z</time></trkpt><trkpt lat="41.2561373" lon="1.6453412"><ele>119.0</ele><time>2026-04-19T11:58:00.04Z</time></trkpt><trkpt lat="41.2562386" lon="1.6452519"><ele>118.0</ele><time>2026-04-19T11:58:01.04Z</time></trkpt><trkpt lat="41.2563092" lon="1.6451467"><ele>117.0</ele><time>2026-04-19T11:58:02.04Z</time></trkpt><trkpt lat="41.2563715" lon="1.6450249"><ele>116.0</ele><time>2026-04-19T11:58:03.04Z</time></trkpt><trkpt lat="41.256373" lon="1.6449098"><ele>115.0</ele><time>2026-04-19T11:58:04.041Z</time></trkpt><trkpt lat="41.2563293" lon="1.6447989"><ele>115.0</ele><time>2026-04-19T11:58:05.04Z</time></trkpt><trkpt lat="41.2562454" lon="1.644692"><ele>115.0</ele><time>2026-04-19T11:58:06.041Z</time></trkpt><trkpt lat="41.256126" lon="1.6445809"><ele>115.0</ele><time>2026-04-19T11:58:07.04Z</time></trkpt><trkpt lat="41.2560128" lon="1.6444693"><ele>115.0</ele><time>2026-04-19T11:58:08.04Z</time></trkpt><trkpt lat="41.2559109" lon="1.6443434"><ele>116.66666666666667</ele><time>2026-04-19T11:58:09.041Z</time></trkpt><trkpt lat="41.2558169" lon="1.6442021"><ele>118.33333333333334</ele><time>2026-04-19T11:58:10.041Z</time></trkpt><trkpt lat="41.2557428" lon="1.6440284"><ele>120.0</ele><time>2026-04-19T11:58:11.041Z</time></trkpt><trkpt lat="41.2556713" lon="1.6438344"><ele>117.0</ele><time>2026-04-19T11:58:12.04Z</time></trkpt><trkpt lat="41.2555912" lon="1.6436414"><ele>114.0</ele><time>2026-04-19T11:58:13.041Z</time></trkpt><trkpt lat="41.2555165" lon="1.6434264"><ele>111.0</ele><time>2026-04-19T11:58:14.04Z</time></trkpt><trkpt lat="41.2554547" lon="1.643219"><ele>111.0</ele><time>2026-04-19T11:58:15.041Z</time></trkpt><trkpt lat="41.2554111" lon="1.6430062"><ele>111.0</ele><time>2026-04-19T11:58:16.041Z</time></trkpt><trkpt lat="41.2553824" lon="1.6427864"><ele>111.0</ele><time>2026-04-19T11:58:17.04Z</time></trkpt><trkpt lat="41.2553748" lon="1.6425671"><ele>111.0</ele><time>2026-04-19T11:58:18.041Z</time></trkpt><trkpt lat="41.2553941" lon="1.6423561"><ele>111.0</ele><time>2026-04-19T11:58:19.04Z</time></trkpt><trkpt lat="41.2554464" lon="1.6421539"><ele>111.0</ele><time>2026-04-19T11:58:20.04Z</time></trkpt><trkpt lat="41.2555165" lon="1.6419724"><ele>111.0</ele><time>2026-04-19T11:58:21.041Z</time></trkpt><trkpt lat="41.2555874" lon="1.6418261"><ele>111.0</ele><time>2026-04-19T11:58:22.041Z</time></trkpt><trkpt lat="41.2556601" lon="1.6417177"><ele>111.0</ele><time>2026-04-19T11:58:23.041Z</time></trkpt><trkpt lat="41.2557449" lon="1.6416563"><ele>111.0</ele><time>2026-04-19T11:58:24.04Z</time></trkpt><trkpt lat="41.2558415" lon="1.6416459"><ele>111.0</ele><time>2026-04-19T11:58:25.041Z</time></trkpt><trkpt lat="41.2559562" lon="1.641663"><ele>111.0</ele><time>2026-04-19T11:58:26.04Z</time></trkpt><trkpt lat="41.2560841" lon="1.6416933"><ele>111.0</ele><time>2026-04-19T11:58:27.041Z</time></trkpt><trkpt lat="41.2562268" lon="1.6417261"><ele>111.0</ele><time>2026-04-19T11:58:28.041Z</time></trkpt><trkpt lat="41.2563874" lon="1.6417668"><ele>111.0</ele><time>2026-04-19T11:58:29.041Z</time></trkpt><trkpt lat="41.2565555" lon="1.6418045"><ele>111.0</ele><time>2026-04-19T11:58:30.041Z</time></trkpt><trkpt lat="41.2567314" lon="1.641848"><ele>111.0</ele><time>2026-04-19T11:58:31.04Z</time></trkpt><trkpt lat="41.2569041" lon="1.6418802"><ele>111.0</ele><time>2026-04-19T11:58:32.041Z</time></trkpt><trkpt lat="41.2570771" lon="1.6418899"><ele>111.0</ele><time>2026-04-19T11:58:33.041Z</time></trkpt><trkpt lat="41.257248" lon="1.6418699"><ele>111.0</ele><time>2026-04-19T11:58:34.041Z</time></trkpt><trkpt lat="41.2574132" lon="1.6418433"><ele>111.0</ele><time>2026-04-19T11:58:35.041Z</time></trkpt><trkpt lat="41.2575783" lon="1.6418191"><ele>112.0</ele><time>2026-04-19T11:58:36.041Z</time></trkpt><trkpt lat="41.2577382" lon="1.6417928"><ele>113.0</ele><time>2026-04-19T11:58:37.04Z</time></trkpt><trkpt lat="41.2578903" lon="1.6417736"><ele>114.0</ele><time>2026-04-19T11:58:38.041Z</time></trkpt><trkpt lat="41.2580335" lon="1.6417731"><ele>112.75</ele><time>2026-04-19T11:58:39.041Z</time></trkpt><trkpt lat="41.2581683" lon="1.6418053"><ele>111.5</ele><time>2026-04-19T11:58:40.04Z</time></trkpt><trkpt lat="41.2582909" lon="1.641883"><ele>110.25</ele><time>2026-04-19T11:58:41.04Z</time></trkpt><trkpt lat="41.2583995" lon="1.641997"><ele>109.0</ele><time>2026-04-19T11:58:42.041Z</time></trkpt><trkpt lat="41.258499" lon="1.642144"><ele>112.25</ele><time>2026-04-19T11:58:43.04Z</time></trkpt><trkpt lat="41.2585889" lon="1.6422994"><ele>115.5</ele><time>2026-04-19T11:58:44.041Z</time></trkpt><trkpt lat="41.2586737" lon="1.6424475"><ele>118.75</ele><time>2026-04-19T11:58:45.04Z</time></trkpt><trkpt lat="41.2587525" lon="1.6425665"><ele>122.0</ele><time>2026-04-19T11:58:46.04Z</time></trkpt><trkpt lat="41.2588389" lon="1.6426449"><ele>121.99999999999999</ele><time>2026-04-19T11:58:47.04Z</time></trkpt><trkpt lat="41.2589252" lon="1.6426699"><ele>122.0</ele><time>2026-04-19T11:58:48.041Z</time></trkpt><trkpt lat="41.2590077" lon="1.6426385"><ele>122.0</ele><time>2026-04-19T11:58:49.04Z</time></trkpt><trkpt lat="41.2590692" lon="1.6425611"><ele>122.0</ele><time>2026-04-19T11:58:50.04Z</time></trkpt><trkpt lat="41.259094" lon="1.6424567"><ele>121.99999999999999</ele><time>2026-04-19T11:58:51.041Z</time></trkpt><trkpt lat="41.2590838" lon="1.6423262"><ele>122.0</ele><time>2026-04-19T11:58:52.04Z</time></trkpt><trkpt lat="41.2590455" lon="1.6421739"><ele>121.75</ele><time>2026-04-19T11:58:53.041Z</time></trkpt><trkpt lat="41.2590126" lon="1.6420087"><ele>121.5</ele><time>2026-04-19T11:58:54.041Z</time></trkpt><trkpt lat="41.2590074" lon="1.641848"><ele>121.25</ele><time>2026-04-19T11:58:55.041Z</time></trkpt><trkpt lat="41.2590435" lon="1.6417087"><ele>121.0</ele><time>2026-04-19T11:58:56.041Z</time></trkpt><trkpt lat="41.2591193" lon="1.6415915"><ele>119.66666666666667</ele><time>2026-04-19T11:58:57.04Z</time></trkpt><trkpt lat="41.259237" lon="1.6414931"><ele>118.33333333333334</ele><time>2026-04-19T11:58:58.041Z</time></trkpt><trkpt lat="41.2593851" lon="1.6414174"><ele>117.0</ele><time>2026-04-19T11:58:59.041Z</time></trkpt><trkpt lat="41.2595569" lon="1.6413477"><ele>117.0</ele><time>2026-04-19T11:59:00.04Z</time></trkpt><trkpt lat="41.2597503" lon="1.641271"><ele>117.0</ele><time>2026-04-19T11:59:01.041Z</time></trkpt><trkpt lat="41.259961" lon="1.6411851"><ele>117.0</ele><time>2026-04-19T11:59:02.04Z</time></trkpt><trkpt lat="41.2601675" lon="1.6411009"><ele>117.66666666666666</ele><time>2026-04-19T11:59:03.041Z</time></trkpt><trkpt lat="41.2603665" lon="1.6410286"><ele>118.33333333333333</ele><time>2026-04-19T11:59:04.041Z</time></trkpt><trkpt lat="41.2605577" lon="1.6409773"><ele>119.0</ele><time>2026-04-19T11:59:05.041Z</time></trkpt><trkpt lat="41.2607449" lon="1.6409415"><ele>119.0</ele><time>2026-04-19T11:59:06.041Z</time></trkpt><trkpt lat="41.2609257" lon="1.6409143"><ele>119.0</ele><time>2026-04-19T11:59:07.041Z</time></trkpt><trkpt lat="41.2610987" lon="1.64089"><ele>119.0</ele><time>2026-04-19T11:59:08.041Z</time></trkpt><trkpt lat="41.2612628" lon="1.6408661"><ele>119.0</ele><time>2026-04-19T11:59:09.041Z</time></trkpt><trkpt lat="41.2614178" lon="1.6408411"><ele>119.0</ele><time>2026-04-19T11:59:10.041Z</time></trkpt><trkpt lat="41.2615664" lon="1.6408248"><ele>119.0</ele><time>2026-04-19T11:59:11.041Z</time></trkpt><trkpt lat="41.2617155" lon="1.6408276"><ele>119.0</ele><time>2026-04-19T11:59:12.041Z</time></trkpt><trkpt lat="41.26186" lon="1.6408556"><ele>119.0</ele><time>2026-04-19T11:59:13.041Z</time></trkpt><trkpt lat="41.2620014" lon="1.6409161"><ele>119.0</ele><time>2026-04-19T11:59:14.041Z</time></trkpt><trkpt lat="41.2621507" lon="1.6410136"><ele>121.66666666666666</ele><time>2026-04-19T11:59:15.04Z</time></trkpt><trkpt lat="41.2623071" lon="1.6411341"><ele>124.33333333333334</ele><time>2026-04-19T11:59:16.041Z</time></trkpt><trkpt lat="41.2624766" lon="1.6412658"><ele>127.0</ele><time>2026-04-19T11:59:17.041Z</time></trkpt><trkpt lat="41.2626489" lon="1.6413995"><ele>127.0</ele><time>2026-04-19T11:59:18.041Z</time></trkpt><trkpt lat="41.2628157" lon="1.6415332"><ele>127.0</ele><time>2026-04-19T11:59:19.041Z</time></trkpt><trkpt lat="41.2629756" lon="1.6416638"><ele>127.0</ele><time>2026-04-19T11:59:20.041Z</time></trkpt><trkpt lat="41.2631339" lon="1.6418095"><ele>126.0</ele><time>2026-04-19T11:59:21.04Z</time></trkpt><trkpt lat="41.2632856" lon="1.6419784"><ele>125.0</ele><time>2026-04-19T11:59:22.04Z</time></trkpt><trkpt lat="41.2634322" lon="1.6421641"><ele>124.0</ele><time>2026-04-19T11:59:23.041Z</time></trkpt><trkpt lat="41.2635673" lon="1.6423403"><ele>124.0</ele><time>2026-04-19T11:59:24.041Z</time></trkpt><trkpt lat="41.2636878" lon="1.642493"><ele>124.0</ele><time>2026-04-19T11:59:25.041Z</time></trkpt><trkpt lat="41.2637967" lon="1.6426294"><ele>124.0</ele><time>2026-04-19T11:59:26.04Z</time></trkpt><trkpt lat="41.2638971" lon="1.642727"><ele>124.0</ele><time>2026-04-19T11:59:27.041Z</time></trkpt><trkpt lat="41.2640106" lon="1.6427794"><ele>121.0</ele><time>2026-04-19T11:59:28.041Z</time></trkpt><trkpt lat="41.26413" lon="1.6427862"><ele>118.0</ele><time>2026-04-19T11:59:29.04Z</time></trkpt><trkpt lat="41.2642346" lon="1.6427574"><ele>115.0</ele><time>2026-04-19T11:59:30.041Z</time></trkpt><trkpt lat="41.2643203" lon="1.6426887"><ele>112.0</ele><time>2026-04-19T11:59:31.04Z</time></trkpt><trkpt lat="41.2643888" lon="1.6425814"><ele>109.0</ele><time>2026-04-19T11:59:32.04Z</time></trkpt><trkpt lat="41.2644282" lon="1.6424403"><ele>109.0</ele><time>2026-04-19T11:59:33.04Z</time></trkpt><trkpt lat="41.2644303" lon="1.642269"><ele>109.0</ele><time>2026-04-19T11:59:34.04Z</time></trkpt><trkpt lat="41.2643909" lon="1.6420904"><ele>109.0</ele><time>2026-04-19T11:59:35.041Z</time></trkpt><trkpt lat="41.2643171" lon="1.6419124"><ele>109.0</ele><time>2026-04-19T11:59:36.04Z</time></trkpt><trkpt lat="41.2642174" lon="1.6417326"><ele>109.33333333333334</ele><time>2026-04-19T11:59:37.041Z</time></trkpt><trkpt lat="41.2641018" lon="1.641534"><ele>109.66666666666666</ele><time>2026-04-19T11:59:38.041Z</time></trkpt><trkpt lat="41.2639744" lon="1.6413145"><ele>110.0</ele><time>2026-04-19T11:59:39.04Z</time></trkpt><trkpt lat="41.2638473" lon="1.6410912"><ele>111.33333333333333</ele><time>2026-04-19T11:59:40.041Z</time></trkpt><trkpt lat="41.2637254" lon="1.6408759"><ele>112.66666666666666</ele><time>2026-04-19T11:59:41.041Z</time></trkpt><trkpt lat="41.2636088" lon="1.6406704"><ele>114.0</ele><time>2026-04-19T11:59:42.041Z</time></trkpt><trkpt lat="41.263504" lon="1.6404832"><ele>114.0</ele><time>2026-04-19T11:59:43.04Z</time></trkpt><trkpt lat="41.263417" lon="1.6403198"><ele>114.0</ele><time>2026-04-19T11:59:44.04Z</time></trkpt><trkpt lat="41.263359" lon="1.6401837"><ele>114.0</ele><time>2026-04-19T11:59:45.041Z</time></trkpt><trkpt lat="41.2633359" lon="1.6400584"><ele>114.0</ele><time>2026-04-19T11:59:46.041Z</time></trkpt><trkpt lat="41.263354" lon="1.6399436"><ele>114.25</ele><time>2026-04-19T11:59:47.041Z</time></trkpt><trkpt lat="41.26341" lon="1.6398314"><ele>114.5</ele><time>2026-04-19T11:59:48.041Z</time></trkpt><trkpt lat="41.263502" lon="1.6397193"><ele>114.75</ele><time>2026-04-19T11:59:49.041Z</time></trkpt><trkpt lat="41.2636175" lon="1.6395866"><ele>115.0</ele><time>2026-04-19T11:59:50.041Z</time></trkpt><trkpt lat="41.2637315" lon="1.639427"><ele>115.0</ele><time>2026-04-19T11:59:51.04Z</time></trkpt><trkpt lat="41.2638489" lon="1.6392306"><ele>115.0</ele><time>2026-04-19T11:59:52.041Z</time></trkpt><trkpt lat="41.2639674" lon="1.6390022"><ele>115.0</ele><time>2026-04-19T11:59:53.041Z</time></trkpt><trkpt lat="41.2640747" lon="1.6387735"><ele>117.66666666666667</ele><time>2026-04-19T11:59:54.041Z</time></trkpt><trkpt lat="41.2641837" lon="1.6385653"><ele>120.33333333333334</ele><time>2026-04-19T11:59:55.041Z</time></trkpt><trkpt lat="41.2642917" lon="1.6383784"><ele>123.0</ele><time>2026-04-19T11:59:56.04Z</time></trkpt><trkpt lat="41.2643889" lon="1.6382123"><ele>123.0</ele><time>2026-04-19T11:59:57.04Z</time></trkpt><trkpt lat="41.2644565" lon="1.6380577"><ele>123.0</ele><time>2026-04-19T11:59:58.041Z</time></trkpt><trkpt lat="41.2644919" lon="1.6378875"><ele>123.0</ele><time>2026-04-19T11:59:59.041Z</time></trkpt><trkpt lat="41.2644992" lon="1.6376924"><ele>123.0</ele><time>2026-04-19T12:00:00.041Z</time></trkpt><trkpt lat="41.264497" lon="1.6374801"><ele>121.66666666666666</ele><time>2026-04-19T12:00:01.041Z</time></trkpt><trkpt lat="41.2644924" lon="1.6372498"><ele>120.33333333333333</ele><time>2026-04-19T12:00:02.041Z</time></trkpt><trkpt lat="41.2644801" lon="1.6370031"><ele>119.0</ele><time>2026-04-19T12:00:03.041Z</time></trkpt><trkpt lat="41.2644492" lon="1.6367592"><ele>119.0</ele><time>2026-04-19T12:00:04.041Z</time></trkpt><trkpt lat="41.2644071" lon="1.6365275"><ele>119.0</ele><time>2026-04-19T12:00:05.041Z</time></trkpt><trkpt lat="41.2643536" lon="1.6363043"><ele>119.0</ele><time>2026-04-19T12:00:06.04Z</time></trkpt><trkpt lat="41.2642931" lon="1.6360898"><ele>123.0</ele><time>2026-04-19T12:00:07.041Z</time></trkpt><trkpt lat="41.2642202" lon="1.6358862"><ele>127.0</ele><time>2026-04-19T12:00:08.041Z</time></trkpt><trkpt lat="41.2641309" lon="1.6357003"><ele>131.0</ele><time>2026-04-19T12:00:09.041Z</time></trkpt><trkpt lat="41.2640315" lon="1.6355355"><ele>128.66666666666666</ele><time>2026-04-19T12:00:10.04Z</time></trkpt><trkpt lat="41.2639245" lon="1.6353918"><ele>126.33333333333334</ele><time>2026-04-19T12:00:11.041Z</time></trkpt><trkpt lat="41.2638097" lon="1.6352607"><ele>124.0</ele><time>2026-04-19T12:00:12.041Z</time></trkpt><trkpt lat="41.2636878" lon="1.6351298"><ele>124.0</ele><time>2026-04-19T12:00:13.04Z</time></trkpt><trkpt lat="41.2635609" lon="1.6350044"><ele>124.0</ele><time>2026-04-19T12:00:14.04Z</time></trkpt><trkpt lat="41.2634339" lon="1.6348851"><ele>124.0</ele><time>2026-04-19T12:00:15.04Z</time></trkpt><trkpt lat="41.263313" lon="1.6347704"><ele>124.0</ele><time>2026-04-19T12:00:16.041Z</time></trkpt><trkpt lat="41.2631976" lon="1.6346578"><ele>124.0</ele><time>2026-04-19T12:00:17.04Z</time></trkpt><trkpt lat="41.2630957" lon="1.6345509"><ele>124.0</ele><time>2026-04-19T12:00:18.041Z</time></trkpt><trkpt lat="41.2630003" lon="1.634452"><ele>124.0</ele><time>2026-04-19T12:00:19.041Z</time></trkpt><trkpt lat="41.2629095" lon="1.6343603"><ele>122.80000000000001</ele><time>2026-04-19T12:00:20.04Z</time></trkpt><trkpt lat="41.2628217" lon="1.6342738"><ele>121.60000000000001</ele><time>2026-04-19T12:00:21.04Z</time></trkpt><trkpt lat="41.2627373" lon="1.6341936"><ele>120.4</ele><time>2026-04-19T12:00:22.04Z</time></trkpt><trkpt lat="41.2626527" lon="1.6341182"><ele>119.2</ele><time>2026-04-19T12:00:23.041Z</time></trkpt><trkpt lat="41.2625657" lon="1.6340486"><ele>118.0</ele><time>2026-04-19T12:00:24.041Z</time></trkpt><trkpt lat="41.2624736" lon="1.6339845"><ele>118.0</ele><time>2026-04-19T12:00:25.041Z</time></trkpt><trkpt lat="41.262372" lon="1.6339316"><ele>118.0</ele><time>2026-04-19T12:00:26.04Z</time></trkpt><trkpt lat="41.2622648" lon="1.6338842"><ele>118.0</ele><time>2026-04-19T12:00:27.041Z</time></trkpt><trkpt lat="41.2621543" lon="1.6338368"><ele>118.0</ele><time>2026-04-19T12:00:28.04Z</time></trkpt><trkpt lat="41.2620462" lon="1.6337805"><ele>116.75</ele><time>2026-04-19T12:00:29.04Z</time></trkpt><trkpt lat="41.2619413" lon="1.6337101"><ele>115.5</ele><time>2026-04-19T12:00:30.041Z</time></trkpt><trkpt lat="41.2618403" lon="1.6336227"><ele>114.25</ele><time>2026-04-19T12:00:31.041Z</time></trkpt><trkpt lat="41.2617514" lon="1.6335278"><ele>113.0</ele><time>2026-04-19T12:00:32.04Z</time></trkpt><trkpt lat="41.2616826" lon="1.6334254"><ele>112.99999999999999</ele><time>2026-04-19T12:00:33.041Z</time></trkpt><trkpt lat="41.2616503" lon="1.6333173"><ele>113.0</ele><time>2026-04-19T12:00:34.041Z</time></trkpt><trkpt lat="41.2616578" lon="1.6332162"><ele>113.0</ele><time>2026-04-19T12:00:35.041Z</time></trkpt><trkpt lat="41.261702" lon="1.6331394"><ele>113.0</ele><time>2026-04-19T12:00:36.041Z</time></trkpt><trkpt lat="41.2617808" lon="1.6330881"><ele>112.99999999999999</ele><time>2026-04-19T12:00:37.041Z</time></trkpt><trkpt lat="41.2618831" lon="1.6330775"><ele>113.0</ele><time>2026-04-19T12:00:38.04Z</time></trkpt><trkpt lat="41.2620047" lon="1.6330906"><ele>113.0</ele><time>2026-04-19T12:00:39.04Z</time></trkpt><trkpt lat="41.2621421" lon="1.6331115"><ele>113.0</ele><time>2026-04-19T12:00:40.04Z</time></trkpt><trkpt lat="41.2622908" lon="1.633138"><ele>113.0</ele><time>2026-04-19T12:00:41.04Z</time></trkpt><trkpt lat="41.2624449" lon="1.6331791"><ele>113.0</ele><time>2026-04-19T12:00:42.04Z</time></trkpt><trkpt lat="41.2626146" lon="1.6332459"><ele>113.33333333333333</ele><time>2026-04-19T12:00:43.04Z</time></trkpt><trkpt lat="41.2627916" lon="1.6333396"><ele>113.66666666666666</ele><time>2026-04-19T12:00:44.04Z</time></trkpt><trkpt lat="41.2629626" lon="1.6334471"><ele>114.0</ele><time>2026-04-19T12:00:45.04Z</time></trkpt><trkpt lat="41.2631174" lon="1.6335553"><ele>115.5</ele><time>2026-04-19T12:00:46.04Z</time></trkpt><trkpt lat="41.2632546" lon="1.6336521"><ele>117.0</ele><time>2026-04-19T12:00:47.041Z</time></trkpt><trkpt lat="41.2633695" lon="1.6337264"><ele>118.5</ele><time>2026-04-19T12:00:48.04Z</time></trkpt><trkpt lat="41.2634635" lon="1.6337601"><ele>120.0</ele><time>2026-04-19T12:00:49.04Z</time></trkpt><trkpt lat="41.2635387" lon="1.6337511"><ele>120.0</ele><time>2026-04-19T12:00:50.04Z</time></trkpt><trkpt lat="41.2636023" lon="1.6337037"><ele>120.0</ele><time>2026-04-19T12:00:51.041Z</time></trkpt><trkpt lat="41.2636623" lon="1.6336105"><ele>120.0</ele><time>2026-04-19T12:00:52.041Z</time></trkpt><trkpt lat="41.2637266" lon="1.6334725"><ele>120.0</ele><time>2026-04-19T12:00:53.041Z</time></trkpt><trkpt lat="41.263803" lon="1.6332978"><ele>120.0</ele><time>2026-04-19T12:00:54.041Z</time></trkpt><trkpt lat="41.2638844" lon="1.6331138"><ele>115.66666666666666</ele><time>2026-04-19T12:00:55.04Z</time></trkpt><trkpt lat="41.2639777" lon="1.6329045"><ele>111.33333333333333</ele><time>2026-04-19T12:00:56.04Z</time></trkpt><trkpt lat="41.2640774" lon="1.6326883"><ele>107.0</ele><time>2026-04-19T12:00:57.041Z</time></trkpt><trkpt lat="41.2641788" lon="1.6324699"><ele>107.0</ele><time>2026-04-19T12:00:58.04Z</time></trkpt><trkpt lat="41.2642798" lon="1.6322416"><ele>107.0</ele><time>2026-04-19T12:00:59.04Z</time></trkpt><trkpt lat="41.2643838" lon="1.6320011"><ele>107.0</ele><time>2026-04-19T12:01:00.04Z</time></trkpt><trkpt lat="41.2644861" lon="1.6317552"><ele>107.0</ele><time>2026-04-19T12:01:01.04Z</time></trkpt><trkpt lat="41.2645744" lon="1.6314971"><ele>107.0</ele><time>2026-04-19T12:01:02.04Z</time></trkpt><trkpt lat="41.2646413" lon="1.6312297"><ele>107.0</ele><time>2026-04-19T12:01:03.041Z</time></trkpt><trkpt lat="41.2646912" lon="1.6309555"><ele>107.0</ele><time>2026-04-19T12:01:04.041Z</time></trkpt><trkpt lat="41.2647337" lon="1.6306899"><ele>107.0</ele><time>2026-04-19T12:01:05.041Z</time></trkpt><trkpt lat="41.2647741" lon="1.6304342"><ele>107.0</ele><time>2026-04-19T12:01:06.04Z</time></trkpt><trkpt lat="41.2648199" lon="1.6301686"><ele>108.66666666666666</ele><time>2026-04-19T12:01:07.041Z</time></trkpt><trkpt lat="41.26488" lon="1.6298965"><ele>110.33333333333334</ele><time>2026-04-19T12:01:08.04Z</time></trkpt><trkpt lat="41.264954" lon="1.6296217"><ele>112.0</ele><time>2026-04-19T12:01:09.041Z</time></trkpt><trkpt lat="41.2650385" lon="1.6293357"><ele>112.0</ele><time>2026-04-19T12:01:10.041Z</time></trkpt><trkpt lat="41.2651302" lon="1.6290303"><ele>112.0</ele><time>2026-04-19T12:01:11.04Z</time></trkpt><trkpt lat="41.2652274" lon="1.628708"><ele>112.0</ele><time>2026-04-19T12:01:12.041Z</time></trkpt><trkpt lat="41.265328" lon="1.6283734"><ele>112.0</ele><time>2026-04-19T12:01:13.04Z</time></trkpt><trkpt lat="41.2654272" lon="1.6280491"><ele>112.5</ele><time>2026-04-19T12:01:14.04Z</time></trkpt><trkpt lat="41.2655222" lon="1.627741"><ele>113.0</ele><time>2026-04-19T12:01:15.041Z</time></trkpt><trkpt lat="41.2656119" lon="1.6274468"><ele>115.0</ele><time>2026-04-19T12:01:16.041Z</time></trkpt><trkpt lat="41.2656973" lon="1.6271657"><ele>117.0</ele><time>2026-04-19T12:01:17.04Z</time></trkpt><trkpt lat="41.2657795" lon="1.626879"><ele>117.0</ele><time>2026-04-19T12:01:18.041Z</time></trkpt><trkpt lat="41.2658525" lon="1.6265813"><ele>117.0</ele><time>2026-04-19T12:01:19.041Z</time></trkpt><trkpt lat="41.2659139" lon="1.6262606"><ele>117.0</ele><time>2026-04-19T12:01:20.041Z</time></trkpt><trkpt lat="41.2659647" lon="1.6259389"><ele>117.0</ele><time>2026-04-19T12:01:21.041Z</time></trkpt><trkpt lat="41.2660111" lon="1.6256254"><ele>117.0</ele><time>2026-04-19T12:01:22.04Z</time></trkpt><trkpt lat="41.2660561" lon="1.6253263"><ele>117.0</ele><time>2026-04-19T12:01:23.041Z</time></trkpt><trkpt lat="41.2660974" lon="1.6250433"><ele>117.0</ele><time>2026-04-19T12:01:24.04Z</time></trkpt><trkpt lat="41.2661291" lon="1.624775"><ele>117.0</ele><time>2026-04-19T12:01:25.04Z</time></trkpt><trkpt lat="41.2661408" lon="1.6245112"><ele>117.0</ele><time>2026-04-19T12:01:26.04Z</time></trkpt><trkpt lat="41.2661185" lon="1.6242532"><ele>117.0</ele><time>2026-04-19T12:01:27.041Z</time></trkpt><trkpt lat="41.2660733" lon="1.6240016"><ele>117.33333333333334</ele><time>2026-04-19T12:01:28.041Z</time></trkpt><trkpt lat="41.2660241" lon="1.6237661"><ele>117.66666666666667</ele><time>2026-04-19T12:01:29.041Z</time></trkpt><trkpt lat="41.2659798" lon="1.6235447"><ele>118.0</ele><time>2026-04-19T12:01:30.041Z</time></trkpt><trkpt lat="41.2659491" lon="1.6233257"><ele>120.0</ele><time>2026-04-19T12:01:31.041Z</time></trkpt><trkpt lat="41.2659332" lon="1.623108"><ele>122.0</ele><time>2026-04-19T12:01:32.041Z</time></trkpt><trkpt lat="41.2659229" lon="1.6228829"><ele>124.0</ele><time>2026-04-19T12:01:33.041Z</time></trkpt><trkpt lat="41.2659113" lon="1.6226329"><ele>124.0</ele><time>2026-04-19T12:01:34.04Z</time></trkpt><trkpt lat="41.2658964" lon="1.622353"><ele>124.0</ele><time>2026-04-19T12:01:35.041Z</time></trkpt><trkpt lat="41.2658803" lon="1.6220623"><ele>124.0</ele><time>2026-04-19T12:01:36.041Z</time></trkpt><trkpt lat="41.2658653" lon="1.6217532"><ele>125.0</ele><time>2026-04-19T12:01:37.04Z</time></trkpt><trkpt lat="41.2658551" lon="1.6214231"><ele>126.0</ele><time>2026-04-19T12:01:38.041Z</time></trkpt><trkpt lat="41.2658473" lon="1.6210807"><ele>126.0</ele><time>2026-04-19T12:01:39.041Z</time></trkpt><trkpt lat="41.2658387" lon="1.6207468"><ele>126.0</ele><time>2026-04-19T12:01:40.04Z</time></trkpt><trkpt lat="41.2658283" lon="1.6204418"><ele>124.66666666666666</ele><time>2026-04-19T12:01:41.041Z</time></trkpt><trkpt lat="41.2658181" lon="1.6201621"><ele>123.33333333333333</ele><time>2026-04-19T12:01:42.041Z</time></trkpt><trkpt lat="41.2658097" lon="1.6199068"><ele>122.0</ele><time>2026-04-19T12:01:43.041Z</time></trkpt><trkpt lat="41.2658045" lon="1.6196612"><ele>122.33333333333333</ele><time>2026-04-19T12:01:44.041Z</time></trkpt><trkpt lat="41.265804" lon="1.6194156"><ele>122.66666666666666</ele><time>2026-04-19T12:01:45.041Z</time></trkpt><trkpt lat="41.2658139" lon="1.6191607"><ele>123.0</ele><time>2026-04-19T12:01:46.041Z</time></trkpt><trkpt lat="41.2658384" lon="1.6188996"><ele>123.33333333333334</ele><time>2026-04-19T12:01:47.041Z</time></trkpt><trkpt lat="41.2658793" lon="1.618633"><ele>123.66666666666667</ele><time>2026-04-19T12:01:48.04Z</time></trkpt><trkpt lat="41.2659315" lon="1.6183588"><ele>124.0</ele><time>2026-04-19T12:01:49.04Z</time></trkpt><trkpt lat="41.2659897" lon="1.6180749"><ele>125.0</ele><time>2026-04-19T12:01:50.04Z</time></trkpt><trkpt lat="41.2660524" lon="1.6177787"><ele>126.0</ele><time>2026-04-19T12:01:51.04Z</time></trkpt><trkpt lat="41.2661198" lon="1.6174656"><ele>126.0</ele><time>2026-04-19T12:01:52.041Z</time></trkpt><trkpt lat="41.2661897" lon="1.6171404"><ele>126.0</ele><time>2026-04-19T12:01:53.041Z</time></trkpt><trkpt lat="41.2662611" lon="1.6168123"><ele>126.0</ele><time>2026-04-19T12:01:54.04Z</time></trkpt><trkpt lat="41.2663418" lon="1.6164857"><ele>126.0</ele><time>2026-04-19T12:01:55.041Z</time></trkpt><trkpt lat="41.2664396" lon="1.616164"><ele>126.0</ele><time>2026-04-19T12:01:56.041Z</time></trkpt><trkpt lat="41.2665469" lon="1.6158441"><ele>126.0</ele><time>2026-04-19T12:01:57.04Z</time></trkpt><trkpt lat="41.2666544" lon="1.6155278"><ele>127.0</ele><time>2026-04-19T12:01:58.041Z</time></trkpt><trkpt lat="41.2667601" lon="1.6152169"><ele>128.0</ele><time>2026-04-19T12:01:59.041Z</time></trkpt><trkpt lat="41.2668607" lon="1.6149163"><ele>128.0</ele><time>2026-04-19T12:02:00.041Z</time></trkpt><trkpt lat="41.2669516" lon="1.6146136"><ele>128.0</ele><time>2026-04-19T12:02:01.04Z</time></trkpt><trkpt lat="41.267031" lon="1.6142956"><ele>128.5</ele><time>2026-04-19T12:02:02.041Z</time></trkpt><trkpt lat="41.2671021" lon="1.6139718"><ele>129.0</ele><time>2026-04-19T12:02:03.041Z</time></trkpt><trkpt lat="41.2671688" lon="1.613657"><ele>129.5</ele><time>2026-04-19T12:02:04.041Z</time></trkpt><trkpt lat="41.2672314" lon="1.6133576"><ele>130.0</ele><time>2026-04-19T12:02:05.041Z</time></trkpt><trkpt lat="41.2672897" lon="1.6130725"><ele>131.0</ele><time>2026-04-19T12:02:06.041Z</time></trkpt><trkpt lat="41.2673443" lon="1.6127996"><ele>132.0</ele><time>2026-04-19T12:02:07.04Z</time></trkpt><trkpt lat="41.2673976" lon="1.6125355"><ele>133.0</ele><time>2026-04-19T12:02:08.041Z</time></trkpt><trkpt lat="41.267451" lon="1.6122739"><ele>133.0</ele><time>2026-04-19T12:02:09.041Z</time></trkpt><trkpt lat="41.2675044" lon="1.6120236"><ele>133.0</ele><time>2026-04-19T12:02:10.041Z</time></trkpt><trkpt lat="41.2675587" lon="1.6117873"><ele>133.0</ele><time>2026-04-19T12:02:11.041Z</time></trkpt><trkpt lat="41.2676138" lon="1.6115589"><ele>133.66666666666669</ele><time>2026-04-19T12:02:12.04Z</time></trkpt><trkpt lat="41.2676674" lon="1.6113403"><ele>134.33333333333334</ele><time>2026-04-19T12:02:13.04Z</time></trkpt><trkpt lat="41.2677181" lon="1.6111333"><ele>135.0</ele><time>2026-04-19T12:02:14.041Z</time></trkpt><trkpt lat="41.2677659" lon="1.6109396"><ele>136.0</ele><time>2026-04-19T12:02:15.041Z</time></trkpt><trkpt lat="41.2678121" lon="1.6107562"><ele>137.0</ele><time>2026-04-19T12:02:16.041Z</time></trkpt><trkpt lat="41.2678556" lon="1.6105827"><ele>138.0</ele><time>2026-04-19T12:02:17.041Z</time></trkpt><trkpt lat="41.2678967" lon="1.6104245"><ele>139.0</ele><time>2026-04-19T12:02:18.041Z</time></trkpt><trkpt lat="41.2679324" lon="1.6102837"><ele>139.33333333333334</ele><time>2026-04-19T12:02:19.041Z</time></trkpt><trkpt lat="41.2679624" lon="1.6101645"><ele>139.66666666666669</ele><time>2026-04-19T12:02:20.04Z</time></trkpt><trkpt lat="41.2679849" lon="1.6100573"><ele>140.0</ele><time>2026-04-19T12:02:21.04Z</time></trkpt><trkpt lat="41.2680104" lon="1.6099546"><ele>140.33333333333334</ele><time>2026-04-19T12:02:22.04Z</time></trkpt><trkpt lat="41.2680363" lon="1.6098508"><ele>140.66666666666666</ele><time>2026-04-19T12:02:23.041Z</time></trkpt><trkpt lat="41.2680658" lon="1.6097374"><ele>141.0</ele><time>2026-04-19T12:02:24.041Z</time></trkpt><trkpt lat="41.2680994" lon="1.6096073"><ele>141.0</ele><time>2026-04-19T12:02:25.041Z</time></trkpt><trkpt lat="41.2681395" lon="1.6094645"><ele>141.0</ele><time>2026-04-19T12:02:26.041Z</time></trkpt><trkpt lat="41.268185" lon="1.6093136"><ele>141.0</ele><time>2026-04-19T12:02:27.041Z</time></trkpt><trkpt lat="41.2682368" lon="1.6091585"><ele>141.0</ele><time>2026-04-19T12:02:28.041Z</time></trkpt><trkpt lat="41.2682921" lon="1.6089986"><ele>141.0</ele><time>2026-04-19T12:02:29.041Z</time></trkpt><trkpt lat="41.2683504" lon="1.6088302"><ele>141.0</ele><time>2026-04-19T12:02:30.041Z</time></trkpt><trkpt lat="41.2684073" lon="1.6086675"><ele>141.0</ele><time>2026-04-19T12:02:31.041Z</time></trkpt><trkpt lat="41.2684625" lon="1.6085114"><ele>141.0</ele><time>2026-04-19T12:02:32.041Z</time></trkpt><trkpt lat="41.2685134" lon="1.6083672"><ele>141.4</ele><time>2026-04-19T12:02:33.041Z</time></trkpt><trkpt lat="41.2685606" lon="1.6082329"><ele>141.8</ele><time>2026-04-19T12:02:34.04Z</time></trkpt><trkpt lat="41.2686082" lon="1.6081041"><ele>142.20000000000002</ele><time>2026-04-19T12:02:35.041Z</time></trkpt><trkpt lat="41.2686565" lon="1.6079841"><ele>142.6</ele><time>2026-04-19T12:02:36.041Z</time></trkpt><trkpt lat="41.268703" lon="1.6078816"><ele>143.0</ele><time>2026-04-19T12:02:37.041Z</time></trkpt><trkpt lat="41.2687404" lon="1.607807"><ele>143.83333333333331</ele><time>2026-04-19T12:02:38.041Z</time></trkpt><trkpt lat="41.2688112" lon="1.6077041"><ele>144.66666666666666</ele><time>2026-04-19T12:02:40.041Z</time></trkpt><trkpt lat="41.2688744" lon="1.6076584"><ele>145.5</ele><time>2026-04-19T12:02:41.041Z</time></trkpt><trkpt lat="41.2689501" lon="1.6076223"><ele>146.33333333333334</ele><time>2026-04-19T12:02:42.04Z</time></trkpt><trkpt lat="41.2690316" lon="1.6075978"><ele>147.16666666666669</ele><time>2026-04-19T12:02:43.041Z</time></trkpt><trkpt lat="41.2691177" lon="1.60759"><ele>148.0</ele><time>2026-04-19T12:02:44.041Z</time></trkpt><trkpt lat="41.2692135" lon="1.6076018"><ele>148.0</ele><time>2026-04-19T12:02:45.041Z</time></trkpt><trkpt lat="41.2693175" lon="1.6076311"><ele>148.0</ele><time>2026-04-19T12:02:46.041Z</time></trkpt><trkpt lat="41.2694266" lon="1.6076772"><ele>148.0</ele><time>2026-04-19T12:02:47.041Z</time></trkpt><trkpt lat="41.2695394" lon="1.6077317"><ele>148.0</ele><time>2026-04-19T12:02:48.041Z</time></trkpt><trkpt lat="41.2696536" lon="1.6077896"><ele>147.25</ele><time>2026-04-19T12:02:49.04Z</time></trkpt><trkpt lat="41.2697672" lon="1.6078478"><ele>146.5</ele><time>2026-04-19T12:02:50.033Z</time></trkpt><trkpt lat="41.2698806" lon="1.6079077"><ele>145.75</ele><time>2026-04-19T12:02:51.034Z</time></trkpt><trkpt lat="41.2699926" lon="1.6079669"><ele>145.0</ele><time>2026-04-19T12:02:52.034Z</time></trkpt><trkpt lat="41.270105" lon="1.6080261"><ele>144.0</ele><time>2026-04-19T12:02:53.033Z</time></trkpt><trkpt lat="41.2702169" lon="1.6080834"><ele>143.0</ele><time>2026-04-19T12:02:54.033Z</time></trkpt><trkpt lat="41.270329" lon="1.608139"><ele>142.0</ele><time>2026-04-19T12:02:55.032Z</time></trkpt><trkpt lat="41.2704442" lon="1.6081958"><ele>141.0</ele><time>2026-04-19T12:02:56.032Z</time></trkpt><trkpt lat="41.2705685" lon="1.608259"><ele>140.0</ele><time>2026-04-19T12:02:57.033Z</time></trkpt><trkpt lat="41.2707071" lon="1.608317"><ele>139.0</ele><time>2026-04-19T12:02:58.032Z</time></trkpt><trkpt lat="41.270852" lon="1.6083929"><ele>138.0</ele><time>2026-04-19T12:02:59.033Z</time></trkpt><trkpt lat="41.2710021" lon="1.6084745"><ele>138.0</ele><time>2026-04-19T12:03:00.032Z</time></trkpt><trkpt lat="41.2711565" lon="1.6085587"><ele>138.0</ele><time>2026-04-19T12:03:01.032Z</time></trkpt><trkpt lat="41.2713176" lon="1.6086415"><ele>138.0</ele><time>2026-04-19T12:03:02.033Z</time></trkpt><trkpt lat="41.2714808" lon="1.6087175"><ele>136.33333333333334</ele><time>2026-04-19T12:03:03.033Z</time></trkpt><trkpt lat="41.2716385" lon="1.6087937"><ele>134.66666666666669</ele><time>2026-04-19T12:03:04.033Z</time></trkpt><trkpt lat="41.271787" lon="1.6088674"><ele>133.0</ele><time>2026-04-19T12:03:05.032Z</time></trkpt><trkpt lat="41.271929" lon="1.6089432"><ele>133.0</ele><time>2026-04-19T12:03:06.033Z</time></trkpt><trkpt lat="41.2720638" lon="1.6090166"><ele>133.0</ele><time>2026-04-19T12:03:07.033Z</time></trkpt><trkpt lat="41.2721926" lon="1.6090867"><ele>133.0</ele><time>2026-04-19T12:03:08.033Z</time></trkpt><trkpt lat="41.2723227" lon="1.6091522"><ele>133.0</ele><time>2026-04-19T12:03:09.033Z</time></trkpt><trkpt lat="41.2724548" lon="1.6092193"><ele>132.66666666666669</ele><time>2026-04-19T12:03:10.033Z</time></trkpt><trkpt lat="41.2725931" lon="1.6092887"><ele>132.33333333333334</ele><time>2026-04-19T12:03:11.032Z</time></trkpt><trkpt lat="41.2727377" lon="1.6093628"><ele>132.0</ele><time>2026-04-19T12:03:12.033Z</time></trkpt><trkpt lat="41.2728883" lon="1.6094384"><ele>131.66666666666666</ele><time>2026-04-19T12:03:13.033Z</time></trkpt><trkpt lat="41.2730559" lon="1.609519"><ele>131.33333333333331</ele><time>2026-04-19T12:03:14.032Z</time></trkpt><trkpt lat="41.2732227" lon="1.6096062"><ele>131.0</ele><time>2026-04-19T12:03:15.033Z</time></trkpt><trkpt lat="41.2733881" lon="1.609697"><ele>132.0</ele><time>2026-04-19T12:03:16.033Z</time></trkpt><trkpt lat="41.2735536" lon="1.6097839"><ele>133.0</ele><time>2026-04-19T12:03:17.033Z</time></trkpt><trkpt lat="41.2737199" lon="1.6098676"><ele>134.0</ele><time>2026-04-19T12:03:18.032Z</time></trkpt><trkpt lat="41.2738871" lon="1.609953"><ele>135.33333333333331</ele><time>2026-04-19T12:03:19.032Z</time></trkpt><trkpt lat="41.2740544" lon="1.6100365"><ele>136.66666666666666</ele><time>2026-04-19T12:03:20.033Z</time></trkpt><trkpt lat="41.2742151" lon="1.610125"><ele>138.0</ele><time>2026-04-19T12:03:21.033Z</time></trkpt><trkpt lat="41.2743732" lon="1.6102032"><ele>138.0</ele><time>2026-04-19T12:03:22.032Z</time></trkpt><trkpt lat="41.2745284" lon="1.6102821"><ele>138.0</ele><time>2026-04-19T12:03:23.032Z</time></trkpt><trkpt lat="41.2746868" lon="1.6103664"><ele>138.0</ele><time>2026-04-19T12:03:24.032Z</time></trkpt><trkpt lat="41.2748488" lon="1.6104459"><ele>137.33333333333334</ele><time>2026-04-19T12:03:25.033Z</time></trkpt><trkpt lat="41.2750146" lon="1.6105348"><ele>136.66666666666669</ele><time>2026-04-19T12:03:26.033Z</time></trkpt><trkpt lat="41.2751856" lon="1.6106201"><ele>136.0</ele><time>2026-04-19T12:03:27.033Z</time></trkpt><trkpt lat="41.2753545" lon="1.6107053"><ele>136.0</ele><time>2026-04-19T12:03:28.032Z</time></trkpt><trkpt lat="41.2755234" lon="1.6107931"><ele>136.0</ele><time>2026-04-19T12:03:29.033Z</time></trkpt><trkpt lat="41.2756916" lon="1.6108826"><ele>136.0</ele><time>2026-04-19T12:03:30.032Z</time></trkpt><trkpt lat="41.2758633" lon="1.6109707"><ele>135.66666666666669</ele><time>2026-04-19T12:03:31.033Z</time></trkpt><trkpt lat="41.2760366" lon="1.611057"><ele>135.33333333333334</ele><time>2026-04-19T12:03:32.033Z</time></trkpt><trkpt lat="41.2762115" lon="1.611145"><ele>135.0</ele><time>2026-04-19T12:03:33.032Z</time></trkpt><trkpt lat="41.2763893" lon="1.6112362"><ele>135.0</ele><time>2026-04-19T12:03:34.033Z</time></trkpt><trkpt lat="41.276591" lon="1.6113384"><ele>135.0</ele><time>2026-04-19T12:03:35.032Z</time></trkpt><trkpt lat="41.27679" lon="1.6114464"><ele>135.0</ele><time>2026-04-19T12:03:36.032Z</time></trkpt><trkpt lat="41.2770093" lon="1.6115655"><ele>135.0</ele><time>2026-04-19T12:03:37.032Z</time></trkpt><trkpt lat="41.2772402" lon="1.6116833"><ele>135.0</ele><time>2026-04-19T12:03:38.033Z</time></trkpt><trkpt lat="41.2774795" lon="1.611804"><ele>135.5</ele><time>2026-04-19T12:03:39.032Z</time></trkpt><trkpt lat="41.2777046" lon="1.6119188"><ele>136.0</ele><time>2026-04-19T12:03:40.033Z</time></trkpt><trkpt lat="41.2779176" lon="1.612035"><ele>136.0</ele><time>2026-04-19T12:03:41.032Z</time></trkpt><trkpt lat="41.2781214" lon="1.6121393"><ele>136.0</ele><time>2026-04-19T12:03:42.032Z</time></trkpt><trkpt lat="41.2783177" lon="1.6122392"><ele>136.0</ele><time>2026-04-19T12:03:43.032Z</time></trkpt><trkpt lat="41.2785133" lon="1.6123416"><ele>136.0</ele><time>2026-04-19T12:03:44.032Z</time></trkpt><trkpt lat="41.2787137" lon="1.6124405"><ele>136.0</ele><time>2026-04-19T12:03:45.032Z</time></trkpt><trkpt lat="41.2789083" lon="1.6125399"><ele>136.0</ele><time>2026-04-19T12:03:46.033Z</time></trkpt><trkpt lat="41.2790939" lon="1.6126352"><ele>136.33333333333334</ele><time>2026-04-19T12:03:47.033Z</time></trkpt><trkpt lat="41.2792698" lon="1.6127262"><ele>136.66666666666666</ele><time>2026-04-19T12:03:48.033Z</time></trkpt><trkpt lat="41.2794372" lon="1.6128126"><ele>137.0</ele><time>2026-04-19T12:03:49.032Z</time></trkpt><trkpt lat="41.2796039" lon="1.6128919"><ele>137.0</ele><time>2026-04-19T12:03:50.033Z</time></trkpt><trkpt lat="41.2797613" lon="1.6129732"><ele>137.0</ele><time>2026-04-19T12:03:51.032Z</time></trkpt><trkpt lat="41.279921" lon="1.6130553"><ele>137.0</ele><time>2026-04-19T12:03:52.032Z</time></trkpt><trkpt lat="41.2800783" lon="1.6131373"><ele>137.33333333333331</ele><time>2026-04-19T12:03:53.033Z</time></trkpt><trkpt lat="41.280235" lon="1.6132192"><ele>137.66666666666666</ele><time>2026-04-19T12:03:54.032Z</time></trkpt><trkpt lat="41.280389" lon="1.6132975"><ele>138.0</ele><time>2026-04-19T12:03:55.033Z</time></trkpt><trkpt lat="41.2805413" lon="1.6133758"><ele>138.66666666666666</ele><time>2026-04-19T12:03:56.032Z</time></trkpt><trkpt lat="41.2806959" lon="1.6134557"><ele>139.33333333333331</ele><time>2026-04-19T12:03:57.032Z</time></trkpt><trkpt lat="41.2808514" lon="1.6135352"><ele>140.0</ele><time>2026-04-19T12:03:58.033Z</time></trkpt><trkpt lat="41.2810052" lon="1.6136245"><ele>140.0</ele><time>2026-04-19T12:03:59.032Z</time></trkpt><trkpt lat="41.281159" lon="1.6137045"><ele>140.0</ele><time>2026-04-19T12:04:00.033Z</time></trkpt><trkpt lat="41.2813183" lon="1.613786"><ele>140.0</ele><time>2026-04-19T12:04:01.032Z</time></trkpt><trkpt lat="41.2814755" lon="1.6138626"><ele>140.0</ele><time>2026-04-19T12:04:02.033Z</time></trkpt><trkpt lat="41.2816311" lon="1.613937"><ele>140.0</ele><time>2026-04-19T12:04:03.032Z</time></trkpt><trkpt lat="41.2819201" lon="1.6140461"><ele>140.0</ele><time>2026-04-19T12:04:05.032Z</time></trkpt><trkpt lat="41.2820725" lon="1.614104"><ele>140.0</ele><time>2026-04-19T12:04:06.032Z</time></trkpt><trkpt lat="41.2822374" lon="1.6141662"><ele>140.0</ele><time>2026-04-19T12:04:07.033Z</time></trkpt><trkpt lat="41.2824005" lon="1.6142413"><ele>140.66666666666666</ele><time>2026-04-19T12:04:08.033Z</time></trkpt><trkpt lat="41.2825537" lon="1.6143258"><ele>141.33333333333334</ele><time>2026-04-19T12:04:09.033Z</time></trkpt><trkpt lat="41.2827063" lon="1.6144138"><ele>142.0</ele><time>2026-04-19T12:04:10.032Z</time></trkpt><trkpt lat="41.282858" lon="1.6145241"><ele>140.0</ele><time>2026-04-19T12:04:11.033Z</time></trkpt><trkpt lat="41.2830058" lon="1.6146532"><ele>138.0</ele><time>2026-04-19T12:04:12.033Z</time></trkpt><trkpt lat="41.2831506" lon="1.6147965"><ele>136.0</ele><time>2026-04-19T12:04:13.033Z</time></trkpt><trkpt lat="41.2832905" lon="1.6149463"><ele>136.0</ele><time>2026-04-19T12:04:14.032Z</time></trkpt><trkpt lat="41.2834208" lon="1.6151019"><ele>136.0</ele><time>2026-04-19T12:04:15.032Z</time></trkpt><trkpt lat="41.2835489" lon="1.6152698"><ele>136.0</ele><time>2026-04-19T12:04:16.033Z</time></trkpt><trkpt lat="41.2836807" lon="1.6154367"><ele>135.66666666666669</ele><time>2026-04-19T12:04:17.032Z</time></trkpt><trkpt lat="41.2838107" lon="1.6155948"><ele>135.33333333333334</ele><time>2026-04-19T12:04:18.033Z</time></trkpt><trkpt lat="41.28395" lon="1.6157663"><ele>135.0</ele><time>2026-04-19T12:04:19.032Z</time></trkpt><trkpt lat="41.2840914" lon="1.6159397"><ele>135.0</ele><time>2026-04-19T12:04:20.033Z</time></trkpt><trkpt lat="41.2842304" lon="1.6161138"><ele>135.0</ele><time>2026-04-19T12:04:21.032Z</time></trkpt><trkpt lat="41.2843712" lon="1.6162859"><ele>135.0</ele><time>2026-04-19T12:04:22.033Z</time></trkpt><trkpt lat="41.2845084" lon="1.6164598"><ele>135.33333333333334</ele><time>2026-04-19T12:04:23.033Z</time></trkpt><trkpt lat="41.2846452" lon="1.6166415"><ele>135.66666666666669</ele><time>2026-04-19T12:04:24.033Z</time></trkpt><trkpt lat="41.2847901" lon="1.616824"><ele>136.0</ele><time>2026-04-19T12:04:25.033Z</time></trkpt><trkpt lat="41.2849406" lon="1.6170039"><ele>136.66666666666669</ele><time>2026-04-19T12:04:26.033Z</time></trkpt><trkpt lat="41.285088" lon="1.6171739"><ele>137.33333333333334</ele><time>2026-04-19T12:04:27.032Z</time></trkpt><trkpt lat="41.2852386" lon="1.617334"><ele>138.0</ele><time>2026-04-19T12:04:28.032Z</time></trkpt><trkpt lat="41.2853832" lon="1.6174847"><ele>138.0</ele><time>2026-04-19T12:04:29.032Z</time></trkpt><trkpt lat="41.2855248" lon="1.617627"><ele>138.0</ele><time>2026-04-19T12:04:30.033Z</time></trkpt><trkpt lat="41.2856622" lon="1.6177637"><ele>138.0</ele><time>2026-04-19T12:04:31.032Z</time></trkpt><trkpt lat="41.2857978" lon="1.6178908"><ele>139.33333333333334</ele><time>2026-04-19T12:04:32.032Z</time></trkpt><trkpt lat="41.2859279" lon="1.6180201"><ele>140.66666666666669</ele><time>2026-04-19T12:04:33.033Z</time></trkpt><trkpt lat="41.2860614" lon="1.6181578"><ele>142.0</ele><time>2026-04-19T12:04:34.033Z</time></trkpt><trkpt lat="41.2861963" lon="1.6182929"><ele>142.0</ele><time>2026-04-19T12:04:35.033Z</time></trkpt><trkpt lat="41.2863304" lon="1.6184216"><ele>142.0</ele><time>2026-04-19T12:04:36.033Z</time></trkpt><trkpt lat="41.286467" lon="1.6185569"><ele>142.0</ele><time>2026-04-19T12:04:37.032Z</time></trkpt><trkpt lat="41.2866091" lon="1.6186946"><ele>141.33333333333334</ele><time>2026-04-19T12:04:38.032Z</time></trkpt><trkpt lat="41.2867609" lon="1.6188401"><ele>140.66666666666666</ele><time>2026-04-19T12:04:39.033Z</time></trkpt><trkpt lat="41.2869371" lon="1.6190036"><ele>140.0</ele><time>2026-04-19T12:04:40.032Z</time></trkpt><trkpt lat="41.2871224" lon="1.6191772"><ele>140.5</ele><time>2026-04-19T12:04:41.033Z</time></trkpt><trkpt lat="41.2873069" lon="1.6193653"><ele>141.0</ele><time>2026-04-19T12:04:42.033Z</time></trkpt><trkpt lat="41.2875014" lon="1.6195655"><ele>142.0</ele><time>2026-04-19T12:04:43.033Z</time></trkpt><trkpt lat="41.2877076" lon="1.6197769"><ele>143.0</ele><time>2026-04-19T12:04:44.033Z</time></trkpt><trkpt lat="41.2879171" lon="1.6199858"><ele>143.0</ele><time>2026-04-19T12:04:45.033Z</time></trkpt><trkpt lat="41.2881176" lon="1.6201852"><ele>143.0</ele><time>2026-04-19T12:04:46.033Z</time></trkpt><trkpt lat="41.2883066" lon="1.6203747"><ele>143.33333333333331</ele><time>2026-04-19T12:04:47.033Z</time></trkpt><trkpt lat="41.2884866" lon="1.6205555"><ele>143.66666666666666</ele><time>2026-04-19T12:04:48.033Z</time></trkpt><trkpt lat="41.2886564" lon="1.6207269"><ele>144.0</ele><time>2026-04-19T12:04:49.033Z</time></trkpt><trkpt lat="41.2888204" lon="1.6208956"><ele>143.66666666666666</ele><time>2026-04-19T12:04:50.032Z</time></trkpt><trkpt lat="41.2889756" lon="1.6210472"><ele>143.33333333333331</ele><time>2026-04-19T12:04:51.032Z</time></trkpt><trkpt lat="41.2891262" lon="1.6211984"><ele>143.0</ele><time>2026-04-19T12:04:52.032Z</time></trkpt><trkpt lat="41.2892709" lon="1.6213442"><ele>142.66666666666666</ele><time>2026-04-19T12:04:53.032Z</time></trkpt><trkpt lat="41.2894186" lon="1.6214851"><ele>142.33333333333334</ele><time>2026-04-19T12:04:54.033Z</time></trkpt><trkpt lat="41.2895644" lon="1.6216237"><ele>142.0</ele><time>2026-04-19T12:04:55.032Z</time></trkpt><trkpt lat="41.2897098" lon="1.6217644"><ele>143.0</ele><time>2026-04-19T12:04:56.033Z</time></trkpt><trkpt lat="41.2898566" lon="1.621911"><ele>144.0</ele><time>2026-04-19T12:04:57.033Z</time></trkpt><trkpt lat="41.2900039" lon="1.6220565"><ele>145.0</ele><time>2026-04-19T12:04:58.033Z</time></trkpt><trkpt lat="41.2901492" lon="1.6222008"><ele>145.0</ele><time>2026-04-19T12:04:59.032Z</time></trkpt><trkpt lat="41.2902963" lon="1.6223466"><ele>145.0</ele><time>2026-04-19T12:05:00.033Z</time></trkpt><trkpt lat="41.2904423" lon="1.6224864"><ele>145.0</ele><time>2026-04-19T12:05:01.033Z</time></trkpt><trkpt lat="41.2905896" lon="1.6226336"><ele>146.0</ele><time>2026-04-19T12:05:02.033Z</time></trkpt><trkpt lat="41.2907381" lon="1.6227781"><ele>147.0</ele><time>2026-04-19T12:05:03.032Z</time></trkpt><trkpt lat="41.2908829" lon="1.6229238"><ele>148.0</ele><time>2026-04-19T12:05:04.033Z</time></trkpt><trkpt lat="41.2910253" lon="1.6230713"><ele>149.0</ele><time>2026-04-19T12:05:05.033Z</time></trkpt><trkpt lat="41.2911673" lon="1.6232115"><ele>150.0</ele><time>2026-04-19T12:05:06.032Z</time></trkpt><trkpt lat="41.2913011" lon="1.6233454"><ele>151.0</ele><time>2026-04-19T12:05:07.032Z</time></trkpt><trkpt lat="41.2914354" lon="1.62347"><ele>151.0</ele><time>2026-04-19T12:05:08.033Z</time></trkpt><trkpt lat="41.2915604" lon="1.6235963"><ele>151.0</ele><time>2026-04-19T12:05:09.033Z</time></trkpt><trkpt lat="41.2916955" lon="1.6237127"><ele>151.0</ele><time>2026-04-19T12:05:10.033Z</time></trkpt><trkpt lat="41.2918369" lon="1.6238346"><ele>151.0</ele><time>2026-04-19T12:05:11.032Z</time></trkpt><trkpt lat="41.2919767" lon="1.6239521"><ele>151.0</ele><time>2026-04-19T12:05:12.033Z</time></trkpt><trkpt lat="41.2921129" lon="1.6240708"><ele>151.0</ele><time>2026-04-19T12:05:13.033Z</time></trkpt><trkpt lat="41.2922514" lon="1.6241924"><ele>150.66666666666669</ele><time>2026-04-19T12:05:14.033Z</time></trkpt><trkpt lat="41.2923964" lon="1.6243153"><ele>150.33333333333334</ele><time>2026-04-19T12:05:15.033Z</time></trkpt><trkpt lat="41.2925457" lon="1.6244431"><ele>150.0</ele><time>2026-04-19T12:05:16.032Z</time></trkpt><trkpt lat="41.2926968" lon="1.6245759"><ele>149.33333333333334</ele><time>2026-04-19T12:05:17.032Z</time></trkpt><trkpt lat="41.2928489" lon="1.6247102"><ele>148.66666666666669</ele><time>2026-04-19T12:05:18.033Z</time></trkpt><trkpt lat="41.2930026" lon="1.624841"><ele>148.0</ele><time>2026-04-19T12:05:19.033Z</time></trkpt><trkpt lat="41.2931498" lon="1.6249724"><ele>147.66666666666669</ele><time>2026-04-19T12:05:20.033Z</time></trkpt><trkpt lat="41.2932995" lon="1.6251051"><ele>147.33333333333334</ele><time>2026-04-19T12:05:21.032Z</time></trkpt><trkpt lat="41.2934517" lon="1.625237"><ele>147.0</ele><time>2026-04-19T12:05:22.033Z</time></trkpt><trkpt lat="41.2935996" lon="1.6253709"><ele>147.0</ele><time>2026-04-19T12:05:23.033Z</time></trkpt><trkpt lat="41.2937499" lon="1.6255097"><ele>147.0</ele><time>2026-04-19T12:05:24.033Z</time></trkpt><trkpt lat="41.2938967" lon="1.6256535"><ele>147.0</ele><time>2026-04-19T12:05:25.033Z</time></trkpt><trkpt lat="41.2940388" lon="1.6258066"><ele>147.0</ele><time>2026-04-19T12:05:26.033Z</time></trkpt><trkpt lat="41.2941818" lon="1.6259668"><ele>147.0</ele><time>2026-04-19T12:05:27.033Z</time></trkpt><trkpt lat="41.2943179" lon="1.6261362"><ele>147.0</ele><time>2026-04-19T12:05:28.032Z</time></trkpt><trkpt lat="41.2944488" lon="1.626309"><ele>146.33333333333334</ele><time>2026-04-19T12:05:29.032Z</time></trkpt><trkpt lat="41.2945722" lon="1.6264902"><ele>145.66666666666669</ele><time>2026-04-19T12:05:30.033Z</time></trkpt><trkpt lat="41.2946896" lon="1.6266799"><ele>145.0</ele><time>2026-04-19T12:05:31.033Z</time></trkpt><trkpt lat="41.2948055" lon="1.6268769"><ele>146.0</ele><time>2026-04-19T12:05:32.033Z</time></trkpt><trkpt lat="41.2949192" lon="1.6270781"><ele>147.0</ele><time>2026-04-19T12:05:33.032Z</time></trkpt><trkpt lat="41.2950235" lon="1.6272847"><ele>148.0</ele><time>2026-04-19T12:05:34.032Z</time></trkpt><trkpt lat="41.2951228" lon="1.6274973"><ele>148.0</ele><time>2026-04-19T12:05:35.033Z</time></trkpt><trkpt lat="41.2952144" lon="1.6277097"><ele>148.0</ele><time>2026-04-19T12:05:36.032Z</time></trkpt><trkpt lat="41.2952946" lon="1.62793"><ele>148.0</ele><time>2026-04-19T12:05:37.033Z</time></trkpt><trkpt lat="41.2953744" lon="1.6281527"><ele>147.66666666666669</ele><time>2026-04-19T12:05:38.033Z</time></trkpt><trkpt lat="41.2954517" lon="1.628378"><ele>147.33333333333334</ele><time>2026-04-19T12:05:39.033Z</time></trkpt><trkpt lat="41.2955239" lon="1.6286098"><ele>147.0</ele><time>2026-04-19T12:05:40.033Z</time></trkpt><trkpt lat="41.2955935" lon="1.6288398"><ele>147.0</ele><time>2026-04-19T12:05:41.033Z</time></trkpt><trkpt lat="41.2956638" lon="1.6290689"><ele>147.0</ele><time>2026-04-19T12:05:42.032Z</time></trkpt><trkpt lat="41.2957313" lon="1.6292946"><ele>147.0</ele><time>2026-04-19T12:05:43.033Z</time></trkpt><trkpt lat="41.2957971" lon="1.629521"><ele>145.33333333333334</ele><time>2026-04-19T12:05:44.032Z</time></trkpt><trkpt lat="41.2958641" lon="1.6297523"><ele>143.66666666666669</ele><time>2026-04-19T12:05:45.033Z</time></trkpt><trkpt lat="41.2959342" lon="1.6299769"><ele>142.0</ele><time>2026-04-19T12:05:46.033Z</time></trkpt><trkpt lat="41.2960063" lon="1.6301997"><ele>142.0</ele><time>2026-04-19T12:05:47.032Z</time></trkpt><trkpt lat="41.2960848" lon="1.6304252"><ele>142.0</ele><time>2026-04-19T12:05:48.032Z</time></trkpt><trkpt lat="41.2961758" lon="1.6306557"><ele>142.0</ele><time>2026-04-19T12:05:49.032Z</time></trkpt><trkpt lat="41.2962733" lon="1.6308851"><ele>142.0</ele><time>2026-04-19T12:05:50.033Z</time></trkpt><trkpt lat="41.2963816" lon="1.6311017"><ele>142.0</ele><time>2026-04-19T12:05:51.033Z</time></trkpt><trkpt lat="41.2964996" lon="1.6312984"><ele>142.0</ele><time>2026-04-19T12:05:52.032Z</time></trkpt><trkpt lat="41.2966281" lon="1.6314791"><ele>144.33333333333334</ele><time>2026-04-19T12:05:53.033Z</time></trkpt><trkpt lat="41.2967533" lon="1.6316497"><ele>146.66666666666666</ele><time>2026-04-19T12:05:54.032Z</time></trkpt><trkpt lat="41.2968866" lon="1.6318088"><ele>149.0</ele><time>2026-04-19T12:05:55.033Z</time></trkpt><trkpt lat="41.2970246" lon="1.6319495"><ele>150.0</ele><time>2026-04-19T12:05:56.033Z</time></trkpt><trkpt lat="41.2971644" lon="1.6320813"><ele>151.0</ele><time>2026-04-19T12:05:57.033Z</time></trkpt><trkpt lat="41.2973136" lon="1.6322057"><ele>152.0</ele><time>2026-04-19T12:05:58.033Z</time></trkpt><trkpt lat="41.297472" lon="1.6323257"><ele>153.0</ele><time>2026-04-19T12:05:59.033Z</time></trkpt><trkpt lat="41.2976426" lon="1.6324359"><ele>154.0</ele><time>2026-04-19T12:06:00.032Z</time></trkpt><trkpt lat="41.2978184" lon="1.6325244"><ele>155.0</ele><time>2026-04-19T12:06:01.032Z</time></trkpt><trkpt lat="41.2979998" lon="1.6325991"><ele>155.33333333333331</ele><time>2026-04-19T12:06:02.032Z</time></trkpt><trkpt lat="41.2981835" lon="1.6326586"><ele>155.66666666666666</ele><time>2026-04-19T12:06:03.033Z</time></trkpt><trkpt lat="41.2983682" lon="1.6327185"><ele>156.0</ele><time>2026-04-19T12:06:04.032Z</time></trkpt><trkpt lat="41.2985511" lon="1.6327794"><ele>155.66666666666666</ele><time>2026-04-19T12:06:05.033Z</time></trkpt><trkpt lat="41.2987295" lon="1.6328439"><ele>155.33333333333331</ele><time>2026-04-19T12:06:06.032Z</time></trkpt><trkpt lat="41.2989117" lon="1.6329056"><ele>155.0</ele><time>2026-04-19T12:06:07.032Z</time></trkpt><trkpt lat="41.2990944" lon="1.6329653"><ele>155.0</ele><time>2026-04-19T12:06:08.033Z</time></trkpt><trkpt lat="41.2992778" lon="1.6330204"><ele>155.0</ele><time>2026-04-19T12:06:09.033Z</time></trkpt><trkpt lat="41.2994519" lon="1.6330726"><ele>155.0</ele><time>2026-04-19T12:06:10.033Z</time></trkpt><trkpt lat="41.2996343" lon="1.6331294"><ele>156.0</ele><time>2026-04-19T12:06:11.032Z</time></trkpt><trkpt lat="41.2998187" lon="1.6331896"><ele>157.0</ele><time>2026-04-19T12:06:12.033Z</time></trkpt><trkpt lat="41.3000028" lon="1.633247"><ele>158.0</ele><time>2026-04-19T12:06:13.033Z</time></trkpt><trkpt lat="41.3001833" lon="1.6333085"><ele>158.0</ele><time>2026-04-19T12:06:14.033Z</time></trkpt><trkpt lat="41.300358" lon="1.6333644"><ele>158.0</ele><time>2026-04-19T12:06:15.033Z</time></trkpt><trkpt lat="41.3005326" lon="1.6334204"><ele>158.0</ele><time>2026-04-19T12:06:16.032Z</time></trkpt><trkpt lat="41.300714" lon="1.6334807"><ele>158.33333333333331</ele><time>2026-04-19T12:06:17.032Z</time></trkpt><trkpt lat="41.3009039" lon="1.6335435"><ele>158.66666666666666</ele><time>2026-04-19T12:06:18.033Z</time></trkpt><trkpt lat="41.3010938" lon="1.6336024"><ele>159.0</ele><time>2026-04-19T12:06:19.032Z</time></trkpt><trkpt lat="41.3012799" lon="1.6336634"><ele>158.33333333333334</ele><time>2026-04-19T12:06:20.033Z</time></trkpt><trkpt lat="41.3014704" lon="1.6337247"><ele>157.66666666666669</ele><time>2026-04-19T12:06:21.033Z</time></trkpt><trkpt lat="41.3016724" lon="1.6337923"><ele>157.0</ele><time>2026-04-19T12:06:22.033Z</time></trkpt><trkpt lat="41.3018803" lon="1.6338615"><ele>157.0</ele><time>2026-04-19T12:06:23.033Z</time></trkpt><trkpt lat="41.3020952" lon="1.6339298"><ele>157.0</ele><time>2026-04-19T12:06:24.032Z</time></trkpt><trkpt lat="41.3023123" lon="1.6339961"><ele>157.0</ele><time>2026-04-19T12:06:25.033Z</time></trkpt><trkpt lat="41.3025263" lon="1.6340608"><ele>157.0</ele><time>2026-04-19T12:06:26.033Z</time></trkpt><trkpt lat="41.3027348" lon="1.6341173"><ele>157.0</ele><time>2026-04-19T12:06:27.033Z</time></trkpt><trkpt lat="41.3029372" lon="1.6341613"><ele>157.0</ele><time>2026-04-19T12:06:28.033Z</time></trkpt><trkpt lat="41.3031379" lon="1.6341984"><ele>158.0</ele><time>2026-04-19T12:06:29.033Z</time></trkpt><trkpt lat="41.3033312" lon="1.6342289"><ele>159.0</ele><time>2026-04-19T12:06:30.033Z</time></trkpt><trkpt lat="41.3035117" lon="1.6342561"><ele>160.0</ele><time>2026-04-19T12:06:31.032Z</time></trkpt><trkpt lat="41.3036994" lon="1.6342785"><ele>160.0</ele><time>2026-04-19T12:06:32.033Z</time></trkpt><trkpt lat="41.303888" lon="1.6343018"><ele>160.0</ele><time>2026-04-19T12:06:33.033Z</time></trkpt><trkpt lat="41.3040772" lon="1.6343217"><ele>160.0</ele><time>2026-04-19T12:06:34.032Z</time></trkpt><trkpt lat="41.3042685" lon="1.6343454"><ele>158.66666666666669</ele><time>2026-04-19T12:06:35.032Z</time></trkpt><trkpt lat="41.3044636" lon="1.6343732"><ele>157.33333333333334</ele><time>2026-04-19T12:06:36.032Z</time></trkpt><trkpt lat="41.3046548" lon="1.6344046"><ele>156.0</ele><time>2026-04-19T12:06:37.032Z</time></trkpt><trkpt lat="41.3048355" lon="1.6344441"><ele>154.66666666666666</ele><time>2026-04-19T12:06:38.033Z</time></trkpt><trkpt lat="41.3050277" lon="1.6344952"><ele>153.33333333333331</ele><time>2026-04-19T12:06:39.033Z</time></trkpt><trkpt lat="41.3052227" lon="1.6345533"><ele>152.0</ele><time>2026-04-19T12:06:40.032Z</time></trkpt><trkpt lat="41.3054291" lon="1.634622"><ele>151.0</ele><time>2026-04-19T12:06:41.033Z</time></trkpt><trkpt lat="41.305635" lon="1.6346888"><ele>150.0</ele><time>2026-04-19T12:06:42.033Z</time></trkpt><trkpt lat="41.3058444" lon="1.6347771"><ele>149.0</ele><time>2026-04-19T12:06:43.033Z</time></trkpt><trkpt lat="41.3060551" lon="1.6348812"><ele>149.0</ele><time>2026-04-19T12:06:44.032Z</time></trkpt><trkpt lat="41.306266" lon="1.634997"><ele>149.0</ele><time>2026-04-19T12:06:45.032Z</time></trkpt><trkpt lat="41.3064789" lon="1.6351177"><ele>148.0</ele><time>2026-04-19T12:06:46.033Z</time></trkpt><trkpt lat="41.3066836" lon="1.6352497"><ele>147.0</ele><time>2026-04-19T12:06:47.033Z</time></trkpt><trkpt lat="41.3068834" lon="1.6353859"><ele>147.0</ele><time>2026-04-19T12:06:48.033Z</time></trkpt><trkpt lat="41.307073" lon="1.6355287"><ele>147.0</ele><time>2026-04-19T12:06:49.032Z</time></trkpt><trkpt lat="41.3072518" lon="1.6356722"><ele>147.0</ele><time>2026-04-19T12:06:50.032Z</time></trkpt><trkpt lat="41.307428" lon="1.6358193"><ele>147.33333333333334</ele><time>2026-04-19T12:06:51.033Z</time></trkpt><trkpt lat="41.3076034" lon="1.6359757"><ele>147.66666666666669</ele><time>2026-04-19T12:06:52.032Z</time></trkpt><trkpt lat="41.3077723" lon="1.6361406"><ele>148.0</ele><time>2026-04-19T12:06:53.032Z</time></trkpt><trkpt lat="41.307932" lon="1.6363054"><ele>148.66666666666669</ele><time>2026-04-19T12:06:54.032Z</time></trkpt><trkpt lat="41.3080877" lon="1.6364754"><ele>149.33333333333334</ele><time>2026-04-19T12:06:55.033Z</time></trkpt><trkpt lat="41.3082412" lon="1.6366531"><ele>150.0</ele><time>2026-04-19T12:06:56.033Z</time></trkpt><trkpt lat="41.3083904" lon="1.6368348"><ele>150.0</ele><time>2026-04-19T12:06:57.032Z</time></trkpt><trkpt lat="41.3085434" lon="1.6370189"><ele>150.0</ele><time>2026-04-19T12:06:58.033Z</time></trkpt><trkpt lat="41.3086938" lon="1.6372053"><ele>150.0</ele><time>2026-04-19T12:06:59.033Z</time></trkpt><trkpt lat="41.308849" lon="1.6373889"><ele>150.0</ele><time>2026-04-19T12:07:00.033Z</time></trkpt><trkpt lat="41.3090075" lon="1.6375746"><ele>150.0</ele><time>2026-04-19T12:07:01.033Z</time></trkpt><trkpt lat="41.3091669" lon="1.6377533"><ele>150.0</ele><time>2026-04-19T12:07:02.033Z</time></trkpt><trkpt lat="41.309329" lon="1.6379307"><ele>150.0</ele><time>2026-04-19T12:07:03.033Z</time></trkpt><trkpt lat="41.3094881" lon="1.6380988"><ele>150.0</ele><time>2026-04-19T12:07:04.033Z</time></trkpt><trkpt lat="41.3096482" lon="1.6382644"><ele>150.0</ele><time>2026-04-19T12:07:05.033Z</time></trkpt><trkpt lat="41.3098091" lon="1.6384184"><ele>151.0</ele><time>2026-04-19T12:07:06.033Z</time></trkpt><trkpt lat="41.3099731" lon="1.6385671"><ele>152.0</ele><time>2026-04-19T12:07:07.032Z</time></trkpt><trkpt lat="41.3101401" lon="1.6387106"><ele>153.0</ele><time>2026-04-19T12:07:08.033Z</time></trkpt><trkpt lat="41.3103086" lon="1.6388516"><ele>153.66666666666666</ele><time>2026-04-19T12:07:09.033Z</time></trkpt><trkpt lat="41.3104799" lon="1.6389901"><ele>154.33333333333331</ele><time>2026-04-19T12:07:10.033Z</time></trkpt><trkpt lat="41.3106574" lon="1.6391199"><ele>155.0</ele><time>2026-04-19T12:07:11.033Z</time></trkpt><trkpt lat="41.3108344" lon="1.6392458"><ele>155.0</ele><time>2026-04-19T12:07:12.033Z</time></trkpt><trkpt lat="41.3110189" lon="1.6393641"><ele>155.0</ele><time>2026-04-19T12:07:13.032Z</time></trkpt><trkpt lat="41.3112067" lon="1.6394848"><ele>155.0</ele><time>2026-04-19T12:07:14.033Z</time></trkpt><trkpt lat="41.3113977" lon="1.6395994"><ele>155.33333333333331</ele><time>2026-04-19T12:07:15.032Z</time></trkpt><trkpt lat="41.3115878" lon="1.6397098"><ele>155.66666666666666</ele><time>2026-04-19T12:07:16.033Z</time></trkpt><trkpt lat="41.3117811" lon="1.6398133"><ele>156.0</ele><time>2026-04-19T12:07:17.032Z</time></trkpt><trkpt lat="41.3119762" lon="1.6399095"><ele>156.0</ele><time>2026-04-19T12:07:18.033Z</time></trkpt><trkpt lat="41.3121644" lon="1.6399916"><ele>156.0</ele><time>2026-04-19T12:07:19.033Z</time></trkpt><trkpt lat="41.3123533" lon="1.640073"><ele>156.0</ele><time>2026-04-19T12:07:20.033Z</time></trkpt><trkpt lat="41.3125437" lon="1.6401431"><ele>156.66666666666666</ele><time>2026-04-19T12:07:21.032Z</time></trkpt><trkpt lat="41.3127351" lon="1.6402113"><ele>157.33333333333331</ele><time>2026-04-19T12:07:22.033Z</time></trkpt><trkpt lat="41.3129276" lon="1.6402722"><ele>158.0</ele><time>2026-04-19T12:07:23.032Z</time></trkpt><trkpt lat="41.3131196" lon="1.6403307"><ele>158.0</ele><time>2026-04-19T12:07:24.032Z</time></trkpt><trkpt lat="41.3133134" lon="1.6403833"><ele>158.0</ele><time>2026-04-19T12:07:25.032Z</time></trkpt><trkpt lat="41.3135061" lon="1.6404357"><ele>158.0</ele><time>2026-04-19T12:07:26.033Z</time></trkpt><trkpt lat="41.3137051" lon="1.6404776"><ele>157.33333333333331</ele><time>2026-04-19T12:07:27.033Z</time></trkpt><trkpt lat="41.3139063" lon="1.6405132"><ele>156.66666666666666</ele><time>2026-04-19T12:07:28.033Z</time></trkpt><trkpt lat="41.3141067" lon="1.6405459"><ele>156.0</ele><time>2026-04-19T12:07:29.033Z</time></trkpt><trkpt lat="41.3143098" lon="1.6405767"><ele>156.0</ele><time>2026-04-19T12:07:30.033Z</time></trkpt><trkpt lat="41.3145118" lon="1.6406082"><ele>156.0</ele><time>2026-04-19T12:07:31.032Z</time></trkpt><trkpt lat="41.3147129" lon="1.6406421"><ele>156.0</ele><time>2026-04-19T12:07:32.033Z</time></trkpt><trkpt lat="41.3149082" lon="1.6406737"><ele>156.33333333333334</ele><time>2026-04-19T12:07:33.032Z</time></trkpt><trkpt lat="41.3151027" lon="1.6407083"><ele>156.66666666666669</ele><time>2026-04-19T12:07:34.033Z</time></trkpt><trkpt lat="41.3152945" lon="1.6407482"><ele>157.0</ele><time>2026-04-19T12:07:35.032Z</time></trkpt><trkpt lat="41.3154816" lon="1.6407923"><ele>158.0</ele><time>2026-04-19T12:07:36.032Z</time></trkpt><trkpt lat="41.3156665" lon="1.6408377"><ele>159.0</ele><time>2026-04-19T12:07:37.033Z</time></trkpt><trkpt lat="41.3158526" lon="1.640886"><ele>160.0</ele><time>2026-04-19T12:07:38.033Z</time></trkpt><trkpt lat="41.3160375" lon="1.6409459"><ele>160.0</ele><time>2026-04-19T12:07:39.032Z</time></trkpt><trkpt lat="41.316225" lon="1.6410052"><ele>160.0</ele><time>2026-04-19T12:07:40.033Z</time></trkpt><trkpt lat="41.3164097" lon="1.6410791"><ele>160.0</ele><time>2026-04-19T12:07:41.033Z</time></trkpt><trkpt lat="41.3166059" lon="1.6411562"><ele>160.0</ele><time>2026-04-19T12:07:42.032Z</time></trkpt><trkpt lat="41.3168016" lon="1.6412423"><ele>160.0</ele><time>2026-04-19T12:07:43.032Z</time></trkpt><trkpt lat="41.3169939" lon="1.6413326"><ele>160.0</ele><time>2026-04-19T12:07:44.033Z</time></trkpt><trkpt lat="41.3171848" lon="1.6414312"><ele>160.33333333333334</ele><time>2026-04-19T12:07:45.033Z</time></trkpt><trkpt lat="41.3173791" lon="1.641537"><ele>160.66666666666666</ele><time>2026-04-19T12:07:46.033Z</time></trkpt><trkpt lat="41.3175724" lon="1.6416464"><ele>161.0</ele><time>2026-04-19T12:07:47.032Z</time></trkpt><trkpt lat="41.3177575" lon="1.6417635"><ele>161.0</ele><time>2026-04-19T12:07:48.033Z</time></trkpt><trkpt lat="41.3179318" lon="1.6418762"><ele>161.0</ele><time>2026-04-19T12:07:49.032Z</time></trkpt><trkpt lat="41.3181003" lon="1.6419948"><ele>161.0</ele><time>2026-04-19T12:07:50.032Z</time></trkpt><trkpt lat="41.3182682" lon="1.6421165"><ele>160.66666666666666</ele><time>2026-04-19T12:07:51.032Z</time></trkpt><trkpt lat="41.3184393" lon="1.6422442"><ele>160.33333333333334</ele><time>2026-04-19T12:07:52.033Z</time></trkpt><trkpt lat="41.3186052" lon="1.6423757"><ele>160.0</ele><time>2026-04-19T12:07:53.032Z</time></trkpt><trkpt lat="41.3187722" lon="1.6425118"><ele>161.0</ele><time>2026-04-19T12:07:54.033Z</time></trkpt><trkpt lat="41.318937" lon="1.642647"><ele>162.0</ele><time>2026-04-19T12:07:55.033Z</time></trkpt><trkpt lat="41.3191094" lon="1.6427926"><ele>163.0</ele><time>2026-04-19T12:07:56.033Z</time></trkpt><trkpt lat="41.3192866" lon="1.6429419"><ele>163.0</ele><time>2026-04-19T12:07:57.033Z</time></trkpt><trkpt lat="41.3194627" lon="1.6430917"><ele>163.0</ele><time>2026-04-19T12:07:58.032Z</time></trkpt><trkpt lat="41.3196379" lon="1.6432304"><ele>163.0</ele><time>2026-04-19T12:07:59.033Z</time></trkpt><trkpt lat="41.3198094" lon="1.6433655"><ele>164.0</ele><time>2026-04-19T12:08:00.032Z</time></trkpt><trkpt lat="41.319984" lon="1.6434848"><ele>165.0</ele><time>2026-04-19T12:08:01.033Z</time></trkpt><trkpt lat="41.3201678" lon="1.6435932"><ele>166.0</ele><time>2026-04-19T12:08:02.033Z</time></trkpt><trkpt lat="41.3203558" lon="1.6436978"><ele>166.66666666666669</ele><time>2026-04-19T12:08:03.032Z</time></trkpt><trkpt lat="41.3205551" lon="1.6437918"><ele>167.33333333333334</ele><time>2026-04-19T12:08:04.033Z</time></trkpt><trkpt lat="41.3207597" lon="1.6438773"><ele>168.0</ele><time>2026-04-19T12:08:05.033Z</time></trkpt><trkpt lat="41.3209636" lon="1.6439472"><ele>168.33333333333334</ele><time>2026-04-19T12:08:06.032Z</time></trkpt><trkpt lat="41.3211758" lon="1.6440089"><ele>168.66666666666669</ele><time>2026-04-19T12:08:07.033Z</time></trkpt><trkpt lat="41.3213904" lon="1.6440521"><ele>169.0</ele><time>2026-04-19T12:08:08.032Z</time></trkpt><trkpt lat="41.3215949" lon="1.6440808"><ele>170.0</ele><time>2026-04-19T12:08:09.033Z</time></trkpt><trkpt lat="41.3217983" lon="1.644099"><ele>171.0</ele><time>2026-04-19T12:08:10.033Z</time></trkpt><trkpt lat="41.3220029" lon="1.6441069"><ele>172.0</ele><time>2026-04-19T12:08:11.032Z</time></trkpt><trkpt lat="41.3222109" lon="1.6440998"><ele>173.66666666666669</ele><time>2026-04-19T12:08:12.033Z</time></trkpt><trkpt lat="41.3224246" lon="1.6440792"><ele>175.33333333333334</ele><time>2026-04-19T12:08:13.033Z</time></trkpt><trkpt lat="41.3226426" lon="1.6440554"><ele>177.0</ele><time>2026-04-19T12:08:14.033Z</time></trkpt><trkpt lat="41.3228562" lon="1.6440212"><ele>177.0</ele><time>2026-04-19T12:08:15.033Z</time></trkpt><trkpt lat="41.3230698" lon="1.6439816"><ele>177.0</ele><time>2026-04-19T12:08:16.033Z</time></trkpt><trkpt lat="41.3232835" lon="1.6439482"><ele>177.0</ele><time>2026-04-19T12:08:17.033Z</time></trkpt><trkpt lat="41.3234941" lon="1.6439165"><ele>177.0</ele><time>2026-04-19T12:08:18.033Z</time></trkpt><trkpt lat="41.3237021" lon="1.6438984"><ele>177.0</ele><time>2026-04-19T12:08:19.032Z</time></trkpt><trkpt lat="41.3239007" lon="1.643897"><ele>177.0</ele><time>2026-04-19T12:08:20.032Z</time></trkpt><trkpt lat="41.3240961" lon="1.6439054"><ele>177.66666666666666</ele><time>2026-04-19T12:08:21.032Z</time></trkpt><trkpt lat="41.3242847" lon="1.6439227"><ele>178.33333333333331</ele><time>2026-04-19T12:08:22.033Z</time></trkpt><trkpt lat="41.3244706" lon="1.6439514"><ele>179.0</ele><time>2026-04-19T12:08:23.033Z</time></trkpt><trkpt lat="41.3246655" lon="1.6439835"><ele>179.33333333333331</ele><time>2026-04-19T12:08:24.033Z</time></trkpt><trkpt lat="41.3248671" lon="1.6440332"><ele>179.66666666666666</ele><time>2026-04-19T12:08:25.033Z</time></trkpt><trkpt lat="41.3250708" lon="1.6440983"><ele>180.0</ele><time>2026-04-19T12:08:26.032Z</time></trkpt><trkpt lat="41.3252729" lon="1.6441794"><ele>180.0</ele><time>2026-04-19T12:08:27.032Z</time></trkpt><trkpt lat="41.3254848" lon="1.6442747"><ele>180.0</ele><time>2026-04-19T12:08:28.033Z</time></trkpt><trkpt lat="41.3256893" lon="1.6443837"><ele>180.0</ele><time>2026-04-19T12:08:29.033Z</time></trkpt><trkpt lat="41.3258879" lon="1.6445031"><ele>178.33333333333334</ele><time>2026-04-19T12:08:30.032Z</time></trkpt><trkpt lat="41.3260755" lon="1.6446402"><ele>176.66666666666669</ele><time>2026-04-19T12:08:31.033Z</time></trkpt><trkpt lat="41.3262595" lon="1.6447855"><ele>175.0</ele><time>2026-04-19T12:08:32.033Z</time></trkpt><trkpt lat="41.3264361" lon="1.6449408"><ele>174.66666666666669</ele><time>2026-04-19T12:08:33.032Z</time></trkpt><trkpt lat="41.3266053" lon="1.6451042"><ele>174.33333333333334</ele><time>2026-04-19T12:08:34.033Z</time></trkpt><trkpt lat="41.3267671" lon="1.6452761"><ele>174.0</ele><time>2026-04-19T12:08:35.033Z</time></trkpt><trkpt lat="41.3269263" lon="1.6454646"><ele>175.0</ele><time>2026-04-19T12:08:36.032Z</time></trkpt><trkpt lat="41.327089" lon="1.6456744"><ele>176.0</ele><time>2026-04-19T12:08:37.033Z</time></trkpt><trkpt lat="41.3272476" lon="1.6458948"><ele>176.0</ele><time>2026-04-19T12:08:38.033Z</time></trkpt><trkpt lat="41.3273919" lon="1.6461244"><ele>176.0</ele><time>2026-04-19T12:08:39.032Z</time></trkpt><trkpt lat="41.3275291" lon="1.6463644"><ele>175.5</ele><time>2026-04-19T12:08:40.033Z</time></trkpt><trkpt lat="41.3276568" lon="1.646611"><ele>175.0</ele><time>2026-04-19T12:08:41.033Z</time></trkpt><trkpt lat="41.327777" lon="1.6468652"><ele>175.66666666666669</ele><time>2026-04-19T12:08:42.033Z</time></trkpt><trkpt lat="41.3278839" lon="1.6471232"><ele>176.33333333333334</ele><time>2026-04-19T12:08:43.032Z</time></trkpt><trkpt lat="41.3279779" lon="1.6473905"><ele>177.0</ele><time>2026-04-19T12:08:44.033Z</time></trkpt><trkpt lat="41.3280612" lon="1.6476568"><ele>178.33333333333334</ele><time>2026-04-19T12:08:45.033Z</time></trkpt><trkpt lat="41.3281396" lon="1.6479319"><ele>179.66666666666669</ele><time>2026-04-19T12:08:46.033Z</time></trkpt><trkpt lat="41.3282132" lon="1.6482084"><ele>181.0</ele><time>2026-04-19T12:08:47.032Z</time></trkpt><trkpt lat="41.3282804" lon="1.6484765"><ele>181.66666666666669</ele><time>2026-04-19T12:08:48.032Z</time></trkpt><trkpt lat="41.3283492" lon="1.6487415"><ele>182.33333333333334</ele><time>2026-04-19T12:08:49.033Z</time></trkpt><trkpt lat="41.328417" lon="1.6489972"><ele>183.0</ele><time>2026-04-19T12:08:50.032Z</time></trkpt><trkpt lat="41.3284858" lon="1.6492456"><ele>184.0</ele><time>2026-04-19T12:08:51.033Z</time></trkpt><trkpt lat="41.3285582" lon="1.6494879"><ele>185.0</ele><time>2026-04-19T12:08:52.032Z</time></trkpt><trkpt lat="41.3286384" lon="1.6497411"><ele>186.0</ele><time>2026-04-19T12:08:53.033Z</time></trkpt><trkpt lat="41.3287221" lon="1.6500007"><ele>186.0</ele><time>2026-04-19T12:08:54.033Z</time></trkpt><trkpt lat="41.3288092" lon="1.6502675"><ele>186.0</ele><time>2026-04-19T12:08:55.033Z</time></trkpt><trkpt lat="41.3289071" lon="1.6505303"><ele>186.0</ele><time>2026-04-19T12:08:56.032Z</time></trkpt><trkpt lat="41.3290183" lon="1.6508031"><ele>186.5</ele><time>2026-04-19T12:08:57.032Z</time></trkpt><trkpt lat="41.3291368" lon="1.6510766"><ele>187.0</ele><time>2026-04-19T12:08:58.033Z</time></trkpt><trkpt lat="41.3292524" lon="1.6513454"><ele>188.5</ele><time>2026-04-19T12:08:59.033Z</time></trkpt><trkpt lat="41.3293742" lon="1.651607"><ele>190.0</ele><time>2026-04-19T12:09:00.033Z</time></trkpt><trkpt lat="41.3295018" lon="1.6518616"><ele>189.0</ele><time>2026-04-19T12:09:01.032Z</time></trkpt><trkpt lat="41.3296356" lon="1.652113"><ele>188.0</ele><time>2026-04-19T12:09:02.033Z</time></trkpt><trkpt lat="41.3297726" lon="1.6523585"><ele>188.0</ele><time>2026-04-19T12:09:03.032Z</time></trkpt><trkpt lat="41.3299163" lon="1.652601"><ele>188.0</ele><time>2026-04-19T12:09:04.032Z</time></trkpt><trkpt lat="41.3300567" lon="1.6528342"><ele>188.0</ele><time>2026-04-19T12:09:05.033Z</time></trkpt><trkpt lat="41.3302042" lon="1.653061"><ele>188.0</ele><time>2026-04-19T12:09:06.032Z</time></trkpt><trkpt lat="41.3303495" lon="1.6532825"><ele>188.0</ele><time>2026-04-19T12:09:07.033Z</time></trkpt><trkpt lat="41.3304956" lon="1.6534975"><ele>187.33333333333331</ele><time>2026-04-19T12:09:08.032Z</time></trkpt><trkpt lat="41.3306393" lon="1.653715"><ele>186.66666666666666</ele><time>2026-04-19T12:09:09.033Z</time></trkpt><trkpt lat="41.3307832" lon="1.6539268"><ele>186.0</ele><time>2026-04-19T12:09:10.033Z</time></trkpt><trkpt lat="41.3309173" lon="1.6541417"><ele>186.0</ele><time>2026-04-19T12:09:11.033Z</time></trkpt><trkpt lat="41.3310516" lon="1.6543635"><ele>186.0</ele><time>2026-04-19T12:09:12.033Z</time></trkpt><trkpt lat="41.3311847" lon="1.6545999"><ele>186.0</ele><time>2026-04-19T12:09:13.032Z</time></trkpt><trkpt lat="41.331311" lon="1.6548457"><ele>186.33333333333334</ele><time>2026-04-19T12:09:14.033Z</time></trkpt><trkpt lat="41.3314296" lon="1.6550926"><ele>186.66666666666669</ele><time>2026-04-19T12:09:15.032Z</time></trkpt><trkpt lat="41.3315374" lon="1.6553445"><ele>187.0</ele><time>2026-04-19T12:09:16.032Z</time></trkpt><trkpt lat="41.3316383" lon="1.6555957"><ele>186.33333333333334</ele><time>2026-04-19T12:09:17.032Z</time></trkpt><trkpt lat="41.3317357" lon="1.6558525"><ele>185.66666666666666</ele><time>2026-04-19T12:09:18.033Z</time></trkpt><trkpt lat="41.3318301" lon="1.6561161"><ele>185.0</ele><time>2026-04-19T12:09:19.033Z</time></trkpt><trkpt lat="41.3319205" lon="1.6563831"><ele>184.66666666666666</ele><time>2026-04-19T12:09:20.033Z</time></trkpt><trkpt lat="41.3320039" lon="1.656642"><ele>184.33333333333334</ele><time>2026-04-19T12:09:21.033Z</time></trkpt><trkpt lat="41.3320791" lon="1.6569067"><ele>184.0</ele><time>2026-04-19T12:09:22.033Z</time></trkpt><trkpt lat="41.3321457" lon="1.6571785"><ele>184.66666666666669</ele><time>2026-04-19T12:09:23.032Z</time></trkpt><trkpt lat="41.3322066" lon="1.6574601"><ele>185.33333333333334</ele><time>2026-04-19T12:09:24.033Z</time></trkpt><trkpt lat="41.3322617" lon="1.6577459"><ele>186.0</ele><time>2026-04-19T12:09:25.033Z</time></trkpt><trkpt lat="41.3323141" lon="1.6580253"><ele>184.66666666666666</ele><time>2026-04-19T12:09:26.032Z</time></trkpt><trkpt lat="41.3323571" lon="1.6582959"><ele>183.33333333333331</ele><time>2026-04-19T12:09:27.032Z</time></trkpt><trkpt lat="41.3323927" lon="1.6585707"><ele>182.0</ele><time>2026-04-19T12:09:28.033Z</time></trkpt><trkpt lat="41.3324214" lon="1.6588515"><ele>181.33333333333331</ele><time>2026-04-19T12:09:29.033Z</time></trkpt><trkpt lat="41.3324446" lon="1.6591355"><ele>180.66666666666666</ele><time>2026-04-19T12:09:30.032Z</time></trkpt><trkpt lat="41.3324626" lon="1.6594475"><ele>180.0</ele><time>2026-04-19T12:09:31.033Z</time></trkpt><trkpt lat="41.332477" lon="1.6597723"><ele>179.5</ele><time>2026-04-19T12:09:32.032Z</time></trkpt><trkpt lat="41.3324824" lon="1.6600902"><ele>179.0</ele><time>2026-04-19T12:09:33.033Z</time></trkpt><trkpt lat="41.3324919" lon="1.6603897"><ele>180.0</ele><time>2026-04-19T12:09:34.033Z</time></trkpt><trkpt lat="41.3325019" lon="1.6606763"><ele>181.0</ele><time>2026-04-19T12:09:35.032Z</time></trkpt><trkpt lat="41.3325107" lon="1.6609517"><ele>182.0</ele><time>2026-04-19T12:09:36.033Z</time></trkpt><trkpt lat="41.3325174" lon="1.6612109"><ele>183.33333333333331</ele><time>2026-04-19T12:09:37.033Z</time></trkpt><trkpt lat="41.3325238" lon="1.6614618"><ele>184.66666666666666</ele><time>2026-04-19T12:09:38.033Z</time></trkpt><trkpt lat="41.3325322" lon="1.6617095"><ele>186.0</ele><time>2026-04-19T12:09:39.033Z</time></trkpt><trkpt lat="41.3325447" lon="1.6619567"><ele>186.0</ele><time>2026-04-19T12:09:40.032Z</time></trkpt><trkpt lat="41.3325608" lon="1.662208"><ele>186.0</ele><time>2026-04-19T12:09:41.033Z</time></trkpt><trkpt lat="41.3325779" lon="1.6624643"><ele>186.0</ele><time>2026-04-19T12:09:42.033Z</time></trkpt><trkpt lat="41.332598" lon="1.6627206"><ele>186.66666666666666</ele><time>2026-04-19T12:09:43.032Z</time></trkpt><trkpt lat="41.3326169" lon="1.6629746"><ele>187.33333333333331</ele><time>2026-04-19T12:09:44.033Z</time></trkpt><trkpt lat="41.3326404" lon="1.6632243"><ele>188.0</ele><time>2026-04-19T12:09:45.032Z</time></trkpt><trkpt lat="41.3326626" lon="1.6634726"><ele>189.0</ele><time>2026-04-19T12:09:46.032Z</time></trkpt><trkpt lat="41.3326886" lon="1.6637274"><ele>190.0</ele><time>2026-04-19T12:09:47.033Z</time></trkpt><trkpt lat="41.3327182" lon="1.6639798"><ele>191.0</ele><time>2026-04-19T12:09:48.033Z</time></trkpt><trkpt lat="41.3327501" lon="1.6642368"><ele>190.33333333333331</ele><time>2026-04-19T12:09:49.032Z</time></trkpt><trkpt lat="41.3327822" lon="1.6644961"><ele>189.66666666666666</ele><time>2026-04-19T12:09:50.033Z</time></trkpt><trkpt lat="41.3328144" lon="1.6647564"><ele>189.0</ele><time>2026-04-19T12:09:51.033Z</time></trkpt><trkpt lat="41.3328548" lon="1.6650164"><ele>189.0</ele><time>2026-04-19T12:09:52.032Z</time></trkpt><trkpt lat="41.3328879" lon="1.6652751"><ele>189.0</ele><time>2026-04-19T12:09:53.032Z</time></trkpt><trkpt lat="41.3329266" lon="1.6655296"><ele>189.0</ele><time>2026-04-19T12:09:54.032Z</time></trkpt><trkpt lat="41.3329676" lon="1.6657761"><ele>188.66666666666666</ele><time>2026-04-19T12:09:55.032Z</time></trkpt><trkpt lat="41.3330079" lon="1.6660316"><ele>188.33333333333331</ele><time>2026-04-19T12:09:56.033Z</time></trkpt><trkpt lat="41.3330431" lon="1.6662858"><ele>188.0</ele><time>2026-04-19T12:09:57.033Z</time></trkpt><trkpt lat="41.33308" lon="1.6665394"><ele>188.0</ele><time>2026-04-19T12:09:58.033Z</time></trkpt><trkpt lat="41.3331174" lon="1.6667954"><ele>188.0</ele><time>2026-04-19T12:09:59.032Z</time></trkpt><trkpt lat="41.3331572" lon="1.6670549"><ele>188.0</ele><time>2026-04-19T12:10:00.033Z</time></trkpt><trkpt lat="41.3332021" lon="1.6673347"><ele>186.5</ele><time>2026-04-19T12:10:01.033Z</time></trkpt><trkpt lat="41.3332485" lon="1.6676395"><ele>185.0</ele><time>2026-04-19T12:10:02.033Z</time></trkpt><trkpt lat="41.3332992" lon="1.6679679"><ele>182.0</ele><time>2026-04-19T12:10:03.033Z</time></trkpt><trkpt lat="41.3333553" lon="1.6683171"><ele>179.0</ele><time>2026-04-19T12:10:04.033Z</time></trkpt><trkpt lat="41.3334128" lon="1.6686679"><ele>178.0</ele><time>2026-04-19T12:10:05.033Z</time></trkpt><trkpt lat="41.3334706" lon="1.6690335"><ele>177.0</ele><time>2026-04-19T12:10:06.032Z</time></trkpt><trkpt lat="41.333533" lon="1.6694164"><ele>177.5</ele><time>2026-04-19T12:10:07.033Z</time></trkpt><trkpt lat="41.3335926" lon="1.669805"><ele>178.0</ele><time>2026-04-19T12:10:08.033Z</time></trkpt><trkpt lat="41.3336477" lon="1.6701819"><ele>178.0</ele><time>2026-04-19T12:10:09.033Z</time></trkpt><trkpt lat="41.333705" lon="1.6705523"><ele>178.0</ele><time>2026-04-19T12:10:10.032Z</time></trkpt><trkpt lat="41.3337665" lon="1.670934"><ele>177.0</ele><time>2026-04-19T12:10:11.032Z</time></trkpt><trkpt lat="41.3338235" lon="1.6713299"><ele>176.0</ele><time>2026-04-19T12:10:12.032Z</time></trkpt><trkpt lat="41.3338616" lon="1.671722"><ele>176.0</ele><time>2026-04-19T12:10:13.033Z</time></trkpt><trkpt lat="41.3338921" lon="1.6721075"><ele>176.0</ele><time>2026-04-19T12:10:14.032Z</time></trkpt><trkpt lat="41.3339299" lon="1.6724624"><ele>175.0</ele><time>2026-04-19T12:10:15.032Z</time></trkpt><trkpt lat="41.3339693" lon="1.6728046"><ele>174.0</ele><time>2026-04-19T12:10:16.033Z</time></trkpt><trkpt lat="41.3340019" lon="1.6731345"><ele>174.0</ele><time>2026-04-19T12:10:17.033Z</time></trkpt><trkpt lat="41.3340338" lon="1.6734529"><ele>174.0</ele><time>2026-04-19T12:10:18.033Z</time></trkpt><trkpt lat="41.3340657" lon="1.6737526"><ele>174.66666666666666</ele><time>2026-04-19T12:10:19.033Z</time></trkpt><trkpt lat="41.3340952" lon="1.6740408"><ele>175.33333333333331</ele><time>2026-04-19T12:10:20.033Z</time></trkpt><trkpt lat="41.3341213" lon="1.6743213"><ele>176.0</ele><time>2026-04-19T12:10:21.033Z</time></trkpt><trkpt lat="41.3341491" lon="1.6745995"><ele>176.33333333333331</ele><time>2026-04-19T12:10:22.032Z</time></trkpt><trkpt lat="41.3341725" lon="1.6748794"><ele>176.66666666666666</ele><time>2026-04-19T12:10:23.033Z</time></trkpt><trkpt lat="41.3341953" lon="1.6751554"><ele>177.0</ele><time>2026-04-19T12:10:24.032Z</time></trkpt><trkpt lat="41.3342175" lon="1.6754289"><ele>177.0</ele><time>2026-04-19T12:10:25.032Z</time></trkpt><trkpt lat="41.3342353" lon="1.6756968"><ele>177.0</ele><time>2026-04-19T12:10:26.033Z</time></trkpt><trkpt lat="41.3342541" lon="1.6759693"><ele>177.0</ele><time>2026-04-19T12:10:27.032Z</time></trkpt><trkpt lat="41.3342718" lon="1.6762458"><ele>177.0</ele><time>2026-04-19T12:10:28.032Z</time></trkpt><trkpt lat="41.3342892" lon="1.6765307"><ele>177.0</ele><time>2026-04-19T12:10:29.032Z</time></trkpt><trkpt lat="41.3343061" lon="1.6768358"><ele>177.0</ele><time>2026-04-19T12:10:30.032Z</time></trkpt><trkpt lat="41.3343243" lon="1.6771604"><ele>176.5</ele><time>2026-04-19T12:10:31.033Z</time></trkpt><trkpt lat="41.3343414" lon="1.6774922"><ele>176.0</ele><time>2026-04-19T12:10:32.032Z</time></trkpt><trkpt lat="41.3343558" lon="1.6778266"><ele>176.0</ele><time>2026-04-19T12:10:33.032Z</time></trkpt><trkpt lat="41.3343684" lon="1.678172"><ele>176.0</ele><time>2026-04-19T12:10:34.033Z</time></trkpt><trkpt lat="41.3343798" lon="1.6785145"><ele>176.0</ele><time>2026-04-19T12:10:35.032Z</time></trkpt><trkpt lat="41.3343892" lon="1.6788537"><ele>176.0</ele><time>2026-04-19T12:10:36.032Z</time></trkpt><trkpt lat="41.3343978" lon="1.6791905"><ele>176.5</ele><time>2026-04-19T12:10:37.033Z</time></trkpt><trkpt lat="41.3344033" lon="1.6795215"><ele>177.0</ele><time>2026-04-19T12:10:38.032Z</time></trkpt><trkpt lat="41.3344099" lon="1.6798592"><ele>177.0</ele><time>2026-04-19T12:10:39.032Z</time></trkpt><trkpt lat="41.3344133" lon="1.6802025"><ele>177.0</ele><time>2026-04-19T12:10:40.032Z</time></trkpt><trkpt lat="41.3344155" lon="1.6805485"><ele>178.5</ele><time>2026-04-19T12:10:41.032Z</time></trkpt><trkpt lat="41.3344143" lon="1.6808916"><ele>180.0</ele><time>2026-04-19T12:10:42.033Z</time></trkpt><trkpt lat="41.3344087" lon="1.6812323"><ele>181.5</ele><time>2026-04-19T12:10:43.032Z</time></trkpt><trkpt lat="41.3344058" lon="1.6815733"><ele>183.0</ele><time>2026-04-19T12:10:44.033Z</time></trkpt><trkpt lat="41.3344053" lon="1.6819146"><ele>183.0</ele><time>2026-04-19T12:10:45.033Z</time></trkpt><trkpt lat="41.3343963" lon="1.6822443"><ele>183.0</ele><time>2026-04-19T12:10:46.033Z</time></trkpt><trkpt lat="41.3343874" lon="1.6825666"><ele>183.0</ele><time>2026-04-19T12:10:47.033Z</time></trkpt><trkpt lat="41.334377" lon="1.6828787"><ele>183.0</ele><time>2026-04-19T12:10:48.032Z</time></trkpt><trkpt lat="41.3343687" lon="1.6831847"><ele>183.0</ele><time>2026-04-19T12:10:49.033Z</time></trkpt><trkpt lat="41.3343588" lon="1.6834942"><ele>183.0</ele><time>2026-04-19T12:10:50.033Z</time></trkpt><trkpt lat="41.3343488" lon="1.683818"><ele>186.0</ele><time>2026-04-19T12:10:51.033Z</time></trkpt><trkpt lat="41.3343373" lon="1.6841332"><ele>189.0</ele><time>2026-04-19T12:10:52.033Z</time></trkpt><trkpt lat="41.3343272" lon="1.6844369"><ele>189.0</ele><time>2026-04-19T12:10:53.033Z</time></trkpt><trkpt lat="41.3343134" lon="1.684736"><ele>189.0</ele><time>2026-04-19T12:10:54.033Z</time></trkpt><trkpt lat="41.3342996" lon="1.685038"><ele>188.5</ele><time>2026-04-19T12:10:55.033Z</time></trkpt><trkpt lat="41.3342942" lon="1.6853354"><ele>188.0</ele><time>2026-04-19T12:10:56.033Z</time></trkpt><trkpt lat="41.334286" lon="1.6856395"><ele>188.0</ele><time>2026-04-19T12:10:57.032Z</time></trkpt><trkpt lat="41.3342769" lon="1.6859419"><ele>188.0</ele><time>2026-04-19T12:10:58.033Z</time></trkpt><trkpt lat="41.3342693" lon="1.6862437"><ele>188.33333333333331</ele><time>2026-04-19T12:10:59.033Z</time></trkpt><trkpt lat="41.3342593" lon="1.6865432"><ele>188.66666666666666</ele><time>2026-04-19T12:11:00.032Z</time></trkpt><trkpt lat="41.334251" lon="1.6868394"><ele>189.0</ele><time>2026-04-19T12:11:01.033Z</time></trkpt><trkpt lat="41.3342384" lon="1.6871396"><ele>189.66666666666666</ele><time>2026-04-19T12:11:02.032Z</time></trkpt><trkpt lat="41.334229" lon="1.687432"><ele>190.33333333333331</ele><time>2026-04-19T12:11:03.032Z</time></trkpt><trkpt lat="41.3342198" lon="1.6877146"><ele>191.0</ele><time>2026-04-19T12:11:04.033Z</time></trkpt><trkpt lat="41.3342093" lon="1.6879981"><ele>191.0</ele><time>2026-04-19T12:11:05.033Z</time></trkpt><trkpt lat="41.3342021" lon="1.6882785"><ele>191.0</ele><time>2026-04-19T12:11:06.032Z</time></trkpt><trkpt lat="41.3341952" lon="1.6885466"><ele>191.0</ele><time>2026-04-19T12:11:07.033Z</time></trkpt><trkpt lat="41.3341905" lon="1.6888017"><ele>192.0</ele><time>2026-04-19T12:11:08.033Z</time></trkpt><trkpt lat="41.3341853" lon="1.6890546"><ele>193.0</ele><time>2026-04-19T12:11:09.033Z</time></trkpt><trkpt lat="41.334175" lon="1.6893125"><ele>194.0</ele><time>2026-04-19T12:11:10.033Z</time></trkpt><trkpt lat="41.3341631" lon="1.6895729"><ele>194.0</ele><time>2026-04-19T12:11:11.032Z</time></trkpt><trkpt lat="41.3341527" lon="1.6898389"><ele>194.0</ele><time>2026-04-19T12:11:12.032Z</time></trkpt><trkpt lat="41.3341449" lon="1.690102"><ele>194.0</ele><time>2026-04-19T12:11:13.033Z</time></trkpt><trkpt lat="41.3341384" lon="1.6903684"><ele>194.0</ele><time>2026-04-19T12:11:14.033Z</time></trkpt><trkpt lat="41.3341292" lon="1.6906298"><ele>194.0</ele><time>2026-04-19T12:11:15.033Z</time></trkpt><trkpt lat="41.3341225" lon="1.6908918"><ele>194.0</ele><time>2026-04-19T12:11:16.032Z</time></trkpt><trkpt lat="41.3341189" lon="1.6911636"><ele>195.33333333333334</ele><time>2026-04-19T12:11:17.033Z</time></trkpt><trkpt lat="41.3341138" lon="1.6914421"><ele>196.66666666666669</ele><time>2026-04-19T12:11:18.032Z</time></trkpt><trkpt lat="41.3341089" lon="1.6917251"><ele>198.0</ele><time>2026-04-19T12:11:19.032Z</time></trkpt><trkpt lat="41.3341066" lon="1.6920085"><ele>198.66666666666669</ele><time>2026-04-19T12:11:20.032Z</time></trkpt><trkpt lat="41.3341055" lon="1.6923017"><ele>199.33333333333334</ele><time>2026-04-19T12:11:21.032Z</time></trkpt><trkpt lat="41.3341075" lon="1.6925885"><ele>200.0</ele><time>2026-04-19T12:11:22.033Z</time></trkpt><trkpt lat="41.3341051" lon="1.6928878"><ele>200.66666666666669</ele><time>2026-04-19T12:11:23.033Z</time></trkpt><trkpt lat="41.3341044" lon="1.6931885"><ele>201.33333333333331</ele><time>2026-04-19T12:11:24.033Z</time></trkpt><trkpt lat="41.334105" lon="1.6934747"><ele>202.0</ele><time>2026-04-19T12:11:25.033Z</time></trkpt><trkpt lat="41.3341061" lon="1.6937505"><ele>203.0</ele><time>2026-04-19T12:11:26.033Z</time></trkpt><trkpt lat="41.3341067" lon="1.694031"><ele>204.0</ele><time>2026-04-19T12:11:27.032Z</time></trkpt><trkpt lat="41.3341073" lon="1.6942978"><ele>205.0</ele><time>2026-04-19T12:11:28.032Z</time></trkpt><trkpt lat="41.3341026" lon="1.6945726"><ele>205.33333333333331</ele><time>2026-04-19T12:11:29.033Z</time></trkpt><trkpt lat="41.3341061" lon="1.6948659"><ele>205.66666666666669</ele><time>2026-04-19T12:11:30.032Z</time></trkpt><trkpt lat="41.3341031" lon="1.6951647"><ele>206.0</ele><time>2026-04-19T12:11:31.033Z</time></trkpt><trkpt lat="41.3341001" lon="1.6954572"><ele>205.66666666666669</ele><time>2026-04-19T12:11:32.033Z</time></trkpt><trkpt lat="41.3340977" lon="1.6957432"><ele>205.33333333333331</ele><time>2026-04-19T12:11:33.032Z</time></trkpt><trkpt lat="41.3340977" lon="1.696033"><ele>205.0</ele><time>2026-04-19T12:11:34.032Z</time></trkpt><trkpt lat="41.3340936" lon="1.6963303"><ele>205.0</ele><time>2026-04-19T12:11:35.033Z</time></trkpt><trkpt lat="41.3340911" lon="1.6966366"><ele>205.0</ele><time>2026-04-19T12:11:36.032Z</time></trkpt><trkpt lat="41.3340866" lon="1.6969467"><ele>205.33333333333331</ele><time>2026-04-19T12:11:37.032Z</time></trkpt><trkpt lat="41.334079" lon="1.6972483"><ele>205.66666666666669</ele><time>2026-04-19T12:11:38.032Z</time></trkpt><trkpt lat="41.3340693" lon="1.6975427"><ele>206.0</ele><time>2026-04-19T12:11:39.032Z</time></trkpt><trkpt lat="41.334057" lon="1.6978316"><ele>205.0</ele><time>2026-04-19T12:11:40.033Z</time></trkpt><trkpt lat="41.334048" lon="1.6981227"><ele>204.0</ele><time>2026-04-19T12:11:41.033Z</time></trkpt><trkpt lat="41.3340361" lon="1.6984178"><ele>203.0</ele><time>2026-04-19T12:11:42.033Z</time></trkpt><trkpt lat="41.3340301" lon="1.6987106"><ele>203.0</ele><time>2026-04-19T12:11:43.033Z</time></trkpt><trkpt lat="41.3340217" lon="1.6989993"><ele>203.0</ele><time>2026-04-19T12:11:44.033Z</time></trkpt><trkpt lat="41.3340105" lon="1.6992876"><ele>203.0</ele><time>2026-04-19T12:11:45.033Z</time></trkpt><trkpt lat="41.3339968" lon="1.6995716"><ele>203.0</ele><time>2026-04-19T12:11:46.033Z</time></trkpt><trkpt lat="41.333989" lon="1.6998572"><ele>203.0</ele><time>2026-04-19T12:11:47.033Z</time></trkpt><trkpt lat="41.3339812" lon="1.7001391"><ele>203.0</ele><time>2026-04-19T12:11:48.033Z</time></trkpt><trkpt lat="41.3339724" lon="1.7004251"><ele>203.0</ele><time>2026-04-19T12:11:49.033Z</time></trkpt><trkpt lat="41.3339742" lon="1.7007121"><ele>203.0</ele><time>2026-04-19T12:11:50.033Z</time></trkpt><trkpt lat="41.3339853" lon="1.7009964"><ele>203.0</ele><time>2026-04-19T12:11:51.033Z</time></trkpt><trkpt lat="41.3340037" lon="1.7012797"><ele>203.0</ele><time>2026-04-19T12:11:52.033Z</time></trkpt><trkpt lat="41.3340273" lon="1.7015579"><ele>203.0</ele><time>2026-04-19T12:11:53.033Z</time></trkpt><trkpt lat="41.3340593" lon="1.7018497"><ele>203.0</ele><time>2026-04-19T12:11:54.032Z</time></trkpt><trkpt lat="41.3341053" lon="1.7021535"><ele>202.5</ele><time>2026-04-19T12:11:55.032Z</time></trkpt><trkpt lat="41.33416" lon="1.7024503"><ele>202.0</ele><time>2026-04-19T12:11:56.033Z</time></trkpt><trkpt lat="41.3342188" lon="1.7027415"><ele>203.0</ele><time>2026-04-19T12:11:57.032Z</time></trkpt><trkpt lat="41.3342921" lon="1.7030315"><ele>204.0</ele><time>2026-04-19T12:11:58.033Z</time></trkpt><trkpt lat="41.3343728" lon="1.7033065"><ele>204.0</ele><time>2026-04-19T12:11:59.032Z</time></trkpt><trkpt lat="41.3344605" lon="1.7035719"><ele>204.0</ele><time>2026-04-19T12:12:00.033Z</time></trkpt><trkpt lat="41.3345615" lon="1.7038344"><ele>204.0</ele><time>2026-04-19T12:12:01.033Z</time></trkpt><trkpt lat="41.3346659" lon="1.7040888"><ele>203.0</ele><time>2026-04-19T12:12:02.032Z</time></trkpt><trkpt lat="41.3347758" lon="1.704335"><ele>202.0</ele><time>2026-04-19T12:12:03.033Z</time></trkpt><trkpt lat="41.334886" lon="1.7045869"><ele>201.0</ele><time>2026-04-19T12:12:04.033Z</time></trkpt><trkpt lat="41.3350087" lon="1.704825"><ele>201.0</ele><time>2026-04-19T12:12:05.033Z</time></trkpt><trkpt lat="41.3351406" lon="1.7050506"><ele>201.0</ele><time>2026-04-19T12:12:06.033Z</time></trkpt><trkpt lat="41.335281" lon="1.7052722"><ele>201.0</ele><time>2026-04-19T12:12:07.033Z</time></trkpt><trkpt lat="41.3354274" lon="1.7054845"><ele>202.0</ele><time>2026-04-19T12:12:08.033Z</time></trkpt><trkpt lat="41.3355776" lon="1.7056906"><ele>203.0</ele><time>2026-04-19T12:12:09.033Z</time></trkpt><trkpt lat="41.3357268" lon="1.7058747"><ele>204.0</ele><time>2026-04-19T12:12:10.033Z</time></trkpt><trkpt lat="41.3358743" lon="1.7060456"><ele>203.33333333333331</ele><time>2026-04-19T12:12:11.033Z</time></trkpt><trkpt lat="41.3360237" lon="1.706211"><ele>202.66666666666666</ele><time>2026-04-19T12:12:12.033Z</time></trkpt><trkpt lat="41.3361752" lon="1.7063716"><ele>202.0</ele><time>2026-04-19T12:12:13.033Z</time></trkpt><trkpt lat="41.3363431" lon="1.7065282"><ele>202.0</ele><time>2026-04-19T12:12:14.032Z</time></trkpt><trkpt lat="41.3365191" lon="1.7066812"><ele>202.0</ele><time>2026-04-19T12:12:15.033Z</time></trkpt><trkpt lat="41.3366993" lon="1.7068191"><ele>202.0</ele><time>2026-04-19T12:12:16.032Z</time></trkpt><trkpt lat="41.3368908" lon="1.7069532"><ele>202.0</ele><time>2026-04-19T12:12:17.033Z</time></trkpt><trkpt lat="41.3370906" lon="1.7070862"><ele>202.0</ele><time>2026-04-19T12:12:18.033Z</time></trkpt><trkpt lat="41.3373017" lon="1.7072081"><ele>203.0</ele><time>2026-04-19T12:12:19.033Z</time></trkpt><trkpt lat="41.3375195" lon="1.707323"><ele>204.0</ele><time>2026-04-19T12:12:20.033Z</time></trkpt><trkpt lat="41.337743" lon="1.7074413"><ele>204.0</ele><time>2026-04-19T12:12:21.033Z</time></trkpt><trkpt lat="41.3379664" lon="1.7075526"><ele>204.0</ele><time>2026-04-19T12:12:22.033Z</time></trkpt><trkpt lat="41.3381878" lon="1.7076716"><ele>204.33333333333331</ele><time>2026-04-19T12:12:23.033Z</time></trkpt><trkpt lat="41.3383972" lon="1.7077821"><ele>204.66666666666666</ele><time>2026-04-19T12:12:24.033Z</time></trkpt><trkpt lat="41.3386002" lon="1.7078915"><ele>205.0</ele><time>2026-04-19T12:12:25.033Z</time></trkpt><trkpt lat="41.3388031" lon="1.7080037"><ele>205.33333333333331</ele><time>2026-04-19T12:12:26.033Z</time></trkpt><trkpt lat="41.3390074" lon="1.7081237"><ele>205.66666666666669</ele><time>2026-04-19T12:12:27.033Z</time></trkpt><trkpt lat="41.3392064" lon="1.7082467"><ele>206.0</ele><time>2026-04-19T12:12:28.032Z</time></trkpt><trkpt lat="41.3394" lon="1.7083779"><ele>206.0</ele><time>2026-04-19T12:12:29.032Z</time></trkpt><trkpt lat="41.3395833" lon="1.7085055"><ele>206.0</ele><time>2026-04-19T12:12:30.032Z</time></trkpt><trkpt lat="41.3397744" lon="1.7086393"><ele>206.0</ele><time>2026-04-19T12:12:31.032Z</time></trkpt><trkpt lat="41.3399735" lon="1.7087759"><ele>205.0</ele><time>2026-04-19T12:12:32.033Z</time></trkpt><trkpt lat="41.3401761" lon="1.708929"><ele>204.0</ele><time>2026-04-19T12:12:33.033Z</time></trkpt><trkpt lat="41.340376" lon="1.7090839"><ele>205.0</ele><time>2026-04-19T12:12:34.032Z</time></trkpt><trkpt lat="41.3405712" lon="1.7092405"><ele>206.0</ele><time>2026-04-19T12:12:35.032Z</time></trkpt><trkpt lat="41.3407613" lon="1.7093922"><ele>207.0</ele><time>2026-04-19T12:12:36.033Z</time></trkpt><trkpt lat="41.3409431" lon="1.7095381"><ele>207.0</ele><time>2026-04-19T12:12:37.032Z</time></trkpt><trkpt lat="41.3411238" lon="1.7096794"><ele>207.0</ele><time>2026-04-19T12:12:38.033Z</time></trkpt><trkpt lat="41.3413026" lon="1.7098248"><ele>207.0</ele><time>2026-04-19T12:12:39.032Z</time></trkpt><trkpt lat="41.3414849" lon="1.7099729"><ele>207.33333333333331</ele><time>2026-04-19T12:12:40.033Z</time></trkpt><trkpt lat="41.3416601" lon="1.710112"><ele>207.66666666666666</ele><time>2026-04-19T12:12:41.033Z</time></trkpt><trkpt lat="41.3418352" lon="1.7102561"><ele>208.0</ele><time>2026-04-19T12:12:42.033Z</time></trkpt><trkpt lat="41.3420166" lon="1.7104004"><ele>208.0</ele><time>2026-04-19T12:12:43.033Z</time></trkpt><trkpt lat="41.3421988" lon="1.7105449"><ele>208.0</ele><time>2026-04-19T12:12:44.032Z</time></trkpt><trkpt lat="41.3423829" lon="1.7106973"><ele>208.0</ele><time>2026-04-19T12:12:45.032Z</time></trkpt><trkpt lat="41.3425781" lon="1.7108524"><ele>208.5</ele><time>2026-04-19T12:12:46.032Z</time></trkpt><trkpt lat="41.3427772" lon="1.7110129"><ele>209.0</ele><time>2026-04-19T12:12:47.032Z</time></trkpt><trkpt lat="41.3429715" lon="1.7111684"><ele>210.33333333333334</ele><time>2026-04-19T12:12:48.033Z</time></trkpt><trkpt lat="41.3431572" lon="1.7113208"><ele>211.66666666666669</ele><time>2026-04-19T12:12:49.033Z</time></trkpt><trkpt lat="41.3433392" lon="1.7114653"><ele>213.0</ele><time>2026-04-19T12:12:50.033Z</time></trkpt><trkpt lat="41.3435261" lon="1.7116175"><ele>213.0</ele><time>2026-04-19T12:12:51.033Z</time></trkpt><trkpt lat="41.3437136" lon="1.7117643"><ele>213.0</ele><time>2026-04-19T12:12:52.033Z</time></trkpt><trkpt lat="41.3439006" lon="1.711917"><ele>213.0</ele><time>2026-04-19T12:12:53.033Z</time></trkpt><trkpt lat="41.3440834" lon="1.7120664"><ele>211.33333333333331</ele><time>2026-04-19T12:12:54.033Z</time></trkpt><trkpt lat="41.3442666" lon="1.7122145"><ele>209.66666666666666</ele><time>2026-04-19T12:12:55.033Z</time></trkpt><trkpt lat="41.3444583" lon="1.7123612"><ele>208.0</ele><time>2026-04-19T12:12:56.033Z</time></trkpt><trkpt lat="41.3446415" lon="1.7125063"><ele>208.66666666666666</ele><time>2026-04-19T12:12:57.032Z</time></trkpt><trkpt lat="41.3448299" lon="1.7126536"><ele>209.33333333333331</ele><time>2026-04-19T12:12:58.032Z</time></trkpt><trkpt lat="41.3450229" lon="1.7128011"><ele>210.0</ele><time>2026-04-19T12:12:59.033Z</time></trkpt><trkpt lat="41.345214" lon="1.7129502"><ele>210.0</ele><time>2026-04-19T12:13:00.032Z</time></trkpt><trkpt lat="41.345395" lon="1.7130877"><ele>210.0</ele><time>2026-04-19T12:13:01.032Z</time></trkpt><trkpt lat="41.3455693" lon="1.7132175"><ele>210.0</ele><time>2026-04-19T12:13:02.033Z</time></trkpt><trkpt lat="41.3457388" lon="1.7133431"><ele>211.33333333333331</ele><time>2026-04-19T12:13:03.032Z</time></trkpt><trkpt lat="41.3459086" lon="1.7134662"><ele>212.66666666666666</ele><time>2026-04-19T12:13:04.032Z</time></trkpt><trkpt lat="41.3460802" lon="1.7135938"><ele>214.0</ele><time>2026-04-19T12:13:05.033Z</time></trkpt><trkpt lat="41.3462519" lon="1.7137203"><ele>214.66666666666666</ele><time>2026-04-19T12:13:06.033Z</time></trkpt><trkpt lat="41.346422" lon="1.7138494"><ele>215.33333333333331</ele><time>2026-04-19T12:13:07.033Z</time></trkpt><trkpt lat="41.3465921" lon="1.7139795"><ele>216.0</ele><time>2026-04-19T12:13:08.032Z</time></trkpt><trkpt lat="41.3467612" lon="1.7141031"><ele>216.0</ele><time>2026-04-19T12:13:09.033Z</time></trkpt><trkpt lat="41.3469254" lon="1.7142253"><ele>216.0</ele><time>2026-04-19T12:13:10.033Z</time></trkpt><trkpt lat="41.3470912" lon="1.7143452"><ele>216.0</ele><time>2026-04-19T12:13:11.033Z</time></trkpt><trkpt lat="41.3472617" lon="1.7144665"><ele>216.66666666666669</ele><time>2026-04-19T12:13:12.033Z</time></trkpt><trkpt lat="41.3474373" lon="1.7145872"><ele>217.33333333333334</ele><time>2026-04-19T12:13:13.033Z</time></trkpt><trkpt lat="41.3476126" lon="1.7147166"><ele>218.0</ele><time>2026-04-19T12:13:14.033Z</time></trkpt><trkpt lat="41.3478005" lon="1.7148557"><ele>218.0</ele><time>2026-04-19T12:13:15.033Z</time></trkpt><trkpt lat="41.3479895" lon="1.7149949"><ele>218.0</ele><time>2026-04-19T12:13:16.033Z</time></trkpt><trkpt lat="41.3481794" lon="1.7151432"><ele>218.0</ele><time>2026-04-19T12:13:17.033Z</time></trkpt><trkpt lat="41.3483592" lon="1.7153017"><ele>218.66666666666669</ele><time>2026-04-19T12:13:18.033Z</time></trkpt><trkpt lat="41.348532" lon="1.7154772"><ele>219.33333333333331</ele><time>2026-04-19T12:13:19.033Z</time></trkpt><trkpt lat="41.3486913" lon="1.7156735"><ele>220.0</ele><time>2026-04-19T12:13:20.033Z</time></trkpt><trkpt lat="41.3488318" lon="1.7158789"><ele>221.33333333333331</ele><time>2026-04-19T12:13:21.033Z</time></trkpt><trkpt lat="41.3489527" lon="1.7160944"><ele>222.66666666666669</ele><time>2026-04-19T12:13:22.033Z</time></trkpt><trkpt lat="41.3490634" lon="1.7163252"><ele>224.0</ele><time>2026-04-19T12:13:23.033Z</time></trkpt><trkpt lat="41.3491703" lon="1.7165707"><ele>224.0</ele><time>2026-04-19T12:13:24.032Z</time></trkpt><trkpt lat="41.3492656" lon="1.7168322"><ele>224.0</ele><time>2026-04-19T12:13:25.033Z</time></trkpt><trkpt lat="41.3493436" lon="1.7171017"><ele>224.0</ele><time>2026-04-19T12:13:26.032Z</time></trkpt><trkpt lat="41.3494105" lon="1.7173618"><ele>224.66666666666669</ele><time>2026-04-19T12:13:27.033Z</time></trkpt><trkpt lat="41.34947" lon="1.7176143"><ele>225.33333333333331</ele><time>2026-04-19T12:13:28.032Z</time></trkpt><trkpt lat="41.3495267" lon="1.7178635"><ele>226.0</ele><time>2026-04-19T12:13:29.033Z</time></trkpt><trkpt lat="41.3495865" lon="1.7181142"><ele>226.0</ele><time>2026-04-19T12:13:30.032Z</time></trkpt><trkpt lat="41.3496403" lon="1.7183671"><ele>226.0</ele><time>2026-04-19T12:13:31.033Z</time></trkpt><trkpt lat="41.3496904" lon="1.7185992"><ele>226.0</ele><time>2026-04-19T12:13:32.033Z</time></trkpt><trkpt lat="41.3497428" lon="1.7188291"><ele>226.0</ele><time>2026-04-19T12:13:33.032Z</time></trkpt><trkpt lat="41.349799" lon="1.719047"><ele>226.0</ele><time>2026-04-19T12:13:34.033Z</time></trkpt><trkpt lat="41.3498493" lon="1.7192566"><ele>226.0</ele><time>2026-04-19T12:13:35.032Z</time></trkpt><trkpt lat="41.3498923" lon="1.7194386"><ele>225.75</ele><time>2026-04-19T12:13:36.032Z</time></trkpt><trkpt lat="41.3499319" lon="1.7196132"><ele>225.5</ele><time>2026-04-19T12:13:37.033Z</time></trkpt><trkpt lat="41.3499689" lon="1.7197846"><ele>225.25</ele><time>2026-04-19T12:13:38.033Z</time></trkpt><trkpt lat="41.3500074" lon="1.7199576"><ele>225.0</ele><time>2026-04-19T12:13:39.033Z</time></trkpt><trkpt lat="41.3500412" lon="1.7201207"><ele>225.0</ele><time>2026-04-19T12:13:40.032Z</time></trkpt><trkpt lat="41.3500778" lon="1.7202751"><ele>225.0</ele><time>2026-04-19T12:13:41.033Z</time></trkpt><trkpt lat="41.3501129" lon="1.7204145"><ele>225.0</ele><time>2026-04-19T12:13:42.033Z</time></trkpt><trkpt lat="41.3501459" lon="1.7205527"><ele>225.0</ele><time>2026-04-19T12:13:43.033Z</time></trkpt><trkpt lat="41.3501812" lon="1.7206968"><ele>225.0</ele><time>2026-04-19T12:13:44.033Z</time></trkpt><trkpt lat="41.3502131" lon="1.7208392"><ele>225.0</ele><time>2026-04-19T12:13:45.032Z</time></trkpt><trkpt lat="41.3502419" lon="1.7209773"><ele>225.0</ele><time>2026-04-19T12:13:46.033Z</time></trkpt><trkpt lat="41.3502691" lon="1.7211081"><ele>225.0</ele><time>2026-04-19T12:13:47.032Z</time></trkpt><trkpt lat="41.3502928" lon="1.7212341"><ele>225.0</ele><time>2026-04-19T12:13:48.032Z</time></trkpt><trkpt lat="41.3503167" lon="1.721345"><ele>225.0</ele><time>2026-04-19T12:13:49.032Z</time></trkpt><trkpt lat="41.3503374" lon="1.7214403"><ele>225.0</ele><time>2026-04-19T12:13:50.032Z</time></trkpt><trkpt lat="41.3503523" lon="1.7215262"><ele>225.0</ele><time>2026-04-19T12:13:51.033Z</time></trkpt><trkpt lat="41.3503408" lon="1.7216566"><ele>225.0</ele><time>2026-04-19T12:13:53.033Z</time></trkpt><trkpt lat="41.3502678" lon="1.7217872"><ele>225.0</ele><time>2026-04-19T12:13:55.033Z</time></trkpt><trkpt lat="41.35022" lon="1.7218548"><ele>225.0</ele><time>2026-04-19T12:13:56.033Z</time></trkpt><trkpt lat="41.3501745" lon="1.7219264"><ele>224.8</ele><time>2026-04-19T12:13:57.033Z</time></trkpt><trkpt lat="41.3500836" lon="1.7220149"><ele>224.6</ele><time>2026-04-19T12:13:59.032Z</time></trkpt><trkpt lat="41.3500186" lon="1.7220462"><ele>224.39999999999998</ele><time>2026-04-19T12:14:00.032Z</time></trkpt><trkpt lat="41.3499327" lon="1.722067"><ele>224.2</ele><time>2026-04-19T12:14:01.033Z</time></trkpt><trkpt lat="41.3498269" lon="1.722069"><ele>224.0</ele><time>2026-04-19T12:14:02.033Z</time></trkpt><trkpt lat="41.3497128" lon="1.7220643"><ele>223.75</ele><time>2026-04-19T12:14:03.033Z</time></trkpt><trkpt lat="41.3495862" lon="1.7220508"><ele>223.5</ele><time>2026-04-19T12:14:04.033Z</time></trkpt><trkpt lat="41.3494464" lon="1.7220374"><ele>223.25</ele><time>2026-04-19T12:14:05.033Z</time></trkpt><trkpt lat="41.3493044" lon="1.722019"><ele>223.0</ele><time>2026-04-19T12:14:06.033Z</time></trkpt><trkpt lat="41.3491577" lon="1.7219947"><ele>223.0</ele><time>2026-04-19T12:14:07.033Z</time></trkpt><trkpt lat="41.349007" lon="1.7219687"><ele>223.0</ele><time>2026-04-19T12:14:08.033Z</time></trkpt><trkpt lat="41.3488592" lon="1.7219312"><ele>223.0</ele><time>2026-04-19T12:14:09.033Z</time></trkpt><trkpt lat="41.3487009" lon="1.7218836"><ele>223.0</ele><time>2026-04-19T12:14:10.032Z</time></trkpt><trkpt lat="41.3485371" lon="1.7218273"><ele>223.0</ele><time>2026-04-19T12:14:11.033Z</time></trkpt><trkpt lat="41.3483675" lon="1.7217592"><ele>223.0</ele><time>2026-04-19T12:14:12.033Z</time></trkpt><trkpt lat="41.3481929" lon="1.7216838"><ele>222.66666666666666</ele><time>2026-04-19T12:14:13.033Z</time></trkpt><trkpt lat="41.3480208" lon="1.7215997"><ele>222.33333333333331</ele><time>2026-04-19T12:14:14.032Z</time></trkpt><trkpt lat="41.3478538" lon="1.7215131"><ele>222.0</ele><time>2026-04-19T12:14:15.033Z</time></trkpt><trkpt lat="41.3476865" lon="1.7214169"><ele>222.0</ele><time>2026-04-19T12:14:16.033Z</time></trkpt><trkpt lat="41.3475187" lon="1.7213094"><ele>222.0</ele><time>2026-04-19T12:14:17.033Z</time></trkpt><trkpt lat="41.3473596" lon="1.7211917"><ele>222.0</ele><time>2026-04-19T12:14:18.032Z</time></trkpt><trkpt lat="41.3471978" lon="1.7210504"><ele>222.0</ele><time>2026-04-19T12:14:19.032Z</time></trkpt><trkpt lat="41.3470224" lon="1.7208949"><ele>222.0</ele><time>2026-04-19T12:14:20.032Z</time></trkpt><trkpt lat="41.3468404" lon="1.7207358"><ele>222.0</ele><time>2026-04-19T12:14:21.033Z</time></trkpt><trkpt lat="41.3466409" lon="1.7205714"><ele>222.0</ele><time>2026-04-19T12:14:22.033Z</time></trkpt><trkpt lat="41.3464309" lon="1.7204027"><ele>222.0</ele><time>2026-04-19T12:14:23.033Z</time></trkpt><trkpt lat="41.3462094" lon="1.7202294"><ele>222.5</ele><time>2026-04-19T12:14:24.032Z</time></trkpt><trkpt lat="41.3459852" lon="1.7200543"><ele>223.0</ele><time>2026-04-19T12:14:25.033Z</time></trkpt><trkpt lat="41.3457648" lon="1.719893"><ele>223.0</ele><time>2026-04-19T12:14:26.033Z</time></trkpt><trkpt lat="41.3455392" lon="1.719736"><ele>223.0</ele><time>2026-04-19T12:14:27.033Z</time></trkpt><trkpt lat="41.34531" lon="1.7195876"><ele>223.0</ele><time>2026-04-19T12:14:28.032Z</time></trkpt><trkpt lat="41.3450695" lon="1.7194483"><ele>223.0</ele><time>2026-04-19T12:14:29.033Z</time></trkpt><trkpt lat="41.3448162" lon="1.719315"><ele>221.5</ele><time>2026-04-19T12:14:30.033Z</time></trkpt><trkpt lat="41.3445561" lon="1.7191867"><ele>220.0</ele><time>2026-04-19T12:14:31.033Z</time></trkpt><trkpt lat="41.3442886" lon="1.7190735"><ele>220.0</ele><time>2026-04-19T12:14:32.032Z</time></trkpt><trkpt lat="41.3440192" lon="1.7189662"><ele>220.0</ele><time>2026-04-19T12:14:33.032Z</time></trkpt><trkpt lat="41.3437406" lon="1.718887"><ele>218.5</ele><time>2026-04-19T12:14:34.032Z</time></trkpt><trkpt lat="41.343459" lon="1.7188207"><ele>217.0</ele><time>2026-04-19T12:14:35.033Z</time></trkpt><trkpt lat="41.3431754" lon="1.7187642"><ele>216.0</ele><time>2026-04-19T12:14:36.032Z</time></trkpt><trkpt lat="41.3428904" lon="1.7187147"><ele>215.0</ele><time>2026-04-19T12:14:37.032Z</time></trkpt><trkpt lat="41.3426037" lon="1.7186677"><ele>215.0</ele><time>2026-04-19T12:14:38.032Z</time></trkpt><trkpt lat="41.3423185" lon="1.7186228"><ele>215.0</ele><time>2026-04-19T12:14:39.033Z</time></trkpt><trkpt lat="41.3420304" lon="1.7185756"><ele>212.5</ele><time>2026-04-19T12:14:40.032Z</time></trkpt><trkpt lat="41.341744" lon="1.7185233"><ele>210.0</ele><time>2026-04-19T12:14:41.033Z</time></trkpt><trkpt lat="41.3414593" lon="1.7184742"><ele>208.0</ele><time>2026-04-19T12:14:42.033Z</time></trkpt><trkpt lat="41.3411744" lon="1.7184226"><ele>206.0</ele><time>2026-04-19T12:14:43.033Z</time></trkpt><trkpt lat="41.3408905" lon="1.7183715"><ele>206.0</ele><time>2026-04-19T12:14:44.032Z</time></trkpt><trkpt lat="41.3406121" lon="1.7183142"><ele>206.0</ele><time>2026-04-19T12:14:45.033Z</time></trkpt><trkpt lat="41.3403364" lon="1.7182455"><ele>207.0</ele><time>2026-04-19T12:14:46.033Z</time></trkpt><trkpt lat="41.3400608" lon="1.7181606"><ele>208.0</ele><time>2026-04-19T12:14:47.033Z</time></trkpt><trkpt lat="41.3397857" lon="1.7180647"><ele>209.0</ele><time>2026-04-19T12:14:48.032Z</time></trkpt><trkpt lat="41.3395146" lon="1.7179521"><ele>210.0</ele><time>2026-04-19T12:14:49.033Z</time></trkpt><trkpt lat="41.3392453" lon="1.7178287"><ele>210.0</ele><time>2026-04-19T12:14:50.033Z</time></trkpt><trkpt lat="41.3389755" lon="1.7177079"><ele>210.0</ele><time>2026-04-19T12:14:51.033Z</time></trkpt><trkpt lat="41.3386994" lon="1.7175923"><ele>210.0</ele><time>2026-04-19T12:14:52.033Z</time></trkpt><trkpt lat="41.3384247" lon="1.717474"><ele>210.0</ele><time>2026-04-19T12:14:53.033Z</time></trkpt><trkpt lat="41.3381481" lon="1.7173447"><ele>211.5</ele><time>2026-04-19T12:14:54.033Z</time></trkpt><trkpt lat="41.3378745" lon="1.7172165"><ele>213.0</ele><time>2026-04-19T12:14:55.033Z</time></trkpt><trkpt lat="41.3375983" lon="1.7170741"><ele>213.0</ele><time>2026-04-19T12:14:56.033Z</time></trkpt><trkpt lat="41.337333" lon="1.7169239"><ele>213.0</ele><time>2026-04-19T12:14:57.032Z</time></trkpt><trkpt lat="41.3370642" lon="1.7167656"><ele>210.0</ele><time>2026-04-19T12:14:58.032Z</time></trkpt><trkpt lat="41.3368006" lon="1.7166001"><ele>207.0</ele><time>2026-04-19T12:14:59.033Z</time></trkpt><trkpt lat="41.3365436" lon="1.7164337"><ele>208.5</ele><time>2026-04-19T12:15:00.032Z</time></trkpt><trkpt lat="41.3362871" lon="1.7162634"><ele>210.0</ele><time>2026-04-19T12:15:01.032Z</time></trkpt><trkpt lat="41.3360344" lon="1.7160911"><ele>210.5</ele><time>2026-04-19T12:15:02.032Z</time></trkpt><trkpt lat="41.3357809" lon="1.71592"><ele>211.0</ele><time>2026-04-19T12:15:03.033Z</time></trkpt><trkpt lat="41.3355361" lon="1.7157519"><ele>211.0</ele><time>2026-04-19T12:15:04.033Z</time></trkpt><trkpt lat="41.3352891" lon="1.7155807"><ele>211.0</ele><time>2026-04-19T12:15:05.032Z</time></trkpt><trkpt lat="41.3350428" lon="1.7154021"><ele>210.0</ele><time>2026-04-19T12:15:06.032Z</time></trkpt><trkpt lat="41.3347956" lon="1.7152264"><ele>209.0</ele><time>2026-04-19T12:15:07.033Z</time></trkpt><trkpt lat="41.3345457" lon="1.7150564"><ele>209.0</ele><time>2026-04-19T12:15:08.033Z</time></trkpt><trkpt lat="41.3342908" lon="1.7149037"><ele>209.0</ele><time>2026-04-19T12:15:09.033Z</time></trkpt><trkpt lat="41.3340328" lon="1.714762"><ele>209.5</ele><time>2026-04-19T12:15:10.032Z</time></trkpt><trkpt lat="41.3337692" lon="1.7146381"><ele>210.0</ele><time>2026-04-19T12:15:11.032Z</time></trkpt><trkpt lat="41.3335063" lon="1.7145231"><ele>210.0</ele><time>2026-04-19T12:15:12.033Z</time></trkpt><trkpt lat="41.3332453" lon="1.7144225"><ele>210.0</ele><time>2026-04-19T12:15:13.032Z</time></trkpt><trkpt lat="41.3329945" lon="1.7143236"><ele>209.5</ele><time>2026-04-19T12:15:14.033Z</time></trkpt><trkpt lat="41.3327439" lon="1.7142206"><ele>209.0</ele><time>2026-04-19T12:15:15.032Z</time></trkpt><trkpt lat="41.3325051" lon="1.714111"><ele>209.0</ele><time>2026-04-19T12:15:16.033Z</time></trkpt><trkpt lat="41.3322811" lon="1.7139926"><ele>209.0</ele><time>2026-04-19T12:15:17.033Z</time></trkpt><trkpt lat="41.3320698" lon="1.7138716"><ele>210.0</ele><time>2026-04-19T12:15:18.033Z</time></trkpt><trkpt lat="41.3318734" lon="1.7137496"><ele>211.0</ele><time>2026-04-19T12:15:19.032Z</time></trkpt><trkpt lat="41.3316857" lon="1.713618"><ele>212.0</ele><time>2026-04-19T12:15:20.033Z</time></trkpt><trkpt lat="41.331507" lon="1.7134683"><ele>209.66666666666669</ele><time>2026-04-19T12:15:21.033Z</time></trkpt><trkpt lat="41.3313399" lon="1.7133054"><ele>207.33333333333331</ele><time>2026-04-19T12:15:22.033Z</time></trkpt><trkpt lat="41.3312057" lon="1.7131425"><ele>205.0</ele><time>2026-04-19T12:15:23.033Z</time></trkpt><trkpt lat="41.3311156" lon="1.7129873"><ele>205.0</ele><time>2026-04-19T12:15:24.032Z</time></trkpt><trkpt lat="41.3310664" lon="1.7128304"><ele>205.0</ele><time>2026-04-19T12:15:25.033Z</time></trkpt><trkpt lat="41.3310554" lon="1.7126806"><ele>205.0</ele><time>2026-04-19T12:15:26.032Z</time></trkpt><trkpt lat="41.3310783" lon="1.7125438"><ele>205.0</ele><time>2026-04-19T12:15:27.032Z</time></trkpt><trkpt lat="41.331122" lon="1.7124082"><ele>204.4</ele><time>2026-04-19T12:15:28.032Z</time></trkpt><trkpt lat="41.3311863" lon="1.7122904"><ele>203.8</ele><time>2026-04-19T12:15:29.032Z</time></trkpt><trkpt lat="41.3312624" lon="1.712198"><ele>203.2</ele><time>2026-04-19T12:15:30.032Z</time></trkpt><trkpt lat="41.3313435" lon="1.712131"><ele>202.6</ele><time>2026-04-19T12:15:31.033Z</time></trkpt><trkpt lat="41.3314412" lon="1.7120837"><ele>202.0</ele><time>2026-04-19T12:15:32.033Z</time></trkpt><trkpt lat="41.3315484" lon="1.7120464"><ele>202.0</ele><time>2026-04-19T12:15:33.033Z</time></trkpt><trkpt lat="41.3316414" lon="1.7119974"><ele>202.0</ele><time>2026-04-19T12:15:34.032Z</time></trkpt><trkpt lat="41.3317182" lon="1.7119166"><ele>202.0</ele><time>2026-04-19T12:15:35.033Z</time></trkpt><trkpt lat="41.3317593" lon="1.7118117"><ele>202.0</ele><time>2026-04-19T12:15:36.033Z</time></trkpt><trkpt lat="41.331777" lon="1.7116986"><ele>202.0</ele><time>2026-04-19T12:15:37.033Z</time></trkpt><trkpt lat="41.331783" lon="1.7115779"><ele>201.6</ele><time>2026-04-19T12:15:38.033Z</time></trkpt><trkpt lat="41.3317958" lon="1.71147"><ele>201.2</ele><time>2026-04-19T12:15:39.032Z</time></trkpt><trkpt lat="41.3318237" lon="1.7113844"><ele>200.8</ele><time>2026-04-19T12:15:40.033Z</time></trkpt><trkpt lat="41.331886" lon="1.7112682"><ele>200.4</ele><time>2026-04-19T12:15:42.032Z</time></trkpt><trkpt lat="41.3319446" lon="1.7111572"><ele>200.0</ele><time>2026-04-19T12:15:44.032Z</time></trkpt><trkpt lat="41.3320153" lon="1.7110331"><ele>200.00000000000003</ele><time>2026-04-19T12:15:46.033Z</time></trkpt><trkpt lat="41.3320546" lon="1.7109605"><ele>200.0</ele><time>2026-04-19T12:15:47.033Z</time></trkpt><trkpt lat="41.3320957" lon="1.7108864"><ele>200.0</ele><time>2026-04-19T12:15:48.033Z</time></trkpt><trkpt lat="41.3321359" lon="1.7108098"><ele>200.0</ele><time>2026-04-19T12:15:49.033Z</time></trkpt><trkpt lat="41.3321805" lon="1.7107356"><ele>200.0</ele><time>2026-04-19T12:15:50.033Z</time></trkpt><trkpt lat="41.3322233" lon="1.7106599"><ele>200.00000000000003</ele><time>2026-04-19T12:15:51.032Z</time></trkpt><trkpt lat="41.3322627" lon="1.7105909"><ele>200.0</ele><time>2026-04-19T12:15:52.033Z</time></trkpt><trkpt lat="41.3323034" lon="1.7105146"><ele>200.2857142857143</ele><time>2026-04-19T12:15:53.033Z</time></trkpt><trkpt lat="41.3323423" lon="1.7104393"><ele>200.57142857142858</ele><time>2026-04-19T12:15:54.032Z</time></trkpt><trkpt lat="41.3323824" lon="1.7103649"><ele>200.85714285714286</ele><time>2026-04-19T12:15:55.033Z</time></trkpt><trkpt lat="41.3324242" lon="1.7102854"><ele>201.14285714285717</ele><time>2026-04-19T12:15:56.033Z</time></trkpt><trkpt lat="41.3324693" lon="1.7101983"><ele>201.42857142857142</ele><time>2026-04-19T12:15:57.033Z</time></trkpt><trkpt lat="41.3325181" lon="1.7101151"><ele>201.71428571428572</ele><time>2026-04-19T12:15:58.033Z</time></trkpt><trkpt lat="41.3325624" lon="1.7100339"><ele>202.0</ele><time>2026-04-19T12:15:59.032Z</time></trkpt><trkpt lat="41.3326063" lon="1.7099536"><ele>202.33333333333331</ele><time>2026-04-19T12:16:00.033Z</time></trkpt><trkpt lat="41.3326507" lon="1.7098753"><ele>202.66666666666666</ele><time>2026-04-19T12:16:01.032Z</time></trkpt><trkpt lat="41.332692" lon="1.709805"><ele>203.0</ele><time>2026-04-19T12:16:02.033Z</time></trkpt><trkpt lat="41.3327368" lon="1.7097384"><ele>203.33333333333331</ele><time>2026-04-19T12:16:03.033Z</time></trkpt><trkpt lat="41.3327809" lon="1.7096688"><ele>203.66666666666666</ele><time>2026-04-19T12:16:04.033Z</time></trkpt><trkpt lat="41.33282" lon="1.7096024"><ele>204.0</ele><time>2026-04-19T12:16:05.033Z</time></trkpt><trkpt lat="41.3328958" lon="1.7094796"><ele>203.83333333333334</ele><time>2026-04-19T12:16:07.033Z</time></trkpt><trkpt lat="41.3329648" lon="1.7093835"><ele>203.66666666666669</ele><time>2026-04-19T12:16:09.033Z</time></trkpt><trkpt lat="41.3330135" lon="1.7093195"><ele>203.5</ele><time>2026-04-19T12:16:11.033Z</time></trkpt><trkpt lat="41.3330635" lon="1.7092607"><ele>203.33333333333334</ele><time>2026-04-19T12:16:13.033Z</time></trkpt><trkpt lat="41.3331225" lon="1.7092012"><ele>203.16666666666669</ele><time>2026-04-19T12:16:15.033Z</time></trkpt><trkpt lat="41.3332227" lon="1.7091704"><ele>203.0</ele><time>2026-04-19T12:16:17.033Z</time></trkpt><trkpt lat="41.33329" lon="1.7091651"><ele>202.71428571428572</ele><time>2026-04-19T12:16:18.033Z</time></trkpt><trkpt lat="41.3333557" lon="1.7091634"><ele>202.42857142857144</ele><time>2026-04-19T12:16:19.033Z</time></trkpt><trkpt lat="41.3334264" lon="1.7091595"><ele>202.14285714285714</ele><time>2026-04-19T12:16:20.032Z</time></trkpt><trkpt lat="41.3334868" lon="1.7091156"><ele>201.85714285714286</ele><time>2026-04-19T12:16:21.032Z</time></trkpt><trkpt lat="41.3335299" lon="1.7090482"><ele>201.57142857142858</ele><time>2026-04-19T12:16:22.033Z</time></trkpt><trkpt lat="41.3335622" lon="1.7089676"><ele>201.28571428571428</ele><time>2026-04-19T12:16:23.033Z</time></trkpt><trkpt lat="41.3335659" lon="1.7088742"><ele>201.0</ele><time>2026-04-19T12:16:24.032Z</time></trkpt><trkpt lat="41.3335477" lon="1.7087828"><ele>201.0</ele><time>2026-04-19T12:16:25.033Z</time></trkpt><trkpt lat="41.3335068" lon="1.7087066"><ele>201.0</ele><time>2026-04-19T12:16:26.032Z</time></trkpt><trkpt lat="41.3334508" lon="1.7086497"><ele>201.0</ele><time>2026-04-19T12:16:27.032Z</time></trkpt><trkpt lat="41.3333807" lon="1.7086283"><ele>201.0</ele><time>2026-04-19T12:16:28.033Z</time></trkpt><trkpt lat="41.3333031" lon="1.7086365"><ele>201.0</ele><time>2026-04-19T12:16:29.032Z</time></trkpt><trkpt lat="41.3332372" lon="1.7086726"><ele>201.0</ele><time>2026-04-19T12:16:30.033Z</time></trkpt><trkpt lat="41.3331881" lon="1.7087407"><ele>201.0</ele><time>2026-04-19T12:16:31.033Z</time></trkpt><trkpt lat="41.333153" lon="1.7088349"><ele>201.0</ele><time>2026-04-19T12:16:32.032Z</time></trkpt><trkpt lat="41.3331214" lon="1.7089441"><ele>201.0</ele><time>2026-04-19T12:16:33.032Z</time></trkpt><trkpt lat="41.3330923" lon="1.7090611"><ele>201.0</ele><time>2026-04-19T12:16:34.033Z</time></trkpt><trkpt lat="41.3330467" lon="1.7091784"><ele>201.0</ele><time>2026-04-19T12:16:35.033Z</time></trkpt><trkpt lat="41.3329823" lon="1.7092889"><ele>201.0</ele><time>2026-04-19T12:16:36.032Z</time></trkpt><trkpt lat="41.3329182" lon="1.7093976"><ele>201.5</ele><time>2026-04-19T12:16:37.033Z</time></trkpt><trkpt lat="41.3328521" lon="1.7095031"><ele>202.0</ele><time>2026-04-19T12:16:38.033Z</time></trkpt><trkpt lat="41.3327864" lon="1.7096058"><ele>202.5</ele><time>2026-04-19T12:16:39.032Z</time></trkpt><trkpt lat="41.3327223" lon="1.7097045"><ele>203.0</ele><time>2026-04-19T12:16:40.033Z</time></trkpt><trkpt lat="41.332669" lon="1.7097832"><ele>203.5</ele><time>2026-04-19T12:16:41.032Z</time></trkpt><trkpt lat="41.3326267" lon="1.7098461"><ele>204.0</ele><time>2026-04-19T12:16:42.032Z</time></trkpt><trkpt lat="41.3325622" lon="1.7099363"><ele>204.0</ele><time>2026-04-19T12:18:43.03Z</time></trkpt><trkpt lat="41.3325227" lon="1.7100188"><ele>204.0</ele><time>2026-04-19T12:18:44.033Z</time></trkpt><trkpt lat="41.3324634" lon="1.7101366"><ele>204.0</ele><time>2026-04-19T12:18:45.031Z</time></trkpt><trkpt lat="41.3323925" lon="1.7102748"><ele>204.0</ele><time>2026-04-19T12:18:46.031Z</time></trkpt><trkpt lat="41.3323049" lon="1.7104427"><ele>203.0</ele><time>2026-04-19T12:18:47.03Z</time></trkpt><trkpt lat="41.3322148" lon="1.7106091"><ele>202.0</ele><time>2026-04-19T12:18:48.03Z</time></trkpt><trkpt lat="41.3321338" lon="1.710758"><ele>201.0</ele><time>2026-04-19T12:18:49.03Z</time></trkpt><trkpt lat="41.3320583" lon="1.7108918"><ele>200.0</ele><time>2026-04-19T12:18:50.031Z</time></trkpt><trkpt lat="41.3319867" lon="1.7110151"><ele>200.0</ele><time>2026-04-19T12:18:51.03Z</time></trkpt><trkpt lat="41.3319236" lon="1.7111294"><ele>200.0</ele><time>2026-04-19T12:18:52.031Z</time></trkpt><trkpt lat="41.331863" lon="1.7112392"><ele>200.0</ele><time>2026-04-19T12:18:53.03Z</time></trkpt><trkpt lat="41.3318056" lon="1.7113343"><ele>200.0</ele><time>2026-04-19T12:18:54.031Z</time></trkpt><trkpt lat="41.3317371" lon="1.7114012"><ele>200.0</ele><time>2026-04-19T12:18:55.031Z</time></trkpt><trkpt lat="41.3316542" lon="1.7114381"><ele>200.00000000000003</ele><time>2026-04-19T12:18:56.032Z</time></trkpt><trkpt lat="41.3315626" lon="1.7114694"><ele>200.0</ele><time>2026-04-19T12:18:57.029Z</time></trkpt><trkpt lat="41.3314807" lon="1.7115184"><ele>200.0</ele><time>2026-04-19T12:18:58.031Z</time></trkpt><trkpt lat="41.3314165" lon="1.7115982"><ele>200.0</ele><time>2026-04-19T12:18:59.031Z</time></trkpt><trkpt lat="41.3313797" lon="1.7116941"><ele>200.00000000000003</ele><time>2026-04-19T12:19:00.031Z</time></trkpt><trkpt lat="41.3313747" lon="1.7117903"><ele>200.0</ele><time>2026-04-19T12:19:01.031Z</time></trkpt><trkpt lat="41.3314057" lon="1.7118826"><ele>200.00000000000003</ele><time>2026-04-19T12:19:02.031Z</time></trkpt><trkpt lat="41.331466" lon="1.7119521"><ele>200.0</ele><time>2026-04-19T12:19:03.03Z</time></trkpt><trkpt lat="41.331543" lon="1.7119865"><ele>200.0</ele><time>2026-04-19T12:19:04.03Z</time></trkpt><trkpt lat="41.3316225" lon="1.711976"><ele>200.0</ele><time>2026-04-19T12:19:05.031Z</time></trkpt><trkpt lat="41.331695" lon="1.7119134"><ele>200.00000000000003</ele><time>2026-04-19T12:19:06.03Z</time></trkpt><trkpt lat="41.3317445" lon="1.7118239"><ele>200.0</ele><time>2026-04-19T12:19:07.03Z</time></trkpt><trkpt lat="41.3317751" lon="1.7117061"><ele>200.0</ele><time>2026-04-19T12:19:08.032Z</time></trkpt><trkpt lat="41.3317909" lon="1.7115615"><ele>200.0</ele><time>2026-04-19T12:19:09.031Z</time></trkpt><trkpt lat="41.3318156" lon="1.7114192"><ele>200.0</ele><time>2026-04-19T12:19:10.031Z</time></trkpt><trkpt lat="41.3318689" lon="1.7112852"><ele>200.0</ele><time>2026-04-19T12:19:11.03Z</time></trkpt><trkpt lat="41.3319516" lon="1.7111452"><ele>200.0</ele><time>2026-04-19T12:19:12.03Z</time></trkpt><trkpt lat="41.3320425" lon="1.7109917"><ele>200.0</ele><time>2026-04-19T12:19:13.031Z</time></trkpt><trkpt lat="41.3321363" lon="1.7108251"><ele>200.0</ele><time>2026-04-19T12:19:14.031Z</time></trkpt><trkpt lat="41.3322226" lon="1.7106669"><ele>200.5</ele><time>2026-04-19T12:19:15.031Z</time></trkpt><trkpt lat="41.332309" lon="1.7105065"><ele>201.0</ele><time>2026-04-19T12:19:16.032Z</time></trkpt><trkpt lat="41.3323968" lon="1.7103465"><ele>201.5</ele><time>2026-04-19T12:19:17.031Z</time></trkpt><trkpt lat="41.3324803" lon="1.7101955"><ele>202.0</ele><time>2026-04-19T12:19:18.031Z</time></trkpt><trkpt lat="41.3325616" lon="1.7100483"><ele>202.5</ele><time>2026-04-19T12:19:19.031Z</time></trkpt><trkpt lat="41.3326435" lon="1.709896"><ele>203.0</ele><time>2026-04-19T12:19:20.03Z</time></trkpt><trkpt lat="41.3327287" lon="1.7097473"><ele>203.5</ele><time>2026-04-19T12:19:21.031Z</time></trkpt><trkpt lat="41.3328132" lon="1.709608"><ele>204.0</ele><time>2026-04-19T12:19:22.031Z</time></trkpt><trkpt lat="41.3328946" lon="1.7094781"><ele>203.83333333333334</ele><time>2026-04-19T12:19:23.03Z</time></trkpt><trkpt lat="41.332965" lon="1.7093746"><ele>203.66666666666669</ele><time>2026-04-19T12:19:24.032Z</time></trkpt><trkpt lat="41.3330312" lon="1.7092903"><ele>203.5</ele><time>2026-04-19T12:19:25.029Z</time></trkpt><trkpt lat="41.3330934" lon="1.7092183"><ele>203.33333333333334</ele><time>2026-04-19T12:19:26.03Z</time></trkpt><trkpt lat="41.3331604" lon="1.7091759"><ele>203.16666666666669</ele><time>2026-04-19T12:19:27.032Z</time></trkpt><trkpt lat="41.3332398" lon="1.7091634"><ele>203.0</ele><time>2026-04-19T12:19:28.031Z</time></trkpt><trkpt lat="41.3333238" lon="1.709189"><ele>202.75</ele><time>2026-04-19T12:19:29.031Z</time></trkpt><trkpt lat="41.3334052" lon="1.7092522"><ele>202.5</ele><time>2026-04-19T12:19:30.039Z</time></trkpt><trkpt lat="41.3334879" lon="1.7093564"><ele>202.25</ele><time>2026-04-19T12:19:31.03Z</time></trkpt><trkpt lat="41.3335601" lon="1.7094969"><ele>202.0</ele><time>2026-04-19T12:19:32.031Z</time></trkpt><trkpt lat="41.3336213" lon="1.7096615"><ele>202.0</ele><time>2026-04-19T12:19:33.03Z</time></trkpt><trkpt lat="41.3336789" lon="1.709849"><ele>202.0</ele><time>2026-04-19T12:19:34.031Z</time></trkpt><trkpt lat="41.3337399" lon="1.7100414"><ele>202.0</ele><time>2026-04-19T12:19:35.03Z</time></trkpt><trkpt lat="41.3338052" lon="1.7102445"><ele>202.0</ele><time>2026-04-19T12:19:36.03Z</time></trkpt><trkpt lat="41.333868" lon="1.710444"><ele>202.0</ele><time>2026-04-19T12:19:37.029Z</time></trkpt><trkpt lat="41.3339292" lon="1.7106336"><ele>202.0</ele><time>2026-04-19T12:19:38.031Z</time></trkpt><trkpt lat="41.333986" lon="1.7108221"><ele>202.0</ele><time>2026-04-19T12:19:39.033Z</time></trkpt><trkpt lat="41.3340427" lon="1.7110104"><ele>202.0</ele><time>2026-04-19T12:19:40.03Z</time></trkpt><trkpt lat="41.3340713" lon="1.7112134"><ele>202.0</ele><time>2026-04-19T12:19:41.03Z</time></trkpt><trkpt lat="41.3340885" lon="1.7114339"><ele>201.66666666666666</ele><time>2026-04-19T12:19:42.029Z</time></trkpt><trkpt lat="41.33409" lon="1.7116618"><ele>201.33333333333331</ele><time>2026-04-19T12:19:43.03Z</time></trkpt><trkpt lat="41.3340772" lon="1.7118904"><ele>201.0</ele><time>2026-04-19T12:19:44.031Z</time></trkpt><trkpt lat="41.3340315" lon="1.7121243"><ele>200.66666666666669</ele><time>2026-04-19T12:19:45.032Z</time></trkpt><trkpt lat="41.3339632" lon="1.7123545"><ele>200.33333333333334</ele><time>2026-04-19T12:19:46.03Z</time></trkpt><trkpt lat="41.3338739" lon="1.7125704"><ele>200.0</ele><time>2026-04-19T12:19:47.03Z</time></trkpt><trkpt lat="41.3337658" lon="1.7127724"><ele>201.66666666666669</ele><time>2026-04-19T12:19:48.031Z</time></trkpt><trkpt lat="41.3336495" lon="1.7129661"><ele>203.33333333333331</ele><time>2026-04-19T12:19:49.032Z</time></trkpt><trkpt lat="41.3335155" lon="1.7131158"><ele>205.0</ele><time>2026-04-19T12:19:50.032Z</time></trkpt><trkpt lat="41.3333647" lon="1.7132469"><ele>205.0</ele><time>2026-04-19T12:19:51.03Z</time></trkpt><trkpt lat="41.3332074" lon="1.7133528"><ele>205.0</ele><time>2026-04-19T12:19:52.03Z</time></trkpt><trkpt lat="41.3330449" lon="1.7134331"><ele>205.0</ele><time>2026-04-19T12:19:53.032Z</time></trkpt><trkpt lat="41.3328837" lon="1.7134921"><ele>204.66666666666666</ele><time>2026-04-19T12:19:54.031Z</time></trkpt><trkpt lat="41.332726" lon="1.713526"><ele>204.33333333333331</ele><time>2026-04-19T12:19:55.031Z</time></trkpt><trkpt lat="41.3325759" lon="1.713542"><ele>204.0</ele><time>2026-04-19T12:19:56.03Z</time></trkpt><trkpt lat="41.3324312" lon="1.7135385"><ele>204.0</ele><time>2026-04-19T12:19:57.032Z</time></trkpt><trkpt lat="41.3322887" lon="1.7135033"><ele>204.0</ele><time>2026-04-19T12:19:58.03Z</time></trkpt><trkpt lat="41.3321548" lon="1.7134408"><ele>204.0</ele><time>2026-04-19T12:19:59.031Z</time></trkpt><trkpt lat="41.3320413" lon="1.7133337"><ele>204.0</ele><time>2026-04-19T12:20:00.03Z</time></trkpt><trkpt lat="41.3319543" lon="1.7131905"><ele>204.0</ele><time>2026-04-19T12:20:01.031Z</time></trkpt><trkpt lat="41.3319023" lon="1.7130229"><ele>204.0</ele><time>2026-04-19T12:20:02.031Z</time></trkpt><trkpt lat="41.3318796" lon="1.7128375"><ele>204.0</ele><time>2026-04-19T12:20:03.03Z</time></trkpt><trkpt lat="41.3318978" lon="1.7126512"><ele>204.0</ele><time>2026-04-19T12:20:04.031Z</time></trkpt><trkpt lat="41.3319555" lon="1.7124811"><ele>203.5</ele><time>2026-04-19T12:20:05.037Z</time></trkpt><trkpt lat="41.3320443" lon="1.7123381"><ele>203.0</ele><time>2026-04-19T12:20:06.032Z</time></trkpt><trkpt lat="41.3321645" lon="1.7122265"><ele>202.5</ele><time>2026-04-19T12:20:07.03Z</time></trkpt><trkpt lat="41.3322999" lon="1.7121598"><ele>202.0</ele><time>2026-04-19T12:20:08.031Z</time></trkpt><trkpt lat="41.332437" lon="1.7121483"><ele>202.0</ele><time>2026-04-19T12:20:09.031Z</time></trkpt><trkpt lat="41.3325727" lon="1.7121868"><ele>202.0</ele><time>2026-04-19T12:20:10.031Z</time></trkpt><trkpt lat="41.3327049" lon="1.7122711"><ele>202.0</ele><time>2026-04-19T12:20:11.031Z</time></trkpt><trkpt lat="41.3328355" lon="1.7124015"><ele>202.0</ele><time>2026-04-19T12:20:12.031Z</time></trkpt><trkpt lat="41.3329728" lon="1.712559"><ele>201.33333333333331</ele><time>2026-04-19T12:20:13.031Z</time></trkpt><trkpt lat="41.3331244" lon="1.7127346"><ele>200.66666666666669</ele><time>2026-04-19T12:20:14.03Z</time></trkpt><trkpt lat="41.3332831" lon="1.7129173"><ele>200.0</ele><time>2026-04-19T12:20:15.031Z</time></trkpt><trkpt lat="41.3334472" lon="1.7130989"><ele>201.66666666666669</ele><time>2026-04-19T12:20:16.03Z</time></trkpt><trkpt lat="41.3336144" lon="1.7132847"><ele>203.33333333333331</ele><time>2026-04-19T12:20:17.03Z</time></trkpt><trkpt lat="41.3337939" lon="1.7134691"><ele>205.0</ele><time>2026-04-19T12:20:18.031Z</time></trkpt><trkpt lat="41.333981" lon="1.7136538"><ele>205.5</ele><time>2026-04-19T12:20:19.032Z</time></trkpt><trkpt lat="41.3341762" lon="1.7138381"><ele>206.0</ele><time>2026-04-19T12:20:20.031Z</time></trkpt><trkpt lat="41.3343767" lon="1.7140237"><ele>206.0</ele><time>2026-04-19T12:20:21.03Z</time></trkpt><trkpt lat="41.3345761" lon="1.7142114"><ele>206.0</ele><time>2026-04-19T12:20:22.031Z</time></trkpt><trkpt lat="41.3347787" lon="1.7143951"><ele>207.0</ele><time>2026-04-19T12:20:23.031Z</time></trkpt><trkpt lat="41.3349841" lon="1.7145787"><ele>208.0</ele><time>2026-04-19T12:20:24.031Z</time></trkpt><trkpt lat="41.3351917" lon="1.7147649"><ele>208.0</ele><time>2026-04-19T12:20:25.031Z</time></trkpt><trkpt lat="41.3354048" lon="1.714943"><ele>208.0</ele><time>2026-04-19T12:20:26.03Z</time></trkpt><trkpt lat="41.3356145" lon="1.7151137"><ele>209.5</ele><time>2026-04-19T12:20:27.032Z</time></trkpt><trkpt lat="41.335837" lon="1.7152889"><ele>211.0</ele><time>2026-04-19T12:20:28.03Z</time></trkpt><trkpt lat="41.3360639" lon="1.7154611"><ele>211.0</ele><time>2026-04-19T12:20:29.031Z</time></trkpt><trkpt lat="41.336301" lon="1.7156324"><ele>211.0</ele><time>2026-04-19T12:20:30.031Z</time></trkpt><trkpt lat="41.3365364" lon="1.7158034"><ele>209.0</ele><time>2026-04-19T12:20:31.031Z</time></trkpt><trkpt lat="41.3367838" lon="1.7159675"><ele>207.0</ele><time>2026-04-19T12:20:32.029Z</time></trkpt><trkpt lat="41.3370397" lon="1.7161284"><ele>208.0</ele><time>2026-04-19T12:20:33.032Z</time></trkpt><trkpt lat="41.337303" lon="1.7162858"><ele>209.0</ele><time>2026-04-19T12:20:34.031Z</time></trkpt><trkpt lat="41.3375732" lon="1.7164361"><ele>209.0</ele><time>2026-04-19T12:20:35.031Z</time></trkpt><trkpt lat="41.3378449" lon="1.7165878"><ele>209.0</ele><time>2026-04-19T12:20:36.031Z</time></trkpt><trkpt lat="41.3381233" lon="1.7167258"><ele>208.5</ele><time>2026-04-19T12:20:37.031Z</time></trkpt><trkpt lat="41.3384015" lon="1.7168604"><ele>208.0</ele><time>2026-04-19T12:20:38.031Z</time></trkpt><trkpt lat="41.3386852" lon="1.7169892"><ele>208.5</ele><time>2026-04-19T12:20:39.031Z</time></trkpt><trkpt lat="41.3389652" lon="1.7171127"><ele>209.0</ele><time>2026-04-19T12:20:40.03Z</time></trkpt><trkpt lat="41.3392462" lon="1.717239"><ele>209.0</ele><time>2026-04-19T12:20:41.029Z</time></trkpt><trkpt lat="41.3395261" lon="1.7173528"><ele>209.0</ele><time>2026-04-19T12:20:42.032Z</time></trkpt><trkpt lat="41.3398081" lon="1.7174556"><ele>208.5</ele><time>2026-04-19T12:20:43.033Z</time></trkpt><trkpt lat="41.3400897" lon="1.7175476"><ele>208.0</ele><time>2026-04-19T12:20:44.03Z</time></trkpt><trkpt lat="41.3403668" lon="1.7176339"><ele>207.0</ele><time>2026-04-19T12:20:45.031Z</time></trkpt><trkpt lat="41.3406436" lon="1.717727"><ele>206.0</ele><time>2026-04-19T12:20:46.032Z</time></trkpt><trkpt lat="41.3409194" lon="1.7178197"><ele>206.0</ele><time>2026-04-19T12:20:47.031Z</time></trkpt><trkpt lat="41.341194" lon="1.7179032"><ele>206.0</ele><time>2026-04-19T12:20:48.03Z</time></trkpt><trkpt lat="41.34147" lon="1.7179726"><ele>208.0</ele><time>2026-04-19T12:20:49.032Z</time></trkpt><trkpt lat="41.3417462" lon="1.7180325"><ele>210.0</ele><time>2026-04-19T12:20:50.03Z</time></trkpt><trkpt lat="41.3420208" lon="1.7180772"><ele>211.0</ele><time>2026-04-19T12:20:51.031Z</time></trkpt><trkpt lat="41.3422967" lon="1.7181157"><ele>212.0</ele><time>2026-04-19T12:20:52.03Z</time></trkpt><trkpt lat="41.3425746" lon="1.7181474"><ele>212.0</ele><time>2026-04-19T12:20:53.031Z</time></trkpt><trkpt lat="41.3428589" lon="1.7181738"><ele>212.0</ele><time>2026-04-19T12:20:54.031Z</time></trkpt><trkpt lat="41.3431456" lon="1.7181976"><ele>213.5</ele><time>2026-04-19T12:20:55.031Z</time></trkpt><trkpt lat="41.3434369" lon="1.7182122"><ele>215.0</ele><time>2026-04-19T12:20:56.031Z</time></trkpt><trkpt lat="41.3437282" lon="1.7182131"><ele>216.5</ele><time>2026-04-19T12:20:57.03Z</time></trkpt><trkpt lat="41.3440186" lon="1.7182101"><ele>218.0</ele><time>2026-04-19T12:20:58.03Z</time></trkpt><trkpt lat="41.3443083" lon="1.7181958"><ele>218.0</ele><time>2026-04-19T12:20:59.031Z</time></trkpt><trkpt lat="41.3446004" lon="1.7181799"><ele>218.0</ele><time>2026-04-19T12:21:00.032Z</time></trkpt><trkpt lat="41.3448927" lon="1.7181621"><ele>220.0</ele><time>2026-04-19T12:21:01.032Z</time></trkpt><trkpt lat="41.3451868" lon="1.7181441"><ele>222.0</ele><time>2026-04-19T12:21:02.031Z</time></trkpt><trkpt lat="41.3454819" lon="1.7181289"><ele>224.0</ele><time>2026-04-19T12:21:03.031Z</time></trkpt><trkpt lat="41.3457776" lon="1.7181114"><ele>226.0</ele><time>2026-04-19T12:21:04.031Z</time></trkpt><trkpt lat="41.3460727" lon="1.7180951"><ele>226.0</ele><time>2026-04-19T12:21:05.031Z</time></trkpt><trkpt lat="41.3463708" lon="1.7180841"><ele>226.0</ele><time>2026-04-19T12:21:06.029Z</time></trkpt><trkpt lat="41.3466653" lon="1.7180717"><ele>225.0</ele><time>2026-04-19T12:21:07.03Z</time></trkpt><trkpt lat="41.3469598" lon="1.7180722"><ele>224.0</ele><time>2026-04-19T12:21:08.029Z</time></trkpt><trkpt lat="41.3472515" lon="1.7180882"><ele>226.0</ele><time>2026-04-19T12:21:09.031Z</time></trkpt><trkpt lat="41.347545" lon="1.7181184"><ele>228.0</ele><time>2026-04-19T12:21:10.031Z</time></trkpt><trkpt lat="41.3478367" lon="1.7181604"><ele>228.0</ele><time>2026-04-19T12:21:11.031Z</time></trkpt><trkpt lat="41.3481267" lon="1.7182096"><ele>228.0</ele><time>2026-04-19T12:21:12.029Z</time></trkpt><trkpt lat="41.348414" lon="1.7182672"><ele>228.0</ele><time>2026-04-19T12:21:13.03Z</time></trkpt><trkpt lat="41.3486945" lon="1.7183328"><ele>228.0</ele><time>2026-04-19T12:21:14.031Z</time></trkpt><trkpt lat="41.3489778" lon="1.7183991"><ele>228.5</ele><time>2026-04-19T12:21:15.032Z</time></trkpt><trkpt lat="41.3492612" lon="1.718479"><ele>229.0</ele><time>2026-04-19T12:21:16.031Z</time></trkpt><trkpt lat="41.3495402" lon="1.7185663"><ele>227.5</ele><time>2026-04-19T12:21:17.03Z</time></trkpt><trkpt lat="41.3498171" lon="1.718664"><ele>226.0</ele><time>2026-04-19T12:21:18.029Z</time></trkpt><trkpt lat="41.3500909" lon="1.7187708"><ele>226.0</ele><time>2026-04-19T12:21:19.03Z</time></trkpt><trkpt lat="41.3503589" lon="1.7188924"><ele>226.0</ele><time>2026-04-19T12:21:20.03Z</time></trkpt><trkpt lat="41.3506243" lon="1.7190216"><ele>227.5</ele><time>2026-04-19T12:21:21.031Z</time></trkpt><trkpt lat="41.350886" lon="1.7191589"><ele>229.0</ele><time>2026-04-19T12:21:22.031Z</time></trkpt><trkpt lat="41.3511437" lon="1.7193059"><ele>229.0</ele><time>2026-04-19T12:21:23.031Z</time></trkpt><trkpt lat="41.351401" lon="1.7194623"><ele>229.0</ele><time>2026-04-19T12:21:24.031Z</time></trkpt><trkpt lat="41.3516526" lon="1.7196268"><ele>229.0</ele><time>2026-04-19T12:21:25.032Z</time></trkpt><trkpt lat="41.3519028" lon="1.719795"><ele>229.0</ele><time>2026-04-19T12:21:26.03Z</time></trkpt><trkpt lat="41.3521519" lon="1.7199717"><ele>229.5</ele><time>2026-04-19T12:21:27.031Z</time></trkpt><trkpt lat="41.3523956" lon="1.7201575"><ele>230.0</ele><time>2026-04-19T12:21:28.03Z</time></trkpt><trkpt lat="41.3526326" lon="1.7203542"><ele>230.0</ele><time>2026-04-19T12:21:29.031Z</time></trkpt><trkpt lat="41.3528635" lon="1.7205565"><ele>230.0</ele><time>2026-04-19T12:21:30.03Z</time></trkpt><trkpt lat="41.3530908" lon="1.7207722"><ele>230.0</ele><time>2026-04-19T12:21:31.031Z</time></trkpt><trkpt lat="41.3533141" lon="1.7209972"><ele>230.0</ele><time>2026-04-19T12:21:32.031Z</time></trkpt><trkpt lat="41.3535353" lon="1.7212263"><ele>230.0</ele><time>2026-04-19T12:21:33.032Z</time></trkpt><trkpt lat="41.3537541" lon="1.7214614"><ele>230.0</ele><time>2026-04-19T12:21:34.031Z</time></trkpt><trkpt lat="41.3539714" lon="1.7216994"><ele>229.5</ele><time>2026-04-19T12:21:35.03Z</time></trkpt><trkpt lat="41.3541888" lon="1.7219416"><ele>229.0</ele><time>2026-04-19T12:21:36.029Z</time></trkpt><trkpt lat="41.3544083" lon="1.7221848"><ele>229.0</ele><time>2026-04-19T12:21:37.032Z</time></trkpt><trkpt lat="41.3546289" lon="1.7224223"><ele>229.0</ele><time>2026-04-19T12:21:38.032Z</time></trkpt><trkpt lat="41.354852" lon="1.7226525"><ele>228.0</ele><time>2026-04-19T12:21:39.031Z</time></trkpt><trkpt lat="41.3550814" lon="1.7228849"><ele>227.0</ele><time>2026-04-19T12:21:40.031Z</time></trkpt><trkpt lat="41.3553131" lon="1.7231087"><ele>228.0</ele><time>2026-04-19T12:21:41.03Z</time></trkpt><trkpt lat="41.3555453" lon="1.7233267"><ele>229.0</ele><time>2026-04-19T12:21:42.033Z</time></trkpt><trkpt lat="41.3557874" lon="1.7235362"><ele>228.0</ele><time>2026-04-19T12:21:43.03Z</time></trkpt><trkpt lat="41.3560341" lon="1.7237237"><ele>227.0</ele><time>2026-04-19T12:21:44.033Z</time></trkpt><trkpt lat="41.3562892" lon="1.7239026"><ele>227.5</ele><time>2026-04-19T12:21:45.031Z</time></trkpt><trkpt lat="41.3565386" lon="1.724069"><ele>228.0</ele><time>2026-04-19T12:21:46.03Z</time></trkpt><trkpt lat="41.3567882" lon="1.7242342"><ele>228.0</ele><time>2026-04-19T12:21:47.031Z</time></trkpt><trkpt lat="41.3570382" lon="1.7244036"><ele>228.0</ele><time>2026-04-19T12:21:48.031Z</time></trkpt><trkpt lat="41.3572901" lon="1.7245667"><ele>230.0</ele><time>2026-04-19T12:21:49.031Z</time></trkpt><trkpt lat="41.3575427" lon="1.7247277"><ele>232.0</ele><time>2026-04-19T12:21:50.031Z</time></trkpt><trkpt lat="41.3577995" lon="1.7248773"><ele>234.0</ele><time>2026-04-19T12:21:51.031Z</time></trkpt><trkpt lat="41.3580666" lon="1.7250122"><ele>236.0</ele><time>2026-04-19T12:21:52.029Z</time></trkpt><trkpt lat="41.3583344" lon="1.7251301"><ele>235.5</ele><time>2026-04-19T12:21:53.03Z</time></trkpt><trkpt lat="41.3586038" lon="1.7252379"><ele>235.0</ele><time>2026-04-19T12:21:54.031Z</time></trkpt><trkpt lat="41.3588769" lon="1.7253349"><ele>234.5</ele><time>2026-04-19T12:21:55.03Z</time></trkpt><trkpt lat="41.3591536" lon="1.7254211"><ele>234.0</ele><time>2026-04-19T12:21:56.031Z</time></trkpt><trkpt lat="41.3594296" lon="1.7255002"><ele>234.0</ele><time>2026-04-19T12:21:57.03Z</time></trkpt><trkpt lat="41.3597074" lon="1.7255713"><ele>234.0</ele><time>2026-04-19T12:21:58.03Z</time></trkpt><trkpt lat="41.3599917" lon="1.7256331"><ele>234.0</ele><time>2026-04-19T12:21:59.031Z</time></trkpt><trkpt lat="41.3602763" lon="1.7256863"><ele>234.0</ele><time>2026-04-19T12:22:00.031Z</time></trkpt><trkpt lat="41.3605625" lon="1.7257245"><ele>234.5</ele><time>2026-04-19T12:22:01.032Z</time></trkpt><trkpt lat="41.3608467" lon="1.7257638"><ele>235.0</ele><time>2026-04-19T12:22:02.03Z</time></trkpt><trkpt lat="41.3611335" lon="1.7257888"><ele>235.5</ele><time>2026-04-19T12:22:03.031Z</time></trkpt><trkpt lat="41.3614237" lon="1.7258015"><ele>236.0</ele><time>2026-04-19T12:22:04.031Z</time></trkpt><trkpt lat="41.3617175" lon="1.7258114"><ele>236.0</ele><time>2026-04-19T12:22:05.029Z</time></trkpt><trkpt lat="41.3620144" lon="1.7258093"><ele>236.0</ele><time>2026-04-19T12:22:06.031Z</time></trkpt><trkpt lat="41.3623122" lon="1.7258024"><ele>235.5</ele><time>2026-04-19T12:22:07.031Z</time></trkpt><trkpt lat="41.3626113" lon="1.7257897"><ele>235.0</ele><time>2026-04-19T12:22:08.032Z</time></trkpt><trkpt lat="41.3629135" lon="1.725779"><ele>235.5</ele><time>2026-04-19T12:22:09.031Z</time></trkpt><trkpt lat="41.3632151" lon="1.7257735"><ele>236.0</ele><time>2026-04-19T12:22:10.032Z</time></trkpt><trkpt lat="41.3635152" lon="1.7257685"><ele>236.0</ele><time>2026-04-19T12:22:11.032Z</time></trkpt><trkpt lat="41.3638122" lon="1.7257705"><ele>236.0</ele><time>2026-04-19T12:22:12.03Z</time></trkpt><trkpt lat="41.3641073" lon="1.7257835"><ele>237.0</ele><time>2026-04-19T12:22:13.03Z</time></trkpt><trkpt lat="41.3644003" lon="1.72581"><ele>238.0</ele><time>2026-04-19T12:22:14.031Z</time></trkpt><trkpt lat="41.3646924" lon="1.7258489"><ele>239.0</ele><time>2026-04-19T12:22:15.032Z</time></trkpt><trkpt lat="41.3649858" lon="1.7258921"><ele>240.0</ele><time>2026-04-19T12:22:16.031Z</time></trkpt><trkpt lat="41.3652813" lon="1.7259455"><ele>242.0</ele><time>2026-04-19T12:22:17.031Z</time></trkpt><trkpt lat="41.3655751" lon="1.7260069"><ele>244.0</ele><time>2026-04-19T12:22:18.03Z</time></trkpt><trkpt lat="41.3658649" lon="1.7260766"><ele>244.0</ele><time>2026-04-19T12:22:19.031Z</time></trkpt><trkpt lat="41.3661548" lon="1.7261548"><ele>244.0</ele><time>2026-04-19T12:22:20.031Z</time></trkpt><trkpt lat="41.3664423" lon="1.7262497"><ele>244.0</ele><time>2026-04-19T12:22:21.031Z</time></trkpt><trkpt lat="41.3667289" lon="1.7263628"><ele>244.0</ele><time>2026-04-19T12:22:22.031Z</time></trkpt><trkpt lat="41.3670106" lon="1.7264833"><ele>242.5</ele><time>2026-04-19T12:22:23.031Z</time></trkpt><trkpt lat="41.3672902" lon="1.726611"><ele>241.0</ele><time>2026-04-19T12:22:24.031Z</time></trkpt><trkpt lat="41.3675636" lon="1.7267509"><ele>241.0</ele><time>2026-04-19T12:22:25.031Z</time></trkpt><trkpt lat="41.3678347" lon="1.7269063"><ele>241.0</ele><time>2026-04-19T12:22:26.03Z</time></trkpt><trkpt lat="41.368098" lon="1.7270744"><ele>241.0</ele><time>2026-04-19T12:22:27.031Z</time></trkpt><trkpt lat="41.3683544" lon="1.7272533"><ele>241.0</ele><time>2026-04-19T12:22:28.03Z</time></trkpt><trkpt lat="41.3686063" lon="1.7274429"><ele>241.0</ele><time>2026-04-19T12:22:29.032Z</time></trkpt><trkpt lat="41.3688585" lon="1.7276309"><ele>241.0</ele><time>2026-04-19T12:22:30.032Z</time></trkpt><trkpt lat="41.369105" lon="1.7278306"><ele>242.5</ele><time>2026-04-19T12:22:31.029Z</time></trkpt><trkpt lat="41.369346" lon="1.7280356"><ele>244.0</ele><time>2026-04-19T12:22:32.031Z</time></trkpt><trkpt lat="41.3695822" lon="1.7282464"><ele>245.0</ele><time>2026-04-19T12:22:33.031Z</time></trkpt><trkpt lat="41.3698115" lon="1.7284667"><ele>246.0</ele><time>2026-04-19T12:22:34.03Z</time></trkpt><trkpt lat="41.3700385" lon="1.7286922"><ele>246.5</ele><time>2026-04-19T12:22:35.031Z</time></trkpt><trkpt lat="41.3702603" lon="1.7289215"><ele>247.0</ele><time>2026-04-19T12:22:36.031Z</time></trkpt><trkpt lat="41.3704788" lon="1.7291573"><ele>247.5</ele><time>2026-04-19T12:22:37.031Z</time></trkpt><trkpt lat="41.3706933" lon="1.7294018"><ele>248.0</ele><time>2026-04-19T12:22:38.031Z</time></trkpt><trkpt lat="41.3709007" lon="1.7296515"><ele>248.0</ele><time>2026-04-19T12:22:39.029Z</time></trkpt><trkpt lat="41.3711037" lon="1.7299095"><ele>248.0</ele><time>2026-04-19T12:22:40.03Z</time></trkpt><trkpt lat="41.3712989" lon="1.7301763"><ele>249.5</ele><time>2026-04-19T12:22:41.03Z</time></trkpt><trkpt lat="41.3714904" lon="1.7304464"><ele>251.0</ele><time>2026-04-19T12:22:42.03Z</time></trkpt><trkpt lat="41.3716722" lon="1.7307281"><ele>251.0</ele><time>2026-04-19T12:22:43.031Z</time></trkpt><trkpt lat="41.371855" lon="1.7310109"><ele>251.0</ele><time>2026-04-19T12:22:44.032Z</time></trkpt><trkpt lat="41.3720378" lon="1.7312915"><ele>250.5</ele><time>2026-04-19T12:22:45.031Z</time></trkpt><trkpt lat="41.3722212" lon="1.731576"><ele>250.0</ele><time>2026-04-19T12:22:46.031Z</time></trkpt><trkpt lat="41.3724026" lon="1.7318558"><ele>250.0</ele><time>2026-04-19T12:22:47.031Z</time></trkpt><trkpt lat="41.37259" lon="1.7321353"><ele>250.0</ele><time>2026-04-19T12:22:48.031Z</time></trkpt><trkpt lat="41.3727809" lon="1.7324143"><ele>250.0</ele><time>2026-04-19T12:22:49.03Z</time></trkpt><trkpt lat="41.3729813" lon="1.73269"><ele>250.0</ele><time>2026-04-19T12:22:50.031Z</time></trkpt><trkpt lat="41.3731892" lon="1.7329586"><ele>250.5</ele><time>2026-04-19T12:22:51.031Z</time></trkpt><trkpt lat="41.3733984" lon="1.7332202"><ele>251.0</ele><time>2026-04-19T12:22:52.03Z</time></trkpt><trkpt lat="41.3736113" lon="1.733475"><ele>252.0</ele><time>2026-04-19T12:22:53.031Z</time></trkpt><trkpt lat="41.3738257" lon="1.7337161"><ele>253.0</ele><time>2026-04-19T12:22:54.031Z</time></trkpt><trkpt lat="41.3740437" lon="1.7339531"><ele>253.0</ele><time>2026-04-19T12:22:55.03Z</time></trkpt><trkpt lat="41.3742672" lon="1.7341811"><ele>253.0</ele><time>2026-04-19T12:22:56.031Z</time></trkpt><trkpt lat="41.3744924" lon="1.7344012"><ele>252.5</ele><time>2026-04-19T12:22:57.031Z</time></trkpt><trkpt lat="41.3747248" lon="1.7346127"><ele>252.0</ele><time>2026-04-19T12:22:58.031Z</time></trkpt><trkpt lat="41.3749634" lon="1.7348148"><ele>252.0</ele><time>2026-04-19T12:22:59.035Z</time></trkpt><trkpt lat="41.3752089" lon="1.7350099"><ele>252.0</ele><time>2026-04-19T12:23:00.03Z</time></trkpt><trkpt lat="41.3754594" lon="1.7352021"><ele>251.0</ele><time>2026-04-19T12:23:01.03Z</time></trkpt><trkpt lat="41.3757166" lon="1.7353818"><ele>250.0</ele><time>2026-04-19T12:23:02.031Z</time></trkpt><trkpt lat="41.375977" lon="1.7355611"><ele>250.0</ele><time>2026-04-19T12:23:03.031Z</time></trkpt><trkpt lat="41.3762449" lon="1.7357314"><ele>250.0</ele><time>2026-04-19T12:23:04.031Z</time></trkpt><trkpt lat="41.3765205" lon="1.7358925"><ele>249.0</ele><time>2026-04-19T12:23:05.032Z</time></trkpt><trkpt lat="41.3767992" lon="1.7360405"><ele>248.0</ele><time>2026-04-19T12:23:06.031Z</time></trkpt><trkpt lat="41.3770797" lon="1.7361822"><ele>248.5</ele><time>2026-04-19T12:23:07.03Z</time></trkpt><trkpt lat="41.3773689" lon="1.7363139"><ele>249.0</ele><time>2026-04-19T12:23:08.031Z</time></trkpt><trkpt lat="41.3776541" lon="1.7364377"><ele>249.0</ele><time>2026-04-19T12:23:09.029Z</time></trkpt><trkpt lat="41.377941" lon="1.7365613"><ele>249.0</ele><time>2026-04-19T12:23:10.03Z</time></trkpt><trkpt lat="41.3782305" lon="1.736679"><ele>247.0</ele><time>2026-04-19T12:23:11.031Z</time></trkpt><trkpt lat="41.3785211" lon="1.7368034"><ele>245.0</ele><time>2026-04-19T12:23:12.03Z</time></trkpt><trkpt lat="41.3788096" lon="1.7369327"><ele>242.5</ele><time>2026-04-19T12:23:13.03Z</time></trkpt><trkpt lat="41.3790967" lon="1.737064"><ele>240.0</ele><time>2026-04-19T12:23:14.03Z</time></trkpt><trkpt lat="41.3793809" lon="1.7372013"><ele>240.0</ele><time>2026-04-19T12:23:15.031Z</time></trkpt><trkpt lat="41.3796651" lon="1.7373367"><ele>240.0</ele><time>2026-04-19T12:23:16.031Z</time></trkpt><trkpt lat="41.3799456" lon="1.7374849"><ele>238.0</ele><time>2026-04-19T12:23:17.031Z</time></trkpt><trkpt lat="41.3802195" lon="1.7376374"><ele>236.0</ele><time>2026-04-19T12:23:18.03Z</time></trkpt><trkpt lat="41.3804903" lon="1.7378009"><ele>234.5</ele><time>2026-04-19T12:23:19.03Z</time></trkpt><trkpt lat="41.3807577" lon="1.737975"><ele>233.0</ele><time>2026-04-19T12:23:20.03Z</time></trkpt><trkpt lat="41.3810173" lon="1.7381624"><ele>233.0</ele><time>2026-04-19T12:23:21.032Z</time></trkpt><trkpt lat="41.3812702" lon="1.7383567"><ele>233.0</ele><time>2026-04-19T12:23:22.031Z</time></trkpt><trkpt lat="41.3815159" lon="1.7385589"><ele>230.0</ele><time>2026-04-19T12:23:23.03Z</time></trkpt><trkpt lat="41.3817567" lon="1.7387721"><ele>227.0</ele><time>2026-04-19T12:23:24.03Z</time></trkpt><trkpt lat="41.3820007" lon="1.7389986"><ele>227.5</ele><time>2026-04-19T12:23:25.032Z</time></trkpt><trkpt lat="41.3822403" lon="1.7392323"><ele>228.0</ele><time>2026-04-19T12:23:26.031Z</time></trkpt><trkpt lat="41.3824727" lon="1.7394762"><ele>228.0</ele><time>2026-04-19T12:23:27.03Z</time></trkpt><trkpt lat="41.3827028" lon="1.7397328"><ele>228.0</ele><time>2026-04-19T12:23:28.032Z</time></trkpt><trkpt lat="41.382929" lon="1.7399977"><ele>226.5</ele><time>2026-04-19T12:23:29.03Z</time></trkpt><trkpt lat="41.3831488" lon="1.7402697"><ele>225.0</ele><time>2026-04-19T12:23:30.03Z</time></trkpt><trkpt lat="41.3833642" lon="1.7405509"><ele>225.0</ele><time>2026-04-19T12:23:31.031Z</time></trkpt><trkpt lat="41.3835734" lon="1.7408408"><ele>225.0</ele><time>2026-04-19T12:23:32.031Z</time></trkpt><trkpt lat="41.3837739" lon="1.7411466"><ele>223.0</ele><time>2026-04-19T12:23:33.032Z</time></trkpt><trkpt lat="41.3839658" lon="1.7414557"><ele>221.0</ele><time>2026-04-19T12:23:34.03Z</time></trkpt><trkpt lat="41.3841528" lon="1.7417727"><ele>219.5</ele><time>2026-04-19T12:23:35.031Z</time></trkpt><trkpt lat="41.3843361" lon="1.742093"><ele>218.0</ele><time>2026-04-19T12:23:36.031Z</time></trkpt><trkpt lat="41.3845144" lon="1.742423"><ele>218.0</ele><time>2026-04-19T12:23:37.03Z</time></trkpt><trkpt lat="41.3846841" lon="1.7427563"><ele>218.0</ele><time>2026-04-19T12:23:38.031Z</time></trkpt><trkpt lat="41.3848472" lon="1.7430936"><ele>218.0</ele><time>2026-04-19T12:23:39.032Z</time></trkpt><trkpt lat="41.3850067" lon="1.7434377"><ele>218.0</ele><time>2026-04-19T12:23:40.032Z</time></trkpt><trkpt lat="41.3851489" lon="1.7437866"><ele>218.0</ele><time>2026-04-19T12:23:41.031Z</time></trkpt><trkpt lat="41.3852847" lon="1.744137"><ele>218.0</ele><time>2026-04-19T12:23:42.031Z</time></trkpt><trkpt lat="41.3854133" lon="1.7444921"><ele>218.0</ele><time>2026-04-19T12:23:43.031Z</time></trkpt><trkpt lat="41.3855331" lon="1.7448464"><ele>218.0</ele><time>2026-04-19T12:23:44.03Z</time></trkpt><trkpt lat="41.3856465" lon="1.7452056"><ele>217.0</ele><time>2026-04-19T12:23:45.031Z</time></trkpt><trkpt lat="41.3857477" lon="1.7455647"><ele>216.0</ele><time>2026-04-19T12:23:46.031Z</time></trkpt><trkpt lat="41.3858462" lon="1.7459269"><ele>216.0</ele><time>2026-04-19T12:23:47.031Z</time></trkpt><trkpt lat="41.3859371" lon="1.7463017"><ele>216.0</ele><time>2026-04-19T12:23:48.031Z</time></trkpt><trkpt lat="41.3860207" lon="1.7466754"><ele>215.5</ele><time>2026-04-19T12:23:49.031Z</time></trkpt><trkpt lat="41.3861002" lon="1.7470524"><ele>215.0</ele><time>2026-04-19T12:23:50.032Z</time></trkpt><trkpt lat="41.3861712" lon="1.7474332"><ele>214.0</ele><time>2026-04-19T12:23:51.031Z</time></trkpt><trkpt lat="41.3862346" lon="1.7478177"><ele>213.0</ele><time>2026-04-19T12:23:52.031Z</time></trkpt><trkpt lat="41.386285" lon="1.7482034"><ele>213.0</ele><time>2026-04-19T12:23:53.032Z</time></trkpt><trkpt lat="41.3863276" lon="1.7485983"><ele>213.0</ele><time>2026-04-19T12:23:54.03Z</time></trkpt><trkpt lat="41.3863603" lon="1.7489903"><ele>211.5</ele><time>2026-04-19T12:23:55.029Z</time></trkpt><trkpt lat="41.386388" lon="1.7493794"><ele>210.0</ele><time>2026-04-19T12:23:56.032Z</time></trkpt><trkpt lat="41.3864057" lon="1.7497703"><ele>210.0</ele><time>2026-04-19T12:23:57.031Z</time></trkpt><trkpt lat="41.3864229" lon="1.7501613"><ele>210.0</ele><time>2026-04-19T12:23:58.032Z</time></trkpt><trkpt lat="41.3864433" lon="1.7505488"><ele>208.0</ele><time>2026-04-19T12:23:59.03Z</time></trkpt><trkpt lat="41.3864686" lon="1.7509376"><ele>206.0</ele><time>2026-04-19T12:24:00.03Z</time></trkpt><trkpt lat="41.386498" lon="1.7513259"><ele>206.0</ele><time>2026-04-19T12:24:01.03Z</time></trkpt><trkpt lat="41.3865264" lon="1.7517118"><ele>206.0</ele><time>2026-04-19T12:24:02.03Z</time></trkpt><trkpt lat="41.3865576" lon="1.7520975"><ele>205.5</ele><time>2026-04-19T12:24:03.032Z</time></trkpt><trkpt lat="41.3865961" lon="1.7524841"><ele>205.0</ele><time>2026-04-19T12:24:04.031Z</time></trkpt><trkpt lat="41.3866457" lon="1.7528695"><ele>205.0</ele><time>2026-04-19T12:24:05.03Z</time></trkpt><trkpt lat="41.386704" lon="1.7532506"><ele>205.0</ele><time>2026-04-19T12:24:06.031Z</time></trkpt><trkpt lat="41.3867681" lon="1.7536365"><ele>205.5</ele><time>2026-04-19T12:24:07.031Z</time></trkpt><trkpt lat="41.3868374" lon="1.7540236"><ele>206.0</ele><time>2026-04-19T12:24:08.031Z</time></trkpt><trkpt lat="41.3869194" lon="1.7544059"><ele>206.0</ele><time>2026-04-19T12:24:09.031Z</time></trkpt><trkpt lat="41.3870019" lon="1.7547877"><ele>206.0</ele><time>2026-04-19T12:24:10.031Z</time></trkpt><trkpt lat="41.3870891" lon="1.7551646"><ele>201.5</ele><time>2026-04-19T12:24:11.031Z</time></trkpt><trkpt lat="41.3871835" lon="1.7555327"><ele>197.0</ele><time>2026-04-19T12:24:12.03Z</time></trkpt><trkpt lat="41.3872851" lon="1.7558985"><ele>197.0</ele><time>2026-04-19T12:24:13.031Z</time></trkpt><trkpt lat="41.387401" lon="1.75625"><ele>197.0</ele><time>2026-04-19T12:24:14.032Z</time></trkpt><trkpt lat="41.3875221" lon="1.756598"><ele>195.0</ele><time>2026-04-19T12:24:15.031Z</time></trkpt><trkpt lat="41.3876519" lon="1.7569399"><ele>193.0</ele><time>2026-04-19T12:24:16.031Z</time></trkpt><trkpt lat="41.3877862" lon="1.757278"><ele>193.0</ele><time>2026-04-19T12:24:17.031Z</time></trkpt><trkpt lat="41.3879274" lon="1.7576159"><ele>193.0</ele><time>2026-04-19T12:24:18.031Z</time></trkpt><trkpt lat="41.3880785" lon="1.7579491"><ele>193.0</ele><time>2026-04-19T12:24:19.031Z</time></trkpt><trkpt lat="41.3882421" lon="1.7582721"><ele>193.0</ele><time>2026-04-19T12:24:20.031Z</time></trkpt><trkpt lat="41.3884132" lon="1.7585891"><ele>193.0</ele><time>2026-04-19T12:24:21.034Z</time></trkpt><trkpt lat="41.3885905" lon="1.7588989"><ele>193.0</ele><time>2026-04-19T12:24:22.03Z</time></trkpt><trkpt lat="41.3887738" lon="1.7592035"><ele>197.0</ele><time>2026-04-19T12:24:23.03Z</time></trkpt><trkpt lat="41.3889609" lon="1.7595046"><ele>201.0</ele><time>2026-04-19T12:24:24.031Z</time></trkpt><trkpt lat="41.3891499" lon="1.7598039"><ele>201.0</ele><time>2026-04-19T12:24:25.031Z</time></trkpt><trkpt lat="41.389345" lon="1.7600994"><ele>201.0</ele><time>2026-04-19T12:24:26.031Z</time></trkpt><trkpt lat="41.3895489" lon="1.7603862"><ele>201.0</ele><time>2026-04-19T12:24:27.031Z</time></trkpt><trkpt lat="41.3897568" lon="1.7606665"><ele>201.0</ele><time>2026-04-19T12:24:28.032Z</time></trkpt><trkpt lat="41.389975" lon="1.7609371"><ele>203.5</ele><time>2026-04-19T12:24:29.031Z</time></trkpt><trkpt lat="41.3901891" lon="1.7612111"><ele>206.0</ele><time>2026-04-19T12:24:30.032Z</time></trkpt><trkpt lat="41.3904067" lon="1.761485"><ele>205.0</ele><time>2026-04-19T12:24:31.031Z</time></trkpt><trkpt lat="41.3906262" lon="1.7617586"><ele>204.0</ele><time>2026-04-19T12:24:32.031Z</time></trkpt><trkpt lat="41.3908487" lon="1.7620259"><ele>204.0</ele><time>2026-04-19T12:24:33.03Z</time></trkpt><trkpt lat="41.3910717" lon="1.7622944"><ele>204.0</ele><time>2026-04-19T12:24:34.031Z</time></trkpt><trkpt lat="41.3912929" lon="1.7625629"><ele>200.5</ele><time>2026-04-19T12:24:35.031Z</time></trkpt><trkpt lat="41.3915129" lon="1.7628339"><ele>197.0</ele><time>2026-04-19T12:24:36.03Z</time></trkpt><trkpt lat="41.3917293" lon="1.7631084"><ele>197.0</ele><time>2026-04-19T12:24:37.031Z</time></trkpt><trkpt lat="41.3919404" lon="1.7633833"><ele>197.0</ele><time>2026-04-19T12:24:38.03Z</time></trkpt><trkpt lat="41.3921481" lon="1.7636648"><ele>199.5</ele><time>2026-04-19T12:24:39.029Z</time></trkpt><trkpt lat="41.3923473" lon="1.7639522"><ele>202.0</ele><time>2026-04-19T12:24:40.03Z</time></trkpt><trkpt lat="41.3925398" lon="1.7642451"><ele>204.0</ele><time>2026-04-19T12:24:41.031Z</time></trkpt><trkpt lat="41.3927385" lon="1.7645531"><ele>206.0</ele><time>2026-04-19T12:24:42.031Z</time></trkpt><trkpt lat="41.39292" lon="1.7648618"><ele>203.0</ele><time>2026-04-19T12:24:43.031Z</time></trkpt><trkpt lat="41.3931013" lon="1.7651715"><ele>200.0</ele><time>2026-04-19T12:24:44.03Z</time></trkpt><trkpt lat="41.3932763" lon="1.7654913"><ele>199.0</ele><time>2026-04-19T12:24:45.03Z</time></trkpt><trkpt lat="41.3934497" lon="1.765818"><ele>198.0</ele><time>2026-04-19T12:24:46.031Z</time></trkpt><trkpt lat="41.3936203" lon="1.7661514"><ele>197.0</ele><time>2026-04-19T12:24:47.031Z</time></trkpt><trkpt lat="41.393786" lon="1.7664878"><ele>196.0</ele><time>2026-04-19T12:24:48.031Z</time></trkpt><trkpt lat="41.3939462" lon="1.7668309"><ele>194.0</ele><time>2026-04-19T12:24:49.032Z</time></trkpt><trkpt lat="41.3941048" lon="1.7671809"><ele>192.0</ele><time>2026-04-19T12:24:50.03Z</time></trkpt><trkpt lat="41.3942504" lon="1.7675443"><ele>193.0</ele><time>2026-04-19T12:24:51.031Z</time></trkpt><trkpt lat="41.3943926" lon="1.7679104"><ele>194.0</ele><time>2026-04-19T12:24:52.031Z</time></trkpt><trkpt lat="41.3945264" lon="1.7682808"><ele>194.5</ele><time>2026-04-19T12:24:53.032Z</time></trkpt><trkpt lat="41.3946522" lon="1.7686456"><ele>195.0</ele><time>2026-04-19T12:24:54.031Z</time></trkpt><trkpt lat="41.3947746" lon="1.7690147"><ele>192.0</ele><time>2026-04-19T12:24:55.031Z</time></trkpt><trkpt lat="41.3948939" lon="1.7693799"><ele>189.0</ele><time>2026-04-19T12:24:56.031Z</time></trkpt><trkpt lat="41.3950144" lon="1.7697503"><ele>189.0</ele><time>2026-04-19T12:24:57.03Z</time></trkpt><trkpt lat="41.3951419" lon="1.7701142"><ele>189.0</ele><time>2026-04-19T12:24:58.031Z</time></trkpt><trkpt lat="41.3952746" lon="1.7704751"><ele>189.0</ele><time>2026-04-19T12:24:59.03Z</time></trkpt><trkpt lat="41.3954097" lon="1.7708325"><ele>189.0</ele><time>2026-04-19T12:25:00.031Z</time></trkpt><trkpt lat="41.3955462" lon="1.7711884"><ele>186.5</ele><time>2026-04-19T12:25:01.03Z</time></trkpt><trkpt lat="41.3956913" lon="1.7715376"><ele>184.0</ele><time>2026-04-19T12:25:02.03Z</time></trkpt><trkpt lat="41.3958428" lon="1.7718814"><ele>184.0</ele><time>2026-04-19T12:25:03.03Z</time></trkpt><trkpt lat="41.3960019" lon="1.7722179"><ele>184.0</ele><time>2026-04-19T12:25:04.031Z</time></trkpt><trkpt lat="41.3961659" lon="1.7725533"><ele>183.5</ele><time>2026-04-19T12:25:05.031Z</time></trkpt><trkpt lat="41.3963354" lon="1.7728851"><ele>183.0</ele><time>2026-04-19T12:25:06.031Z</time></trkpt><trkpt lat="41.3965106" lon="1.7732073"><ele>185.5</ele><time>2026-04-19T12:25:07.031Z</time></trkpt><trkpt lat="41.3966886" lon="1.7735234"><ele>188.0</ele><time>2026-04-19T12:25:08.03Z</time></trkpt><trkpt lat="41.3968775" lon="1.7738303"><ele>188.0</ele><time>2026-04-19T12:25:09.03Z</time></trkpt><trkpt lat="41.3970723" lon="1.7741359"><ele>188.0</ele><time>2026-04-19T12:25:10.03Z</time></trkpt><trkpt lat="41.3972732" lon="1.7744352"><ele>185.5</ele><time>2026-04-19T12:25:11.029Z</time></trkpt><trkpt lat="41.3974805" lon="1.7747252"><ele>183.0</ele><time>2026-04-19T12:25:12.029Z</time></trkpt><trkpt lat="41.3976973" lon="1.7750045"><ele>183.5</ele><time>2026-04-19T12:25:13.03Z</time></trkpt><trkpt lat="41.3979193" lon="1.7752831"><ele>184.0</ele><time>2026-04-19T12:25:14.03Z</time></trkpt><trkpt lat="41.3981465" lon="1.775552"><ele>184.0</ele><time>2026-04-19T12:25:15.03Z</time></trkpt><trkpt lat="41.3983792" lon="1.7758109"><ele>184.0</ele><time>2026-04-19T12:25:16.031Z</time></trkpt><trkpt lat="41.3986148" lon="1.776059"><ele>181.5</ele><time>2026-04-19T12:25:17.03Z</time></trkpt><trkpt lat="41.3988538" lon="1.7762935"><ele>179.0</ele><time>2026-04-19T12:25:18.031Z</time></trkpt><trkpt lat="41.3990975" lon="1.7765223"><ele>179.0</ele><time>2026-04-19T12:25:19.03Z</time></trkpt><trkpt lat="41.3993455" lon="1.776745"><ele>179.0</ele><time>2026-04-19T12:25:20.029Z</time></trkpt><trkpt lat="41.3995977" lon="1.7769559"><ele>179.0</ele><time>2026-04-19T12:25:21.031Z</time></trkpt><trkpt lat="41.3998523" lon="1.7771569"><ele>179.0</ele><time>2026-04-19T12:25:22.03Z</time></trkpt><trkpt lat="41.4001099" lon="1.7773468"><ele>179.0</ele><time>2026-04-19T12:25:23.03Z</time></trkpt><trkpt lat="41.4003712" lon="1.7775266"><ele>179.0</ele><time>2026-04-19T12:25:24.03Z</time></trkpt><trkpt lat="41.400637" lon="1.7776994"><ele>185.5</ele><time>2026-04-19T12:25:25.029Z</time></trkpt><trkpt lat="41.4009071" lon="1.7778596"><ele>192.0</ele><time>2026-04-19T12:25:26.032Z</time></trkpt><trkpt lat="41.4011794" lon="1.7780134"><ele>190.0</ele><time>2026-04-19T12:25:27.029Z</time></trkpt><trkpt lat="41.401455" lon="1.7781571"><ele>188.0</ele><time>2026-04-19T12:25:28.03Z</time></trkpt><trkpt lat="41.4017336" lon="1.7782891"><ele>188.0</ele><time>2026-04-19T12:25:29.03Z</time></trkpt><trkpt lat="41.4020137" lon="1.7784113"><ele>188.0</ele><time>2026-04-19T12:25:30.03Z</time></trkpt><trkpt lat="41.4022953" lon="1.7785192"><ele>188.0</ele><time>2026-04-19T12:25:31.03Z</time></trkpt><trkpt lat="41.4025785" lon="1.7786179"><ele>188.0</ele><time>2026-04-19T12:25:32.031Z</time></trkpt><trkpt lat="41.4028605" lon="1.778706"><ele>187.5</ele><time>2026-04-19T12:25:33.03Z</time></trkpt><trkpt lat="41.4031442" lon="1.7787856"><ele>187.0</ele><time>2026-04-19T12:25:34.03Z</time></trkpt><trkpt lat="41.4034271" lon="1.7788624"><ele>187.0</ele><time>2026-04-19T12:25:35.031Z</time></trkpt><trkpt lat="41.4037121" lon="1.7789309"><ele>187.0</ele><time>2026-04-19T12:25:36.03Z</time></trkpt><trkpt lat="41.4039959" lon="1.7789988"><ele>186.0</ele><time>2026-04-19T12:25:37.03Z</time></trkpt><trkpt lat="41.4042824" lon="1.7790642"><ele>185.0</ele><time>2026-04-19T12:25:38.031Z</time></trkpt><trkpt lat="41.4045692" lon="1.7791199"><ele>183.0</ele><time>2026-04-19T12:25:39.03Z</time></trkpt><trkpt lat="41.4048542" lon="1.77918"><ele>181.0</ele><time>2026-04-19T12:25:40.03Z</time></trkpt><trkpt lat="41.4051385" lon="1.7792441"><ele>181.0</ele><time>2026-04-19T12:25:41.031Z</time></trkpt><trkpt lat="41.4054218" lon="1.7793113"><ele>181.0</ele><time>2026-04-19T12:25:42.031Z</time></trkpt><trkpt lat="41.4057055" lon="1.7793823"><ele>181.0</ele><time>2026-04-19T12:25:43.03Z</time></trkpt><trkpt lat="41.4059871" lon="1.7794626"><ele>181.0</ele><time>2026-04-19T12:25:44.029Z</time></trkpt><trkpt lat="41.406264" lon="1.7795483"><ele>183.0</ele><time>2026-04-19T12:25:45.031Z</time></trkpt><trkpt lat="41.406542" lon="1.779652"><ele>185.0</ele><time>2026-04-19T12:25:46.03Z</time></trkpt><trkpt lat="41.4068218" lon="1.7797665"><ele>185.0</ele><time>2026-04-19T12:25:47.03Z</time></trkpt><trkpt lat="41.4071005" lon="1.779886"><ele>185.0</ele><time>2026-04-19T12:25:48.03Z</time></trkpt><trkpt lat="41.4073763" lon="1.7800131"><ele>185.0</ele><time>2026-04-19T12:25:49.031Z</time></trkpt><trkpt lat="41.4076502" lon="1.7801492"><ele>185.0</ele><time>2026-04-19T12:25:50.031Z</time></trkpt><trkpt lat="41.4079201" lon="1.7802996"><ele>187.5</ele><time>2026-04-19T12:25:51.029Z</time></trkpt><trkpt lat="41.408188" lon="1.7804602"><ele>190.0</ele><time>2026-04-19T12:25:52.03Z</time></trkpt><trkpt lat="41.4084548" lon="1.7806267"><ele>190.0</ele><time>2026-04-19T12:25:53.031Z</time></trkpt><trkpt lat="41.4087143" lon="1.7808058"><ele>190.0</ele><time>2026-04-19T12:25:54.03Z</time></trkpt><trkpt lat="41.4089713" lon="1.7809996"><ele>191.5</ele><time>2026-04-19T12:25:55.029Z</time></trkpt><trkpt lat="41.4092276" lon="1.7811998"><ele>193.0</ele><time>2026-04-19T12:25:56.03Z</time></trkpt><trkpt lat="41.409484" lon="1.7814168"><ele>189.5</ele><time>2026-04-19T12:25:57.029Z</time></trkpt><trkpt lat="41.4097338" lon="1.7816359"><ele>186.0</ele><time>2026-04-19T12:25:58.031Z</time></trkpt><trkpt lat="41.4099811" lon="1.7818691"><ele>186.0</ele><time>2026-04-19T12:25:59.032Z</time></trkpt><trkpt lat="41.4102222" lon="1.7821128"><ele>186.0</ele><time>2026-04-19T12:26:00.028Z</time></trkpt><trkpt lat="41.4104581" lon="1.782361"><ele>183.0</ele><time>2026-04-19T12:26:01.03Z</time></trkpt><trkpt lat="41.4106862" lon="1.7826185"><ele>180.0</ele><time>2026-04-19T12:26:02.031Z</time></trkpt><trkpt lat="41.410905" lon="1.7828911"><ele>180.0</ele><time>2026-04-19T12:26:03.031Z</time></trkpt><trkpt lat="41.4111216" lon="1.7831724"><ele>180.0</ele><time>2026-04-19T12:26:04.03Z</time></trkpt><trkpt lat="41.4113301" lon="1.7834601"><ele>178.0</ele><time>2026-04-19T12:26:05.03Z</time></trkpt><trkpt lat="41.4115385" lon="1.7837561"><ele>176.0</ele><time>2026-04-19T12:26:06.031Z</time></trkpt><trkpt lat="41.4117399" lon="1.7840594"><ele>178.0</ele><time>2026-04-19T12:26:07.03Z</time></trkpt><trkpt lat="41.4119376" lon="1.784372"><ele>180.0</ele><time>2026-04-19T12:26:08.029Z</time></trkpt><trkpt lat="41.4121271" lon="1.7846922"><ele>181.5</ele><time>2026-04-19T12:26:09.03Z</time></trkpt><trkpt lat="41.4123072" lon="1.7850175"><ele>183.0</ele><time>2026-04-19T12:26:10.029Z</time></trkpt><trkpt lat="41.4124866" lon="1.7853457"><ele>183.0</ele><time>2026-04-19T12:26:11.031Z</time></trkpt><trkpt lat="41.4126573" lon="1.7856827"><ele>183.0</ele><time>2026-04-19T12:26:12.031Z</time></trkpt><trkpt lat="41.4128233" lon="1.7860201"><ele>178.0</ele><time>2026-04-19T12:26:13.03Z</time></trkpt><trkpt lat="41.4129919" lon="1.7863514"><ele>173.0</ele><time>2026-04-19T12:26:14.031Z</time></trkpt><trkpt lat="41.4131618" lon="1.7866863"><ele>172.5</ele><time>2026-04-19T12:26:15.03Z</time></trkpt><trkpt lat="41.4133371" lon="1.7870153"><ele>172.0</ele><time>2026-04-19T12:26:16.029Z</time></trkpt><trkpt lat="41.4135143" lon="1.7873437"><ele>172.0</ele><time>2026-04-19T12:26:17.029Z</time></trkpt><trkpt lat="41.4136939" lon="1.7876683"><ele>172.0</ele><time>2026-04-19T12:26:18.03Z</time></trkpt><trkpt lat="41.413879" lon="1.7879858"><ele>172.5</ele><time>2026-04-19T12:26:19.031Z</time></trkpt><trkpt lat="41.41406" lon="1.7882917"><ele>173.0</ele><time>2026-04-19T12:26:20.031Z</time></trkpt><trkpt lat="41.4142754" lon="1.7885735"><ele>171.0</ele><time>2026-04-19T12:26:21.03Z</time></trkpt><trkpt lat="41.4144915" lon="1.7888559"><ele>169.0</ele><time>2026-04-19T12:26:22.03Z</time></trkpt><trkpt lat="41.4147089" lon="1.7891326"><ele>170.0</ele><time>2026-04-19T12:26:23.03Z</time></trkpt><trkpt lat="41.4149262" lon="1.7894093"><ele>171.0</ele><time>2026-04-19T12:26:24.029Z</time></trkpt><trkpt lat="41.4151428" lon="1.7896843"><ele>171.0</ele><time>2026-04-19T12:26:25.029Z</time></trkpt><trkpt lat="41.4153644" lon="1.7899554"><ele>171.0</ele><time>2026-04-19T12:26:26.03Z</time></trkpt><trkpt lat="41.4155861" lon="1.7902225"><ele>170.5</ele><time>2026-04-19T12:26:27.03Z</time></trkpt><trkpt lat="41.4158062" lon="1.7904885"><ele>170.0</ele><time>2026-04-19T12:26:28.03Z</time></trkpt><trkpt lat="41.4160254" lon="1.7907508"><ele>169.5</ele><time>2026-04-19T12:26:29.029Z</time></trkpt><trkpt lat="41.4162411" lon="1.791014"><ele>169.0</ele><time>2026-04-19T12:26:30.03Z</time></trkpt><trkpt lat="41.4164475" lon="1.7912855"><ele>169.0</ele><time>2026-04-19T12:26:31.03Z</time></trkpt><trkpt lat="41.4166466" lon="1.7915612"><ele>169.0</ele><time>2026-04-19T12:26:32.03Z</time></trkpt><trkpt lat="41.4168378" lon="1.7918465"><ele>169.0</ele><time>2026-04-19T12:26:33.031Z</time></trkpt><trkpt lat="41.4170244" lon="1.7921326"><ele>169.0</ele><time>2026-04-19T12:26:34.029Z</time></trkpt><trkpt lat="41.4172041" lon="1.7924292"><ele>172.5</ele><time>2026-04-19T12:26:35.029Z</time></trkpt><trkpt lat="41.4173796" lon="1.7927261"><ele>176.0</ele><time>2026-04-19T12:26:36.03Z</time></trkpt><trkpt lat="41.4175503" lon="1.7930298"><ele>176.0</ele><time>2026-04-19T12:26:37.03Z</time></trkpt><trkpt lat="41.4177175" lon="1.7933478"><ele>176.0</ele><time>2026-04-19T12:26:38.031Z</time></trkpt><trkpt lat="41.4178774" lon="1.7936718"><ele>176.0</ele><time>2026-04-19T12:26:39.03Z</time></trkpt><trkpt lat="41.4180293" lon="1.7940007"><ele>176.0</ele><time>2026-04-19T12:26:40.029Z</time></trkpt><trkpt lat="41.4181763" lon="1.7943394"><ele>176.0</ele><time>2026-04-19T12:26:41.03Z</time></trkpt><trkpt lat="41.4183181" lon="1.7946816"><ele>176.0</ele><time>2026-04-19T12:26:42.03Z</time></trkpt><trkpt lat="41.4184514" lon="1.7950269"><ele>177.5</ele><time>2026-04-19T12:26:43.03Z</time></trkpt><trkpt lat="41.4185757" lon="1.7953755"><ele>179.0</ele><time>2026-04-19T12:26:44.03Z</time></trkpt><trkpt lat="41.4186894" lon="1.7957188"><ele>178.5</ele><time>2026-04-19T12:26:45.029Z</time></trkpt><trkpt lat="41.418797" lon="1.7960648"><ele>178.0</ele><time>2026-04-19T12:26:46.031Z</time></trkpt><trkpt lat="41.4188934" lon="1.7964113"><ele>178.0</ele><time>2026-04-19T12:26:47.03Z</time></trkpt><trkpt lat="41.4189854" lon="1.7967664"><ele>178.0</ele><time>2026-04-19T12:26:48.029Z</time></trkpt><trkpt lat="41.4190698" lon="1.7971239"><ele>178.0</ele><time>2026-04-19T12:26:49.031Z</time></trkpt><trkpt lat="41.4191507" lon="1.7974866"><ele>178.0</ele><time>2026-04-19T12:26:50.029Z</time></trkpt><trkpt lat="41.4192213" lon="1.797851"><ele>181.0</ele><time>2026-04-19T12:26:51.029Z</time></trkpt><trkpt lat="41.4192863" lon="1.7982196"><ele>184.0</ele><time>2026-04-19T12:26:52.029Z</time></trkpt><trkpt lat="41.4193461" lon="1.7985895"><ele>184.0</ele><time>2026-04-19T12:26:53.032Z</time></trkpt><trkpt lat="41.4194007" lon="1.798966"><ele>184.0</ele><time>2026-04-19T12:26:54.029Z</time></trkpt><trkpt lat="41.4194483" lon="1.7993441"><ele>181.0</ele><time>2026-04-19T12:26:55.03Z</time></trkpt><trkpt lat="41.4194893" lon="1.7997307"><ele>178.0</ele><time>2026-04-19T12:26:56.031Z</time></trkpt><trkpt lat="41.4195264" lon="1.8001238"><ele>178.0</ele><time>2026-04-19T12:26:57.029Z</time></trkpt><trkpt lat="41.4195581" lon="1.800517"><ele>178.0</ele><time>2026-04-19T12:26:58.03Z</time></trkpt><trkpt lat="41.4195884" lon="1.8009121"><ele>181.0</ele><time>2026-04-19T12:26:59.03Z</time></trkpt><trkpt lat="41.4196164" lon="1.8013065"><ele>184.0</ele><time>2026-04-19T12:27:00.03Z</time></trkpt><trkpt lat="41.4196391" lon="1.8017121"><ele>176.0</ele><time>2026-04-19T12:27:01.029Z</time></trkpt><trkpt lat="41.4196614" lon="1.8021132"><ele>168.0</ele><time>2026-04-19T12:27:02.029Z</time></trkpt><trkpt lat="41.4196814" lon="1.8025125"><ele>167.0</ele><time>2026-04-19T12:27:03.03Z</time></trkpt><trkpt lat="41.4197062" lon="1.8029107"><ele>166.0</ele><time>2026-04-19T12:27:04.03Z</time></trkpt><trkpt lat="41.4197369" lon="1.8033019"><ele>167.0</ele><time>2026-04-19T12:27:05.03Z</time></trkpt><trkpt lat="41.4197741" lon="1.8036892"><ele>168.0</ele><time>2026-04-19T12:27:06.03Z</time></trkpt><trkpt lat="41.4198174" lon="1.804068"><ele>168.0</ele><time>2026-04-19T12:27:07.03Z</time></trkpt><trkpt lat="41.4198603" lon="1.804455"><ele>168.0</ele><time>2026-04-19T12:27:08.028Z</time></trkpt><trkpt lat="41.419913" lon="1.8048492"><ele>167.5</ele><time>2026-04-19T12:27:09.029Z</time></trkpt><trkpt lat="41.4199652" lon="1.8052433"><ele>167.0</ele><time>2026-04-19T12:27:10.03Z</time></trkpt><trkpt lat="41.4200212" lon="1.8056343"><ele>167.5</ele><time>2026-04-19T12:27:11.03Z</time></trkpt><trkpt lat="41.4200842" lon="1.8060292"><ele>168.0</ele><time>2026-04-19T12:27:12.03Z</time></trkpt><trkpt lat="41.4201524" lon="1.8064261"><ele>168.0</ele><time>2026-04-19T12:27:13.029Z</time></trkpt><trkpt lat="41.4202249" lon="1.8068261"><ele>168.0</ele><time>2026-04-19T12:27:14.029Z</time></trkpt><trkpt lat="41.4203021" lon="1.8072173"><ele>167.0</ele><time>2026-04-19T12:27:15.031Z</time></trkpt><trkpt lat="41.4203813" lon="1.8075996"><ele>166.0</ele><time>2026-04-19T12:27:16.029Z</time></trkpt><trkpt lat="41.420465" lon="1.807979"><ele>164.0</ele><time>2026-04-19T12:27:17.031Z</time></trkpt><trkpt lat="41.420552" lon="1.8083523"><ele>162.0</ele><time>2026-04-19T12:27:18.03Z</time></trkpt><trkpt lat="41.4206395" lon="1.8087229"><ele>159.5</ele><time>2026-04-19T12:27:19.029Z</time></trkpt><trkpt lat="41.4207269" lon="1.8090873"><ele>157.0</ele><time>2026-04-19T12:27:20.031Z</time></trkpt><trkpt lat="41.4208126" lon="1.8094359"><ele>150.0</ele><time>2026-04-19T12:27:21.03Z</time></trkpt><trkpt lat="41.4209053" lon="1.80978"><ele>143.0</ele><time>2026-04-19T12:27:22.03Z</time></trkpt><trkpt lat="41.4209964" lon="1.810125"><ele>140.5</ele><time>2026-04-19T12:27:23.03Z</time></trkpt><trkpt lat="41.4210916" lon="1.8104717"><ele>138.0</ele><time>2026-04-19T12:27:24.03Z</time></trkpt><trkpt lat="41.4211862" lon="1.8108224"><ele>140.0</ele><time>2026-04-19T12:27:25.029Z</time></trkpt><trkpt lat="41.4212753" lon="1.8111767"><ele>142.0</ele><time>2026-04-19T12:27:26.03Z</time></trkpt><trkpt lat="41.4213586" lon="1.8115261"><ele>141.5</ele><time>2026-04-19T12:27:27.029Z</time></trkpt><trkpt lat="41.4214396" lon="1.8118777"><ele>141.0</ele><time>2026-04-19T12:27:28.03Z</time></trkpt><trkpt lat="41.421521" lon="1.8122291"><ele>141.0</ele><time>2026-04-19T12:27:29.03Z</time></trkpt><trkpt lat="41.4215993" lon="1.8125884"><ele>141.0</ele><time>2026-04-19T12:27:30.03Z</time></trkpt><trkpt lat="41.4216713" lon="1.8129504"><ele>144.0</ele><time>2026-04-19T12:27:31.03Z</time></trkpt><trkpt lat="41.4217395" lon="1.8133172"><ele>147.0</ele><time>2026-04-19T12:27:32.03Z</time></trkpt><trkpt lat="41.4218037" lon="1.8136874"><ele>147.0</ele><time>2026-04-19T12:27:33.03Z</time></trkpt><trkpt lat="41.4218678" lon="1.8140596"><ele>147.0</ele><time>2026-04-19T12:27:34.031Z</time></trkpt><trkpt lat="41.421927" lon="1.8144274"><ele>148.0</ele><time>2026-04-19T12:27:35.031Z</time></trkpt><trkpt lat="41.4219752" lon="1.8147893"><ele>149.0</ele><time>2026-04-19T12:27:36.03Z</time></trkpt><trkpt lat="41.4220243" lon="1.8151518"><ele>148.5</ele><time>2026-04-19T12:27:37.029Z</time></trkpt><trkpt lat="41.4220731" lon="1.8155194"><ele>148.0</ele><time>2026-04-19T12:27:38.03Z</time></trkpt><trkpt lat="41.4221166" lon="1.8158963"><ele>143.0</ele><time>2026-04-19T12:27:39.031Z</time></trkpt><trkpt lat="41.422161" lon="1.8162744"><ele>138.0</ele><time>2026-04-19T12:27:40.029Z</time></trkpt><trkpt lat="41.4222015" lon="1.8166507"><ele>136.0</ele><time>2026-04-19T12:27:41.03Z</time></trkpt><trkpt lat="41.4222395" lon="1.8170279"><ele>134.0</ele><time>2026-04-19T12:27:42.03Z</time></trkpt><trkpt lat="41.4222756" lon="1.8174043"><ele>133.0</ele><time>2026-04-19T12:27:43.029Z</time></trkpt><trkpt lat="41.4223176" lon="1.8177824"><ele>132.0</ele><time>2026-04-19T12:27:44.029Z</time></trkpt><trkpt lat="41.4223675" lon="1.8181804"><ele>134.0</ele><time>2026-04-19T12:27:45.03Z</time></trkpt><trkpt lat="41.4224144" lon="1.8185872"><ele>136.0</ele><time>2026-04-19T12:27:46.03Z</time></trkpt><trkpt lat="41.4224587" lon="1.8189986"><ele>138.5</ele><time>2026-04-19T12:27:47.03Z</time></trkpt><trkpt lat="41.4224989" lon="1.8194078"><ele>141.0</ele><time>2026-04-19T12:27:48.031Z</time></trkpt><trkpt lat="41.4225353" lon="1.8198205"><ele>141.0</ele><time>2026-04-19T12:27:49.031Z</time></trkpt><trkpt lat="41.4225769" lon="1.8202282"><ele>141.0</ele><time>2026-04-19T12:27:50.031Z</time></trkpt><trkpt lat="41.4226221" lon="1.8206307"><ele>140.0</ele><time>2026-04-19T12:27:51.03Z</time></trkpt><trkpt lat="41.422671" lon="1.8210325"><ele>139.0</ele><time>2026-04-19T12:27:52.029Z</time></trkpt><trkpt lat="41.4227183" lon="1.8214341"><ele>139.0</ele><time>2026-04-19T12:27:53.03Z</time></trkpt><trkpt lat="41.4227731" lon="1.8218397"><ele>139.0</ele><time>2026-04-19T12:27:54.03Z</time></trkpt><trkpt lat="41.4228306" lon="1.8222451"><ele>139.0</ele><time>2026-04-19T12:27:55.03Z</time></trkpt><trkpt lat="41.4228954" lon="1.8226456"><ele>139.0</ele><time>2026-04-19T12:27:56.029Z</time></trkpt><trkpt lat="41.4229625" lon="1.8230463"><ele>137.0</ele><time>2026-04-19T12:27:57.029Z</time></trkpt><trkpt lat="41.4230353" lon="1.8234407"><ele>135.0</ele><time>2026-04-19T12:27:58.03Z</time></trkpt><trkpt lat="41.4231114" lon="1.8238372"><ele>135.0</ele><time>2026-04-19T12:27:59.03Z</time></trkpt><trkpt lat="41.4231935" lon="1.8242352"><ele>135.0</ele><time>2026-04-19T12:28:00.029Z</time></trkpt><trkpt lat="41.4232795" lon="1.8246308"><ele>135.5</ele><time>2026-04-19T12:28:01.03Z</time></trkpt><trkpt lat="41.4233687" lon="1.8250283"><ele>136.0</ele><time>2026-04-19T12:28:02.029Z</time></trkpt><trkpt lat="41.423461" lon="1.8254204"><ele>138.0</ele><time>2026-04-19T12:28:03.031Z</time></trkpt><trkpt lat="41.4235563" lon="1.8258069"><ele>140.0</ele><time>2026-04-19T12:28:04.03Z</time></trkpt><trkpt lat="41.4236652" lon="1.8261978"><ele>138.5</ele><time>2026-04-19T12:28:05.029Z</time></trkpt><trkpt lat="41.4237818" lon="1.8265826"><ele>137.0</ele><time>2026-04-19T12:28:06.03Z</time></trkpt><trkpt lat="41.4238988" lon="1.8269611"><ele>137.0</ele><time>2026-04-19T12:28:07.031Z</time></trkpt><trkpt lat="41.4240196" lon="1.8273277"><ele>137.0</ele><time>2026-04-19T12:28:08.028Z</time></trkpt><trkpt lat="41.4241396" lon="1.8276927"><ele>139.5</ele><time>2026-04-19T12:28:09.03Z</time></trkpt><trkpt lat="41.4242694" lon="1.828054"><ele>142.0</ele><time>2026-04-19T12:28:10.03Z</time></trkpt><trkpt lat="41.4244054" lon="1.8284087"><ele>143.0</ele><time>2026-04-19T12:28:11.03Z</time></trkpt><trkpt lat="41.4245472" lon="1.8287612"><ele>144.0</ele><time>2026-04-19T12:28:12.03Z</time></trkpt><trkpt lat="41.4246928" lon="1.8291142"><ele>139.5</ele><time>2026-04-19T12:28:13.029Z</time></trkpt><trkpt lat="41.4248429" lon="1.829461"><ele>135.0</ele><time>2026-04-19T12:28:14.03Z</time></trkpt><trkpt lat="41.4249988" lon="1.8297987"><ele>135.0</ele><time>2026-04-19T12:28:15.029Z</time></trkpt><trkpt lat="41.4251723" lon="1.8301334"><ele>135.0</ele><time>2026-04-19T12:28:16.03Z</time></trkpt><trkpt lat="41.4253473" lon="1.8304633"><ele>134.5</ele><time>2026-04-19T12:28:17.031Z</time></trkpt><trkpt lat="41.4255284" lon="1.8307864"><ele>134.0</ele><time>2026-04-19T12:28:18.031Z</time></trkpt><trkpt lat="41.425707" lon="1.8311019"><ele>134.0</ele><time>2026-04-19T12:28:19.03Z</time></trkpt><trkpt lat="41.42589" lon="1.8314145"><ele>134.0</ele><time>2026-04-19T12:28:20.03Z</time></trkpt><trkpt lat="41.4260772" lon="1.8317217"><ele>132.0</ele><time>2026-04-19T12:28:21.03Z</time></trkpt><trkpt lat="41.4262659" lon="1.8320322"><ele>130.0</ele><time>2026-04-19T12:28:22.032Z</time></trkpt><trkpt lat="41.4264605" lon="1.8323309"><ele>130.0</ele><time>2026-04-19T12:28:23.029Z</time></trkpt><trkpt lat="41.4266603" lon="1.8326269"><ele>130.0</ele><time>2026-04-19T12:28:24.03Z</time></trkpt><trkpt lat="41.4268644" lon="1.8329348"><ele>131.5</ele><time>2026-04-19T12:28:25.03Z</time></trkpt><trkpt lat="41.4270811" lon="1.8332414"><ele>133.0</ele><time>2026-04-19T12:28:26.031Z</time></trkpt><trkpt lat="41.4272935" lon="1.8335495"><ele>133.0</ele><time>2026-04-19T12:28:27.031Z</time></trkpt><trkpt lat="41.4275131" lon="1.8338462"><ele>133.0</ele><time>2026-04-19T12:28:28.03Z</time></trkpt><trkpt lat="41.4277332" lon="1.8341459"><ele>131.5</ele><time>2026-04-19T12:28:29.029Z</time></trkpt><trkpt lat="41.427959" lon="1.8344411"><ele>130.0</ele><time>2026-04-19T12:28:30.031Z</time></trkpt><trkpt lat="41.4281815" lon="1.8347366"><ele>130.0</ele><time>2026-04-19T12:28:31.03Z</time></trkpt><trkpt lat="41.4284047" lon="1.8350288"><ele>130.0</ele><time>2026-04-19T12:28:32.029Z</time></trkpt><trkpt lat="41.4286277" lon="1.8353194"><ele>129.0</ele><time>2026-04-19T12:28:33.029Z</time></trkpt><trkpt lat="41.4288548" lon="1.8356048"><ele>128.0</ele><time>2026-04-19T12:28:34.03Z</time></trkpt><trkpt lat="41.4290826" lon="1.8358836"><ele>134.0</ele><time>2026-04-19T12:28:35.031Z</time></trkpt><trkpt lat="41.4293114" lon="1.8361604"><ele>140.0</ele><time>2026-04-19T12:28:36.031Z</time></trkpt><trkpt lat="41.429546" lon="1.8364421"><ele>137.5</ele><time>2026-04-19T12:28:37.029Z</time></trkpt><trkpt lat="41.4297816" lon="1.8367159"><ele>135.0</ele><time>2026-04-19T12:28:38.03Z</time></trkpt><trkpt lat="41.4300197" lon="1.836989"><ele>135.0</ele><time>2026-04-19T12:28:39.03Z</time></trkpt><trkpt lat="41.4302602" lon="1.8372615"><ele>135.0</ele><time>2026-04-19T12:28:40.03Z</time></trkpt><trkpt lat="41.4305087" lon="1.8375308"><ele>132.0</ele><time>2026-04-19T12:28:41.03Z</time></trkpt><trkpt lat="41.4307574" lon="1.8377923"><ele>129.0</ele><time>2026-04-19T12:28:42.031Z</time></trkpt><trkpt lat="41.4310108" lon="1.8380403"><ele>129.0</ele><time>2026-04-19T12:28:43.03Z</time></trkpt><trkpt lat="41.43127" lon="1.8382749"><ele>129.0</ele><time>2026-04-19T12:28:44.029Z</time></trkpt><trkpt lat="41.4315334" lon="1.8385048"><ele>126.5</ele><time>2026-04-19T12:28:45.031Z</time></trkpt><trkpt lat="41.431807" lon="1.8387234"><ele>124.0</ele><time>2026-04-19T12:28:46.03Z</time></trkpt><trkpt lat="41.4320842" lon="1.8389354"><ele>123.0</ele><time>2026-04-19T12:28:47.029Z</time></trkpt><trkpt lat="41.4323688" lon="1.8391312"><ele>122.0</ele><time>2026-04-19T12:28:48.03Z</time></trkpt><trkpt lat="41.4326565" lon="1.839312"><ele>124.0</ele><time>2026-04-19T12:28:49.03Z</time></trkpt><trkpt lat="41.4329442" lon="1.839481"><ele>126.0</ele><time>2026-04-19T12:28:50.03Z</time></trkpt><trkpt lat="41.4332353" lon="1.8396355"><ele>126.0</ele><time>2026-04-19T12:28:51.03Z</time></trkpt><trkpt lat="41.4335333" lon="1.839778"><ele>126.0</ele><time>2026-04-19T12:28:52.03Z</time></trkpt><trkpt lat="41.4338367" lon="1.8399092"><ele>120.5</ele><time>2026-04-19T12:28:53.034Z</time></trkpt><trkpt lat="41.4341387" lon="1.8400231"><ele>115.0</ele><time>2026-04-19T12:28:54.03Z</time></trkpt><trkpt lat="41.4344427" lon="1.8401225"><ele>114.5</ele><time>2026-04-19T12:28:55.03Z</time></trkpt><trkpt lat="41.434752" lon="1.8402125"><ele>114.0</ele><time>2026-04-19T12:28:56.029Z</time></trkpt><trkpt lat="41.4350595" lon="1.840298"><ele>114.0</ele><time>2026-04-19T12:28:57.029Z</time></trkpt><trkpt lat="41.4353662" lon="1.8403887"><ele>114.0</ele><time>2026-04-19T12:28:58.03Z</time></trkpt><trkpt lat="41.435669" lon="1.8404762"><ele>113.5</ele><time>2026-04-19T12:28:59.03Z</time></trkpt><trkpt lat="41.4359688" lon="1.8405768"><ele>113.0</ele><time>2026-04-19T12:29:00.029Z</time></trkpt><trkpt lat="41.4362677" lon="1.8406848"><ele>112.0</ele><time>2026-04-19T12:29:01.029Z</time></trkpt><trkpt lat="41.4365613" lon="1.8408107"><ele>111.0</ele><time>2026-04-19T12:29:02.03Z</time></trkpt><trkpt lat="41.4368537" lon="1.8409482"><ele>114.5</ele><time>2026-04-19T12:29:03.029Z</time></trkpt><trkpt lat="41.4371436" lon="1.8410993"><ele>118.0</ele><time>2026-04-19T12:29:04.029Z</time></trkpt><trkpt lat="41.437432" lon="1.8412674"><ele>118.0</ele><time>2026-04-19T12:29:05.032Z</time></trkpt><trkpt lat="41.4377111" lon="1.8414411"><ele>118.0</ele><time>2026-04-19T12:29:06.03Z</time></trkpt><trkpt lat="41.4379852" lon="1.8416312"><ele>114.0</ele><time>2026-04-19T12:29:07.033Z</time></trkpt><trkpt lat="41.4382513" lon="1.8418277"><ele>110.0</ele><time>2026-04-19T12:29:08.03Z</time></trkpt><trkpt lat="41.4385087" lon="1.842028"><ele>110.0</ele><time>2026-04-19T12:29:09.029Z</time></trkpt><trkpt lat="41.4387618" lon="1.8422372"><ele>110.0</ele><time>2026-04-19T12:29:10.031Z</time></trkpt><trkpt lat="41.4390057" lon="1.8424578"><ele>109.5</ele><time>2026-04-19T12:29:11.029Z</time></trkpt><trkpt lat="41.4392428" lon="1.8426974"><ele>109.0</ele><time>2026-04-19T12:29:12.03Z</time></trkpt><trkpt lat="41.4394709" lon="1.8429444"><ele>108.0</ele><time>2026-04-19T12:29:13.03Z</time></trkpt><trkpt lat="41.4396929" lon="1.8432044"><ele>107.0</ele><time>2026-04-19T12:29:14.031Z</time></trkpt><trkpt lat="41.4399102" lon="1.8434756"><ele>106.5</ele><time>2026-04-19T12:29:15.03Z</time></trkpt><trkpt lat="41.4401199" lon="1.8437429"><ele>106.0</ele><time>2026-04-19T12:29:16.028Z</time></trkpt><trkpt lat="41.4403241" lon="1.8440211"><ele>103.0</ele><time>2026-04-19T12:29:17.029Z</time></trkpt><trkpt lat="41.4405217" lon="1.8443195"><ele>100.0</ele><time>2026-04-19T12:29:18.03Z</time></trkpt><trkpt lat="41.4407102" lon="1.8446288"><ele>100.0</ele><time>2026-04-19T12:29:19.03Z</time></trkpt><trkpt lat="41.4408941" lon="1.8449473"><ele>100.0</ele><time>2026-04-19T12:29:20.03Z</time></trkpt><trkpt lat="41.4410733" lon="1.8452717"><ele>99.5</ele><time>2026-04-19T12:29:21.029Z</time></trkpt><trkpt lat="41.4412463" lon="1.8455997"><ele>99.0</ele><time>2026-04-19T12:29:22.03Z</time></trkpt><trkpt lat="41.441407" lon="1.8459343"><ele>98.0</ele><time>2026-04-19T12:29:23.029Z</time></trkpt><trkpt lat="41.4415616" lon="1.846277"><ele>97.0</ele><time>2026-04-19T12:29:24.029Z</time></trkpt><trkpt lat="41.4417092" lon="1.8466239"><ele>96.5</ele><time>2026-04-19T12:29:25.03Z</time></trkpt><trkpt lat="41.4418378" lon="1.8469847"><ele>96.0</ele><time>2026-04-19T12:29:26.03Z</time></trkpt><trkpt lat="41.4419622" lon="1.8473443"><ele>97.0</ele><time>2026-04-19T12:29:27.029Z</time></trkpt><trkpt lat="41.4420753" lon="1.8477182"><ele>98.0</ele><time>2026-04-19T12:29:28.029Z</time></trkpt><trkpt lat="41.44218" lon="1.8480895"><ele>99.5</ele><time>2026-04-19T12:29:29.029Z</time></trkpt><trkpt lat="41.4422743" lon="1.8484563"><ele>101.0</ele><time>2026-04-19T12:29:30.029Z</time></trkpt><trkpt lat="41.4423589" lon="1.8488335"><ele>101.0</ele><time>2026-04-19T12:29:31.031Z</time></trkpt><trkpt lat="41.4424329" lon="1.8492116"><ele>101.0</ele><time>2026-04-19T12:29:32.029Z</time></trkpt><trkpt lat="41.4424979" lon="1.8495898"><ele>99.0</ele><time>2026-04-19T12:29:33.03Z</time></trkpt><trkpt lat="41.442551" lon="1.8499675"><ele>97.0</ele><time>2026-04-19T12:29:34.03Z</time></trkpt><trkpt lat="41.4425976" lon="1.8503485"><ele>97.0</ele><time>2026-04-19T12:29:35.029Z</time></trkpt><trkpt lat="41.4426419" lon="1.8507365"><ele>97.0</ele><time>2026-04-19T12:29:36.028Z</time></trkpt><trkpt lat="41.4426919" lon="1.8511123"><ele>97.0</ele><time>2026-04-19T12:29:37.031Z</time></trkpt><trkpt lat="41.4427426" lon="1.8514962"><ele>97.0</ele><time>2026-04-19T12:29:38.031Z</time></trkpt><trkpt lat="41.4427903" lon="1.8518735"><ele>96.0</ele><time>2026-04-19T12:29:39.03Z</time></trkpt><trkpt lat="41.4428386" lon="1.8522436"><ele>95.0</ele><time>2026-04-19T12:29:40.029Z</time></trkpt><trkpt lat="41.4428932" lon="1.8526394"><ele>94.0</ele><time>2026-04-19T12:29:41.03Z</time></trkpt><trkpt lat="41.4429543" lon="1.8530184"><ele>93.0</ele><time>2026-04-19T12:29:42.03Z</time></trkpt><trkpt lat="41.4430232" lon="1.853411"><ele>91.5</ele><time>2026-04-19T12:29:43.031Z</time></trkpt><trkpt lat="41.443099" lon="1.8538016"><ele>90.0</ele><time>2026-04-19T12:29:44.031Z</time></trkpt><trkpt lat="41.4431761" lon="1.8541949"><ele>90.5</ele><time>2026-04-19T12:29:45.03Z</time></trkpt><trkpt lat="41.4432578" lon="1.854583"><ele>91.0</ele><time>2026-04-19T12:29:46.031Z</time></trkpt><trkpt lat="41.4433457" lon="1.8549731"><ele>96.0</ele><time>2026-04-19T12:29:47.032Z</time></trkpt><trkpt lat="41.4434413" lon="1.8553597"><ele>101.0</ele><time>2026-04-19T12:29:48.03Z</time></trkpt><trkpt lat="41.4435413" lon="1.8557443"><ele>108.5</ele><time>2026-04-19T12:29:49.029Z</time></trkpt><trkpt lat="41.4436496" lon="1.8561225"><ele>116.0</ele><time>2026-04-19T12:29:50.031Z</time></trkpt><trkpt lat="41.4437618" lon="1.8565047"><ele>115.5</ele><time>2026-04-19T12:29:51.03Z</time></trkpt><trkpt lat="41.443882" lon="1.8568849"><ele>115.0</ele><time>2026-04-19T12:29:52.03Z</time></trkpt><trkpt lat="41.444004" lon="1.857258"><ele>116.5</ele><time>2026-04-19T12:29:53.03Z</time></trkpt><trkpt lat="41.4441218" lon="1.8576315"><ele>118.0</ele><time>2026-04-19T12:29:54.029Z</time></trkpt><trkpt lat="41.4442381" lon="1.8580095"><ele>118.0</ele><time>2026-04-19T12:29:55.03Z</time></trkpt><trkpt lat="41.444351" lon="1.8583977"><ele>118.0</ele><time>2026-04-19T12:29:56.03Z</time></trkpt><trkpt lat="41.4444575" lon="1.8587782"><ele>118.0</ele><time>2026-04-19T12:29:57.03Z</time></trkpt><trkpt lat="41.4445586" lon="1.8591666"><ele>118.0</ele><time>2026-04-19T12:29:58.029Z</time></trkpt><trkpt lat="41.4446645" lon="1.8595536"><ele>115.0</ele><time>2026-04-19T12:29:59.029Z</time></trkpt><trkpt lat="41.4447522" lon="1.8599341"><ele>112.0</ele><time>2026-04-19T12:30:00.031Z</time></trkpt><trkpt lat="41.4448412" lon="1.8603238"><ele>112.0</ele><time>2026-04-19T12:30:01.029Z</time></trkpt><trkpt lat="41.4449289" lon="1.8607173"><ele>112.0</ele><time>2026-04-19T12:30:02.03Z</time></trkpt><trkpt lat="41.4450111" lon="1.8611199"><ele>113.0</ele><time>2026-04-19T12:30:03.031Z</time></trkpt><trkpt lat="41.4450681" lon="1.8615208"><ele>114.0</ele><time>2026-04-19T12:30:04.03Z</time></trkpt><trkpt lat="41.4451244" lon="1.8619311"><ele>114.5</ele><time>2026-04-19T12:30:05.03Z</time></trkpt><trkpt lat="41.4451701" lon="1.8623393"><ele>115.0</ele><time>2026-04-19T12:30:06.028Z</time></trkpt><trkpt lat="41.4452047" lon="1.8627525"><ele>116.5</ele><time>2026-04-19T12:30:07.03Z</time></trkpt><trkpt lat="41.4452276" lon="1.8631652"><ele>118.0</ele><time>2026-04-19T12:30:08.031Z</time></trkpt><trkpt lat="41.4452365" lon="1.8635805"><ele>118.0</ele><time>2026-04-19T12:30:09.03Z</time></trkpt><trkpt lat="41.4452346" lon="1.863991"><ele>118.0</ele><time>2026-04-19T12:30:10.03Z</time></trkpt><trkpt lat="41.4452302" lon="1.8644083"><ele>118.5</ele><time>2026-04-19T12:30:11.03Z</time></trkpt><trkpt lat="41.4452268" lon="1.8648205"><ele>119.0</ele><time>2026-04-19T12:30:12.03Z</time></trkpt><trkpt lat="41.445223" lon="1.8652233"><ele>120.0</ele><time>2026-04-19T12:30:13.031Z</time></trkpt><trkpt lat="41.445228" lon="1.8656152"><ele>121.0</ele><time>2026-04-19T12:30:14.03Z</time></trkpt><trkpt lat="41.4452337" lon="1.8660105"><ele>124.5</ele><time>2026-04-19T12:30:15.03Z</time></trkpt><trkpt lat="41.4452484" lon="1.8663929"><ele>128.0</ele><time>2026-04-19T12:30:16.03Z</time></trkpt><trkpt lat="41.4452782" lon="1.8667855"><ele>128.0</ele><time>2026-04-19T12:30:17.029Z</time></trkpt><trkpt lat="41.4453201" lon="1.8671862"><ele>128.0</ele><time>2026-04-19T12:30:18.029Z</time></trkpt><trkpt lat="41.4453627" lon="1.8675789"><ele>129.5</ele><time>2026-04-19T12:30:19.03Z</time></trkpt><trkpt lat="41.4454095" lon="1.8679719"><ele>131.0</ele><time>2026-04-19T12:30:20.03Z</time></trkpt><trkpt lat="41.4454565" lon="1.8683529"><ele>128.5</ele><time>2026-04-19T12:30:21.029Z</time></trkpt><trkpt lat="41.4455103" lon="1.8687224"><ele>126.0</ele><time>2026-04-19T12:30:22.029Z</time></trkpt><trkpt lat="41.4455709" lon="1.8690967"><ele>127.5</ele><time>2026-04-19T12:30:23.03Z</time></trkpt><trkpt lat="41.4456289" lon="1.869468"><ele>129.0</ele><time>2026-04-19T12:30:24.03Z</time></trkpt><trkpt lat="41.4456973" lon="1.8698418"><ele>129.5</ele><time>2026-04-19T12:30:25.031Z</time></trkpt><trkpt lat="41.4457754" lon="1.8702264"><ele>130.0</ele><time>2026-04-19T12:30:26.031Z</time></trkpt><trkpt lat="41.4458658" lon="1.8706073"><ele>130.5</ele><time>2026-04-19T12:30:27.03Z</time></trkpt><trkpt lat="41.4459646" lon="1.8709777"><ele>131.0</ele><time>2026-04-19T12:30:28.029Z</time></trkpt><trkpt lat="41.4460701" lon="1.8713467"><ele>131.0</ele><time>2026-04-19T12:30:29.031Z</time></trkpt><trkpt lat="41.4461856" lon="1.8717061"><ele>131.0</ele><time>2026-04-19T12:30:30.031Z</time></trkpt><trkpt lat="41.4463083" lon="1.8720607"><ele>131.5</ele><time>2026-04-19T12:30:31.03Z</time></trkpt><trkpt lat="41.4464349" lon="1.8724066"><ele>132.0</ele><time>2026-04-19T12:30:32.029Z</time></trkpt><trkpt lat="41.4465691" lon="1.8727517"><ele>132.0</ele><time>2026-04-19T12:30:33.03Z</time></trkpt><trkpt lat="41.4467104" lon="1.873094"><ele>132.0</ele><time>2026-04-19T12:30:34.029Z</time></trkpt><trkpt lat="41.4468563" lon="1.8734242"><ele>136.5</ele><time>2026-04-19T12:30:35.029Z</time></trkpt><trkpt lat="41.4470092" lon="1.8737472"><ele>141.0</ele><time>2026-04-19T12:30:36.031Z</time></trkpt><trkpt lat="41.4471712" lon="1.8740593"><ele>135.0</ele><time>2026-04-19T12:30:37.03Z</time></trkpt><trkpt lat="41.4473337" lon="1.874369"><ele>129.0</ele><time>2026-04-19T12:30:38.03Z</time></trkpt><trkpt lat="41.4475057" lon="1.8746743"><ele>129.0</ele><time>2026-04-19T12:30:39.029Z</time></trkpt><trkpt lat="41.4476891" lon="1.8749766"><ele>129.0</ele><time>2026-04-19T12:30:40.03Z</time></trkpt><trkpt lat="41.4478769" lon="1.8752778"><ele>126.0</ele><time>2026-04-19T12:30:41.03Z</time></trkpt><trkpt lat="41.4480725" lon="1.8755747"><ele>123.0</ele><time>2026-04-19T12:30:42.029Z</time></trkpt><trkpt lat="41.4482713" lon="1.8758718"><ele>129.0</ele><time>2026-04-19T12:30:43.031Z</time></trkpt><trkpt lat="41.4484754" lon="1.8761649"><ele>135.0</ele><time>2026-04-19T12:30:44.03Z</time></trkpt><trkpt lat="41.4486836" lon="1.8764532"><ele>132.0</ele><time>2026-04-19T12:30:45.029Z</time></trkpt><trkpt lat="41.4489007" lon="1.8767248"><ele>129.0</ele><time>2026-04-19T12:30:46.03Z</time></trkpt><trkpt lat="41.449126" lon="1.876984"><ele>129.0</ele><time>2026-04-19T12:30:47.03Z</time></trkpt><trkpt lat="41.4493537" lon="1.8772388"><ele>129.0</ele><time>2026-04-19T12:30:48.03Z</time></trkpt><trkpt lat="41.449586" lon="1.8774867"><ele>125.5</ele><time>2026-04-19T12:30:49.029Z</time></trkpt><trkpt lat="41.4498167" lon="1.8777339"><ele>122.0</ele><time>2026-04-19T12:30:50.03Z</time></trkpt><trkpt lat="41.4500414" lon="1.8779823"><ele>122.0</ele><time>2026-04-19T12:30:51.029Z</time></trkpt><trkpt lat="41.4502619" lon="1.8782299"><ele>122.0</ele><time>2026-04-19T12:30:52.029Z</time></trkpt><trkpt lat="41.4504751" lon="1.8784794"><ele>119.0</ele><time>2026-04-19T12:30:53.03Z</time></trkpt><trkpt lat="41.4506795" lon="1.8787252"><ele>116.0</ele><time>2026-04-19T12:30:54.03Z</time></trkpt><trkpt lat="41.4508822" lon="1.8789669"><ele>116.0</ele><time>2026-04-19T12:30:55.03Z</time></trkpt><trkpt lat="41.4510763" lon="1.8792184"><ele>116.0</ele><time>2026-04-19T12:30:56.029Z</time></trkpt><trkpt lat="41.4512654" lon="1.8794713"><ele>113.5</ele><time>2026-04-19T12:30:57.031Z</time></trkpt><trkpt lat="41.4514547" lon="1.879738"><ele>111.0</ele><time>2026-04-19T12:30:58.032Z</time></trkpt><trkpt lat="41.4516416" lon="1.8800144"><ele>112.5</ele><time>2026-04-19T12:30:59.03Z</time></trkpt><trkpt lat="41.4518206" lon="1.880289"><ele>114.0</ele><time>2026-04-19T12:31:00.03Z</time></trkpt><trkpt lat="41.4519943" lon="1.8805807"><ele>113.0</ele><time>2026-04-19T12:31:01.03Z</time></trkpt><trkpt lat="41.4521642" lon="1.8808808"><ele>112.0</ele><time>2026-04-19T12:31:02.029Z</time></trkpt><trkpt lat="41.452324" lon="1.8811856"><ele>115.0</ele><time>2026-04-19T12:31:03.03Z</time></trkpt><trkpt lat="41.4524744" lon="1.8814934"><ele>118.0</ele><time>2026-04-19T12:31:04.029Z</time></trkpt><trkpt lat="41.4526215" lon="1.8818042"><ele>122.0</ele><time>2026-04-19T12:31:05.031Z</time></trkpt><trkpt lat="41.4527668" lon="1.8821079"><ele>126.0</ele><time>2026-04-19T12:31:06.029Z</time></trkpt><trkpt lat="41.4529112" lon="1.8824202"><ele>122.0</ele><time>2026-04-19T12:31:07.031Z</time></trkpt><trkpt lat="41.4530566" lon="1.8827359"><ele>118.0</ele><time>2026-04-19T12:31:08.031Z</time></trkpt><trkpt lat="41.4532037" lon="1.8830495"><ele>118.0</ele><time>2026-04-19T12:31:09.029Z</time></trkpt><trkpt lat="41.4533498" lon="1.8833626"><ele>118.0</ele><time>2026-04-19T12:31:10.03Z</time></trkpt><trkpt lat="41.4535003" lon="1.8836679"><ele>118.0</ele><time>2026-04-19T12:31:11.031Z</time></trkpt><trkpt lat="41.45366" lon="1.8839756"><ele>118.0</ele><time>2026-04-19T12:31:12.03Z</time></trkpt><trkpt lat="41.4538232" lon="1.8842775"><ele>114.0</ele><time>2026-04-19T12:31:13.03Z</time></trkpt><trkpt lat="41.4539862" lon="1.8845721"><ele>110.0</ele><time>2026-04-19T12:31:14.03Z</time></trkpt><trkpt lat="41.4541557" lon="1.884856"><ele>108.5</ele><time>2026-04-19T12:31:15.029Z</time></trkpt><trkpt lat="41.4543278" lon="1.8851364"><ele>107.0</ele><time>2026-04-19T12:31:16.029Z</time></trkpt><trkpt lat="41.4545068" lon="1.8854105"><ele>105.0</ele><time>2026-04-19T12:31:17.03Z</time></trkpt><trkpt lat="41.4546886" lon="1.8856798"><ele>103.0</ele><time>2026-04-19T12:31:18.03Z</time></trkpt><trkpt lat="41.4548771" lon="1.8859319"><ele>102.5</ele><time>2026-04-19T12:31:19.031Z</time></trkpt><trkpt lat="41.4550686" lon="1.8861792"><ele>102.0</ele><time>2026-04-19T12:31:20.031Z</time></trkpt><trkpt lat="41.4552666" lon="1.886429"><ele>100.5</ele><time>2026-04-19T12:31:21.03Z</time></trkpt><trkpt lat="41.4554695" lon="1.8866738"><ele>99.0</ele><time>2026-04-19T12:31:22.029Z</time></trkpt><trkpt lat="41.4556671" lon="1.8869084"><ele>99.0</ele><time>2026-04-19T12:31:23.03Z</time></trkpt><trkpt lat="41.4558593" lon="1.887135"><ele>99.0</ele><time>2026-04-19T12:31:24.029Z</time></trkpt><trkpt lat="41.456046" lon="1.887362"><ele>99.0</ele><time>2026-04-19T12:31:25.029Z</time></trkpt><trkpt lat="41.4562334" lon="1.8875839"><ele>99.0</ele><time>2026-04-19T12:31:26.029Z</time></trkpt><trkpt lat="41.456418" lon="1.8878178"><ele>98.5</ele><time>2026-04-19T12:31:27.03Z</time></trkpt><trkpt lat="41.4566024" lon="1.8880587"><ele>98.0</ele><time>2026-04-19T12:31:28.03Z</time></trkpt><trkpt lat="41.4567895" lon="1.8883142"><ele>96.5</ele><time>2026-04-19T12:31:29.029Z</time></trkpt><trkpt lat="41.4569756" lon="1.8885784"><ele>95.0</ele><time>2026-04-19T12:31:30.03Z</time></trkpt><trkpt lat="41.4571613" lon="1.8888467"><ele>95.0</ele><time>2026-04-19T12:31:31.029Z</time></trkpt><trkpt lat="41.457342" lon="1.8891275"><ele>95.0</ele><time>2026-04-19T12:31:32.03Z</time></trkpt><trkpt lat="41.457515" lon="1.8894061"><ele>91.0</ele><time>2026-04-19T12:31:33.027Z</time></trkpt><trkpt lat="41.4576906" lon="1.8896877"><ele>87.0</ele><time>2026-04-19T12:31:34.03Z</time></trkpt><trkpt lat="41.4578544" lon="1.8899796"><ele>87.5</ele><time>2026-04-19T12:31:35.03Z</time></trkpt><trkpt lat="41.4580151" lon="1.8902792"><ele>88.0</ele><time>2026-04-19T12:31:36.031Z</time></trkpt><trkpt lat="41.4581719" lon="1.8905841"><ele>88.0</ele><time>2026-04-19T12:31:37.03Z</time></trkpt><trkpt lat="41.4583216" lon="1.8908928"><ele>88.0</ele><time>2026-04-19T12:31:38.03Z</time></trkpt><trkpt lat="41.4584608" lon="1.8912059"><ele>88.0</ele><time>2026-04-19T12:31:39.031Z</time></trkpt><trkpt lat="41.4585973" lon="1.8915218"><ele>88.0</ele><time>2026-04-19T12:31:40.03Z</time></trkpt><trkpt lat="41.4587338" lon="1.8918594"><ele>86.0</ele><time>2026-04-19T12:31:41.03Z</time></trkpt><trkpt lat="41.458862" lon="1.8922008"><ele>84.0</ele><time>2026-04-19T12:31:42.031Z</time></trkpt><trkpt lat="41.4589796" lon="1.892536"><ele>84.5</ele><time>2026-04-19T12:31:43.029Z</time></trkpt><trkpt lat="41.4590907" lon="1.8928716"><ele>85.0</ele><time>2026-04-19T12:31:44.03Z</time></trkpt><trkpt lat="41.4591977" lon="1.8932148"><ele>84.0</ele><time>2026-04-19T12:31:45.03Z</time></trkpt><trkpt lat="41.4592953" lon="1.8935513"><ele>83.0</ele><time>2026-04-19T12:31:46.03Z</time></trkpt><trkpt lat="41.4593838" lon="1.8938822"><ele>83.0</ele><time>2026-04-19T12:31:47.03Z</time></trkpt><trkpt lat="41.4594731" lon="1.8941979"><ele>83.0</ele><time>2026-04-19T12:31:48.03Z</time></trkpt><trkpt lat="41.4595543" lon="1.8945119"><ele>81.5</ele><time>2026-04-19T12:31:49.03Z</time></trkpt><trkpt lat="41.4596355" lon="1.894817"><ele>80.0</ele><time>2026-04-19T12:31:50.03Z</time></trkpt><trkpt lat="41.4597187" lon="1.8951179"><ele>80.0</ele><time>2026-04-19T12:31:51.03Z</time></trkpt><trkpt lat="41.4598008" lon="1.8954181"><ele>80.0</ele><time>2026-04-19T12:31:52.036Z</time></trkpt><trkpt lat="41.4598849" lon="1.8957129"><ele>80.5</ele><time>2026-04-19T12:31:53.031Z</time></trkpt><trkpt lat="41.4599637" lon="1.8960042"><ele>81.0</ele><time>2026-04-19T12:31:54.029Z</time></trkpt><trkpt lat="41.4600443" lon="1.8962931"><ele>81.0</ele><time>2026-04-19T12:31:55.029Z</time></trkpt><trkpt lat="41.4601249" lon="1.8965875"><ele>81.0</ele><time>2026-04-19T12:31:56.03Z</time></trkpt><trkpt lat="41.4602041" lon="1.8968826"><ele>82.5</ele><time>2026-04-19T12:31:57.03Z</time></trkpt><trkpt lat="41.4602942" lon="1.8971725"><ele>84.0</ele><time>2026-04-19T12:31:58.029Z</time></trkpt><trkpt lat="41.4603835" lon="1.8974612"><ele>80.0</ele><time>2026-04-19T12:31:59.029Z</time></trkpt><trkpt lat="41.4604753" lon="1.8977549"><ele>76.0</ele><time>2026-04-19T12:32:00.03Z</time></trkpt><trkpt lat="41.4605742" lon="1.8980511"><ele>76.0</ele><time>2026-04-19T12:32:01.03Z</time></trkpt><trkpt lat="41.46067" lon="1.898354"><ele>76.0</ele><time>2026-04-19T12:32:02.031Z</time></trkpt><trkpt lat="41.4607677" lon="1.8986611"><ele>74.5</ele><time>2026-04-19T12:32:03.03Z</time></trkpt><trkpt lat="41.4608688" lon="1.8989649"><ele>73.0</ele><time>2026-04-19T12:32:04.029Z</time></trkpt><trkpt lat="41.460975" lon="1.8992629"><ele>77.0</ele><time>2026-04-19T12:32:05.031Z</time></trkpt><trkpt lat="41.4610761" lon="1.8995528"><ele>81.0</ele><time>2026-04-19T12:32:06.03Z</time></trkpt><trkpt lat="41.4611766" lon="1.8998441"><ele>79.5</ele><time>2026-04-19T12:32:07.03Z</time></trkpt><trkpt lat="41.4612661" lon="1.9001438"><ele>78.0</ele><time>2026-04-19T12:32:08.03Z</time></trkpt><trkpt lat="41.4613436" lon="1.9004488"><ele>78.0</ele><time>2026-04-19T12:32:09.03Z</time></trkpt><trkpt lat="41.4614093" lon="1.9007506"><ele>78.0</ele><time>2026-04-19T12:32:10.03Z</time></trkpt><trkpt lat="41.4614661" lon="1.9010478"><ele>79.0</ele><time>2026-04-19T12:32:11.029Z</time></trkpt><trkpt lat="41.4615223" lon="1.9013278"><ele>80.0</ele><time>2026-04-19T12:32:12.029Z</time></trkpt><trkpt lat="41.4615754" lon="1.9015898"><ele>81.0</ele><time>2026-04-19T12:32:13.03Z</time></trkpt><trkpt lat="41.4616268" lon="1.9018348"><ele>82.0</ele><time>2026-04-19T12:32:14.029Z</time></trkpt><trkpt lat="41.4616913" lon="1.902063"><ele>83.0</ele><time>2026-04-19T12:32:15.03Z</time></trkpt><trkpt lat="41.4617747" lon="1.9022829"><ele>84.0</ele><time>2026-04-19T12:32:16.03Z</time></trkpt><trkpt lat="41.4618758" lon="1.902477"><ele>84.33333333333333</ele><time>2026-04-19T12:32:17.031Z</time></trkpt><trkpt lat="41.4619886" lon="1.9026454"><ele>84.66666666666666</ele><time>2026-04-19T12:32:18.03Z</time></trkpt><trkpt lat="41.462102" lon="1.9027883"><ele>85.0</ele><time>2026-04-19T12:32:19.031Z</time></trkpt><trkpt lat="41.4622205" lon="1.902929"><ele>81.66666666666666</ele><time>2026-04-19T12:32:20.031Z</time></trkpt><trkpt lat="41.4623435" lon="1.9030702"><ele>78.33333333333333</ele><time>2026-04-19T12:32:21.03Z</time></trkpt><trkpt lat="41.4624606" lon="1.9032142"><ele>75.0</ele><time>2026-04-19T12:32:22.03Z</time></trkpt><trkpt lat="41.4625747" lon="1.9033562"><ele>75.33333333333333</ele><time>2026-04-19T12:32:23.029Z</time></trkpt><trkpt lat="41.4626769" lon="1.9035192"><ele>75.66666666666666</ele><time>2026-04-19T12:32:24.03Z</time></trkpt><trkpt lat="41.4627668" lon="1.9037024"><ele>76.0</ele><time>2026-04-19T12:32:25.03Z</time></trkpt><trkpt lat="41.4628377" lon="1.9039106"><ele>76.0</ele><time>2026-04-19T12:32:26.029Z</time></trkpt><trkpt lat="41.462887" lon="1.9041339"><ele>76.0</ele><time>2026-04-19T12:32:27.03Z</time></trkpt><trkpt lat="41.462915" lon="1.9043597"><ele>76.0</ele><time>2026-04-19T12:32:28.031Z</time></trkpt><trkpt lat="41.4629316" lon="1.9045972"><ele>77.33333333333333</ele><time>2026-04-19T12:32:29.028Z</time></trkpt><trkpt lat="41.4629385" lon="1.9048348"><ele>78.66666666666667</ele><time>2026-04-19T12:32:30.031Z</time></trkpt><trkpt lat="41.4629502" lon="1.9050786"><ele>80.0</ele><time>2026-04-19T12:32:31.031Z</time></trkpt><trkpt lat="41.4629699" lon="1.9053149"><ele>76.33333333333334</ele><time>2026-04-19T12:32:32.03Z</time></trkpt><trkpt lat="41.4629971" lon="1.9055405"><ele>72.66666666666667</ele><time>2026-04-19T12:32:33.031Z</time></trkpt><trkpt lat="41.4630296" lon="1.9057531"><ele>69.0</ele><time>2026-04-19T12:32:34.029Z</time></trkpt><trkpt lat="41.4630668" lon="1.9059557"><ele>69.0</ele><time>2026-04-19T12:32:35.031Z</time></trkpt><trkpt lat="41.4631089" lon="1.9061505"><ele>69.0</ele><time>2026-04-19T12:32:36.029Z</time></trkpt><trkpt lat="41.4631523" lon="1.9063394"><ele>69.0</ele><time>2026-04-19T12:32:37.03Z</time></trkpt><trkpt lat="41.4631963" lon="1.9065264"><ele>69.0</ele><time>2026-04-19T12:32:38.031Z</time></trkpt><trkpt lat="41.463243" lon="1.9067087"><ele>69.5</ele><time>2026-04-19T12:32:39.03Z</time></trkpt><trkpt lat="41.4632898" lon="1.9068856"><ele>70.0</ele><time>2026-04-19T12:32:40.031Z</time></trkpt><trkpt lat="41.4633345" lon="1.9070519"><ele>70.5</ele><time>2026-04-19T12:32:41.031Z</time></trkpt><trkpt lat="41.4633846" lon="1.9072221"><ele>71.0</ele><time>2026-04-19T12:32:42.029Z</time></trkpt><trkpt lat="41.4634386" lon="1.9073955"><ele>71.0</ele><time>2026-04-19T12:32:43.03Z</time></trkpt><trkpt lat="41.4635028" lon="1.9075619"><ele>71.0</ele><time>2026-04-19T12:32:44.03Z</time></trkpt><trkpt lat="41.4635742" lon="1.9077269"><ele>71.0</ele><time>2026-04-19T12:32:45.03Z</time></trkpt><trkpt lat="41.4636533" lon="1.9079003"><ele>71.0</ele><time>2026-04-19T12:32:46.029Z</time></trkpt><trkpt lat="41.4637394" lon="1.9080785"><ele>71.33333333333334</ele><time>2026-04-19T12:32:47.03Z</time></trkpt><trkpt lat="41.4638311" lon="1.9082437"><ele>71.66666666666667</ele><time>2026-04-19T12:32:48.032Z</time></trkpt><trkpt lat="41.4639355" lon="1.908394"><ele>72.0</ele><time>2026-04-19T12:32:49.03Z</time></trkpt><trkpt lat="41.4640416" lon="1.9085339"><ele>72.0</ele><time>2026-04-19T12:32:50.03Z</time></trkpt><trkpt lat="41.4641475" lon="1.9086646"><ele>72.0</ele><time>2026-04-19T12:32:51.029Z</time></trkpt><trkpt lat="41.4642481" lon="1.9087944"><ele>72.0</ele><time>2026-04-19T12:32:52.029Z</time></trkpt><trkpt lat="41.4643438" lon="1.9089208"><ele>72.0</ele><time>2026-04-19T12:32:53.03Z</time></trkpt><trkpt lat="41.4644339" lon="1.9090493"><ele>72.0</ele><time>2026-04-19T12:32:54.031Z</time></trkpt><trkpt lat="41.4645338" lon="1.9091869"><ele>72.0</ele><time>2026-04-19T12:32:55.03Z</time></trkpt><trkpt lat="41.4646328" lon="1.9093197"><ele>72.0</ele><time>2026-04-19T12:32:56.031Z</time></trkpt><trkpt lat="41.4647225" lon="1.9094456"><ele>72.0</ele><time>2026-04-19T12:32:57.03Z</time></trkpt><trkpt lat="41.464802" lon="1.9095785"><ele>72.0</ele><time>2026-04-19T12:32:58.031Z</time></trkpt><trkpt lat="41.4648726" lon="1.9097142"><ele>72.0</ele><time>2026-04-19T12:32:59.031Z</time></trkpt><trkpt lat="41.464943" lon="1.9098586"><ele>72.0</ele><time>2026-04-19T12:33:00.031Z</time></trkpt><trkpt lat="41.4650086" lon="1.9100163"><ele>72.0</ele><time>2026-04-19T12:33:01.031Z</time></trkpt><trkpt lat="41.465073" lon="1.9101752"><ele>72.0</ele><time>2026-04-19T12:33:02.03Z</time></trkpt><trkpt lat="41.4651345" lon="1.9103375"><ele>72.0</ele><time>2026-04-19T12:33:03.031Z</time></trkpt><trkpt lat="41.4651894" lon="1.9104943"><ele>72.0</ele><time>2026-04-19T12:33:04.029Z</time></trkpt><trkpt lat="41.465244" lon="1.9106518"><ele>72.0</ele><time>2026-04-19T12:33:05.029Z</time></trkpt><trkpt lat="41.4652907" lon="1.9108089"><ele>72.0</ele><time>2026-04-19T12:33:06.03Z</time></trkpt><trkpt lat="41.4653366" lon="1.9109682"><ele>72.0</ele><time>2026-04-19T12:33:07.03Z</time></trkpt><trkpt lat="41.4653763" lon="1.9111277"><ele>72.0</ele><time>2026-04-19T12:33:08.03Z</time></trkpt><trkpt lat="41.4654071" lon="1.9112943"><ele>72.0</ele><time>2026-04-19T12:33:09.031Z</time></trkpt><trkpt lat="41.4654402" lon="1.911458"><ele>72.25</ele><time>2026-04-19T12:33:10.029Z</time></trkpt><trkpt lat="41.465474" lon="1.9116213"><ele>72.5</ele><time>2026-04-19T12:33:11.03Z</time></trkpt><trkpt lat="41.4655108" lon="1.9117837"><ele>72.75</ele><time>2026-04-19T12:33:12.029Z</time></trkpt><trkpt lat="41.4655459" lon="1.9119495"><ele>73.0</ele><time>2026-04-19T12:33:13.03Z</time></trkpt><trkpt lat="41.4655827" lon="1.912112"><ele>73.0</ele><time>2026-04-19T12:33:14.031Z</time></trkpt><trkpt lat="41.465619" lon="1.9122763"><ele>73.0</ele><time>2026-04-19T12:33:15.03Z</time></trkpt><trkpt lat="41.4656602" lon="1.9124373"><ele>73.0</ele><time>2026-04-19T12:33:16.03Z</time></trkpt><trkpt lat="41.4657188" lon="1.9125928"><ele>73.0</ele><time>2026-04-19T12:33:17.029Z</time></trkpt><trkpt lat="41.4657902" lon="1.9127359"><ele>72.75</ele><time>2026-04-19T12:33:18.029Z</time></trkpt><trkpt lat="41.4658923" lon="1.9128544"><ele>72.5</ele><time>2026-04-19T12:33:19.031Z</time></trkpt><trkpt lat="41.4660089" lon="1.9129433"><ele>72.25</ele><time>2026-04-19T12:33:20.031Z</time></trkpt><trkpt lat="41.46613" lon="1.913"><ele>72.0</ele><time>2026-04-19T12:33:21.031Z</time></trkpt><trkpt lat="41.4662561" lon="1.9130227"><ele>71.75</ele><time>2026-04-19T12:33:22.03Z</time></trkpt><trkpt lat="41.4663778" lon="1.9130145"><ele>71.5</ele><time>2026-04-19T12:33:23.031Z</time></trkpt><trkpt lat="41.4664922" lon="1.9129755"><ele>71.25</ele><time>2026-04-19T12:33:24.031Z</time></trkpt><trkpt lat="41.4666011" lon="1.9129104"><ele>71.0</ele><time>2026-04-19T12:33:25.029Z</time></trkpt><trkpt lat="41.466712" lon="1.9128217"><ele>71.0</ele><time>2026-04-19T12:33:26.031Z</time></trkpt><trkpt lat="41.4668342" lon="1.9127195"><ele>71.0</ele><time>2026-04-19T12:33:27.03Z</time></trkpt><trkpt lat="41.4669727" lon="1.9126103"><ele>71.0</ele><time>2026-04-19T12:33:28.029Z</time></trkpt><trkpt lat="41.4671224" lon="1.9124934"><ele>70.0</ele><time>2026-04-19T12:33:29.03Z</time></trkpt><trkpt lat="41.4672945" lon="1.9123854"><ele>69.0</ele><time>2026-04-19T12:33:30.029Z</time></trkpt><trkpt lat="41.4674618" lon="1.912297"><ele>68.0</ele><time>2026-04-19T12:33:31.032Z</time></trkpt><trkpt lat="41.4676369" lon="1.912224"><ele>68.0</ele><time>2026-04-19T12:33:32.031Z</time></trkpt><trkpt lat="41.467813" lon="1.9121716"><ele>68.0</ele><time>2026-04-19T12:33:33.03Z</time></trkpt><trkpt lat="41.4679948" lon="1.9121299"><ele>68.0</ele><time>2026-04-19T12:33:34.03Z</time></trkpt><trkpt lat="41.4681772" lon="1.9120904"><ele>65.66666666666667</ele><time>2026-04-19T12:33:35.03Z</time></trkpt><trkpt lat="41.4683662" lon="1.912049"><ele>63.33333333333333</ele><time>2026-04-19T12:33:36.03Z</time></trkpt><trkpt lat="41.4685637" lon="1.9119997"><ele>61.0</ele><time>2026-04-19T12:33:37.031Z</time></trkpt><trkpt lat="41.468776" lon="1.9119436"><ele>59.0</ele><time>2026-04-19T12:33:38.03Z</time></trkpt><trkpt lat="41.4689977" lon="1.9118842"><ele>57.0</ele><time>2026-04-19T12:33:39.031Z</time></trkpt><trkpt lat="41.4692213" lon="1.9118239"><ele>57.0</ele><time>2026-04-19T12:33:40.031Z</time></trkpt><trkpt lat="41.4694466" lon="1.9117595"><ele>57.0</ele><time>2026-04-19T12:33:41.031Z</time></trkpt><trkpt lat="41.4696661" lon="1.9116918"><ele>60.0</ele><time>2026-04-19T12:33:42.03Z</time></trkpt><trkpt lat="41.4698932" lon="1.911619"><ele>63.0</ele><time>2026-04-19T12:33:43.029Z</time></trkpt><trkpt lat="41.470122" lon="1.9115477"><ele>63.0</ele><time>2026-04-19T12:33:44.03Z</time></trkpt><trkpt lat="41.4703444" lon="1.9114778"><ele>63.0</ele><time>2026-04-19T12:33:45.031Z</time></trkpt><trkpt lat="41.4705572" lon="1.9114008"><ele>63.0</ele><time>2026-04-19T12:33:46.03Z</time></trkpt><trkpt lat="41.4707716" lon="1.9113209"><ele>68.0</ele><time>2026-04-19T12:33:47.03Z</time></trkpt><trkpt lat="41.4709809" lon="1.911237"><ele>73.0</ele><time>2026-04-19T12:33:48.03Z</time></trkpt><trkpt lat="41.4712013" lon="1.9111454"><ele>78.0</ele><time>2026-04-19T12:33:49.03Z</time></trkpt><trkpt lat="41.4714206" lon="1.9110523"><ele>81.66666666666667</ele><time>2026-04-19T12:33:50.031Z</time></trkpt><trkpt lat="41.4716355" lon="1.9109594"><ele>85.33333333333334</ele><time>2026-04-19T12:33:51.029Z</time></trkpt><trkpt lat="41.471844" lon="1.9108619"><ele>89.0</ele><time>2026-04-19T12:33:52.031Z</time></trkpt><trkpt lat="41.4720539" lon="1.9107614"><ele>94.5</ele><time>2026-04-19T12:33:53.029Z</time></trkpt><trkpt lat="41.4722672" lon="1.9106531"><ele>100.0</ele><time>2026-04-19T12:33:54.03Z</time></trkpt><trkpt lat="41.4724822" lon="1.9105431"><ele>100.0</ele><time>2026-04-19T12:33:55.029Z</time></trkpt><trkpt lat="41.4726959" lon="1.9104295"><ele>100.0</ele><time>2026-04-19T12:33:56.031Z</time></trkpt><trkpt lat="41.4729126" lon="1.9103136"><ele>101.0</ele><time>2026-04-19T12:33:57.03Z</time></trkpt><trkpt lat="41.4731355" lon="1.9101859"><ele>102.0</ele><time>2026-04-19T12:33:58.03Z</time></trkpt><trkpt lat="41.4733677" lon="1.910055"><ele>102.0</ele><time>2026-04-19T12:33:59.029Z</time></trkpt><trkpt lat="41.4736046" lon="1.9099181"><ele>102.0</ele><time>2026-04-19T12:34:00.03Z</time></trkpt><trkpt lat="41.4738417" lon="1.9097852"><ele>102.5</ele><time>2026-04-19T12:34:01.029Z</time></trkpt><trkpt lat="41.4740804" lon="1.9096523"><ele>103.0</ele><time>2026-04-19T12:34:02.03Z</time></trkpt><trkpt lat="41.4743233" lon="1.9095198"><ele>103.0</ele><time>2026-04-19T12:34:03.03Z</time></trkpt><trkpt lat="41.4745778" lon="1.9093791"><ele>103.0</ele><time>2026-04-19T12:34:04.03Z</time></trkpt><trkpt lat="41.4748443" lon="1.9092245"><ele>104.5</ele><time>2026-04-19T12:34:05.03Z</time></trkpt><trkpt lat="41.4751105" lon="1.9090773"><ele>106.0</ele><time>2026-04-19T12:34:06.031Z</time></trkpt><trkpt lat="41.4753691" lon="1.9089397"><ele>105.0</ele><time>2026-04-19T12:34:07.031Z</time></trkpt><trkpt lat="41.4756264" lon="1.9088157"><ele>104.0</ele><time>2026-04-19T12:34:08.029Z</time></trkpt><trkpt lat="41.4758796" lon="1.9087004"><ele>104.0</ele><time>2026-04-19T12:34:09.03Z</time></trkpt><trkpt lat="41.4761301" lon="1.9085927"><ele>104.0</ele><time>2026-04-19T12:34:10.031Z</time></trkpt><trkpt lat="41.4763799" lon="1.9084891"><ele>103.5</ele><time>2026-04-19T12:34:11.03Z</time></trkpt><trkpt lat="41.4766298" lon="1.9083857"><ele>103.0</ele><time>2026-04-19T12:34:12.029Z</time></trkpt><trkpt lat="41.4768784" lon="1.9082839"><ele>103.5</ele><time>2026-04-19T12:34:13.03Z</time></trkpt><trkpt lat="41.4771299" lon="1.9081848"><ele>104.0</ele><time>2026-04-19T12:34:14.03Z</time></trkpt><trkpt lat="41.4773824" lon="1.9080877"><ele>104.0</ele><time>2026-04-19T12:34:15.031Z</time></trkpt><trkpt lat="41.4776386" lon="1.9079976"><ele>104.0</ele><time>2026-04-19T12:34:16.029Z</time></trkpt><trkpt lat="41.4778928" lon="1.9079083"><ele>104.5</ele><time>2026-04-19T12:34:17.03Z</time></trkpt><trkpt lat="41.4781502" lon="1.9078298"><ele>105.0</ele><time>2026-04-19T12:34:18.031Z</time></trkpt><trkpt lat="41.478405" lon="1.9077562"><ele>105.0</ele><time>2026-04-19T12:34:19.031Z</time></trkpt><trkpt lat="41.4786603" lon="1.9076867"><ele>105.0</ele><time>2026-04-19T12:34:20.031Z</time></trkpt><trkpt lat="41.4789227" lon="1.9076277"><ele>104.0</ele><time>2026-04-19T12:34:21.029Z</time></trkpt><trkpt lat="41.4791802" lon="1.90757"><ele>103.0</ele><time>2026-04-19T12:34:22.031Z</time></trkpt><trkpt lat="41.4794385" lon="1.9075167"><ele>100.0</ele><time>2026-04-19T12:34:23.03Z</time></trkpt><trkpt lat="41.479694" lon="1.9074737"><ele>97.0</ele><time>2026-04-19T12:34:24.029Z</time></trkpt><trkpt lat="41.479944" lon="1.9074332"><ele>97.0</ele><time>2026-04-19T12:34:25.031Z</time></trkpt><trkpt lat="41.480187" lon="1.9073955"><ele>97.0</ele><time>2026-04-19T12:34:26.028Z</time></trkpt><trkpt lat="41.4804353" lon="1.9073589"><ele>97.5</ele><time>2026-04-19T12:34:27.029Z</time></trkpt><trkpt lat="41.4806814" lon="1.9073277"><ele>98.0</ele><time>2026-04-19T12:34:28.029Z</time></trkpt><trkpt lat="41.4809249" lon="1.907307"><ele>98.0</ele><time>2026-04-19T12:34:29.029Z</time></trkpt><trkpt lat="41.4811757" lon="1.9072924"><ele>98.0</ele><time>2026-04-19T12:34:30.03Z</time></trkpt><trkpt lat="41.4814302" lon="1.9072761"><ele>95.0</ele><time>2026-04-19T12:34:31.03Z</time></trkpt><trkpt lat="41.481683" lon="1.9072678"><ele>92.0</ele><time>2026-04-19T12:34:32.032Z</time></trkpt><trkpt lat="41.4819397" lon="1.9072631"><ele>91.5</ele><time>2026-04-19T12:34:33.029Z</time></trkpt><trkpt lat="41.4822069" lon="1.907262"><ele>91.0</ele><time>2026-04-19T12:34:34.031Z</time></trkpt><trkpt lat="41.4824798" lon="1.9072649"><ele>91.0</ele><time>2026-04-19T12:34:35.03Z</time></trkpt><trkpt lat="41.4827525" lon="1.9072695"><ele>91.0</ele><time>2026-04-19T12:34:36.03Z</time></trkpt><trkpt lat="41.4830277" lon="1.9072881"><ele>89.5</ele><time>2026-04-19T12:34:37.031Z</time></trkpt><trkpt lat="41.4832965" lon="1.9073104"><ele>88.0</ele><time>2026-04-19T12:34:38.03Z</time></trkpt><trkpt lat="41.4835659" lon="1.9073372"><ele>85.0</ele><time>2026-04-19T12:34:39.031Z</time></trkpt><trkpt lat="41.4838291" lon="1.9073684"><ele>82.0</ele><time>2026-04-19T12:34:40.031Z</time></trkpt><trkpt lat="41.4840975" lon="1.9074052"><ele>82.0</ele><time>2026-04-19T12:34:41.03Z</time></trkpt><trkpt lat="41.4843654" lon="1.9074492"><ele>82.0</ele><time>2026-04-19T12:34:42.031Z</time></trkpt><trkpt lat="41.4846362" lon="1.9074987"><ele>82.0</ele><time>2026-04-19T12:34:43.029Z</time></trkpt><trkpt lat="41.4848972" lon="1.9075575"><ele>82.0</ele><time>2026-04-19T12:34:44.03Z</time></trkpt><trkpt lat="41.4851534" lon="1.9076183"><ele>84.0</ele><time>2026-04-19T12:34:45.03Z</time></trkpt><trkpt lat="41.4854102" lon="1.9076854"><ele>86.0</ele><time>2026-04-19T12:34:46.03Z</time></trkpt><trkpt lat="41.4856504" lon="1.9077579"><ele>88.0</ele><time>2026-04-19T12:34:47.029Z</time></trkpt><trkpt lat="41.4858794" lon="1.907843"><ele>90.0</ele><time>2026-04-19T12:34:48.029Z</time></trkpt><trkpt lat="41.4861009" lon="1.907929"><ele>91.33333333333333</ele><time>2026-04-19T12:34:49.03Z</time></trkpt><trkpt lat="41.4863112" lon="1.9080196"><ele>92.66666666666666</ele><time>2026-04-19T12:34:50.031Z</time></trkpt><trkpt lat="41.4865122" lon="1.9081106"><ele>94.0</ele><time>2026-04-19T12:34:51.031Z</time></trkpt><trkpt lat="41.486712" lon="1.9082107"><ele>94.0</ele><time>2026-04-19T12:34:52.028Z</time></trkpt><trkpt lat="41.4869057" lon="1.9083183"><ele>94.0</ele><time>2026-04-19T12:34:53.031Z</time></trkpt><trkpt lat="41.4871072" lon="1.9084347"><ele>94.0</ele><time>2026-04-19T12:34:54.029Z</time></trkpt><trkpt lat="41.4872945" lon="1.9085604"><ele>93.0</ele><time>2026-04-19T12:34:55.028Z</time></trkpt><trkpt lat="41.4874853" lon="1.9086984"><ele>92.0</ele><time>2026-04-19T12:34:56.031Z</time></trkpt><trkpt lat="41.4876711" lon="1.9088402"><ele>91.0</ele><time>2026-04-19T12:34:57.029Z</time></trkpt><trkpt lat="41.4878467" lon="1.9089833"><ele>90.66666666666666</ele><time>2026-04-19T12:34:58.03Z</time></trkpt><trkpt lat="41.4880185" lon="1.9091294"><ele>90.33333333333333</ele><time>2026-04-19T12:34:59.029Z</time></trkpt><trkpt lat="41.4881877" lon="1.9092815"><ele>90.0</ele><time>2026-04-19T12:35:00.029Z</time></trkpt><trkpt lat="41.4883565" lon="1.9094408"><ele>89.33333333333333</ele><time>2026-04-19T12:35:01.029Z</time></trkpt><trkpt lat="41.4885225" lon="1.9096088"><ele>88.66666666666666</ele><time>2026-04-19T12:35:02.028Z</time></trkpt><trkpt lat="41.4886873" lon="1.9097936"><ele>88.0</ele><time>2026-04-19T12:35:03.028Z</time></trkpt><trkpt lat="41.4888501" lon="1.9099891"><ele>87.0</ele><time>2026-04-19T12:35:04.029Z</time></trkpt><trkpt lat="41.4890066" lon="1.9101807"><ele>86.0</ele><time>2026-04-19T12:35:05.029Z</time></trkpt><trkpt lat="41.4891506" lon="1.9103782"><ele>85.0</ele><time>2026-04-19T12:35:06.029Z</time></trkpt><trkpt lat="41.4892946" lon="1.9105759"><ele>85.0</ele><time>2026-04-19T12:35:07.03Z</time></trkpt><trkpt lat="41.4894439" lon="1.9107828"><ele>85.0</ele><time>2026-04-19T12:35:08.029Z</time></trkpt><trkpt lat="41.4895936" lon="1.910999"><ele>85.0</ele><time>2026-04-19T12:35:09.029Z</time></trkpt><trkpt lat="41.48974" lon="1.9112017"><ele>85.33333333333333</ele><time>2026-04-19T12:35:10.029Z</time></trkpt><trkpt lat="41.4898828" lon="1.9113999"><ele>85.66666666666667</ele><time>2026-04-19T12:35:11.028Z</time></trkpt><trkpt lat="41.4900215" lon="1.9115904"><ele>86.0</ele><time>2026-04-19T12:35:12.029Z</time></trkpt><trkpt lat="41.4901712" lon="1.9117682"><ele>85.33333333333334</ele><time>2026-04-19T12:35:13.03Z</time></trkpt><trkpt lat="41.4903278" lon="1.9119289"><ele>84.66666666666667</ele><time>2026-04-19T12:35:14.028Z</time></trkpt><trkpt lat="41.4904894" lon="1.9120704"><ele>84.0</ele><time>2026-04-19T12:35:15.028Z</time></trkpt><trkpt lat="41.4906542" lon="1.9121977"><ele>84.0</ele><time>2026-04-19T12:35:16.029Z</time></trkpt><trkpt lat="41.4908214" lon="1.9123071"><ele>84.0</ele><time>2026-04-19T12:35:17.028Z</time></trkpt><trkpt lat="41.4909908" lon="1.9124014"><ele>84.0</ele><time>2026-04-19T12:35:18.029Z</time></trkpt><trkpt lat="41.4911779" lon="1.9124623"><ele>84.33333333333333</ele><time>2026-04-19T12:35:19.035Z</time></trkpt><trkpt lat="41.4913597" lon="1.9125197"><ele>84.66666666666666</ele><time>2026-04-19T12:35:20.03Z</time></trkpt><trkpt lat="41.4915464" lon="1.9125564"><ele>85.0</ele><time>2026-04-19T12:35:21.029Z</time></trkpt><trkpt lat="41.491743" lon="1.9125665"><ele>85.0</ele><time>2026-04-19T12:35:22.028Z</time></trkpt><trkpt lat="41.49193" lon="1.9125529"><ele>85.0</ele><time>2026-04-19T12:35:23.029Z</time></trkpt><trkpt lat="41.4921252" lon="1.9125174"><ele>85.0</ele><time>2026-04-19T12:35:24.028Z</time></trkpt><trkpt lat="41.4923178" lon="1.9124558"><ele>86.33333333333333</ele><time>2026-04-19T12:35:25.029Z</time></trkpt><trkpt lat="41.4925098" lon="1.9123848"><ele>87.66666666666667</ele><time>2026-04-19T12:35:26.028Z</time></trkpt><trkpt lat="41.492711" lon="1.9122991"><ele>89.0</ele><time>2026-04-19T12:35:27.028Z</time></trkpt><trkpt lat="41.4929272" lon="1.9122016"><ele>90.0</ele><time>2026-04-19T12:35:28.028Z</time></trkpt><trkpt lat="41.4931571" lon="1.9121014"><ele>91.0</ele><time>2026-04-19T12:35:29.027Z</time></trkpt><trkpt lat="41.4933978" lon="1.9119987"><ele>91.0</ele><time>2026-04-19T12:35:30.029Z</time></trkpt><trkpt lat="41.4936484" lon="1.9118924"><ele>91.0</ele><time>2026-04-19T12:35:31.028Z</time></trkpt><trkpt lat="41.493906" lon="1.9117864"><ele>89.5</ele><time>2026-04-19T12:35:32.03Z</time></trkpt><trkpt lat="41.49416" lon="1.9116735"><ele>88.0</ele><time>2026-04-19T12:35:33.029Z</time></trkpt><trkpt lat="41.4944249" lon="1.9115614"><ele>89.5</ele><time>2026-04-19T12:35:34.029Z</time></trkpt><trkpt lat="41.4946986" lon="1.9114432"><ele>91.0</ele><time>2026-04-19T12:35:35.029Z</time></trkpt><trkpt lat="41.4949776" lon="1.9113154"><ele>91.0</ele><time>2026-04-19T12:35:36.028Z</time></trkpt><trkpt lat="41.4952635" lon="1.9111864"><ele>91.0</ele><time>2026-04-19T12:35:37.027Z</time></trkpt><trkpt lat="41.4955454" lon="1.9110568"><ele>90.0</ele><time>2026-04-19T12:35:38.03Z</time></trkpt><trkpt lat="41.4958273" lon="1.9109258"><ele>89.0</ele><time>2026-04-19T12:35:39.03Z</time></trkpt><trkpt lat="41.4960991" lon="1.9107924"><ele>91.0</ele><time>2026-04-19T12:35:40.03Z</time></trkpt><trkpt lat="41.4963739" lon="1.9106586"><ele>93.0</ele><time>2026-04-19T12:35:41.029Z</time></trkpt><trkpt lat="41.4966414" lon="1.910524"><ele>93.0</ele><time>2026-04-19T12:35:42.028Z</time></trkpt><trkpt lat="41.4969098" lon="1.9103902"><ele>93.0</ele><time>2026-04-19T12:35:43.029Z</time></trkpt><trkpt lat="41.4971769" lon="1.9102518"><ele>93.0</ele><time>2026-04-19T12:35:44.029Z</time></trkpt><trkpt lat="41.4974368" lon="1.9101001"><ele>93.0</ele><time>2026-04-19T12:35:45.029Z</time></trkpt><trkpt lat="41.4977" lon="1.9099405"><ele>92.5</ele><time>2026-04-19T12:35:46.028Z</time></trkpt><trkpt lat="41.4979668" lon="1.9097759"><ele>92.0</ele><time>2026-04-19T12:35:47.03Z</time></trkpt><trkpt lat="41.4982384" lon="1.909607"><ele>92.0</ele><time>2026-04-19T12:35:48.028Z</time></trkpt><trkpt lat="41.4985131" lon="1.9094354"><ele>92.0</ele><time>2026-04-19T12:35:49.029Z</time></trkpt><trkpt lat="41.4987818" lon="1.9092566"><ele>93.5</ele><time>2026-04-19T12:35:50.029Z</time></trkpt><trkpt lat="41.4990498" lon="1.9090915"><ele>95.0</ele><time>2026-04-19T12:35:51.03Z</time></trkpt><trkpt lat="41.4993194" lon="1.9089451"><ele>95.0</ele><time>2026-04-19T12:35:52.028Z</time></trkpt><trkpt lat="41.4995854" lon="1.9088367"><ele>95.0</ele><time>2026-04-19T12:35:53.029Z</time></trkpt><trkpt lat="41.499851" lon="1.908773"><ele>95.0</ele><time>2026-04-19T12:35:54.03Z</time></trkpt><trkpt lat="41.5001265" lon="1.908746"><ele>95.0</ele><time>2026-04-19T12:35:55.029Z</time></trkpt><trkpt lat="41.5003963" lon="1.9087548"><ele>98.0</ele><time>2026-04-19T12:35:56.03Z</time></trkpt><trkpt lat="41.5006516" lon="1.9087954"><ele>101.0</ele><time>2026-04-19T12:35:57.03Z</time></trkpt><trkpt lat="41.5009029" lon="1.9088654"><ele>101.0</ele><time>2026-04-19T12:35:58.028Z</time></trkpt><trkpt lat="41.5011538" lon="1.9089557"><ele>101.0</ele><time>2026-04-19T12:35:59.03Z</time></trkpt><trkpt lat="41.5014021" lon="1.9090582"><ele>98.5</ele><time>2026-04-19T12:36:00.027Z</time></trkpt><trkpt lat="41.5016514" lon="1.9091288"><ele>96.0</ele><time>2026-04-19T12:36:01.029Z</time></trkpt><trkpt lat="41.5019114" lon="1.9091885"><ele>95.0</ele><time>2026-04-19T12:36:02.029Z</time></trkpt><trkpt lat="41.5021735" lon="1.9092354"><ele>94.0</ele><time>2026-04-19T12:36:03.03Z</time></trkpt><trkpt lat="41.5024312" lon="1.9092494"><ele>94.0</ele><time>2026-04-19T12:36:04.028Z</time></trkpt><trkpt lat="41.5026893" lon="1.9092306"><ele>94.0</ele><time>2026-04-19T12:36:05.03Z</time></trkpt><trkpt lat="41.5029472" lon="1.9091849"><ele>95.0</ele><time>2026-04-19T12:36:06.03Z</time></trkpt><trkpt lat="41.5032016" lon="1.9091085"><ele>96.0</ele><time>2026-04-19T12:36:07.029Z</time></trkpt><trkpt lat="41.5034477" lon="1.9090027"><ele>96.0</ele><time>2026-04-19T12:36:08.03Z</time></trkpt><trkpt lat="41.5036895" lon="1.9088702"><ele>96.0</ele><time>2026-04-19T12:36:09.03Z</time></trkpt><trkpt lat="41.503926" lon="1.9087041"><ele>95.5</ele><time>2026-04-19T12:36:10.03Z</time></trkpt><trkpt lat="41.5041481" lon="1.9085141"><ele>95.0</ele><time>2026-04-19T12:36:11.029Z</time></trkpt><trkpt lat="41.5043476" lon="1.9082949"><ele>96.0</ele><time>2026-04-19T12:36:12.029Z</time></trkpt><trkpt lat="41.5045289" lon="1.908055"><ele>97.0</ele><time>2026-04-19T12:36:13.029Z</time></trkpt><trkpt lat="41.5046935" lon="1.9077971"><ele>98.5</ele><time>2026-04-19T12:36:14.029Z</time></trkpt><trkpt lat="41.5048453" lon="1.9075158"><ele>100.0</ele><time>2026-04-19T12:36:15.029Z</time></trkpt><trkpt lat="41.5049798" lon="1.907216"><ele>100.0</ele><time>2026-04-19T12:36:16.029Z</time></trkpt><trkpt lat="41.5051068" lon="1.9069069"><ele>100.0</ele><time>2026-04-19T12:36:17.029Z</time></trkpt><trkpt lat="41.5052291" lon="1.9066095"><ele>99.5</ele><time>2026-04-19T12:36:18.029Z</time></trkpt><trkpt lat="41.5053567" lon="1.9063292"><ele>99.0</ele><time>2026-04-19T12:36:19.028Z</time></trkpt><trkpt lat="41.5055104" lon="1.9060798"><ele>100.0</ele><time>2026-04-19T12:36:20.028Z</time></trkpt><trkpt lat="41.505684" lon="1.9058525"><ele>101.0</ele><time>2026-04-19T12:36:21.029Z</time></trkpt><trkpt lat="41.5058601" lon="1.9056303"><ele>101.0</ele><time>2026-04-19T12:36:22.03Z</time></trkpt><trkpt lat="41.5060857" lon="1.9054843"><ele>101.0</ele><time>2026-04-19T12:36:23.029Z</time></trkpt><trkpt lat="41.5063087" lon="1.9053303"><ele>102.5</ele><time>2026-04-19T12:36:24.03Z</time></trkpt><trkpt lat="41.5065334" lon="1.9051714"><ele>104.0</ele><time>2026-04-19T12:36:25.029Z</time></trkpt><trkpt lat="41.5067549" lon="1.9050063"><ele>104.0</ele><time>2026-04-19T12:36:26.029Z</time></trkpt><trkpt lat="41.5069836" lon="1.9048355"><ele>104.0</ele><time>2026-04-19T12:36:27.029Z</time></trkpt><trkpt lat="41.5072086" lon="1.9046664"><ele>104.0</ele><time>2026-04-19T12:36:28.029Z</time></trkpt><trkpt lat="41.5074262" lon="1.9044931"><ele>104.0</ele><time>2026-04-19T12:36:29.028Z</time></trkpt><trkpt lat="41.5076365" lon="1.9043196"><ele>104.5</ele><time>2026-04-19T12:36:30.028Z</time></trkpt><trkpt lat="41.5078411" lon="1.9041499"><ele>105.0</ele><time>2026-04-19T12:36:31.03Z</time></trkpt><trkpt lat="41.5080328" lon="1.903986"><ele>105.33333333333334</ele><time>2026-04-19T12:36:32.029Z</time></trkpt><trkpt lat="41.5082178" lon="1.9038271"><ele>105.66666666666667</ele><time>2026-04-19T12:36:33.029Z</time></trkpt><trkpt lat="41.5083956" lon="1.9036763"><ele>106.0</ele><time>2026-04-19T12:36:34.028Z</time></trkpt><trkpt lat="41.508571" lon="1.9035284"><ele>105.66666666666667</ele><time>2026-04-19T12:36:35.028Z</time></trkpt><trkpt lat="41.5087455" lon="1.903372"><ele>105.33333333333334</ele><time>2026-04-19T12:36:36.028Z</time></trkpt><trkpt lat="41.5089209" lon="1.9032136"><ele>105.0</ele><time>2026-04-19T12:36:37.03Z</time></trkpt><trkpt lat="41.5090901" lon="1.9030572"><ele>105.0</ele><time>2026-04-19T12:36:38.029Z</time></trkpt><trkpt lat="41.5092547" lon="1.902907"><ele>105.0</ele><time>2026-04-19T12:36:39.028Z</time></trkpt><trkpt lat="41.509417" lon="1.9027564"><ele>105.0</ele><time>2026-04-19T12:36:40.029Z</time></trkpt><trkpt lat="41.5095767" lon="1.9026067"><ele>106.66666666666666</ele><time>2026-04-19T12:36:41.029Z</time></trkpt><trkpt lat="41.5097395" lon="1.9024536"><ele>108.33333333333333</ele><time>2026-04-19T12:36:42.029Z</time></trkpt><trkpt lat="41.5099066" lon="1.9022966"><ele>110.0</ele><time>2026-04-19T12:36:43.03Z</time></trkpt><trkpt lat="41.5100804" lon="1.9021245"><ele>110.0</ele><time>2026-04-19T12:36:44.028Z</time></trkpt><trkpt lat="41.5102582" lon="1.9019531"><ele>110.0</ele><time>2026-04-19T12:36:45.029Z</time></trkpt><trkpt lat="41.5104504" lon="1.9017716"><ele>110.0</ele><time>2026-04-19T12:36:46.031Z</time></trkpt><trkpt lat="41.5106554" lon="1.9015802"><ele>110.0</ele><time>2026-04-19T12:36:47.03Z</time></trkpt><trkpt lat="41.5108754" lon="1.901376"><ele>110.0</ele><time>2026-04-19T12:36:48.029Z</time></trkpt><trkpt lat="41.5110987" lon="1.9011748"><ele>110.0</ele><time>2026-04-19T12:36:49.027Z</time></trkpt><trkpt lat="41.5113293" lon="1.9009791"><ele>113.0</ele><time>2026-04-19T12:36:50.028Z</time></trkpt><trkpt lat="41.5115684" lon="1.900775"><ele>116.0</ele><time>2026-04-19T12:36:51.029Z</time></trkpt><trkpt lat="41.5118214" lon="1.900571"><ele>113.5</ele><time>2026-04-19T12:36:52.029Z</time></trkpt><trkpt lat="41.5120855" lon="1.9003711"><ele>111.0</ele><time>2026-04-19T12:36:53.031Z</time></trkpt><trkpt lat="41.5123606" lon="1.9001855"><ele>111.5</ele><time>2026-04-19T12:36:54.029Z</time></trkpt><trkpt lat="41.5126359" lon="1.900018"><ele>112.0</ele><time>2026-04-19T12:36:55.029Z</time></trkpt><trkpt lat="41.5129144" lon="1.8998653"><ele>108.5</ele><time>2026-04-19T12:36:56.03Z</time></trkpt><trkpt lat="41.5131952" lon="1.8997244"><ele>105.0</ele><time>2026-04-19T12:36:57.029Z</time></trkpt><trkpt lat="41.513478" lon="1.8995877"><ele>108.5</ele><time>2026-04-19T12:36:58.029Z</time></trkpt><trkpt lat="41.5137582" lon="1.8994516"><ele>112.0</ele><time>2026-04-19T12:36:59.029Z</time></trkpt><trkpt lat="41.5140362" lon="1.8993166"><ele>113.0</ele><time>2026-04-19T12:37:00.029Z</time></trkpt><trkpt lat="41.5143138" lon="1.8991832"><ele>114.0</ele><time>2026-04-19T12:37:01.028Z</time></trkpt><trkpt lat="41.514587" lon="1.8990489"><ele>114.0</ele><time>2026-04-19T12:37:02.029Z</time></trkpt><trkpt lat="41.5148583" lon="1.8989207"><ele>114.0</ele><time>2026-04-19T12:37:03.029Z</time></trkpt><trkpt lat="41.5151294" lon="1.8988009"><ele>114.0</ele><time>2026-04-19T12:37:04.028Z</time></trkpt><trkpt lat="41.5154148" lon="1.8986481"><ele>114.0</ele><time>2026-04-19T12:37:05.028Z</time></trkpt><trkpt lat="41.5156961" lon="1.8985089"><ele>115.5</ele><time>2026-04-19T12:37:06.029Z</time></trkpt><trkpt lat="41.5159749" lon="1.8983692"><ele>117.0</ele><time>2026-04-19T12:37:07.029Z</time></trkpt><trkpt lat="41.5162419" lon="1.898241"><ele>117.0</ele><time>2026-04-19T12:37:08.029Z</time></trkpt><trkpt lat="41.5165077" lon="1.8981102"><ele>117.0</ele><time>2026-04-19T12:37:09.029Z</time></trkpt><trkpt lat="41.5167616" lon="1.8979823"><ele>117.0</ele><time>2026-04-19T12:37:10.028Z</time></trkpt><trkpt lat="41.5170073" lon="1.8978547"><ele>117.0</ele><time>2026-04-19T12:37:11.028Z</time></trkpt><trkpt lat="41.5172456" lon="1.8977338"><ele>116.0</ele><time>2026-04-19T12:37:12.029Z</time></trkpt><trkpt lat="41.5174827" lon="1.8976056"><ele>115.0</ele><time>2026-04-19T12:37:13.03Z</time></trkpt><trkpt lat="41.5177267" lon="1.8974723"><ele>115.5</ele><time>2026-04-19T12:37:14.03Z</time></trkpt><trkpt lat="41.5179693" lon="1.8973371"><ele>116.0</ele><time>2026-04-19T12:37:15.031Z</time></trkpt><trkpt lat="41.5182112" lon="1.8971932"><ele>116.0</ele><time>2026-04-19T12:37:16.029Z</time></trkpt><trkpt lat="41.5184499" lon="1.8970459"><ele>116.0</ele><time>2026-04-19T12:37:17.029Z</time></trkpt><trkpt lat="41.5186862" lon="1.8968931"><ele>117.0</ele><time>2026-04-19T12:37:18.029Z</time></trkpt><trkpt lat="41.5189182" lon="1.8967395"><ele>118.0</ele><time>2026-04-19T12:37:19.028Z</time></trkpt><trkpt lat="41.5191477" lon="1.8965736"><ele>118.0</ele><time>2026-04-19T12:37:20.028Z</time></trkpt><trkpt lat="41.5193675" lon="1.8963964"><ele>118.0</ele><time>2026-04-19T12:37:21.029Z</time></trkpt><trkpt lat="41.5195618" lon="1.8962103"><ele>118.0</ele><time>2026-04-19T12:37:22.032Z</time></trkpt><trkpt lat="41.519752" lon="1.8960187"><ele>118.0</ele><time>2026-04-19T12:37:23.029Z</time></trkpt><trkpt lat="41.5199023" lon="1.8958307"><ele>118.0</ele><time>2026-04-19T12:37:24.03Z</time></trkpt><trkpt lat="41.5200424" lon="1.8956408"><ele>118.0</ele><time>2026-04-19T12:37:25.032Z</time></trkpt><trkpt lat="41.5201672" lon="1.8954457"><ele>118.0</ele><time>2026-04-19T12:37:26.028Z</time></trkpt><trkpt lat="41.5202794" lon="1.8952544"><ele>118.0</ele><time>2026-04-19T12:37:27.031Z</time></trkpt><trkpt lat="41.5203953" lon="1.8950583"><ele>119.0</ele><time>2026-04-19T12:37:28.03Z</time></trkpt><trkpt lat="41.5205164" lon="1.8948555"><ele>120.0</ele><time>2026-04-19T12:37:29.03Z</time></trkpt><trkpt lat="41.5206493" lon="1.8946445"><ele>121.0</ele><time>2026-04-19T12:37:30.029Z</time></trkpt><trkpt lat="41.5207856" lon="1.8944178"><ele>122.33333333333334</ele><time>2026-04-19T12:37:31.028Z</time></trkpt><trkpt lat="41.520919" lon="1.8941984"><ele>123.66666666666666</ele><time>2026-04-19T12:37:32.029Z</time></trkpt><trkpt lat="41.5210442" lon="1.8939796"><ele>125.0</ele><time>2026-04-19T12:37:33.03Z</time></trkpt><trkpt lat="41.5211613" lon="1.8937596"><ele>125.0</ele><time>2026-04-19T12:37:34.028Z</time></trkpt><trkpt lat="41.521268" lon="1.8935384"><ele>125.0</ele><time>2026-04-19T12:37:35.029Z</time></trkpt><trkpt lat="41.5213703" lon="1.8933118"><ele>125.0</ele><time>2026-04-19T12:37:36.028Z</time></trkpt><trkpt lat="41.5214641" lon="1.8930882"><ele>125.66666666666666</ele><time>2026-04-19T12:37:37.03Z</time></trkpt><trkpt lat="41.5215509" lon="1.8928747"><ele>126.33333333333334</ele><time>2026-04-19T12:37:38.028Z</time></trkpt><trkpt lat="41.5216275" lon="1.8926724"><ele>127.0</ele><time>2026-04-19T12:37:39.029Z</time></trkpt><trkpt lat="41.5216948" lon="1.8924833"><ele>127.5</ele><time>2026-04-19T12:37:40.029Z</time></trkpt><trkpt lat="41.5217646" lon="1.8923048"><ele>128.0</ele><time>2026-04-19T12:37:41.029Z</time></trkpt><trkpt lat="41.5218303" lon="1.8921363"><ele>128.5</ele><time>2026-04-19T12:37:42.031Z</time></trkpt><trkpt lat="41.5218927" lon="1.8919588"><ele>129.0</ele><time>2026-04-19T12:37:43.03Z</time></trkpt><trkpt lat="41.5219448" lon="1.8917765"><ele>128.5</ele><time>2026-04-19T12:37:44.027Z</time></trkpt><trkpt lat="41.5219919" lon="1.8916028"><ele>128.0</ele><time>2026-04-19T12:37:45.029Z</time></trkpt><trkpt lat="41.522034" lon="1.8914449"><ele>127.5</ele><time>2026-04-19T12:37:46.029Z</time></trkpt><trkpt lat="41.522075" lon="1.8912953"><ele>127.0</ele><time>2026-04-19T12:37:47.028Z</time></trkpt><trkpt lat="41.5221197" lon="1.8911564"><ele>126.6</ele><time>2026-04-19T12:37:48.028Z</time></trkpt><trkpt lat="41.522173" lon="1.8910311"><ele>126.19999999999999</ele><time>2026-04-19T12:37:49.029Z</time></trkpt><trkpt lat="41.5222372" lon="1.8909299"><ele>125.8</ele><time>2026-04-19T12:37:50.028Z</time></trkpt><trkpt lat="41.5223182" lon="1.8908497"><ele>125.4</ele><time>2026-04-19T12:37:51.028Z</time></trkpt><trkpt lat="41.522412" lon="1.8908108"><ele>125.0</ele><time>2026-04-19T12:37:52.03Z</time></trkpt><trkpt lat="41.5225145" lon="1.8908041"><ele>125.0</ele><time>2026-04-19T12:37:53.028Z</time></trkpt><trkpt lat="41.522621" lon="1.8908361"><ele>125.0</ele><time>2026-04-19T12:37:54.028Z</time></trkpt><trkpt lat="41.5227223" lon="1.8909022"><ele>125.0</ele><time>2026-04-19T12:37:55.029Z</time></trkpt><trkpt lat="41.5228023" lon="1.8910168"><ele>125.0</ele><time>2026-04-19T12:37:56.03Z</time></trkpt><trkpt lat="41.5228632" lon="1.8911612"><ele>124.25</ele><time>2026-04-19T12:37:57.029Z</time></trkpt><trkpt lat="41.5229043" lon="1.8913335"><ele>123.5</ele><time>2026-04-19T12:37:58.029Z</time></trkpt><trkpt lat="41.5229385" lon="1.8915227"><ele>122.75</ele><time>2026-04-19T12:37:59.029Z</time></trkpt><trkpt lat="41.5229731" lon="1.891719"><ele>122.0</ele><time>2026-04-19T12:38:00.029Z</time></trkpt><trkpt lat="41.5230062" lon="1.8919221"><ele>121.33333333333333</ele><time>2026-04-19T12:38:01.029Z</time></trkpt><trkpt lat="41.5230364" lon="1.8921323"><ele>120.66666666666666</ele><time>2026-04-19T12:38:02.029Z</time></trkpt><trkpt lat="41.5230715" lon="1.8923429"><ele>120.0</ele><time>2026-04-19T12:38:03.03Z</time></trkpt><trkpt lat="41.523111" lon="1.8925722"><ele>120.0</ele><time>2026-04-19T12:38:04.028Z</time></trkpt><trkpt lat="41.5231495" lon="1.8928103"><ele>120.0</ele><time>2026-04-19T12:38:05.029Z</time></trkpt><trkpt lat="41.523185" lon="1.8930414"><ele>120.0</ele><time>2026-04-19T12:38:06.028Z</time></trkpt><trkpt lat="41.5232216" lon="1.8932929"><ele>119.66666666666666</ele><time>2026-04-19T12:38:07.03Z</time></trkpt><trkpt lat="41.5232612" lon="1.8935435"><ele>119.33333333333333</ele><time>2026-04-19T12:38:08.03Z</time></trkpt><trkpt lat="41.5233025" lon="1.8937944"><ele>119.0</ele><time>2026-04-19T12:38:09.028Z</time></trkpt><trkpt lat="41.5233474" lon="1.8940492"><ele>119.0</ele><time>2026-04-19T12:38:10.028Z</time></trkpt><trkpt lat="41.5233962" lon="1.894309"><ele>119.0</ele><time>2026-04-19T12:38:11.029Z</time></trkpt><trkpt lat="41.5234506" lon="1.8945713"><ele>119.0</ele><time>2026-04-19T12:38:12.029Z</time></trkpt><trkpt lat="41.5235055" lon="1.8948366"><ele>119.66666666666666</ele><time>2026-04-19T12:38:13.029Z</time></trkpt><trkpt lat="41.523565" lon="1.8950994"><ele>120.33333333333334</ele><time>2026-04-19T12:38:14.029Z</time></trkpt><trkpt lat="41.5236288" lon="1.895362"><ele>121.0</ele><time>2026-04-19T12:38:15.029Z</time></trkpt><trkpt lat="41.5237006" lon="1.8956323"><ele>119.33333333333334</ele><time>2026-04-19T12:38:16.03Z</time></trkpt><trkpt lat="41.5237798" lon="1.8958966"><ele>117.66666666666666</ele><time>2026-04-19T12:38:17.03Z</time></trkpt><trkpt lat="41.5238632" lon="1.8961662"><ele>116.0</ele><time>2026-04-19T12:38:18.03Z</time></trkpt><trkpt lat="41.5239538" lon="1.896453"><ele>116.0</ele><time>2026-04-19T12:38:19.032Z</time></trkpt><trkpt lat="41.524057" lon="1.8967447"><ele>116.0</ele><time>2026-04-19T12:38:20.029Z</time></trkpt><trkpt lat="41.5241684" lon="1.8970425"><ele>116.0</ele><time>2026-04-19T12:38:21.03Z</time></trkpt><trkpt lat="41.5242808" lon="1.8973386"><ele>116.0</ele><time>2026-04-19T12:38:22.029Z</time></trkpt><trkpt lat="41.524402" lon="1.8976459"><ele>116.0</ele><time>2026-04-19T12:38:23.029Z</time></trkpt><trkpt lat="41.5245251" lon="1.8979639"><ele>116.0</ele><time>2026-04-19T12:38:24.029Z</time></trkpt><trkpt lat="41.5246578" lon="1.8982857"><ele>114.0</ele><time>2026-04-19T12:38:25.028Z</time></trkpt><trkpt lat="41.5247898" lon="1.8986184"><ele>112.0</ele><time>2026-04-19T12:38:26.029Z</time></trkpt><trkpt lat="41.5249266" lon="1.8989522"><ele>110.0</ele><time>2026-04-19T12:38:27.03Z</time></trkpt><trkpt lat="41.5250559" lon="1.8992803"><ele>108.0</ele><time>2026-04-19T12:38:28.029Z</time></trkpt><trkpt lat="41.5252202" lon="1.8996218"><ele>108.0</ele><time>2026-04-19T12:38:29.03Z</time></trkpt><trkpt lat="41.5253676" lon="1.8999536"><ele>108.0</ele><time>2026-04-19T12:38:30.029Z</time></trkpt><trkpt lat="41.5255372" lon="1.900278"><ele>108.0</ele><time>2026-04-19T12:38:31.028Z</time></trkpt><trkpt lat="41.5257087" lon="1.9006012"><ele>108.0</ele><time>2026-04-19T12:38:32.029Z</time></trkpt><trkpt lat="41.5258788" lon="1.9009272"><ele>105.5</ele><time>2026-04-19T12:38:33.029Z</time></trkpt><trkpt lat="41.5260474" lon="1.9012563"><ele>103.0</ele><time>2026-04-19T12:38:34.029Z</time></trkpt><trkpt lat="41.5262171" lon="1.9015901"><ele>97.5</ele><time>2026-04-19T12:38:35.029Z</time></trkpt><trkpt lat="41.5263896" lon="1.9019147"><ele>92.0</ele><time>2026-04-19T12:38:36.029Z</time></trkpt><trkpt lat="41.5265627" lon="1.9022459"><ele>92.0</ele><time>2026-04-19T12:38:37.03Z</time></trkpt><trkpt lat="41.5267344" lon="1.9025755"><ele>92.0</ele><time>2026-04-19T12:38:38.029Z</time></trkpt><trkpt lat="41.5268974" lon="1.9029072"><ele>91.5</ele><time>2026-04-19T12:38:39.03Z</time></trkpt><trkpt lat="41.5270565" lon="1.9032415"><ele>91.0</ele><time>2026-04-19T12:38:40.029Z</time></trkpt><trkpt lat="41.5272036" lon="1.9035794"><ele>87.0</ele><time>2026-04-19T12:38:41.028Z</time></trkpt><trkpt lat="41.5273402" lon="1.903925"><ele>83.0</ele><time>2026-04-19T12:38:42.029Z</time></trkpt><trkpt lat="41.5274715" lon="1.904277"><ele>83.0</ele><time>2026-04-19T12:38:43.029Z</time></trkpt><trkpt lat="41.5275911" lon="1.9046311"><ele>83.0</ele><time>2026-04-19T12:38:44.03Z</time></trkpt><trkpt lat="41.5277017" lon="1.9049918"><ele>84.0</ele><time>2026-04-19T12:38:45.029Z</time></trkpt><trkpt lat="41.5278044" lon="1.9053573"><ele>85.0</ele><time>2026-04-19T12:38:46.027Z</time></trkpt><trkpt lat="41.5278956" lon="1.9057268"><ele>85.5</ele><time>2026-04-19T12:38:47.029Z</time></trkpt><trkpt lat="41.5279757" lon="1.9061"><ele>86.0</ele><time>2026-04-19T12:38:48.03Z</time></trkpt><trkpt lat="41.5280449" lon="1.9064784"><ele>84.5</ele><time>2026-04-19T12:38:49.03Z</time></trkpt><trkpt lat="41.528102" lon="1.9068609"><ele>83.0</ele><time>2026-04-19T12:38:50.03Z</time></trkpt><trkpt lat="41.5281473" lon="1.9072487"><ele>77.0</ele><time>2026-04-19T12:38:51.029Z</time></trkpt><trkpt lat="41.5281813" lon="1.9076424"><ele>71.0</ele><time>2026-04-19T12:38:52.029Z</time></trkpt><trkpt lat="41.5282026" lon="1.9080365"><ele>70.0</ele><time>2026-04-19T12:38:53.029Z</time></trkpt><trkpt lat="41.5282213" lon="1.9084283"><ele>69.0</ele><time>2026-04-19T12:38:54.028Z</time></trkpt><trkpt lat="41.5282268" lon="1.9088191"><ele>69.0</ele><time>2026-04-19T12:38:55.029Z</time></trkpt><trkpt lat="41.5282221" lon="1.9092088"><ele>69.0</ele><time>2026-04-19T12:38:56.028Z</time></trkpt><trkpt lat="41.5282095" lon="1.9095961"><ele>68.0</ele><time>2026-04-19T12:38:57.028Z</time></trkpt><trkpt lat="41.5281888" lon="1.9099904"><ele>67.0</ele><time>2026-04-19T12:38:58.029Z</time></trkpt><trkpt lat="41.528162" lon="1.9103792"><ele>65.5</ele><time>2026-04-19T12:38:59.03Z</time></trkpt><trkpt lat="41.5281351" lon="1.9107686"><ele>64.0</ele><time>2026-04-19T12:39:00.029Z</time></trkpt><trkpt lat="41.5281041" lon="1.9111576"><ele>64.0</ele><time>2026-04-19T12:39:01.029Z</time></trkpt><trkpt lat="41.5280773" lon="1.9115428"><ele>64.0</ele><time>2026-04-19T12:39:02.029Z</time></trkpt><trkpt lat="41.5280511" lon="1.911931"><ele>64.0</ele><time>2026-04-19T12:39:03.03Z</time></trkpt><trkpt lat="41.5280298" lon="1.9123188"><ele>64.0</ele><time>2026-04-19T12:39:04.03Z</time></trkpt><trkpt lat="41.5280161" lon="1.9127024"><ele>64.0</ele><time>2026-04-19T12:39:05.028Z</time></trkpt><trkpt lat="41.5280135" lon="1.9130878"><ele>64.0</ele><time>2026-04-19T12:39:06.029Z</time></trkpt><trkpt lat="41.5280148" lon="1.913468"><ele>68.5</ele><time>2026-04-19T12:39:07.028Z</time></trkpt><trkpt lat="41.5280218" lon="1.9138395"><ele>73.0</ele><time>2026-04-19T12:39:08.029Z</time></trkpt><trkpt lat="41.5280351" lon="1.9142119"><ele>78.0</ele><time>2026-04-19T12:39:09.029Z</time></trkpt><trkpt lat="41.5280596" lon="1.9145872"><ele>83.0</ele><time>2026-04-19T12:39:10.029Z</time></trkpt><trkpt lat="41.5280892" lon="1.9149654"><ele>81.5</ele><time>2026-04-19T12:39:11.029Z</time></trkpt><trkpt lat="41.5281276" lon="1.9153371"><ele>80.0</ele><time>2026-04-19T12:39:12.029Z</time></trkpt><trkpt lat="41.5281748" lon="1.9157133"><ele>79.0</ele><time>2026-04-19T12:39:13.03Z</time></trkpt><trkpt lat="41.5282331" lon="1.9160875"><ele>78.0</ele><time>2026-04-19T12:39:14.028Z</time></trkpt><trkpt lat="41.5282937" lon="1.9164624"><ele>81.5</ele><time>2026-04-19T12:39:15.03Z</time></trkpt><trkpt lat="41.5283631" lon="1.9168318"><ele>85.0</ele><time>2026-04-19T12:39:16.03Z</time></trkpt><trkpt lat="41.5284353" lon="1.9171929"><ele>85.0</ele><time>2026-04-19T12:39:17.029Z</time></trkpt><trkpt lat="41.5285122" lon="1.9175602"><ele>85.0</ele><time>2026-04-19T12:39:18.029Z</time></trkpt><trkpt lat="41.5285953" lon="1.9179209"><ele>89.0</ele><time>2026-04-19T12:39:19.029Z</time></trkpt><trkpt lat="41.5286868" lon="1.9182733"><ele>93.0</ele><time>2026-04-19T12:39:20.03Z</time></trkpt><trkpt lat="41.5287847" lon="1.9186204"><ele>105.0</ele><time>2026-04-19T12:39:21.028Z</time></trkpt><trkpt lat="41.5288845" lon="1.9189625"><ele>117.0</ele><time>2026-04-19T12:39:22.031Z</time></trkpt><trkpt lat="41.5289876" lon="1.9192955"><ele>117.0</ele><time>2026-04-19T12:39:23.031Z</time></trkpt><trkpt lat="41.5290895" lon="1.9196238"><ele>117.0</ele><time>2026-04-19T12:39:24.028Z</time></trkpt><trkpt lat="41.5291918" lon="1.9199535"><ele>119.0</ele><time>2026-04-19T12:39:25.029Z</time></trkpt><trkpt lat="41.5292932" lon="1.9202856"><ele>121.0</ele><time>2026-04-19T12:39:26.029Z</time></trkpt><trkpt lat="41.5293914" lon="1.9206155"><ele>125.0</ele><time>2026-04-19T12:39:27.028Z</time></trkpt><trkpt lat="41.5294883" lon="1.9209375"><ele>129.0</ele><time>2026-04-19T12:39:28.029Z</time></trkpt><trkpt lat="41.5295823" lon="1.9212519"><ele>143.0</ele><time>2026-04-19T12:39:29.031Z</time></trkpt><trkpt lat="41.5296763" lon="1.921574"><ele>157.0</ele><time>2026-04-19T12:39:30.028Z</time></trkpt><trkpt lat="41.5294351" lon="1.9363497"><ele>157.0</ele><time>2026-04-19T12:40:13.03Z</time></trkpt><trkpt lat="41.5295074" lon="1.9366664"><ele>157.0</ele><time>2026-04-19T12:40:14.029Z</time></trkpt><trkpt lat="41.5295252" lon="1.9369968"><ele>157.0</ele><time>2026-04-19T12:40:15.028Z</time></trkpt><trkpt lat="41.5295538" lon="1.9373328"><ele>157.0</ele><time>2026-04-19T12:40:16.029Z</time></trkpt><trkpt lat="41.5295915" lon="1.937662"><ele>157.0</ele><time>2026-04-19T12:40:17.028Z</time></trkpt><trkpt lat="41.5296333" lon="1.9379992"><ele>157.0</ele><time>2026-04-19T12:40:18.029Z</time></trkpt><trkpt lat="41.5296878" lon="1.9383339"><ele>159.0</ele><time>2026-04-19T12:40:19.029Z</time></trkpt><trkpt lat="41.5297485" lon="1.9386572"><ele>161.0</ele><time>2026-04-19T12:40:20.029Z</time></trkpt><trkpt lat="41.5298163" lon="1.9389735"><ele>162.5</ele><time>2026-04-19T12:40:21.028Z</time></trkpt><trkpt lat="41.5298897" lon="1.9392853"><ele>164.0</ele><time>2026-04-19T12:40:22.028Z</time></trkpt><trkpt lat="41.5299666" lon="1.9395913"><ele>164.0</ele><time>2026-04-19T12:40:23.029Z</time></trkpt><trkpt lat="41.5300544" lon="1.9398936"><ele>164.0</ele><time>2026-04-19T12:40:24.029Z</time></trkpt><trkpt lat="41.5301495" lon="1.9401894"><ele>166.5</ele><time>2026-04-19T12:40:25.03Z</time></trkpt><trkpt lat="41.5302507" lon="1.9404816"><ele>169.0</ele><time>2026-04-19T12:40:26.029Z</time></trkpt><trkpt lat="41.5303568" lon="1.9407749"><ele>171.5</ele><time>2026-04-19T12:40:27.029Z</time></trkpt><trkpt lat="41.5304739" lon="1.9410625"><ele>174.0</ele><time>2026-04-19T12:40:28.028Z</time></trkpt><trkpt lat="41.5306031" lon="1.9413428"><ele>174.0</ele><time>2026-04-19T12:40:29.029Z</time></trkpt><trkpt lat="41.5307308" lon="1.94163"><ele>174.0</ele><time>2026-04-19T12:40:30.028Z</time></trkpt><trkpt lat="41.5308711" lon="1.9419098"><ele>174.0</ele><time>2026-04-19T12:40:31.032Z</time></trkpt><trkpt lat="41.531022" lon="1.9421839"><ele>174.0</ele><time>2026-04-19T12:40:32.031Z</time></trkpt><trkpt lat="41.5311808" lon="1.942451"><ele>176.0</ele><time>2026-04-19T12:40:33.034Z</time></trkpt><trkpt lat="41.5313516" lon="1.9427117"><ele>178.0</ele><time>2026-04-19T12:40:34.03Z</time></trkpt><trkpt lat="41.5315277" lon="1.9429676"><ele>178.0</ele><time>2026-04-19T12:40:35.03Z</time></trkpt><trkpt lat="41.5317114" lon="1.9432153"><ele>178.0</ele><time>2026-04-19T12:40:36.029Z</time></trkpt><trkpt lat="41.5318917" lon="1.9434464"><ele>178.5</ele><time>2026-04-19T12:40:37.03Z</time></trkpt><trkpt lat="41.5320774" lon="1.9436786"><ele>179.0</ele><time>2026-04-19T12:40:38.028Z</time></trkpt><trkpt lat="41.5322706" lon="1.9438915"><ele>179.0</ele><time>2026-04-19T12:40:39.029Z</time></trkpt><trkpt lat="41.5324694" lon="1.944097"><ele>179.0</ele><time>2026-04-19T12:40:40.029Z</time></trkpt><trkpt lat="41.5326751" lon="1.944291"><ele>181.0</ele><time>2026-04-19T12:40:41.028Z</time></trkpt><trkpt lat="41.532878" lon="1.9444731"><ele>183.0</ele><time>2026-04-19T12:40:42.029Z</time></trkpt><trkpt lat="41.5330845" lon="1.9446454"><ele>183.0</ele><time>2026-04-19T12:40:43.031Z</time></trkpt><trkpt lat="41.5332953" lon="1.9448083"><ele>183.0</ele><time>2026-04-19T12:40:44.033Z</time></trkpt><trkpt lat="41.5335077" lon="1.9449686"><ele>185.0</ele><time>2026-04-19T12:40:45.034Z</time></trkpt><trkpt lat="41.5337234" lon="1.9451304"><ele>187.0</ele><time>2026-04-19T12:40:46.029Z</time></trkpt><trkpt lat="41.533942" lon="1.9452909"><ele>187.0</ele><time>2026-04-19T12:40:47.029Z</time></trkpt><trkpt lat="41.5341647" lon="1.9454514"><ele>187.0</ele><time>2026-04-19T12:40:48.029Z</time></trkpt><trkpt lat="41.5343841" lon="1.9456225"><ele>190.0</ele><time>2026-04-19T12:40:49.029Z</time></trkpt><trkpt lat="41.5346023" lon="1.9457982"><ele>193.0</ele><time>2026-04-19T12:40:50.03Z</time></trkpt><trkpt lat="41.534822" lon="1.9459787"><ele>193.0</ele><time>2026-04-19T12:40:51.028Z</time></trkpt><trkpt lat="41.5350387" lon="1.9461667"><ele>193.0</ele><time>2026-04-19T12:40:52.031Z</time></trkpt><trkpt lat="41.5352499" lon="1.946362"><ele>196.5</ele><time>2026-04-19T12:40:53.028Z</time></trkpt><trkpt lat="41.5354562" lon="1.9465686"><ele>200.0</ele><time>2026-04-19T12:40:54.028Z</time></trkpt><trkpt lat="41.5356555" lon="1.9467871"><ele>200.0</ele><time>2026-04-19T12:40:55.029Z</time></trkpt><trkpt lat="41.5358446" lon="1.9470124"><ele>200.0</ele><time>2026-04-19T12:40:56.028Z</time></trkpt><trkpt lat="41.5360286" lon="1.9472381"><ele>200.0</ele><time>2026-04-19T12:40:57.032Z</time></trkpt><trkpt lat="41.5362175" lon="1.9474752"><ele>200.0</ele><time>2026-04-19T12:40:58.033Z</time></trkpt><trkpt lat="41.5364028" lon="1.9477106"><ele>196.0</ele><time>2026-04-19T12:40:59.038Z</time></trkpt><trkpt lat="41.5365585" lon="1.9479582"><ele>192.0</ele><time>2026-04-19T12:41:00.029Z</time></trkpt><trkpt lat="41.5367181" lon="1.9482026"><ele>193.5</ele><time>2026-04-19T12:41:01.029Z</time></trkpt><trkpt lat="41.536875" lon="1.9484598"><ele>195.0</ele><time>2026-04-19T12:41:02.029Z</time></trkpt><trkpt lat="41.5370289" lon="1.9487188"><ele>199.5</ele><time>2026-04-19T12:41:03.03Z</time></trkpt><trkpt lat="41.5371727" lon="1.9489809"><ele>204.0</ele><time>2026-04-19T12:41:04.03Z</time></trkpt><trkpt lat="41.5373092" lon="1.9492517"><ele>204.0</ele><time>2026-04-19T12:41:05.03Z</time></trkpt><trkpt lat="41.5374428" lon="1.949529"><ele>204.0</ele><time>2026-04-19T12:41:06.03Z</time></trkpt><trkpt lat="41.5375709" lon="1.9498065"><ele>201.5</ele><time>2026-04-19T12:41:07.028Z</time></trkpt><trkpt lat="41.5376946" lon="1.9500884"><ele>199.0</ele><time>2026-04-19T12:41:08.029Z</time></trkpt><trkpt lat="41.537807" lon="1.9503766"><ele>205.5</ele><time>2026-04-19T12:41:09.027Z</time></trkpt><trkpt lat="41.5379156" lon="1.9506721"><ele>212.0</ele><time>2026-04-19T12:41:10.03Z</time></trkpt><trkpt lat="41.5380193" lon="1.9509723"><ele>212.0</ele><time>2026-04-19T12:41:11.03Z</time></trkpt><trkpt lat="41.5381199" lon="1.9512767"><ele>212.0</ele><time>2026-04-19T12:41:12.029Z</time></trkpt><trkpt lat="41.5382193" lon="1.9515802"><ele>210.5</ele><time>2026-04-19T12:41:13.028Z</time></trkpt><trkpt lat="41.5383194" lon="1.9518827"><ele>209.0</ele><time>2026-04-19T12:41:14.027Z</time></trkpt><trkpt lat="41.5384201" lon="1.9521837"><ele>209.0</ele><time>2026-04-19T12:41:15.027Z</time></trkpt><trkpt lat="41.5385245" lon="1.9524782"><ele>209.0</ele><time>2026-04-19T12:41:16.028Z</time></trkpt><trkpt lat="41.5386249" lon="1.952773"><ele>214.0</ele><time>2026-04-19T12:41:17.031Z</time></trkpt><trkpt lat="41.5387246" lon="1.9530588"><ele>219.0</ele><time>2026-04-19T12:41:18.029Z</time></trkpt><trkpt lat="41.5388266" lon="1.9533408"><ele>220.5</ele><time>2026-04-19T12:41:19.028Z</time></trkpt><trkpt lat="41.5389308" lon="1.9536198"><ele>222.0</ele><time>2026-04-19T12:41:20.031Z</time></trkpt><trkpt lat="41.5390416" lon="1.9538999"><ele>222.0</ele><time>2026-04-19T12:41:21.029Z</time></trkpt><trkpt lat="41.5391518" lon="1.9541806"><ele>222.0</ele><time>2026-04-19T12:41:22.029Z</time></trkpt><trkpt lat="41.5392685" lon="1.954454"><ele>218.0</ele><time>2026-04-19T12:41:23.029Z</time></trkpt><trkpt lat="41.5393873" lon="1.9547316"><ele>214.0</ele><time>2026-04-19T12:41:24.029Z</time></trkpt><trkpt lat="41.539514" lon="1.9550103"><ele>213.0</ele><time>2026-04-19T12:41:25.032Z</time></trkpt><trkpt lat="41.5396426" lon="1.9552911"><ele>212.0</ele><time>2026-04-19T12:41:26.032Z</time></trkpt><trkpt lat="41.5397797" lon="1.9555721"><ele>212.0</ele><time>2026-04-19T12:41:27.036Z</time></trkpt><trkpt lat="41.5399231" lon="1.9558517"><ele>212.0</ele><time>2026-04-19T12:41:28.028Z</time></trkpt><trkpt lat="41.5400703" lon="1.9561275"><ele>209.0</ele><time>2026-04-19T12:41:29.028Z</time></trkpt><trkpt lat="41.5402207" lon="1.9564014"><ele>206.0</ele><time>2026-04-19T12:41:30.029Z</time></trkpt><trkpt lat="41.5403751" lon="1.9566697"><ele>200.0</ele><time>2026-04-19T12:41:31.029Z</time></trkpt><trkpt lat="41.5405324" lon="1.956937"><ele>194.0</ele><time>2026-04-19T12:41:32.029Z</time></trkpt><trkpt lat="41.5406895" lon="1.9572032"><ele>194.0</ele><time>2026-04-19T12:41:33.03Z</time></trkpt><trkpt lat="41.5408475" lon="1.9574678"><ele>194.0</ele><time>2026-04-19T12:41:34.03Z</time></trkpt><trkpt lat="41.541012" lon="1.9577263"><ele>194.0</ele><time>2026-04-19T12:41:35.029Z</time></trkpt><trkpt lat="41.5411849" lon="1.9579792"><ele>194.0</ele><time>2026-04-19T12:41:36.027Z</time></trkpt><trkpt lat="41.5413609" lon="1.9582242"><ele>199.5</ele><time>2026-04-19T12:41:37.029Z</time></trkpt><trkpt lat="41.541544" lon="1.9584715"><ele>205.0</ele><time>2026-04-19T12:41:38.029Z</time></trkpt><trkpt lat="41.5417257" lon="1.9587195"><ele>205.0</ele><time>2026-04-19T12:41:39.029Z</time></trkpt><trkpt lat="41.5419077" lon="1.9589651"><ele>205.0</ele><time>2026-04-19T12:41:40.03Z</time></trkpt><trkpt lat="41.5420973" lon="1.9591994"><ele>214.5</ele><time>2026-04-19T12:41:41.029Z</time></trkpt><trkpt lat="41.5422901" lon="1.9594326"><ele>224.0</ele><time>2026-04-19T12:41:42.029Z</time></trkpt><trkpt lat="41.5424861" lon="1.9596596"><ele>224.0</ele><time>2026-04-19T12:41:43.031Z</time></trkpt><trkpt lat="41.5426888" lon="1.959881"><ele>224.0</ele><time>2026-04-19T12:41:44.029Z</time></trkpt><trkpt lat="41.542892" lon="1.9600969"><ele>227.0</ele><time>2026-04-19T12:41:45.03Z</time></trkpt><trkpt lat="41.5430998" lon="1.9603139"><ele>230.0</ele><time>2026-04-19T12:41:46.029Z</time></trkpt><trkpt lat="41.5433081" lon="1.9605219"><ele>230.0</ele><time>2026-04-19T12:41:47.03Z</time></trkpt><trkpt lat="41.5435117" lon="1.9607278"><ele>230.0</ele><time>2026-04-19T12:41:48.029Z</time></trkpt><trkpt lat="41.5437172" lon="1.9609274"><ele>231.0</ele><time>2026-04-19T12:41:49.028Z</time></trkpt><trkpt lat="41.5439206" lon="1.9611242"><ele>232.0</ele><time>2026-04-19T12:41:50.029Z</time></trkpt><trkpt lat="41.5441228" lon="1.9613227"><ele>232.0</ele><time>2026-04-19T12:41:51.029Z</time></trkpt><trkpt lat="41.5443256" lon="1.9615194"><ele>232.0</ele><time>2026-04-19T12:41:52.028Z</time></trkpt><trkpt lat="41.5445319" lon="1.9617156"><ele>232.0</ele><time>2026-04-19T12:41:53.03Z</time></trkpt><trkpt lat="41.5447385" lon="1.9619127"><ele>232.0</ele><time>2026-04-19T12:41:54.029Z</time></trkpt><trkpt lat="41.544943" lon="1.9621155"><ele>232.0</ele><time>2026-04-19T12:41:55.029Z</time></trkpt><trkpt lat="41.5451439" lon="1.9623196"><ele>232.0</ele><time>2026-04-19T12:41:56.028Z</time></trkpt><trkpt lat="41.5453446" lon="1.9625347"><ele>234.0</ele><time>2026-04-19T12:41:57.028Z</time></trkpt><trkpt lat="41.5455439" lon="1.9627504"><ele>236.0</ele><time>2026-04-19T12:41:58.029Z</time></trkpt><trkpt lat="41.5457413" lon="1.9629716"><ele>236.0</ele><time>2026-04-19T12:41:59.03Z</time></trkpt><trkpt lat="41.545937" lon="1.9631957"><ele>236.0</ele><time>2026-04-19T12:42:00.029Z</time></trkpt><trkpt lat="41.5461271" lon="1.9634252"><ele>234.0</ele><time>2026-04-19T12:42:01.028Z</time></trkpt><trkpt lat="41.5463145" lon="1.9636598"><ele>232.0</ele><time>2026-04-19T12:42:02.028Z</time></trkpt><trkpt lat="41.5465003" lon="1.9638992"><ele>232.0</ele><time>2026-04-19T12:42:03.029Z</time></trkpt><trkpt lat="41.5466819" lon="1.9641394"><ele>232.0</ele><time>2026-04-19T12:42:04.029Z</time></trkpt><trkpt lat="41.5468608" lon="1.9643749"><ele>229.0</ele><time>2026-04-19T12:42:05.03Z</time></trkpt><trkpt lat="41.5470376" lon="1.9646175"><ele>226.0</ele><time>2026-04-19T12:42:06.03Z</time></trkpt><trkpt lat="41.5472066" lon="1.9648679"><ele>235.0</ele><time>2026-04-19T12:42:07.029Z</time></trkpt><trkpt lat="41.5473714" lon="1.9651261"><ele>244.0</ele><time>2026-04-19T12:42:08.03Z</time></trkpt><trkpt lat="41.5475337" lon="1.9653871"><ele>244.0</ele><time>2026-04-19T12:42:09.029Z</time></trkpt><trkpt lat="41.5476933" lon="1.965655"><ele>244.0</ele><time>2026-04-19T12:42:10.029Z</time></trkpt><trkpt lat="41.5478462" lon="1.9659228"><ele>232.0</ele><time>2026-04-19T12:42:11.028Z</time></trkpt><trkpt lat="41.5480014" lon="1.9661928"><ele>220.0</ele><time>2026-04-19T12:42:12.028Z</time></trkpt><trkpt lat="41.5481569" lon="1.9664669"><ele>227.0</ele><time>2026-04-19T12:42:13.028Z</time></trkpt><trkpt lat="41.5483145" lon="1.9667445"><ele>234.0</ele><time>2026-04-19T12:42:14.028Z</time></trkpt><trkpt lat="41.5484657" lon="1.9670199"><ele>234.0</ele><time>2026-04-19T12:42:15.028Z</time></trkpt><trkpt lat="41.5486084" lon="1.9673069"><ele>234.0</ele><time>2026-04-19T12:42:16.029Z</time></trkpt><trkpt lat="41.5487466" lon="1.9675979"><ele>230.0</ele><time>2026-04-19T12:42:17.029Z</time></trkpt><trkpt lat="41.548882" lon="1.967893"><ele>226.0</ele><time>2026-04-19T12:42:18.027Z</time></trkpt><trkpt lat="41.5490124" lon="1.9681908"><ele>232.0</ele><time>2026-04-19T12:42:19.028Z</time></trkpt><trkpt lat="41.5491403" lon="1.9684909"><ele>238.0</ele><time>2026-04-19T12:42:20.029Z</time></trkpt><trkpt lat="41.5492667" lon="1.968789"><ele>238.0</ele><time>2026-04-19T12:42:21.027Z</time></trkpt><trkpt lat="41.5493912" lon="1.9690916"><ele>238.0</ele><time>2026-04-19T12:42:22.029Z</time></trkpt><trkpt lat="41.5495153" lon="1.9693952"><ele>240.0</ele><time>2026-04-19T12:42:23.027Z</time></trkpt><trkpt lat="41.5496373" lon="1.969706"><ele>242.0</ele><time>2026-04-19T12:42:24.028Z</time></trkpt><trkpt lat="41.5497577" lon="1.9700195"><ele>248.5</ele><time>2026-04-19T12:42:25.029Z</time></trkpt><trkpt lat="41.549875" lon="1.9703327"><ele>255.0</ele><time>2026-04-19T12:42:26.029Z</time></trkpt><trkpt lat="41.5499816" lon="1.9706509"><ele>258.5</ele><time>2026-04-19T12:42:27.028Z</time></trkpt><trkpt lat="41.5500939" lon="1.9709666"><ele>262.0</ele><time>2026-04-19T12:42:28.028Z</time></trkpt><trkpt lat="41.5502012" lon="1.9712832"><ele>262.0</ele><time>2026-04-19T12:42:29.027Z</time></trkpt><trkpt lat="41.5503046" lon="1.9716096"><ele>262.0</ele><time>2026-04-19T12:42:30.029Z</time></trkpt><trkpt lat="41.5504095" lon="1.9719347"><ele>259.5</ele><time>2026-04-19T12:42:31.028Z</time></trkpt><trkpt lat="41.5505137" lon="1.9722571"><ele>257.0</ele><time>2026-04-19T12:42:32.029Z</time></trkpt><trkpt lat="41.550624" lon="1.9725761"><ele>257.0</ele><time>2026-04-19T12:42:33.029Z</time></trkpt><trkpt lat="41.5507499" lon="1.9728914"><ele>257.0</ele><time>2026-04-19T12:42:34.029Z</time></trkpt><trkpt lat="41.5508816" lon="1.9731978"><ele>261.5</ele><time>2026-04-19T12:42:35.029Z</time></trkpt><trkpt lat="41.5510281" lon="1.9734845"><ele>266.0</ele><time>2026-04-19T12:42:36.027Z</time></trkpt><trkpt lat="41.5511821" lon="1.973774"><ele>260.5</ele><time>2026-04-19T12:42:37.028Z</time></trkpt><trkpt lat="41.5513437" lon="1.9740521"><ele>255.0</ele><time>2026-04-19T12:42:38.029Z</time></trkpt><trkpt lat="41.5515125" lon="1.9743218"><ele>255.0</ele><time>2026-04-19T12:42:39.028Z</time></trkpt><trkpt lat="41.5516821" lon="1.9745809"><ele>255.0</ele><time>2026-04-19T12:42:40.029Z</time></trkpt><trkpt lat="41.5518604" lon="1.9748363"><ele>256.5</ele><time>2026-04-19T12:42:41.028Z</time></trkpt><trkpt lat="41.5520467" lon="1.9750788"><ele>258.0</ele><time>2026-04-19T12:42:42.027Z</time></trkpt><trkpt lat="41.5522453" lon="1.9753"><ele>258.0</ele><time>2026-04-19T12:42:43.029Z</time></trkpt><trkpt lat="41.5524432" lon="1.9755177"><ele>258.0</ele><time>2026-04-19T12:42:44.027Z</time></trkpt><trkpt lat="41.5526479" lon="1.9757235"><ele>259.0</ele><time>2026-04-19T12:42:45.028Z</time></trkpt><trkpt lat="41.5528562" lon="1.9759247"><ele>260.0</ele><time>2026-04-19T12:42:46.028Z</time></trkpt><trkpt lat="41.5530529" lon="1.976119"><ele>260.0</ele><time>2026-04-19T12:42:47.031Z</time></trkpt><trkpt lat="41.553234" lon="1.9763185"><ele>260.0</ele><time>2026-04-19T12:42:48.028Z</time></trkpt><trkpt lat="41.5533822" lon="1.9765404"><ele>262.0</ele><time>2026-04-19T12:42:49.028Z</time></trkpt><trkpt lat="41.5534979" lon="1.9767892"><ele>264.0</ele><time>2026-04-19T12:42:50.028Z</time></trkpt><trkpt lat="41.5535791" lon="1.9770599"><ele>266.0</ele><time>2026-04-19T12:42:51.029Z</time></trkpt><trkpt lat="41.5536294" lon="1.9773557"><ele>268.5</ele><time>2026-04-19T12:42:52.028Z</time></trkpt><trkpt lat="41.5536513" lon="1.9776657"><ele>271.0</ele><time>2026-04-19T12:42:53.028Z</time></trkpt><trkpt lat="41.5536604" lon="1.9779847"><ele>271.0</ele><time>2026-04-19T12:42:54.029Z</time></trkpt><trkpt lat="41.55368" lon="1.9782981"><ele>271.0</ele><time>2026-04-19T12:42:55.029Z</time></trkpt><trkpt lat="41.5537306" lon="1.9785989"><ele>273.0</ele><time>2026-04-19T12:42:56.028Z</time></trkpt><trkpt lat="41.5538014" lon="1.9788814"><ele>275.0</ele><time>2026-04-19T12:42:57.028Z</time></trkpt><trkpt lat="41.5539476" lon="1.9791325"><ele>276.0</ele><time>2026-04-19T12:42:58.028Z</time></trkpt><trkpt lat="41.554104" lon="1.9793727"><ele>277.0</ele><time>2026-04-19T12:42:59.028Z</time></trkpt><trkpt lat="41.5542669" lon="1.9796169"><ele>277.0</ele><time>2026-04-19T12:43:00.028Z</time></trkpt><trkpt lat="41.5544108" lon="1.979872"><ele>277.0</ele><time>2026-04-19T12:43:01.029Z</time></trkpt><trkpt lat="41.5545209" lon="1.9801469"><ele>278.5</ele><time>2026-04-19T12:43:02.03Z</time></trkpt><trkpt lat="41.5545839" lon="1.9804614"><ele>280.0</ele><time>2026-04-19T12:43:03.028Z</time></trkpt><trkpt lat="41.5546115" lon="1.9807864"><ele>279.5</ele><time>2026-04-19T12:43:04.029Z</time></trkpt><trkpt lat="41.5546186" lon="1.9811196"><ele>279.0</ele><time>2026-04-19T12:43:05.028Z</time></trkpt><trkpt lat="41.5546274" lon="1.9814655"><ele>278.0</ele><time>2026-04-19T12:43:06.029Z</time></trkpt><trkpt lat="41.5546465" lon="1.9818085"><ele>277.0</ele><time>2026-04-19T12:43:07.027Z</time></trkpt><trkpt lat="41.554669" lon="1.9821484"><ele>277.0</ele><time>2026-04-19T12:43:08.029Z</time></trkpt><trkpt lat="41.5546931" lon="1.9824843"><ele>277.0</ele><time>2026-04-19T12:43:09.029Z</time></trkpt><trkpt lat="41.5547193" lon="1.9828185"><ele>278.5</ele><time>2026-04-19T12:43:10.03Z</time></trkpt><trkpt lat="41.5547455" lon="1.9831533"><ele>280.0</ele><time>2026-04-19T12:43:11.03Z</time></trkpt><trkpt lat="41.5547755" lon="1.9834859"><ele>281.5</ele><time>2026-04-19T12:43:12.028Z</time></trkpt><trkpt lat="41.5548114" lon="1.9838216"><ele>283.0</ele><time>2026-04-19T12:43:13.028Z</time></trkpt><trkpt lat="41.554854" lon="1.9841502"><ele>284.0</ele><time>2026-04-19T12:43:14.028Z</time></trkpt><trkpt lat="41.5549023" lon="1.9844769"><ele>285.0</ele><time>2026-04-19T12:43:15.029Z</time></trkpt><trkpt lat="41.5549557" lon="1.9847938"><ele>287.0</ele><time>2026-04-19T12:43:16.027Z</time></trkpt><trkpt lat="41.5550169" lon="1.9851105"><ele>289.0</ele><time>2026-04-19T12:43:17.028Z</time></trkpt><trkpt lat="41.5550884" lon="1.9854257"><ele>289.0</ele><time>2026-04-19T12:43:18.028Z</time></trkpt><trkpt lat="41.5551601" lon="1.9857424"><ele>289.0</ele><time>2026-04-19T12:43:19.028Z</time></trkpt><trkpt lat="41.5552346" lon="1.9860564"><ele>290.5</ele><time>2026-04-19T12:43:20.029Z</time></trkpt><trkpt lat="41.5553099" lon="1.986374"><ele>292.0</ele><time>2026-04-19T12:43:21.028Z</time></trkpt><trkpt lat="41.5553824" lon="1.9866897"><ele>293.5</ele><time>2026-04-19T12:43:22.028Z</time></trkpt><trkpt lat="41.555454" lon="1.9870093"><ele>295.0</ele><time>2026-04-19T12:43:23.028Z</time></trkpt><trkpt lat="41.5555208" lon="1.987329"><ele>293.0</ele><time>2026-04-19T12:43:24.027Z</time></trkpt><trkpt lat="41.555584" lon="1.9876536"><ele>291.0</ele><time>2026-04-19T12:43:25.029Z</time></trkpt><trkpt lat="41.5556354" lon="1.9879835"><ele>291.0</ele><time>2026-04-19T12:43:26.028Z</time></trkpt><trkpt lat="41.5556743" lon="1.9883169"><ele>291.0</ele><time>2026-04-19T12:43:27.029Z</time></trkpt><trkpt lat="41.5556994" lon="1.988649"><ele>291.0</ele><time>2026-04-19T12:43:28.028Z</time></trkpt><trkpt lat="41.5557101" lon="1.9889916"><ele>291.0</ele><time>2026-04-19T12:43:29.028Z</time></trkpt><trkpt lat="41.5557045" lon="1.989329"><ele>290.5</ele><time>2026-04-19T12:43:30.029Z</time></trkpt><trkpt lat="41.5556873" lon="1.989665"><ele>290.0</ele><time>2026-04-19T12:43:31.029Z</time></trkpt><trkpt lat="41.5556612" lon="1.9899991"><ele>289.0</ele><time>2026-04-19T12:43:32.027Z</time></trkpt><trkpt lat="41.555628" lon="1.9903323"><ele>288.0</ele><time>2026-04-19T12:43:33.028Z</time></trkpt><trkpt lat="41.5555892" lon="1.9906791"><ele>285.5</ele><time>2026-04-19T12:43:34.028Z</time></trkpt><trkpt lat="41.5555454" lon="1.9910338"><ele>283.0</ele><time>2026-04-19T12:43:35.028Z</time></trkpt><trkpt lat="41.5554969" lon="1.9913933"><ele>282.0</ele><time>2026-04-19T12:43:36.029Z</time></trkpt><trkpt lat="41.5554434" lon="1.9917467"><ele>281.0</ele><time>2026-04-19T12:43:37.028Z</time></trkpt><trkpt lat="41.555389" lon="1.9921035"><ele>282.5</ele><time>2026-04-19T12:43:38.028Z</time></trkpt><trkpt lat="41.5553308" lon="1.9924552"><ele>284.0</ele><time>2026-04-19T12:43:39.027Z</time></trkpt><trkpt lat="41.555273" lon="1.9928069"><ele>284.0</ele><time>2026-04-19T12:43:40.029Z</time></trkpt><trkpt lat="41.5552121" lon="1.9931589"><ele>284.0</ele><time>2026-04-19T12:43:41.027Z</time></trkpt><trkpt lat="41.555155" lon="1.9935174"><ele>285.5</ele><time>2026-04-19T12:43:42.029Z</time></trkpt><trkpt lat="41.5551002" lon="1.9938687"><ele>287.0</ele><time>2026-04-19T12:43:43.029Z</time></trkpt><trkpt lat="41.5550457" lon="1.9942203"><ele>284.0</ele><time>2026-04-19T12:43:44.028Z</time></trkpt><trkpt lat="41.5549885" lon="1.9945714"><ele>281.0</ele><time>2026-04-19T12:43:45.028Z</time></trkpt><trkpt lat="41.5549264" lon="1.9949212"><ele>279.0</ele><time>2026-04-19T12:43:46.028Z</time></trkpt><trkpt lat="41.5548606" lon="1.9952699"><ele>277.0</ele><time>2026-04-19T12:43:47.028Z</time></trkpt><trkpt lat="41.5547925" lon="1.99562"><ele>274.5</ele><time>2026-04-19T12:43:48.028Z</time></trkpt><trkpt lat="41.5547169" lon="1.995967"><ele>272.0</ele><time>2026-04-19T12:43:49.029Z</time></trkpt><trkpt lat="41.5546264" lon="1.9963056"><ele>272.5</ele><time>2026-04-19T12:43:50.028Z</time></trkpt><trkpt lat="41.5545175" lon="1.9966335"><ele>273.0</ele><time>2026-04-19T12:43:51.028Z</time></trkpt><trkpt lat="41.5543916" lon="1.9969495"><ele>273.0</ele><time>2026-04-19T12:43:52.027Z</time></trkpt><trkpt lat="41.5542495" lon="1.9972516"><ele>273.0</ele><time>2026-04-19T12:43:53.029Z</time></trkpt><trkpt lat="41.5540908" lon="1.9975447"><ele>271.5</ele><time>2026-04-19T12:43:54.027Z</time></trkpt><trkpt lat="41.5539161" lon="1.9978203"><ele>270.0</ele><time>2026-04-19T12:43:55.028Z</time></trkpt><trkpt lat="41.5537279" lon="1.9980804"><ele>271.5</ele><time>2026-04-19T12:43:56.028Z</time></trkpt><trkpt lat="41.5535299" lon="1.9983227"><ele>273.0</ele><time>2026-04-19T12:43:57.028Z</time></trkpt><trkpt lat="41.5533236" lon="1.9985399"><ele>273.0</ele><time>2026-04-19T12:43:58.029Z</time></trkpt><trkpt lat="41.5531121" lon="1.9987421"><ele>273.0</ele><time>2026-04-19T12:43:59.027Z</time></trkpt><trkpt lat="41.5528967" lon="1.9989432"><ele>277.0</ele><time>2026-04-19T12:44:00.029Z</time></trkpt><trkpt lat="41.5526853" lon="1.9991398"><ele>281.0</ele><time>2026-04-19T12:44:01.029Z</time></trkpt><trkpt lat="41.5524789" lon="1.9993513"><ele>281.5</ele><time>2026-04-19T12:44:02.028Z</time></trkpt><trkpt lat="41.5522826" lon="1.9995859"><ele>282.0</ele><time>2026-04-19T12:44:03.028Z</time></trkpt><trkpt lat="41.5520945" lon="1.9998349"><ele>288.0</ele><time>2026-04-19T12:44:04.028Z</time></trkpt><trkpt lat="41.5519158" lon="2.0000955"><ele>294.0</ele><time>2026-04-19T12:44:05.028Z</time></trkpt><trkpt lat="41.5517468" lon="2.0003646"><ele>294.0</ele><time>2026-04-19T12:44:06.028Z</time></trkpt><trkpt lat="41.5515912" lon="2.0006458"><ele>294.0</ele><time>2026-04-19T12:44:07.029Z</time></trkpt><trkpt lat="41.5514476" lon="2.0009292"><ele>290.5</ele><time>2026-04-19T12:44:08.027Z</time></trkpt><trkpt lat="41.5513149" lon="2.0012045"><ele>287.0</ele><time>2026-04-19T12:44:09.029Z</time></trkpt><trkpt lat="41.5511989" lon="2.001461"><ele>293.33333333333337</ele><time>2026-04-19T12:44:10.028Z</time></trkpt><trkpt lat="41.5510997" lon="2.0017059"><ele>299.6666666666667</ele><time>2026-04-19T12:44:11.029Z</time></trkpt><trkpt lat="41.5510008" lon="2.0019362"><ele>306.0</ele><time>2026-04-19T12:44:12.028Z</time></trkpt><trkpt lat="41.5509132" lon="2.0021501"><ele>306.0</ele><time>2026-04-19T12:44:13.03Z</time></trkpt><trkpt lat="41.5508358" lon="2.0023336"><ele>306.0</ele><time>2026-04-19T12:44:14.027Z</time></trkpt><trkpt lat="41.5507587" lon="2.0024971"><ele>306.0</ele><time>2026-04-19T12:44:15.028Z</time></trkpt><trkpt lat="41.5506914" lon="2.0026201"><ele>306.0</ele><time>2026-04-19T12:44:16.03Z</time></trkpt><trkpt lat="41.5506252" lon="2.0027036"><ele>305.5</ele><time>2026-04-19T12:44:17.028Z</time></trkpt><trkpt lat="41.5505677" lon="2.0027586"><ele>305.0</ele><time>2026-04-19T12:44:18.028Z</time></trkpt><trkpt lat="41.5505115" lon="2.0028016"><ele>304.5</ele><time>2026-04-19T12:44:19.028Z</time></trkpt><trkpt lat="41.5504504" lon="2.0028555"><ele>304.0</ele><time>2026-04-19T12:44:20.03Z</time></trkpt><trkpt lat="41.5503696" lon="2.002913"><ele>303.5</ele><time>2026-04-19T12:44:21.028Z</time></trkpt><trkpt lat="41.5502733" lon="2.0029588"><ele>303.0</ele><time>2026-04-19T12:44:22.028Z</time></trkpt><trkpt lat="41.5501584" lon="2.0029804"><ele>303.0</ele><time>2026-04-19T12:44:23.027Z</time></trkpt><trkpt lat="41.5500377" lon="2.0029691"><ele>303.0</ele><time>2026-04-19T12:44:24.029Z</time></trkpt><trkpt lat="41.5499185" lon="2.002936"><ele>303.0</ele><time>2026-04-19T12:44:25.029Z</time></trkpt><trkpt lat="41.5498165" lon="2.0028812"><ele>303.0</ele><time>2026-04-19T12:44:26.029Z</time></trkpt><trkpt lat="41.5497232" lon="2.0028146"><ele>303.0</ele><time>2026-04-19T12:44:27.03Z</time></trkpt><trkpt lat="41.549636" lon="2.0027471"><ele>303.0</ele><time>2026-04-19T12:44:28.027Z</time></trkpt><trkpt lat="41.5495681" lon="2.0026865"><ele>303.0</ele><time>2026-04-19T12:44:29.028Z</time></trkpt><trkpt lat="41.5495042" lon="2.0026092"><ele>303.0</ele><time>2026-04-19T12:44:30.029Z</time></trkpt><trkpt lat="41.5494472" lon="2.0025127"><ele>303.0</ele><time>2026-04-19T12:44:31.029Z</time></trkpt><trkpt lat="41.5493833" lon="2.0024402"><ele>303.0</ele><time>2026-04-19T12:44:32.03Z</time></trkpt><trkpt lat="41.5493058" lon="2.0024149"><ele>302.3333333333333</ele><time>2026-04-19T12:44:33.029Z</time></trkpt><trkpt lat="41.5492229" lon="2.0024231"><ele>301.6666666666667</ele><time>2026-04-19T12:44:34.031Z</time></trkpt><trkpt lat="41.5491469" lon="2.0024727"><ele>301.0</ele><time>2026-04-19T12:44:35.028Z</time></trkpt><trkpt lat="41.5490946" lon="2.0025498"><ele>300.33333333333337</ele><time>2026-04-19T12:44:36.029Z</time></trkpt><trkpt lat="41.5490653" lon="2.0026507"><ele>299.6666666666667</ele><time>2026-04-19T12:44:37.028Z</time></trkpt><trkpt lat="41.5490582" lon="2.0027594"><ele>299.0</ele><time>2026-04-19T12:44:38.033Z</time></trkpt><trkpt lat="41.5490787" lon="2.0028666"><ele>298.4</ele><time>2026-04-19T12:44:39.028Z</time></trkpt><trkpt lat="41.5491191" lon="2.0029712"><ele>297.79999999999995</ele><time>2026-04-19T12:44:40.029Z</time></trkpt><trkpt lat="41.5491634" lon="2.0030851"><ele>297.20000000000005</ele><time>2026-04-19T12:44:41.03Z</time></trkpt><trkpt lat="41.5491932" lon="2.0032118"><ele>296.6</ele><time>2026-04-19T12:44:42.029Z</time></trkpt><trkpt lat="41.5491981" lon="2.003357"><ele>296.0</ele><time>2026-04-19T12:44:43.03Z</time></trkpt><trkpt lat="41.5491894" lon="2.0035141"><ele>294.0</ele><time>2026-04-19T12:44:44.03Z</time></trkpt><trkpt lat="41.5491807" lon="2.0036797"><ele>292.0</ele><time>2026-04-19T12:44:45.029Z</time></trkpt><trkpt lat="41.5491729" lon="2.0038524"><ele>290.0</ele><time>2026-04-19T12:44:46.029Z</time></trkpt><trkpt lat="41.5491698" lon="2.004031"><ele>288.0</ele><time>2026-04-19T12:44:47.028Z</time></trkpt><trkpt lat="41.549169" lon="2.0042041"><ele>286.6666666666667</ele><time>2026-04-19T12:44:48.029Z</time></trkpt><trkpt lat="41.5491779" lon="2.0043972"><ele>285.33333333333337</ele><time>2026-04-19T12:44:49.028Z</time></trkpt><trkpt lat="41.5491951" lon="2.0045992"><ele>284.0</ele><time>2026-04-19T12:44:50.03Z</time></trkpt><trkpt lat="41.5492225" lon="2.0048138"><ele>281.33333333333337</ele><time>2026-04-19T12:44:51.03Z</time></trkpt><trkpt lat="41.5492571" lon="2.0050246"><ele>278.6666666666667</ele><time>2026-04-19T12:44:52.029Z</time></trkpt><trkpt lat="41.5492952" lon="2.0052314"><ele>276.0</ele><time>2026-04-19T12:44:53.029Z</time></trkpt><trkpt lat="41.5493436" lon="2.005437"><ele>276.0</ele><time>2026-04-19T12:44:54.029Z</time></trkpt><trkpt lat="41.5493885" lon="2.0056375"><ele>276.0</ele><time>2026-04-19T12:44:55.029Z</time></trkpt><trkpt lat="41.549438" lon="2.0058318"><ele>276.0</ele><time>2026-04-19T12:44:56.029Z</time></trkpt><trkpt lat="41.549488" lon="2.0060167"><ele>272.6666666666667</ele><time>2026-04-19T12:44:57.028Z</time></trkpt><trkpt lat="41.5495364" lon="2.0062033"><ele>269.33333333333337</ele><time>2026-04-19T12:44:58.028Z</time></trkpt><trkpt lat="41.5495849" lon="2.0063955"><ele>266.0</ele><time>2026-04-19T12:44:59.027Z</time></trkpt><trkpt lat="41.5496325" lon="2.0065975"><ele>264.33333333333337</ele><time>2026-04-19T12:45:00.028Z</time></trkpt><trkpt lat="41.5496797" lon="2.0067969"><ele>262.6666666666667</ele><time>2026-04-19T12:45:01.031Z</time></trkpt><trkpt lat="41.549721" lon="2.0070013"><ele>261.0</ele><time>2026-04-19T12:45:02.029Z</time></trkpt><trkpt lat="41.5497607" lon="2.0072072"><ele>261.0</ele><time>2026-04-19T12:45:03.028Z</time></trkpt><trkpt lat="41.5497925" lon="2.0074139"><ele>261.0</ele><time>2026-04-19T12:45:04.028Z</time></trkpt><trkpt lat="41.5498282" lon="2.0076126"><ele>261.0</ele><time>2026-04-19T12:45:05.028Z</time></trkpt><trkpt lat="41.5498519" lon="2.0078292"><ele>259.0</ele><time>2026-04-19T12:45:06.028Z</time></trkpt><trkpt lat="41.5498702" lon="2.0080823"><ele>257.0</ele><time>2026-04-19T12:45:07.029Z</time></trkpt><trkpt lat="41.5498802" lon="2.0083495"><ele>255.0</ele><time>2026-04-19T12:45:08.027Z</time></trkpt><trkpt lat="41.5498878" lon="2.0086275"><ele>254.33333333333331</ele><time>2026-04-19T12:45:09.028Z</time></trkpt><trkpt lat="41.5498858" lon="2.0089254"><ele>253.66666666666666</ele><time>2026-04-19T12:45:10.029Z</time></trkpt><trkpt lat="41.5498807" lon="2.0092238"><ele>253.0</ele><time>2026-04-19T12:45:11.029Z</time></trkpt><trkpt lat="41.5498624" lon="2.0095142"><ele>251.33333333333331</ele><time>2026-04-19T12:45:12.028Z</time></trkpt><trkpt lat="41.5498371" lon="2.009797"><ele>249.66666666666669</ele><time>2026-04-19T12:45:13.028Z</time></trkpt><trkpt lat="41.5498059" lon="2.0100739"><ele>248.0</ele><time>2026-04-19T12:45:14.029Z</time></trkpt><trkpt lat="41.5497542" lon="2.0103373"><ele>247.0</ele><time>2026-04-19T12:45:15.031Z</time></trkpt><trkpt lat="41.5496926" lon="2.0105862"><ele>246.0</ele><time>2026-04-19T12:45:16.029Z</time></trkpt><trkpt lat="41.5496252" lon="2.0108228"><ele>245.0</ele><time>2026-04-19T12:45:17.03Z</time></trkpt><trkpt lat="41.5495528" lon="2.0110493"><ele>244.66666666666669</ele><time>2026-04-19T12:45:18.029Z</time></trkpt><trkpt lat="41.5494814" lon="2.0112642"><ele>244.33333333333331</ele><time>2026-04-19T12:45:19.028Z</time></trkpt><trkpt lat="41.5494137" lon="2.011466"><ele>244.0</ele><time>2026-04-19T12:45:20.028Z</time></trkpt><trkpt lat="41.5493496" lon="2.011651"><ele>243.25</ele><time>2026-04-19T12:45:21.029Z</time></trkpt><trkpt lat="41.5492854" lon="2.0118321"><ele>242.5</ele><time>2026-04-19T12:45:22.027Z</time></trkpt><trkpt lat="41.5492237" lon="2.0120051"><ele>241.75</ele><time>2026-04-19T12:45:23.029Z</time></trkpt><trkpt lat="41.5491661" lon="2.0121549"><ele>241.0</ele><time>2026-04-19T12:45:24.029Z</time></trkpt><trkpt lat="41.5491133" lon="2.0122777"><ele>240.99999999999997</ele><time>2026-04-19T12:45:25.029Z</time></trkpt><trkpt lat="41.5490659" lon="2.0123891"><ele>241.0</ele><time>2026-04-19T12:45:26.03Z</time></trkpt><trkpt lat="41.5490183" lon="2.0124842"><ele>241.0</ele><time>2026-04-19T12:45:27.028Z</time></trkpt><trkpt lat="41.5489698" lon="2.0125681"><ele>241.0</ele><time>2026-04-19T12:45:28.029Z</time></trkpt><trkpt lat="41.5489287" lon="2.0126531"><ele>240.99999999999997</ele><time>2026-04-19T12:45:29.03Z</time></trkpt><trkpt lat="41.5489085" lon="2.0127476"><ele>241.0</ele><time>2026-04-19T12:45:30.031Z</time></trkpt><trkpt lat="41.5489137" lon="2.0128432"><ele>240.99999999999997</ele><time>2026-04-19T12:45:31.029Z</time></trkpt><trkpt lat="41.5489507" lon="2.0129236"><ele>241.0</ele><time>2026-04-19T12:45:32.029Z</time></trkpt><trkpt lat="41.5490106" lon="2.012978"><ele>241.0</ele><time>2026-04-19T12:45:33.028Z</time></trkpt><trkpt lat="41.5490892" lon="2.0130039"><ele>241.0</ele><time>2026-04-19T12:45:34.029Z</time></trkpt><trkpt lat="41.5491866" lon="2.0129985"><ele>240.99999999999997</ele><time>2026-04-19T12:45:35.029Z</time></trkpt><trkpt lat="41.5493002" lon="2.0129699"><ele>241.0</ele><time>2026-04-19T12:45:36.027Z</time></trkpt><trkpt lat="41.5494215" lon="2.0129362"><ele>241.0</ele><time>2026-04-19T12:45:37.03Z</time></trkpt><trkpt lat="41.5495374" lon="2.0129177"><ele>241.00000000000003</ele><time>2026-04-19T12:45:38.028Z</time></trkpt><trkpt lat="41.5496397" lon="2.0128807"><ele>241.00000000000003</ele><time>2026-04-19T12:45:39.029Z</time></trkpt><trkpt lat="41.5497169" lon="2.0128078"><ele>241.0</ele><time>2026-04-19T12:45:40.03Z</time></trkpt><trkpt lat="41.5497714" lon="2.0127124"><ele>241.0</ele><time>2026-04-19T12:45:41.029Z</time></trkpt><trkpt lat="41.5497939" lon="2.0126108"><ele>241.8</ele><time>2026-04-19T12:45:42.028Z</time></trkpt><trkpt lat="41.5497976" lon="2.0124967"><ele>242.60000000000002</ele><time>2026-04-19T12:45:43.029Z</time></trkpt><trkpt lat="41.5497568" lon="2.0123872"><ele>243.4</ele><time>2026-04-19T12:45:44.028Z</time></trkpt><trkpt lat="41.549721" lon="2.0122808"><ele>244.2</ele><time>2026-04-19T12:45:45.028Z</time></trkpt><trkpt lat="41.5496971" lon="2.0121869"><ele>245.0</ele><time>2026-04-19T12:45:46.029Z</time></trkpt><trkpt lat="41.5497038" lon="2.0120353"><ele>245.0</ele><time>2026-04-19T12:45:48.03Z</time></trkpt><trkpt lat="41.5497173" lon="2.0119415"><ele>245.0</ele><time>2026-04-19T12:45:50.029Z</time></trkpt></trkseg></trk></gpx>